<?xml version="1.0" encoding="UTF-8"?>
<gpx version="1.1" creator="https://www.youtrack.es" xsi:schemaLocation="http://www.topografix.com/GPX/1/1 http://www.topografix.com/GPX/1/1/gpx.xsd http://www.garmin.com/xmlschemas/GpxExtensions/v3 http://www.garmin.com/xmlschemas/GpxExtensionsv3.xsd http://www.garmin.com/xmlschemas/TrackPointExtension/v1 http://www.garmin.com/xmlschemas/TrackPointExtensionv1.xsd" xmlns:gpxtpx="http://www.garmin.com/xmlschemas/TrackPointExtension/v1" xmlns:gpxx="http://www.garmin.com/xmlschemas/GpxExtensions/v3" xmlns:xsi="http://www.w3.org/2001/XMLSchema-instance">
  <metadata>
    <link href="https://www.youtrack.es">
      <text>YouTrack.es</text>
    </link>
    <time>2026-05-08T19:13:07Z</time>
  </metadata>
  <trk>
    <src>https://www.youtrack.es</src>
    <link href="https://www.youtrack.es/ruta/5788-stmartisarroca">
      <text>YouTrack.es</text>
    </link>
    <trkseg>
      <trkpt lat="41.730957200" lon="1.827275500">
        <ele>292.40</ele>
        <time>2018-05-26T06:55:44Z</time>
      </trkpt>
      <trkpt lat="41.730850400" lon="1.827283600">
        <ele>292.40</ele>
        <time>2018-05-26T06:55:48Z</time>
      </trkpt>
      <trkpt lat="41.730747300" lon="1.827349100">
        <ele>292.20</ele>
        <time>2018-05-26T06:55:55Z</time>
      </trkpt>
      <trkpt lat="41.730710000" lon="1.827127300">
        <ele>291.80</ele>
        <time>2018-05-26T06:55:58Z</time>
      </trkpt>
      <trkpt lat="41.730670400" lon="1.826818300">
        <ele>291.20</ele>
        <time>2018-05-26T06:56:01Z</time>
      </trkpt>
      <trkpt lat="41.730638900" lon="1.826638700">
        <ele>290.60</ele>
        <time>2018-05-26T06:56:03Z</time>
      </trkpt>
      <trkpt lat="41.730607600" lon="1.826450600">
        <ele>290.00</ele>
        <time>2018-05-26T06:56:05Z</time>
      </trkpt>
      <trkpt lat="41.730552400" lon="1.826174800">
        <ele>289.20</ele>
        <time>2018-05-26T06:56:08Z</time>
      </trkpt>
      <trkpt lat="41.730622200" lon="1.825936300">
        <ele>288.40</ele>
        <time>2018-05-26T06:56:11Z</time>
      </trkpt>
      <trkpt lat="41.730687300" lon="1.825791700">
        <ele>288.40</ele>
        <time>2018-05-26T06:56:13Z</time>
      </trkpt>
      <trkpt lat="41.730714200" lon="1.825613400">
        <ele>288.20</ele>
        <time>2018-05-26T06:56:15Z</time>
      </trkpt>
      <trkpt lat="41.730664600" lon="1.825357800">
        <ele>288.00</ele>
        <time>2018-05-26T06:56:18Z</time>
      </trkpt>
      <trkpt lat="41.730536000" lon="1.825165000">
        <ele>288.00</ele>
        <time>2018-05-26T06:56:21Z</time>
      </trkpt>
      <trkpt lat="41.730358000" lon="1.825089900">
        <ele>287.40</ele>
        <time>2018-05-26T06:56:24Z</time>
      </trkpt>
      <trkpt lat="41.730122100" lon="1.825147900">
        <ele>287.20</ele>
        <time>2018-05-26T06:56:28Z</time>
      </trkpt>
      <trkpt lat="41.729912800" lon="1.825063900">
        <ele>286.40</ele>
        <time>2018-05-26T06:56:32Z</time>
      </trkpt>
      <trkpt lat="41.729829000" lon="1.824974900">
        <ele>286.20</ele>
        <time>2018-05-26T06:56:34Z</time>
      </trkpt>
      <trkpt lat="41.729635000" lon="1.824785800">
        <ele>286.20</ele>
        <time>2018-05-26T06:56:38Z</time>
      </trkpt>
      <trkpt lat="41.729318500" lon="1.824483300">
        <ele>285.20</ele>
        <time>2018-05-26T06:56:44Z</time>
      </trkpt>
      <trkpt lat="41.728973400" lon="1.824195700">
        <ele>284.20</ele>
        <time>2018-05-26T06:56:50Z</time>
      </trkpt>
      <trkpt lat="41.728815900" lon="1.824043400">
        <ele>283.60</ele>
        <time>2018-05-26T06:56:53Z</time>
      </trkpt>
      <trkpt lat="41.728629100" lon="1.823851600">
        <ele>283.20</ele>
        <time>2018-05-26T06:56:57Z</time>
      </trkpt>
      <trkpt lat="41.728476100" lon="1.823735800">
        <ele>283.00</ele>
        <time>2018-05-26T06:57:02Z</time>
      </trkpt>
      <trkpt lat="41.728387500" lon="1.823671000">
        <ele>282.80</ele>
        <time>2018-05-26T06:57:06Z</time>
      </trkpt>
      <trkpt lat="41.728247400" lon="1.823665000">
        <ele>282.40</ele>
        <time>2018-05-26T06:57:10Z</time>
      </trkpt>
      <trkpt lat="41.728106000" lon="1.823649300">
        <ele>282.20</ele>
        <time>2018-05-26T06:57:13Z</time>
      </trkpt>
      <trkpt lat="41.727957600" lon="1.823636300">
        <ele>282.00</ele>
        <time>2018-05-26T06:57:16Z</time>
      </trkpt>
      <trkpt lat="41.727635600" lon="1.823602100">
        <ele>281.80</ele>
        <time>2018-05-26T06:57:22Z</time>
      </trkpt>
      <trkpt lat="41.727228200" lon="1.823581800">
        <ele>281.00</ele>
        <time>2018-05-26T06:57:29Z</time>
      </trkpt>
      <trkpt lat="41.726720800" lon="1.823553000">
        <ele>280.80</ele>
        <time>2018-05-26T06:57:38Z</time>
      </trkpt>
      <trkpt lat="41.726613600" lon="1.823543400">
        <ele>280.60</ele>
        <time>2018-05-26T06:57:40Z</time>
      </trkpt>
      <trkpt lat="41.726290000" lon="1.823523300">
        <ele>280.00</ele>
        <time>2018-05-26T06:57:46Z</time>
      </trkpt>
      <trkpt lat="41.725885000" lon="1.823517700">
        <ele>279.60</ele>
        <time>2018-05-26T06:57:53Z</time>
      </trkpt>
      <trkpt lat="41.725665000" lon="1.823518600">
        <ele>279.40</ele>
        <time>2018-05-26T06:57:57Z</time>
      </trkpt>
      <trkpt lat="41.725555000" lon="1.823534600">
        <ele>279.40</ele>
        <time>2018-05-26T06:57:59Z</time>
      </trkpt>
      <trkpt lat="41.725448600" lon="1.823564800">
        <ele>279.20</ele>
        <time>2018-05-26T06:58:02Z</time>
      </trkpt>
      <trkpt lat="41.725359200" lon="1.823474700">
        <ele>278.80</ele>
        <time>2018-05-26T06:58:06Z</time>
      </trkpt>
      <trkpt lat="41.725330900" lon="1.823245800">
        <ele>278.20</ele>
        <time>2018-05-26T06:58:10Z</time>
      </trkpt>
      <trkpt lat="41.725317100" lon="1.823111600">
        <ele>277.80</ele>
        <time>2018-05-26T06:58:12Z</time>
      </trkpt>
      <trkpt lat="41.725275500" lon="1.822964600">
        <ele>277.60</ele>
        <time>2018-05-26T06:58:14Z</time>
      </trkpt>
      <trkpt lat="41.725198700" lon="1.822831900">
        <ele>276.80</ele>
        <time>2018-05-26T06:58:16Z</time>
      </trkpt>
      <trkpt lat="41.725117800" lon="1.822691100">
        <ele>276.20</ele>
        <time>2018-05-26T06:58:18Z</time>
      </trkpt>
      <trkpt lat="41.724947600" lon="1.822411400">
        <ele>274.40</ele>
        <time>2018-05-26T06:58:22Z</time>
      </trkpt>
      <trkpt lat="41.724802300" lon="1.822184900">
        <ele>273.20</ele>
        <time>2018-05-26T06:58:25Z</time>
      </trkpt>
      <trkpt lat="41.724701600" lon="1.822061500">
        <ele>272.00</ele>
        <time>2018-05-26T06:58:27Z</time>
      </trkpt>
      <trkpt lat="41.724557900" lon="1.821885800">
        <ele>271.60</ele>
        <time>2018-05-26T06:58:30Z</time>
      </trkpt>
      <trkpt lat="41.724397100" lon="1.821734500">
        <ele>271.60</ele>
        <time>2018-05-26T06:58:33Z</time>
      </trkpt>
      <trkpt lat="41.724215800" lon="1.821625600">
        <ele>271.60</ele>
        <time>2018-05-26T06:58:35Z</time>
      </trkpt>
      <trkpt lat="41.724067000" lon="1.821565300">
        <ele>271.60</ele>
        <time>2018-05-26T06:58:37Z</time>
      </trkpt>
      <trkpt lat="41.723950200" lon="1.821522200">
        <ele>272.00</ele>
        <time>2018-05-26T06:58:39Z</time>
      </trkpt>
      <trkpt lat="41.723760900" lon="1.821511800">
        <ele>272.20</ele>
        <time>2018-05-26T06:58:42Z</time>
      </trkpt>
      <trkpt lat="41.723625300" lon="1.821542400">
        <ele>272.40</ele>
        <time>2018-05-26T06:58:44Z</time>
      </trkpt>
      <trkpt lat="41.723481100" lon="1.821596700">
        <ele>272.20</ele>
        <time>2018-05-26T06:58:46Z</time>
      </trkpt>
      <trkpt lat="41.723329900" lon="1.821660600">
        <ele>272.40</ele>
        <time>2018-05-26T06:58:48Z</time>
      </trkpt>
      <trkpt lat="41.722894500" lon="1.821783800">
        <ele>271.00</ele>
        <time>2018-05-26T06:58:54Z</time>
      </trkpt>
      <trkpt lat="41.722745400" lon="1.821832100">
        <ele>270.80</ele>
        <time>2018-05-26T06:58:56Z</time>
      </trkpt>
      <trkpt lat="41.722447500" lon="1.821904500">
        <ele>270.20</ele>
        <time>2018-05-26T06:59:00Z</time>
      </trkpt>
      <trkpt lat="41.722293400" lon="1.821965700">
        <ele>269.60</ele>
        <time>2018-05-26T06:59:02Z</time>
      </trkpt>
      <trkpt lat="41.722054100" lon="1.821976000">
        <ele>268.60</ele>
        <time>2018-05-26T06:59:05Z</time>
      </trkpt>
      <trkpt lat="41.721889300" lon="1.821960800">
        <ele>267.80</ele>
        <time>2018-05-26T06:59:07Z</time>
      </trkpt>
      <trkpt lat="41.721757200" lon="1.821865600">
        <ele>266.80</ele>
        <time>2018-05-26T06:59:09Z</time>
      </trkpt>
      <trkpt lat="41.721683800" lon="1.821695100">
        <ele>266.00</ele>
        <time>2018-05-26T06:59:11Z</time>
      </trkpt>
      <trkpt lat="41.721657700" lon="1.821434100">
        <ele>264.80</ele>
        <time>2018-05-26T06:59:14Z</time>
      </trkpt>
      <trkpt lat="41.721715400" lon="1.821136200">
        <ele>264.00</ele>
        <time>2018-05-26T06:59:18Z</time>
      </trkpt>
      <trkpt lat="41.721776400" lon="1.820945900">
        <ele>263.60</ele>
        <time>2018-05-26T06:59:36Z</time>
      </trkpt>
      <trkpt lat="41.721700500" lon="1.820789900">
        <ele>262.60</ele>
        <time>2018-05-26T06:59:40Z</time>
      </trkpt>
      <trkpt lat="41.721623500" lon="1.820685100">
        <ele>262.20</ele>
        <time>2018-05-26T06:59:42Z</time>
      </trkpt>
      <trkpt lat="41.721472600" lon="1.820601200">
        <ele>261.40</ele>
        <time>2018-05-26T06:59:45Z</time>
      </trkpt>
      <trkpt lat="41.721234800" lon="1.820599100">
        <ele>261.40</ele>
        <time>2018-05-26T06:59:49Z</time>
      </trkpt>
      <trkpt lat="41.720881200" lon="1.820626600">
        <ele>261.60</ele>
        <time>2018-05-26T06:59:55Z</time>
      </trkpt>
      <trkpt lat="41.720718800" lon="1.820636900">
        <ele>261.40</ele>
        <time>2018-05-26T06:59:58Z</time>
      </trkpt>
      <trkpt lat="41.720442300" lon="1.820627100">
        <ele>261.60</ele>
        <time>2018-05-26T07:00:03Z</time>
      </trkpt>
      <trkpt lat="41.720315700" lon="1.820498300">
        <ele>262.20</ele>
        <time>2018-05-26T07:00:06Z</time>
      </trkpt>
      <trkpt lat="41.720317700" lon="1.820262000">
        <ele>263.00</ele>
        <time>2018-05-26T07:00:09Z</time>
      </trkpt>
      <trkpt lat="41.720331900" lon="1.820097700">
        <ele>263.00</ele>
        <time>2018-05-26T07:00:11Z</time>
      </trkpt>
      <trkpt lat="41.720333500" lon="1.819948400">
        <ele>263.00</ele>
        <time>2018-05-26T07:00:13Z</time>
      </trkpt>
      <trkpt lat="41.720338600" lon="1.819799300">
        <ele>263.20</ele>
        <time>2018-05-26T07:00:15Z</time>
      </trkpt>
      <trkpt lat="41.720339200" lon="1.819651200">
        <ele>263.60</ele>
        <time>2018-05-26T07:00:17Z</time>
      </trkpt>
      <trkpt lat="41.720341900" lon="1.819442600">
        <ele>264.00</ele>
        <time>2018-05-26T07:00:20Z</time>
      </trkpt>
      <trkpt lat="41.720341300" lon="1.819319300">
        <ele>264.80</ele>
        <time>2018-05-26T07:00:22Z</time>
      </trkpt>
      <trkpt lat="41.720341100" lon="1.819095600">
        <ele>266.00</ele>
        <time>2018-05-26T07:00:26Z</time>
      </trkpt>
      <trkpt lat="41.720337100" lon="1.818945400">
        <ele>266.80</ele>
        <time>2018-05-26T07:00:29Z</time>
      </trkpt>
      <trkpt lat="41.720321900" lon="1.818621700">
        <ele>268.40</ele>
        <time>2018-05-26T07:00:36Z</time>
      </trkpt>
      <trkpt lat="41.720253200" lon="1.818458500">
        <ele>269.60</ele>
        <time>2018-05-26T07:00:40Z</time>
      </trkpt>
      <trkpt lat="41.720169200" lon="1.818377100">
        <ele>270.40</ele>
        <time>2018-05-26T07:00:43Z</time>
      </trkpt>
      <trkpt lat="41.720030400" lon="1.818206200">
        <ele>271.20</ele>
        <time>2018-05-26T07:00:48Z</time>
      </trkpt>
      <trkpt lat="41.719982300" lon="1.817955200">
        <ele>273.20</ele>
        <time>2018-05-26T07:00:54Z</time>
      </trkpt>
      <trkpt lat="41.719989900" lon="1.817765400">
        <ele>274.40</ele>
        <time>2018-05-26T07:00:58Z</time>
      </trkpt>
      <trkpt lat="41.719992500" lon="1.817636500">
        <ele>275.20</ele>
        <time>2018-05-26T07:01:01Z</time>
      </trkpt>
      <trkpt lat="41.720004600" lon="1.817359100">
        <ele>276.80</ele>
        <time>2018-05-26T07:01:07Z</time>
      </trkpt>
      <trkpt lat="41.720007100" lon="1.817225100">
        <ele>277.80</ele>
        <time>2018-05-26T07:01:10Z</time>
      </trkpt>
      <trkpt lat="41.720014500" lon="1.817049500">
        <ele>279.00</ele>
        <time>2018-05-26T07:01:14Z</time>
      </trkpt>
      <trkpt lat="41.720021800" lon="1.816830200">
        <ele>280.40</ele>
        <time>2018-05-26T07:01:19Z</time>
      </trkpt>
      <trkpt lat="41.720027700" lon="1.816655100">
        <ele>281.40</ele>
        <time>2018-05-26T07:01:23Z</time>
      </trkpt>
      <trkpt lat="41.720028200" lon="1.816479200">
        <ele>282.40</ele>
        <time>2018-05-26T07:01:27Z</time>
      </trkpt>
      <trkpt lat="41.720024300" lon="1.816297000">
        <ele>283.80</ele>
        <time>2018-05-26T07:01:31Z</time>
      </trkpt>
      <trkpt lat="41.720007700" lon="1.816128500">
        <ele>284.80</ele>
        <time>2018-05-26T07:01:35Z</time>
      </trkpt>
      <trkpt lat="41.719978300" lon="1.816010700">
        <ele>286.00</ele>
        <time>2018-05-26T07:01:38Z</time>
      </trkpt>
      <trkpt lat="41.719917000" lon="1.815818000">
        <ele>287.40</ele>
        <time>2018-05-26T07:01:43Z</time>
      </trkpt>
      <trkpt lat="41.719839400" lon="1.815682300">
        <ele>288.60</ele>
        <time>2018-05-26T07:01:47Z</time>
      </trkpt>
      <trkpt lat="41.719748700" lon="1.815555200">
        <ele>289.60</ele>
        <time>2018-05-26T07:01:51Z</time>
      </trkpt>
      <trkpt lat="41.719653900" lon="1.815444500">
        <ele>290.60</ele>
        <time>2018-05-26T07:01:55Z</time>
      </trkpt>
      <trkpt lat="41.719499900" lon="1.815321200">
        <ele>291.80</ele>
        <time>2018-05-26T07:02:00Z</time>
      </trkpt>
      <trkpt lat="41.719334500" lon="1.815234900">
        <ele>293.00</ele>
        <time>2018-05-26T07:02:05Z</time>
      </trkpt>
      <trkpt lat="41.719168700" lon="1.815158600">
        <ele>294.00</ele>
        <time>2018-05-26T07:02:10Z</time>
      </trkpt>
      <trkpt lat="41.719013600" lon="1.815081800">
        <ele>295.20</ele>
        <time>2018-05-26T07:02:15Z</time>
      </trkpt>
      <trkpt lat="41.718845200" lon="1.815002400">
        <ele>296.40</ele>
        <time>2018-05-26T07:02:20Z</time>
      </trkpt>
      <trkpt lat="41.718711600" lon="1.814940500">
        <ele>297.40</ele>
        <time>2018-05-26T07:02:24Z</time>
      </trkpt>
      <trkpt lat="41.718612700" lon="1.814900300">
        <ele>298.60</ele>
        <time>2018-05-26T07:02:27Z</time>
      </trkpt>
      <trkpt lat="41.718513500" lon="1.814849000">
        <ele>299.00</ele>
        <time>2018-05-26T07:02:30Z</time>
      </trkpt>
      <trkpt lat="41.718288500" lon="1.814734500">
        <ele>301.00</ele>
        <time>2018-05-26T07:02:37Z</time>
      </trkpt>
      <trkpt lat="41.718188200" lon="1.814686900">
        <ele>301.80</ele>
        <time>2018-05-26T07:02:40Z</time>
      </trkpt>
      <trkpt lat="41.717989500" lon="1.814575600">
        <ele>303.20</ele>
        <time>2018-05-26T07:02:46Z</time>
      </trkpt>
      <trkpt lat="41.717854700" lon="1.814493900">
        <ele>304.40</ele>
        <time>2018-05-26T07:02:50Z</time>
      </trkpt>
      <trkpt lat="41.717725700" lon="1.814391300">
        <ele>305.00</ele>
        <time>2018-05-26T07:02:54Z</time>
      </trkpt>
      <trkpt lat="41.717594400" lon="1.814282700">
        <ele>305.40</ele>
        <time>2018-05-26T07:02:58Z</time>
      </trkpt>
      <trkpt lat="41.717475900" lon="1.814193100">
        <ele>305.40</ele>
        <time>2018-05-26T07:03:01Z</time>
      </trkpt>
      <trkpt lat="41.717221300" lon="1.813984900">
        <ele>304.80</ele>
        <time>2018-05-26T07:03:07Z</time>
      </trkpt>
      <trkpt lat="41.717036700" lon="1.813819400">
        <ele>304.40</ele>
        <time>2018-05-26T07:03:11Z</time>
      </trkpt>
      <trkpt lat="41.716889300" lon="1.813678700">
        <ele>303.80</ele>
        <time>2018-05-26T07:03:14Z</time>
      </trkpt>
      <trkpt lat="41.716678400" lon="1.813476700">
        <ele>303.20</ele>
        <time>2018-05-26T07:03:18Z</time>
      </trkpt>
      <trkpt lat="41.716504400" lon="1.813299400">
        <ele>302.40</ele>
        <time>2018-05-26T07:03:21Z</time>
      </trkpt>
      <trkpt lat="41.716320100" lon="1.813114000">
        <ele>301.00</ele>
        <time>2018-05-26T07:03:24Z</time>
      </trkpt>
      <trkpt lat="41.716133500" lon="1.812921600">
        <ele>300.60</ele>
        <time>2018-05-26T07:03:27Z</time>
      </trkpt>
      <trkpt lat="41.715940600" lon="1.812724900">
        <ele>299.80</ele>
        <time>2018-05-26T07:03:30Z</time>
      </trkpt>
      <trkpt lat="41.715670800" lon="1.812458200">
        <ele>298.60</ele>
        <time>2018-05-26T07:03:34Z</time>
      </trkpt>
      <trkpt lat="41.715460400" lon="1.812244500">
        <ele>297.40</ele>
        <time>2018-05-26T07:03:37Z</time>
      </trkpt>
      <trkpt lat="41.715388000" lon="1.812168800">
        <ele>297.00</ele>
        <time>2018-05-26T07:03:38Z</time>
      </trkpt>
      <trkpt lat="41.715175200" lon="1.811930300">
        <ele>296.20</ele>
        <time>2018-05-26T07:03:41Z</time>
      </trkpt>
      <trkpt lat="41.714898200" lon="1.811595200">
        <ele>294.80</ele>
        <time>2018-05-26T07:03:45Z</time>
      </trkpt>
      <trkpt lat="41.714826000" lon="1.811507900">
        <ele>294.20</ele>
        <time>2018-05-26T07:03:46Z</time>
      </trkpt>
      <trkpt lat="41.714753200" lon="1.811422500">
        <ele>293.80</ele>
        <time>2018-05-26T07:03:47Z</time>
      </trkpt>
      <trkpt lat="41.714607700" lon="1.811245900">
        <ele>292.60</ele>
        <time>2018-05-26T07:03:49Z</time>
      </trkpt>
      <trkpt lat="41.714388800" lon="1.810973000">
        <ele>291.40</ele>
        <time>2018-05-26T07:03:52Z</time>
      </trkpt>
      <trkpt lat="41.714238800" lon="1.810789600">
        <ele>290.40</ele>
        <time>2018-05-26T07:03:54Z</time>
      </trkpt>
      <trkpt lat="41.714167700" lon="1.810698000">
        <ele>290.00</ele>
        <time>2018-05-26T07:03:55Z</time>
      </trkpt>
      <trkpt lat="41.713940900" lon="1.810422300">
        <ele>288.60</ele>
        <time>2018-05-26T07:03:58Z</time>
      </trkpt>
      <trkpt lat="41.713789400" lon="1.810237400">
        <ele>287.60</ele>
        <time>2018-05-26T07:04:00Z</time>
      </trkpt>
      <trkpt lat="41.713638700" lon="1.810056500">
        <ele>286.20</ele>
        <time>2018-05-26T07:04:02Z</time>
      </trkpt>
      <trkpt lat="41.713414300" lon="1.809774300">
        <ele>285.20</ele>
        <time>2018-05-26T07:04:05Z</time>
      </trkpt>
      <trkpt lat="41.713271800" lon="1.809578000">
        <ele>284.00</ele>
        <time>2018-05-26T07:04:07Z</time>
      </trkpt>
      <trkpt lat="41.713150300" lon="1.809353200">
        <ele>282.80</ele>
        <time>2018-05-26T07:04:09Z</time>
      </trkpt>
      <trkpt lat="41.713025100" lon="1.809122800">
        <ele>281.40</ele>
        <time>2018-05-26T07:04:11Z</time>
      </trkpt>
      <trkpt lat="41.712902100" lon="1.808887800">
        <ele>280.40</ele>
        <time>2018-05-26T07:04:13Z</time>
      </trkpt>
      <trkpt lat="41.712783600" lon="1.808639900">
        <ele>279.20</ele>
        <time>2018-05-26T07:04:15Z</time>
      </trkpt>
      <trkpt lat="41.712660200" lon="1.808385300">
        <ele>278.00</ele>
        <time>2018-05-26T07:04:17Z</time>
      </trkpt>
      <trkpt lat="41.712527500" lon="1.808143700">
        <ele>276.80</ele>
        <time>2018-05-26T07:04:19Z</time>
      </trkpt>
      <trkpt lat="41.712343300" lon="1.807788900">
        <ele>276.00</ele>
        <time>2018-05-26T07:04:22Z</time>
      </trkpt>
      <trkpt lat="41.712281200" lon="1.807673800">
        <ele>275.80</ele>
        <time>2018-05-26T07:04:23Z</time>
      </trkpt>
      <trkpt lat="41.712073700" lon="1.807191100">
        <ele>275.20</ele>
        <time>2018-05-26T07:04:27Z</time>
      </trkpt>
      <trkpt lat="41.712034500" lon="1.807067800">
        <ele>275.00</ele>
        <time>2018-05-26T07:04:28Z</time>
      </trkpt>
      <trkpt lat="41.712017500" lon="1.806929800">
        <ele>275.00</ele>
        <time>2018-05-26T07:04:29Z</time>
      </trkpt>
      <trkpt lat="41.712007500" lon="1.806796800">
        <ele>274.60</ele>
        <time>2018-05-26T07:04:30Z</time>
      </trkpt>
      <trkpt lat="41.711998300" lon="1.806665700">
        <ele>274.60</ele>
        <time>2018-05-26T07:04:31Z</time>
      </trkpt>
      <trkpt lat="41.711981100" lon="1.806419000">
        <ele>274.80</ele>
        <time>2018-05-26T07:04:33Z</time>
      </trkpt>
      <trkpt lat="41.711943400" lon="1.806191500">
        <ele>274.80</ele>
        <time>2018-05-26T07:04:35Z</time>
      </trkpt>
      <trkpt lat="41.711750600" lon="1.805831400">
        <ele>275.00</ele>
        <time>2018-05-26T07:04:39Z</time>
      </trkpt>
      <trkpt lat="41.711463700" lon="1.805383100">
        <ele>275.00</ele>
        <time>2018-05-26T07:04:45Z</time>
      </trkpt>
      <trkpt lat="41.711375300" lon="1.805242600">
        <ele>275.20</ele>
        <time>2018-05-26T07:04:47Z</time>
      </trkpt>
      <trkpt lat="41.711208000" lon="1.804975600">
        <ele>275.80</ele>
        <time>2018-05-26T07:04:51Z</time>
      </trkpt>
      <trkpt lat="41.711047900" lon="1.804723300">
        <ele>276.60</ele>
        <time>2018-05-26T07:04:55Z</time>
      </trkpt>
      <trkpt lat="41.710971200" lon="1.804606600">
        <ele>277.00</ele>
        <time>2018-05-26T07:04:57Z</time>
      </trkpt>
      <trkpt lat="41.710858600" lon="1.804434300">
        <ele>278.00</ele>
        <time>2018-05-26T07:05:00Z</time>
      </trkpt>
      <trkpt lat="41.710794700" lon="1.804333700">
        <ele>278.60</ele>
        <time>2018-05-26T07:05:02Z</time>
      </trkpt>
      <trkpt lat="41.710690200" lon="1.804182500">
        <ele>279.20</ele>
        <time>2018-05-26T07:05:05Z</time>
      </trkpt>
      <trkpt lat="41.710619500" lon="1.804086600">
        <ele>279.80</ele>
        <time>2018-05-26T07:05:07Z</time>
      </trkpt>
      <trkpt lat="41.710543200" lon="1.803997000">
        <ele>280.40</ele>
        <time>2018-05-26T07:05:09Z</time>
      </trkpt>
      <trkpt lat="41.710473200" lon="1.803904300">
        <ele>280.80</ele>
        <time>2018-05-26T07:05:11Z</time>
      </trkpt>
      <trkpt lat="41.710406600" lon="1.803817600">
        <ele>281.40</ele>
        <time>2018-05-26T07:05:13Z</time>
      </trkpt>
      <trkpt lat="41.710308500" lon="1.803684400">
        <ele>282.60</ele>
        <time>2018-05-26T07:05:16Z</time>
      </trkpt>
      <trkpt lat="41.710172700" lon="1.803512400">
        <ele>283.80</ele>
        <time>2018-05-26T07:05:20Z</time>
      </trkpt>
      <trkpt lat="41.710007200" lon="1.803300800">
        <ele>285.00</ele>
        <time>2018-05-26T07:05:25Z</time>
      </trkpt>
      <trkpt lat="41.709837300" lon="1.803100800">
        <ele>286.40</ele>
        <time>2018-05-26T07:05:30Z</time>
      </trkpt>
      <trkpt lat="41.709748200" lon="1.802985300">
        <ele>287.40</ele>
        <time>2018-05-26T07:05:33Z</time>
      </trkpt>
      <trkpt lat="41.709517600" lon="1.802801200">
        <ele>289.20</ele>
        <time>2018-05-26T07:05:39Z</time>
      </trkpt>
      <trkpt lat="41.709327900" lon="1.802697400">
        <ele>290.40</ele>
        <time>2018-05-26T07:05:43Z</time>
      </trkpt>
      <trkpt lat="41.709232300" lon="1.802645200">
        <ele>290.60</ele>
        <time>2018-05-26T07:05:45Z</time>
      </trkpt>
      <trkpt lat="41.709086000" lon="1.802566800">
        <ele>291.40</ele>
        <time>2018-05-26T07:05:48Z</time>
      </trkpt>
      <trkpt lat="41.708842000" lon="1.802428900">
        <ele>292.60</ele>
        <time>2018-05-26T07:05:53Z</time>
      </trkpt>
      <trkpt lat="41.708647500" lon="1.802315500">
        <ele>293.60</ele>
        <time>2018-05-26T07:05:57Z</time>
      </trkpt>
      <trkpt lat="41.708501100" lon="1.802230600">
        <ele>294.20</ele>
        <time>2018-05-26T07:06:00Z</time>
      </trkpt>
      <trkpt lat="41.708417600" lon="1.802161300">
        <ele>294.60</ele>
        <time>2018-05-26T07:06:02Z</time>
      </trkpt>
      <trkpt lat="41.708277300" lon="1.802004100">
        <ele>295.60</ele>
        <time>2018-05-26T07:06:06Z</time>
      </trkpt>
      <trkpt lat="41.708146300" lon="1.801833500">
        <ele>297.00</ele>
        <time>2018-05-26T07:06:10Z</time>
      </trkpt>
      <trkpt lat="41.707997100" lon="1.801640100">
        <ele>297.80</ele>
        <time>2018-05-26T07:06:14Z</time>
      </trkpt>
      <trkpt lat="41.707827600" lon="1.801386300">
        <ele>299.20</ele>
        <time>2018-05-26T07:06:19Z</time>
      </trkpt>
      <trkpt lat="41.707727200" lon="1.801246600">
        <ele>300.20</ele>
        <time>2018-05-26T07:06:22Z</time>
      </trkpt>
      <trkpt lat="41.707587900" lon="1.801050400">
        <ele>302.00</ele>
        <time>2018-05-26T07:06:27Z</time>
      </trkpt>
      <trkpt lat="41.707478600" lon="1.800884400">
        <ele>302.80</ele>
        <time>2018-05-26T07:06:31Z</time>
      </trkpt>
      <trkpt lat="41.707306200" lon="1.800643000">
        <ele>304.40</ele>
        <time>2018-05-26T07:06:37Z</time>
      </trkpt>
      <trkpt lat="41.707165100" lon="1.800442700">
        <ele>305.60</ele>
        <time>2018-05-26T07:06:42Z</time>
      </trkpt>
      <trkpt lat="41.707025700" lon="1.800226000">
        <ele>306.60</ele>
        <time>2018-05-26T07:06:47Z</time>
      </trkpt>
      <trkpt lat="41.706827000" lon="1.799954500">
        <ele>306.80</ele>
        <time>2018-05-26T07:06:53Z</time>
      </trkpt>
      <trkpt lat="41.706754100" lon="1.799866400">
        <ele>306.80</ele>
        <time>2018-05-26T07:06:55Z</time>
      </trkpt>
      <trkpt lat="41.706593800" lon="1.799686500">
        <ele>306.80</ele>
        <time>2018-05-26T07:06:59Z</time>
      </trkpt>
      <trkpt lat="41.706419300" lon="1.799508900">
        <ele>306.80</ele>
        <time>2018-05-26T07:07:03Z</time>
      </trkpt>
      <trkpt lat="41.706291400" lon="1.799382300">
        <ele>306.80</ele>
        <time>2018-05-26T07:07:06Z</time>
      </trkpt>
      <trkpt lat="41.706089100" lon="1.799176900">
        <ele>307.60</ele>
        <time>2018-05-26T07:07:11Z</time>
      </trkpt>
      <trkpt lat="41.706012900" lon="1.799092500">
        <ele>307.80</ele>
        <time>2018-05-26T07:07:13Z</time>
      </trkpt>
      <trkpt lat="41.705813800" lon="1.798894500">
        <ele>308.80</ele>
        <time>2018-05-26T07:07:18Z</time>
      </trkpt>
      <trkpt lat="41.705734800" lon="1.798822600">
        <ele>309.40</ele>
        <time>2018-05-26T07:07:20Z</time>
      </trkpt>
      <trkpt lat="41.705661400" lon="1.798739100">
        <ele>310.00</ele>
        <time>2018-05-26T07:07:22Z</time>
      </trkpt>
      <trkpt lat="41.705465400" lon="1.798572700">
        <ele>311.20</ele>
        <time>2018-05-26T07:07:27Z</time>
      </trkpt>
      <trkpt lat="41.705325900" lon="1.798430200">
        <ele>312.20</ele>
        <time>2018-05-26T07:07:31Z</time>
      </trkpt>
      <trkpt lat="41.705187400" lon="1.798292200">
        <ele>313.20</ele>
        <time>2018-05-26T07:07:35Z</time>
      </trkpt>
      <trkpt lat="41.705037600" lon="1.798068400">
        <ele>314.40</ele>
        <time>2018-05-26T07:07:40Z</time>
      </trkpt>
      <trkpt lat="41.704890900" lon="1.797804200">
        <ele>314.60</ele>
        <time>2018-05-26T07:07:45Z</time>
      </trkpt>
      <trkpt lat="41.704634000" lon="1.797310600">
        <ele>314.40</ele>
        <time>2018-05-26T07:07:53Z</time>
      </trkpt>
      <trkpt lat="41.704428100" lon="1.796915800">
        <ele>314.40</ele>
        <time>2018-05-26T07:07:59Z</time>
      </trkpt>
      <trkpt lat="41.704252800" lon="1.796584500">
        <ele>314.60</ele>
        <time>2018-05-26T07:08:04Z</time>
      </trkpt>
      <trkpt lat="41.704115000" lon="1.796330200">
        <ele>315.40</ele>
        <time>2018-05-26T07:08:08Z</time>
      </trkpt>
      <trkpt lat="41.703993300" lon="1.796086500">
        <ele>316.40</ele>
        <time>2018-05-26T07:08:12Z</time>
      </trkpt>
      <trkpt lat="41.703878300" lon="1.795868900">
        <ele>317.60</ele>
        <time>2018-05-26T07:08:16Z</time>
      </trkpt>
      <trkpt lat="41.703796800" lon="1.795706600">
        <ele>318.20</ele>
        <time>2018-05-26T07:08:19Z</time>
      </trkpt>
      <trkpt lat="41.703738800" lon="1.795597500">
        <ele>318.60</ele>
        <time>2018-05-26T07:08:21Z</time>
      </trkpt>
      <trkpt lat="41.703630800" lon="1.795373500">
        <ele>320.00</ele>
        <time>2018-05-26T07:08:25Z</time>
      </trkpt>
      <trkpt lat="41.703569200" lon="1.795269700">
        <ele>321.00</ele>
        <time>2018-05-26T07:08:27Z</time>
      </trkpt>
      <trkpt lat="41.703511700" lon="1.795160400">
        <ele>321.60</ele>
        <time>2018-05-26T07:08:29Z</time>
      </trkpt>
      <trkpt lat="41.703450900" lon="1.795053700">
        <ele>322.20</ele>
        <time>2018-05-26T07:08:31Z</time>
      </trkpt>
      <trkpt lat="41.703383800" lon="1.794956100">
        <ele>322.60</ele>
        <time>2018-05-26T07:08:33Z</time>
      </trkpt>
      <trkpt lat="41.703310600" lon="1.794865600">
        <ele>323.20</ele>
        <time>2018-05-26T07:08:35Z</time>
      </trkpt>
      <trkpt lat="41.703223100" lon="1.794792100">
        <ele>323.60</ele>
        <time>2018-05-26T07:08:37Z</time>
      </trkpt>
      <trkpt lat="41.703132400" lon="1.794719500">
        <ele>324.20</ele>
        <time>2018-05-26T07:08:39Z</time>
      </trkpt>
      <trkpt lat="41.702983800" lon="1.794613400">
        <ele>324.60</ele>
        <time>2018-05-26T07:08:42Z</time>
      </trkpt>
      <trkpt lat="41.702672100" lon="1.794377600">
        <ele>324.60</ele>
        <time>2018-05-26T07:08:48Z</time>
      </trkpt>
      <trkpt lat="41.702560500" lon="1.794297000">
        <ele>324.60</ele>
        <time>2018-05-26T07:08:50Z</time>
      </trkpt>
      <trkpt lat="41.702388300" lon="1.794172100">
        <ele>324.40</ele>
        <time>2018-05-26T07:08:53Z</time>
      </trkpt>
      <trkpt lat="41.702215500" lon="1.794043600">
        <ele>324.40</ele>
        <time>2018-05-26T07:08:56Z</time>
      </trkpt>
      <trkpt lat="41.701975500" lon="1.793869000">
        <ele>324.60</ele>
        <time>2018-05-26T07:09:00Z</time>
      </trkpt>
      <trkpt lat="41.701728500" lon="1.793683100">
        <ele>324.20</ele>
        <time>2018-05-26T07:09:04Z</time>
      </trkpt>
      <trkpt lat="41.701606900" lon="1.793590200">
        <ele>324.00</ele>
        <time>2018-05-26T07:09:06Z</time>
      </trkpt>
      <trkpt lat="41.701168000" lon="1.793264600">
        <ele>323.80</ele>
        <time>2018-05-26T07:09:13Z</time>
      </trkpt>
      <trkpt lat="41.701034800" lon="1.793165900">
        <ele>323.40</ele>
        <time>2018-05-26T07:09:15Z</time>
      </trkpt>
      <trkpt lat="41.700761900" lon="1.792967800">
        <ele>322.80</ele>
        <time>2018-05-26T07:09:19Z</time>
      </trkpt>
      <trkpt lat="41.700624000" lon="1.792861800">
        <ele>322.40</ele>
        <time>2018-05-26T07:09:21Z</time>
      </trkpt>
      <trkpt lat="41.700277500" lon="1.792560800">
        <ele>321.20</ele>
        <time>2018-05-26T07:09:26Z</time>
      </trkpt>
      <trkpt lat="41.700138800" lon="1.792426900">
        <ele>320.60</ele>
        <time>2018-05-26T07:09:28Z</time>
      </trkpt>
      <trkpt lat="41.699997500" lon="1.792293800">
        <ele>319.80</ele>
        <time>2018-05-26T07:09:30Z</time>
      </trkpt>
      <trkpt lat="41.699783000" lon="1.792088600">
        <ele>319.00</ele>
        <time>2018-05-26T07:09:33Z</time>
      </trkpt>
      <trkpt lat="41.699417600" lon="1.791736100">
        <ele>317.60</ele>
        <time>2018-05-26T07:09:38Z</time>
      </trkpt>
      <trkpt lat="41.699341000" lon="1.791663100">
        <ele>316.40</ele>
        <time>2018-05-26T07:09:39Z</time>
      </trkpt>
      <trkpt lat="41.699186700" lon="1.791514500">
        <ele>315.20</ele>
        <time>2018-05-26T07:09:41Z</time>
      </trkpt>
      <trkpt lat="41.698953200" lon="1.791279700">
        <ele>313.80</ele>
        <time>2018-05-26T07:09:44Z</time>
      </trkpt>
      <trkpt lat="41.698872500" lon="1.791201700">
        <ele>313.40</ele>
        <time>2018-05-26T07:09:45Z</time>
      </trkpt>
      <trkpt lat="41.698712000" lon="1.791049200">
        <ele>312.80</ele>
        <time>2018-05-26T07:09:47Z</time>
      </trkpt>
      <trkpt lat="41.698471000" lon="1.790818800">
        <ele>311.40</ele>
        <time>2018-05-26T07:09:50Z</time>
      </trkpt>
      <trkpt lat="41.698390800" lon="1.790739800">
        <ele>311.00</ele>
        <time>2018-05-26T07:09:51Z</time>
      </trkpt>
      <trkpt lat="41.698233500" lon="1.790579500">
        <ele>310.40</ele>
        <time>2018-05-26T07:09:53Z</time>
      </trkpt>
      <trkpt lat="41.698156200" lon="1.790497000">
        <ele>310.00</ele>
        <time>2018-05-26T07:09:54Z</time>
      </trkpt>
      <trkpt lat="41.697919900" lon="1.790260300">
        <ele>309.00</ele>
        <time>2018-05-26T07:09:57Z</time>
      </trkpt>
      <trkpt lat="41.697614200" lon="1.789962200">
        <ele>308.20</ele>
        <time>2018-05-26T07:10:01Z</time>
      </trkpt>
      <trkpt lat="41.697541900" lon="1.789887900">
        <ele>308.00</ele>
        <time>2018-05-26T07:10:02Z</time>
      </trkpt>
      <trkpt lat="41.697248900" lon="1.789579200">
        <ele>306.60</ele>
        <time>2018-05-26T07:10:06Z</time>
      </trkpt>
      <trkpt lat="41.697135000" lon="1.789241200">
        <ele>305.60</ele>
        <time>2018-05-26T07:10:10Z</time>
      </trkpt>
      <trkpt lat="41.697160700" lon="1.789037900">
        <ele>304.60</ele>
        <time>2018-05-26T07:10:12Z</time>
      </trkpt>
      <trkpt lat="41.697164000" lon="1.788839800">
        <ele>304.00</ele>
        <time>2018-05-26T07:10:14Z</time>
      </trkpt>
      <trkpt lat="41.697086200" lon="1.788691400">
        <ele>303.40</ele>
        <time>2018-05-26T07:10:16Z</time>
      </trkpt>
      <trkpt lat="41.696962000" lon="1.788640300">
        <ele>302.80</ele>
        <time>2018-05-26T07:10:18Z</time>
      </trkpt>
      <trkpt lat="41.696842300" lon="1.788688000">
        <ele>302.40</ele>
        <time>2018-05-26T07:10:20Z</time>
      </trkpt>
      <trkpt lat="41.696748500" lon="1.788805800">
        <ele>302.20</ele>
        <time>2018-05-26T07:10:22Z</time>
      </trkpt>
      <trkpt lat="41.696658100" lon="1.788925000">
        <ele>302.40</ele>
        <time>2018-05-26T07:10:24Z</time>
      </trkpt>
      <trkpt lat="41.696537000" lon="1.788981700">
        <ele>302.60</ele>
        <time>2018-05-26T07:10:26Z</time>
      </trkpt>
      <trkpt lat="41.696406900" lon="1.788935800">
        <ele>302.60</ele>
        <time>2018-05-26T07:10:28Z</time>
      </trkpt>
      <trkpt lat="41.696214900" lon="1.788597500">
        <ele>302.00</ele>
        <time>2018-05-26T07:10:33Z</time>
      </trkpt>
      <trkpt lat="41.696316100" lon="1.788246200">
        <ele>302.00</ele>
        <time>2018-05-26T07:10:37Z</time>
      </trkpt>
      <trkpt lat="41.696391500" lon="1.788082700">
        <ele>301.60</ele>
        <time>2018-05-26T07:10:39Z</time>
      </trkpt>
      <trkpt lat="41.696449900" lon="1.787887900">
        <ele>301.40</ele>
        <time>2018-05-26T07:10:41Z</time>
      </trkpt>
      <trkpt lat="41.696415900" lon="1.787706300">
        <ele>301.20</ele>
        <time>2018-05-26T07:10:43Z</time>
      </trkpt>
      <trkpt lat="41.696173900" lon="1.787140300">
        <ele>301.00</ele>
        <time>2018-05-26T07:10:50Z</time>
      </trkpt>
      <trkpt lat="41.696106200" lon="1.786978800">
        <ele>300.80</ele>
        <time>2018-05-26T07:10:52Z</time>
      </trkpt>
      <trkpt lat="41.695838200" lon="1.786347900">
        <ele>300.80</ele>
        <time>2018-05-26T07:11:00Z</time>
      </trkpt>
      <trkpt lat="41.695769900" lon="1.786187000">
        <ele>301.20</ele>
        <time>2018-05-26T07:11:02Z</time>
      </trkpt>
      <trkpt lat="41.695700900" lon="1.786021900">
        <ele>301.00</ele>
        <time>2018-05-26T07:11:04Z</time>
      </trkpt>
      <trkpt lat="41.695598000" lon="1.785780100">
        <ele>301.00</ele>
        <time>2018-05-26T07:11:07Z</time>
      </trkpt>
      <trkpt lat="41.695530100" lon="1.785618500">
        <ele>301.20</ele>
        <time>2018-05-26T07:11:09Z</time>
      </trkpt>
      <trkpt lat="41.695257100" lon="1.784971800">
        <ele>301.40</ele>
        <time>2018-05-26T07:11:17Z</time>
      </trkpt>
      <trkpt lat="41.695189100" lon="1.784806600">
        <ele>301.20</ele>
        <time>2018-05-26T07:11:19Z</time>
      </trkpt>
      <trkpt lat="41.694887800" lon="1.784190800">
        <ele>301.40</ele>
        <time>2018-05-26T07:11:27Z</time>
      </trkpt>
      <trkpt lat="41.694708600" lon="1.783906200">
        <ele>301.60</ele>
        <time>2018-05-26T07:11:31Z</time>
      </trkpt>
      <trkpt lat="41.694548800" lon="1.783731700">
        <ele>301.40</ele>
        <time>2018-05-26T07:11:34Z</time>
      </trkpt>
      <trkpt lat="41.694086400" lon="1.783302800">
        <ele>301.60</ele>
        <time>2018-05-26T07:11:42Z</time>
      </trkpt>
      <trkpt lat="41.693549300" lon="1.782888000">
        <ele>301.80</ele>
        <time>2018-05-26T07:11:51Z</time>
      </trkpt>
      <trkpt lat="41.693422900" lon="1.782829000">
        <ele>302.40</ele>
        <time>2018-05-26T07:11:53Z</time>
      </trkpt>
      <trkpt lat="41.693058200" lon="1.782678300">
        <ele>303.40</ele>
        <time>2018-05-26T07:11:59Z</time>
      </trkpt>
      <trkpt lat="41.692828500" lon="1.782576300">
        <ele>304.60</ele>
        <time>2018-05-26T07:12:03Z</time>
      </trkpt>
      <trkpt lat="41.692605400" lon="1.782468500">
        <ele>305.00</ele>
        <time>2018-05-26T07:12:07Z</time>
      </trkpt>
      <trkpt lat="41.692493400" lon="1.782416400">
        <ele>305.40</ele>
        <time>2018-05-26T07:12:09Z</time>
      </trkpt>
      <trkpt lat="41.692067400" lon="1.782198100">
        <ele>306.80</ele>
        <time>2018-05-26T07:12:17Z</time>
      </trkpt>
      <trkpt lat="41.691748700" lon="1.782042500">
        <ele>307.80</ele>
        <time>2018-05-26T07:12:23Z</time>
      </trkpt>
      <trkpt lat="41.691489900" lon="1.781914200">
        <ele>308.80</ele>
        <time>2018-05-26T07:12:28Z</time>
      </trkpt>
      <trkpt lat="41.691115700" lon="1.781721000">
        <ele>310.20</ele>
        <time>2018-05-26T07:12:35Z</time>
      </trkpt>
      <trkpt lat="41.691006900" lon="1.781671300">
        <ele>310.40</ele>
        <time>2018-05-26T07:12:37Z</time>
      </trkpt>
      <trkpt lat="41.690795900" lon="1.781564400">
        <ele>311.20</ele>
        <time>2018-05-26T07:12:41Z</time>
      </trkpt>
      <trkpt lat="41.690594800" lon="1.781426700">
        <ele>312.00</ele>
        <time>2018-05-26T07:12:45Z</time>
      </trkpt>
      <trkpt lat="41.690459900" lon="1.781279900">
        <ele>312.20</ele>
        <time>2018-05-26T07:12:48Z</time>
      </trkpt>
      <trkpt lat="41.690323100" lon="1.781112400">
        <ele>312.20</ele>
        <time>2018-05-26T07:12:51Z</time>
      </trkpt>
      <trkpt lat="41.689925700" lon="1.780574300">
        <ele>312.40</ele>
        <time>2018-05-26T07:13:00Z</time>
      </trkpt>
      <trkpt lat="41.689513600" lon="1.780027900">
        <ele>313.00</ele>
        <time>2018-05-26T07:13:09Z</time>
      </trkpt>
      <trkpt lat="41.689409600" lon="1.779926800">
        <ele>313.00</ele>
        <time>2018-05-26T07:13:11Z</time>
      </trkpt>
      <trkpt lat="41.689236300" lon="1.779817500">
        <ele>313.20</ele>
        <time>2018-05-26T07:13:14Z</time>
      </trkpt>
      <trkpt lat="41.689116600" lon="1.779779700">
        <ele>313.20</ele>
        <time>2018-05-26T07:13:16Z</time>
      </trkpt>
      <trkpt lat="41.688662900" lon="1.779683500">
        <ele>313.20</ele>
        <time>2018-05-26T07:13:23Z</time>
      </trkpt>
      <trkpt lat="41.688281200" lon="1.779604900">
        <ele>313.80</ele>
        <time>2018-05-26T07:13:29Z</time>
      </trkpt>
      <trkpt lat="41.688096700" lon="1.779572000">
        <ele>314.40</ele>
        <time>2018-05-26T07:13:32Z</time>
      </trkpt>
      <trkpt lat="41.687536500" lon="1.779472200">
        <ele>315.20</ele>
        <time>2018-05-26T07:13:41Z</time>
      </trkpt>
      <trkpt lat="41.687291500" lon="1.779427300">
        <ele>315.60</ele>
        <time>2018-05-26T07:13:45Z</time>
      </trkpt>
      <trkpt lat="41.686988000" lon="1.779359500">
        <ele>316.00</ele>
        <time>2018-05-26T07:13:50Z</time>
      </trkpt>
      <trkpt lat="41.686731700" lon="1.779143800">
        <ele>316.60</ele>
        <time>2018-05-26T07:13:55Z</time>
      </trkpt>
      <trkpt lat="41.686617600" lon="1.778846600">
        <ele>317.00</ele>
        <time>2018-05-26T07:13:59Z</time>
      </trkpt>
      <trkpt lat="41.686588800" lon="1.778677100">
        <ele>317.00</ele>
        <time>2018-05-26T07:14:01Z</time>
      </trkpt>
      <trkpt lat="41.686573300" lon="1.778412600">
        <ele>317.20</ele>
        <time>2018-05-26T07:14:04Z</time>
      </trkpt>
      <trkpt lat="41.686593100" lon="1.778148900">
        <ele>317.60</ele>
        <time>2018-05-26T07:14:07Z</time>
      </trkpt>
      <trkpt lat="41.686621300" lon="1.777973200">
        <ele>317.60</ele>
        <time>2018-05-26T07:14:09Z</time>
      </trkpt>
      <trkpt lat="41.686775900" lon="1.777273900">
        <ele>317.20</ele>
        <time>2018-05-26T07:14:17Z</time>
      </trkpt>
      <trkpt lat="41.686869800" lon="1.776846700">
        <ele>317.20</ele>
        <time>2018-05-26T07:14:22Z</time>
      </trkpt>
      <trkpt lat="41.686902200" lon="1.776670200">
        <ele>317.40</ele>
        <time>2018-05-26T07:14:24Z</time>
      </trkpt>
      <trkpt lat="41.686962200" lon="1.776037600">
        <ele>318.20</ele>
        <time>2018-05-26T07:14:31Z</time>
      </trkpt>
      <trkpt lat="41.686975100" lon="1.775603900">
        <ele>318.80</ele>
        <time>2018-05-26T07:14:36Z</time>
      </trkpt>
      <trkpt lat="41.686975200" lon="1.775266800">
        <ele>319.20</ele>
        <time>2018-05-26T07:14:40Z</time>
      </trkpt>
      <trkpt lat="41.686979000" lon="1.774859500">
        <ele>319.80</ele>
        <time>2018-05-26T07:14:45Z</time>
      </trkpt>
      <trkpt lat="41.686981500" lon="1.774701000">
        <ele>320.00</ele>
        <time>2018-05-26T07:14:47Z</time>
      </trkpt>
      <trkpt lat="41.686990000" lon="1.774398600">
        <ele>321.20</ele>
        <time>2018-05-26T07:14:51Z</time>
      </trkpt>
      <trkpt lat="41.687001400" lon="1.774258800">
        <ele>321.80</ele>
        <time>2018-05-26T07:14:53Z</time>
      </trkpt>
      <trkpt lat="41.686943100" lon="1.774094500">
        <ele>322.00</ele>
        <time>2018-05-26T07:14:56Z</time>
      </trkpt>
      <trkpt lat="41.686838800" lon="1.774111700">
        <ele>321.80</ele>
        <time>2018-05-26T07:14:58Z</time>
      </trkpt>
      <trkpt lat="41.686586500" lon="1.774143100">
        <ele>321.20</ele>
        <time>2018-05-26T07:15:02Z</time>
      </trkpt>
      <trkpt lat="41.686253900" lon="1.774079400">
        <ele>321.00</ele>
        <time>2018-05-26T07:15:07Z</time>
      </trkpt>
      <trkpt lat="41.685928600" lon="1.773820100">
        <ele>322.20</ele>
        <time>2018-05-26T07:15:13Z</time>
      </trkpt>
      <trkpt lat="41.685668800" lon="1.773526500">
        <ele>323.20</ele>
        <time>2018-05-26T07:15:19Z</time>
      </trkpt>
      <trkpt lat="41.685557900" lon="1.773385000">
        <ele>324.20</ele>
        <time>2018-05-26T07:15:22Z</time>
      </trkpt>
      <trkpt lat="41.685495500" lon="1.773293000">
        <ele>324.80</ele>
        <time>2018-05-26T07:15:24Z</time>
      </trkpt>
      <trkpt lat="41.685370600" lon="1.773051800">
        <ele>326.00</ele>
        <time>2018-05-26T07:15:29Z</time>
      </trkpt>
      <trkpt lat="41.685300100" lon="1.772907300">
        <ele>327.00</ele>
        <time>2018-05-26T07:15:32Z</time>
      </trkpt>
      <trkpt lat="41.685237100" lon="1.772762000">
        <ele>328.00</ele>
        <time>2018-05-26T07:15:35Z</time>
      </trkpt>
      <trkpt lat="41.685158600" lon="1.772503300">
        <ele>330.00</ele>
        <time>2018-05-26T07:15:40Z</time>
      </trkpt>
      <trkpt lat="41.685117100" lon="1.772339700">
        <ele>331.00</ele>
        <time>2018-05-26T07:15:43Z</time>
      </trkpt>
      <trkpt lat="41.685097300" lon="1.772162300">
        <ele>332.00</ele>
        <time>2018-05-26T07:15:46Z</time>
      </trkpt>
      <trkpt lat="41.685087000" lon="1.771931600">
        <ele>333.20</ele>
        <time>2018-05-26T07:15:50Z</time>
      </trkpt>
      <trkpt lat="41.685071800" lon="1.771715800">
        <ele>334.20</ele>
        <time>2018-05-26T07:15:54Z</time>
      </trkpt>
      <trkpt lat="41.685042200" lon="1.771514300">
        <ele>335.40</ele>
        <time>2018-05-26T07:15:58Z</time>
      </trkpt>
      <trkpt lat="41.685000600" lon="1.771309700">
        <ele>336.40</ele>
        <time>2018-05-26T07:16:02Z</time>
      </trkpt>
      <trkpt lat="41.684890900" lon="1.771004900">
        <ele>338.60</ele>
        <time>2018-05-26T07:16:08Z</time>
      </trkpt>
      <trkpt lat="41.684807200" lon="1.770801000">
        <ele>339.80</ele>
        <time>2018-05-26T07:16:12Z</time>
      </trkpt>
      <trkpt lat="41.684700600" lon="1.770557400">
        <ele>341.00</ele>
        <time>2018-05-26T07:16:17Z</time>
      </trkpt>
      <trkpt lat="41.684619600" lon="1.770366200">
        <ele>342.00</ele>
        <time>2018-05-26T07:16:21Z</time>
      </trkpt>
      <trkpt lat="41.684539000" lon="1.770177200">
        <ele>343.20</ele>
        <time>2018-05-26T07:16:25Z</time>
      </trkpt>
      <trkpt lat="41.684456100" lon="1.769988300">
        <ele>344.60</ele>
        <time>2018-05-26T07:16:29Z</time>
      </trkpt>
      <trkpt lat="41.684375100" lon="1.769801100">
        <ele>345.80</ele>
        <time>2018-05-26T07:16:33Z</time>
      </trkpt>
      <trkpt lat="41.684295800" lon="1.769613100">
        <ele>346.80</ele>
        <time>2018-05-26T07:16:37Z</time>
      </trkpt>
      <trkpt lat="41.684218900" lon="1.769426800">
        <ele>347.80</ele>
        <time>2018-05-26T07:16:41Z</time>
      </trkpt>
      <trkpt lat="41.684130400" lon="1.769177400">
        <ele>349.00</ele>
        <time>2018-05-26T07:16:46Z</time>
      </trkpt>
      <trkpt lat="41.684090100" lon="1.769022400">
        <ele>350.00</ele>
        <time>2018-05-26T07:16:49Z</time>
      </trkpt>
      <trkpt lat="41.684050500" lon="1.768864700">
        <ele>351.00</ele>
        <time>2018-05-26T07:16:52Z</time>
      </trkpt>
      <trkpt lat="41.683982100" lon="1.768599700">
        <ele>352.00</ele>
        <time>2018-05-26T07:16:57Z</time>
      </trkpt>
      <trkpt lat="41.683916400" lon="1.768331400">
        <ele>353.40</ele>
        <time>2018-05-26T07:17:02Z</time>
      </trkpt>
      <trkpt lat="41.683860100" lon="1.768119600">
        <ele>354.20</ele>
        <time>2018-05-26T07:17:06Z</time>
      </trkpt>
      <trkpt lat="41.683775600" lon="1.767797700">
        <ele>355.60</ele>
        <time>2018-05-26T07:17:12Z</time>
      </trkpt>
      <trkpt lat="41.683718600" lon="1.767587700">
        <ele>356.80</ele>
        <time>2018-05-26T07:17:16Z</time>
      </trkpt>
      <trkpt lat="41.683653700" lon="1.767376800">
        <ele>358.00</ele>
        <time>2018-05-26T07:17:20Z</time>
      </trkpt>
      <trkpt lat="41.683581200" lon="1.767163500">
        <ele>359.20</ele>
        <time>2018-05-26T07:17:24Z</time>
      </trkpt>
      <trkpt lat="41.683494800" lon="1.766966100">
        <ele>360.20</ele>
        <time>2018-05-26T07:17:28Z</time>
      </trkpt>
      <trkpt lat="41.683422700" lon="1.766789300">
        <ele>361.00</ele>
        <time>2018-05-26T07:17:32Z</time>
      </trkpt>
      <trkpt lat="41.683346600" lon="1.766555700">
        <ele>362.40</ele>
        <time>2018-05-26T07:17:37Z</time>
      </trkpt>
      <trkpt lat="41.683303300" lon="1.766349800">
        <ele>363.40</ele>
        <time>2018-05-26T07:17:41Z</time>
      </trkpt>
      <trkpt lat="41.683278200" lon="1.766141400">
        <ele>364.80</ele>
        <time>2018-05-26T07:17:45Z</time>
      </trkpt>
      <trkpt lat="41.683265700" lon="1.765986300">
        <ele>365.60</ele>
        <time>2018-05-26T07:17:48Z</time>
      </trkpt>
      <trkpt lat="41.683231300" lon="1.765764700">
        <ele>367.00</ele>
        <time>2018-05-26T07:17:53Z</time>
      </trkpt>
      <trkpt lat="41.683223300" lon="1.765604200">
        <ele>368.60</ele>
        <time>2018-05-26T07:17:59Z</time>
      </trkpt>
      <trkpt lat="41.683226900" lon="1.765462800">
        <ele>370.20</ele>
        <time>2018-05-26T07:21:21Z</time>
      </trkpt>
      <trkpt lat="41.683303100" lon="1.765383100">
        <ele>370.40</ele>
        <time>2018-05-26T07:21:26Z</time>
      </trkpt>
      <trkpt lat="41.683327900" lon="1.765155100">
        <ele>371.40</ele>
        <time>2018-05-26T07:21:33Z</time>
      </trkpt>
      <trkpt lat="41.683340800" lon="1.765030600">
        <ele>372.00</ele>
        <time>2018-05-26T07:21:36Z</time>
      </trkpt>
      <trkpt lat="41.683344900" lon="1.764894900">
        <ele>372.60</ele>
        <time>2018-05-26T07:21:39Z</time>
      </trkpt>
      <trkpt lat="41.683315400" lon="1.764678500">
        <ele>372.60</ele>
        <time>2018-05-26T07:21:43Z</time>
      </trkpt>
      <trkpt lat="41.683290300" lon="1.764540300">
        <ele>372.00</ele>
        <time>2018-05-26T07:21:45Z</time>
      </trkpt>
      <trkpt lat="41.683256000" lon="1.764391000">
        <ele>371.40</ele>
        <time>2018-05-26T07:21:47Z</time>
      </trkpt>
      <trkpt lat="41.683185900" lon="1.764130200">
        <ele>370.40</ele>
        <time>2018-05-26T07:21:50Z</time>
      </trkpt>
      <trkpt lat="41.683044000" lon="1.763870300">
        <ele>368.80</ele>
        <time>2018-05-26T07:21:53Z</time>
      </trkpt>
      <trkpt lat="41.682931100" lon="1.763702800">
        <ele>367.80</ele>
        <time>2018-05-26T07:21:55Z</time>
      </trkpt>
      <trkpt lat="41.682692400" lon="1.763344100">
        <ele>366.20</ele>
        <time>2018-05-26T07:21:59Z</time>
      </trkpt>
      <trkpt lat="41.682561800" lon="1.763175700">
        <ele>365.40</ele>
        <time>2018-05-26T07:22:01Z</time>
      </trkpt>
      <trkpt lat="41.682408400" lon="1.763067500">
        <ele>364.80</ele>
        <time>2018-05-26T07:22:03Z</time>
      </trkpt>
      <trkpt lat="41.682242200" lon="1.763021100">
        <ele>364.00</ele>
        <time>2018-05-26T07:22:05Z</time>
      </trkpt>
      <trkpt lat="41.682081100" lon="1.763048100">
        <ele>363.40</ele>
        <time>2018-05-26T07:22:07Z</time>
      </trkpt>
      <trkpt lat="41.681902300" lon="1.763247100">
        <ele>363.00</ele>
        <time>2018-05-26T07:22:10Z</time>
      </trkpt>
      <trkpt lat="41.681774200" lon="1.763388900">
        <ele>362.20</ele>
        <time>2018-05-26T07:22:12Z</time>
      </trkpt>
      <trkpt lat="41.681693900" lon="1.763443700">
        <ele>361.80</ele>
        <time>2018-05-26T07:22:13Z</time>
      </trkpt>
      <trkpt lat="41.681607200" lon="1.763495200">
        <ele>361.40</ele>
        <time>2018-05-26T07:22:14Z</time>
      </trkpt>
      <trkpt lat="41.681239600" lon="1.763671500">
        <ele>360.80</ele>
        <time>2018-05-26T07:22:19Z</time>
      </trkpt>
      <trkpt lat="41.681020100" lon="1.763592600">
        <ele>360.20</ele>
        <time>2018-05-26T07:22:22Z</time>
      </trkpt>
      <trkpt lat="41.680899700" lon="1.763635800">
        <ele>359.20</ele>
        <time>2018-05-26T07:22:24Z</time>
      </trkpt>
      <trkpt lat="41.680714600" lon="1.763622200">
        <ele>357.60</ele>
        <time>2018-05-26T07:22:26Z</time>
      </trkpt>
      <trkpt lat="41.680616500" lon="1.763634600">
        <ele>356.80</ele>
        <time>2018-05-26T07:22:27Z</time>
      </trkpt>
      <trkpt lat="41.680517800" lon="1.763644300">
        <ele>356.00</ele>
        <time>2018-05-26T07:22:28Z</time>
      </trkpt>
      <trkpt lat="41.680422300" lon="1.763552700">
        <ele>355.80</ele>
        <time>2018-05-26T07:22:29Z</time>
      </trkpt>
      <trkpt lat="41.680327100" lon="1.763516200">
        <ele>355.80</ele>
        <time>2018-05-26T07:22:30Z</time>
      </trkpt>
      <trkpt lat="41.680148000" lon="1.763557100">
        <ele>354.80</ele>
        <time>2018-05-26T07:22:32Z</time>
      </trkpt>
      <trkpt lat="41.680061000" lon="1.763599700">
        <ele>354.60</ele>
        <time>2018-05-26T07:22:33Z</time>
      </trkpt>
      <trkpt lat="41.679975300" lon="1.763648300">
        <ele>354.40</ele>
        <time>2018-05-26T07:22:34Z</time>
      </trkpt>
      <trkpt lat="41.679795800" lon="1.763744600">
        <ele>354.20</ele>
        <time>2018-05-26T07:22:36Z</time>
      </trkpt>
      <trkpt lat="41.679696700" lon="1.763776300">
        <ele>354.00</ele>
        <time>2018-05-26T07:22:37Z</time>
      </trkpt>
      <trkpt lat="41.679595700" lon="1.763782900">
        <ele>353.80</ele>
        <time>2018-05-26T07:22:38Z</time>
      </trkpt>
      <trkpt lat="41.679399400" lon="1.763738800">
        <ele>353.80</ele>
        <time>2018-05-26T07:22:40Z</time>
      </trkpt>
      <trkpt lat="41.679304500" lon="1.763699200">
        <ele>354.00</ele>
        <time>2018-05-26T07:22:41Z</time>
      </trkpt>
      <trkpt lat="41.679118600" lon="1.763604200">
        <ele>353.80</ele>
        <time>2018-05-26T07:22:43Z</time>
      </trkpt>
      <trkpt lat="41.678945900" lon="1.763487100">
        <ele>353.80</ele>
        <time>2018-05-26T07:22:45Z</time>
      </trkpt>
      <trkpt lat="41.678702600" lon="1.763340700">
        <ele>353.80</ele>
        <time>2018-05-26T07:22:48Z</time>
      </trkpt>
      <trkpt lat="41.678553400" lon="1.763337100">
        <ele>354.00</ele>
        <time>2018-05-26T07:22:50Z</time>
      </trkpt>
      <trkpt lat="41.678430300" lon="1.763404100">
        <ele>354.40</ele>
        <time>2018-05-26T07:22:52Z</time>
      </trkpt>
      <trkpt lat="41.678291800" lon="1.763461700">
        <ele>354.20</ele>
        <time>2018-05-26T07:22:54Z</time>
      </trkpt>
      <trkpt lat="41.678157700" lon="1.763462300">
        <ele>354.00</ele>
        <time>2018-05-26T07:22:56Z</time>
      </trkpt>
      <trkpt lat="41.677737800" lon="1.763341600">
        <ele>354.00</ele>
        <time>2018-05-26T07:23:02Z</time>
      </trkpt>
      <trkpt lat="41.677600300" lon="1.763290400">
        <ele>354.20</ele>
        <time>2018-05-26T07:23:04Z</time>
      </trkpt>
      <trkpt lat="41.677394600" lon="1.763256300">
        <ele>354.00</ele>
        <time>2018-05-26T07:23:07Z</time>
      </trkpt>
      <trkpt lat="41.677222400" lon="1.763095900">
        <ele>353.80</ele>
        <time>2018-05-26T07:23:10Z</time>
      </trkpt>
      <trkpt lat="41.677118300" lon="1.762948700">
        <ele>353.80</ele>
        <time>2018-05-26T07:23:12Z</time>
      </trkpt>
      <trkpt lat="41.676998000" lon="1.762828900">
        <ele>353.80</ele>
        <time>2018-05-26T07:23:14Z</time>
      </trkpt>
      <trkpt lat="41.676865800" lon="1.762728900">
        <ele>353.60</ele>
        <time>2018-05-26T07:23:16Z</time>
      </trkpt>
      <trkpt lat="41.676626900" lon="1.762521400">
        <ele>353.40</ele>
        <time>2018-05-26T07:23:20Z</time>
      </trkpt>
      <trkpt lat="41.676268100" lon="1.762208500">
        <ele>352.80</ele>
        <time>2018-05-26T07:23:26Z</time>
      </trkpt>
      <trkpt lat="41.676136500" lon="1.762093100">
        <ele>352.00</ele>
        <time>2018-05-26T07:23:28Z</time>
      </trkpt>
      <trkpt lat="41.676010400" lon="1.761944600">
        <ele>351.00</ele>
        <time>2018-05-26T07:23:30Z</time>
      </trkpt>
      <trkpt lat="41.675924500" lon="1.761757400">
        <ele>350.40</ele>
        <time>2018-05-26T07:23:32Z</time>
      </trkpt>
      <trkpt lat="41.675918300" lon="1.761420300">
        <ele>350.20</ele>
        <time>2018-05-26T07:23:35Z</time>
      </trkpt>
      <trkpt lat="41.675995000" lon="1.761209300">
        <ele>350.80</ele>
        <time>2018-05-26T07:23:38Z</time>
      </trkpt>
      <trkpt lat="41.676074800" lon="1.761085200">
        <ele>351.60</ele>
        <time>2018-05-26T07:23:40Z</time>
      </trkpt>
      <trkpt lat="41.676070200" lon="1.760857800">
        <ele>352.40</ele>
        <time>2018-05-26T07:23:43Z</time>
      </trkpt>
      <trkpt lat="41.676033400" lon="1.760699200">
        <ele>352.60</ele>
        <time>2018-05-26T07:23:45Z</time>
      </trkpt>
      <trkpt lat="41.675983200" lon="1.760540000">
        <ele>353.20</ele>
        <time>2018-05-26T07:23:47Z</time>
      </trkpt>
      <trkpt lat="41.675922800" lon="1.760373900">
        <ele>353.80</ele>
        <time>2018-05-26T07:23:49Z</time>
      </trkpt>
      <trkpt lat="41.675859900" lon="1.760213800">
        <ele>354.20</ele>
        <time>2018-05-26T07:23:51Z</time>
      </trkpt>
      <trkpt lat="41.675798400" lon="1.760054800">
        <ele>354.80</ele>
        <time>2018-05-26T07:23:53Z</time>
      </trkpt>
      <trkpt lat="41.675734700" lon="1.759896400">
        <ele>355.00</ele>
        <time>2018-05-26T07:23:55Z</time>
      </trkpt>
      <trkpt lat="41.675677400" lon="1.759728400">
        <ele>355.40</ele>
        <time>2018-05-26T07:23:57Z</time>
      </trkpt>
      <trkpt lat="41.675626700" lon="1.759440800">
        <ele>355.40</ele>
        <time>2018-05-26T07:24:00Z</time>
      </trkpt>
      <trkpt lat="41.675627800" lon="1.759142100">
        <ele>355.20</ele>
        <time>2018-05-26T07:24:03Z</time>
      </trkpt>
      <trkpt lat="41.675634500" lon="1.758844800">
        <ele>354.80</ele>
        <time>2018-05-26T07:24:06Z</time>
      </trkpt>
      <trkpt lat="41.675607600" lon="1.758552500">
        <ele>354.60</ele>
        <time>2018-05-26T07:24:09Z</time>
      </trkpt>
      <trkpt lat="41.675481300" lon="1.757969200">
        <ele>354.20</ele>
        <time>2018-05-26T07:24:15Z</time>
      </trkpt>
      <trkpt lat="41.675431200" lon="1.757776000">
        <ele>354.00</ele>
        <time>2018-05-26T07:24:17Z</time>
      </trkpt>
      <trkpt lat="41.675288500" lon="1.757310000">
        <ele>353.60</ele>
        <time>2018-05-26T07:24:22Z</time>
      </trkpt>
      <trkpt lat="41.675219200" lon="1.757132100">
        <ele>353.20</ele>
        <time>2018-05-26T07:24:24Z</time>
      </trkpt>
      <trkpt lat="41.675151700" lon="1.756951600">
        <ele>352.80</ele>
        <time>2018-05-26T07:24:26Z</time>
      </trkpt>
      <trkpt lat="41.675019600" lon="1.756589300">
        <ele>352.20</ele>
        <time>2018-05-26T07:24:30Z</time>
      </trkpt>
      <trkpt lat="41.674908800" lon="1.756338800">
        <ele>352.00</ele>
        <time>2018-05-26T07:24:33Z</time>
      </trkpt>
      <trkpt lat="41.674797100" lon="1.756208300">
        <ele>351.60</ele>
        <time>2018-05-26T07:24:35Z</time>
      </trkpt>
      <trkpt lat="41.674652300" lon="1.756116700">
        <ele>351.00</ele>
        <time>2018-05-26T07:24:37Z</time>
      </trkpt>
      <trkpt lat="41.674258400" lon="1.755910100">
        <ele>349.60</ele>
        <time>2018-05-26T07:24:42Z</time>
      </trkpt>
      <trkpt lat="41.673967100" lon="1.755688900">
        <ele>348.80</ele>
        <time>2018-05-26T07:24:46Z</time>
      </trkpt>
      <trkpt lat="41.673576500" lon="1.755185700">
        <ele>349.00</ele>
        <time>2018-05-26T07:24:53Z</time>
      </trkpt>
      <trkpt lat="41.673324700" lon="1.754845900">
        <ele>349.20</ele>
        <time>2018-05-26T07:24:58Z</time>
      </trkpt>
      <trkpt lat="41.673166900" lon="1.754640900">
        <ele>349.80</ele>
        <time>2018-05-26T07:25:01Z</time>
      </trkpt>
      <trkpt lat="41.672874000" lon="1.754306800">
        <ele>350.80</ele>
        <time>2018-05-26T07:25:07Z</time>
      </trkpt>
      <trkpt lat="41.672729500" lon="1.754236400">
        <ele>351.60</ele>
        <time>2018-05-26T07:25:10Z</time>
      </trkpt>
      <trkpt lat="41.672626200" lon="1.754202500">
        <ele>351.80</ele>
        <time>2018-05-26T07:25:12Z</time>
      </trkpt>
      <trkpt lat="41.672526200" lon="1.754175100">
        <ele>352.40</ele>
        <time>2018-05-26T07:25:14Z</time>
      </trkpt>
      <trkpt lat="41.672421200" lon="1.754150500">
        <ele>353.20</ele>
        <time>2018-05-26T07:25:16Z</time>
      </trkpt>
      <trkpt lat="41.672316500" lon="1.754103000">
        <ele>353.40</ele>
        <time>2018-05-26T07:25:18Z</time>
      </trkpt>
      <trkpt lat="41.672196900" lon="1.753964500">
        <ele>354.20</ele>
        <time>2018-05-26T07:25:21Z</time>
      </trkpt>
      <trkpt lat="41.672109100" lon="1.753771900">
        <ele>354.60</ele>
        <time>2018-05-26T07:25:24Z</time>
      </trkpt>
      <trkpt lat="41.672089200" lon="1.753431700">
        <ele>355.20</ele>
        <time>2018-05-26T07:25:28Z</time>
      </trkpt>
      <trkpt lat="41.672173600" lon="1.753098700">
        <ele>355.00</ele>
        <time>2018-05-26T07:25:32Z</time>
      </trkpt>
      <trkpt lat="41.672221500" lon="1.752933700">
        <ele>354.60</ele>
        <time>2018-05-26T07:25:34Z</time>
      </trkpt>
      <trkpt lat="41.672292200" lon="1.752683000">
        <ele>354.40</ele>
        <time>2018-05-26T07:25:37Z</time>
      </trkpt>
      <trkpt lat="41.672340800" lon="1.752428200">
        <ele>354.00</ele>
        <time>2018-05-26T07:25:40Z</time>
      </trkpt>
      <trkpt lat="41.672354500" lon="1.752239700">
        <ele>353.80</ele>
        <time>2018-05-26T07:25:42Z</time>
      </trkpt>
      <trkpt lat="41.672326500" lon="1.752045000">
        <ele>353.80</ele>
        <time>2018-05-26T07:25:44Z</time>
      </trkpt>
      <trkpt lat="41.672216100" lon="1.751720500">
        <ele>354.40</ele>
        <time>2018-05-26T07:25:48Z</time>
      </trkpt>
      <trkpt lat="41.672115700" lon="1.751525000">
        <ele>355.20</ele>
        <time>2018-05-26T07:25:51Z</time>
      </trkpt>
      <trkpt lat="41.671984400" lon="1.751274500">
        <ele>356.20</ele>
        <time>2018-05-26T07:25:55Z</time>
      </trkpt>
      <trkpt lat="41.671921300" lon="1.751153800">
        <ele>356.40</ele>
        <time>2018-05-26T07:25:57Z</time>
      </trkpt>
      <trkpt lat="41.671761600" lon="1.750849400">
        <ele>357.60</ele>
        <time>2018-05-26T07:26:02Z</time>
      </trkpt>
      <trkpt lat="41.671698000" lon="1.750732600">
        <ele>358.20</ele>
        <time>2018-05-26T07:26:04Z</time>
      </trkpt>
      <trkpt lat="41.671641100" lon="1.750619500">
        <ele>358.60</ele>
        <time>2018-05-26T07:26:06Z</time>
      </trkpt>
      <trkpt lat="41.671535600" lon="1.750406400">
        <ele>359.80</ele>
        <time>2018-05-26T07:26:10Z</time>
      </trkpt>
      <trkpt lat="41.671460200" lon="1.750257500">
        <ele>360.60</ele>
        <time>2018-05-26T07:26:13Z</time>
      </trkpt>
      <trkpt lat="41.671360100" lon="1.750062400">
        <ele>362.00</ele>
        <time>2018-05-26T07:26:17Z</time>
      </trkpt>
      <trkpt lat="41.671287000" lon="1.749924700">
        <ele>363.00</ele>
        <time>2018-05-26T07:26:20Z</time>
      </trkpt>
      <trkpt lat="41.671216100" lon="1.749796900">
        <ele>364.40</ele>
        <time>2018-05-26T07:26:23Z</time>
      </trkpt>
      <trkpt lat="41.671144100" lon="1.749659300">
        <ele>365.60</ele>
        <time>2018-05-26T07:26:26Z</time>
      </trkpt>
      <trkpt lat="41.671013800" lon="1.749456200">
        <ele>367.80</ele>
        <time>2018-05-26T07:26:31Z</time>
      </trkpt>
      <trkpt lat="41.670936700" lon="1.749342300">
        <ele>368.80</ele>
        <time>2018-05-26T07:26:34Z</time>
      </trkpt>
      <trkpt lat="41.670820600" lon="1.749178900">
        <ele>369.80</ele>
        <time>2018-05-26T07:26:38Z</time>
      </trkpt>
      <trkpt lat="41.670629900" lon="1.748953800">
        <ele>370.80</ele>
        <time>2018-05-26T07:26:44Z</time>
      </trkpt>
      <trkpt lat="41.670559300" lon="1.748877200">
        <ele>371.20</ele>
        <time>2018-05-26T07:26:46Z</time>
      </trkpt>
      <trkpt lat="41.670488400" lon="1.748800800">
        <ele>371.20</ele>
        <time>2018-05-26T07:26:48Z</time>
      </trkpt>
      <trkpt lat="41.670293200" lon="1.748591000">
        <ele>371.20</ele>
        <time>2018-05-26T07:26:53Z</time>
      </trkpt>
      <trkpt lat="41.670091900" lon="1.748358800">
        <ele>371.20</ele>
        <time>2018-05-26T07:26:58Z</time>
      </trkpt>
      <trkpt lat="41.670015000" lon="1.748258000">
        <ele>371.20</ele>
        <time>2018-05-26T07:27:00Z</time>
      </trkpt>
      <trkpt lat="41.669902500" lon="1.748099600">
        <ele>371.20</ele>
        <time>2018-05-26T07:27:03Z</time>
      </trkpt>
      <trkpt lat="41.669790700" lon="1.747937500">
        <ele>371.40</ele>
        <time>2018-05-26T07:27:06Z</time>
      </trkpt>
      <trkpt lat="41.669681900" lon="1.747776300">
        <ele>371.60</ele>
        <time>2018-05-26T07:27:09Z</time>
      </trkpt>
      <trkpt lat="41.669607600" lon="1.747665000">
        <ele>371.60</ele>
        <time>2018-05-26T07:27:11Z</time>
      </trkpt>
      <trkpt lat="41.669494800" lon="1.747494500">
        <ele>371.80</ele>
        <time>2018-05-26T07:27:14Z</time>
      </trkpt>
      <trkpt lat="41.669416900" lon="1.747380600">
        <ele>371.80</ele>
        <time>2018-05-26T07:27:16Z</time>
      </trkpt>
      <trkpt lat="41.669338400" lon="1.747270600">
        <ele>371.60</ele>
        <time>2018-05-26T07:27:18Z</time>
      </trkpt>
      <trkpt lat="41.669224100" lon="1.747092700">
        <ele>371.80</ele>
        <time>2018-05-26T07:27:21Z</time>
      </trkpt>
      <trkpt lat="41.669144000" lon="1.746979100">
        <ele>371.60</ele>
        <time>2018-05-26T07:27:23Z</time>
      </trkpt>
      <trkpt lat="41.669064600" lon="1.746863100">
        <ele>371.80</ele>
        <time>2018-05-26T07:27:25Z</time>
      </trkpt>
      <trkpt lat="41.668987000" lon="1.746744800">
        <ele>371.80</ele>
        <time>2018-05-26T07:27:27Z</time>
      </trkpt>
      <trkpt lat="41.668871800" lon="1.746567400">
        <ele>371.80</ele>
        <time>2018-05-26T07:27:30Z</time>
      </trkpt>
      <trkpt lat="41.668679000" lon="1.746285500">
        <ele>371.80</ele>
        <time>2018-05-26T07:27:35Z</time>
      </trkpt>
      <trkpt lat="41.668602400" lon="1.746167500">
        <ele>372.00</ele>
        <time>2018-05-26T07:27:37Z</time>
      </trkpt>
      <trkpt lat="41.668413900" lon="1.745860700">
        <ele>371.80</ele>
        <time>2018-05-26T07:27:42Z</time>
      </trkpt>
      <trkpt lat="41.668340200" lon="1.745730000">
        <ele>371.80</ele>
        <time>2018-05-26T07:27:44Z</time>
      </trkpt>
      <trkpt lat="41.668000800" lon="1.745173500">
        <ele>372.40</ele>
        <time>2018-05-26T07:27:53Z</time>
      </trkpt>
      <trkpt lat="41.667718900" lon="1.744740800">
        <ele>372.60</ele>
        <time>2018-05-26T07:28:00Z</time>
      </trkpt>
      <trkpt lat="41.667639000" lon="1.744621300">
        <ele>372.80</ele>
        <time>2018-05-26T07:28:02Z</time>
      </trkpt>
      <trkpt lat="41.667478700" lon="1.744378900">
        <ele>373.20</ele>
        <time>2018-05-26T07:28:06Z</time>
      </trkpt>
      <trkpt lat="41.667324400" lon="1.744143200">
        <ele>373.40</ele>
        <time>2018-05-26T07:28:10Z</time>
      </trkpt>
      <trkpt lat="41.667225500" lon="1.743957600">
        <ele>373.20</ele>
        <time>2018-05-26T07:28:13Z</time>
      </trkpt>
      <trkpt lat="41.667198900" lon="1.743645200">
        <ele>373.40</ele>
        <time>2018-05-26T07:28:17Z</time>
      </trkpt>
      <trkpt lat="41.667255800" lon="1.743401800">
        <ele>373.40</ele>
        <time>2018-05-26T07:28:20Z</time>
      </trkpt>
      <trkpt lat="41.667300100" lon="1.743237600">
        <ele>373.40</ele>
        <time>2018-05-26T07:28:22Z</time>
      </trkpt>
      <trkpt lat="41.667260800" lon="1.743019200">
        <ele>373.80</ele>
        <time>2018-05-26T07:28:25Z</time>
      </trkpt>
      <trkpt lat="41.667144900" lon="1.742906000">
        <ele>375.20</ele>
        <time>2018-05-26T07:28:28Z</time>
      </trkpt>
      <trkpt lat="41.667021700" lon="1.742835300">
        <ele>376.20</ele>
        <time>2018-05-26T07:28:31Z</time>
      </trkpt>
      <trkpt lat="41.666902300" lon="1.742784600">
        <ele>377.40</ele>
        <time>2018-05-26T07:28:34Z</time>
      </trkpt>
      <trkpt lat="41.666793200" lon="1.742724800">
        <ele>378.60</ele>
        <time>2018-05-26T07:28:37Z</time>
      </trkpt>
      <trkpt lat="41.666698600" lon="1.742612800">
        <ele>379.20</ele>
        <time>2018-05-26T07:28:40Z</time>
      </trkpt>
      <trkpt lat="41.666660300" lon="1.742436500">
        <ele>380.40</ele>
        <time>2018-05-26T07:28:43Z</time>
      </trkpt>
      <trkpt lat="41.666643800" lon="1.742264700">
        <ele>381.40</ele>
        <time>2018-05-26T07:28:46Z</time>
      </trkpt>
      <trkpt lat="41.666632000" lon="1.742109500">
        <ele>382.40</ele>
        <time>2018-05-26T07:28:49Z</time>
      </trkpt>
      <trkpt lat="41.666621900" lon="1.741953800">
        <ele>383.80</ele>
        <time>2018-05-26T07:28:52Z</time>
      </trkpt>
      <trkpt lat="41.666608600" lon="1.741759600">
        <ele>385.00</ele>
        <time>2018-05-26T07:28:56Z</time>
      </trkpt>
      <trkpt lat="41.666596200" lon="1.741577300">
        <ele>386.40</ele>
        <time>2018-05-26T07:29:00Z</time>
      </trkpt>
      <trkpt lat="41.666586300" lon="1.741406900">
        <ele>387.60</ele>
        <time>2018-05-26T07:29:04Z</time>
      </trkpt>
      <trkpt lat="41.666599800" lon="1.741226000">
        <ele>388.60</ele>
        <time>2018-05-26T07:29:08Z</time>
      </trkpt>
      <trkpt lat="41.666609500" lon="1.741089300">
        <ele>389.60</ele>
        <time>2018-05-26T07:29:11Z</time>
      </trkpt>
      <trkpt lat="41.666611200" lon="1.740838100">
        <ele>391.40</ele>
        <time>2018-05-26T07:29:16Z</time>
      </trkpt>
      <trkpt lat="41.666615700" lon="1.740658700">
        <ele>392.60</ele>
        <time>2018-05-26T07:29:20Z</time>
      </trkpt>
      <trkpt lat="41.666620600" lon="1.740526800">
        <ele>393.60</ele>
        <time>2018-05-26T07:29:23Z</time>
      </trkpt>
      <trkpt lat="41.666650100" lon="1.740361900">
        <ele>394.80</ele>
        <time>2018-05-26T07:29:27Z</time>
      </trkpt>
      <trkpt lat="41.666697100" lon="1.740215500">
        <ele>395.60</ele>
        <time>2018-05-26T07:29:30Z</time>
      </trkpt>
      <trkpt lat="41.666798200" lon="1.739906400">
        <ele>397.00</ele>
        <time>2018-05-26T07:29:37Z</time>
      </trkpt>
      <trkpt lat="41.666775900" lon="1.739782700">
        <ele>397.40</ele>
        <time>2018-05-26T07:29:39Z</time>
      </trkpt>
      <trkpt lat="41.666704600" lon="1.739641800">
        <ele>398.40</ele>
        <time>2018-05-26T07:29:42Z</time>
      </trkpt>
      <trkpt lat="41.666526100" lon="1.739551800">
        <ele>399.00</ele>
        <time>2018-05-26T07:29:46Z</time>
      </trkpt>
      <trkpt lat="41.666329400" lon="1.739669300">
        <ele>400.40</ele>
        <time>2018-05-26T07:29:51Z</time>
      </trkpt>
      <trkpt lat="41.666213400" lon="1.739828600">
        <ele>401.60</ele>
        <time>2018-05-26T07:29:55Z</time>
      </trkpt>
      <trkpt lat="41.666134600" lon="1.740017100">
        <ele>402.60</ele>
        <time>2018-05-26T07:29:59Z</time>
      </trkpt>
      <trkpt lat="41.666102500" lon="1.740154100">
        <ele>403.20</ele>
        <time>2018-05-26T07:30:02Z</time>
      </trkpt>
      <trkpt lat="41.666069900" lon="1.740297200">
        <ele>404.00</ele>
        <time>2018-05-26T07:30:05Z</time>
      </trkpt>
      <trkpt lat="41.666028900" lon="1.740475400">
        <ele>404.80</ele>
        <time>2018-05-26T07:30:09Z</time>
      </trkpt>
      <trkpt lat="41.665881600" lon="1.740669800">
        <ele>406.40</ele>
        <time>2018-05-26T07:30:15Z</time>
      </trkpt>
      <trkpt lat="41.665779400" lon="1.740703700">
        <ele>407.40</ele>
        <time>2018-05-26T07:30:18Z</time>
      </trkpt>
      <trkpt lat="41.665679000" lon="1.740670900">
        <ele>408.60</ele>
        <time>2018-05-26T07:30:21Z</time>
      </trkpt>
      <trkpt lat="41.665537500" lon="1.740592800">
        <ele>409.80</ele>
        <time>2018-05-26T07:30:25Z</time>
      </trkpt>
      <trkpt lat="41.665388000" lon="1.740499100">
        <ele>411.40</ele>
        <time>2018-05-26T07:30:29Z</time>
      </trkpt>
      <trkpt lat="41.665272500" lon="1.740414500">
        <ele>412.20</ele>
        <time>2018-05-26T07:30:32Z</time>
      </trkpt>
      <trkpt lat="41.665164100" lon="1.740239200">
        <ele>413.40</ele>
        <time>2018-05-26T07:30:36Z</time>
      </trkpt>
      <trkpt lat="41.665101400" lon="1.740086700">
        <ele>414.40</ele>
        <time>2018-05-26T07:30:39Z</time>
      </trkpt>
      <trkpt lat="41.665015200" lon="1.739868200">
        <ele>415.80</ele>
        <time>2018-05-26T07:30:44Z</time>
      </trkpt>
      <trkpt lat="41.664945300" lon="1.739704100">
        <ele>417.00</ele>
        <time>2018-05-26T07:30:48Z</time>
      </trkpt>
      <trkpt lat="41.664885400" lon="1.739536700">
        <ele>418.00</ele>
        <time>2018-05-26T07:30:52Z</time>
      </trkpt>
      <trkpt lat="41.664783000" lon="1.739292900">
        <ele>419.60</ele>
        <time>2018-05-26T07:30:58Z</time>
      </trkpt>
      <trkpt lat="41.664705700" lon="1.739088900">
        <ele>421.00</ele>
        <time>2018-05-26T07:31:03Z</time>
      </trkpt>
      <trkpt lat="41.664655700" lon="1.738965000">
        <ele>421.60</ele>
        <time>2018-05-26T07:31:06Z</time>
      </trkpt>
      <trkpt lat="41.664575400" lon="1.738695300">
        <ele>423.20</ele>
        <time>2018-05-26T07:31:12Z</time>
      </trkpt>
      <trkpt lat="41.664566600" lon="1.738508700">
        <ele>424.40</ele>
        <time>2018-05-26T07:31:16Z</time>
      </trkpt>
      <trkpt lat="41.664543400" lon="1.738271400">
        <ele>426.20</ele>
        <time>2018-05-26T07:31:21Z</time>
      </trkpt>
      <trkpt lat="41.664412800" lon="1.738146700">
        <ele>427.20</ele>
        <time>2018-05-26T07:31:25Z</time>
      </trkpt>
      <trkpt lat="41.664292700" lon="1.738136400">
        <ele>428.20</ele>
        <time>2018-05-26T07:31:28Z</time>
      </trkpt>
      <trkpt lat="41.664125500" lon="1.738146800">
        <ele>429.20</ele>
        <time>2018-05-26T07:31:32Z</time>
      </trkpt>
      <trkpt lat="41.663982800" lon="1.738069500">
        <ele>430.20</ele>
        <time>2018-05-26T07:31:36Z</time>
      </trkpt>
      <trkpt lat="41.663932500" lon="1.737922200">
        <ele>431.20</ele>
        <time>2018-05-26T07:31:39Z</time>
      </trkpt>
      <trkpt lat="41.663980500" lon="1.737692700">
        <ele>433.00</ele>
        <time>2018-05-26T07:31:43Z</time>
      </trkpt>
      <trkpt lat="41.664091000" lon="1.737451100">
        <ele>434.20</ele>
        <time>2018-05-26T07:31:48Z</time>
      </trkpt>
      <trkpt lat="41.664201200" lon="1.737289600">
        <ele>435.40</ele>
        <time>2018-05-26T07:31:52Z</time>
      </trkpt>
      <trkpt lat="41.664337700" lon="1.737136300">
        <ele>436.40</ele>
        <time>2018-05-26T07:31:56Z</time>
      </trkpt>
      <trkpt lat="41.664501400" lon="1.736887800">
        <ele>437.80</ele>
        <time>2018-05-26T07:32:02Z</time>
      </trkpt>
      <trkpt lat="41.664548400" lon="1.736738900">
        <ele>439.00</ele>
        <time>2018-05-26T07:32:05Z</time>
      </trkpt>
      <trkpt lat="41.664546700" lon="1.736514400">
        <ele>440.00</ele>
        <time>2018-05-26T07:32:09Z</time>
      </trkpt>
      <trkpt lat="41.664528100" lon="1.736390600">
        <ele>440.60</ele>
        <time>2018-05-26T07:32:11Z</time>
      </trkpt>
      <trkpt lat="41.664530900" lon="1.736169500">
        <ele>441.80</ele>
        <time>2018-05-26T07:32:15Z</time>
      </trkpt>
      <trkpt lat="41.664564800" lon="1.735846200">
        <ele>443.80</ele>
        <time>2018-05-26T07:32:21Z</time>
      </trkpt>
      <trkpt lat="41.664569100" lon="1.735631900">
        <ele>445.00</ele>
        <time>2018-05-26T07:32:25Z</time>
      </trkpt>
      <trkpt lat="41.664499300" lon="1.735427500">
        <ele>446.20</ele>
        <time>2018-05-26T07:32:29Z</time>
      </trkpt>
      <trkpt lat="41.664427500" lon="1.735333700">
        <ele>446.60</ele>
        <time>2018-05-26T07:32:31Z</time>
      </trkpt>
      <trkpt lat="41.664253700" lon="1.735226500">
        <ele>447.40</ele>
        <time>2018-05-26T07:32:35Z</time>
      </trkpt>
      <trkpt lat="41.664077100" lon="1.735247300">
        <ele>448.40</ele>
        <time>2018-05-26T07:32:39Z</time>
      </trkpt>
      <trkpt lat="41.663899400" lon="1.735385100">
        <ele>449.60</ele>
        <time>2018-05-26T07:32:44Z</time>
      </trkpt>
      <trkpt lat="41.663733800" lon="1.735460500">
        <ele>450.60</ele>
        <time>2018-05-26T07:32:48Z</time>
      </trkpt>
      <trkpt lat="41.663661100" lon="1.735279300">
        <ele>453.60</ele>
        <time>2018-05-26T07:32:53Z</time>
      </trkpt>
      <trkpt lat="41.663700400" lon="1.735147300">
        <ele>454.40</ele>
        <time>2018-05-26T07:32:55Z</time>
      </trkpt>
      <trkpt lat="41.663733100" lon="1.735005300">
        <ele>455.20</ele>
        <time>2018-05-26T07:32:57Z</time>
      </trkpt>
      <trkpt lat="41.663717800" lon="1.734817000">
        <ele>456.20</ele>
        <time>2018-05-26T07:33:00Z</time>
      </trkpt>
      <trkpt lat="41.663708200" lon="1.734693100">
        <ele>456.60</ele>
        <time>2018-05-26T07:33:02Z</time>
      </trkpt>
      <trkpt lat="41.663725400" lon="1.734566900">
        <ele>457.20</ele>
        <time>2018-05-26T07:33:04Z</time>
      </trkpt>
      <trkpt lat="41.663754400" lon="1.734440400">
        <ele>457.60</ele>
        <time>2018-05-26T07:33:06Z</time>
      </trkpt>
      <trkpt lat="41.663806200" lon="1.734340700">
        <ele>458.20</ele>
        <time>2018-05-26T07:33:08Z</time>
      </trkpt>
      <trkpt lat="41.663883400" lon="1.734251900">
        <ele>458.80</ele>
        <time>2018-05-26T07:33:10Z</time>
      </trkpt>
      <trkpt lat="41.663955900" lon="1.734099200">
        <ele>459.40</ele>
        <time>2018-05-26T07:33:13Z</time>
      </trkpt>
      <trkpt lat="41.663910300" lon="1.733856900">
        <ele>460.60</ele>
        <time>2018-05-26T07:33:17Z</time>
      </trkpt>
      <trkpt lat="41.663884400" lon="1.733737500">
        <ele>461.20</ele>
        <time>2018-05-26T07:33:19Z</time>
      </trkpt>
      <trkpt lat="41.663877900" lon="1.733599900">
        <ele>461.60</ele>
        <time>2018-05-26T07:33:21Z</time>
      </trkpt>
      <trkpt lat="41.663881800" lon="1.733470500">
        <ele>462.20</ele>
        <time>2018-05-26T07:33:23Z</time>
      </trkpt>
      <trkpt lat="41.663890500" lon="1.733283600">
        <ele>462.80</ele>
        <time>2018-05-26T07:33:26Z</time>
      </trkpt>
      <trkpt lat="41.663908400" lon="1.733037200">
        <ele>463.80</ele>
        <time>2018-05-26T07:33:30Z</time>
      </trkpt>
      <trkpt lat="41.663921300" lon="1.732767000">
        <ele>464.60</ele>
        <time>2018-05-26T07:33:34Z</time>
      </trkpt>
      <trkpt lat="41.663912000" lon="1.732563100">
        <ele>465.40</ele>
        <time>2018-05-26T07:33:37Z</time>
      </trkpt>
      <trkpt lat="41.663903100" lon="1.732422500">
        <ele>465.80</ele>
        <time>2018-05-26T07:33:39Z</time>
      </trkpt>
      <trkpt lat="41.663880300" lon="1.732156200">
        <ele>467.00</ele>
        <time>2018-05-26T07:33:43Z</time>
      </trkpt>
      <trkpt lat="41.663882800" lon="1.731877100">
        <ele>468.00</ele>
        <time>2018-05-26T07:33:47Z</time>
      </trkpt>
      <trkpt lat="41.663911000" lon="1.731726800">
        <ele>468.20</ele>
        <time>2018-05-26T07:33:49Z</time>
      </trkpt>
      <trkpt lat="41.663992800" lon="1.731218500">
        <ele>469.00</ele>
        <time>2018-05-26T07:33:56Z</time>
      </trkpt>
      <trkpt lat="41.663986800" lon="1.730828100">
        <ele>469.80</ele>
        <time>2018-05-26T07:34:01Z</time>
      </trkpt>
      <trkpt lat="41.663943000" lon="1.730512300">
        <ele>470.20</ele>
        <time>2018-05-26T07:34:05Z</time>
      </trkpt>
      <trkpt lat="41.663810000" lon="1.730239900">
        <ele>470.80</ele>
        <time>2018-05-26T07:34:09Z</time>
      </trkpt>
      <trkpt lat="41.663591700" lon="1.729936000">
        <ele>471.40</ele>
        <time>2018-05-26T07:34:14Z</time>
      </trkpt>
      <trkpt lat="41.663464800" lon="1.729746200">
        <ele>471.80</ele>
        <time>2018-05-26T07:34:17Z</time>
      </trkpt>
      <trkpt lat="41.663342200" lon="1.729550800">
        <ele>472.80</ele>
        <time>2018-05-26T07:34:20Z</time>
      </trkpt>
      <trkpt lat="41.663171800" lon="1.729296700">
        <ele>473.20</ele>
        <time>2018-05-26T07:34:24Z</time>
      </trkpt>
      <trkpt lat="41.663045400" lon="1.729047600">
        <ele>473.60</ele>
        <time>2018-05-26T07:34:28Z</time>
      </trkpt>
      <trkpt lat="41.663005600" lon="1.728750500">
        <ele>474.60</ele>
        <time>2018-05-26T07:34:32Z</time>
      </trkpt>
      <trkpt lat="41.663014700" lon="1.728474000">
        <ele>475.00</ele>
        <time>2018-05-26T07:34:36Z</time>
      </trkpt>
      <trkpt lat="41.663002600" lon="1.728186700">
        <ele>476.00</ele>
        <time>2018-05-26T07:34:40Z</time>
      </trkpt>
      <trkpt lat="41.662886700" lon="1.727859500">
        <ele>477.00</ele>
        <time>2018-05-26T07:34:45Z</time>
      </trkpt>
      <trkpt lat="41.662815400" lon="1.727742300">
        <ele>477.40</ele>
        <time>2018-05-26T07:34:47Z</time>
      </trkpt>
      <trkpt lat="41.662656700" lon="1.727455900">
        <ele>478.40</ele>
        <time>2018-05-26T07:34:52Z</time>
      </trkpt>
      <trkpt lat="41.662527300" lon="1.727223800">
        <ele>479.60</ele>
        <time>2018-05-26T07:34:56Z</time>
      </trkpt>
      <trkpt lat="41.662368200" lon="1.726937200">
        <ele>480.80</ele>
        <time>2018-05-26T07:35:01Z</time>
      </trkpt>
      <trkpt lat="41.662313300" lon="1.726804800">
        <ele>481.00</ele>
        <time>2018-05-26T07:35:03Z</time>
      </trkpt>
      <trkpt lat="41.662262600" lon="1.726567500">
        <ele>480.80</ele>
        <time>2018-05-26T07:35:06Z</time>
      </trkpt>
      <trkpt lat="41.662222100" lon="1.726122100">
        <ele>480.20</ele>
        <time>2018-05-26T07:35:11Z</time>
      </trkpt>
      <trkpt lat="41.662196500" lon="1.725947000">
        <ele>480.00</ele>
        <time>2018-05-26T07:35:13Z</time>
      </trkpt>
      <trkpt lat="41.662056700" lon="1.725651900">
        <ele>480.40</ele>
        <time>2018-05-26T07:35:17Z</time>
      </trkpt>
      <trkpt lat="41.661957400" lon="1.725546300">
        <ele>480.80</ele>
        <time>2018-05-26T07:35:19Z</time>
      </trkpt>
      <trkpt lat="41.661903400" lon="1.725413600">
        <ele>481.00</ele>
        <time>2018-05-26T07:35:21Z</time>
      </trkpt>
      <trkpt lat="41.661912300" lon="1.725092700">
        <ele>482.00</ele>
        <time>2018-05-26T07:35:25Z</time>
      </trkpt>
      <trkpt lat="41.661864400" lon="1.724770600">
        <ele>482.40</ele>
        <time>2018-05-26T07:35:29Z</time>
      </trkpt>
      <trkpt lat="41.661732600" lon="1.724470400">
        <ele>483.00</ele>
        <time>2018-05-26T07:35:33Z</time>
      </trkpt>
      <trkpt lat="41.661529700" lon="1.724045200">
        <ele>483.60</ele>
        <time>2018-05-26T07:35:39Z</time>
      </trkpt>
      <trkpt lat="41.661434900" lon="1.723937600">
        <ele>484.40</ele>
        <time>2018-05-26T07:35:41Z</time>
      </trkpt>
      <trkpt lat="41.661330100" lon="1.723858300">
        <ele>484.60</ele>
        <time>2018-05-26T07:35:43Z</time>
      </trkpt>
      <trkpt lat="41.661047000" lon="1.723669200">
        <ele>484.40</ele>
        <time>2018-05-26T07:35:48Z</time>
      </trkpt>
      <trkpt lat="41.660816700" lon="1.723440500">
        <ele>483.40</ele>
        <time>2018-05-26T07:35:52Z</time>
      </trkpt>
      <trkpt lat="41.660674300" lon="1.723384800">
        <ele>483.00</ele>
        <time>2018-05-26T07:35:54Z</time>
      </trkpt>
      <trkpt lat="41.660529500" lon="1.723336000">
        <ele>482.80</ele>
        <time>2018-05-26T07:35:56Z</time>
      </trkpt>
      <trkpt lat="41.660420800" lon="1.723206600">
        <ele>482.20</ele>
        <time>2018-05-26T07:35:58Z</time>
      </trkpt>
      <trkpt lat="41.660339100" lon="1.722924700">
        <ele>481.80</ele>
        <time>2018-05-26T07:36:01Z</time>
      </trkpt>
      <trkpt lat="41.660376600" lon="1.722593900">
        <ele>481.20</ele>
        <time>2018-05-26T07:36:04Z</time>
      </trkpt>
      <trkpt lat="41.660381500" lon="1.722369500">
        <ele>480.60</ele>
        <time>2018-05-26T07:36:06Z</time>
      </trkpt>
      <trkpt lat="41.660246300" lon="1.722125900">
        <ele>480.40</ele>
        <time>2018-05-26T07:36:09Z</time>
      </trkpt>
      <trkpt lat="41.660038800" lon="1.721972600">
        <ele>481.20</ele>
        <time>2018-05-26T07:36:12Z</time>
      </trkpt>
      <trkpt lat="41.659870300" lon="1.721681100">
        <ele>482.00</ele>
        <time>2018-05-26T07:36:16Z</time>
      </trkpt>
      <trkpt lat="41.659789500" lon="1.721449500">
        <ele>482.40</ele>
        <time>2018-05-26T07:36:19Z</time>
      </trkpt>
      <trkpt lat="41.659765400" lon="1.721293500">
        <ele>482.80</ele>
        <time>2018-05-26T07:36:21Z</time>
      </trkpt>
      <trkpt lat="41.659755600" lon="1.721087800">
        <ele>483.60</ele>
        <time>2018-05-26T07:36:24Z</time>
      </trkpt>
      <trkpt lat="41.659769700" lon="1.720951700">
        <ele>484.00</ele>
        <time>2018-05-26T07:36:26Z</time>
      </trkpt>
      <trkpt lat="41.659804600" lon="1.720721900">
        <ele>484.40</ele>
        <time>2018-05-26T07:36:29Z</time>
      </trkpt>
      <trkpt lat="41.659847400" lon="1.720571200">
        <ele>484.60</ele>
        <time>2018-05-26T07:36:31Z</time>
      </trkpt>
      <trkpt lat="41.659896800" lon="1.720413300">
        <ele>484.60</ele>
        <time>2018-05-26T07:36:33Z</time>
      </trkpt>
      <trkpt lat="41.659949300" lon="1.720267000">
        <ele>485.20</ele>
        <time>2018-05-26T07:36:35Z</time>
      </trkpt>
      <trkpt lat="41.659984200" lon="1.720121700">
        <ele>486.40</ele>
        <time>2018-05-26T07:36:37Z</time>
      </trkpt>
      <trkpt lat="41.659964100" lon="1.719977900">
        <ele>487.40</ele>
        <time>2018-05-26T07:36:39Z</time>
      </trkpt>
      <trkpt lat="41.659894300" lon="1.719856900">
        <ele>488.40</ele>
        <time>2018-05-26T07:36:41Z</time>
      </trkpt>
      <trkpt lat="41.659793200" lon="1.719761000">
        <ele>489.00</ele>
        <time>2018-05-26T07:36:43Z</time>
      </trkpt>
      <trkpt lat="41.659685600" lon="1.719680600">
        <ele>489.60</ele>
        <time>2018-05-26T07:36:45Z</time>
      </trkpt>
      <trkpt lat="41.659516000" lon="1.719594400">
        <ele>490.60</ele>
        <time>2018-05-26T07:36:48Z</time>
      </trkpt>
      <trkpt lat="41.659237600" lon="1.719428100">
        <ele>492.20</ele>
        <time>2018-05-26T07:36:53Z</time>
      </trkpt>
      <trkpt lat="41.659132200" lon="1.719356800">
        <ele>493.40</ele>
        <time>2018-05-26T07:36:55Z</time>
      </trkpt>
      <trkpt lat="41.658961900" lon="1.719282300">
        <ele>494.60</ele>
        <time>2018-05-26T07:36:58Z</time>
      </trkpt>
      <trkpt lat="41.658840200" lon="1.719255500">
        <ele>495.40</ele>
        <time>2018-05-26T07:37:00Z</time>
      </trkpt>
      <trkpt lat="41.658613900" lon="1.719222700">
        <ele>496.80</ele>
        <time>2018-05-26T07:37:04Z</time>
      </trkpt>
      <trkpt lat="41.658509300" lon="1.719210600">
        <ele>497.60</ele>
        <time>2018-05-26T07:37:06Z</time>
      </trkpt>
      <trkpt lat="41.658305400" lon="1.719191100">
        <ele>499.00</ele>
        <time>2018-05-26T07:37:10Z</time>
      </trkpt>
      <trkpt lat="41.658154000" lon="1.719186400">
        <ele>499.80</ele>
        <time>2018-05-26T07:37:13Z</time>
      </trkpt>
      <trkpt lat="41.657960500" lon="1.719266200">
        <ele>501.20</ele>
        <time>2018-05-26T07:37:17Z</time>
      </trkpt>
      <trkpt lat="41.657880100" lon="1.719348900">
        <ele>501.80</ele>
        <time>2018-05-26T07:37:19Z</time>
      </trkpt>
      <trkpt lat="41.657797700" lon="1.719429500">
        <ele>502.40</ele>
        <time>2018-05-26T07:37:21Z</time>
      </trkpt>
      <trkpt lat="41.657706000" lon="1.719491500">
        <ele>503.00</ele>
        <time>2018-05-26T07:37:23Z</time>
      </trkpt>
      <trkpt lat="41.657559000" lon="1.719487900">
        <ele>504.00</ele>
        <time>2018-05-26T07:37:26Z</time>
      </trkpt>
      <trkpt lat="41.657480500" lon="1.719425400">
        <ele>504.80</ele>
        <time>2018-05-26T07:37:28Z</time>
      </trkpt>
      <trkpt lat="41.657409100" lon="1.719344100">
        <ele>505.60</ele>
        <time>2018-05-26T07:37:30Z</time>
      </trkpt>
      <trkpt lat="41.657343700" lon="1.719250000">
        <ele>506.40</ele>
        <time>2018-05-26T07:37:32Z</time>
      </trkpt>
      <trkpt lat="41.657239600" lon="1.719123700">
        <ele>507.20</ele>
        <time>2018-05-26T07:37:35Z</time>
      </trkpt>
      <trkpt lat="41.656965600" lon="1.718802600">
        <ele>510.20</ele>
        <time>2018-05-26T07:37:43Z</time>
      </trkpt>
      <trkpt lat="41.656859800" lon="1.718685500">
        <ele>511.40</ele>
        <time>2018-05-26T07:37:46Z</time>
      </trkpt>
      <trkpt lat="41.656740800" lon="1.718593400">
        <ele>512.20</ele>
        <time>2018-05-26T07:37:49Z</time>
      </trkpt>
      <trkpt lat="41.656558200" lon="1.718579500">
        <ele>512.80</ele>
        <time>2018-05-26T07:37:53Z</time>
      </trkpt>
      <trkpt lat="41.656424000" lon="1.718584000">
        <ele>513.80</ele>
        <time>2018-05-26T07:37:56Z</time>
      </trkpt>
      <trkpt lat="41.656334200" lon="1.718561000">
        <ele>514.60</ele>
        <time>2018-05-26T07:37:58Z</time>
      </trkpt>
      <trkpt lat="41.656262200" lon="1.718485000">
        <ele>515.00</ele>
        <time>2018-05-26T07:38:00Z</time>
      </trkpt>
      <trkpt lat="41.656217900" lon="1.718317000">
        <ele>516.00</ele>
        <time>2018-05-26T07:38:03Z</time>
      </trkpt>
      <trkpt lat="41.656221600" lon="1.718130700">
        <ele>517.40</ele>
        <time>2018-05-26T07:38:06Z</time>
      </trkpt>
      <trkpt lat="41.656233000" lon="1.717997800">
        <ele>518.00</ele>
        <time>2018-05-26T07:38:08Z</time>
      </trkpt>
      <trkpt lat="41.656243800" lon="1.717864700">
        <ele>518.60</ele>
        <time>2018-05-26T07:38:10Z</time>
      </trkpt>
      <trkpt lat="41.656258600" lon="1.717595300">
        <ele>519.60</ele>
        <time>2018-05-26T07:38:14Z</time>
      </trkpt>
      <trkpt lat="41.656256000" lon="1.717397700">
        <ele>520.20</ele>
        <time>2018-05-26T07:38:17Z</time>
      </trkpt>
      <trkpt lat="41.656226800" lon="1.717274900">
        <ele>520.80</ele>
        <time>2018-05-26T07:38:19Z</time>
      </trkpt>
      <trkpt lat="41.656178500" lon="1.717154300">
        <ele>521.60</ele>
        <time>2018-05-26T07:38:21Z</time>
      </trkpt>
      <trkpt lat="41.656109400" lon="1.717052800">
        <ele>522.00</ele>
        <time>2018-05-26T07:38:23Z</time>
      </trkpt>
      <trkpt lat="41.656006600" lon="1.716909200">
        <ele>522.80</ele>
        <time>2018-05-26T07:38:26Z</time>
      </trkpt>
      <trkpt lat="41.655941500" lon="1.716652300">
        <ele>524.20</ele>
        <time>2018-05-26T07:38:30Z</time>
      </trkpt>
      <trkpt lat="41.655968700" lon="1.716369100">
        <ele>525.40</ele>
        <time>2018-05-26T07:38:34Z</time>
      </trkpt>
      <trkpt lat="41.656000400" lon="1.716232700">
        <ele>526.00</ele>
        <time>2018-05-26T07:38:36Z</time>
      </trkpt>
      <trkpt lat="41.656029500" lon="1.716095700">
        <ele>526.60</ele>
        <time>2018-05-26T07:38:38Z</time>
      </trkpt>
      <trkpt lat="41.656049100" lon="1.715884300">
        <ele>527.40</ele>
        <time>2018-05-26T07:38:41Z</time>
      </trkpt>
      <trkpt lat="41.655972400" lon="1.715616700">
        <ele>528.40</ele>
        <time>2018-05-26T07:38:45Z</time>
      </trkpt>
      <trkpt lat="41.655838200" lon="1.715293100">
        <ele>530.00</ele>
        <time>2018-05-26T07:38:50Z</time>
      </trkpt>
      <trkpt lat="41.655760200" lon="1.714763600">
        <ele>530.60</ele>
        <time>2018-05-26T07:38:57Z</time>
      </trkpt>
      <trkpt lat="41.655704300" lon="1.714442400">
        <ele>530.20</ele>
        <time>2018-05-26T07:39:01Z</time>
      </trkpt>
      <trkpt lat="41.655629200" lon="1.714291200">
        <ele>529.80</ele>
        <time>2018-05-26T07:39:03Z</time>
      </trkpt>
      <trkpt lat="41.655441300" lon="1.714099000">
        <ele>528.80</ele>
        <time>2018-05-26T07:39:06Z</time>
      </trkpt>
      <trkpt lat="41.655207100" lon="1.713840500">
        <ele>528.20</ele>
        <time>2018-05-26T07:39:10Z</time>
      </trkpt>
      <trkpt lat="41.655076500" lon="1.713501700">
        <ele>528.60</ele>
        <time>2018-05-26T07:39:14Z</time>
      </trkpt>
      <trkpt lat="41.654871300" lon="1.712903400">
        <ele>528.60</ele>
        <time>2018-05-26T07:39:21Z</time>
      </trkpt>
      <trkpt lat="41.654664200" lon="1.712184800">
        <ele>529.20</ele>
        <time>2018-05-26T07:39:29Z</time>
      </trkpt>
      <trkpt lat="41.654645000" lon="1.712007000">
        <ele>530.00</ele>
        <time>2018-05-26T07:39:31Z</time>
      </trkpt>
      <trkpt lat="41.654628600" lon="1.711843500">
        <ele>530.80</ele>
        <time>2018-05-26T07:39:33Z</time>
      </trkpt>
      <trkpt lat="41.654525500" lon="1.711519300">
        <ele>531.00</ele>
        <time>2018-05-26T07:39:37Z</time>
      </trkpt>
      <trkpt lat="41.654283600" lon="1.710954000">
        <ele>531.20</ele>
        <time>2018-05-26T07:39:44Z</time>
      </trkpt>
      <trkpt lat="41.654230200" lon="1.710784100">
        <ele>531.40</ele>
        <time>2018-05-26T07:39:46Z</time>
      </trkpt>
      <trkpt lat="41.654155600" lon="1.710523100">
        <ele>531.60</ele>
        <time>2018-05-26T07:39:49Z</time>
      </trkpt>
      <trkpt lat="41.653989400" lon="1.710001500">
        <ele>532.20</ele>
        <time>2018-05-26T07:39:55Z</time>
      </trkpt>
      <trkpt lat="41.653938500" lon="1.709818700">
        <ele>532.80</ele>
        <time>2018-05-26T07:39:57Z</time>
      </trkpt>
      <trkpt lat="41.653858200" lon="1.709538200">
        <ele>533.40</ele>
        <time>2018-05-26T07:40:00Z</time>
      </trkpt>
      <trkpt lat="41.653721600" lon="1.709077900">
        <ele>534.00</ele>
        <time>2018-05-26T07:40:05Z</time>
      </trkpt>
      <trkpt lat="41.653567300" lon="1.708676700">
        <ele>535.20</ele>
        <time>2018-05-26T07:40:10Z</time>
      </trkpt>
      <trkpt lat="41.653470700" lon="1.708477000">
        <ele>535.60</ele>
        <time>2018-05-26T07:40:13Z</time>
      </trkpt>
      <trkpt lat="41.653358300" lon="1.708271300">
        <ele>535.80</ele>
        <time>2018-05-26T07:40:16Z</time>
      </trkpt>
      <trkpt lat="41.653194700" lon="1.708026100">
        <ele>536.40</ele>
        <time>2018-05-26T07:40:20Z</time>
      </trkpt>
      <trkpt lat="41.653056200" lon="1.707856000">
        <ele>536.80</ele>
        <time>2018-05-26T07:40:23Z</time>
      </trkpt>
      <trkpt lat="41.652864300" lon="1.707642600">
        <ele>537.40</ele>
        <time>2018-05-26T07:40:27Z</time>
      </trkpt>
      <trkpt lat="41.652612900" lon="1.707403100">
        <ele>538.40</ele>
        <time>2018-05-26T07:40:32Z</time>
      </trkpt>
      <trkpt lat="41.652177100" lon="1.707126000">
        <ele>539.80</ele>
        <time>2018-05-26T07:40:40Z</time>
      </trkpt>
      <trkpt lat="41.652078900" lon="1.707048700">
        <ele>540.20</ele>
        <time>2018-05-26T07:40:42Z</time>
      </trkpt>
      <trkpt lat="41.652028700" lon="1.706923400">
        <ele>540.80</ele>
        <time>2018-05-26T07:40:44Z</time>
      </trkpt>
      <trkpt lat="41.652046000" lon="1.706713300">
        <ele>542.00</ele>
        <time>2018-05-26T07:40:47Z</time>
      </trkpt>
      <trkpt lat="41.652074000" lon="1.706569600">
        <ele>542.60</ele>
        <time>2018-05-26T07:40:49Z</time>
      </trkpt>
      <trkpt lat="41.652082600" lon="1.706412400">
        <ele>543.60</ele>
        <time>2018-05-26T07:40:51Z</time>
      </trkpt>
      <trkpt lat="41.651996200" lon="1.706076000">
        <ele>544.20</ele>
        <time>2018-05-26T07:40:55Z</time>
      </trkpt>
      <trkpt lat="41.651892500" lon="1.705847700">
        <ele>544.20</ele>
        <time>2018-05-26T07:40:58Z</time>
      </trkpt>
      <trkpt lat="41.651777400" lon="1.705732600">
        <ele>544.20</ele>
        <time>2018-05-26T07:41:00Z</time>
      </trkpt>
      <trkpt lat="41.651568700" lon="1.705632700">
        <ele>543.60</ele>
        <time>2018-05-26T07:41:03Z</time>
      </trkpt>
      <trkpt lat="41.651234400" lon="1.705497900">
        <ele>544.20</ele>
        <time>2018-05-26T07:41:08Z</time>
      </trkpt>
      <trkpt lat="41.651106200" lon="1.705421300">
        <ele>544.20</ele>
        <time>2018-05-26T07:41:10Z</time>
      </trkpt>
      <trkpt lat="41.650832300" lon="1.705224100">
        <ele>543.20</ele>
        <time>2018-05-26T07:41:14Z</time>
      </trkpt>
      <trkpt lat="41.650658200" lon="1.705253200">
        <ele>542.40</ele>
        <time>2018-05-26T07:41:17Z</time>
      </trkpt>
      <trkpt lat="41.650600600" lon="1.705606000">
        <ele>542.40</ele>
        <time>2018-05-26T07:41:20Z</time>
      </trkpt>
      <trkpt lat="41.650512000" lon="1.706040500">
        <ele>543.40</ele>
        <time>2018-05-26T07:41:24Z</time>
      </trkpt>
      <trkpt lat="41.650453000" lon="1.706349500">
        <ele>544.00</ele>
        <time>2018-05-26T07:41:27Z</time>
      </trkpt>
      <trkpt lat="41.650444400" lon="1.706568400">
        <ele>544.20</ele>
        <time>2018-05-26T07:41:29Z</time>
      </trkpt>
      <trkpt lat="41.650467700" lon="1.706792200">
        <ele>544.20</ele>
        <time>2018-05-26T07:41:31Z</time>
      </trkpt>
      <trkpt lat="41.650478300" lon="1.707000700">
        <ele>544.40</ele>
        <time>2018-05-26T07:41:33Z</time>
      </trkpt>
      <trkpt lat="41.650428900" lon="1.707149800">
        <ele>544.80</ele>
        <time>2018-05-26T07:41:35Z</time>
      </trkpt>
      <trkpt lat="41.650254300" lon="1.707234100">
        <ele>545.60</ele>
        <time>2018-05-26T07:41:38Z</time>
      </trkpt>
      <trkpt lat="41.650046000" lon="1.707303700">
        <ele>546.80</ele>
        <time>2018-05-26T07:41:41Z</time>
      </trkpt>
      <trkpt lat="41.649925100" lon="1.707316900">
        <ele>548.80</ele>
        <time>2018-05-26T07:41:43Z</time>
      </trkpt>
      <trkpt lat="41.649819300" lon="1.707272700">
        <ele>550.80</ele>
        <time>2018-05-26T07:41:45Z</time>
      </trkpt>
      <trkpt lat="41.649726800" lon="1.707213500">
        <ele>552.00</ele>
        <time>2018-05-26T07:41:47Z</time>
      </trkpt>
      <trkpt lat="41.649628200" lon="1.707142900">
        <ele>553.00</ele>
        <time>2018-05-26T07:41:49Z</time>
      </trkpt>
      <trkpt lat="41.649521100" lon="1.707098600">
        <ele>554.00</ele>
        <time>2018-05-26T07:41:51Z</time>
      </trkpt>
      <trkpt lat="41.649395300" lon="1.707083000">
        <ele>554.60</ele>
        <time>2018-05-26T07:41:53Z</time>
      </trkpt>
      <trkpt lat="41.649162100" lon="1.707111600">
        <ele>554.20</ele>
        <time>2018-05-26T07:41:56Z</time>
      </trkpt>
      <trkpt lat="41.648981100" lon="1.707130400">
        <ele>552.80</ele>
        <time>2018-05-26T07:41:58Z</time>
      </trkpt>
      <trkpt lat="41.648789300" lon="1.707158300">
        <ele>551.40</ele>
        <time>2018-05-26T07:42:00Z</time>
      </trkpt>
      <trkpt lat="41.648599400" lon="1.707187200">
        <ele>550.60</ele>
        <time>2018-05-26T07:42:02Z</time>
      </trkpt>
      <trkpt lat="41.648263800" lon="1.707238900">
        <ele>552.80</ele>
        <time>2018-05-26T07:42:06Z</time>
      </trkpt>
      <trkpt lat="41.648027100" lon="1.707143300">
        <ele>553.60</ele>
        <time>2018-05-26T07:42:09Z</time>
      </trkpt>
      <trkpt lat="41.647878300" lon="1.707031500">
        <ele>553.80</ele>
        <time>2018-05-26T07:42:11Z</time>
      </trkpt>
      <trkpt lat="41.647667700" lon="1.706835800">
        <ele>555.00</ele>
        <time>2018-05-26T07:42:14Z</time>
      </trkpt>
      <trkpt lat="41.647346700" lon="1.706478500">
        <ele>556.20</ele>
        <time>2018-05-26T07:42:19Z</time>
      </trkpt>
      <trkpt lat="41.647199500" lon="1.706251800">
        <ele>557.40</ele>
        <time>2018-05-26T07:42:22Z</time>
      </trkpt>
      <trkpt lat="41.647042700" lon="1.705992600">
        <ele>558.80</ele>
        <time>2018-05-26T07:42:26Z</time>
      </trkpt>
      <trkpt lat="41.647010400" lon="1.705862000">
        <ele>560.00</ele>
        <time>2018-05-26T07:42:28Z</time>
      </trkpt>
      <trkpt lat="41.647012500" lon="1.705737900">
        <ele>561.80</ele>
        <time>2018-05-26T07:42:30Z</time>
      </trkpt>
      <trkpt lat="41.647112900" lon="1.705447100">
        <ele>561.80</ele>
        <time>2018-05-26T07:42:34Z</time>
      </trkpt>
      <trkpt lat="41.647250600" lon="1.705080400">
        <ele>560.60</ele>
        <time>2018-05-26T07:42:38Z</time>
      </trkpt>
      <trkpt lat="41.647267700" lon="1.704866300">
        <ele>559.40</ele>
        <time>2018-05-26T07:42:40Z</time>
      </trkpt>
      <trkpt lat="41.647192400" lon="1.704537000">
        <ele>557.80</ele>
        <time>2018-05-26T07:42:43Z</time>
      </trkpt>
      <trkpt lat="41.647058200" lon="1.704354600">
        <ele>556.40</ele>
        <time>2018-05-26T07:42:45Z</time>
      </trkpt>
      <trkpt lat="41.646979100" lon="1.704278700">
        <ele>555.80</ele>
        <time>2018-05-26T07:42:46Z</time>
      </trkpt>
      <trkpt lat="41.646888000" lon="1.704222100">
        <ele>555.20</ele>
        <time>2018-05-26T07:42:47Z</time>
      </trkpt>
      <trkpt lat="41.646718200" lon="1.704191800">
        <ele>555.20</ele>
        <time>2018-05-26T07:42:49Z</time>
      </trkpt>
      <trkpt lat="41.646587100" lon="1.704318300">
        <ele>555.40</ele>
        <time>2018-05-26T07:42:51Z</time>
      </trkpt>
      <trkpt lat="41.646478700" lon="1.704465000">
        <ele>556.40</ele>
        <time>2018-05-26T07:42:53Z</time>
      </trkpt>
      <trkpt lat="41.646353400" lon="1.704548000">
        <ele>557.60</ele>
        <time>2018-05-26T07:42:55Z</time>
      </trkpt>
      <trkpt lat="41.646173100" lon="1.704458800">
        <ele>558.60</ele>
        <time>2018-05-26T07:42:58Z</time>
      </trkpt>
      <trkpt lat="41.646065000" lon="1.704303100">
        <ele>559.40</ele>
        <time>2018-05-26T07:43:00Z</time>
      </trkpt>
      <trkpt lat="41.645892900" lon="1.704084800">
        <ele>559.80</ele>
        <time>2018-05-26T07:43:03Z</time>
      </trkpt>
      <trkpt lat="41.645535600" lon="1.703730800">
        <ele>560.00</ele>
        <time>2018-05-26T07:43:09Z</time>
      </trkpt>
      <trkpt lat="41.645301500" lon="1.703526500">
        <ele>560.20</ele>
        <time>2018-05-26T07:43:13Z</time>
      </trkpt>
      <trkpt lat="41.645184200" lon="1.703295300">
        <ele>560.40</ele>
        <time>2018-05-26T07:43:16Z</time>
      </trkpt>
      <trkpt lat="41.645152200" lon="1.702975900">
        <ele>559.80</ele>
        <time>2018-05-26T07:43:19Z</time>
      </trkpt>
      <trkpt lat="41.645104700" lon="1.702531000">
        <ele>559.00</ele>
        <time>2018-05-26T07:43:23Z</time>
      </trkpt>
      <trkpt lat="41.645133700" lon="1.702309500">
        <ele>558.20</ele>
        <time>2018-05-26T07:43:25Z</time>
      </trkpt>
      <trkpt lat="41.645152700" lon="1.702104300">
        <ele>557.60</ele>
        <time>2018-05-26T07:43:27Z</time>
      </trkpt>
      <trkpt lat="41.645106100" lon="1.701912800">
        <ele>556.80</ele>
        <time>2018-05-26T07:43:29Z</time>
      </trkpt>
      <trkpt lat="41.645011800" lon="1.701726200">
        <ele>556.80</ele>
        <time>2018-05-26T07:43:32Z</time>
      </trkpt>
      <trkpt lat="41.644772100" lon="1.701685900">
        <ele>558.00</ele>
        <time>2018-05-26T07:43:35Z</time>
      </trkpt>
      <trkpt lat="41.644609000" lon="1.701739600">
        <ele>559.40</ele>
        <time>2018-05-26T07:43:37Z</time>
      </trkpt>
      <trkpt lat="41.644470000" lon="1.701824000">
        <ele>560.60</ele>
        <time>2018-05-26T07:43:39Z</time>
      </trkpt>
      <trkpt lat="41.644359800" lon="1.701950100">
        <ele>561.80</ele>
        <time>2018-05-26T07:43:41Z</time>
      </trkpt>
      <trkpt lat="41.644262400" lon="1.702095100">
        <ele>563.40</ele>
        <time>2018-05-26T07:43:43Z</time>
      </trkpt>
      <trkpt lat="41.644148700" lon="1.702324900">
        <ele>564.80</ele>
        <time>2018-05-26T07:43:46Z</time>
      </trkpt>
      <trkpt lat="41.644068900" lon="1.702537900">
        <ele>566.00</ele>
        <time>2018-05-26T07:43:49Z</time>
      </trkpt>
      <trkpt lat="41.643901800" lon="1.702707800">
        <ele>568.00</ele>
        <time>2018-05-26T07:43:53Z</time>
      </trkpt>
      <trkpt lat="41.643797500" lon="1.702756000">
        <ele>569.00</ele>
        <time>2018-05-26T07:43:55Z</time>
      </trkpt>
      <trkpt lat="41.643632700" lon="1.702851700">
        <ele>569.60</ele>
        <time>2018-05-26T07:43:58Z</time>
      </trkpt>
      <trkpt lat="41.643369400" lon="1.702874400">
        <ele>570.00</ele>
        <time>2018-05-26T07:44:02Z</time>
      </trkpt>
      <trkpt lat="41.643096300" lon="1.702870900">
        <ele>570.40</ele>
        <time>2018-05-26T07:44:06Z</time>
      </trkpt>
      <trkpt lat="41.642833100" lon="1.702849000">
        <ele>571.00</ele>
        <time>2018-05-26T07:44:10Z</time>
      </trkpt>
      <trkpt lat="41.642713800" lon="1.702829500">
        <ele>571.60</ele>
        <time>2018-05-26T07:44:12Z</time>
      </trkpt>
      <trkpt lat="41.642607200" lon="1.702790500">
        <ele>572.40</ele>
        <time>2018-05-26T07:44:14Z</time>
      </trkpt>
      <trkpt lat="41.642505200" lon="1.702724800">
        <ele>573.40</ele>
        <time>2018-05-26T07:44:16Z</time>
      </trkpt>
      <trkpt lat="41.642311900" lon="1.702528700">
        <ele>574.20</ele>
        <time>2018-05-26T07:44:20Z</time>
      </trkpt>
      <trkpt lat="41.642190800" lon="1.702413700">
        <ele>573.80</ele>
        <time>2018-05-26T07:44:22Z</time>
      </trkpt>
      <trkpt lat="41.642049500" lon="1.702315800">
        <ele>573.20</ele>
        <time>2018-05-26T07:44:24Z</time>
      </trkpt>
      <trkpt lat="41.641615800" lon="1.702069500">
        <ele>573.20</ele>
        <time>2018-05-26T07:44:30Z</time>
      </trkpt>
      <trkpt lat="41.641417700" lon="1.701828800">
        <ele>574.80</ele>
        <time>2018-05-26T07:44:34Z</time>
      </trkpt>
      <trkpt lat="41.641294500" lon="1.701645000">
        <ele>576.00</ele>
        <time>2018-05-26T07:44:37Z</time>
      </trkpt>
      <trkpt lat="41.641151400" lon="1.701361900">
        <ele>576.80</ele>
        <time>2018-05-26T07:44:41Z</time>
      </trkpt>
      <trkpt lat="41.641091200" lon="1.701198900">
        <ele>577.00</ele>
        <time>2018-05-26T07:44:43Z</time>
      </trkpt>
      <trkpt lat="41.640997800" lon="1.700844400">
        <ele>577.20</ele>
        <time>2018-05-26T07:44:47Z</time>
      </trkpt>
      <trkpt lat="41.640884500" lon="1.700213600">
        <ele>576.20</ele>
        <time>2018-05-26T07:44:53Z</time>
      </trkpt>
      <trkpt lat="41.640817600" lon="1.699618500">
        <ele>574.60</ele>
        <time>2018-05-26T07:44:58Z</time>
      </trkpt>
      <trkpt lat="41.640831400" lon="1.699494700">
        <ele>574.40</ele>
        <time>2018-05-26T07:44:59Z</time>
      </trkpt>
      <trkpt lat="41.640929700" lon="1.699119800">
        <ele>573.60</ele>
        <time>2018-05-26T07:45:02Z</time>
      </trkpt>
      <trkpt lat="41.640971800" lon="1.698994500">
        <ele>573.20</ele>
        <time>2018-05-26T07:45:03Z</time>
      </trkpt>
      <trkpt lat="41.641070300" lon="1.698745500">
        <ele>572.00</ele>
        <time>2018-05-26T07:45:05Z</time>
      </trkpt>
      <trkpt lat="41.641135800" lon="1.698475400">
        <ele>570.40</ele>
        <time>2018-05-26T07:45:07Z</time>
      </trkpt>
      <trkpt lat="41.641097000" lon="1.698172800">
        <ele>568.60</ele>
        <time>2018-05-26T07:45:09Z</time>
      </trkpt>
      <trkpt lat="41.641014500" lon="1.697902100">
        <ele>567.40</ele>
        <time>2018-05-26T07:45:11Z</time>
      </trkpt>
      <trkpt lat="41.640976700" lon="1.697775400">
        <ele>567.60</ele>
        <time>2018-05-26T07:45:12Z</time>
      </trkpt>
      <trkpt lat="41.640950700" lon="1.697648500">
        <ele>568.20</ele>
        <time>2018-05-26T07:45:13Z</time>
      </trkpt>
      <trkpt lat="41.640938600" lon="1.697521800">
        <ele>568.60</ele>
        <time>2018-05-26T07:45:14Z</time>
      </trkpt>
      <trkpt lat="41.640931500" lon="1.697398400">
        <ele>569.00</ele>
        <time>2018-05-26T07:45:15Z</time>
      </trkpt>
      <trkpt lat="41.640890900" lon="1.697173800">
        <ele>569.80</ele>
        <time>2018-05-26T07:45:17Z</time>
      </trkpt>
      <trkpt lat="41.640783900" lon="1.697002600">
        <ele>570.60</ele>
        <time>2018-05-26T07:45:19Z</time>
      </trkpt>
      <trkpt lat="41.640596600" lon="1.696823100">
        <ele>571.80</ele>
        <time>2018-05-26T07:45:22Z</time>
      </trkpt>
      <trkpt lat="41.640471900" lon="1.696755100">
        <ele>573.20</ele>
        <time>2018-05-26T07:45:24Z</time>
      </trkpt>
      <trkpt lat="41.640357500" lon="1.696762700">
        <ele>574.20</ele>
        <time>2018-05-26T07:45:26Z</time>
      </trkpt>
      <trkpt lat="41.640219700" lon="1.696892700">
        <ele>575.80</ele>
        <time>2018-05-26T07:45:29Z</time>
      </trkpt>
      <trkpt lat="41.640067300" lon="1.696997700">
        <ele>576.60</ele>
        <time>2018-05-26T07:45:32Z</time>
      </trkpt>
      <trkpt lat="41.639863700" lon="1.696872500">
        <ele>577.60</ele>
        <time>2018-05-26T07:45:36Z</time>
      </trkpt>
      <trkpt lat="41.639794800" lon="1.696742500">
        <ele>578.00</ele>
        <time>2018-05-26T07:45:38Z</time>
      </trkpt>
      <trkpt lat="41.639733200" lon="1.696598800">
        <ele>578.40</ele>
        <time>2018-05-26T07:45:40Z</time>
      </trkpt>
      <trkpt lat="41.639622600" lon="1.696270700">
        <ele>578.80</ele>
        <time>2018-05-26T07:45:44Z</time>
      </trkpt>
      <trkpt lat="41.639619200" lon="1.695877500">
        <ele>578.80</ele>
        <time>2018-05-26T07:45:48Z</time>
      </trkpt>
      <trkpt lat="41.639621000" lon="1.695679500">
        <ele>579.00</ele>
        <time>2018-05-26T07:45:50Z</time>
      </trkpt>
      <trkpt lat="41.639530500" lon="1.695311300">
        <ele>579.20</ele>
        <time>2018-05-26T07:45:54Z</time>
      </trkpt>
      <trkpt lat="41.639322400" lon="1.695066800">
        <ele>580.40</ele>
        <time>2018-05-26T07:45:58Z</time>
      </trkpt>
      <trkpt lat="41.639146800" lon="1.694944400">
        <ele>581.00</ele>
        <time>2018-05-26T07:46:01Z</time>
      </trkpt>
      <trkpt lat="41.639028300" lon="1.694917500">
        <ele>581.60</ele>
        <time>2018-05-26T07:46:03Z</time>
      </trkpt>
      <trkpt lat="41.638898700" lon="1.695004500">
        <ele>582.40</ele>
        <time>2018-05-26T07:46:05Z</time>
      </trkpt>
      <trkpt lat="41.638711100" lon="1.695215200">
        <ele>583.80</ele>
        <time>2018-05-26T07:46:09Z</time>
      </trkpt>
      <trkpt lat="41.638615600" lon="1.695498000">
        <ele>585.00</ele>
        <time>2018-05-26T07:46:13Z</time>
      </trkpt>
      <trkpt lat="41.638483400" lon="1.695627300">
        <ele>586.20</ele>
        <time>2018-05-26T07:46:16Z</time>
      </trkpt>
      <trkpt lat="41.638334100" lon="1.695586300">
        <ele>587.40</ele>
        <time>2018-05-26T07:46:19Z</time>
      </trkpt>
      <trkpt lat="41.638240700" lon="1.695539100">
        <ele>588.20</ele>
        <time>2018-05-26T07:46:21Z</time>
      </trkpt>
      <trkpt lat="41.637997200" lon="1.695422000">
        <ele>590.00</ele>
        <time>2018-05-26T07:46:26Z</time>
      </trkpt>
      <trkpt lat="41.637866800" lon="1.695328300">
        <ele>591.00</ele>
        <time>2018-05-26T07:46:29Z</time>
      </trkpt>
      <trkpt lat="41.637739900" lon="1.695220900">
        <ele>592.40</ele>
        <time>2018-05-26T07:46:32Z</time>
      </trkpt>
      <trkpt lat="41.637606200" lon="1.695120300">
        <ele>593.40</ele>
        <time>2018-05-26T07:46:35Z</time>
      </trkpt>
      <trkpt lat="41.637427300" lon="1.694980900">
        <ele>594.60</ele>
        <time>2018-05-26T07:46:39Z</time>
      </trkpt>
      <trkpt lat="41.637283500" lon="1.694884300">
        <ele>595.60</ele>
        <time>2018-05-26T07:46:42Z</time>
      </trkpt>
      <trkpt lat="41.637180100" lon="1.694844300">
        <ele>596.00</ele>
        <time>2018-05-26T07:46:44Z</time>
      </trkpt>
      <trkpt lat="41.637065900" lon="1.694854600">
        <ele>596.20</ele>
        <time>2018-05-26T07:46:46Z</time>
      </trkpt>
      <trkpt lat="41.636897300" lon="1.694960000">
        <ele>596.40</ele>
        <time>2018-05-26T07:46:49Z</time>
      </trkpt>
      <trkpt lat="41.636471600" lon="1.695328000">
        <ele>595.00</ele>
        <time>2018-05-26T07:46:56Z</time>
      </trkpt>
      <trkpt lat="41.636288100" lon="1.695655900">
        <ele>593.60</ele>
        <time>2018-05-26T07:47:00Z</time>
      </trkpt>
      <trkpt lat="41.636095800" lon="1.695742900">
        <ele>595.00</ele>
        <time>2018-05-26T07:47:03Z</time>
      </trkpt>
      <trkpt lat="41.635928400" lon="1.695729000">
        <ele>596.80</ele>
        <time>2018-05-26T07:47:06Z</time>
      </trkpt>
      <trkpt lat="41.635823900" lon="1.695721800">
        <ele>597.80</ele>
        <time>2018-05-26T07:47:08Z</time>
      </trkpt>
      <trkpt lat="41.635620900" lon="1.695735000">
        <ele>599.00</ele>
        <time>2018-05-26T07:47:12Z</time>
      </trkpt>
      <trkpt lat="41.635530100" lon="1.695786700">
        <ele>599.60</ele>
        <time>2018-05-26T07:47:14Z</time>
      </trkpt>
      <trkpt lat="41.635441500" lon="1.695859900">
        <ele>600.20</ele>
        <time>2018-05-26T07:47:16Z</time>
      </trkpt>
      <trkpt lat="41.635313100" lon="1.695969100">
        <ele>601.60</ele>
        <time>2018-05-26T07:47:19Z</time>
      </trkpt>
      <trkpt lat="41.635183600" lon="1.696059800">
        <ele>602.60</ele>
        <time>2018-05-26T07:47:22Z</time>
      </trkpt>
      <trkpt lat="41.635046500" lon="1.696134900">
        <ele>603.80</ele>
        <time>2018-05-26T07:47:25Z</time>
      </trkpt>
      <trkpt lat="41.634949400" lon="1.696154400">
        <ele>604.40</ele>
        <time>2018-05-26T07:47:27Z</time>
      </trkpt>
      <trkpt lat="41.634855600" lon="1.696169300">
        <ele>605.20</ele>
        <time>2018-05-26T07:47:29Z</time>
      </trkpt>
      <trkpt lat="41.634763000" lon="1.696170500">
        <ele>606.20</ele>
        <time>2018-05-26T07:47:31Z</time>
      </trkpt>
      <trkpt lat="41.634540200" lon="1.696125600">
        <ele>607.60</ele>
        <time>2018-05-26T07:47:36Z</time>
      </trkpt>
      <trkpt lat="41.634454200" lon="1.696078300">
        <ele>608.60</ele>
        <time>2018-05-26T07:47:38Z</time>
      </trkpt>
      <trkpt lat="41.634168600" lon="1.695823300">
        <ele>609.00</ele>
        <time>2018-05-26T07:47:44Z</time>
      </trkpt>
      <trkpt lat="41.634148500" lon="1.695629800">
        <ele>608.80</ele>
        <time>2018-05-26T07:47:46Z</time>
      </trkpt>
      <trkpt lat="41.634157400" lon="1.695431700">
        <ele>608.60</ele>
        <time>2018-05-26T07:47:48Z</time>
      </trkpt>
      <trkpt lat="41.634161700" lon="1.695222900">
        <ele>608.00</ele>
        <time>2018-05-26T07:47:50Z</time>
      </trkpt>
      <trkpt lat="41.634217700" lon="1.694587400">
        <ele>607.00</ele>
        <time>2018-05-26T07:47:56Z</time>
      </trkpt>
      <trkpt lat="41.634328800" lon="1.694263200">
        <ele>605.20</ele>
        <time>2018-05-26T07:47:59Z</time>
      </trkpt>
      <trkpt lat="41.634413100" lon="1.694184000">
        <ele>605.00</ele>
        <time>2018-05-26T07:48:00Z</time>
      </trkpt>
      <trkpt lat="41.634474300" lon="1.694090300">
        <ele>605.00</ele>
        <time>2018-05-26T07:48:01Z</time>
      </trkpt>
      <trkpt lat="41.634539200" lon="1.693909000">
        <ele>605.60</ele>
        <time>2018-05-26T07:48:03Z</time>
      </trkpt>
      <trkpt lat="41.634502000" lon="1.693740400">
        <ele>606.60</ele>
        <time>2018-05-26T07:48:05Z</time>
      </trkpt>
      <trkpt lat="41.634404900" lon="1.693611600">
        <ele>606.80</ele>
        <time>2018-05-26T07:48:07Z</time>
      </trkpt>
      <trkpt lat="41.634291200" lon="1.693503700">
        <ele>607.00</ele>
        <time>2018-05-26T07:48:09Z</time>
      </trkpt>
      <trkpt lat="41.634119100" lon="1.693340700">
        <ele>607.60</ele>
        <time>2018-05-26T07:48:12Z</time>
      </trkpt>
      <trkpt lat="41.633815200" lon="1.693119600">
        <ele>608.60</ele>
        <time>2018-05-26T07:48:17Z</time>
      </trkpt>
      <trkpt lat="41.633676600" lon="1.693057800">
        <ele>608.80</ele>
        <time>2018-05-26T07:48:19Z</time>
      </trkpt>
      <trkpt lat="41.633537500" lon="1.692829500">
        <ele>609.00</ele>
        <time>2018-05-26T07:48:22Z</time>
      </trkpt>
      <trkpt lat="41.633299000" lon="1.692261100">
        <ele>609.20</ele>
        <time>2018-05-26T07:48:28Z</time>
      </trkpt>
      <trkpt lat="41.633169100" lon="1.691722200">
        <ele>609.20</ele>
        <time>2018-05-26T07:48:33Z</time>
      </trkpt>
      <trkpt lat="41.633076500" lon="1.691303500">
        <ele>608.80</ele>
        <time>2018-05-26T07:48:37Z</time>
      </trkpt>
      <trkpt lat="41.633061600" lon="1.691072200">
        <ele>608.40</ele>
        <time>2018-05-26T07:48:39Z</time>
      </trkpt>
      <trkpt lat="41.633110800" lon="1.690844700">
        <ele>607.80</ele>
        <time>2018-05-26T07:48:41Z</time>
      </trkpt>
      <trkpt lat="41.633149800" lon="1.690732500">
        <ele>607.60</ele>
        <time>2018-05-26T07:48:42Z</time>
      </trkpt>
      <trkpt lat="41.633187300" lon="1.690621200">
        <ele>607.40</ele>
        <time>2018-05-26T07:48:43Z</time>
      </trkpt>
      <trkpt lat="41.633268700" lon="1.690407400">
        <ele>606.60</ele>
        <time>2018-05-26T07:48:45Z</time>
      </trkpt>
      <trkpt lat="41.633321800" lon="1.690183600">
        <ele>606.00</ele>
        <time>2018-05-26T07:48:47Z</time>
      </trkpt>
      <trkpt lat="41.633395500" lon="1.689980000">
        <ele>605.60</ele>
        <time>2018-05-26T07:48:49Z</time>
      </trkpt>
      <trkpt lat="41.633467500" lon="1.689812400">
        <ele>605.80</ele>
        <time>2018-05-26T07:48:51Z</time>
      </trkpt>
      <trkpt lat="41.633450000" lon="1.689638400">
        <ele>606.00</ele>
        <time>2018-05-26T07:48:53Z</time>
      </trkpt>
      <trkpt lat="41.633342600" lon="1.689509000">
        <ele>606.80</ele>
        <time>2018-05-26T07:48:55Z</time>
      </trkpt>
      <trkpt lat="41.633212700" lon="1.689522900">
        <ele>606.80</ele>
        <time>2018-05-26T07:48:57Z</time>
      </trkpt>
      <trkpt lat="41.633136200" lon="1.689689500">
        <ele>606.20</ele>
        <time>2018-05-26T07:48:59Z</time>
      </trkpt>
      <trkpt lat="41.633187600" lon="1.689941600">
        <ele>606.00</ele>
        <time>2018-05-26T07:49:02Z</time>
      </trkpt>
      <trkpt lat="41.633356000" lon="1.689997500">
        <ele>605.60</ele>
        <time>2018-05-26T07:49:05Z</time>
      </trkpt>
      <trkpt lat="41.633459200" lon="1.689860800">
        <ele>606.20</ele>
        <time>2018-05-26T07:49:08Z</time>
      </trkpt>
      <trkpt lat="41.633470600" lon="1.689688300">
        <ele>607.20</ele>
        <time>2018-05-26T07:49:12Z</time>
      </trkpt>
      <trkpt lat="41.633404100" lon="1.689561700">
        <ele>607.20</ele>
        <time>2018-05-26T07:49:16Z</time>
      </trkpt>
      <trkpt lat="41.633304500" lon="1.689509300">
        <ele>607.00</ele>
        <time>2018-05-26T07:49:20Z</time>
      </trkpt>
      <trkpt lat="41.633211600" lon="1.689544200">
        <ele>606.60</ele>
        <time>2018-05-26T07:49:23Z</time>
      </trkpt>
      <trkpt lat="41.633140900" lon="1.689859900">
        <ele>606.00</ele>
        <time>2018-05-26T07:49:30Z</time>
      </trkpt>
      <trkpt lat="41.633192400" lon="1.689987200">
        <ele>606.00</ele>
        <time>2018-05-26T07:49:33Z</time>
      </trkpt>
      <trkpt lat="41.633264900" lon="1.690066800">
        <ele>606.20</ele>
        <time>2018-05-26T07:49:36Z</time>
      </trkpt>
      <trkpt lat="41.633361600" lon="1.690077400">
        <ele>605.80</ele>
        <time>2018-05-26T07:51:33Z</time>
      </trkpt>
      <trkpt lat="41.633454300" lon="1.689869200">
        <ele>606.40</ele>
        <time>2018-05-26T07:51:41Z</time>
      </trkpt>
      <trkpt lat="41.633447500" lon="1.689617100">
        <ele>606.80</ele>
        <time>2018-05-26T07:51:46Z</time>
      </trkpt>
      <trkpt lat="41.633316000" lon="1.689487900">
        <ele>606.80</ele>
        <time>2018-05-26T07:51:50Z</time>
      </trkpt>
      <trkpt lat="41.633202600" lon="1.689448400">
        <ele>606.20</ele>
        <time>2018-05-26T07:54:28Z</time>
      </trkpt>
      <trkpt lat="41.633055100" lon="1.689419700">
        <ele>606.00</ele>
        <time>2018-05-26T07:54:34Z</time>
      </trkpt>
      <trkpt lat="41.632874200" lon="1.689358300">
        <ele>606.20</ele>
        <time>2018-05-26T07:54:38Z</time>
      </trkpt>
      <trkpt lat="41.632765200" lon="1.689375400">
        <ele>606.20</ele>
        <time>2018-05-26T07:54:40Z</time>
      </trkpt>
      <trkpt lat="41.632616600" lon="1.689473400">
        <ele>606.80</ele>
        <time>2018-05-26T07:54:43Z</time>
      </trkpt>
      <trkpt lat="41.632457200" lon="1.689595600">
        <ele>607.40</ele>
        <time>2018-05-26T07:54:46Z</time>
      </trkpt>
      <trkpt lat="41.632305000" lon="1.689719100">
        <ele>608.00</ele>
        <time>2018-05-26T07:54:49Z</time>
      </trkpt>
      <trkpt lat="41.632195300" lon="1.689788700">
        <ele>608.60</ele>
        <time>2018-05-26T07:54:51Z</time>
      </trkpt>
      <trkpt lat="41.632072500" lon="1.689836600">
        <ele>609.00</ele>
        <time>2018-05-26T07:54:53Z</time>
      </trkpt>
      <trkpt lat="41.631942600" lon="1.689846100">
        <ele>609.60</ele>
        <time>2018-05-26T07:54:55Z</time>
      </trkpt>
      <trkpt lat="41.631756700" lon="1.689802700">
        <ele>609.80</ele>
        <time>2018-05-26T07:54:58Z</time>
      </trkpt>
      <trkpt lat="41.631563000" lon="1.689745400">
        <ele>610.40</ele>
        <time>2018-05-26T07:55:01Z</time>
      </trkpt>
      <trkpt lat="41.631370900" lon="1.689719400">
        <ele>611.00</ele>
        <time>2018-05-26T07:55:04Z</time>
      </trkpt>
      <trkpt lat="41.631174800" lon="1.689729300">
        <ele>611.40</ele>
        <time>2018-05-26T07:55:07Z</time>
      </trkpt>
      <trkpt lat="41.630920800" lon="1.689761000">
        <ele>612.00</ele>
        <time>2018-05-26T07:55:11Z</time>
      </trkpt>
      <trkpt lat="41.630751800" lon="1.689787900">
        <ele>612.40</ele>
        <time>2018-05-26T07:55:14Z</time>
      </trkpt>
      <trkpt lat="41.630526500" lon="1.689815100">
        <ele>613.40</ele>
        <time>2018-05-26T07:55:18Z</time>
      </trkpt>
      <trkpt lat="41.630011400" lon="1.689834800">
        <ele>614.60</ele>
        <time>2018-05-26T07:55:27Z</time>
      </trkpt>
      <trkpt lat="41.629559000" lon="1.689709500">
        <ele>614.60</ele>
        <time>2018-05-26T07:55:34Z</time>
      </trkpt>
      <trkpt lat="41.629225900" lon="1.689457500">
        <ele>613.80</ele>
        <time>2018-05-26T07:55:39Z</time>
      </trkpt>
      <trkpt lat="41.629097300" lon="1.689314300">
        <ele>613.40</ele>
        <time>2018-05-26T07:55:41Z</time>
      </trkpt>
      <trkpt lat="41.628896900" lon="1.689100300">
        <ele>612.60</ele>
        <time>2018-05-26T07:55:44Z</time>
      </trkpt>
      <trkpt lat="41.628761400" lon="1.688951000">
        <ele>612.20</ele>
        <time>2018-05-26T07:55:46Z</time>
      </trkpt>
      <trkpt lat="41.628553100" lon="1.688718500">
        <ele>611.80</ele>
        <time>2018-05-26T07:55:49Z</time>
      </trkpt>
      <trkpt lat="41.628425800" lon="1.688539400">
        <ele>611.80</ele>
        <time>2018-05-26T07:55:51Z</time>
      </trkpt>
      <trkpt lat="41.628378100" lon="1.688434200">
        <ele>611.60</ele>
        <time>2018-05-26T07:55:52Z</time>
      </trkpt>
      <trkpt lat="41.628292400" lon="1.688227000">
        <ele>611.20</ele>
        <time>2018-05-26T07:55:54Z</time>
      </trkpt>
      <trkpt lat="41.628194500" lon="1.688025300">
        <ele>610.80</ele>
        <time>2018-05-26T07:55:56Z</time>
      </trkpt>
      <trkpt lat="41.628125800" lon="1.687946700">
        <ele>610.60</ele>
        <time>2018-05-26T07:55:57Z</time>
      </trkpt>
      <trkpt lat="41.627948900" lon="1.687877300">
        <ele>610.20</ele>
        <time>2018-05-26T07:55:59Z</time>
      </trkpt>
      <trkpt lat="41.627852700" lon="1.687868000">
        <ele>609.80</ele>
        <time>2018-05-26T07:56:00Z</time>
      </trkpt>
      <trkpt lat="41.627754700" lon="1.687852200">
        <ele>609.60</ele>
        <time>2018-05-26T07:56:01Z</time>
      </trkpt>
      <trkpt lat="41.627561000" lon="1.687768900">
        <ele>608.80</ele>
        <time>2018-05-26T07:56:03Z</time>
      </trkpt>
      <trkpt lat="41.627389300" lon="1.687614700">
        <ele>608.00</ele>
        <time>2018-05-26T07:56:05Z</time>
      </trkpt>
      <trkpt lat="41.627319500" lon="1.687517200">
        <ele>608.00</ele>
        <time>2018-05-26T07:56:06Z</time>
      </trkpt>
      <trkpt lat="41.627125900" lon="1.687226200">
        <ele>609.00</ele>
        <time>2018-05-26T07:56:09Z</time>
      </trkpt>
      <trkpt lat="41.626931700" lon="1.686947800">
        <ele>610.20</ele>
        <time>2018-05-26T07:56:12Z</time>
      </trkpt>
      <trkpt lat="41.626758000" lon="1.686672600">
        <ele>611.00</ele>
        <time>2018-05-26T07:56:15Z</time>
      </trkpt>
      <trkpt lat="41.626686900" lon="1.686092600">
        <ele>611.20</ele>
        <time>2018-05-26T07:56:20Z</time>
      </trkpt>
      <trkpt lat="41.626650900" lon="1.685733800">
        <ele>610.80</ele>
        <time>2018-05-26T07:56:23Z</time>
      </trkpt>
      <trkpt lat="41.626613200" lon="1.685613700">
        <ele>610.80</ele>
        <time>2018-05-26T07:56:24Z</time>
      </trkpt>
      <trkpt lat="41.626532700" lon="1.685375000">
        <ele>610.20</ele>
        <time>2018-05-26T07:56:26Z</time>
      </trkpt>
      <trkpt lat="41.626312500" lon="1.684761900">
        <ele>610.40</ele>
        <time>2018-05-26T07:56:31Z</time>
      </trkpt>
      <trkpt lat="41.626118600" lon="1.684260600">
        <ele>609.20</ele>
        <time>2018-05-26T07:56:35Z</time>
      </trkpt>
      <trkpt lat="41.626069300" lon="1.684136900">
        <ele>609.00</ele>
        <time>2018-05-26T07:56:36Z</time>
      </trkpt>
      <trkpt lat="41.625958000" lon="1.683906800">
        <ele>608.60</ele>
        <time>2018-05-26T07:56:38Z</time>
      </trkpt>
      <trkpt lat="41.625886900" lon="1.683805400">
        <ele>608.40</ele>
        <time>2018-05-26T07:56:39Z</time>
      </trkpt>
      <trkpt lat="41.625736800" lon="1.683628000">
        <ele>608.00</ele>
        <time>2018-05-26T07:56:41Z</time>
      </trkpt>
      <trkpt lat="41.625676700" lon="1.683526000">
        <ele>607.40</ele>
        <time>2018-05-26T07:56:42Z</time>
      </trkpt>
      <trkpt lat="41.625634200" lon="1.683405300">
        <ele>606.80</ele>
        <time>2018-05-26T07:56:43Z</time>
      </trkpt>
      <trkpt lat="41.625618600" lon="1.683275800">
        <ele>606.00</ele>
        <time>2018-05-26T07:56:44Z</time>
      </trkpt>
      <trkpt lat="41.625627700" lon="1.683146300">
        <ele>605.20</ele>
        <time>2018-05-26T07:56:45Z</time>
      </trkpt>
      <trkpt lat="41.625644200" lon="1.683019700">
        <ele>604.40</ele>
        <time>2018-05-26T07:56:46Z</time>
      </trkpt>
      <trkpt lat="41.625661500" lon="1.682892000">
        <ele>603.60</ele>
        <time>2018-05-26T07:56:47Z</time>
      </trkpt>
      <trkpt lat="41.625678400" lon="1.682767000">
        <ele>603.00</ele>
        <time>2018-05-26T07:56:48Z</time>
      </trkpt>
      <trkpt lat="41.625642300" lon="1.682450000">
        <ele>602.40</ele>
        <time>2018-05-26T07:56:51Z</time>
      </trkpt>
      <trkpt lat="41.625508000" lon="1.682301900">
        <ele>601.60</ele>
        <time>2018-05-26T07:56:53Z</time>
      </trkpt>
      <trkpt lat="41.625433400" lon="1.682224700">
        <ele>601.20</ele>
        <time>2018-05-26T07:56:54Z</time>
      </trkpt>
      <trkpt lat="41.625365600" lon="1.682128900">
        <ele>599.20</ele>
        <time>2018-05-26T07:56:55Z</time>
      </trkpt>
      <trkpt lat="41.625322100" lon="1.682014200">
        <ele>597.60</ele>
        <time>2018-05-26T07:56:56Z</time>
      </trkpt>
      <trkpt lat="41.625314700" lon="1.681883200">
        <ele>596.40</ele>
        <time>2018-05-26T07:56:57Z</time>
      </trkpt>
      <trkpt lat="41.625352500" lon="1.681597500">
        <ele>595.00</ele>
        <time>2018-05-26T07:56:59Z</time>
      </trkpt>
      <trkpt lat="41.625401100" lon="1.681301700">
        <ele>594.00</ele>
        <time>2018-05-26T07:57:01Z</time>
      </trkpt>
      <trkpt lat="41.625459400" lon="1.680836500">
        <ele>592.60</ele>
        <time>2018-05-26T07:57:04Z</time>
      </trkpt>
      <trkpt lat="41.625493100" lon="1.680521600">
        <ele>590.80</ele>
        <time>2018-05-26T07:57:06Z</time>
      </trkpt>
      <trkpt lat="41.625528700" lon="1.680211200">
        <ele>588.80</ele>
        <time>2018-05-26T07:57:08Z</time>
      </trkpt>
      <trkpt lat="41.625582200" lon="1.679910200">
        <ele>587.60</ele>
        <time>2018-05-26T07:57:10Z</time>
      </trkpt>
      <trkpt lat="41.625697400" lon="1.679639900">
        <ele>588.00</ele>
        <time>2018-05-26T07:57:12Z</time>
      </trkpt>
      <trkpt lat="41.625878300" lon="1.679418900">
        <ele>587.40</ele>
        <time>2018-05-26T07:57:14Z</time>
      </trkpt>
      <trkpt lat="41.625968500" lon="1.679313500">
        <ele>586.60</ele>
        <time>2018-05-26T07:57:15Z</time>
      </trkpt>
      <trkpt lat="41.626146900" lon="1.679102800">
        <ele>585.80</ele>
        <time>2018-05-26T07:57:17Z</time>
      </trkpt>
      <trkpt lat="41.626320300" lon="1.678895000">
        <ele>584.80</ele>
        <time>2018-05-26T07:57:19Z</time>
      </trkpt>
      <trkpt lat="41.626484300" lon="1.678678200">
        <ele>584.40</ele>
        <time>2018-05-26T07:57:21Z</time>
      </trkpt>
      <trkpt lat="41.626626200" lon="1.678435000">
        <ele>584.80</ele>
        <time>2018-05-26T07:57:23Z</time>
      </trkpt>
      <trkpt lat="41.626747900" lon="1.678170900">
        <ele>583.40</ele>
        <time>2018-05-26T07:57:25Z</time>
      </trkpt>
      <trkpt lat="41.626845400" lon="1.677904600">
        <ele>582.20</ele>
        <time>2018-05-26T07:57:27Z</time>
      </trkpt>
      <trkpt lat="41.626868900" lon="1.677762300">
        <ele>582.20</ele>
        <time>2018-05-26T07:57:28Z</time>
      </trkpt>
      <trkpt lat="41.626830500" lon="1.677315700">
        <ele>580.80</ele>
        <time>2018-05-26T07:57:31Z</time>
      </trkpt>
      <trkpt lat="41.626795400" lon="1.677013300">
        <ele>579.80</ele>
        <time>2018-05-26T07:57:33Z</time>
      </trkpt>
      <trkpt lat="41.626796100" lon="1.676859400">
        <ele>579.20</ele>
        <time>2018-05-26T07:57:34Z</time>
      </trkpt>
      <trkpt lat="41.626813500" lon="1.676706600">
        <ele>578.60</ele>
        <time>2018-05-26T07:57:35Z</time>
      </trkpt>
      <trkpt lat="41.626875900" lon="1.676411600">
        <ele>578.20</ele>
        <time>2018-05-26T07:57:37Z</time>
      </trkpt>
      <trkpt lat="41.626938700" lon="1.676124400">
        <ele>577.60</ele>
        <time>2018-05-26T07:57:39Z</time>
      </trkpt>
      <trkpt lat="41.626964500" lon="1.675992100">
        <ele>576.60</ele>
        <time>2018-05-26T07:57:40Z</time>
      </trkpt>
      <trkpt lat="41.626978100" lon="1.675865100">
        <ele>576.00</ele>
        <time>2018-05-26T07:57:41Z</time>
      </trkpt>
      <trkpt lat="41.626932800" lon="1.675628600">
        <ele>576.00</ele>
        <time>2018-05-26T07:57:43Z</time>
      </trkpt>
      <trkpt lat="41.626868900" lon="1.675530500">
        <ele>575.60</ele>
        <time>2018-05-26T07:57:44Z</time>
      </trkpt>
      <trkpt lat="41.626725000" lon="1.675344000">
        <ele>574.00</ele>
        <time>2018-05-26T07:57:46Z</time>
      </trkpt>
      <trkpt lat="41.626663300" lon="1.675099300">
        <ele>572.60</ele>
        <time>2018-05-26T07:57:48Z</time>
      </trkpt>
      <trkpt lat="41.626711600" lon="1.674841300">
        <ele>571.60</ele>
        <time>2018-05-26T07:57:50Z</time>
      </trkpt>
      <trkpt lat="41.626762200" lon="1.674722000">
        <ele>571.20</ele>
        <time>2018-05-26T07:57:51Z</time>
      </trkpt>
      <trkpt lat="41.626888100" lon="1.674501500">
        <ele>570.00</ele>
        <time>2018-05-26T07:57:53Z</time>
      </trkpt>
      <trkpt lat="41.626966000" lon="1.674412700">
        <ele>569.60</ele>
        <time>2018-05-26T07:57:54Z</time>
      </trkpt>
      <trkpt lat="41.627209100" lon="1.674159300">
        <ele>569.20</ele>
        <time>2018-05-26T07:57:57Z</time>
      </trkpt>
      <trkpt lat="41.627294300" lon="1.673911200">
        <ele>568.80</ele>
        <time>2018-05-26T07:57:59Z</time>
      </trkpt>
      <trkpt lat="41.627324800" lon="1.673781700">
        <ele>568.40</ele>
        <time>2018-05-26T07:58:00Z</time>
      </trkpt>
      <trkpt lat="41.627344100" lon="1.673649500">
        <ele>567.60</ele>
        <time>2018-05-26T07:58:01Z</time>
      </trkpt>
      <trkpt lat="41.627303000" lon="1.673386400">
        <ele>566.80</ele>
        <time>2018-05-26T07:58:03Z</time>
      </trkpt>
      <trkpt lat="41.627247400" lon="1.673266600">
        <ele>566.40</ele>
        <time>2018-05-26T07:58:04Z</time>
      </trkpt>
      <trkpt lat="41.627182900" lon="1.673146700">
        <ele>566.00</ele>
        <time>2018-05-26T07:58:05Z</time>
      </trkpt>
      <trkpt lat="41.627127500" lon="1.673015900">
        <ele>565.20</ele>
        <time>2018-05-26T07:58:06Z</time>
      </trkpt>
      <trkpt lat="41.627092500" lon="1.672871800">
        <ele>563.40</ele>
        <time>2018-05-26T07:58:07Z</time>
      </trkpt>
      <trkpt lat="41.627083300" lon="1.672721100">
        <ele>562.00</ele>
        <time>2018-05-26T07:58:08Z</time>
      </trkpt>
      <trkpt lat="41.627098400" lon="1.672418500">
        <ele>560.80</ele>
        <time>2018-05-26T07:58:10Z</time>
      </trkpt>
      <trkpt lat="41.627098400" lon="1.672264100">
        <ele>560.60</ele>
        <time>2018-05-26T07:58:11Z</time>
      </trkpt>
      <trkpt lat="41.627082100" lon="1.672111100">
        <ele>560.20</ele>
        <time>2018-05-26T07:58:12Z</time>
      </trkpt>
      <trkpt lat="41.627050500" lon="1.671959400">
        <ele>559.60</ele>
        <time>2018-05-26T07:58:13Z</time>
      </trkpt>
      <trkpt lat="41.626956000" lon="1.671667700">
        <ele>558.40</ele>
        <time>2018-05-26T07:58:15Z</time>
      </trkpt>
      <trkpt lat="41.626864000" lon="1.671369900">
        <ele>557.60</ele>
        <time>2018-05-26T07:58:17Z</time>
      </trkpt>
      <trkpt lat="41.626838700" lon="1.671212600">
        <ele>557.00</ele>
        <time>2018-05-26T07:58:18Z</time>
      </trkpt>
      <trkpt lat="41.626830600" lon="1.671054500">
        <ele>556.60</ele>
        <time>2018-05-26T07:58:19Z</time>
      </trkpt>
      <trkpt lat="41.626837600" lon="1.670748600">
        <ele>556.00</ele>
        <time>2018-05-26T07:58:21Z</time>
      </trkpt>
      <trkpt lat="41.626842000" lon="1.670454100">
        <ele>556.20</ele>
        <time>2018-05-26T07:58:23Z</time>
      </trkpt>
      <trkpt lat="41.626837700" lon="1.670308300">
        <ele>556.60</ele>
        <time>2018-05-26T07:58:24Z</time>
      </trkpt>
      <trkpt lat="41.626822900" lon="1.670163600">
        <ele>557.00</ele>
        <time>2018-05-26T07:58:25Z</time>
      </trkpt>
      <trkpt lat="41.626768600" lon="1.669881500">
        <ele>557.80</ele>
        <time>2018-05-26T07:58:27Z</time>
      </trkpt>
      <trkpt lat="41.626732900" lon="1.669746100">
        <ele>558.00</ele>
        <time>2018-05-26T07:58:28Z</time>
      </trkpt>
      <trkpt lat="41.626696200" lon="1.669612700">
        <ele>558.20</ele>
        <time>2018-05-26T07:58:29Z</time>
      </trkpt>
      <trkpt lat="41.626607300" lon="1.669192200">
        <ele>557.00</ele>
        <time>2018-05-26T07:58:32Z</time>
      </trkpt>
      <trkpt lat="41.626548400" lon="1.668900400">
        <ele>556.00</ele>
        <time>2018-05-26T07:58:34Z</time>
      </trkpt>
      <trkpt lat="41.626494200" lon="1.668602800">
        <ele>554.80</ele>
        <time>2018-05-26T07:58:36Z</time>
      </trkpt>
      <trkpt lat="41.626439800" lon="1.668301300">
        <ele>553.60</ele>
        <time>2018-05-26T07:58:38Z</time>
      </trkpt>
      <trkpt lat="41.626388000" lon="1.668005900">
        <ele>552.60</ele>
        <time>2018-05-26T07:58:40Z</time>
      </trkpt>
      <trkpt lat="41.626375900" lon="1.667853500">
        <ele>552.00</ele>
        <time>2018-05-26T07:58:41Z</time>
      </trkpt>
      <trkpt lat="41.626384800" lon="1.667700900">
        <ele>551.20</ele>
        <time>2018-05-26T07:58:42Z</time>
      </trkpt>
      <trkpt lat="41.626418700" lon="1.667554200">
        <ele>550.40</ele>
        <time>2018-05-26T07:58:43Z</time>
      </trkpt>
      <trkpt lat="41.626472000" lon="1.667416400">
        <ele>549.60</ele>
        <time>2018-05-26T07:58:44Z</time>
      </trkpt>
      <trkpt lat="41.626604700" lon="1.667155900">
        <ele>548.00</ele>
        <time>2018-05-26T07:58:46Z</time>
      </trkpt>
      <trkpt lat="41.626736500" lon="1.666886300">
        <ele>546.80</ele>
        <time>2018-05-26T07:58:48Z</time>
      </trkpt>
      <trkpt lat="41.626962400" lon="1.666367000">
        <ele>545.80</ele>
        <time>2018-05-26T07:58:52Z</time>
      </trkpt>
      <trkpt lat="41.626991200" lon="1.666243800">
        <ele>545.60</ele>
        <time>2018-05-26T07:58:53Z</time>
      </trkpt>
      <trkpt lat="41.626991700" lon="1.665983000">
        <ele>544.80</ele>
        <time>2018-05-26T07:58:55Z</time>
      </trkpt>
      <trkpt lat="41.626973700" lon="1.665845300">
        <ele>544.40</ele>
        <time>2018-05-26T07:58:56Z</time>
      </trkpt>
      <trkpt lat="41.626913600" lon="1.665572200">
        <ele>543.20</ele>
        <time>2018-05-26T07:58:58Z</time>
      </trkpt>
      <trkpt lat="41.626875300" lon="1.665444900">
        <ele>542.60</ele>
        <time>2018-05-26T07:58:59Z</time>
      </trkpt>
      <trkpt lat="41.626805100" lon="1.665339400">
        <ele>542.00</ele>
        <time>2018-05-26T07:59:00Z</time>
      </trkpt>
      <trkpt lat="41.626698300" lon="1.665236400">
        <ele>541.20</ele>
        <time>2018-05-26T07:59:01Z</time>
      </trkpt>
      <trkpt lat="41.626630000" lon="1.665104300">
        <ele>540.40</ele>
        <time>2018-05-26T07:59:02Z</time>
      </trkpt>
      <trkpt lat="41.626579400" lon="1.664960200">
        <ele>539.80</ele>
        <time>2018-05-26T07:59:03Z</time>
      </trkpt>
      <trkpt lat="41.626496600" lon="1.664831500">
        <ele>539.00</ele>
        <time>2018-05-26T07:59:04Z</time>
      </trkpt>
      <trkpt lat="41.626432100" lon="1.664527400">
        <ele>537.80</ele>
        <time>2018-05-26T07:59:06Z</time>
      </trkpt>
      <trkpt lat="41.626367500" lon="1.664214600">
        <ele>536.80</ele>
        <time>2018-05-26T07:59:08Z</time>
      </trkpt>
      <trkpt lat="41.626334100" lon="1.664055800">
        <ele>536.40</ele>
        <time>2018-05-26T07:59:09Z</time>
      </trkpt>
      <trkpt lat="41.626268400" lon="1.663721800">
        <ele>535.20</ele>
        <time>2018-05-26T07:59:11Z</time>
      </trkpt>
      <trkpt lat="41.626201000" lon="1.663384500">
        <ele>533.80</ele>
        <time>2018-05-26T07:59:13Z</time>
      </trkpt>
      <trkpt lat="41.626122000" lon="1.663060400">
        <ele>532.60</ele>
        <time>2018-05-26T07:59:15Z</time>
      </trkpt>
      <trkpt lat="41.626027700" lon="1.662776500">
        <ele>531.40</ele>
        <time>2018-05-26T07:59:17Z</time>
      </trkpt>
      <trkpt lat="41.625913700" lon="1.662567200">
        <ele>530.20</ele>
        <time>2018-05-26T07:59:19Z</time>
      </trkpt>
      <trkpt lat="41.625806400" lon="1.662385900">
        <ele>529.20</ele>
        <time>2018-05-26T07:59:21Z</time>
      </trkpt>
      <trkpt lat="41.625545400" lon="1.662268500">
        <ele>528.00</ele>
        <time>2018-05-26T07:59:23Z</time>
      </trkpt>
      <trkpt lat="41.625458500" lon="1.662210900">
        <ele>527.40</ele>
        <time>2018-05-26T07:59:24Z</time>
      </trkpt>
      <trkpt lat="41.625382100" lon="1.662137800">
        <ele>527.00</ele>
        <time>2018-05-26T07:59:25Z</time>
      </trkpt>
      <trkpt lat="41.625207200" lon="1.661887100">
        <ele>526.20</ele>
        <time>2018-05-26T07:59:28Z</time>
      </trkpt>
      <trkpt lat="41.625236700" lon="1.661526100">
        <ele>525.20</ele>
        <time>2018-05-26T07:59:31Z</time>
      </trkpt>
      <trkpt lat="41.625294100" lon="1.661399600">
        <ele>524.80</ele>
        <time>2018-05-26T07:59:32Z</time>
      </trkpt>
      <trkpt lat="41.625375000" lon="1.661255500">
        <ele>524.20</ele>
        <time>2018-05-26T07:59:33Z</time>
      </trkpt>
      <trkpt lat="41.625434400" lon="1.661115400">
        <ele>523.60</ele>
        <time>2018-05-26T07:59:34Z</time>
      </trkpt>
      <trkpt lat="41.625510500" lon="1.660723600">
        <ele>522.60</ele>
        <time>2018-05-26T07:59:37Z</time>
      </trkpt>
      <trkpt lat="41.625495600" lon="1.660600700">
        <ele>522.20</ele>
        <time>2018-05-26T07:59:38Z</time>
      </trkpt>
      <trkpt lat="41.625378600" lon="1.660404900">
        <ele>520.80</ele>
        <time>2018-05-26T07:59:40Z</time>
      </trkpt>
      <trkpt lat="41.625294700" lon="1.660309600">
        <ele>520.20</ele>
        <time>2018-05-26T07:59:41Z</time>
      </trkpt>
      <trkpt lat="41.625138500" lon="1.660084500">
        <ele>518.20</ele>
        <time>2018-05-26T07:59:43Z</time>
      </trkpt>
      <trkpt lat="41.625068700" lon="1.659959200">
        <ele>517.60</ele>
        <time>2018-05-26T07:59:44Z</time>
      </trkpt>
      <trkpt lat="41.624990400" lon="1.659843400">
        <ele>517.00</ele>
        <time>2018-05-26T07:59:45Z</time>
      </trkpt>
      <trkpt lat="41.624824400" lon="1.659619700">
        <ele>515.60</ele>
        <time>2018-05-26T07:59:47Z</time>
      </trkpt>
      <trkpt lat="41.624741000" lon="1.659504300">
        <ele>515.00</ele>
        <time>2018-05-26T07:59:48Z</time>
      </trkpt>
      <trkpt lat="41.624661100" lon="1.659386000">
        <ele>514.40</ele>
        <time>2018-05-26T07:59:49Z</time>
      </trkpt>
      <trkpt lat="41.624516700" lon="1.659120100">
        <ele>513.20</ele>
        <time>2018-05-26T07:59:51Z</time>
      </trkpt>
      <trkpt lat="41.624446900" lon="1.658983500">
        <ele>512.60</ele>
        <time>2018-05-26T07:59:52Z</time>
      </trkpt>
      <trkpt lat="41.624375100" lon="1.658845800">
        <ele>512.00</ele>
        <time>2018-05-26T07:59:53Z</time>
      </trkpt>
      <trkpt lat="41.624228300" lon="1.658567900">
        <ele>510.80</ele>
        <time>2018-05-26T07:59:55Z</time>
      </trkpt>
      <trkpt lat="41.624064700" lon="1.658302800">
        <ele>510.00</ele>
        <time>2018-05-26T07:59:57Z</time>
      </trkpt>
      <trkpt lat="41.623973300" lon="1.658180300">
        <ele>509.40</ele>
        <time>2018-05-26T07:59:58Z</time>
      </trkpt>
      <trkpt lat="41.623785700" lon="1.657944500">
        <ele>508.40</ele>
        <time>2018-05-26T08:00:00Z</time>
      </trkpt>
      <trkpt lat="41.623507400" lon="1.657598500">
        <ele>507.40</ele>
        <time>2018-05-26T08:00:03Z</time>
      </trkpt>
      <trkpt lat="41.623418400" lon="1.657481400">
        <ele>507.20</ele>
        <time>2018-05-26T08:00:04Z</time>
      </trkpt>
      <trkpt lat="41.623243900" lon="1.657258500">
        <ele>506.40</ele>
        <time>2018-05-26T08:00:06Z</time>
      </trkpt>
      <trkpt lat="41.623152900" lon="1.657160100">
        <ele>505.80</ele>
        <time>2018-05-26T08:00:07Z</time>
      </trkpt>
      <trkpt lat="41.623057300" lon="1.657073200">
        <ele>505.60</ele>
        <time>2018-05-26T08:00:08Z</time>
      </trkpt>
      <trkpt lat="41.622860600" lon="1.656905800">
        <ele>504.40</ele>
        <time>2018-05-26T08:00:10Z</time>
      </trkpt>
      <trkpt lat="41.622457400" lon="1.656589200">
        <ele>503.40</ele>
        <time>2018-05-26T08:00:14Z</time>
      </trkpt>
      <trkpt lat="41.622266300" lon="1.656429300">
        <ele>502.80</ele>
        <time>2018-05-26T08:00:16Z</time>
      </trkpt>
      <trkpt lat="41.622178200" lon="1.656348000">
        <ele>502.40</ele>
        <time>2018-05-26T08:00:17Z</time>
      </trkpt>
      <trkpt lat="41.622095000" lon="1.656259500">
        <ele>502.20</ele>
        <time>2018-05-26T08:00:18Z</time>
      </trkpt>
      <trkpt lat="41.621963300" lon="1.656039400">
        <ele>501.60</ele>
        <time>2018-05-26T08:00:20Z</time>
      </trkpt>
      <trkpt lat="41.621915000" lon="1.655910900">
        <ele>501.20</ele>
        <time>2018-05-26T08:00:21Z</time>
      </trkpt>
      <trkpt lat="41.621841200" lon="1.655640400">
        <ele>500.40</ele>
        <time>2018-05-26T08:00:23Z</time>
      </trkpt>
      <trkpt lat="41.621797500" lon="1.655511700">
        <ele>500.00</ele>
        <time>2018-05-26T08:00:24Z</time>
      </trkpt>
      <trkpt lat="41.621664400" lon="1.655293600">
        <ele>499.40</ele>
        <time>2018-05-26T08:00:26Z</time>
      </trkpt>
      <trkpt lat="41.621585300" lon="1.655204500">
        <ele>498.80</ele>
        <time>2018-05-26T08:00:27Z</time>
      </trkpt>
      <trkpt lat="41.621413200" lon="1.655048300">
        <ele>497.80</ele>
        <time>2018-05-26T08:00:29Z</time>
      </trkpt>
      <trkpt lat="41.621227400" lon="1.654895100">
        <ele>497.00</ele>
        <time>2018-05-26T08:00:31Z</time>
      </trkpt>
      <trkpt lat="41.621133000" lon="1.654815800">
        <ele>496.40</ele>
        <time>2018-05-26T08:00:32Z</time>
      </trkpt>
      <trkpt lat="41.620833100" lon="1.654602100">
        <ele>495.80</ele>
        <time>2018-05-26T08:00:35Z</time>
      </trkpt>
      <trkpt lat="41.620724200" lon="1.654558000">
        <ele>495.60</ele>
        <time>2018-05-26T08:00:36Z</time>
      </trkpt>
      <trkpt lat="41.620613100" lon="1.654531800">
        <ele>495.20</ele>
        <time>2018-05-26T08:00:37Z</time>
      </trkpt>
      <trkpt lat="41.620383500" lon="1.654516000">
        <ele>494.40</ele>
        <time>2018-05-26T08:00:39Z</time>
      </trkpt>
      <trkpt lat="41.620270500" lon="1.654512900">
        <ele>494.00</ele>
        <time>2018-05-26T08:00:40Z</time>
      </trkpt>
      <trkpt lat="41.620046200" lon="1.654508100">
        <ele>493.00</ele>
        <time>2018-05-26T08:00:42Z</time>
      </trkpt>
      <trkpt lat="41.619710900" lon="1.654491800">
        <ele>492.80</ele>
        <time>2018-05-26T08:00:45Z</time>
      </trkpt>
      <trkpt lat="41.619387900" lon="1.654468200">
        <ele>492.20</ele>
        <time>2018-05-26T08:00:48Z</time>
      </trkpt>
      <trkpt lat="41.619295900" lon="1.654421100">
        <ele>491.80</ele>
        <time>2018-05-26T08:00:49Z</time>
      </trkpt>
      <trkpt lat="41.619080500" lon="1.654133700">
        <ele>491.20</ele>
        <time>2018-05-26T08:00:52Z</time>
      </trkpt>
      <trkpt lat="41.618951800" lon="1.653908200">
        <ele>490.80</ele>
        <time>2018-05-26T08:00:54Z</time>
      </trkpt>
      <trkpt lat="41.618867800" lon="1.653819400">
        <ele>490.20</ele>
        <time>2018-05-26T08:00:55Z</time>
      </trkpt>
      <trkpt lat="41.618667700" lon="1.653763100">
        <ele>489.40</ele>
        <time>2018-05-26T08:00:57Z</time>
      </trkpt>
      <trkpt lat="41.618461800" lon="1.653790500">
        <ele>488.80</ele>
        <time>2018-05-26T08:00:59Z</time>
      </trkpt>
      <trkpt lat="41.618249200" lon="1.653800600">
        <ele>488.40</ele>
        <time>2018-05-26T08:01:01Z</time>
      </trkpt>
      <trkpt lat="41.618144100" lon="1.653785100">
        <ele>488.20</ele>
        <time>2018-05-26T08:01:02Z</time>
      </trkpt>
      <trkpt lat="41.617949500" lon="1.653709600">
        <ele>487.60</ele>
        <time>2018-05-26T08:01:04Z</time>
      </trkpt>
      <trkpt lat="41.617759100" lon="1.653465300">
        <ele>487.00</ele>
        <time>2018-05-26T08:01:07Z</time>
      </trkpt>
      <trkpt lat="41.617706300" lon="1.653061700">
        <ele>485.60</ele>
        <time>2018-05-26T08:01:10Z</time>
      </trkpt>
      <trkpt lat="41.617672300" lon="1.652631400">
        <ele>484.60</ele>
        <time>2018-05-26T08:01:13Z</time>
      </trkpt>
      <trkpt lat="41.617615300" lon="1.652202900">
        <ele>483.60</ele>
        <time>2018-05-26T08:01:16Z</time>
      </trkpt>
      <trkpt lat="41.617562000" lon="1.651778500">
        <ele>482.20</ele>
        <time>2018-05-26T08:01:19Z</time>
      </trkpt>
      <trkpt lat="41.617501700" lon="1.651359600">
        <ele>481.00</ele>
        <time>2018-05-26T08:01:22Z</time>
      </trkpt>
      <trkpt lat="41.617473000" lon="1.651227700">
        <ele>480.60</ele>
        <time>2018-05-26T08:01:23Z</time>
      </trkpt>
      <trkpt lat="41.617338600" lon="1.651012600">
        <ele>479.80</ele>
        <time>2018-05-26T08:01:25Z</time>
      </trkpt>
      <trkpt lat="41.617144900" lon="1.650907400">
        <ele>479.00</ele>
        <time>2018-05-26T08:01:27Z</time>
      </trkpt>
      <trkpt lat="41.617041200" lon="1.650878200">
        <ele>478.60</ele>
        <time>2018-05-26T08:01:28Z</time>
      </trkpt>
      <trkpt lat="41.616935100" lon="1.650854800">
        <ele>478.20</ele>
        <time>2018-05-26T08:01:29Z</time>
      </trkpt>
      <trkpt lat="41.616724000" lon="1.650809100">
        <ele>477.40</ele>
        <time>2018-05-26T08:01:31Z</time>
      </trkpt>
      <trkpt lat="41.616617500" lon="1.650793500">
        <ele>477.00</ele>
        <time>2018-05-26T08:01:32Z</time>
      </trkpt>
      <trkpt lat="41.616414000" lon="1.650743900">
        <ele>476.40</ele>
        <time>2018-05-26T08:01:34Z</time>
      </trkpt>
      <trkpt lat="41.616318100" lon="1.650690400">
        <ele>476.20</ele>
        <time>2018-05-26T08:01:35Z</time>
      </trkpt>
      <trkpt lat="41.616089800" lon="1.650388500">
        <ele>475.20</ele>
        <time>2018-05-26T08:01:38Z</time>
      </trkpt>
      <trkpt lat="41.616029500" lon="1.650260100">
        <ele>474.80</ele>
        <time>2018-05-26T08:01:39Z</time>
      </trkpt>
      <trkpt lat="41.615970000" lon="1.650131800">
        <ele>474.20</ele>
        <time>2018-05-26T08:01:40Z</time>
      </trkpt>
      <trkpt lat="41.615850500" lon="1.649875900">
        <ele>473.20</ele>
        <time>2018-05-26T08:01:42Z</time>
      </trkpt>
      <trkpt lat="41.615790400" lon="1.649746600">
        <ele>472.40</ele>
        <time>2018-05-26T08:01:43Z</time>
      </trkpt>
      <trkpt lat="41.615662900" lon="1.649489300">
        <ele>471.40</ele>
        <time>2018-05-26T08:01:45Z</time>
      </trkpt>
      <trkpt lat="41.615597500" lon="1.649360400">
        <ele>471.00</ele>
        <time>2018-05-26T08:01:46Z</time>
      </trkpt>
      <trkpt lat="41.615465100" lon="1.649101000">
        <ele>469.80</ele>
        <time>2018-05-26T08:01:48Z</time>
      </trkpt>
      <trkpt lat="41.615332900" lon="1.648842400">
        <ele>468.80</ele>
        <time>2018-05-26T08:01:50Z</time>
      </trkpt>
      <trkpt lat="41.615146600" lon="1.648455000">
        <ele>467.40</ele>
        <time>2018-05-26T08:01:53Z</time>
      </trkpt>
      <trkpt lat="41.615084500" lon="1.648326600">
        <ele>466.80</ele>
        <time>2018-05-26T08:01:54Z</time>
      </trkpt>
      <trkpt lat="41.614935800" lon="1.648104500">
        <ele>466.20</ele>
        <time>2018-05-26T08:01:56Z</time>
      </trkpt>
      <trkpt lat="41.614838600" lon="1.648027300">
        <ele>465.80</ele>
        <time>2018-05-26T08:01:57Z</time>
      </trkpt>
      <trkpt lat="41.614616700" lon="1.647940500">
        <ele>464.80</ele>
        <time>2018-05-26T08:01:59Z</time>
      </trkpt>
      <trkpt lat="41.614499800" lon="1.647916900">
        <ele>464.20</ele>
        <time>2018-05-26T08:02:00Z</time>
      </trkpt>
      <trkpt lat="41.614381400" lon="1.647894300">
        <ele>463.60</ele>
        <time>2018-05-26T08:02:01Z</time>
      </trkpt>
      <trkpt lat="41.614145500" lon="1.647843800">
        <ele>462.40</ele>
        <time>2018-05-26T08:02:03Z</time>
      </trkpt>
      <trkpt lat="41.613905700" lon="1.647795000">
        <ele>461.40</ele>
        <time>2018-05-26T08:02:05Z</time>
      </trkpt>
      <trkpt lat="41.613783600" lon="1.647769900">
        <ele>461.00</ele>
        <time>2018-05-26T08:02:06Z</time>
      </trkpt>
      <trkpt lat="41.613540100" lon="1.647714400">
        <ele>459.60</ele>
        <time>2018-05-26T08:02:08Z</time>
      </trkpt>
      <trkpt lat="41.613419200" lon="1.647689000">
        <ele>459.00</ele>
        <time>2018-05-26T08:02:09Z</time>
      </trkpt>
      <trkpt lat="41.613299100" lon="1.647664500">
        <ele>458.40</ele>
        <time>2018-05-26T08:02:10Z</time>
      </trkpt>
      <trkpt lat="41.612944200" lon="1.647576500">
        <ele>457.40</ele>
        <time>2018-05-26T08:02:13Z</time>
      </trkpt>
      <trkpt lat="41.612601500" lon="1.647459900">
        <ele>456.20</ele>
        <time>2018-05-26T08:02:16Z</time>
      </trkpt>
      <trkpt lat="41.612322000" lon="1.647169000">
        <ele>455.00</ele>
        <time>2018-05-26T08:02:19Z</time>
      </trkpt>
      <trkpt lat="41.612238900" lon="1.647053200">
        <ele>454.40</ele>
        <time>2018-05-26T08:02:20Z</time>
      </trkpt>
      <trkpt lat="41.612067200" lon="1.646823000">
        <ele>453.40</ele>
        <time>2018-05-26T08:02:22Z</time>
      </trkpt>
      <trkpt lat="41.611823600" lon="1.646479500">
        <ele>452.00</ele>
        <time>2018-05-26T08:02:25Z</time>
      </trkpt>
      <trkpt lat="41.611564700" lon="1.646214400">
        <ele>450.60</ele>
        <time>2018-05-26T08:02:28Z</time>
      </trkpt>
      <trkpt lat="41.611463000" lon="1.646147400">
        <ele>450.00</ele>
        <time>2018-05-26T08:02:29Z</time>
      </trkpt>
      <trkpt lat="41.611357400" lon="1.646095100">
        <ele>449.40</ele>
        <time>2018-05-26T08:02:30Z</time>
      </trkpt>
      <trkpt lat="41.611146600" lon="1.645978600">
        <ele>448.20</ele>
        <time>2018-05-26T08:02:32Z</time>
      </trkpt>
      <trkpt lat="41.610956800" lon="1.645804900">
        <ele>447.00</ele>
        <time>2018-05-26T08:02:34Z</time>
      </trkpt>
      <trkpt lat="41.610873600" lon="1.645696300">
        <ele>446.60</ele>
        <time>2018-05-26T08:02:35Z</time>
      </trkpt>
      <trkpt lat="41.610790600" lon="1.645585500">
        <ele>446.40</ele>
        <time>2018-05-26T08:02:36Z</time>
      </trkpt>
      <trkpt lat="41.610700600" lon="1.645482000">
        <ele>445.80</ele>
        <time>2018-05-26T08:02:37Z</time>
      </trkpt>
      <trkpt lat="41.610499600" lon="1.645312300">
        <ele>444.40</ele>
        <time>2018-05-26T08:02:39Z</time>
      </trkpt>
      <trkpt lat="41.610189100" lon="1.645081300">
        <ele>443.00</ele>
        <time>2018-05-26T08:02:42Z</time>
      </trkpt>
      <trkpt lat="41.609974300" lon="1.644935100">
        <ele>442.20</ele>
        <time>2018-05-26T08:02:44Z</time>
      </trkpt>
      <trkpt lat="41.609872400" lon="1.644860500">
        <ele>441.80</ele>
        <time>2018-05-26T08:02:45Z</time>
      </trkpt>
      <trkpt lat="41.609774000" lon="1.644787400">
        <ele>441.40</ele>
        <time>2018-05-26T08:02:46Z</time>
      </trkpt>
      <trkpt lat="41.609585000" lon="1.644644300">
        <ele>440.60</ele>
        <time>2018-05-26T08:02:48Z</time>
      </trkpt>
      <trkpt lat="41.609394500" lon="1.644513900">
        <ele>440.00</ele>
        <time>2018-05-26T08:02:50Z</time>
      </trkpt>
      <trkpt lat="41.609303700" lon="1.644453000">
        <ele>439.40</ele>
        <time>2018-05-26T08:02:51Z</time>
      </trkpt>
      <trkpt lat="41.609213400" lon="1.644397600">
        <ele>439.00</ele>
        <time>2018-05-26T08:02:52Z</time>
      </trkpt>
      <trkpt lat="41.609123600" lon="1.644340500">
        <ele>438.40</ele>
        <time>2018-05-26T08:02:53Z</time>
      </trkpt>
      <trkpt lat="41.608939600" lon="1.644224900">
        <ele>437.40</ele>
        <time>2018-05-26T08:02:55Z</time>
      </trkpt>
      <trkpt lat="41.608842700" lon="1.644173200">
        <ele>437.20</ele>
        <time>2018-05-26T08:02:56Z</time>
      </trkpt>
      <trkpt lat="41.608640500" lon="1.644097400">
        <ele>436.60</ele>
        <time>2018-05-26T08:02:58Z</time>
      </trkpt>
      <trkpt lat="41.608535500" lon="1.644081400">
        <ele>436.40</ele>
        <time>2018-05-26T08:02:59Z</time>
      </trkpt>
      <trkpt lat="41.608322700" lon="1.644075300">
        <ele>435.80</ele>
        <time>2018-05-26T08:03:01Z</time>
      </trkpt>
      <trkpt lat="41.608216300" lon="1.644077000">
        <ele>435.60</ele>
        <time>2018-05-26T08:03:02Z</time>
      </trkpt>
      <trkpt lat="41.608003700" lon="1.644083700">
        <ele>435.20</ele>
        <time>2018-05-26T08:03:04Z</time>
      </trkpt>
      <trkpt lat="41.607378900" lon="1.644100800">
        <ele>434.40</ele>
        <time>2018-05-26T08:03:10Z</time>
      </trkpt>
      <trkpt lat="41.607277300" lon="1.644079200">
        <ele>434.20</ele>
        <time>2018-05-26T08:03:11Z</time>
      </trkpt>
      <trkpt lat="41.607082300" lon="1.643992800">
        <ele>434.00</ele>
        <time>2018-05-26T08:03:13Z</time>
      </trkpt>
      <trkpt lat="41.606908200" lon="1.643870200">
        <ele>433.60</ele>
        <time>2018-05-26T08:03:15Z</time>
      </trkpt>
      <trkpt lat="41.606746200" lon="1.643752000">
        <ele>433.20</ele>
        <time>2018-05-26T08:03:17Z</time>
      </trkpt>
      <trkpt lat="41.606599600" lon="1.643655300">
        <ele>432.60</ele>
        <time>2018-05-26T08:03:19Z</time>
      </trkpt>
      <trkpt lat="41.606476600" lon="1.643587400">
        <ele>432.80</ele>
        <time>2018-05-26T08:03:21Z</time>
      </trkpt>
      <trkpt lat="41.606245300" lon="1.643536500">
        <ele>432.40</ele>
        <time>2018-05-26T08:03:25Z</time>
      </trkpt>
      <trkpt lat="41.606049300" lon="1.643587600">
        <ele>431.60</ele>
        <time>2018-05-26T08:03:28Z</time>
      </trkpt>
      <trkpt lat="41.605664100" lon="1.643668700">
        <ele>431.00</ele>
        <time>2018-05-26T08:03:33Z</time>
      </trkpt>
      <trkpt lat="41.605333800" lon="1.643552000">
        <ele>430.40</ele>
        <time>2018-05-26T08:03:37Z</time>
      </trkpt>
      <trkpt lat="41.605113800" lon="1.643331500">
        <ele>429.80</ele>
        <time>2018-05-26T08:03:40Z</time>
      </trkpt>
      <trkpt lat="41.605000600" lon="1.643140200">
        <ele>429.20</ele>
        <time>2018-05-26T08:03:42Z</time>
      </trkpt>
      <trkpt lat="41.604969100" lon="1.642845700">
        <ele>428.00</ele>
        <time>2018-05-26T08:03:44Z</time>
      </trkpt>
      <trkpt lat="41.605023500" lon="1.642524600">
        <ele>427.20</ele>
        <time>2018-05-26T08:03:46Z</time>
      </trkpt>
      <trkpt lat="41.605015200" lon="1.642389300">
        <ele>426.60</ele>
        <time>2018-05-26T08:03:47Z</time>
      </trkpt>
      <trkpt lat="41.604999600" lon="1.642252800">
        <ele>426.00</ele>
        <time>2018-05-26T08:03:48Z</time>
      </trkpt>
      <trkpt lat="41.604964100" lon="1.642132100">
        <ele>425.40</ele>
        <time>2018-05-26T08:03:49Z</time>
      </trkpt>
      <trkpt lat="41.604928400" lon="1.642018900">
        <ele>425.00</ele>
        <time>2018-05-26T08:03:50Z</time>
      </trkpt>
      <trkpt lat="41.604813800" lon="1.641809500">
        <ele>424.00</ele>
        <time>2018-05-26T08:03:52Z</time>
      </trkpt>
      <trkpt lat="41.604608600" lon="1.641476000">
        <ele>422.80</ele>
        <time>2018-05-26T08:03:55Z</time>
      </trkpt>
      <trkpt lat="41.604556200" lon="1.641347300">
        <ele>422.20</ele>
        <time>2018-05-26T08:03:56Z</time>
      </trkpt>
      <trkpt lat="41.604503400" lon="1.641060600">
        <ele>421.60</ele>
        <time>2018-05-26T08:03:58Z</time>
      </trkpt>
      <trkpt lat="41.604352300" lon="1.640695800">
        <ele>420.20</ele>
        <time>2018-05-26T08:04:01Z</time>
      </trkpt>
      <trkpt lat="41.604177200" lon="1.640561700">
        <ele>419.20</ele>
        <time>2018-05-26T08:04:03Z</time>
      </trkpt>
      <trkpt lat="41.604081800" lon="1.640514400">
        <ele>418.80</ele>
        <time>2018-05-26T08:04:04Z</time>
      </trkpt>
      <trkpt lat="41.603980800" lon="1.640474500">
        <ele>418.20</ele>
        <time>2018-05-26T08:04:05Z</time>
      </trkpt>
      <trkpt lat="41.603879600" lon="1.640434300">
        <ele>417.80</ele>
        <time>2018-05-26T08:04:06Z</time>
      </trkpt>
      <trkpt lat="41.603779400" lon="1.640385400">
        <ele>416.80</ele>
        <time>2018-05-26T08:04:07Z</time>
      </trkpt>
      <trkpt lat="41.603683600" lon="1.640319400">
        <ele>416.20</ele>
        <time>2018-05-26T08:04:08Z</time>
      </trkpt>
      <trkpt lat="41.603591600" lon="1.640232300">
        <ele>415.60</ele>
        <time>2018-05-26T08:04:09Z</time>
      </trkpt>
      <trkpt lat="41.603426600" lon="1.640017500">
        <ele>414.40</ele>
        <time>2018-05-26T08:04:11Z</time>
      </trkpt>
      <trkpt lat="41.603359700" lon="1.639891400">
        <ele>413.80</ele>
        <time>2018-05-26T08:04:12Z</time>
      </trkpt>
      <trkpt lat="41.603294800" lon="1.639761500">
        <ele>413.20</ele>
        <time>2018-05-26T08:04:13Z</time>
      </trkpt>
      <trkpt lat="41.603169000" lon="1.639500100">
        <ele>412.00</ele>
        <time>2018-05-26T08:04:15Z</time>
      </trkpt>
      <trkpt lat="41.603040100" lon="1.639237200">
        <ele>410.80</ele>
        <time>2018-05-26T08:04:17Z</time>
      </trkpt>
      <trkpt lat="41.602980700" lon="1.639098600">
        <ele>410.20</ele>
        <time>2018-05-26T08:04:18Z</time>
      </trkpt>
      <trkpt lat="41.602924700" lon="1.638953300">
        <ele>409.60</ele>
        <time>2018-05-26T08:04:19Z</time>
      </trkpt>
      <trkpt lat="41.602878700" lon="1.638799200">
        <ele>408.80</ele>
        <time>2018-05-26T08:04:20Z</time>
      </trkpt>
      <trkpt lat="41.602842300" lon="1.638638400">
        <ele>408.40</ele>
        <time>2018-05-26T08:04:21Z</time>
      </trkpt>
      <trkpt lat="41.602814200" lon="1.638472300">
        <ele>408.00</ele>
        <time>2018-05-26T08:04:22Z</time>
      </trkpt>
      <trkpt lat="41.602764900" lon="1.638139700">
        <ele>407.00</ele>
        <time>2018-05-26T08:04:24Z</time>
      </trkpt>
      <trkpt lat="41.602718600" lon="1.637806900">
        <ele>405.80</ele>
        <time>2018-05-26T08:04:26Z</time>
      </trkpt>
      <trkpt lat="41.602669100" lon="1.637474800">
        <ele>404.40</ele>
        <time>2018-05-26T08:04:28Z</time>
      </trkpt>
      <trkpt lat="41.602596300" lon="1.637149100">
        <ele>403.20</ele>
        <time>2018-05-26T08:04:30Z</time>
      </trkpt>
      <trkpt lat="41.602545300" lon="1.636991800">
        <ele>402.00</ele>
        <time>2018-05-26T08:04:31Z</time>
      </trkpt>
      <trkpt lat="41.602486100" lon="1.636839500">
        <ele>401.40</ele>
        <time>2018-05-26T08:04:32Z</time>
      </trkpt>
      <trkpt lat="41.602417100" lon="1.636691700">
        <ele>400.80</ele>
        <time>2018-05-26T08:04:33Z</time>
      </trkpt>
      <trkpt lat="41.602254100" lon="1.636421400">
        <ele>399.60</ele>
        <time>2018-05-26T08:04:35Z</time>
      </trkpt>
      <trkpt lat="41.602050600" lon="1.636194500">
        <ele>397.80</ele>
        <time>2018-05-26T08:04:37Z</time>
      </trkpt>
      <trkpt lat="41.601936800" lon="1.636096500">
        <ele>396.60</ele>
        <time>2018-05-26T08:04:38Z</time>
      </trkpt>
      <trkpt lat="41.601816900" lon="1.636012300">
        <ele>395.20</ele>
        <time>2018-05-26T08:04:39Z</time>
      </trkpt>
      <trkpt lat="41.601690000" lon="1.635941100">
        <ele>393.60</ele>
        <time>2018-05-26T08:04:40Z</time>
      </trkpt>
      <trkpt lat="41.601557300" lon="1.635886500">
        <ele>392.60</ele>
        <time>2018-05-26T08:04:41Z</time>
      </trkpt>
      <trkpt lat="41.601273700" lon="1.635810600">
        <ele>391.60</ele>
        <time>2018-05-26T08:04:43Z</time>
      </trkpt>
      <trkpt lat="41.601128400" lon="1.635780800">
        <ele>390.40</ele>
        <time>2018-05-26T08:04:44Z</time>
      </trkpt>
      <trkpt lat="41.600981900" lon="1.635754600">
        <ele>388.60</ele>
        <time>2018-05-26T08:04:45Z</time>
      </trkpt>
      <trkpt lat="41.600834300" lon="1.635728300">
        <ele>387.20</ele>
        <time>2018-05-26T08:04:46Z</time>
      </trkpt>
      <trkpt lat="41.600686700" lon="1.635704700">
        <ele>386.00</ele>
        <time>2018-05-26T08:04:47Z</time>
      </trkpt>
      <trkpt lat="41.600388500" lon="1.635651500">
        <ele>383.80</ele>
        <time>2018-05-26T08:04:49Z</time>
      </trkpt>
      <trkpt lat="41.600242100" lon="1.635619300">
        <ele>382.40</ele>
        <time>2018-05-26T08:04:50Z</time>
      </trkpt>
      <trkpt lat="41.600094800" lon="1.635585400">
        <ele>381.00</ele>
        <time>2018-05-26T08:04:51Z</time>
      </trkpt>
      <trkpt lat="41.599942100" lon="1.635556700">
        <ele>380.00</ele>
        <time>2018-05-26T08:04:52Z</time>
      </trkpt>
      <trkpt lat="41.599789400" lon="1.635530100">
        <ele>378.80</ele>
        <time>2018-05-26T08:04:53Z</time>
      </trkpt>
      <trkpt lat="41.599493200" lon="1.635459600">
        <ele>376.20</ele>
        <time>2018-05-26T08:04:55Z</time>
      </trkpt>
      <trkpt lat="41.599212900" lon="1.635358300">
        <ele>375.60</ele>
        <time>2018-05-26T08:04:57Z</time>
      </trkpt>
      <trkpt lat="41.599083200" lon="1.635293100">
        <ele>375.20</ele>
        <time>2018-05-26T08:04:58Z</time>
      </trkpt>
      <trkpt lat="41.598842000" lon="1.635127800">
        <ele>375.60</ele>
        <time>2018-05-26T08:05:00Z</time>
      </trkpt>
      <trkpt lat="41.598733600" lon="1.635037900">
        <ele>376.40</ele>
        <time>2018-05-26T08:05:01Z</time>
      </trkpt>
      <trkpt lat="41.598536400" lon="1.634852700">
        <ele>377.60</ele>
        <time>2018-05-26T08:05:03Z</time>
      </trkpt>
      <trkpt lat="41.598446600" lon="1.634762900">
        <ele>378.40</ele>
        <time>2018-05-26T08:05:04Z</time>
      </trkpt>
      <trkpt lat="41.598364500" lon="1.634673700">
        <ele>379.40</ele>
        <time>2018-05-26T08:05:05Z</time>
      </trkpt>
      <trkpt lat="41.598216500" lon="1.634507800">
        <ele>381.20</ele>
        <time>2018-05-26T08:05:07Z</time>
      </trkpt>
      <trkpt lat="41.598087400" lon="1.634363500">
        <ele>382.40</ele>
        <time>2018-05-26T08:05:09Z</time>
      </trkpt>
      <trkpt lat="41.597976900" lon="1.634236800">
        <ele>384.00</ele>
        <time>2018-05-26T08:05:11Z</time>
      </trkpt>
      <trkpt lat="41.597877600" lon="1.634117800">
        <ele>385.20</ele>
        <time>2018-05-26T08:05:13Z</time>
      </trkpt>
      <trkpt lat="41.597791000" lon="1.634003200">
        <ele>386.20</ele>
        <time>2018-05-26T08:05:15Z</time>
      </trkpt>
      <trkpt lat="41.597659700" lon="1.633841600">
        <ele>387.60</ele>
        <time>2018-05-26T08:05:18Z</time>
      </trkpt>
      <trkpt lat="41.597579700" lon="1.633740100">
        <ele>388.60</ele>
        <time>2018-05-26T08:05:20Z</time>
      </trkpt>
      <trkpt lat="41.597467200" lon="1.633586700">
        <ele>389.60</ele>
        <time>2018-05-26T08:05:23Z</time>
      </trkpt>
      <trkpt lat="41.597319100" lon="1.633394900">
        <ele>390.80</ele>
        <time>2018-05-26T08:05:27Z</time>
      </trkpt>
      <trkpt lat="41.597247000" lon="1.633298200">
        <ele>391.20</ele>
        <time>2018-05-26T08:05:29Z</time>
      </trkpt>
      <trkpt lat="41.597136200" lon="1.633138000">
        <ele>391.40</ele>
        <time>2018-05-26T08:05:32Z</time>
      </trkpt>
      <trkpt lat="41.597054500" lon="1.633024900">
        <ele>392.20</ele>
        <time>2018-05-26T08:05:34Z</time>
      </trkpt>
      <trkpt lat="41.596930100" lon="1.632845400">
        <ele>392.40</ele>
        <time>2018-05-26T08:05:37Z</time>
      </trkpt>
      <trkpt lat="41.596696700" lon="1.632482200">
        <ele>392.60</ele>
        <time>2018-05-26T08:05:43Z</time>
      </trkpt>
      <trkpt lat="41.596522200" lon="1.632222000">
        <ele>392.40</ele>
        <time>2018-05-26T08:05:47Z</time>
      </trkpt>
      <trkpt lat="41.596389000" lon="1.632012100">
        <ele>392.20</ele>
        <time>2018-05-26T08:05:50Z</time>
      </trkpt>
      <trkpt lat="41.596144100" lon="1.631639600">
        <ele>391.20</ele>
        <time>2018-05-26T08:05:55Z</time>
      </trkpt>
      <trkpt lat="41.595945100" lon="1.631327300">
        <ele>391.00</ele>
        <time>2018-05-26T08:05:59Z</time>
      </trkpt>
      <trkpt lat="41.595843500" lon="1.631171400">
        <ele>390.80</ele>
        <time>2018-05-26T08:06:01Z</time>
      </trkpt>
      <trkpt lat="41.595692000" lon="1.630922700">
        <ele>390.40</ele>
        <time>2018-05-26T08:06:04Z</time>
      </trkpt>
      <trkpt lat="41.595586600" lon="1.630756400">
        <ele>390.40</ele>
        <time>2018-05-26T08:06:06Z</time>
      </trkpt>
      <trkpt lat="41.595432100" lon="1.630510300">
        <ele>390.20</ele>
        <time>2018-05-26T08:06:09Z</time>
      </trkpt>
      <trkpt lat="41.595331500" lon="1.630350300">
        <ele>390.00</ele>
        <time>2018-05-26T08:06:11Z</time>
      </trkpt>
      <trkpt lat="41.595126900" lon="1.630027300">
        <ele>390.00</ele>
        <time>2018-05-26T08:06:15Z</time>
      </trkpt>
      <trkpt lat="41.594917000" lon="1.629719800">
        <ele>390.00</ele>
        <time>2018-05-26T08:06:19Z</time>
      </trkpt>
      <trkpt lat="41.594708300" lon="1.629433800">
        <ele>389.80</ele>
        <time>2018-05-26T08:06:23Z</time>
      </trkpt>
      <trkpt lat="41.594609500" lon="1.629287900">
        <ele>389.60</ele>
        <time>2018-05-26T08:06:25Z</time>
      </trkpt>
      <trkpt lat="41.594514900" lon="1.629140400">
        <ele>389.20</ele>
        <time>2018-05-26T08:06:27Z</time>
      </trkpt>
      <trkpt lat="41.594422700" lon="1.628989900">
        <ele>388.80</ele>
        <time>2018-05-26T08:06:29Z</time>
      </trkpt>
      <trkpt lat="41.594245200" lon="1.628671300">
        <ele>388.40</ele>
        <time>2018-05-26T08:06:33Z</time>
      </trkpt>
      <trkpt lat="41.594170600" lon="1.628497000">
        <ele>388.20</ele>
        <time>2018-05-26T08:06:35Z</time>
      </trkpt>
      <trkpt lat="41.594063400" lon="1.628348500">
        <ele>387.80</ele>
        <time>2018-05-26T08:06:37Z</time>
      </trkpt>
      <trkpt lat="41.593747000" lon="1.627975300">
        <ele>386.60</ele>
        <time>2018-05-26T08:06:42Z</time>
      </trkpt>
      <trkpt lat="41.593573900" lon="1.627704200">
        <ele>385.60</ele>
        <time>2018-05-26T08:06:45Z</time>
      </trkpt>
      <trkpt lat="41.593456600" lon="1.627516000">
        <ele>385.20</ele>
        <time>2018-05-26T08:06:47Z</time>
      </trkpt>
      <trkpt lat="41.593282300" lon="1.627222200">
        <ele>384.40</ele>
        <time>2018-05-26T08:06:50Z</time>
      </trkpt>
      <trkpt lat="41.593175700" lon="1.627020400">
        <ele>383.80</ele>
        <time>2018-05-26T08:06:52Z</time>
      </trkpt>
      <trkpt lat="41.593075900" lon="1.626817900">
        <ele>383.40</ele>
        <time>2018-05-26T08:06:54Z</time>
      </trkpt>
      <trkpt lat="41.592829000" lon="1.626328000">
        <ele>383.40</ele>
        <time>2018-05-26T08:06:59Z</time>
      </trkpt>
      <trkpt lat="41.592687200" lon="1.626030500">
        <ele>383.00</ele>
        <time>2018-05-26T08:07:02Z</time>
      </trkpt>
      <trkpt lat="41.592509000" lon="1.625631900">
        <ele>383.00</ele>
        <time>2018-05-26T08:07:06Z</time>
      </trkpt>
      <trkpt lat="41.592384200" lon="1.625328500">
        <ele>382.60</ele>
        <time>2018-05-26T08:07:09Z</time>
      </trkpt>
      <trkpt lat="41.592228900" lon="1.624935600">
        <ele>383.20</ele>
        <time>2018-05-26T08:07:13Z</time>
      </trkpt>
      <trkpt lat="41.592052900" lon="1.624383800">
        <ele>383.60</ele>
        <time>2018-05-26T08:07:19Z</time>
      </trkpt>
      <trkpt lat="41.591984600" lon="1.624038100">
        <ele>384.00</ele>
        <time>2018-05-26T08:07:23Z</time>
      </trkpt>
      <trkpt lat="41.591896600" lon="1.623781300">
        <ele>384.20</ele>
        <time>2018-05-26T08:07:26Z</time>
      </trkpt>
      <trkpt lat="41.591843700" lon="1.623595600">
        <ele>384.40</ele>
        <time>2018-05-26T08:07:28Z</time>
      </trkpt>
      <trkpt lat="41.591696800" lon="1.622948300">
        <ele>384.80</ele>
        <time>2018-05-26T08:07:35Z</time>
      </trkpt>
      <trkpt lat="41.591659900" lon="1.622770800">
        <ele>384.80</ele>
        <time>2018-05-26T08:07:37Z</time>
      </trkpt>
      <trkpt lat="41.591599600" lon="1.622282200">
        <ele>385.20</ele>
        <time>2018-05-26T08:07:43Z</time>
      </trkpt>
      <trkpt lat="41.591596900" lon="1.622122200">
        <ele>385.40</ele>
        <time>2018-05-26T08:07:45Z</time>
      </trkpt>
      <trkpt lat="41.591557300" lon="1.621877400">
        <ele>385.40</ele>
        <time>2018-05-26T08:07:48Z</time>
      </trkpt>
      <trkpt lat="41.591495400" lon="1.621525900">
        <ele>385.80</ele>
        <time>2018-05-26T08:07:52Z</time>
      </trkpt>
      <trkpt lat="41.591469200" lon="1.621340500">
        <ele>386.00</ele>
        <time>2018-05-26T08:07:54Z</time>
      </trkpt>
      <trkpt lat="41.591426700" lon="1.621072500">
        <ele>386.20</ele>
        <time>2018-05-26T08:07:57Z</time>
      </trkpt>
      <trkpt lat="41.591402800" lon="1.620895100">
        <ele>386.40</ele>
        <time>2018-05-26T08:07:59Z</time>
      </trkpt>
      <trkpt lat="41.591334300" lon="1.620441700">
        <ele>387.00</ele>
        <time>2018-05-26T08:08:04Z</time>
      </trkpt>
      <trkpt lat="41.591305500" lon="1.620177300">
        <ele>387.80</ele>
        <time>2018-05-26T08:08:07Z</time>
      </trkpt>
      <trkpt lat="41.591286000" lon="1.620009100">
        <ele>388.40</ele>
        <time>2018-05-26T08:08:09Z</time>
      </trkpt>
      <trkpt lat="41.591267000" lon="1.619839100">
        <ele>388.80</ele>
        <time>2018-05-26T08:08:11Z</time>
      </trkpt>
      <trkpt lat="41.591237100" lon="1.619580900">
        <ele>389.20</ele>
        <time>2018-05-26T08:08:14Z</time>
      </trkpt>
      <trkpt lat="41.591210700" lon="1.619323400">
        <ele>390.00</ele>
        <time>2018-05-26T08:08:17Z</time>
      </trkpt>
      <trkpt lat="41.591162300" lon="1.618903600">
        <ele>391.00</ele>
        <time>2018-05-26T08:08:22Z</time>
      </trkpt>
      <trkpt lat="41.591171700" lon="1.618741000">
        <ele>391.40</ele>
        <time>2018-05-26T08:08:24Z</time>
      </trkpt>
      <trkpt lat="41.591185100" lon="1.618585800">
        <ele>391.80</ele>
        <time>2018-05-26T08:08:26Z</time>
      </trkpt>
      <trkpt lat="41.591167100" lon="1.618423800">
        <ele>392.00</ele>
        <time>2018-05-26T08:08:28Z</time>
      </trkpt>
      <trkpt lat="41.591152700" lon="1.618256700">
        <ele>392.40</ele>
        <time>2018-05-26T08:08:30Z</time>
      </trkpt>
      <trkpt lat="41.591164600" lon="1.618016200">
        <ele>393.20</ele>
        <time>2018-05-26T08:08:33Z</time>
      </trkpt>
      <trkpt lat="41.591211100" lon="1.617531700">
        <ele>394.60</ele>
        <time>2018-05-26T08:08:39Z</time>
      </trkpt>
      <trkpt lat="41.591222500" lon="1.617368600">
        <ele>395.00</ele>
        <time>2018-05-26T08:08:41Z</time>
      </trkpt>
      <trkpt lat="41.591247800" lon="1.617052400">
        <ele>395.60</ele>
        <time>2018-05-26T08:08:45Z</time>
      </trkpt>
      <trkpt lat="41.591259500" lon="1.616893100">
        <ele>396.00</ele>
        <time>2018-05-26T08:08:47Z</time>
      </trkpt>
      <trkpt lat="41.591281700" lon="1.616562600">
        <ele>396.40</ele>
        <time>2018-05-26T08:08:51Z</time>
      </trkpt>
      <trkpt lat="41.591268600" lon="1.616395300">
        <ele>396.40</ele>
        <time>2018-05-26T08:08:53Z</time>
      </trkpt>
      <trkpt lat="41.591168200" lon="1.616085400">
        <ele>396.00</ele>
        <time>2018-05-26T08:08:57Z</time>
      </trkpt>
      <trkpt lat="41.591031600" lon="1.615886700">
        <ele>395.40</ele>
        <time>2018-05-26T08:09:00Z</time>
      </trkpt>
      <trkpt lat="41.590849800" lon="1.615749500">
        <ele>395.40</ele>
        <time>2018-05-26T08:09:03Z</time>
      </trkpt>
      <trkpt lat="41.590705100" lon="1.615717100">
        <ele>395.20</ele>
        <time>2018-05-26T08:09:05Z</time>
      </trkpt>
      <trkpt lat="41.590474500" lon="1.615692700">
        <ele>395.00</ele>
        <time>2018-05-26T08:09:08Z</time>
      </trkpt>
      <trkpt lat="41.590240500" lon="1.615669700">
        <ele>394.80</ele>
        <time>2018-05-26T08:09:11Z</time>
      </trkpt>
      <trkpt lat="41.590004600" lon="1.615620400">
        <ele>394.60</ele>
        <time>2018-05-26T08:09:14Z</time>
      </trkpt>
      <trkpt lat="41.589855600" lon="1.615570200">
        <ele>394.40</ele>
        <time>2018-05-26T08:09:16Z</time>
      </trkpt>
      <trkpt lat="41.589710300" lon="1.615512200">
        <ele>394.40</ele>
        <time>2018-05-26T08:09:18Z</time>
      </trkpt>
      <trkpt lat="41.589436400" lon="1.615388500">
        <ele>394.60</ele>
        <time>2018-05-26T08:09:22Z</time>
      </trkpt>
      <trkpt lat="41.589092500" lon="1.615226400">
        <ele>395.20</ele>
        <time>2018-05-26T08:09:27Z</time>
      </trkpt>
      <trkpt lat="41.588846500" lon="1.615100600">
        <ele>396.80</ele>
        <time>2018-05-26T08:09:31Z</time>
      </trkpt>
      <trkpt lat="41.588743400" lon="1.615051300">
        <ele>397.40</ele>
        <time>2018-05-26T08:09:33Z</time>
      </trkpt>
      <trkpt lat="41.588641600" lon="1.615013500">
        <ele>398.00</ele>
        <time>2018-05-26T08:09:35Z</time>
      </trkpt>
      <trkpt lat="41.588417900" lon="1.614946100">
        <ele>398.80</ele>
        <time>2018-05-26T08:09:39Z</time>
      </trkpt>
      <trkpt lat="41.588301400" lon="1.614892800">
        <ele>399.00</ele>
        <time>2018-05-26T08:09:41Z</time>
      </trkpt>
      <trkpt lat="41.588119500" lon="1.614800100">
        <ele>398.60</ele>
        <time>2018-05-26T08:09:44Z</time>
      </trkpt>
      <trkpt lat="41.587859200" lon="1.614674300">
        <ele>398.20</ele>
        <time>2018-05-26T08:09:48Z</time>
      </trkpt>
      <trkpt lat="41.587506600" lon="1.614525600">
        <ele>397.80</ele>
        <time>2018-05-26T08:09:53Z</time>
      </trkpt>
      <trkpt lat="41.587369200" lon="1.614470200">
        <ele>397.60</ele>
        <time>2018-05-26T08:09:55Z</time>
      </trkpt>
      <trkpt lat="41.587084700" lon="1.614340500">
        <ele>397.20</ele>
        <time>2018-05-26T08:09:59Z</time>
      </trkpt>
      <trkpt lat="41.586887100" lon="1.614212800">
        <ele>396.80</ele>
        <time>2018-05-26T08:10:02Z</time>
      </trkpt>
      <trkpt lat="41.586772900" lon="1.614134800">
        <ele>396.80</ele>
        <time>2018-05-26T08:10:04Z</time>
      </trkpt>
      <trkpt lat="41.586672900" lon="1.614026400">
        <ele>396.60</ele>
        <time>2018-05-26T08:10:06Z</time>
      </trkpt>
      <trkpt lat="41.586555400" lon="1.613849900">
        <ele>396.40</ele>
        <time>2018-05-26T08:10:09Z</time>
      </trkpt>
      <trkpt lat="41.586427800" lon="1.613818000">
        <ele>396.20</ele>
        <time>2018-05-26T08:10:11Z</time>
      </trkpt>
      <trkpt lat="41.586288400" lon="1.613789800">
        <ele>396.00</ele>
        <time>2018-05-26T08:10:13Z</time>
      </trkpt>
      <trkpt lat="41.586100700" lon="1.613655700">
        <ele>395.20</ele>
        <time>2018-05-26T08:10:16Z</time>
      </trkpt>
      <trkpt lat="41.585731300" lon="1.613279900">
        <ele>393.80</ele>
        <time>2018-05-26T08:10:22Z</time>
      </trkpt>
      <trkpt lat="41.585527000" lon="1.613078500">
        <ele>393.20</ele>
        <time>2018-05-26T08:10:25Z</time>
      </trkpt>
      <trkpt lat="41.585383700" lon="1.612937200">
        <ele>392.20</ele>
        <time>2018-05-26T08:10:27Z</time>
      </trkpt>
      <trkpt lat="41.585248600" lon="1.612806100">
        <ele>391.60</ele>
        <time>2018-05-26T08:10:29Z</time>
      </trkpt>
      <trkpt lat="41.585124200" lon="1.612684500">
        <ele>391.00</ele>
        <time>2018-05-26T08:10:31Z</time>
      </trkpt>
      <trkpt lat="41.584989400" lon="1.612558900">
        <ele>388.80</ele>
        <time>2018-05-26T08:10:33Z</time>
      </trkpt>
      <trkpt lat="41.584782400" lon="1.612359400">
        <ele>386.00</ele>
        <time>2018-05-26T08:10:36Z</time>
      </trkpt>
      <trkpt lat="41.584630000" lon="1.612233300">
        <ele>384.80</ele>
        <time>2018-05-26T08:10:38Z</time>
      </trkpt>
      <trkpt lat="41.584463500" lon="1.612126100">
        <ele>383.40</ele>
        <time>2018-05-26T08:10:40Z</time>
      </trkpt>
      <trkpt lat="41.584380200" lon="1.612077700">
        <ele>382.20</ele>
        <time>2018-05-26T08:10:41Z</time>
      </trkpt>
      <trkpt lat="41.584180400" lon="1.611966500">
        <ele>379.80</ele>
        <time>2018-05-26T08:10:44Z</time>
      </trkpt>
      <trkpt lat="41.584105400" lon="1.611850100">
        <ele>378.80</ele>
        <time>2018-05-26T08:10:46Z</time>
      </trkpt>
      <trkpt lat="41.584102500" lon="1.611590700">
        <ele>377.60</ele>
        <time>2018-05-26T08:10:49Z</time>
      </trkpt>
      <trkpt lat="41.584190800" lon="1.611000800">
        <ele>376.40</ele>
        <time>2018-05-26T08:10:56Z</time>
      </trkpt>
      <trkpt lat="41.584217400" lon="1.610828700">
        <ele>376.00</ele>
        <time>2018-05-26T08:10:59Z</time>
      </trkpt>
      <trkpt lat="41.584197600" lon="1.610675300">
        <ele>375.80</ele>
        <time>2018-05-26T08:11:02Z</time>
      </trkpt>
      <trkpt lat="41.584053800" lon="1.610581900">
        <ele>375.20</ele>
        <time>2018-05-26T08:11:05Z</time>
      </trkpt>
      <trkpt lat="41.583864200" lon="1.610523700">
        <ele>374.40</ele>
        <time>2018-05-26T08:11:08Z</time>
      </trkpt>
      <trkpt lat="41.583582300" lon="1.610447200">
        <ele>373.60</ele>
        <time>2018-05-26T08:11:12Z</time>
      </trkpt>
      <trkpt lat="41.583358200" lon="1.610364100">
        <ele>373.00</ele>
        <time>2018-05-26T08:11:15Z</time>
      </trkpt>
      <trkpt lat="41.583145800" lon="1.610282500">
        <ele>372.40</ele>
        <time>2018-05-26T08:11:18Z</time>
      </trkpt>
      <trkpt lat="41.583005400" lon="1.610237200">
        <ele>372.00</ele>
        <time>2018-05-26T08:11:20Z</time>
      </trkpt>
      <trkpt lat="41.582646800" lon="1.610147200">
        <ele>371.60</ele>
        <time>2018-05-26T08:11:25Z</time>
      </trkpt>
      <trkpt lat="41.582431500" lon="1.610080000">
        <ele>371.00</ele>
        <time>2018-05-26T08:11:28Z</time>
      </trkpt>
      <trkpt lat="41.582123300" lon="1.609985600">
        <ele>370.20</ele>
        <time>2018-05-26T08:11:32Z</time>
      </trkpt>
      <trkpt lat="41.581884600" lon="1.609925400">
        <ele>369.80</ele>
        <time>2018-05-26T08:11:35Z</time>
      </trkpt>
      <trkpt lat="41.581650300" lon="1.609866300">
        <ele>369.60</ele>
        <time>2018-05-26T08:11:38Z</time>
      </trkpt>
      <trkpt lat="41.581423200" lon="1.609795300">
        <ele>369.00</ele>
        <time>2018-05-26T08:11:41Z</time>
      </trkpt>
      <trkpt lat="41.581224000" lon="1.609742700">
        <ele>368.00</ele>
        <time>2018-05-26T08:11:44Z</time>
      </trkpt>
      <trkpt lat="41.581068300" lon="1.609688300">
        <ele>368.00</ele>
        <time>2018-05-26T08:11:48Z</time>
      </trkpt>
      <trkpt lat="41.580979400" lon="1.609663400">
        <ele>367.60</ele>
        <time>2018-05-26T08:11:53Z</time>
      </trkpt>
      <trkpt lat="41.580868800" lon="1.609671800">
        <ele>367.00</ele>
        <time>2018-05-26T08:12:49Z</time>
      </trkpt>
      <trkpt lat="41.580767100" lon="1.609690900">
        <ele>366.60</ele>
        <time>2018-05-26T08:12:53Z</time>
      </trkpt>
      <trkpt lat="41.580638700" lon="1.609546100">
        <ele>366.20</ele>
        <time>2018-05-26T08:12:56Z</time>
      </trkpt>
      <trkpt lat="41.580522000" lon="1.609461900">
        <ele>365.60</ele>
        <time>2018-05-26T08:12:58Z</time>
      </trkpt>
      <trkpt lat="41.580364100" lon="1.609317900">
        <ele>365.00</ele>
        <time>2018-05-26T08:13:01Z</time>
      </trkpt>
      <trkpt lat="41.580252100" lon="1.609202600">
        <ele>364.20</ele>
        <time>2018-05-26T08:13:03Z</time>
      </trkpt>
      <trkpt lat="41.580077300" lon="1.609012400">
        <ele>363.20</ele>
        <time>2018-05-26T08:13:06Z</time>
      </trkpt>
      <trkpt lat="41.579922200" lon="1.608755900">
        <ele>362.00</ele>
        <time>2018-05-26T08:13:09Z</time>
      </trkpt>
      <trkpt lat="41.579714800" lon="1.608522800">
        <ele>361.00</ele>
        <time>2018-05-26T08:13:12Z</time>
      </trkpt>
      <trkpt lat="41.579636900" lon="1.608450300">
        <ele>360.80</ele>
        <time>2018-05-26T08:13:13Z</time>
      </trkpt>
      <trkpt lat="41.579312100" lon="1.608108300">
        <ele>361.00</ele>
        <time>2018-05-26T08:13:18Z</time>
      </trkpt>
      <trkpt lat="41.579042800" lon="1.607801100">
        <ele>360.80</ele>
        <time>2018-05-26T08:13:23Z</time>
      </trkpt>
      <trkpt lat="41.578933100" lon="1.607682100">
        <ele>360.60</ele>
        <time>2018-05-26T08:13:25Z</time>
      </trkpt>
      <trkpt lat="41.578826800" lon="1.607570200">
        <ele>360.80</ele>
        <time>2018-05-26T08:13:27Z</time>
      </trkpt>
      <trkpt lat="41.578626600" lon="1.607346000">
        <ele>360.80</ele>
        <time>2018-05-26T08:13:31Z</time>
      </trkpt>
      <trkpt lat="41.578541200" lon="1.607216900">
        <ele>360.40</ele>
        <time>2018-05-26T08:13:33Z</time>
      </trkpt>
      <trkpt lat="41.578470700" lon="1.607072700">
        <ele>360.20</ele>
        <time>2018-05-26T08:13:35Z</time>
      </trkpt>
      <trkpt lat="41.578359000" lon="1.607010000">
        <ele>359.60</ele>
        <time>2018-05-26T08:13:37Z</time>
      </trkpt>
      <trkpt lat="41.578225300" lon="1.607083100">
        <ele>359.20</ele>
        <time>2018-05-26T08:13:39Z</time>
      </trkpt>
      <trkpt lat="41.578030300" lon="1.607220000">
        <ele>358.40</ele>
        <time>2018-05-26T08:13:42Z</time>
      </trkpt>
      <trkpt lat="41.577754600" lon="1.607391500">
        <ele>357.80</ele>
        <time>2018-05-26T08:13:46Z</time>
      </trkpt>
      <trkpt lat="41.577487700" lon="1.607563000">
        <ele>357.20</ele>
        <time>2018-05-26T08:13:50Z</time>
      </trkpt>
      <trkpt lat="41.577350800" lon="1.607642100">
        <ele>357.00</ele>
        <time>2018-05-26T08:13:52Z</time>
      </trkpt>
      <trkpt lat="41.577059900" lon="1.607809800">
        <ele>356.60</ele>
        <time>2018-05-26T08:13:57Z</time>
      </trkpt>
      <trkpt lat="41.576965900" lon="1.607876300">
        <ele>357.00</ele>
        <time>2018-05-26T08:14:01Z</time>
      </trkpt>
      <trkpt lat="41.576776900" lon="1.607961300">
        <ele>356.40</ele>
        <time>2018-05-26T08:14:08Z</time>
      </trkpt>
      <trkpt lat="41.576663200" lon="1.608014700">
        <ele>356.20</ele>
        <time>2018-05-26T08:14:11Z</time>
      </trkpt>
      <trkpt lat="41.576517000" lon="1.608061200">
        <ele>355.80</ele>
        <time>2018-05-26T08:14:14Z</time>
      </trkpt>
      <trkpt lat="41.576320900" lon="1.608109500">
        <ele>355.00</ele>
        <time>2018-05-26T08:14:17Z</time>
      </trkpt>
      <trkpt lat="41.575769400" lon="1.608109100">
        <ele>354.20</ele>
        <time>2018-05-26T08:14:25Z</time>
      </trkpt>
      <trkpt lat="41.575327300" lon="1.608019900">
        <ele>354.60</ele>
        <time>2018-05-26T08:14:32Z</time>
      </trkpt>
      <trkpt lat="41.575164100" lon="1.608132300">
        <ele>354.20</ele>
        <time>2018-05-26T08:14:35Z</time>
      </trkpt>
      <trkpt lat="41.574943800" lon="1.608239300">
        <ele>355.60</ele>
        <time>2018-05-26T08:14:39Z</time>
      </trkpt>
      <trkpt lat="41.574838200" lon="1.608264900">
        <ele>356.40</ele>
        <time>2018-05-26T08:14:41Z</time>
      </trkpt>
      <trkpt lat="41.574732600" lon="1.608287100">
        <ele>356.80</ele>
        <time>2018-05-26T08:14:43Z</time>
      </trkpt>
      <trkpt lat="41.574582400" lon="1.608331200">
        <ele>357.60</ele>
        <time>2018-05-26T08:14:46Z</time>
      </trkpt>
      <trkpt lat="41.574489400" lon="1.608357100">
        <ele>358.00</ele>
        <time>2018-05-26T08:14:48Z</time>
      </trkpt>
      <trkpt lat="41.574283500" lon="1.608425000">
        <ele>359.20</ele>
        <time>2018-05-26T08:14:53Z</time>
      </trkpt>
      <trkpt lat="41.573998900" lon="1.608508500">
        <ele>360.80</ele>
        <time>2018-05-26T08:15:00Z</time>
      </trkpt>
      <trkpt lat="41.573902700" lon="1.608537600">
        <ele>361.00</ele>
        <time>2018-05-26T08:15:02Z</time>
      </trkpt>
      <trkpt lat="41.573719700" lon="1.608600600">
        <ele>361.80</ele>
        <time>2018-05-26T08:15:06Z</time>
      </trkpt>
      <trkpt lat="41.573631400" lon="1.608628800">
        <ele>362.20</ele>
        <time>2018-05-26T08:15:08Z</time>
      </trkpt>
      <trkpt lat="41.573292600" lon="1.608727200">
        <ele>364.00</ele>
        <time>2018-05-26T08:15:16Z</time>
      </trkpt>
      <trkpt lat="41.573071900" lon="1.608762600">
        <ele>365.20</ele>
        <time>2018-05-26T08:15:21Z</time>
      </trkpt>
      <trkpt lat="41.572816200" lon="1.608838200">
        <ele>366.20</ele>
        <time>2018-05-26T08:15:27Z</time>
      </trkpt>
      <trkpt lat="41.572640500" lon="1.608891700">
        <ele>367.20</ele>
        <time>2018-05-26T08:15:31Z</time>
      </trkpt>
      <trkpt lat="41.572327200" lon="1.608972100">
        <ele>368.40</ele>
        <time>2018-05-26T08:15:38Z</time>
      </trkpt>
      <trkpt lat="41.572142600" lon="1.609024600">
        <ele>369.40</ele>
        <time>2018-05-26T08:15:42Z</time>
      </trkpt>
      <trkpt lat="41.572041200" lon="1.609054300">
        <ele>370.00</ele>
        <time>2018-05-26T08:15:44Z</time>
      </trkpt>
      <trkpt lat="41.571892500" lon="1.609094800">
        <ele>370.60</ele>
        <time>2018-05-26T08:15:47Z</time>
      </trkpt>
      <trkpt lat="41.571611200" lon="1.609182400">
        <ele>371.80</ele>
        <time>2018-05-26T08:15:53Z</time>
      </trkpt>
      <trkpt lat="41.571393500" lon="1.609249700">
        <ele>372.80</ele>
        <time>2018-05-26T08:15:58Z</time>
      </trkpt>
      <trkpt lat="41.571300400" lon="1.609277800">
        <ele>373.20</ele>
        <time>2018-05-26T08:16:00Z</time>
      </trkpt>
      <trkpt lat="41.571166300" lon="1.609314000">
        <ele>374.00</ele>
        <time>2018-05-26T08:16:03Z</time>
      </trkpt>
      <trkpt lat="41.570949700" lon="1.609421400">
        <ele>375.00</ele>
        <time>2018-05-26T08:16:08Z</time>
      </trkpt>
      <trkpt lat="41.570727000" lon="1.609462200">
        <ele>376.00</ele>
        <time>2018-05-26T08:16:13Z</time>
      </trkpt>
      <trkpt lat="41.570636000" lon="1.609489600">
        <ele>376.40</ele>
        <time>2018-05-26T08:16:15Z</time>
      </trkpt>
      <trkpt lat="41.570458200" lon="1.609543500">
        <ele>377.20</ele>
        <time>2018-05-26T08:16:19Z</time>
      </trkpt>
      <trkpt lat="41.570188700" lon="1.609628600">
        <ele>378.60</ele>
        <time>2018-05-26T08:16:25Z</time>
      </trkpt>
      <trkpt lat="41.569918400" lon="1.609699100">
        <ele>379.60</ele>
        <time>2018-05-26T08:16:31Z</time>
      </trkpt>
      <trkpt lat="41.569824400" lon="1.609708000">
        <ele>380.20</ele>
        <time>2018-05-26T08:16:33Z</time>
      </trkpt>
      <trkpt lat="41.569730500" lon="1.609698400">
        <ele>380.60</ele>
        <time>2018-05-26T08:16:35Z</time>
      </trkpt>
      <trkpt lat="41.569597100" lon="1.609652700">
        <ele>381.20</ele>
        <time>2018-05-26T08:16:38Z</time>
      </trkpt>
      <trkpt lat="41.569350900" lon="1.609513500">
        <ele>383.00</ele>
        <time>2018-05-26T08:16:44Z</time>
      </trkpt>
      <trkpt lat="41.569172100" lon="1.609357900">
        <ele>384.20</ele>
        <time>2018-05-26T08:16:49Z</time>
      </trkpt>
      <trkpt lat="41.569028500" lon="1.609225900">
        <ele>385.20</ele>
        <time>2018-05-26T08:16:53Z</time>
      </trkpt>
      <trkpt lat="41.568912800" lon="1.609144300">
        <ele>386.20</ele>
        <time>2018-05-26T08:16:56Z</time>
      </trkpt>
      <trkpt lat="41.568741500" lon="1.609063700">
        <ele>386.20</ele>
        <time>2018-05-26T08:17:00Z</time>
      </trkpt>
      <trkpt lat="41.568673800" lon="1.608967000">
        <ele>386.60</ele>
        <time>2018-05-26T08:17:02Z</time>
      </trkpt>
      <trkpt lat="41.568633600" lon="1.608845400">
        <ele>386.80</ele>
        <time>2018-05-26T08:17:04Z</time>
      </trkpt>
      <trkpt lat="41.568561400" lon="1.608669300">
        <ele>386.80</ele>
        <time>2018-05-26T08:17:07Z</time>
      </trkpt>
      <trkpt lat="41.568444500" lon="1.608534700">
        <ele>386.80</ele>
        <time>2018-05-26T08:17:10Z</time>
      </trkpt>
      <trkpt lat="41.568303700" lon="1.608462600">
        <ele>387.40</ele>
        <time>2018-05-26T08:17:13Z</time>
      </trkpt>
      <trkpt lat="41.568202900" lon="1.608443600">
        <ele>387.60</ele>
        <time>2018-05-26T08:17:15Z</time>
      </trkpt>
      <trkpt lat="41.567968800" lon="1.608553500">
        <ele>388.60</ele>
        <time>2018-05-26T08:17:20Z</time>
      </trkpt>
      <trkpt lat="41.567846600" lon="1.608771600">
        <ele>388.80</ele>
        <time>2018-05-26T08:17:24Z</time>
      </trkpt>
      <trkpt lat="41.567807800" lon="1.608978500">
        <ele>389.20</ele>
        <time>2018-05-26T08:17:27Z</time>
      </trkpt>
      <trkpt lat="41.567760600" lon="1.609111400">
        <ele>389.00</ele>
        <time>2018-05-26T08:17:29Z</time>
      </trkpt>
      <trkpt lat="41.567619000" lon="1.609223500">
        <ele>389.20</ele>
        <time>2018-05-26T08:17:32Z</time>
      </trkpt>
      <trkpt lat="41.567518000" lon="1.609210100">
        <ele>389.60</ele>
        <time>2018-05-26T08:17:34Z</time>
      </trkpt>
      <trkpt lat="41.567377600" lon="1.609157000">
        <ele>390.40</ele>
        <time>2018-05-26T08:17:37Z</time>
      </trkpt>
      <trkpt lat="41.567285200" lon="1.609130100">
        <ele>390.80</ele>
        <time>2018-05-26T08:17:39Z</time>
      </trkpt>
      <trkpt lat="41.567190800" lon="1.609121800">
        <ele>391.40</ele>
        <time>2018-05-26T08:17:41Z</time>
      </trkpt>
      <trkpt lat="41.567100400" lon="1.609129900">
        <ele>392.00</ele>
        <time>2018-05-26T08:17:44Z</time>
      </trkpt>
      <trkpt lat="41.566914900" lon="1.609142100">
        <ele>392.40</ele>
        <time>2018-05-26T08:17:48Z</time>
      </trkpt>
      <trkpt lat="41.566658100" lon="1.609181100">
        <ele>394.00</ele>
        <time>2018-05-26T08:17:54Z</time>
      </trkpt>
      <trkpt lat="41.566457700" lon="1.609215900">
        <ele>395.40</ele>
        <time>2018-05-26T08:17:59Z</time>
      </trkpt>
      <trkpt lat="41.566295200" lon="1.609270300">
        <ele>396.60</ele>
        <time>2018-05-26T08:18:03Z</time>
      </trkpt>
      <trkpt lat="41.566116200" lon="1.609284600">
        <ele>397.80</ele>
        <time>2018-05-26T08:18:07Z</time>
      </trkpt>
      <trkpt lat="41.565940500" lon="1.609241500">
        <ele>398.80</ele>
        <time>2018-05-26T08:18:11Z</time>
      </trkpt>
      <trkpt lat="41.565850300" lon="1.609261800">
        <ele>398.80</ele>
        <time>2018-05-26T08:18:13Z</time>
      </trkpt>
      <trkpt lat="41.565719100" lon="1.609335700">
        <ele>399.00</ele>
        <time>2018-05-26T08:18:16Z</time>
      </trkpt>
      <trkpt lat="41.565579300" lon="1.609337100">
        <ele>399.60</ele>
        <time>2018-05-26T08:18:19Z</time>
      </trkpt>
      <trkpt lat="41.565487200" lon="1.609321400">
        <ele>399.80</ele>
        <time>2018-05-26T08:18:21Z</time>
      </trkpt>
      <trkpt lat="41.565312200" lon="1.609272000">
        <ele>401.00</ele>
        <time>2018-05-26T08:18:25Z</time>
      </trkpt>
      <trkpt lat="41.565095200" lon="1.609247100">
        <ele>402.00</ele>
        <time>2018-05-26T08:18:30Z</time>
      </trkpt>
      <trkpt lat="41.564916300" lon="1.609285300">
        <ele>403.00</ele>
        <time>2018-05-26T08:18:34Z</time>
      </trkpt>
      <trkpt lat="41.564677200" lon="1.609355600">
        <ele>404.20</ele>
        <time>2018-05-26T08:18:39Z</time>
      </trkpt>
      <trkpt lat="41.564389100" lon="1.609439300">
        <ele>405.20</ele>
        <time>2018-05-26T08:18:45Z</time>
      </trkpt>
      <trkpt lat="41.564072500" lon="1.609482700">
        <ele>405.60</ele>
        <time>2018-05-26T08:18:51Z</time>
      </trkpt>
      <trkpt lat="41.563804300" lon="1.609376400">
        <ele>406.20</ele>
        <time>2018-05-26T08:18:56Z</time>
      </trkpt>
      <trkpt lat="41.563328000" lon="1.609118500">
        <ele>407.20</ele>
        <time>2018-05-26T08:19:05Z</time>
      </trkpt>
      <trkpt lat="41.563066300" lon="1.608974000">
        <ele>407.80</ele>
        <time>2018-05-26T08:19:10Z</time>
      </trkpt>
      <trkpt lat="41.562860900" lon="1.608862000">
        <ele>408.20</ele>
        <time>2018-05-26T08:19:14Z</time>
      </trkpt>
      <trkpt lat="41.562652200" lon="1.608747300">
        <ele>409.00</ele>
        <time>2018-05-26T08:19:18Z</time>
      </trkpt>
      <trkpt lat="41.562449900" lon="1.608636300">
        <ele>409.40</ele>
        <time>2018-05-26T08:19:22Z</time>
      </trkpt>
      <trkpt lat="41.562142000" lon="1.608435700">
        <ele>410.00</ele>
        <time>2018-05-26T08:19:28Z</time>
      </trkpt>
      <trkpt lat="41.561917900" lon="1.608312600">
        <ele>410.40</ele>
        <time>2018-05-26T08:19:32Z</time>
      </trkpt>
      <trkpt lat="41.561594500" lon="1.608151300">
        <ele>411.20</ele>
        <time>2018-05-26T08:19:38Z</time>
      </trkpt>
      <trkpt lat="41.561484500" lon="1.608094700">
        <ele>411.60</ele>
        <time>2018-05-26T08:19:40Z</time>
      </trkpt>
      <trkpt lat="41.561160100" lon="1.607926600">
        <ele>412.60</ele>
        <time>2018-05-26T08:19:46Z</time>
      </trkpt>
      <trkpt lat="41.560841900" lon="1.607760200">
        <ele>413.40</ele>
        <time>2018-05-26T08:19:52Z</time>
      </trkpt>
      <trkpt lat="41.560736700" lon="1.607708000">
        <ele>413.80</ele>
        <time>2018-05-26T08:19:54Z</time>
      </trkpt>
      <trkpt lat="41.560632700" lon="1.607652900">
        <ele>414.00</ele>
        <time>2018-05-26T08:19:56Z</time>
      </trkpt>
      <trkpt lat="41.560329600" lon="1.607460500">
        <ele>414.80</ele>
        <time>2018-05-26T08:20:02Z</time>
      </trkpt>
      <trkpt lat="41.560241500" lon="1.607372300">
        <ele>415.20</ele>
        <time>2018-05-26T08:20:04Z</time>
      </trkpt>
      <trkpt lat="41.560121200" lon="1.607220100">
        <ele>416.00</ele>
        <time>2018-05-26T08:20:07Z</time>
      </trkpt>
      <trkpt lat="41.559939300" lon="1.606950100">
        <ele>417.00</ele>
        <time>2018-05-26T08:20:12Z</time>
      </trkpt>
      <trkpt lat="41.559635000" lon="1.606585500">
        <ele>417.20</ele>
        <time>2018-05-26T08:20:19Z</time>
      </trkpt>
      <trkpt lat="41.559413200" lon="1.606416800">
        <ele>417.20</ele>
        <time>2018-05-26T08:20:23Z</time>
      </trkpt>
      <trkpt lat="41.559297100" lon="1.606338300">
        <ele>417.00</ele>
        <time>2018-05-26T08:20:25Z</time>
      </trkpt>
      <trkpt lat="41.559068200" lon="1.606182600">
        <ele>417.20</ele>
        <time>2018-05-26T08:20:29Z</time>
      </trkpt>
      <trkpt lat="41.558852600" lon="1.606040600">
        <ele>417.40</ele>
        <time>2018-05-26T08:20:33Z</time>
      </trkpt>
      <trkpt lat="41.558753500" lon="1.605972200">
        <ele>418.20</ele>
        <time>2018-05-26T08:20:35Z</time>
      </trkpt>
      <trkpt lat="41.558468300" lon="1.605774900">
        <ele>419.40</ele>
        <time>2018-05-26T08:20:41Z</time>
      </trkpt>
      <trkpt lat="41.558240200" lon="1.605620900">
        <ele>420.80</ele>
        <time>2018-05-26T08:20:46Z</time>
      </trkpt>
      <trkpt lat="41.558149100" lon="1.605560900">
        <ele>421.20</ele>
        <time>2018-05-26T08:20:48Z</time>
      </trkpt>
      <trkpt lat="41.558058300" lon="1.605500000">
        <ele>421.60</ele>
        <time>2018-05-26T08:20:50Z</time>
      </trkpt>
      <trkpt lat="41.557969800" lon="1.605440100">
        <ele>422.00</ele>
        <time>2018-05-26T08:20:52Z</time>
      </trkpt>
      <trkpt lat="41.557839800" lon="1.605359500">
        <ele>422.80</ele>
        <time>2018-05-26T08:20:55Z</time>
      </trkpt>
      <trkpt lat="41.557755500" lon="1.605297800">
        <ele>423.40</ele>
        <time>2018-05-26T08:20:57Z</time>
      </trkpt>
      <trkpt lat="41.557616900" lon="1.605139400">
        <ele>424.40</ele>
        <time>2018-05-26T08:21:01Z</time>
      </trkpt>
      <trkpt lat="41.557540900" lon="1.604978100">
        <ele>424.80</ele>
        <time>2018-05-26T08:21:04Z</time>
      </trkpt>
      <trkpt lat="41.557488100" lon="1.604791300">
        <ele>425.40</ele>
        <time>2018-05-26T08:21:07Z</time>
      </trkpt>
      <trkpt lat="41.557380800" lon="1.604396900">
        <ele>426.60</ele>
        <time>2018-05-26T08:21:13Z</time>
      </trkpt>
      <trkpt lat="41.557342800" lon="1.604256000">
        <ele>426.80</ele>
        <time>2018-05-26T08:21:15Z</time>
      </trkpt>
      <trkpt lat="41.557217900" lon="1.603769700">
        <ele>427.80</ele>
        <time>2018-05-26T08:21:22Z</time>
      </trkpt>
      <trkpt lat="41.557124200" lon="1.603423000">
        <ele>428.20</ele>
        <time>2018-05-26T08:21:27Z</time>
      </trkpt>
      <trkpt lat="41.557067100" lon="1.603221900">
        <ele>428.40</ele>
        <time>2018-05-26T08:21:30Z</time>
      </trkpt>
      <trkpt lat="41.557025300" lon="1.603090100">
        <ele>428.80</ele>
        <time>2018-05-26T08:21:32Z</time>
      </trkpt>
      <trkpt lat="41.556910400" lon="1.602867200">
        <ele>429.00</ele>
        <time>2018-05-26T08:21:36Z</time>
      </trkpt>
      <trkpt lat="41.556716800" lon="1.602627700">
        <ele>430.00</ele>
        <time>2018-05-26T08:21:41Z</time>
      </trkpt>
      <trkpt lat="41.556512800" lon="1.602391800">
        <ele>430.80</ele>
        <time>2018-05-26T08:21:46Z</time>
      </trkpt>
      <trkpt lat="41.556261200" lon="1.602130100">
        <ele>432.00</ele>
        <time>2018-05-26T08:21:52Z</time>
      </trkpt>
      <trkpt lat="41.555990500" lon="1.601856200">
        <ele>433.20</ele>
        <time>2018-05-26T08:21:58Z</time>
      </trkpt>
      <trkpt lat="41.555858000" lon="1.601724000">
        <ele>433.60</ele>
        <time>2018-05-26T08:22:01Z</time>
      </trkpt>
      <trkpt lat="41.555710900" lon="1.601576300">
        <ele>434.20</ele>
        <time>2018-05-26T08:22:04Z</time>
      </trkpt>
      <trkpt lat="41.555486100" lon="1.601337400">
        <ele>435.00</ele>
        <time>2018-05-26T08:22:09Z</time>
      </trkpt>
      <trkpt lat="41.555142700" lon="1.600965600">
        <ele>436.80</ele>
        <time>2018-05-26T08:22:17Z</time>
      </trkpt>
      <trkpt lat="41.555062600" lon="1.600874600">
        <ele>437.20</ele>
        <time>2018-05-26T08:22:19Z</time>
      </trkpt>
      <trkpt lat="41.554761100" lon="1.600558200">
        <ele>438.40</ele>
        <time>2018-05-26T08:22:26Z</time>
      </trkpt>
      <trkpt lat="41.554503400" lon="1.600285400">
        <ele>439.60</ele>
        <time>2018-05-26T08:22:32Z</time>
      </trkpt>
      <trkpt lat="41.554279000" lon="1.600054900">
        <ele>440.60</ele>
        <time>2018-05-26T08:22:37Z</time>
      </trkpt>
      <trkpt lat="41.554110800" lon="1.599870700">
        <ele>441.40</ele>
        <time>2018-05-26T08:22:41Z</time>
      </trkpt>
      <trkpt lat="41.554029800" lon="1.599777400">
        <ele>441.60</ele>
        <time>2018-05-26T08:22:43Z</time>
      </trkpt>
      <trkpt lat="41.553818100" lon="1.599437000">
        <ele>442.60</ele>
        <time>2018-05-26T08:22:49Z</time>
      </trkpt>
      <trkpt lat="41.553674900" lon="1.599086400">
        <ele>442.40</ele>
        <time>2018-05-26T08:22:54Z</time>
      </trkpt>
      <trkpt lat="41.553563500" lon="1.598799100">
        <ele>442.20</ele>
        <time>2018-05-26T08:22:58Z</time>
      </trkpt>
      <trkpt lat="41.553447300" lon="1.598493000">
        <ele>442.40</ele>
        <time>2018-05-26T08:23:02Z</time>
      </trkpt>
      <trkpt lat="41.553270700" lon="1.598051200">
        <ele>442.80</ele>
        <time>2018-05-26T08:23:08Z</time>
      </trkpt>
      <trkpt lat="41.553171700" lon="1.597788500">
        <ele>443.80</ele>
        <time>2018-05-26T08:23:12Z</time>
      </trkpt>
      <trkpt lat="41.553032400" lon="1.597419800">
        <ele>445.20</ele>
        <time>2018-05-26T08:23:18Z</time>
      </trkpt>
      <trkpt lat="41.552979400" lon="1.597306200">
        <ele>445.80</ele>
        <time>2018-05-26T08:23:20Z</time>
      </trkpt>
      <trkpt lat="41.552920900" lon="1.597199700">
        <ele>446.60</ele>
        <time>2018-05-26T08:23:22Z</time>
      </trkpt>
      <trkpt lat="41.552860100" lon="1.597097300">
        <ele>447.20</ele>
        <time>2018-05-26T08:23:24Z</time>
      </trkpt>
      <trkpt lat="41.552763700" lon="1.596940600">
        <ele>447.80</ele>
        <time>2018-05-26T08:23:27Z</time>
      </trkpt>
      <trkpt lat="41.552599500" lon="1.596697600">
        <ele>449.00</ele>
        <time>2018-05-26T08:23:32Z</time>
      </trkpt>
      <trkpt lat="41.552434000" lon="1.596456900">
        <ele>450.20</ele>
        <time>2018-05-26T08:23:37Z</time>
      </trkpt>
      <trkpt lat="41.552303100" lon="1.596270500">
        <ele>451.40</ele>
        <time>2018-05-26T08:23:41Z</time>
      </trkpt>
      <trkpt lat="41.552141900" lon="1.596011900">
        <ele>452.60</ele>
        <time>2018-05-26T08:23:46Z</time>
      </trkpt>
      <trkpt lat="41.552058900" lon="1.595760800">
        <ele>453.60</ele>
        <time>2018-05-26T08:23:50Z</time>
      </trkpt>
      <trkpt lat="41.552045500" lon="1.595626700">
        <ele>454.00</ele>
        <time>2018-05-26T08:23:52Z</time>
      </trkpt>
      <trkpt lat="41.552041900" lon="1.595494200">
        <ele>454.60</ele>
        <time>2018-05-26T08:23:54Z</time>
      </trkpt>
      <trkpt lat="41.552059500" lon="1.595157100">
        <ele>455.80</ele>
        <time>2018-05-26T08:23:59Z</time>
      </trkpt>
      <trkpt lat="41.552073700" lon="1.594821300">
        <ele>457.00</ele>
        <time>2018-05-26T08:24:04Z</time>
      </trkpt>
      <trkpt lat="41.552065300" lon="1.594621400">
        <ele>457.80</ele>
        <time>2018-05-26T08:24:07Z</time>
      </trkpt>
      <trkpt lat="41.552043800" lon="1.594363000">
        <ele>459.20</ele>
        <time>2018-05-26T08:24:11Z</time>
      </trkpt>
      <trkpt lat="41.551995300" lon="1.594113900">
        <ele>460.20</ele>
        <time>2018-05-26T08:24:15Z</time>
      </trkpt>
      <trkpt lat="41.551898400" lon="1.593813100">
        <ele>461.40</ele>
        <time>2018-05-26T08:24:20Z</time>
      </trkpt>
      <trkpt lat="41.551834100" lon="1.593634300">
        <ele>462.00</ele>
        <time>2018-05-26T08:24:23Z</time>
      </trkpt>
      <trkpt lat="41.551789000" lon="1.593515800">
        <ele>462.40</ele>
        <time>2018-05-26T08:24:25Z</time>
      </trkpt>
      <trkpt lat="41.551671000" lon="1.593216300">
        <ele>463.40</ele>
        <time>2018-05-26T08:24:30Z</time>
      </trkpt>
      <trkpt lat="41.551580400" lon="1.592979400">
        <ele>464.80</ele>
        <time>2018-05-26T08:24:34Z</time>
      </trkpt>
      <trkpt lat="41.551467000" lon="1.592686000">
        <ele>466.00</ele>
        <time>2018-05-26T08:24:39Z</time>
      </trkpt>
      <trkpt lat="41.551352400" lon="1.592385500">
        <ele>467.20</ele>
        <time>2018-05-26T08:24:44Z</time>
      </trkpt>
      <trkpt lat="41.551257100" lon="1.592137700">
        <ele>468.20</ele>
        <time>2018-05-26T08:24:48Z</time>
      </trkpt>
      <trkpt lat="41.551160500" lon="1.591881300">
        <ele>469.40</ele>
        <time>2018-05-26T08:24:52Z</time>
      </trkpt>
      <trkpt lat="41.551109500" lon="1.591752900">
        <ele>470.00</ele>
        <time>2018-05-26T08:24:54Z</time>
      </trkpt>
      <trkpt lat="41.551056800" lon="1.591621600">
        <ele>470.60</ele>
        <time>2018-05-26T08:24:56Z</time>
      </trkpt>
      <trkpt lat="41.550919400" lon="1.591386000">
        <ele>471.60</ele>
        <time>2018-05-26T08:25:00Z</time>
      </trkpt>
      <trkpt lat="41.550613000" lon="1.591159400">
        <ele>471.80</ele>
        <time>2018-05-26T08:25:06Z</time>
      </trkpt>
      <trkpt lat="41.550438100" lon="1.591098000">
        <ele>471.60</ele>
        <time>2018-05-26T08:25:09Z</time>
      </trkpt>
      <trkpt lat="41.550275500" lon="1.591006900">
        <ele>471.80</ele>
        <time>2018-05-26T08:25:12Z</time>
      </trkpt>
      <trkpt lat="41.550106200" lon="1.590797300">
        <ele>472.40</ele>
        <time>2018-05-26T08:25:16Z</time>
      </trkpt>
      <trkpt lat="41.549885900" lon="1.590453300">
        <ele>474.00</ele>
        <time>2018-05-26T08:25:22Z</time>
      </trkpt>
      <trkpt lat="41.549743000" lon="1.590219800">
        <ele>474.60</ele>
        <time>2018-05-26T08:25:26Z</time>
      </trkpt>
      <trkpt lat="41.549674400" lon="1.590099700">
        <ele>475.00</ele>
        <time>2018-05-26T08:25:28Z</time>
      </trkpt>
      <trkpt lat="41.549484900" lon="1.589721700">
        <ele>476.00</ele>
        <time>2018-05-26T08:25:34Z</time>
      </trkpt>
      <trkpt lat="41.549422800" lon="1.589593500">
        <ele>476.40</ele>
        <time>2018-05-26T08:25:36Z</time>
      </trkpt>
      <trkpt lat="41.549301400" lon="1.589347000">
        <ele>477.00</ele>
        <time>2018-05-26T08:25:40Z</time>
      </trkpt>
      <trkpt lat="41.549122400" lon="1.588978300">
        <ele>478.00</ele>
        <time>2018-05-26T08:25:46Z</time>
      </trkpt>
      <trkpt lat="41.548936600" lon="1.588593400">
        <ele>479.20</ele>
        <time>2018-05-26T08:25:52Z</time>
      </trkpt>
      <trkpt lat="41.548801900" lon="1.588339100">
        <ele>480.00</ele>
        <time>2018-05-26T08:25:56Z</time>
      </trkpt>
      <trkpt lat="41.548732900" lon="1.588219500">
        <ele>480.40</ele>
        <time>2018-05-26T08:25:58Z</time>
      </trkpt>
      <trkpt lat="41.548512300" lon="1.587879600">
        <ele>481.60</ele>
        <time>2018-05-26T08:26:04Z</time>
      </trkpt>
      <trkpt lat="41.548242600" lon="1.587487900">
        <ele>482.60</ele>
        <time>2018-05-26T08:26:11Z</time>
      </trkpt>
      <trkpt lat="41.548165800" lon="1.587376100">
        <ele>483.20</ele>
        <time>2018-05-26T08:26:13Z</time>
      </trkpt>
      <trkpt lat="41.548048500" lon="1.587204300">
        <ele>483.60</ele>
        <time>2018-05-26T08:26:16Z</time>
      </trkpt>
      <trkpt lat="41.547813500" lon="1.586862700">
        <ele>484.80</ele>
        <time>2018-05-26T08:26:22Z</time>
      </trkpt>
      <trkpt lat="41.547695300" lon="1.586695200">
        <ele>485.40</ele>
        <time>2018-05-26T08:26:25Z</time>
      </trkpt>
      <trkpt lat="41.547607700" lon="1.586578400">
        <ele>485.80</ele>
        <time>2018-05-26T08:26:27Z</time>
      </trkpt>
      <trkpt lat="41.547331100" lon="1.586216800">
        <ele>486.00</ele>
        <time>2018-05-26T08:26:33Z</time>
      </trkpt>
      <trkpt lat="41.547001000" lon="1.585803200">
        <ele>486.80</ele>
        <time>2018-05-26T08:26:40Z</time>
      </trkpt>
      <trkpt lat="41.546866000" lon="1.585621700">
        <ele>487.00</ele>
        <time>2018-05-26T08:26:43Z</time>
      </trkpt>
      <trkpt lat="41.546778600" lon="1.585498400">
        <ele>487.40</ele>
        <time>2018-05-26T08:26:45Z</time>
      </trkpt>
      <trkpt lat="41.546535700" lon="1.585089900">
        <ele>487.60</ele>
        <time>2018-05-26T08:26:51Z</time>
      </trkpt>
      <trkpt lat="41.546350900" lon="1.584726700">
        <ele>487.80</ele>
        <time>2018-05-26T08:26:56Z</time>
      </trkpt>
      <trkpt lat="41.546207200" lon="1.584436800">
        <ele>488.20</ele>
        <time>2018-05-26T08:27:00Z</time>
      </trkpt>
      <trkpt lat="41.546030800" lon="1.584079300">
        <ele>488.80</ele>
        <time>2018-05-26T08:27:05Z</time>
      </trkpt>
      <trkpt lat="41.545900400" lon="1.583782100">
        <ele>489.20</ele>
        <time>2018-05-26T08:27:09Z</time>
      </trkpt>
      <trkpt lat="41.545776700" lon="1.583488600">
        <ele>490.00</ele>
        <time>2018-05-26T08:27:13Z</time>
      </trkpt>
      <trkpt lat="41.545631100" lon="1.583122200">
        <ele>490.60</ele>
        <time>2018-05-26T08:27:18Z</time>
      </trkpt>
      <trkpt lat="41.545578400" lon="1.582977600">
        <ele>491.20</ele>
        <time>2018-05-26T08:27:20Z</time>
      </trkpt>
      <trkpt lat="41.545513000" lon="1.582756300">
        <ele>492.20</ele>
        <time>2018-05-26T08:27:23Z</time>
      </trkpt>
      <trkpt lat="41.545459000" lon="1.582532200">
        <ele>492.80</ele>
        <time>2018-05-26T08:27:26Z</time>
      </trkpt>
      <trkpt lat="41.545350200" lon="1.582084400">
        <ele>494.00</ele>
        <time>2018-05-26T08:27:32Z</time>
      </trkpt>
      <trkpt lat="41.545312700" lon="1.581941900">
        <ele>494.40</ele>
        <time>2018-05-26T08:27:34Z</time>
      </trkpt>
      <trkpt lat="41.545272000" lon="1.581805100">
        <ele>494.80</ele>
        <time>2018-05-26T08:27:36Z</time>
      </trkpt>
      <trkpt lat="41.545183500" lon="1.581610900">
        <ele>495.60</ele>
        <time>2018-05-26T08:27:39Z</time>
      </trkpt>
      <trkpt lat="41.545106700" lon="1.581498600">
        <ele>496.00</ele>
        <time>2018-05-26T08:27:41Z</time>
      </trkpt>
      <trkpt lat="41.544923900" lon="1.581299600">
        <ele>496.60</ele>
        <time>2018-05-26T08:27:45Z</time>
      </trkpt>
      <trkpt lat="41.544780700" lon="1.581154800">
        <ele>497.40</ele>
        <time>2018-05-26T08:27:48Z</time>
      </trkpt>
      <trkpt lat="41.544693100" lon="1.581057500">
        <ele>497.80</ele>
        <time>2018-05-26T08:27:50Z</time>
      </trkpt>
      <trkpt lat="41.544472800" lon="1.580816300">
        <ele>498.80</ele>
        <time>2018-05-26T08:27:55Z</time>
      </trkpt>
      <trkpt lat="41.544392400" lon="1.580712900">
        <ele>499.20</ele>
        <time>2018-05-26T08:27:57Z</time>
      </trkpt>
      <trkpt lat="41.544289600" lon="1.580535600">
        <ele>500.00</ele>
        <time>2018-05-26T08:28:00Z</time>
      </trkpt>
      <trkpt lat="41.544238100" lon="1.580399500">
        <ele>500.40</ele>
        <time>2018-05-26T08:28:02Z</time>
      </trkpt>
      <trkpt lat="41.544177700" lon="1.580188700">
        <ele>501.20</ele>
        <time>2018-05-26T08:28:05Z</time>
      </trkpt>
      <trkpt lat="41.544082900" lon="1.579842300">
        <ele>502.40</ele>
        <time>2018-05-26T08:28:10Z</time>
      </trkpt>
      <trkpt lat="41.543962000" lon="1.579408600">
        <ele>503.60</ele>
        <time>2018-05-26T08:28:16Z</time>
      </trkpt>
      <trkpt lat="41.543881000" lon="1.579110000">
        <ele>504.40</ele>
        <time>2018-05-26T08:28:20Z</time>
      </trkpt>
      <trkpt lat="41.543762500" lon="1.578676600">
        <ele>505.80</ele>
        <time>2018-05-26T08:28:26Z</time>
      </trkpt>
      <trkpt lat="41.543704600" lon="1.578451200">
        <ele>506.20</ele>
        <time>2018-05-26T08:28:29Z</time>
      </trkpt>
      <trkpt lat="41.543663600" lon="1.578302900">
        <ele>506.80</ele>
        <time>2018-05-26T08:28:31Z</time>
      </trkpt>
      <trkpt lat="41.543579200" lon="1.578011400">
        <ele>507.80</ele>
        <time>2018-05-26T08:28:35Z</time>
      </trkpt>
      <trkpt lat="41.543496100" lon="1.577640100">
        <ele>509.00</ele>
        <time>2018-05-26T08:28:40Z</time>
      </trkpt>
      <trkpt lat="41.543419800" lon="1.577356300">
        <ele>510.00</ele>
        <time>2018-05-26T08:28:44Z</time>
      </trkpt>
      <trkpt lat="41.543346900" lon="1.577071300">
        <ele>511.20</ele>
        <time>2018-05-26T08:28:48Z</time>
      </trkpt>
      <trkpt lat="41.543283400" lon="1.576782100">
        <ele>512.20</ele>
        <time>2018-05-26T08:28:52Z</time>
      </trkpt>
      <trkpt lat="41.543212100" lon="1.576431000">
        <ele>513.40</ele>
        <time>2018-05-26T08:28:57Z</time>
      </trkpt>
      <trkpt lat="41.543170900" lon="1.576207100">
        <ele>514.20</ele>
        <time>2018-05-26T08:29:00Z</time>
      </trkpt>
      <trkpt lat="41.543086500" lon="1.575781000">
        <ele>515.60</ele>
        <time>2018-05-26T08:29:06Z</time>
      </trkpt>
      <trkpt lat="41.543024600" lon="1.575496100">
        <ele>516.80</ele>
        <time>2018-05-26T08:29:10Z</time>
      </trkpt>
      <trkpt lat="41.542961500" lon="1.575196500">
        <ele>517.80</ele>
        <time>2018-05-26T08:29:14Z</time>
      </trkpt>
      <trkpt lat="41.542904200" lon="1.574890000">
        <ele>519.00</ele>
        <time>2018-05-26T08:29:18Z</time>
      </trkpt>
      <trkpt lat="41.542874200" lon="1.574737800">
        <ele>519.40</ele>
        <time>2018-05-26T08:29:20Z</time>
      </trkpt>
      <trkpt lat="41.542830400" lon="1.574506500">
        <ele>520.40</ele>
        <time>2018-05-26T08:29:23Z</time>
      </trkpt>
      <trkpt lat="41.542752200" lon="1.574130300">
        <ele>521.40</ele>
        <time>2018-05-26T08:29:28Z</time>
      </trkpt>
      <trkpt lat="41.542722100" lon="1.573985600">
        <ele>522.00</ele>
        <time>2018-05-26T08:29:30Z</time>
      </trkpt>
      <trkpt lat="41.542686100" lon="1.573838600">
        <ele>522.60</ele>
        <time>2018-05-26T08:29:32Z</time>
      </trkpt>
      <trkpt lat="41.542574300" lon="1.573567000">
        <ele>523.80</ele>
        <time>2018-05-26T08:29:36Z</time>
      </trkpt>
      <trkpt lat="41.542367400" lon="1.573266600">
        <ele>524.80</ele>
        <time>2018-05-26T08:29:41Z</time>
      </trkpt>
      <trkpt lat="41.542161800" lon="1.572977300">
        <ele>525.80</ele>
        <time>2018-05-26T08:29:46Z</time>
      </trkpt>
      <trkpt lat="41.541999400" lon="1.572746700">
        <ele>526.80</ele>
        <time>2018-05-26T08:29:50Z</time>
      </trkpt>
      <trkpt lat="41.541764400" lon="1.572408700">
        <ele>528.20</ele>
        <time>2018-05-26T08:29:56Z</time>
      </trkpt>
      <trkpt lat="41.541580500" lon="1.572111700">
        <ele>529.20</ele>
        <time>2018-05-26T08:30:01Z</time>
      </trkpt>
      <trkpt lat="41.541502500" lon="1.571903700">
        <ele>529.80</ele>
        <time>2018-05-26T08:30:04Z</time>
      </trkpt>
      <trkpt lat="41.541466100" lon="1.571756200">
        <ele>530.20</ele>
        <time>2018-05-26T08:30:06Z</time>
      </trkpt>
      <trkpt lat="41.541446500" lon="1.571602200">
        <ele>530.60</ele>
        <time>2018-05-26T08:30:08Z</time>
      </trkpt>
      <trkpt lat="41.541417900" lon="1.571368600">
        <ele>531.60</ele>
        <time>2018-05-26T08:30:11Z</time>
      </trkpt>
      <trkpt lat="41.541385100" lon="1.570992300">
        <ele>532.60</ele>
        <time>2018-05-26T08:30:16Z</time>
      </trkpt>
      <trkpt lat="41.541361200" lon="1.570617100">
        <ele>533.80</ele>
        <time>2018-05-26T08:30:21Z</time>
      </trkpt>
      <trkpt lat="41.541342800" lon="1.570395500">
        <ele>534.40</ele>
        <time>2018-05-26T08:30:24Z</time>
      </trkpt>
      <trkpt lat="41.541309300" lon="1.570189400">
        <ele>535.00</ele>
        <time>2018-05-26T08:30:27Z</time>
      </trkpt>
      <trkpt lat="41.541254700" lon="1.569986200">
        <ele>535.40</ele>
        <time>2018-05-26T08:30:30Z</time>
      </trkpt>
      <trkpt lat="41.541177200" lon="1.569795400">
        <ele>536.00</ele>
        <time>2018-05-26T08:30:33Z</time>
      </trkpt>
      <trkpt lat="41.541118200" lon="1.569672800">
        <ele>536.80</ele>
        <time>2018-05-26T08:30:35Z</time>
      </trkpt>
      <trkpt lat="41.540972400" lon="1.569419200">
        <ele>537.20</ele>
        <time>2018-05-26T08:30:39Z</time>
      </trkpt>
      <trkpt lat="41.540893400" lon="1.569284000">
        <ele>537.60</ele>
        <time>2018-05-26T08:30:41Z</time>
      </trkpt>
      <trkpt lat="41.540710300" lon="1.568962200">
        <ele>538.40</ele>
        <time>2018-05-26T08:30:46Z</time>
      </trkpt>
      <trkpt lat="41.540537100" lon="1.568696600">
        <ele>539.40</ele>
        <time>2018-05-26T08:30:50Z</time>
      </trkpt>
      <trkpt lat="41.540371600" lon="1.568361100">
        <ele>540.40</ele>
        <time>2018-05-26T08:30:55Z</time>
      </trkpt>
      <trkpt lat="41.540304100" lon="1.568146300">
        <ele>541.00</ele>
        <time>2018-05-26T08:30:58Z</time>
      </trkpt>
      <trkpt lat="41.540247900" lon="1.567923300">
        <ele>541.60</ele>
        <time>2018-05-26T08:31:01Z</time>
      </trkpt>
      <trkpt lat="41.540157800" lon="1.567557200">
        <ele>542.60</ele>
        <time>2018-05-26T08:31:06Z</time>
      </trkpt>
      <trkpt lat="41.540040600" lon="1.567045900">
        <ele>544.00</ele>
        <time>2018-05-26T08:31:13Z</time>
      </trkpt>
      <trkpt lat="41.539969700" lon="1.566753100">
        <ele>544.60</ele>
        <time>2018-05-26T08:31:17Z</time>
      </trkpt>
      <trkpt lat="41.539936000" lon="1.566605300">
        <ele>545.00</ele>
        <time>2018-05-26T08:31:19Z</time>
      </trkpt>
      <trkpt lat="41.539844800" lon="1.566233300">
        <ele>546.20</ele>
        <time>2018-05-26T08:31:24Z</time>
      </trkpt>
      <trkpt lat="41.539791800" lon="1.566015400">
        <ele>546.60</ele>
        <time>2018-05-26T08:31:27Z</time>
      </trkpt>
      <trkpt lat="41.539719500" lon="1.565716000">
        <ele>547.20</ele>
        <time>2018-05-26T08:31:31Z</time>
      </trkpt>
      <trkpt lat="41.539648000" lon="1.565413700">
        <ele>547.80</ele>
        <time>2018-05-26T08:31:35Z</time>
      </trkpt>
      <trkpt lat="41.539593100" lon="1.565187700">
        <ele>548.20</ele>
        <time>2018-05-26T08:31:38Z</time>
      </trkpt>
      <trkpt lat="41.539502400" lon="1.564810000">
        <ele>549.20</ele>
        <time>2018-05-26T08:31:43Z</time>
      </trkpt>
      <trkpt lat="41.539397900" lon="1.564370000">
        <ele>550.60</ele>
        <time>2018-05-26T08:31:49Z</time>
      </trkpt>
      <trkpt lat="41.539328200" lon="1.564080100">
        <ele>551.20</ele>
        <time>2018-05-26T08:31:53Z</time>
      </trkpt>
      <trkpt lat="41.539279200" lon="1.563857100">
        <ele>551.80</ele>
        <time>2018-05-26T08:31:56Z</time>
      </trkpt>
      <trkpt lat="41.539208100" lon="1.563571000">
        <ele>552.80</ele>
        <time>2018-05-26T08:32:00Z</time>
      </trkpt>
      <trkpt lat="41.539153200" lon="1.563357400">
        <ele>553.20</ele>
        <time>2018-05-26T08:32:03Z</time>
      </trkpt>
      <trkpt lat="41.539103000" lon="1.563133400">
        <ele>554.00</ele>
        <time>2018-05-26T08:32:06Z</time>
      </trkpt>
      <trkpt lat="41.539014600" lon="1.562757200">
        <ele>555.20</ele>
        <time>2018-05-26T08:32:11Z</time>
      </trkpt>
      <trkpt lat="41.538925500" lon="1.562387900">
        <ele>556.20</ele>
        <time>2018-05-26T08:32:16Z</time>
      </trkpt>
      <trkpt lat="41.538860100" lon="1.562103600">
        <ele>557.40</ele>
        <time>2018-05-26T08:32:20Z</time>
      </trkpt>
      <trkpt lat="41.538730100" lon="1.561599400">
        <ele>558.40</ele>
        <time>2018-05-26T08:32:27Z</time>
      </trkpt>
      <trkpt lat="41.538684300" lon="1.561456400">
        <ele>558.80</ele>
        <time>2018-05-26T08:32:29Z</time>
      </trkpt>
      <trkpt lat="41.538607300" lon="1.561239100">
        <ele>559.40</ele>
        <time>2018-05-26T08:32:32Z</time>
      </trkpt>
      <trkpt lat="41.538475200" lon="1.560880500">
        <ele>560.60</ele>
        <time>2018-05-26T08:32:37Z</time>
      </trkpt>
      <trkpt lat="41.538420800" lon="1.560737700">
        <ele>561.00</ele>
        <time>2018-05-26T08:32:39Z</time>
      </trkpt>
      <trkpt lat="41.538343100" lon="1.560530900">
        <ele>561.60</ele>
        <time>2018-05-26T08:32:42Z</time>
      </trkpt>
      <trkpt lat="41.538243600" lon="1.560257300">
        <ele>562.40</ele>
        <time>2018-05-26T08:32:46Z</time>
      </trkpt>
      <trkpt lat="41.538190000" lon="1.560125600">
        <ele>562.60</ele>
        <time>2018-05-26T08:32:48Z</time>
      </trkpt>
      <trkpt lat="41.538088800" lon="1.559840100">
        <ele>563.60</ele>
        <time>2018-05-26T08:32:52Z</time>
      </trkpt>
      <trkpt lat="41.537952500" lon="1.559497300">
        <ele>564.80</ele>
        <time>2018-05-26T08:32:57Z</time>
      </trkpt>
      <trkpt lat="41.537847200" lon="1.559223500">
        <ele>565.40</ele>
        <time>2018-05-26T08:33:01Z</time>
      </trkpt>
      <trkpt lat="41.537796600" lon="1.559085000">
        <ele>566.60</ele>
        <time>2018-05-26T08:33:03Z</time>
      </trkpt>
      <trkpt lat="41.537555100" lon="1.558454800">
        <ele>567.60</ele>
        <time>2018-05-26T08:33:12Z</time>
      </trkpt>
      <trkpt lat="41.537383100" lon="1.558024100">
        <ele>568.80</ele>
        <time>2018-05-26T08:33:18Z</time>
      </trkpt>
      <trkpt lat="41.537273400" lon="1.557740300">
        <ele>570.20</ele>
        <time>2018-05-26T08:33:22Z</time>
      </trkpt>
      <trkpt lat="41.537137800" lon="1.557378300">
        <ele>571.20</ele>
        <time>2018-05-26T08:33:27Z</time>
      </trkpt>
      <trkpt lat="41.537059600" lon="1.557145700">
        <ele>571.80</ele>
        <time>2018-05-26T08:33:30Z</time>
      </trkpt>
      <trkpt lat="41.536995200" lon="1.556917900">
        <ele>572.20</ele>
        <time>2018-05-26T08:33:33Z</time>
      </trkpt>
      <trkpt lat="41.536909500" lon="1.556615000">
        <ele>573.20</ele>
        <time>2018-05-26T08:33:37Z</time>
      </trkpt>
      <trkpt lat="41.536785600" lon="1.556162800">
        <ele>574.40</ele>
        <time>2018-05-26T08:33:43Z</time>
      </trkpt>
      <trkpt lat="41.536745100" lon="1.556018600">
        <ele>574.80</ele>
        <time>2018-05-26T08:33:45Z</time>
      </trkpt>
      <trkpt lat="41.536706400" lon="1.555870800">
        <ele>575.60</ele>
        <time>2018-05-26T08:33:47Z</time>
      </trkpt>
      <trkpt lat="41.536604200" lon="1.555504500">
        <ele>576.80</ele>
        <time>2018-05-26T08:33:52Z</time>
      </trkpt>
      <trkpt lat="41.536546200" lon="1.555292200">
        <ele>577.40</ele>
        <time>2018-05-26T08:33:55Z</time>
      </trkpt>
      <trkpt lat="41.536506400" lon="1.555147600">
        <ele>577.80</ele>
        <time>2018-05-26T08:33:57Z</time>
      </trkpt>
      <trkpt lat="41.536386800" lon="1.554728600">
        <ele>579.00</ele>
        <time>2018-05-26T08:34:03Z</time>
      </trkpt>
      <trkpt lat="41.536288400" lon="1.554378900">
        <ele>580.20</ele>
        <time>2018-05-26T08:34:08Z</time>
      </trkpt>
      <trkpt lat="41.536218600" lon="1.554084100">
        <ele>581.20</ele>
        <time>2018-05-26T08:34:12Z</time>
      </trkpt>
      <trkpt lat="41.536131700" lon="1.553717300">
        <ele>582.60</ele>
        <time>2018-05-26T08:34:17Z</time>
      </trkpt>
      <trkpt lat="41.536057100" lon="1.553416000">
        <ele>583.40</ele>
        <time>2018-05-26T08:34:21Z</time>
      </trkpt>
      <trkpt lat="41.535949800" lon="1.552973500">
        <ele>584.80</ele>
        <time>2018-05-26T08:34:27Z</time>
      </trkpt>
      <trkpt lat="41.535858000" lon="1.552611000">
        <ele>586.00</ele>
        <time>2018-05-26T08:34:32Z</time>
      </trkpt>
      <trkpt lat="41.535785400" lon="1.552319000">
        <ele>587.00</ele>
        <time>2018-05-26T08:34:36Z</time>
      </trkpt>
      <trkpt lat="41.535663300" lon="1.551860800">
        <ele>587.80</ele>
        <time>2018-05-26T08:34:42Z</time>
      </trkpt>
      <trkpt lat="41.535495100" lon="1.551181300">
        <ele>587.80</ele>
        <time>2018-05-26T08:34:50Z</time>
      </trkpt>
      <trkpt lat="41.535380700" lon="1.550749100">
        <ele>588.20</ele>
        <time>2018-05-26T08:34:55Z</time>
      </trkpt>
      <trkpt lat="41.535304100" lon="1.550419300">
        <ele>589.20</ele>
        <time>2018-05-26T08:34:59Z</time>
      </trkpt>
      <trkpt lat="41.535175600" lon="1.549933800">
        <ele>590.20</ele>
        <time>2018-05-26T08:35:05Z</time>
      </trkpt>
      <trkpt lat="41.535058400" lon="1.549648900">
        <ele>591.20</ele>
        <time>2018-05-26T08:35:09Z</time>
      </trkpt>
      <trkpt lat="41.534975800" lon="1.549519100">
        <ele>591.40</ele>
        <time>2018-05-26T08:35:11Z</time>
      </trkpt>
      <trkpt lat="41.534781000" lon="1.549301400">
        <ele>592.40</ele>
        <time>2018-05-26T08:35:15Z</time>
      </trkpt>
      <trkpt lat="41.534678300" lon="1.549212800">
        <ele>593.00</ele>
        <time>2018-05-26T08:35:17Z</time>
      </trkpt>
      <trkpt lat="41.534531000" lon="1.549076200">
        <ele>593.60</ele>
        <time>2018-05-26T08:35:20Z</time>
      </trkpt>
      <trkpt lat="41.534351900" lon="1.548863500">
        <ele>594.60</ele>
        <time>2018-05-26T08:35:24Z</time>
      </trkpt>
      <trkpt lat="41.534148900" lon="1.548461800">
        <ele>595.80</ele>
        <time>2018-05-26T08:35:30Z</time>
      </trkpt>
      <trkpt lat="41.534008000" lon="1.548105600">
        <ele>597.20</ele>
        <time>2018-05-26T08:35:35Z</time>
      </trkpt>
      <trkpt lat="41.533896900" lon="1.547826300">
        <ele>598.40</ele>
        <time>2018-05-26T08:35:39Z</time>
      </trkpt>
      <trkpt lat="41.533756800" lon="1.547483100">
        <ele>599.60</ele>
        <time>2018-05-26T08:35:44Z</time>
      </trkpt>
      <trkpt lat="41.533669800" lon="1.547282100">
        <ele>600.60</ele>
        <time>2018-05-26T08:35:47Z</time>
      </trkpt>
      <trkpt lat="41.533559700" lon="1.547008300">
        <ele>601.80</ele>
        <time>2018-05-26T08:35:51Z</time>
      </trkpt>
      <trkpt lat="41.533421700" lon="1.546661600">
        <ele>602.80</ele>
        <time>2018-05-26T08:35:56Z</time>
      </trkpt>
      <trkpt lat="41.533337400" lon="1.546460600">
        <ele>603.80</ele>
        <time>2018-05-26T08:35:59Z</time>
      </trkpt>
      <trkpt lat="41.533210500" lon="1.546137500">
        <ele>605.20</ele>
        <time>2018-05-26T08:36:04Z</time>
      </trkpt>
      <trkpt lat="41.533102800" lon="1.545866400">
        <ele>606.00</ele>
        <time>2018-05-26T08:36:08Z</time>
      </trkpt>
      <trkpt lat="41.533049100" lon="1.545730700">
        <ele>606.60</ele>
        <time>2018-05-26T08:36:10Z</time>
      </trkpt>
      <trkpt lat="41.532967600" lon="1.545532600">
        <ele>607.60</ele>
        <time>2018-05-26T08:36:13Z</time>
      </trkpt>
      <trkpt lat="41.532821400" lon="1.545202300">
        <ele>608.80</ele>
        <time>2018-05-26T08:36:18Z</time>
      </trkpt>
      <trkpt lat="41.532721900" lon="1.544936100">
        <ele>609.80</ele>
        <time>2018-05-26T08:36:22Z</time>
      </trkpt>
      <trkpt lat="41.532628100" lon="1.544678100">
        <ele>610.80</ele>
        <time>2018-05-26T08:36:26Z</time>
      </trkpt>
      <trkpt lat="41.532580900" lon="1.544531000">
        <ele>611.40</ele>
        <time>2018-05-26T08:36:28Z</time>
      </trkpt>
      <trkpt lat="41.532516900" lon="1.544313900">
        <ele>611.80</ele>
        <time>2018-05-26T08:36:31Z</time>
      </trkpt>
      <trkpt lat="41.532465800" lon="1.544099200">
        <ele>612.80</ele>
        <time>2018-05-26T08:36:34Z</time>
      </trkpt>
      <trkpt lat="41.532398400" lon="1.543814700">
        <ele>614.00</ele>
        <time>2018-05-26T08:36:38Z</time>
      </trkpt>
      <trkpt lat="41.532328600" lon="1.543531500">
        <ele>615.20</ele>
        <time>2018-05-26T08:36:42Z</time>
      </trkpt>
      <trkpt lat="41.532293200" lon="1.543384700">
        <ele>615.60</ele>
        <time>2018-05-26T08:36:44Z</time>
      </trkpt>
      <trkpt lat="41.532236800" lon="1.543165500">
        <ele>616.20</ele>
        <time>2018-05-26T08:36:47Z</time>
      </trkpt>
      <trkpt lat="41.532184000" lon="1.542943800">
        <ele>617.40</ele>
        <time>2018-05-26T08:36:50Z</time>
      </trkpt>
      <trkpt lat="41.532109400" lon="1.542641100">
        <ele>618.20</ele>
        <time>2018-05-26T08:36:54Z</time>
      </trkpt>
      <trkpt lat="41.532008400" lon="1.542271300">
        <ele>619.60</ele>
        <time>2018-05-26T08:36:59Z</time>
      </trkpt>
      <trkpt lat="41.531908800" lon="1.541896000">
        <ele>620.60</ele>
        <time>2018-05-26T08:37:04Z</time>
      </trkpt>
      <trkpt lat="41.531812100" lon="1.541527100">
        <ele>622.00</ele>
        <time>2018-05-26T08:37:09Z</time>
      </trkpt>
      <trkpt lat="41.531739700" lon="1.541246600">
        <ele>623.20</ele>
        <time>2018-05-26T08:37:13Z</time>
      </trkpt>
      <trkpt lat="41.531670600" lon="1.541036900">
        <ele>624.20</ele>
        <time>2018-05-26T08:37:16Z</time>
      </trkpt>
      <trkpt lat="41.531565700" lon="1.540766100">
        <ele>625.00</ele>
        <time>2018-05-26T08:37:20Z</time>
      </trkpt>
      <trkpt lat="41.531444000" lon="1.540508100">
        <ele>626.60</ele>
        <time>2018-05-26T08:37:24Z</time>
      </trkpt>
      <trkpt lat="41.531319900" lon="1.540259100">
        <ele>627.80</ele>
        <time>2018-05-26T08:37:28Z</time>
      </trkpt>
      <trkpt lat="41.531261600" lon="1.540134500">
        <ele>628.20</ele>
        <time>2018-05-26T08:37:30Z</time>
      </trkpt>
      <trkpt lat="41.531169300" lon="1.539946100">
        <ele>629.00</ele>
        <time>2018-05-26T08:37:33Z</time>
      </trkpt>
      <trkpt lat="41.531078500" lon="1.539754700">
        <ele>630.00</ele>
        <time>2018-05-26T08:37:36Z</time>
      </trkpt>
      <trkpt lat="41.530953800" lon="1.539496800">
        <ele>631.00</ele>
        <time>2018-05-26T08:37:40Z</time>
      </trkpt>
      <trkpt lat="41.530834900" lon="1.539246000">
        <ele>632.20</ele>
        <time>2018-05-26T08:37:44Z</time>
      </trkpt>
      <trkpt lat="41.530714600" lon="1.538996500">
        <ele>633.40</ele>
        <time>2018-05-26T08:37:48Z</time>
      </trkpt>
      <trkpt lat="41.530631400" lon="1.538812700">
        <ele>634.40</ele>
        <time>2018-05-26T08:37:51Z</time>
      </trkpt>
      <trkpt lat="41.530508200" lon="1.538473900">
        <ele>635.40</ele>
        <time>2018-05-26T08:37:56Z</time>
      </trkpt>
      <trkpt lat="41.530439100" lon="1.538105200">
        <ele>637.00</ele>
        <time>2018-05-26T08:38:01Z</time>
      </trkpt>
      <trkpt lat="41.530404700" lon="1.537887900">
        <ele>638.00</ele>
        <time>2018-05-26T08:38:04Z</time>
      </trkpt>
      <trkpt lat="41.530362900" lon="1.537600300">
        <ele>639.20</ele>
        <time>2018-05-26T08:38:08Z</time>
      </trkpt>
      <trkpt lat="41.530332400" lon="1.537387900">
        <ele>640.60</ele>
        <time>2018-05-26T08:38:11Z</time>
      </trkpt>
      <trkpt lat="41.530301500" lon="1.537169300">
        <ele>641.40</ele>
        <time>2018-05-26T08:38:14Z</time>
      </trkpt>
      <trkpt lat="41.530252400" lon="1.536809900">
        <ele>642.80</ele>
        <time>2018-05-26T08:38:19Z</time>
      </trkpt>
      <trkpt lat="41.530203800" lon="1.536531600">
        <ele>644.00</ele>
        <time>2018-05-26T08:38:23Z</time>
      </trkpt>
      <trkpt lat="41.530228500" lon="1.536126400">
        <ele>644.80</ele>
        <time>2018-05-26T08:38:28Z</time>
      </trkpt>
      <trkpt lat="41.530311500" lon="1.535516200">
        <ele>644.80</ele>
        <time>2018-05-26T08:38:35Z</time>
      </trkpt>
      <trkpt lat="41.530335200" lon="1.535156000">
        <ele>644.40</ele>
        <time>2018-05-26T08:38:39Z</time>
      </trkpt>
      <trkpt lat="41.530318700" lon="1.534958700">
        <ele>644.00</ele>
        <time>2018-05-26T08:38:41Z</time>
      </trkpt>
      <trkpt lat="41.530245000" lon="1.534458300">
        <ele>643.20</ele>
        <time>2018-05-26T08:38:46Z</time>
      </trkpt>
      <trkpt lat="41.530217300" lon="1.534243900">
        <ele>642.60</ele>
        <time>2018-05-26T08:38:48Z</time>
      </trkpt>
      <trkpt lat="41.530168500" lon="1.533911700">
        <ele>642.40</ele>
        <time>2018-05-26T08:38:51Z</time>
      </trkpt>
      <trkpt lat="41.530140100" lon="1.533691200">
        <ele>641.80</ele>
        <time>2018-05-26T08:38:53Z</time>
      </trkpt>
      <trkpt lat="41.530107100" lon="1.533462600">
        <ele>641.60</ele>
        <time>2018-05-26T08:38:55Z</time>
      </trkpt>
      <trkpt lat="41.530058700" lon="1.533118700">
        <ele>641.20</ele>
        <time>2018-05-26T08:38:58Z</time>
      </trkpt>
      <trkpt lat="41.530021500" lon="1.532890200">
        <ele>640.80</ele>
        <time>2018-05-26T08:39:00Z</time>
      </trkpt>
      <trkpt lat="41.529993300" lon="1.532776100">
        <ele>640.80</ele>
        <time>2018-05-26T08:39:01Z</time>
      </trkpt>
      <trkpt lat="41.529917800" lon="1.532550400">
        <ele>640.00</ele>
        <time>2018-05-26T08:39:03Z</time>
      </trkpt>
      <trkpt lat="41.529875800" lon="1.532438300">
        <ele>639.40</ele>
        <time>2018-05-26T08:39:04Z</time>
      </trkpt>
      <trkpt lat="41.529775500" lon="1.532200800">
        <ele>638.00</ele>
        <time>2018-05-26T08:39:06Z</time>
      </trkpt>
      <trkpt lat="41.529670000" lon="1.531951900">
        <ele>636.80</ele>
        <time>2018-05-26T08:39:08Z</time>
      </trkpt>
      <trkpt lat="41.529562400" lon="1.531707600">
        <ele>635.60</ele>
        <time>2018-05-26T08:39:10Z</time>
      </trkpt>
      <trkpt lat="41.529451200" lon="1.531446100">
        <ele>634.40</ele>
        <time>2018-05-26T08:39:12Z</time>
      </trkpt>
      <trkpt lat="41.529395100" lon="1.531310100">
        <ele>633.80</ele>
        <time>2018-05-26T08:39:13Z</time>
      </trkpt>
      <trkpt lat="41.529337000" lon="1.531169400">
        <ele>633.00</ele>
        <time>2018-05-26T08:39:14Z</time>
      </trkpt>
      <trkpt lat="41.529277900" lon="1.531031000">
        <ele>632.40</ele>
        <time>2018-05-26T08:39:15Z</time>
      </trkpt>
      <trkpt lat="41.529217500" lon="1.530891200">
        <ele>631.60</ele>
        <time>2018-05-26T08:39:16Z</time>
      </trkpt>
      <trkpt lat="41.529103800" lon="1.530604700">
        <ele>630.00</ele>
        <time>2018-05-26T08:39:18Z</time>
      </trkpt>
      <trkpt lat="41.528985000" lon="1.530328800">
        <ele>628.80</ele>
        <time>2018-05-26T08:39:20Z</time>
      </trkpt>
      <trkpt lat="41.528836300" lon="1.530107200">
        <ele>627.80</ele>
        <time>2018-05-26T08:39:22Z</time>
      </trkpt>
      <trkpt lat="41.528746900" lon="1.530052200">
        <ele>626.60</ele>
        <time>2018-05-26T08:39:23Z</time>
      </trkpt>
      <trkpt lat="41.528520700" lon="1.530055200">
        <ele>625.40</ele>
        <time>2018-05-26T08:39:25Z</time>
      </trkpt>
      <trkpt lat="41.528286700" lon="1.530121600">
        <ele>624.20</ele>
        <time>2018-05-26T08:39:27Z</time>
      </trkpt>
      <trkpt lat="41.528176300" lon="1.530164100">
        <ele>623.40</ele>
        <time>2018-05-26T08:39:28Z</time>
      </trkpt>
      <trkpt lat="41.528061600" lon="1.530201400">
        <ele>623.00</ele>
        <time>2018-05-26T08:39:29Z</time>
      </trkpt>
      <trkpt lat="41.527485400" lon="1.530372900">
        <ele>622.00</ele>
        <time>2018-05-26T08:39:34Z</time>
      </trkpt>
      <trkpt lat="41.527382100" lon="1.530390300">
        <ele>621.60</ele>
        <time>2018-05-26T08:39:35Z</time>
      </trkpt>
      <trkpt lat="41.527187000" lon="1.530405600">
        <ele>619.80</ele>
        <time>2018-05-26T08:39:37Z</time>
      </trkpt>
      <trkpt lat="41.527094000" lon="1.530410500">
        <ele>619.40</ele>
        <time>2018-05-26T08:39:38Z</time>
      </trkpt>
      <trkpt lat="41.526685700" lon="1.530456100">
        <ele>618.20</ele>
        <time>2018-05-26T08:39:42Z</time>
      </trkpt>
      <trkpt lat="41.526576100" lon="1.530469000">
        <ele>617.00</ele>
        <time>2018-05-26T08:39:43Z</time>
      </trkpt>
      <trkpt lat="41.526456500" lon="1.530473400">
        <ele>616.20</ele>
        <time>2018-05-26T08:39:44Z</time>
      </trkpt>
      <trkpt lat="41.526344500" lon="1.530476900">
        <ele>615.40</ele>
        <time>2018-05-26T08:39:45Z</time>
      </trkpt>
      <trkpt lat="41.526115600" lon="1.530509200">
        <ele>613.40</ele>
        <time>2018-05-26T08:39:47Z</time>
      </trkpt>
      <trkpt lat="41.525879800" lon="1.530538400">
        <ele>613.00</ele>
        <time>2018-05-26T08:39:49Z</time>
      </trkpt>
      <trkpt lat="41.525633200" lon="1.530591500">
        <ele>612.00</ele>
        <time>2018-05-26T08:39:51Z</time>
      </trkpt>
      <trkpt lat="41.525515600" lon="1.530643800">
        <ele>611.80</ele>
        <time>2018-05-26T08:39:52Z</time>
      </trkpt>
      <trkpt lat="41.525398300" lon="1.530707400">
        <ele>611.80</ele>
        <time>2018-05-26T08:39:53Z</time>
      </trkpt>
      <trkpt lat="41.525199800" lon="1.530846500">
        <ele>611.00</ele>
        <time>2018-05-26T08:39:55Z</time>
      </trkpt>
      <trkpt lat="41.525101800" lon="1.530881900">
        <ele>610.00</ele>
        <time>2018-05-26T08:39:56Z</time>
      </trkpt>
      <trkpt lat="41.524798400" lon="1.530854200">
        <ele>610.20</ele>
        <time>2018-05-26T08:39:59Z</time>
      </trkpt>
      <trkpt lat="41.524597000" lon="1.530888700">
        <ele>610.40</ele>
        <time>2018-05-26T08:40:01Z</time>
      </trkpt>
      <trkpt lat="41.524500200" lon="1.530936300">
        <ele>610.20</ele>
        <time>2018-05-26T08:40:02Z</time>
      </trkpt>
      <trkpt lat="41.524348900" lon="1.531112300">
        <ele>609.60</ele>
        <time>2018-05-26T08:40:04Z</time>
      </trkpt>
      <trkpt lat="41.524273600" lon="1.531198000">
        <ele>609.40</ele>
        <time>2018-05-26T08:40:05Z</time>
      </trkpt>
      <trkpt lat="41.524219900" lon="1.531300900">
        <ele>609.20</ele>
        <time>2018-05-26T08:40:06Z</time>
      </trkpt>
      <trkpt lat="41.524146400" lon="1.531520600">
        <ele>608.60</ele>
        <time>2018-05-26T08:40:08Z</time>
      </trkpt>
      <trkpt lat="41.524138600" lon="1.531775500">
        <ele>607.00</ele>
        <time>2018-05-26T08:40:10Z</time>
      </trkpt>
      <trkpt lat="41.524125800" lon="1.531978000">
        <ele>605.00</ele>
        <time>2018-05-26T08:40:12Z</time>
      </trkpt>
      <trkpt lat="41.524085000" lon="1.532128200">
        <ele>604.40</ele>
        <time>2018-05-26T08:40:14Z</time>
      </trkpt>
      <trkpt lat="41.523847700" lon="1.532170200">
        <ele>603.00</ele>
        <time>2018-05-26T08:40:18Z</time>
      </trkpt>
      <trkpt lat="41.523409800" lon="1.532018500">
        <ele>601.80</ele>
        <time>2018-05-26T08:40:21Z</time>
      </trkpt>
      <trkpt lat="41.523212400" lon="1.531746900">
        <ele>600.40</ele>
        <time>2018-05-26T08:40:23Z</time>
      </trkpt>
      <trkpt lat="41.523130500" lon="1.531431000">
        <ele>598.80</ele>
        <time>2018-05-26T08:40:25Z</time>
      </trkpt>
      <trkpt lat="41.523083100" lon="1.531111700">
        <ele>598.00</ele>
        <time>2018-05-26T08:40:27Z</time>
      </trkpt>
      <trkpt lat="41.523054600" lon="1.530961100">
        <ele>597.40</ele>
        <time>2018-05-26T08:40:28Z</time>
      </trkpt>
      <trkpt lat="41.522993500" lon="1.530656600">
        <ele>595.80</ele>
        <time>2018-05-26T08:40:30Z</time>
      </trkpt>
      <trkpt lat="41.522930300" lon="1.530343100">
        <ele>595.20</ele>
        <time>2018-05-26T08:40:32Z</time>
      </trkpt>
      <trkpt lat="41.522857400" lon="1.530027300">
        <ele>594.80</ele>
        <time>2018-05-26T08:40:34Z</time>
      </trkpt>
      <trkpt lat="41.522820700" lon="1.529872400">
        <ele>593.40</ele>
        <time>2018-05-26T08:40:35Z</time>
      </trkpt>
      <trkpt lat="41.522713700" lon="1.529587000">
        <ele>591.60</ele>
        <time>2018-05-26T08:40:37Z</time>
      </trkpt>
      <trkpt lat="41.522525300" lon="1.529359600">
        <ele>590.00</ele>
        <time>2018-05-26T08:40:39Z</time>
      </trkpt>
      <trkpt lat="41.522412000" lon="1.529277800">
        <ele>589.20</ele>
        <time>2018-05-26T08:40:40Z</time>
      </trkpt>
      <trkpt lat="41.522296400" lon="1.529203800">
        <ele>588.40</ele>
        <time>2018-05-26T08:40:41Z</time>
      </trkpt>
      <trkpt lat="41.522185900" lon="1.529124000">
        <ele>588.00</ele>
        <time>2018-05-26T08:40:42Z</time>
      </trkpt>
      <trkpt lat="41.522075600" lon="1.529047600">
        <ele>587.80</ele>
        <time>2018-05-26T08:40:43Z</time>
      </trkpt>
      <trkpt lat="41.521867100" lon="1.528892700">
        <ele>588.20</ele>
        <time>2018-05-26T08:40:45Z</time>
      </trkpt>
      <trkpt lat="41.521765300" lon="1.528815800">
        <ele>588.40</ele>
        <time>2018-05-26T08:40:46Z</time>
      </trkpt>
      <trkpt lat="41.521465300" lon="1.528608000">
        <ele>588.80</ele>
        <time>2018-05-26T08:40:49Z</time>
      </trkpt>
      <trkpt lat="41.521281200" lon="1.528469100">
        <ele>589.40</ele>
        <time>2018-05-26T08:40:51Z</time>
      </trkpt>
      <trkpt lat="41.521192000" lon="1.528401900">
        <ele>589.80</ele>
        <time>2018-05-26T08:40:52Z</time>
      </trkpt>
      <trkpt lat="41.521015700" lon="1.528273800">
        <ele>590.80</ele>
        <time>2018-05-26T08:40:54Z</time>
      </trkpt>
      <trkpt lat="41.520930600" lon="1.528205700">
        <ele>591.00</ele>
        <time>2018-05-26T08:40:55Z</time>
      </trkpt>
      <trkpt lat="41.520759000" lon="1.528078800">
        <ele>591.20</ele>
        <time>2018-05-26T08:40:57Z</time>
      </trkpt>
      <trkpt lat="41.520675700" lon="1.528015900">
        <ele>591.60</ele>
        <time>2018-05-26T08:40:58Z</time>
      </trkpt>
      <trkpt lat="41.520596000" lon="1.527959900">
        <ele>592.20</ele>
        <time>2018-05-26T08:40:59Z</time>
      </trkpt>
      <trkpt lat="41.520441700" lon="1.527843000">
        <ele>592.80</ele>
        <time>2018-05-26T08:41:01Z</time>
      </trkpt>
      <trkpt lat="41.520230800" lon="1.527648800">
        <ele>593.40</ele>
        <time>2018-05-26T08:41:04Z</time>
      </trkpt>
      <trkpt lat="41.520040100" lon="1.527294200">
        <ele>594.80</ele>
        <time>2018-05-26T08:41:08Z</time>
      </trkpt>
      <trkpt lat="41.519947600" lon="1.526944000">
        <ele>595.00</ele>
        <time>2018-05-26T08:41:12Z</time>
      </trkpt>
      <trkpt lat="41.519906700" lon="1.526748500">
        <ele>594.60</ele>
        <time>2018-05-26T08:41:14Z</time>
      </trkpt>
      <trkpt lat="41.519833600" lon="1.526431700">
        <ele>593.80</ele>
        <time>2018-05-26T08:41:17Z</time>
      </trkpt>
      <trkpt lat="41.519758500" lon="1.526094400">
        <ele>593.20</ele>
        <time>2018-05-26T08:41:20Z</time>
      </trkpt>
      <trkpt lat="41.519689900" lon="1.525759000">
        <ele>592.60</ele>
        <time>2018-05-26T08:41:23Z</time>
      </trkpt>
      <trkpt lat="41.519642700" lon="1.525538700">
        <ele>592.60</ele>
        <time>2018-05-26T08:41:25Z</time>
      </trkpt>
      <trkpt lat="41.519595000" lon="1.525326500">
        <ele>592.60</ele>
        <time>2018-05-26T08:41:27Z</time>
      </trkpt>
      <trkpt lat="41.519544500" lon="1.525123300">
        <ele>592.60</ele>
        <time>2018-05-26T08:41:29Z</time>
      </trkpt>
      <trkpt lat="41.519494400" lon="1.524924600">
        <ele>592.60</ele>
        <time>2018-05-26T08:41:31Z</time>
      </trkpt>
      <trkpt lat="41.519419200" lon="1.524739300">
        <ele>592.40</ele>
        <time>2018-05-26T08:41:33Z</time>
      </trkpt>
      <trkpt lat="41.519204500" lon="1.524560700">
        <ele>591.40</ele>
        <time>2018-05-26T08:41:36Z</time>
      </trkpt>
      <trkpt lat="41.519114000" lon="1.524554000">
        <ele>591.00</ele>
        <time>2018-05-26T08:41:37Z</time>
      </trkpt>
      <trkpt lat="41.518920000" lon="1.524589800">
        <ele>590.20</ele>
        <time>2018-05-26T08:41:39Z</time>
      </trkpt>
      <trkpt lat="41.518820900" lon="1.524613500">
        <ele>590.20</ele>
        <time>2018-05-26T08:41:40Z</time>
      </trkpt>
      <trkpt lat="41.518265500" lon="1.524729300">
        <ele>591.00</ele>
        <time>2018-05-26T08:41:46Z</time>
      </trkpt>
      <trkpt lat="41.518051100" lon="1.524777300">
        <ele>591.40</ele>
        <time>2018-05-26T08:41:49Z</time>
      </trkpt>
      <trkpt lat="41.517915400" lon="1.524808700">
        <ele>591.80</ele>
        <time>2018-05-26T08:41:51Z</time>
      </trkpt>
      <trkpt lat="41.517530100" lon="1.524910000">
        <ele>590.80</ele>
        <time>2018-05-26T08:41:57Z</time>
      </trkpt>
      <trkpt lat="41.517186800" lon="1.524880900">
        <ele>588.80</ele>
        <time>2018-05-26T08:42:01Z</time>
      </trkpt>
      <trkpt lat="41.517091000" lon="1.524870900">
        <ele>588.20</ele>
        <time>2018-05-26T08:42:02Z</time>
      </trkpt>
      <trkpt lat="41.516993100" lon="1.524856700">
        <ele>587.60</ele>
        <time>2018-05-26T08:42:03Z</time>
      </trkpt>
      <trkpt lat="41.516795500" lon="1.524836300">
        <ele>586.60</ele>
        <time>2018-05-26T08:42:05Z</time>
      </trkpt>
      <trkpt lat="41.516586700" lon="1.524809600">
        <ele>585.20</ele>
        <time>2018-05-26T08:42:07Z</time>
      </trkpt>
      <trkpt lat="41.516478600" lon="1.524797100">
        <ele>584.40</ele>
        <time>2018-05-26T08:42:08Z</time>
      </trkpt>
      <trkpt lat="41.516366900" lon="1.524785300">
        <ele>583.80</ele>
        <time>2018-05-26T08:42:09Z</time>
      </trkpt>
      <trkpt lat="41.516136900" lon="1.524771700">
        <ele>582.40</ele>
        <time>2018-05-26T08:42:11Z</time>
      </trkpt>
      <trkpt lat="41.516020200" lon="1.524790300">
        <ele>581.60</ele>
        <time>2018-05-26T08:42:12Z</time>
      </trkpt>
      <trkpt lat="41.515906400" lon="1.524826300">
        <ele>580.80</ele>
        <time>2018-05-26T08:42:13Z</time>
      </trkpt>
      <trkpt lat="41.515678700" lon="1.524916300">
        <ele>579.40</ele>
        <time>2018-05-26T08:42:15Z</time>
      </trkpt>
      <trkpt lat="41.515449800" lon="1.525008700">
        <ele>577.80</ele>
        <time>2018-05-26T08:42:17Z</time>
      </trkpt>
      <trkpt lat="41.515334500" lon="1.525053200">
        <ele>577.40</ele>
        <time>2018-05-26T08:42:18Z</time>
      </trkpt>
      <trkpt lat="41.515216600" lon="1.525102100">
        <ele>576.80</ele>
        <time>2018-05-26T08:42:19Z</time>
      </trkpt>
      <trkpt lat="41.514984100" lon="1.525198700">
        <ele>575.60</ele>
        <time>2018-05-26T08:42:21Z</time>
      </trkpt>
      <trkpt lat="41.514743100" lon="1.525301000">
        <ele>574.00</ele>
        <time>2018-05-26T08:42:23Z</time>
      </trkpt>
      <trkpt lat="41.514501600" lon="1.525391000">
        <ele>572.80</ele>
        <time>2018-05-26T08:42:25Z</time>
      </trkpt>
      <trkpt lat="41.514261000" lon="1.525487700">
        <ele>571.20</ele>
        <time>2018-05-26T08:42:27Z</time>
      </trkpt>
      <trkpt lat="41.514019100" lon="1.525582800">
        <ele>569.60</ele>
        <time>2018-05-26T08:42:29Z</time>
      </trkpt>
      <trkpt lat="41.513777200" lon="1.525677100">
        <ele>568.20</ele>
        <time>2018-05-26T08:42:31Z</time>
      </trkpt>
      <trkpt lat="41.513532200" lon="1.525776300">
        <ele>566.80</ele>
        <time>2018-05-26T08:42:33Z</time>
      </trkpt>
      <trkpt lat="41.513413200" lon="1.525827600">
        <ele>565.60</ele>
        <time>2018-05-26T08:42:34Z</time>
      </trkpt>
      <trkpt lat="41.513297000" lon="1.525877400">
        <ele>563.20</ele>
        <time>2018-05-26T08:42:35Z</time>
      </trkpt>
      <trkpt lat="41.512975700" lon="1.526036300">
        <ele>562.20</ele>
        <time>2018-05-26T08:42:38Z</time>
      </trkpt>
      <trkpt lat="41.512885200" lon="1.526132600">
        <ele>561.80</ele>
        <time>2018-05-26T08:42:39Z</time>
      </trkpt>
      <trkpt lat="41.512810400" lon="1.526252000">
        <ele>561.00</ele>
        <time>2018-05-26T08:42:40Z</time>
      </trkpt>
      <trkpt lat="41.512700100" lon="1.526528600">
        <ele>560.00</ele>
        <time>2018-05-26T08:42:42Z</time>
      </trkpt>
      <trkpt lat="41.512650900" lon="1.526673600">
        <ele>559.80</ele>
        <time>2018-05-26T08:42:43Z</time>
      </trkpt>
      <trkpt lat="41.512591100" lon="1.526818000">
        <ele>559.20</ele>
        <time>2018-05-26T08:42:44Z</time>
      </trkpt>
      <trkpt lat="41.512538300" lon="1.526967600">
        <ele>558.00</ele>
        <time>2018-05-26T08:42:45Z</time>
      </trkpt>
      <trkpt lat="41.512485100" lon="1.527117900">
        <ele>557.00</ele>
        <time>2018-05-26T08:42:46Z</time>
      </trkpt>
      <trkpt lat="41.512430900" lon="1.527269500">
        <ele>556.20</ele>
        <time>2018-05-26T08:42:47Z</time>
      </trkpt>
      <trkpt lat="41.512374500" lon="1.527419900">
        <ele>555.60</ele>
        <time>2018-05-26T08:42:48Z</time>
      </trkpt>
      <trkpt lat="41.512263800" lon="1.527723600">
        <ele>554.20</ele>
        <time>2018-05-26T08:42:50Z</time>
      </trkpt>
      <trkpt lat="41.512147100" lon="1.528021600">
        <ele>552.60</ele>
        <time>2018-05-26T08:42:52Z</time>
      </trkpt>
      <trkpt lat="41.512035800" lon="1.528314200">
        <ele>550.60</ele>
        <time>2018-05-26T08:42:54Z</time>
      </trkpt>
      <trkpt lat="41.511982000" lon="1.528456600">
        <ele>550.00</ele>
        <time>2018-05-26T08:42:55Z</time>
      </trkpt>
      <trkpt lat="41.511876200" lon="1.528741400">
        <ele>549.60</ele>
        <time>2018-05-26T08:42:57Z</time>
      </trkpt>
      <trkpt lat="41.511708600" lon="1.529182100">
        <ele>548.20</ele>
        <time>2018-05-26T08:43:00Z</time>
      </trkpt>
      <trkpt lat="41.511592500" lon="1.529472300">
        <ele>546.40</ele>
        <time>2018-05-26T08:43:02Z</time>
      </trkpt>
      <trkpt lat="41.511453200" lon="1.529742600">
        <ele>544.80</ele>
        <time>2018-05-26T08:43:04Z</time>
      </trkpt>
      <trkpt lat="41.511370200" lon="1.529861200">
        <ele>544.20</ele>
        <time>2018-05-26T08:43:05Z</time>
      </trkpt>
      <trkpt lat="41.511189200" lon="1.530084700">
        <ele>543.40</ele>
        <time>2018-05-26T08:43:07Z</time>
      </trkpt>
      <trkpt lat="41.511004500" lon="1.530310900">
        <ele>542.00</ele>
        <time>2018-05-26T08:43:09Z</time>
      </trkpt>
      <trkpt lat="41.510815900" lon="1.530540600">
        <ele>540.20</ele>
        <time>2018-05-26T08:43:11Z</time>
      </trkpt>
      <trkpt lat="41.510624700" lon="1.530781400">
        <ele>538.60</ele>
        <time>2018-05-26T08:43:13Z</time>
      </trkpt>
      <trkpt lat="41.510429500" lon="1.531022100">
        <ele>537.00</ele>
        <time>2018-05-26T08:43:15Z</time>
      </trkpt>
      <trkpt lat="41.510331800" lon="1.531145500">
        <ele>536.00</ele>
        <time>2018-05-26T08:43:16Z</time>
      </trkpt>
      <trkpt lat="41.510236600" lon="1.531267500">
        <ele>534.80</ele>
        <time>2018-05-26T08:43:17Z</time>
      </trkpt>
      <trkpt lat="41.510050400" lon="1.531508600">
        <ele>534.20</ele>
        <time>2018-05-26T08:43:19Z</time>
      </trkpt>
      <trkpt lat="41.509961400" lon="1.531625300">
        <ele>534.60</ele>
        <time>2018-05-26T08:43:20Z</time>
      </trkpt>
      <trkpt lat="41.509786800" lon="1.531849800">
        <ele>534.60</ele>
        <time>2018-05-26T08:43:22Z</time>
      </trkpt>
      <trkpt lat="41.509396100" lon="1.532389600">
        <ele>535.80</ele>
        <time>2018-05-26T08:43:27Z</time>
      </trkpt>
      <trkpt lat="41.509339700" lon="1.532505700">
        <ele>535.80</ele>
        <time>2018-05-26T08:43:28Z</time>
      </trkpt>
      <trkpt lat="41.509286900" lon="1.532746600">
        <ele>536.00</ele>
        <time>2018-05-26T08:43:30Z</time>
      </trkpt>
      <trkpt lat="41.509256200" lon="1.532981000">
        <ele>536.40</ele>
        <time>2018-05-26T08:43:32Z</time>
      </trkpt>
      <trkpt lat="41.509229200" lon="1.533321200">
        <ele>536.00</ele>
        <time>2018-05-26T08:43:35Z</time>
      </trkpt>
      <trkpt lat="41.509115400" lon="1.533602500">
        <ele>536.00</ele>
        <time>2018-05-26T08:43:38Z</time>
      </trkpt>
      <trkpt lat="41.509001500" lon="1.533751700">
        <ele>536.40</ele>
        <time>2018-05-26T08:43:40Z</time>
      </trkpt>
      <trkpt lat="41.508812600" lon="1.533940300">
        <ele>536.40</ele>
        <time>2018-05-26T08:43:43Z</time>
      </trkpt>
      <trkpt lat="41.508461600" lon="1.534310700">
        <ele>537.00</ele>
        <time>2018-05-26T08:43:49Z</time>
      </trkpt>
      <trkpt lat="41.508297000" lon="1.534482700">
        <ele>537.00</ele>
        <time>2018-05-26T08:43:52Z</time>
      </trkpt>
      <trkpt lat="41.507827300" lon="1.534941300">
        <ele>537.60</ele>
        <time>2018-05-26T08:44:00Z</time>
      </trkpt>
      <trkpt lat="41.507688300" lon="1.534977900">
        <ele>537.60</ele>
        <time>2018-05-26T08:44:02Z</time>
      </trkpt>
      <trkpt lat="41.507538900" lon="1.534942900">
        <ele>537.60</ele>
        <time>2018-05-26T08:44:04Z</time>
      </trkpt>
      <trkpt lat="41.507308600" lon="1.534809500">
        <ele>537.80</ele>
        <time>2018-05-26T08:44:07Z</time>
      </trkpt>
      <trkpt lat="41.507069300" lon="1.534645300">
        <ele>537.40</ele>
        <time>2018-05-26T08:44:10Z</time>
      </trkpt>
      <trkpt lat="41.506900300" lon="1.534534400">
        <ele>537.40</ele>
        <time>2018-05-26T08:44:12Z</time>
      </trkpt>
      <trkpt lat="41.506731400" lon="1.534427200">
        <ele>537.40</ele>
        <time>2018-05-26T08:44:14Z</time>
      </trkpt>
      <trkpt lat="41.506482600" lon="1.534270200">
        <ele>537.40</ele>
        <time>2018-05-26T08:44:17Z</time>
      </trkpt>
      <trkpt lat="41.506257100" lon="1.534075900">
        <ele>537.40</ele>
        <time>2018-05-26T08:44:20Z</time>
      </trkpt>
      <trkpt lat="41.506142200" lon="1.533879100">
        <ele>537.20</ele>
        <time>2018-05-26T08:44:22Z</time>
      </trkpt>
      <trkpt lat="41.506080900" lon="1.533638700">
        <ele>537.20</ele>
        <time>2018-05-26T08:44:24Z</time>
      </trkpt>
      <trkpt lat="41.506048300" lon="1.533387100">
        <ele>536.80</ele>
        <time>2018-05-26T08:44:26Z</time>
      </trkpt>
      <trkpt lat="41.505977400" lon="1.533030400">
        <ele>536.60</ele>
        <time>2018-05-26T08:44:29Z</time>
      </trkpt>
      <trkpt lat="41.505847900" lon="1.532833400">
        <ele>536.20</ele>
        <time>2018-05-26T08:44:31Z</time>
      </trkpt>
      <trkpt lat="41.505761500" lon="1.532762400">
        <ele>536.00</ele>
        <time>2018-05-26T08:44:32Z</time>
      </trkpt>
      <trkpt lat="41.505568000" lon="1.532678900">
        <ele>536.00</ele>
        <time>2018-05-26T08:44:34Z</time>
      </trkpt>
      <trkpt lat="41.505470000" lon="1.532647500">
        <ele>535.60</ele>
        <time>2018-05-26T08:44:35Z</time>
      </trkpt>
      <trkpt lat="41.504867400" lon="1.532489300">
        <ele>535.00</ele>
        <time>2018-05-26T08:44:41Z</time>
      </trkpt>
      <trkpt lat="41.504669900" lon="1.532431700">
        <ele>534.80</ele>
        <time>2018-05-26T08:44:43Z</time>
      </trkpt>
      <trkpt lat="41.504102000" lon="1.532250100">
        <ele>534.60</ele>
        <time>2018-05-26T08:44:49Z</time>
      </trkpt>
      <trkpt lat="41.504010900" lon="1.532213800">
        <ele>534.40</ele>
        <time>2018-05-26T08:44:50Z</time>
      </trkpt>
      <trkpt lat="41.503659200" lon="1.532014300">
        <ele>534.40</ele>
        <time>2018-05-26T08:44:54Z</time>
      </trkpt>
      <trkpt lat="41.503575300" lon="1.531946500">
        <ele>534.40</ele>
        <time>2018-05-26T08:44:55Z</time>
      </trkpt>
      <trkpt lat="41.503150300" lon="1.531585900">
        <ele>534.00</ele>
        <time>2018-05-26T08:45:00Z</time>
      </trkpt>
      <trkpt lat="41.502981200" lon="1.531436200">
        <ele>533.60</ele>
        <time>2018-05-26T08:45:02Z</time>
      </trkpt>
      <trkpt lat="41.502894100" lon="1.531360700">
        <ele>533.60</ele>
        <time>2018-05-26T08:45:03Z</time>
      </trkpt>
      <trkpt lat="41.502375600" lon="1.530912000">
        <ele>533.00</ele>
        <time>2018-05-26T08:45:09Z</time>
      </trkpt>
      <trkpt lat="41.502117000" lon="1.530696200">
        <ele>533.40</ele>
        <time>2018-05-26T08:45:12Z</time>
      </trkpt>
      <trkpt lat="41.501685900" lon="1.530364200">
        <ele>534.40</ele>
        <time>2018-05-26T08:45:17Z</time>
      </trkpt>
      <trkpt lat="41.501602200" lon="1.530304400">
        <ele>534.60</ele>
        <time>2018-05-26T08:45:18Z</time>
      </trkpt>
      <trkpt lat="41.501522100" lon="1.530235500">
        <ele>534.80</ele>
        <time>2018-05-26T08:45:19Z</time>
      </trkpt>
      <trkpt lat="41.501385200" lon="1.530065600">
        <ele>535.00</ele>
        <time>2018-05-26T08:45:21Z</time>
      </trkpt>
      <trkpt lat="41.501285000" lon="1.529865200">
        <ele>535.40</ele>
        <time>2018-05-26T08:45:23Z</time>
      </trkpt>
      <trkpt lat="41.501201800" lon="1.529668600">
        <ele>536.20</ele>
        <time>2018-05-26T08:45:25Z</time>
      </trkpt>
      <trkpt lat="41.501096300" lon="1.529366900">
        <ele>537.00</ele>
        <time>2018-05-26T08:45:28Z</time>
      </trkpt>
      <trkpt lat="41.501025500" lon="1.529172300">
        <ele>537.40</ele>
        <time>2018-05-26T08:45:30Z</time>
      </trkpt>
      <trkpt lat="41.500914000" lon="1.528892100">
        <ele>538.20</ele>
        <time>2018-05-26T08:45:33Z</time>
      </trkpt>
      <trkpt lat="41.500806600" lon="1.528613300">
        <ele>538.80</ele>
        <time>2018-05-26T08:45:36Z</time>
      </trkpt>
      <trkpt lat="41.500738200" lon="1.528427600">
        <ele>539.20</ele>
        <time>2018-05-26T08:45:38Z</time>
      </trkpt>
      <trkpt lat="41.500563300" lon="1.527960900">
        <ele>540.20</ele>
        <time>2018-05-26T08:45:43Z</time>
      </trkpt>
      <trkpt lat="41.500368900" lon="1.527466500">
        <ele>541.20</ele>
        <time>2018-05-26T08:45:48Z</time>
      </trkpt>
      <trkpt lat="41.500289400" lon="1.527263200">
        <ele>541.60</ele>
        <time>2018-05-26T08:45:50Z</time>
      </trkpt>
      <trkpt lat="41.500166600" lon="1.526952700">
        <ele>541.80</ele>
        <time>2018-05-26T08:45:53Z</time>
      </trkpt>
      <trkpt lat="41.499971700" lon="1.526464000">
        <ele>542.00</ele>
        <time>2018-05-26T08:45:58Z</time>
      </trkpt>
      <trkpt lat="41.499851900" lon="1.526163300">
        <ele>542.40</ele>
        <time>2018-05-26T08:46:01Z</time>
      </trkpt>
      <trkpt lat="41.499649200" lon="1.525645400">
        <ele>543.00</ele>
        <time>2018-05-26T08:46:06Z</time>
      </trkpt>
      <trkpt lat="41.499529200" lon="1.525338000">
        <ele>543.60</ele>
        <time>2018-05-26T08:46:09Z</time>
      </trkpt>
      <trkpt lat="41.499374200" lon="1.524945200">
        <ele>544.20</ele>
        <time>2018-05-26T08:46:13Z</time>
      </trkpt>
      <trkpt lat="41.499055800" lon="1.524135500">
        <ele>544.80</ele>
        <time>2018-05-26T08:46:21Z</time>
      </trkpt>
      <trkpt lat="41.498974200" lon="1.523934900">
        <ele>545.20</ele>
        <time>2018-05-26T08:46:23Z</time>
      </trkpt>
      <trkpt lat="41.498852200" lon="1.523656200">
        <ele>546.00</ele>
        <time>2018-05-26T08:46:26Z</time>
      </trkpt>
      <trkpt lat="41.498715500" lon="1.523410300">
        <ele>546.80</ele>
        <time>2018-05-26T08:46:29Z</time>
      </trkpt>
      <trkpt lat="41.498524500" lon="1.523148000">
        <ele>548.00</ele>
        <time>2018-05-26T08:46:33Z</time>
      </trkpt>
      <trkpt lat="41.498440100" lon="1.523019200">
        <ele>548.40</ele>
        <time>2018-05-26T08:46:35Z</time>
      </trkpt>
      <trkpt lat="41.498351900" lon="1.522886500">
        <ele>549.40</ele>
        <time>2018-05-26T08:46:37Z</time>
      </trkpt>
      <trkpt lat="41.498212400" lon="1.522672700">
        <ele>550.60</ele>
        <time>2018-05-26T08:46:40Z</time>
      </trkpt>
      <trkpt lat="41.498027400" lon="1.522394100">
        <ele>551.60</ele>
        <time>2018-05-26T08:46:44Z</time>
      </trkpt>
      <trkpt lat="41.497895400" lon="1.522195100">
        <ele>552.60</ele>
        <time>2018-05-26T08:46:47Z</time>
      </trkpt>
      <trkpt lat="41.497613000" lon="1.521768600">
        <ele>554.00</ele>
        <time>2018-05-26T08:46:53Z</time>
      </trkpt>
      <trkpt lat="41.497437600" lon="1.521503500">
        <ele>555.20</ele>
        <time>2018-05-26T08:46:57Z</time>
      </trkpt>
      <trkpt lat="41.497253600" lon="1.521221000">
        <ele>556.40</ele>
        <time>2018-05-26T08:47:01Z</time>
      </trkpt>
      <trkpt lat="41.496964500" lon="1.520662600">
        <ele>557.20</ele>
        <time>2018-05-26T08:47:08Z</time>
      </trkpt>
      <trkpt lat="41.496667800" lon="1.520015100">
        <ele>557.20</ele>
        <time>2018-05-26T08:47:15Z</time>
      </trkpt>
      <trkpt lat="41.496390500" lon="1.519447900">
        <ele>556.80</ele>
        <time>2018-05-26T08:47:21Z</time>
      </trkpt>
      <trkpt lat="41.496102700" lon="1.519250300">
        <ele>555.80</ele>
        <time>2018-05-26T08:47:25Z</time>
      </trkpt>
      <trkpt lat="41.495846100" lon="1.519255400">
        <ele>555.80</ele>
        <time>2018-05-26T08:47:28Z</time>
      </trkpt>
      <trkpt lat="41.495754200" lon="1.519264000">
        <ele>555.60</ele>
        <time>2018-05-26T08:47:29Z</time>
      </trkpt>
      <trkpt lat="41.495311500" lon="1.519302900">
        <ele>556.00</ele>
        <time>2018-05-26T08:47:34Z</time>
      </trkpt>
      <trkpt lat="41.495098100" lon="1.519314200">
        <ele>557.80</ele>
        <time>2018-05-26T08:47:37Z</time>
      </trkpt>
      <trkpt lat="41.494901700" lon="1.519278000">
        <ele>559.20</ele>
        <time>2018-05-26T08:47:40Z</time>
      </trkpt>
      <trkpt lat="41.494693100" lon="1.519152100">
        <ele>560.20</ele>
        <time>2018-05-26T08:47:43Z</time>
      </trkpt>
      <trkpt lat="41.494474600" lon="1.518984800">
        <ele>560.40</ele>
        <time>2018-05-26T08:47:46Z</time>
      </trkpt>
      <trkpt lat="41.494255100" lon="1.518819200">
        <ele>560.60</ele>
        <time>2018-05-26T08:47:49Z</time>
      </trkpt>
      <trkpt lat="41.494055700" lon="1.518601100">
        <ele>560.40</ele>
        <time>2018-05-26T08:47:52Z</time>
      </trkpt>
      <trkpt lat="41.493926400" lon="1.518293400">
        <ele>560.60</ele>
        <time>2018-05-26T08:47:55Z</time>
      </trkpt>
      <trkpt lat="41.493849700" lon="1.517946900">
        <ele>560.20</ele>
        <time>2018-05-26T08:47:58Z</time>
      </trkpt>
      <trkpt lat="41.493802200" lon="1.517718200">
        <ele>560.20</ele>
        <time>2018-05-26T08:48:00Z</time>
      </trkpt>
      <trkpt lat="41.493660600" lon="1.517009300">
        <ele>560.00</ele>
        <time>2018-05-26T08:48:06Z</time>
      </trkpt>
      <trkpt lat="41.493634800" lon="1.516886800">
        <ele>559.60</ele>
        <time>2018-05-26T08:48:07Z</time>
      </trkpt>
      <trkpt lat="41.493579000" lon="1.516638300">
        <ele>559.20</ele>
        <time>2018-05-26T08:48:09Z</time>
      </trkpt>
      <trkpt lat="41.493504200" lon="1.516392700">
        <ele>558.80</ele>
        <time>2018-05-26T08:48:11Z</time>
      </trkpt>
      <trkpt lat="41.493447500" lon="1.516279400">
        <ele>558.40</ele>
        <time>2018-05-26T08:48:12Z</time>
      </trkpt>
      <trkpt lat="41.493299500" lon="1.516084200">
        <ele>558.00</ele>
        <time>2018-05-26T08:48:14Z</time>
      </trkpt>
      <trkpt lat="41.493217200" lon="1.515995100">
        <ele>557.60</ele>
        <time>2018-05-26T08:48:15Z</time>
      </trkpt>
      <trkpt lat="41.492729700" lon="1.515504300">
        <ele>557.60</ele>
        <time>2018-05-26T08:48:21Z</time>
      </trkpt>
      <trkpt lat="41.492641300" lon="1.515470000">
        <ele>557.60</ele>
        <time>2018-05-26T08:48:22Z</time>
      </trkpt>
      <trkpt lat="41.492387900" lon="1.515507900">
        <ele>559.20</ele>
        <time>2018-05-26T08:48:25Z</time>
      </trkpt>
      <trkpt lat="41.492167500" lon="1.515610300">
        <ele>560.40</ele>
        <time>2018-05-26T08:48:28Z</time>
      </trkpt>
      <trkpt lat="41.492033800" lon="1.515685100">
        <ele>561.60</ele>
        <time>2018-05-26T08:48:30Z</time>
      </trkpt>
      <trkpt lat="41.491902100" lon="1.515733800">
        <ele>562.40</ele>
        <time>2018-05-26T08:48:32Z</time>
      </trkpt>
      <trkpt lat="41.491763500" lon="1.515705600">
        <ele>563.00</ele>
        <time>2018-05-26T08:48:34Z</time>
      </trkpt>
      <trkpt lat="41.491600000" lon="1.515514400">
        <ele>564.00</ele>
        <time>2018-05-26T08:48:37Z</time>
      </trkpt>
      <trkpt lat="41.491511900" lon="1.515340300">
        <ele>564.60</ele>
        <time>2018-05-26T08:48:39Z</time>
      </trkpt>
      <trkpt lat="41.491331200" lon="1.514974900">
        <ele>564.60</ele>
        <time>2018-05-26T08:48:43Z</time>
      </trkpt>
      <trkpt lat="41.491027400" lon="1.514397000">
        <ele>564.20</ele>
        <time>2018-05-26T08:48:49Z</time>
      </trkpt>
      <trkpt lat="41.490970400" lon="1.514297800">
        <ele>564.20</ele>
        <time>2018-05-26T08:48:50Z</time>
      </trkpt>
      <trkpt lat="41.490727100" lon="1.513892200">
        <ele>562.60</ele>
        <time>2018-05-26T08:48:54Z</time>
      </trkpt>
      <trkpt lat="41.490675000" lon="1.513777200">
        <ele>562.00</ele>
        <time>2018-05-26T08:48:55Z</time>
      </trkpt>
      <trkpt lat="41.490639300" lon="1.513652700">
        <ele>561.20</ele>
        <time>2018-05-26T08:48:56Z</time>
      </trkpt>
      <trkpt lat="41.490534800" lon="1.513340500">
        <ele>560.20</ele>
        <time>2018-05-26T08:48:59Z</time>
      </trkpt>
      <trkpt lat="41.490395900" lon="1.513320400">
        <ele>560.00</ele>
        <time>2018-05-26T08:49:01Z</time>
      </trkpt>
      <trkpt lat="41.490293500" lon="1.513472200">
        <ele>559.60</ele>
        <time>2018-05-26T08:49:03Z</time>
      </trkpt>
      <trkpt lat="41.490253900" lon="1.513674000">
        <ele>559.20</ele>
        <time>2018-05-26T08:49:05Z</time>
      </trkpt>
      <trkpt lat="41.490210900" lon="1.513869400">
        <ele>559.00</ele>
        <time>2018-05-26T08:49:07Z</time>
      </trkpt>
      <trkpt lat="41.490127500" lon="1.514175300">
        <ele>558.40</ele>
        <time>2018-05-26T08:49:10Z</time>
      </trkpt>
      <trkpt lat="41.490076000" lon="1.514393900">
        <ele>557.60</ele>
        <time>2018-05-26T08:49:12Z</time>
      </trkpt>
      <trkpt lat="41.490018000" lon="1.514594200">
        <ele>556.80</ele>
        <time>2018-05-26T08:49:14Z</time>
      </trkpt>
      <trkpt lat="41.489948800" lon="1.514759700">
        <ele>556.40</ele>
        <time>2018-05-26T08:49:16Z</time>
      </trkpt>
      <trkpt lat="41.489816900" lon="1.514988300">
        <ele>555.80</ele>
        <time>2018-05-26T08:49:19Z</time>
      </trkpt>
      <trkpt lat="41.489697100" lon="1.515223900">
        <ele>555.40</ele>
        <time>2018-05-26T08:49:22Z</time>
      </trkpt>
      <trkpt lat="41.489634200" lon="1.515360900">
        <ele>554.60</ele>
        <time>2018-05-26T08:49:24Z</time>
      </trkpt>
      <trkpt lat="41.489568300" lon="1.515609500">
        <ele>553.80</ele>
        <time>2018-05-26T08:49:29Z</time>
      </trkpt>
      <trkpt lat="41.489535300" lon="1.515786100">
        <ele>553.20</ele>
        <time>2018-05-26T08:49:32Z</time>
      </trkpt>
      <trkpt lat="41.489499400" lon="1.515925500">
        <ele>552.60</ele>
        <time>2018-05-26T08:49:35Z</time>
      </trkpt>
      <trkpt lat="41.489460700" lon="1.516149200">
        <ele>551.60</ele>
        <time>2018-05-26T08:49:41Z</time>
      </trkpt>
      <trkpt lat="41.489401500" lon="1.516433200">
        <ele>551.00</ele>
        <time>2018-05-26T08:49:45Z</time>
      </trkpt>
      <trkpt lat="41.489337300" lon="1.516590500">
        <ele>550.40</ele>
        <time>2018-05-26T08:49:47Z</time>
      </trkpt>
      <trkpt lat="41.489256200" lon="1.516729600">
        <ele>549.40</ele>
        <time>2018-05-26T08:49:49Z</time>
      </trkpt>
      <trkpt lat="41.489063200" lon="1.516937200">
        <ele>549.80</ele>
        <time>2018-05-26T08:49:53Z</time>
      </trkpt>
      <trkpt lat="41.488847900" lon="1.517043300">
        <ele>550.20</ele>
        <time>2018-05-26T08:49:56Z</time>
      </trkpt>
      <trkpt lat="41.488703900" lon="1.517113700">
        <ele>550.60</ele>
        <time>2018-05-26T08:49:58Z</time>
      </trkpt>
      <trkpt lat="41.488505600" lon="1.517213900">
        <ele>551.20</ele>
        <time>2018-05-26T08:50:01Z</time>
      </trkpt>
      <trkpt lat="41.488388400" lon="1.517273800">
        <ele>551.80</ele>
        <time>2018-05-26T08:50:03Z</time>
      </trkpt>
      <trkpt lat="41.488192700" lon="1.517377700">
        <ele>553.00</ele>
        <time>2018-05-26T08:50:07Z</time>
      </trkpt>
      <trkpt lat="41.488052600" lon="1.517453100">
        <ele>554.20</ele>
        <time>2018-05-26T08:50:10Z</time>
      </trkpt>
      <trkpt lat="41.487897800" lon="1.517480000">
        <ele>555.20</ele>
        <time>2018-05-26T08:50:13Z</time>
      </trkpt>
      <trkpt lat="41.487754500" lon="1.517423700">
        <ele>556.20</ele>
        <time>2018-05-26T08:50:16Z</time>
      </trkpt>
      <trkpt lat="41.487680200" lon="1.517347900">
        <ele>556.80</ele>
        <time>2018-05-26T08:50:18Z</time>
      </trkpt>
      <trkpt lat="41.487617300" lon="1.517251000">
        <ele>557.60</ele>
        <time>2018-05-26T08:50:20Z</time>
      </trkpt>
      <trkpt lat="41.487534900" lon="1.517112600">
        <ele>558.60</ele>
        <time>2018-05-26T08:50:23Z</time>
      </trkpt>
      <trkpt lat="41.487424100" lon="1.516940600">
        <ele>559.40</ele>
        <time>2018-05-26T08:50:27Z</time>
      </trkpt>
      <trkpt lat="41.487287000" lon="1.516722700">
        <ele>561.20</ele>
        <time>2018-05-26T08:50:32Z</time>
      </trkpt>
      <trkpt lat="41.487179300" lon="1.516565200">
        <ele>562.60</ele>
        <time>2018-05-26T08:50:36Z</time>
      </trkpt>
      <trkpt lat="41.487086500" lon="1.516457400">
        <ele>563.60</ele>
        <time>2018-05-26T08:50:39Z</time>
      </trkpt>
      <trkpt lat="41.486885700" lon="1.516306800">
        <ele>564.00</ele>
        <time>2018-05-26T08:50:45Z</time>
      </trkpt>
      <trkpt lat="41.486643900" lon="1.516212400">
        <ele>566.00</ele>
        <time>2018-05-26T08:50:51Z</time>
      </trkpt>
      <trkpt lat="41.486438800" lon="1.516107300">
        <ele>567.20</ele>
        <time>2018-05-26T08:50:56Z</time>
      </trkpt>
      <trkpt lat="41.486306400" lon="1.515976700">
        <ele>568.40</ele>
        <time>2018-05-26T08:51:00Z</time>
      </trkpt>
      <trkpt lat="41.486196300" lon="1.515802200">
        <ele>569.40</ele>
        <time>2018-05-26T08:51:04Z</time>
      </trkpt>
      <trkpt lat="41.486073900" lon="1.515574700">
        <ele>570.60</ele>
        <time>2018-05-26T08:51:09Z</time>
      </trkpt>
      <trkpt lat="41.485974800" lon="1.515446100">
        <ele>571.20</ele>
        <time>2018-05-26T08:51:12Z</time>
      </trkpt>
      <trkpt lat="41.485861100" lon="1.515327100">
        <ele>571.80</ele>
        <time>2018-05-26T08:51:15Z</time>
      </trkpt>
      <trkpt lat="41.485736600" lon="1.515216500">
        <ele>572.20</ele>
        <time>2018-05-26T08:51:18Z</time>
      </trkpt>
      <trkpt lat="41.485565300" lon="1.515071400">
        <ele>572.80</ele>
        <time>2018-05-26T08:51:22Z</time>
      </trkpt>
      <trkpt lat="41.485404200" lon="1.514924100">
        <ele>573.60</ele>
        <time>2018-05-26T08:51:26Z</time>
      </trkpt>
      <trkpt lat="41.485092100" lon="1.514637500">
        <ele>575.00</ele>
        <time>2018-05-26T08:51:34Z</time>
      </trkpt>
      <trkpt lat="41.485014200" lon="1.514565600">
        <ele>575.40</ele>
        <time>2018-05-26T08:51:36Z</time>
      </trkpt>
      <trkpt lat="41.484895900" lon="1.514456900">
        <ele>576.20</ele>
        <time>2018-05-26T08:51:39Z</time>
      </trkpt>
      <trkpt lat="41.484687600" lon="1.514267600">
        <ele>577.20</ele>
        <time>2018-05-26T08:51:44Z</time>
      </trkpt>
      <trkpt lat="41.484493200" lon="1.514080000">
        <ele>578.40</ele>
        <time>2018-05-26T08:51:49Z</time>
      </trkpt>
      <trkpt lat="41.484348000" lon="1.513920000">
        <ele>579.40</ele>
        <time>2018-05-26T08:51:53Z</time>
      </trkpt>
      <trkpt lat="41.484169000" lon="1.513644100">
        <ele>580.60</ele>
        <time>2018-05-26T08:51:59Z</time>
      </trkpt>
      <trkpt lat="41.484024600" lon="1.513427800">
        <ele>581.80</ele>
        <time>2018-05-26T08:52:04Z</time>
      </trkpt>
      <trkpt lat="41.483905100" lon="1.513269000">
        <ele>582.60</ele>
        <time>2018-05-26T08:52:08Z</time>
      </trkpt>
      <trkpt lat="41.483733100" lon="1.513026700">
        <ele>584.00</ele>
        <time>2018-05-26T08:52:14Z</time>
      </trkpt>
      <trkpt lat="41.483649600" lon="1.512911000">
        <ele>584.60</ele>
        <time>2018-05-26T08:52:17Z</time>
      </trkpt>
      <trkpt lat="41.483561000" lon="1.512785300">
        <ele>585.20</ele>
        <time>2018-05-26T08:52:20Z</time>
      </trkpt>
      <trkpt lat="41.483407100" lon="1.512579700">
        <ele>586.20</ele>
        <time>2018-05-26T08:52:25Z</time>
      </trkpt>
      <trkpt lat="41.483221300" lon="1.512339800">
        <ele>587.40</ele>
        <time>2018-05-26T08:52:31Z</time>
      </trkpt>
      <trkpt lat="41.483070200" lon="1.512140500">
        <ele>588.60</ele>
        <time>2018-05-26T08:52:36Z</time>
      </trkpt>
      <trkpt lat="41.482910900" lon="1.511972700">
        <ele>589.60</ele>
        <time>2018-05-26T08:52:41Z</time>
      </trkpt>
      <trkpt lat="41.482712300" lon="1.511743900">
        <ele>590.80</ele>
        <time>2018-05-26T08:52:47Z</time>
      </trkpt>
      <trkpt lat="41.482574500" lon="1.511522000">
        <ele>592.00</ele>
        <time>2018-05-26T08:52:52Z</time>
      </trkpt>
      <trkpt lat="41.482519000" lon="1.511360700">
        <ele>592.80</ele>
        <time>2018-05-26T08:52:55Z</time>
      </trkpt>
      <trkpt lat="41.482471900" lon="1.511137700">
        <ele>593.60</ele>
        <time>2018-05-26T08:52:59Z</time>
      </trkpt>
      <trkpt lat="41.482395600" lon="1.510810000">
        <ele>595.20</ele>
        <time>2018-05-26T08:53:05Z</time>
      </trkpt>
      <trkpt lat="41.482309400" lon="1.510539700">
        <ele>596.40</ele>
        <time>2018-05-26T08:53:10Z</time>
      </trkpt>
      <trkpt lat="41.482175900" lon="1.510292100">
        <ele>597.40</ele>
        <time>2018-05-26T08:53:15Z</time>
      </trkpt>
      <trkpt lat="41.481976400" lon="1.510207000">
        <ele>598.40</ele>
        <time>2018-05-26T08:53:20Z</time>
      </trkpt>
      <trkpt lat="41.481808100" lon="1.510322600">
        <ele>599.60</ele>
        <time>2018-05-26T08:53:24Z</time>
      </trkpt>
      <trkpt lat="41.481744900" lon="1.510548400">
        <ele>600.80</ele>
        <time>2018-05-26T08:53:28Z</time>
      </trkpt>
      <trkpt lat="41.481782100" lon="1.510777400">
        <ele>601.60</ele>
        <time>2018-05-26T08:53:32Z</time>
      </trkpt>
      <trkpt lat="41.481833400" lon="1.510948300">
        <ele>602.20</ele>
        <time>2018-05-26T08:53:35Z</time>
      </trkpt>
      <trkpt lat="41.481904200" lon="1.511173200">
        <ele>603.40</ele>
        <time>2018-05-26T08:53:39Z</time>
      </trkpt>
      <trkpt lat="41.481954600" lon="1.511391800">
        <ele>604.20</ele>
        <time>2018-05-26T08:53:43Z</time>
      </trkpt>
      <trkpt lat="41.481990200" lon="1.511687900">
        <ele>606.00</ele>
        <time>2018-05-26T08:53:48Z</time>
      </trkpt>
      <trkpt lat="41.481958300" lon="1.511920900">
        <ele>607.20</ele>
        <time>2018-05-26T08:53:52Z</time>
      </trkpt>
      <trkpt lat="41.481882100" lon="1.512134300">
        <ele>608.40</ele>
        <time>2018-05-26T08:53:56Z</time>
      </trkpt>
      <trkpt lat="41.481816000" lon="1.512291100">
        <ele>609.40</ele>
        <time>2018-05-26T08:53:59Z</time>
      </trkpt>
      <trkpt lat="41.481736700" lon="1.512563000">
        <ele>610.80</ele>
        <time>2018-05-26T08:54:04Z</time>
      </trkpt>
      <trkpt lat="41.481763300" lon="1.512725100">
        <ele>611.80</ele>
        <time>2018-05-26T08:54:07Z</time>
      </trkpt>
      <trkpt lat="41.481886400" lon="1.512906900">
        <ele>612.80</ele>
        <time>2018-05-26T08:54:11Z</time>
      </trkpt>
      <trkpt lat="41.481963000" lon="1.512978800">
        <ele>613.60</ele>
        <time>2018-05-26T08:54:13Z</time>
      </trkpt>
      <trkpt lat="41.482080300" lon="1.513086600">
        <ele>614.00</ele>
        <time>2018-05-26T08:54:16Z</time>
      </trkpt>
      <trkpt lat="41.482200900" lon="1.513204800">
        <ele>614.80</ele>
        <time>2018-05-26T08:54:19Z</time>
      </trkpt>
      <trkpt lat="41.482274200" lon="1.513298500">
        <ele>615.40</ele>
        <time>2018-05-26T08:54:21Z</time>
      </trkpt>
      <trkpt lat="41.482332700" lon="1.513401600">
        <ele>616.00</ele>
        <time>2018-05-26T08:54:23Z</time>
      </trkpt>
      <trkpt lat="41.482373500" lon="1.513508700">
        <ele>616.40</ele>
        <time>2018-05-26T08:54:25Z</time>
      </trkpt>
      <trkpt lat="41.482431700" lon="1.513732000">
        <ele>617.60</ele>
        <time>2018-05-26T08:54:29Z</time>
      </trkpt>
      <trkpt lat="41.482451800" lon="1.513858400">
        <ele>618.20</ele>
        <time>2018-05-26T08:54:31Z</time>
      </trkpt>
      <trkpt lat="41.482452900" lon="1.513986300">
        <ele>618.80</ele>
        <time>2018-05-26T08:54:33Z</time>
      </trkpt>
      <trkpt lat="41.482436400" lon="1.514170900">
        <ele>620.20</ele>
        <time>2018-05-26T08:54:36Z</time>
      </trkpt>
      <trkpt lat="41.482403200" lon="1.514354000">
        <ele>621.00</ele>
        <time>2018-05-26T08:54:39Z</time>
      </trkpt>
      <trkpt lat="41.482352900" lon="1.514648200">
        <ele>622.40</ele>
        <time>2018-05-26T08:54:44Z</time>
      </trkpt>
      <trkpt lat="41.482344700" lon="1.514822100">
        <ele>623.00</ele>
        <time>2018-05-26T08:54:47Z</time>
      </trkpt>
      <trkpt lat="41.482387800" lon="1.514927700">
        <ele>623.60</ele>
        <time>2018-05-26T08:54:49Z</time>
      </trkpt>
      <trkpt lat="41.482487800" lon="1.515023100">
        <ele>624.20</ele>
        <time>2018-05-26T08:54:52Z</time>
      </trkpt>
      <trkpt lat="41.482601800" lon="1.515099400">
        <ele>624.60</ele>
        <time>2018-05-26T08:54:54Z</time>
      </trkpt>
      <trkpt lat="41.482806900" lon="1.515357700">
        <ele>626.00</ele>
        <time>2018-05-26T08:54:59Z</time>
      </trkpt>
      <trkpt lat="41.482847500" lon="1.515474800">
        <ele>626.60</ele>
        <time>2018-05-26T08:55:01Z</time>
      </trkpt>
      <trkpt lat="41.482885400" lon="1.515587200">
        <ele>627.20</ele>
        <time>2018-05-26T08:55:03Z</time>
      </trkpt>
      <trkpt lat="41.482925600" lon="1.515762800">
        <ele>628.00</ele>
        <time>2018-05-26T08:55:06Z</time>
      </trkpt>
      <trkpt lat="41.482969200" lon="1.515986000">
        <ele>628.80</ele>
        <time>2018-05-26T08:55:10Z</time>
      </trkpt>
      <trkpt lat="41.483002100" lon="1.516140200">
        <ele>629.80</ele>
        <time>2018-05-26T08:55:13Z</time>
      </trkpt>
      <trkpt lat="41.483089600" lon="1.516475600">
        <ele>632.00</ele>
        <time>2018-05-26T08:55:19Z</time>
      </trkpt>
      <trkpt lat="41.483133300" lon="1.516599100">
        <ele>632.00</ele>
        <time>2018-05-26T08:55:21Z</time>
      </trkpt>
      <trkpt lat="41.483192200" lon="1.516779500">
        <ele>633.00</ele>
        <time>2018-05-26T08:55:24Z</time>
      </trkpt>
      <trkpt lat="41.483262300" lon="1.517018000">
        <ele>634.00</ele>
        <time>2018-05-26T08:55:28Z</time>
      </trkpt>
      <trkpt lat="41.483326200" lon="1.517313100">
        <ele>635.20</ele>
        <time>2018-05-26T08:55:33Z</time>
      </trkpt>
      <trkpt lat="41.483335500" lon="1.517442200">
        <ele>635.80</ele>
        <time>2018-05-26T08:55:35Z</time>
      </trkpt>
      <trkpt lat="41.483301200" lon="1.517622400">
        <ele>636.40</ele>
        <time>2018-05-26T08:55:38Z</time>
      </trkpt>
      <trkpt lat="41.483258100" lon="1.517736400">
        <ele>637.00</ele>
        <time>2018-05-26T08:55:40Z</time>
      </trkpt>
      <trkpt lat="41.483179100" lon="1.517900200">
        <ele>637.60</ele>
        <time>2018-05-26T08:55:43Z</time>
      </trkpt>
      <trkpt lat="41.483028500" lon="1.518149700">
        <ele>639.00</ele>
        <time>2018-05-26T08:55:48Z</time>
      </trkpt>
      <trkpt lat="41.482781400" lon="1.518401700">
        <ele>640.20</ele>
        <time>2018-05-26T08:55:54Z</time>
      </trkpt>
      <trkpt lat="41.482420800" lon="1.518611300">
        <ele>640.20</ele>
        <time>2018-05-26T08:56:01Z</time>
      </trkpt>
      <trkpt lat="41.482051500" lon="1.518669200">
        <ele>640.40</ele>
        <time>2018-05-26T08:56:07Z</time>
      </trkpt>
      <trkpt lat="41.481737200" lon="1.518714400">
        <ele>640.60</ele>
        <time>2018-05-26T08:56:12Z</time>
      </trkpt>
      <trkpt lat="41.481401900" lon="1.518767700">
        <ele>640.20</ele>
        <time>2018-05-26T08:56:17Z</time>
      </trkpt>
      <trkpt lat="41.481006400" lon="1.518855300">
        <ele>640.80</ele>
        <time>2018-05-26T08:56:23Z</time>
      </trkpt>
      <trkpt lat="41.480739100" lon="1.519144900">
        <ele>640.80</ele>
        <time>2018-05-26T08:56:28Z</time>
      </trkpt>
      <trkpt lat="41.480455700" lon="1.519621700">
        <ele>640.00</ele>
        <time>2018-05-26T08:56:34Z</time>
      </trkpt>
      <trkpt lat="41.480093400" lon="1.520227400">
        <ele>639.60</ele>
        <time>2018-05-26T08:56:41Z</time>
      </trkpt>
      <trkpt lat="41.479872100" lon="1.520582000">
        <ele>639.00</ele>
        <time>2018-05-26T08:56:45Z</time>
      </trkpt>
      <trkpt lat="41.479618600" lon="1.520898800">
        <ele>638.40</ele>
        <time>2018-05-26T08:56:49Z</time>
      </trkpt>
      <trkpt lat="41.479212300" lon="1.521344800">
        <ele>637.80</ele>
        <time>2018-05-26T08:56:55Z</time>
      </trkpt>
      <trkpt lat="41.479023100" lon="1.521569100">
        <ele>637.80</ele>
        <time>2018-05-26T08:56:58Z</time>
      </trkpt>
      <trkpt lat="41.478649500" lon="1.522010300">
        <ele>637.00</ele>
        <time>2018-05-26T08:57:04Z</time>
      </trkpt>
      <trkpt lat="41.478469200" lon="1.522231200">
        <ele>636.20</ele>
        <time>2018-05-26T08:57:07Z</time>
      </trkpt>
      <trkpt lat="41.478236400" lon="1.522506600">
        <ele>636.20</ele>
        <time>2018-05-26T08:57:11Z</time>
      </trkpt>
      <trkpt lat="41.478076300" lon="1.522705100">
        <ele>635.80</ele>
        <time>2018-05-26T08:57:14Z</time>
      </trkpt>
      <trkpt lat="41.477971700" lon="1.522832600">
        <ele>635.80</ele>
        <time>2018-05-26T08:57:16Z</time>
      </trkpt>
      <trkpt lat="41.477813600" lon="1.523027800">
        <ele>635.20</ele>
        <time>2018-05-26T08:57:19Z</time>
      </trkpt>
      <trkpt lat="41.477475000" lon="1.523443700">
        <ele>635.80</ele>
        <time>2018-05-26T08:57:26Z</time>
      </trkpt>
      <trkpt lat="41.477282700" lon="1.523674100">
        <ele>635.40</ele>
        <time>2018-05-26T08:57:30Z</time>
      </trkpt>
      <trkpt lat="41.477093500" lon="1.523895100">
        <ele>635.20</ele>
        <time>2018-05-26T08:57:34Z</time>
      </trkpt>
      <trkpt lat="41.476956900" lon="1.524068000">
        <ele>635.00</ele>
        <time>2018-05-26T08:57:37Z</time>
      </trkpt>
      <trkpt lat="41.476778200" lon="1.524298600">
        <ele>635.00</ele>
        <time>2018-05-26T08:57:41Z</time>
      </trkpt>
      <trkpt lat="41.476643800" lon="1.524573700">
        <ele>634.80</ele>
        <time>2018-05-26T08:57:45Z</time>
      </trkpt>
      <trkpt lat="41.476433500" lon="1.524989600">
        <ele>634.60</ele>
        <time>2018-05-26T08:57:51Z</time>
      </trkpt>
      <trkpt lat="41.476202100" lon="1.525451000">
        <ele>634.40</ele>
        <time>2018-05-26T08:57:58Z</time>
      </trkpt>
      <trkpt lat="41.475884500" lon="1.526082100">
        <ele>635.00</ele>
        <time>2018-05-26T08:58:08Z</time>
      </trkpt>
      <trkpt lat="41.475611700" lon="1.526551800">
        <ele>635.20</ele>
        <time>2018-05-26T08:58:16Z</time>
      </trkpt>
      <trkpt lat="41.475369200" lon="1.526875600">
        <ele>635.20</ele>
        <time>2018-05-26T08:58:23Z</time>
      </trkpt>
      <trkpt lat="41.475125700" lon="1.527227400">
        <ele>635.00</ele>
        <time>2018-05-26T08:58:30Z</time>
      </trkpt>
      <trkpt lat="41.475058600" lon="1.527317500">
        <ele>635.20</ele>
        <time>2018-05-26T08:58:32Z</time>
      </trkpt>
      <trkpt lat="41.474889800" lon="1.527556800">
        <ele>635.60</ele>
        <time>2018-05-26T08:58:37Z</time>
      </trkpt>
      <trkpt lat="41.474630500" lon="1.527916300">
        <ele>636.80</ele>
        <time>2018-05-26T08:58:44Z</time>
      </trkpt>
      <trkpt lat="41.474457900" lon="1.528168000">
        <ele>636.40</ele>
        <time>2018-05-26T08:58:48Z</time>
      </trkpt>
      <trkpt lat="41.474366300" lon="1.528321300">
        <ele>636.00</ele>
        <time>2018-05-26T08:58:50Z</time>
      </trkpt>
      <trkpt lat="41.474190800" lon="1.528650600">
        <ele>635.20</ele>
        <time>2018-05-26T08:58:54Z</time>
      </trkpt>
      <trkpt lat="41.474024100" lon="1.528985500">
        <ele>635.00</ele>
        <time>2018-05-26T08:58:58Z</time>
      </trkpt>
      <trkpt lat="41.473761200" lon="1.529544200">
        <ele>634.60</ele>
        <time>2018-05-26T08:59:05Z</time>
      </trkpt>
      <trkpt lat="41.473535900" lon="1.530000800">
        <ele>634.40</ele>
        <time>2018-05-26T08:59:11Z</time>
      </trkpt>
      <trkpt lat="41.473461200" lon="1.530142200">
        <ele>634.00</ele>
        <time>2018-05-26T08:59:13Z</time>
      </trkpt>
      <trkpt lat="41.473390700" lon="1.530282800">
        <ele>634.60</ele>
        <time>2018-05-26T08:59:15Z</time>
      </trkpt>
      <trkpt lat="41.473280400" lon="1.530483100">
        <ele>635.60</ele>
        <time>2018-05-26T08:59:18Z</time>
      </trkpt>
      <trkpt lat="41.473168700" lon="1.530671100">
        <ele>636.20</ele>
        <time>2018-05-26T08:59:21Z</time>
      </trkpt>
      <trkpt lat="41.473091900" lon="1.530791800">
        <ele>637.00</ele>
        <time>2018-05-26T08:59:23Z</time>
      </trkpt>
      <trkpt lat="41.473007800" lon="1.530892400">
        <ele>637.60</ele>
        <time>2018-05-26T08:59:25Z</time>
      </trkpt>
      <trkpt lat="41.472914200" lon="1.530965400">
        <ele>638.00</ele>
        <time>2018-05-26T08:59:27Z</time>
      </trkpt>
      <trkpt lat="41.472766800" lon="1.531042600">
        <ele>639.20</ele>
        <time>2018-05-26T08:59:30Z</time>
      </trkpt>
      <trkpt lat="41.472588800" lon="1.531142000">
        <ele>640.20</ele>
        <time>2018-05-26T08:59:34Z</time>
      </trkpt>
      <trkpt lat="41.472413300" lon="1.531245400">
        <ele>641.40</ele>
        <time>2018-05-26T08:59:38Z</time>
      </trkpt>
      <trkpt lat="41.472225900" lon="1.531368900">
        <ele>642.60</ele>
        <time>2018-05-26T08:59:42Z</time>
      </trkpt>
      <trkpt lat="41.472126300" lon="1.531447300">
        <ele>643.20</ele>
        <time>2018-05-26T08:59:44Z</time>
      </trkpt>
      <trkpt lat="41.472001500" lon="1.531595800">
        <ele>643.60</ele>
        <time>2018-05-26T08:59:47Z</time>
      </trkpt>
      <trkpt lat="41.471920800" lon="1.531697200">
        <ele>644.20</ele>
        <time>2018-05-26T08:59:49Z</time>
      </trkpt>
      <trkpt lat="41.471702200" lon="1.532002900">
        <ele>645.00</ele>
        <time>2018-05-26T08:59:55Z</time>
      </trkpt>
      <trkpt lat="41.471630700" lon="1.532102400">
        <ele>645.40</ele>
        <time>2018-05-26T08:59:57Z</time>
      </trkpt>
      <trkpt lat="41.471455100" lon="1.532350000">
        <ele>646.40</ele>
        <time>2018-05-26T09:00:02Z</time>
      </trkpt>
      <trkpt lat="41.471390200" lon="1.532445400">
        <ele>646.80</ele>
        <time>2018-05-26T09:00:04Z</time>
      </trkpt>
      <trkpt lat="41.471283900" lon="1.532561800">
        <ele>647.20</ele>
        <time>2018-05-26T09:00:07Z</time>
      </trkpt>
      <trkpt lat="41.471196100" lon="1.532607900">
        <ele>647.40</ele>
        <time>2018-05-26T09:00:09Z</time>
      </trkpt>
      <trkpt lat="41.470981900" lon="1.532650400">
        <ele>649.00</ele>
        <time>2018-05-26T09:00:13Z</time>
      </trkpt>
      <trkpt lat="41.470874800" lon="1.532674300">
        <ele>649.40</ele>
        <time>2018-05-26T09:00:15Z</time>
      </trkpt>
      <trkpt lat="41.470719300" lon="1.532710300">
        <ele>650.00</ele>
        <time>2018-05-26T09:00:18Z</time>
      </trkpt>
      <trkpt lat="41.470413900" lon="1.532782900">
        <ele>651.20</ele>
        <time>2018-05-26T09:00:24Z</time>
      </trkpt>
      <trkpt lat="41.470318200" lon="1.532788300">
        <ele>652.00</ele>
        <time>2018-05-26T09:00:26Z</time>
      </trkpt>
      <trkpt lat="41.470225800" lon="1.532776200">
        <ele>652.20</ele>
        <time>2018-05-26T09:00:28Z</time>
      </trkpt>
      <trkpt lat="41.470009500" lon="1.532685300">
        <ele>653.40</ele>
        <time>2018-05-26T09:00:32Z</time>
      </trkpt>
      <trkpt lat="41.469837600" lon="1.532600400">
        <ele>654.60</ele>
        <time>2018-05-26T09:00:35Z</time>
      </trkpt>
      <trkpt lat="41.469697500" lon="1.532484300">
        <ele>656.00</ele>
        <time>2018-05-26T09:00:38Z</time>
      </trkpt>
      <trkpt lat="41.469557400" lon="1.532347100">
        <ele>657.00</ele>
        <time>2018-05-26T09:00:41Z</time>
      </trkpt>
      <trkpt lat="41.469414600" lon="1.532205000">
        <ele>658.20</ele>
        <time>2018-05-26T09:00:44Z</time>
      </trkpt>
      <trkpt lat="41.469281500" lon="1.532078600">
        <ele>659.40</ele>
        <time>2018-05-26T09:00:47Z</time>
      </trkpt>
      <trkpt lat="41.469196000" lon="1.532000300">
        <ele>660.00</ele>
        <time>2018-05-26T09:00:49Z</time>
      </trkpt>
      <trkpt lat="41.469113200" lon="1.531926800">
        <ele>660.60</ele>
        <time>2018-05-26T09:00:51Z</time>
      </trkpt>
      <trkpt lat="41.468973500" lon="1.531842300">
        <ele>661.60</ele>
        <time>2018-05-26T09:00:54Z</time>
      </trkpt>
      <trkpt lat="41.468721500" lon="1.531747500">
        <ele>662.80</ele>
        <time>2018-05-26T09:00:59Z</time>
      </trkpt>
      <trkpt lat="41.468568300" lon="1.531691900">
        <ele>664.00</ele>
        <time>2018-05-26T09:01:02Z</time>
      </trkpt>
      <trkpt lat="41.468385100" lon="1.531580200">
        <ele>665.00</ele>
        <time>2018-05-26T09:01:06Z</time>
      </trkpt>
      <trkpt lat="41.468252400" lon="1.531483100">
        <ele>666.20</ele>
        <time>2018-05-26T09:01:09Z</time>
      </trkpt>
      <trkpt lat="41.468170200" lon="1.531422900">
        <ele>666.60</ele>
        <time>2018-05-26T09:01:11Z</time>
      </trkpt>
      <trkpt lat="41.468084300" lon="1.531379400">
        <ele>667.20</ele>
        <time>2018-05-26T09:01:13Z</time>
      </trkpt>
      <trkpt lat="41.467901200" lon="1.531331700">
        <ele>668.40</ele>
        <time>2018-05-26T09:01:17Z</time>
      </trkpt>
      <trkpt lat="41.467737600" lon="1.531209300">
        <ele>669.20</ele>
        <time>2018-05-26T09:01:21Z</time>
      </trkpt>
      <trkpt lat="41.467677200" lon="1.531051300">
        <ele>670.40</ele>
        <time>2018-05-26T09:01:24Z</time>
      </trkpt>
      <trkpt lat="41.467560100" lon="1.530880900">
        <ele>672.20</ele>
        <time>2018-05-26T09:01:28Z</time>
      </trkpt>
      <trkpt lat="41.467470200" lon="1.530829300">
        <ele>673.00</ele>
        <time>2018-05-26T09:01:30Z</time>
      </trkpt>
      <trkpt lat="41.467370900" lon="1.530806800">
        <ele>673.80</ele>
        <time>2018-05-26T09:01:32Z</time>
      </trkpt>
      <trkpt lat="41.467217800" lon="1.530774100">
        <ele>674.40</ele>
        <time>2018-05-26T09:01:35Z</time>
      </trkpt>
      <trkpt lat="41.466926500" lon="1.530702800">
        <ele>675.60</ele>
        <time>2018-05-26T09:01:41Z</time>
      </trkpt>
      <trkpt lat="41.466830000" lon="1.530670100">
        <ele>676.20</ele>
        <time>2018-05-26T09:01:43Z</time>
      </trkpt>
      <trkpt lat="41.466742000" lon="1.530628200">
        <ele>676.80</ele>
        <time>2018-05-26T09:01:45Z</time>
      </trkpt>
      <trkpt lat="41.466632300" lon="1.530510500">
        <ele>677.40</ele>
        <time>2018-05-26T09:01:48Z</time>
      </trkpt>
      <trkpt lat="41.466590600" lon="1.530316900">
        <ele>678.00</ele>
        <time>2018-05-26T09:01:51Z</time>
      </trkpt>
      <trkpt lat="41.466636600" lon="1.530137100">
        <ele>679.00</ele>
        <time>2018-05-26T09:01:54Z</time>
      </trkpt>
      <trkpt lat="41.466666200" lon="1.530018300">
        <ele>679.60</ele>
        <time>2018-05-26T09:01:56Z</time>
      </trkpt>
      <trkpt lat="41.466641400" lon="1.529868700">
        <ele>680.60</ele>
        <time>2018-05-26T09:01:59Z</time>
      </trkpt>
      <trkpt lat="41.466556300" lon="1.529778300">
        <ele>681.40</ele>
        <time>2018-05-26T09:02:01Z</time>
      </trkpt>
      <trkpt lat="41.466281600" lon="1.529579100">
        <ele>682.40</ele>
        <time>2018-05-26T09:02:07Z</time>
      </trkpt>
      <trkpt lat="41.466059000" lon="1.529424500">
        <ele>683.40</ele>
        <time>2018-05-26T09:02:12Z</time>
      </trkpt>
      <trkpt lat="41.465890100" lon="1.529294400">
        <ele>684.40</ele>
        <time>2018-05-26T09:02:16Z</time>
      </trkpt>
      <trkpt lat="41.465650800" lon="1.529094100">
        <ele>685.80</ele>
        <time>2018-05-26T09:02:22Z</time>
      </trkpt>
      <trkpt lat="41.465494600" lon="1.528960300">
        <ele>686.60</ele>
        <time>2018-05-26T09:02:26Z</time>
      </trkpt>
      <trkpt lat="41.465269100" lon="1.528718000">
        <ele>688.20</ele>
        <time>2018-05-26T09:02:32Z</time>
      </trkpt>
      <trkpt lat="41.465161600" lon="1.528592700">
        <ele>689.00</ele>
        <time>2018-05-26T09:02:35Z</time>
      </trkpt>
      <trkpt lat="41.465022300" lon="1.528558800">
        <ele>689.80</ele>
        <time>2018-05-26T09:02:38Z</time>
      </trkpt>
      <trkpt lat="41.464950100" lon="1.528644300">
        <ele>690.20</ele>
        <time>2018-05-26T09:02:40Z</time>
      </trkpt>
      <trkpt lat="41.464984600" lon="1.528862200">
        <ele>691.40</ele>
        <time>2018-05-26T09:02:44Z</time>
      </trkpt>
      <trkpt lat="41.465115200" lon="1.528948100">
        <ele>692.20</ele>
        <time>2018-05-26T09:02:47Z</time>
      </trkpt>
      <trkpt lat="41.465214100" lon="1.529004000">
        <ele>692.00</ele>
        <time>2018-05-26T09:02:49Z</time>
      </trkpt>
      <trkpt lat="41.465309600" lon="1.529092500">
        <ele>692.60</ele>
        <time>2018-05-26T09:02:51Z</time>
      </trkpt>
      <trkpt lat="41.465594000" lon="1.529438300">
        <ele>693.80</ele>
        <time>2018-05-26T09:02:58Z</time>
      </trkpt>
      <trkpt lat="41.465666300" lon="1.529540800">
        <ele>694.20</ele>
        <time>2018-05-26T09:03:00Z</time>
      </trkpt>
      <trkpt lat="41.465739000" lon="1.529643100">
        <ele>694.80</ele>
        <time>2018-05-26T09:03:02Z</time>
      </trkpt>
      <trkpt lat="41.465843000" lon="1.529793400">
        <ele>695.40</ele>
        <time>2018-05-26T09:03:05Z</time>
      </trkpt>
      <trkpt lat="41.465893000" lon="1.529917100">
        <ele>695.60</ele>
        <time>2018-05-26T09:03:07Z</time>
      </trkpt>
      <trkpt lat="41.465910800" lon="1.530188900">
        <ele>697.00</ele>
        <time>2018-05-26T09:03:11Z</time>
      </trkpt>
      <trkpt lat="41.465888100" lon="1.530438600">
        <ele>698.00</ele>
        <time>2018-05-26T09:03:15Z</time>
      </trkpt>
      <trkpt lat="41.465917400" lon="1.530607500">
        <ele>698.60</ele>
        <time>2018-05-26T09:03:18Z</time>
      </trkpt>
      <trkpt lat="41.465964600" lon="1.530719200">
        <ele>699.20</ele>
        <time>2018-05-26T09:03:20Z</time>
      </trkpt>
      <trkpt lat="41.466068500" lon="1.530956500">
        <ele>700.20</ele>
        <time>2018-05-26T09:03:24Z</time>
      </trkpt>
      <trkpt lat="41.466280100" lon="1.531372000">
        <ele>701.80</ele>
        <time>2018-05-26T09:03:31Z</time>
      </trkpt>
      <trkpt lat="41.466470500" lon="1.531782400">
        <ele>702.80</ele>
        <time>2018-05-26T09:03:38Z</time>
      </trkpt>
      <trkpt lat="41.466532900" lon="1.531899800">
        <ele>703.20</ele>
        <time>2018-05-26T09:03:40Z</time>
      </trkpt>
      <trkpt lat="41.466626000" lon="1.532079500">
        <ele>703.80</ele>
        <time>2018-05-26T09:03:43Z</time>
      </trkpt>
      <trkpt lat="41.466786900" lon="1.532374900">
        <ele>704.60</ele>
        <time>2018-05-26T09:03:48Z</time>
      </trkpt>
      <trkpt lat="41.467016700" lon="1.532709900">
        <ele>706.00</ele>
        <time>2018-05-26T09:03:54Z</time>
      </trkpt>
      <trkpt lat="41.467163900" lon="1.532936500">
        <ele>707.20</ele>
        <time>2018-05-26T09:03:58Z</time>
      </trkpt>
      <trkpt lat="41.467205900" lon="1.533154900">
        <ele>708.00</ele>
        <time>2018-05-26T09:04:01Z</time>
      </trkpt>
      <trkpt lat="41.467142700" lon="1.533322700">
        <ele>708.20</ele>
        <time>2018-05-26T09:04:04Z</time>
      </trkpt>
      <trkpt lat="41.466996000" lon="1.533291200">
        <ele>709.20</ele>
        <time>2018-05-26T09:04:07Z</time>
      </trkpt>
      <trkpt lat="41.466866800" lon="1.533213000">
        <ele>710.00</ele>
        <time>2018-05-26T09:04:09Z</time>
      </trkpt>
      <trkpt lat="41.466757400" lon="1.533101600">
        <ele>710.60</ele>
        <time>2018-05-26T09:04:11Z</time>
      </trkpt>
      <trkpt lat="41.466674400" lon="1.532967600">
        <ele>711.80</ele>
        <time>2018-05-26T09:04:13Z</time>
      </trkpt>
      <trkpt lat="41.466611700" lon="1.532840800">
        <ele>712.40</ele>
        <time>2018-05-26T09:04:15Z</time>
      </trkpt>
      <trkpt lat="41.466544600" lon="1.532710100">
        <ele>713.00</ele>
        <time>2018-05-26T09:04:17Z</time>
      </trkpt>
      <trkpt lat="41.466429700" lon="1.532531000">
        <ele>714.20</ele>
        <time>2018-05-26T09:04:20Z</time>
      </trkpt>
      <trkpt lat="41.466290200" lon="1.532375700">
        <ele>715.20</ele>
        <time>2018-05-26T09:04:23Z</time>
      </trkpt>
      <trkpt lat="41.466070300" lon="1.532144800">
        <ele>716.80</ele>
        <time>2018-05-26T09:04:28Z</time>
      </trkpt>
      <trkpt lat="41.465938200" lon="1.531999500">
        <ele>717.80</ele>
        <time>2018-05-26T09:04:31Z</time>
      </trkpt>
      <trkpt lat="41.465764800" lon="1.531819000">
        <ele>719.00</ele>
        <time>2018-05-26T09:04:35Z</time>
      </trkpt>
      <trkpt lat="41.465678600" lon="1.531724600">
        <ele>720.00</ele>
        <time>2018-05-26T09:04:37Z</time>
      </trkpt>
      <trkpt lat="41.465510100" lon="1.531535000">
        <ele>721.40</ele>
        <time>2018-05-26T09:04:41Z</time>
      </trkpt>
      <trkpt lat="41.465335600" lon="1.531347100">
        <ele>722.80</ele>
        <time>2018-05-26T09:04:45Z</time>
      </trkpt>
      <trkpt lat="41.465202800" lon="1.531206700">
        <ele>723.80</ele>
        <time>2018-05-26T09:04:48Z</time>
      </trkpt>
      <trkpt lat="41.465113700" lon="1.531110500">
        <ele>724.40</ele>
        <time>2018-05-26T09:04:50Z</time>
      </trkpt>
      <trkpt lat="41.465033300" lon="1.531002700">
        <ele>725.00</ele>
        <time>2018-05-26T09:04:52Z</time>
      </trkpt>
      <trkpt lat="41.464924100" lon="1.530839400">
        <ele>725.80</ele>
        <time>2018-05-26T09:04:55Z</time>
      </trkpt>
      <trkpt lat="41.464814100" lon="1.530599100">
        <ele>727.20</ele>
        <time>2018-05-26T09:04:59Z</time>
      </trkpt>
      <trkpt lat="41.464744100" lon="1.530416400">
        <ele>728.40</ele>
        <time>2018-05-26T09:05:02Z</time>
      </trkpt>
      <trkpt lat="41.464659800" lon="1.530227200">
        <ele>729.60</ele>
        <time>2018-05-26T09:05:05Z</time>
      </trkpt>
      <trkpt lat="41.464525400" lon="1.530056200">
        <ele>730.80</ele>
        <time>2018-05-26T09:05:08Z</time>
      </trkpt>
      <trkpt lat="41.464333500" lon="1.529932400">
        <ele>731.60</ele>
        <time>2018-05-26T09:05:12Z</time>
      </trkpt>
      <trkpt lat="41.464093400" lon="1.529816700">
        <ele>732.80</ele>
        <time>2018-05-26T09:05:17Z</time>
      </trkpt>
      <trkpt lat="41.463869500" lon="1.529709400">
        <ele>734.00</ele>
        <time>2018-05-26T09:05:22Z</time>
      </trkpt>
      <trkpt lat="41.463736600" lon="1.529641100">
        <ele>735.20</ele>
        <time>2018-05-26T09:05:25Z</time>
      </trkpt>
      <trkpt lat="41.463595800" lon="1.529580400">
        <ele>736.40</ele>
        <time>2018-05-26T09:05:28Z</time>
      </trkpt>
      <trkpt lat="41.463419000" lon="1.529515900">
        <ele>737.60</ele>
        <time>2018-05-26T09:05:32Z</time>
      </trkpt>
      <trkpt lat="41.463226500" lon="1.529463100">
        <ele>738.60</ele>
        <time>2018-05-26T09:05:36Z</time>
      </trkpt>
      <trkpt lat="41.462994900" lon="1.529417000">
        <ele>739.80</ele>
        <time>2018-05-26T09:05:41Z</time>
      </trkpt>
      <trkpt lat="41.462770700" lon="1.529370400">
        <ele>741.00</ele>
        <time>2018-05-26T09:05:47Z</time>
      </trkpt>
      <trkpt lat="41.462646100" lon="1.529345900">
        <ele>742.00</ele>
        <time>2018-05-26T09:05:50Z</time>
      </trkpt>
      <trkpt lat="41.462489900" lon="1.529305100">
        <ele>743.20</ele>
        <time>2018-05-26T09:05:54Z</time>
      </trkpt>
      <trkpt lat="41.462319500" lon="1.529265500">
        <ele>744.40</ele>
        <time>2018-05-26T09:05:58Z</time>
      </trkpt>
      <trkpt lat="41.462166600" lon="1.529210900">
        <ele>745.40</ele>
        <time>2018-05-26T09:06:02Z</time>
      </trkpt>
      <trkpt lat="41.462007100" lon="1.529154400">
        <ele>746.40</ele>
        <time>2018-05-26T09:06:06Z</time>
      </trkpt>
      <trkpt lat="41.461890900" lon="1.529108800">
        <ele>747.20</ele>
        <time>2018-05-26T09:06:09Z</time>
      </trkpt>
      <trkpt lat="41.461710000" lon="1.529026800">
        <ele>748.20</ele>
        <time>2018-05-26T09:06:13Z</time>
      </trkpt>
      <trkpt lat="41.461618600" lon="1.528990700">
        <ele>749.00</ele>
        <time>2018-05-26T09:06:15Z</time>
      </trkpt>
      <trkpt lat="41.461477600" lon="1.528911200">
        <ele>749.80</ele>
        <time>2018-05-26T09:06:18Z</time>
      </trkpt>
      <trkpt lat="41.461302600" lon="1.528787500">
        <ele>751.00</ele>
        <time>2018-05-26T09:06:22Z</time>
      </trkpt>
      <trkpt lat="41.461084700" lon="1.528635600">
        <ele>752.20</ele>
        <time>2018-05-26T09:06:27Z</time>
      </trkpt>
      <trkpt lat="41.460851900" lon="1.528575500">
        <ele>753.20</ele>
        <time>2018-05-26T09:06:32Z</time>
      </trkpt>
      <trkpt lat="41.460709500" lon="1.528605000">
        <ele>754.00</ele>
        <time>2018-05-26T09:06:35Z</time>
      </trkpt>
      <trkpt lat="41.460570600" lon="1.528669500">
        <ele>755.40</ele>
        <time>2018-05-26T09:06:38Z</time>
      </trkpt>
      <trkpt lat="41.460292200" lon="1.528774700">
        <ele>756.80</ele>
        <time>2018-05-26T09:06:44Z</time>
      </trkpt>
      <trkpt lat="41.460194900" lon="1.528790300">
        <ele>757.20</ele>
        <time>2018-05-26T09:06:46Z</time>
      </trkpt>
      <trkpt lat="41.460062400" lon="1.528769900">
        <ele>758.00</ele>
        <time>2018-05-26T09:06:49Z</time>
      </trkpt>
      <trkpt lat="41.459844400" lon="1.528706200">
        <ele>759.20</ele>
        <time>2018-05-26T09:06:54Z</time>
      </trkpt>
      <trkpt lat="41.459643100" lon="1.528644300">
        <ele>759.60</ele>
        <time>2018-05-26T09:06:58Z</time>
      </trkpt>
      <trkpt lat="41.459503200" lon="1.528600100">
        <ele>760.40</ele>
        <time>2018-05-26T09:07:01Z</time>
      </trkpt>
      <trkpt lat="41.459302700" lon="1.528516900">
        <ele>761.40</ele>
        <time>2018-05-26T09:07:05Z</time>
      </trkpt>
      <trkpt lat="41.459051800" lon="1.528298300">
        <ele>762.60</ele>
        <time>2018-05-26T09:07:11Z</time>
      </trkpt>
      <trkpt lat="41.458890900" lon="1.528157500">
        <ele>763.80</ele>
        <time>2018-05-26T09:07:15Z</time>
      </trkpt>
      <trkpt lat="41.458725700" lon="1.528035000">
        <ele>764.80</ele>
        <time>2018-05-26T09:07:19Z</time>
      </trkpt>
      <trkpt lat="41.458647100" lon="1.527966100">
        <ele>765.40</ele>
        <time>2018-05-26T09:07:21Z</time>
      </trkpt>
      <trkpt lat="41.458569100" lon="1.527905700">
        <ele>766.00</ele>
        <time>2018-05-26T09:07:23Z</time>
      </trkpt>
      <trkpt lat="41.458394000" lon="1.527856900">
        <ele>767.00</ele>
        <time>2018-05-26T09:07:27Z</time>
      </trkpt>
      <trkpt lat="41.458223400" lon="1.528022900">
        <ele>767.40</ele>
        <time>2018-05-26T09:07:31Z</time>
      </trkpt>
      <trkpt lat="41.458274800" lon="1.528225500">
        <ele>767.80</ele>
        <time>2018-05-26T09:07:34Z</time>
      </trkpt>
      <trkpt lat="41.458381900" lon="1.528284300">
        <ele>768.00</ele>
        <time>2018-05-26T09:07:36Z</time>
      </trkpt>
      <trkpt lat="41.458517400" lon="1.528319100">
        <ele>768.20</ele>
        <time>2018-05-26T09:07:38Z</time>
      </trkpt>
      <trkpt lat="41.458772800" lon="1.528442800">
        <ele>768.20</ele>
        <time>2018-05-26T09:07:42Z</time>
      </trkpt>
      <trkpt lat="41.459192500" lon="1.528746800">
        <ele>769.00</ele>
        <time>2018-05-26T09:07:49Z</time>
      </trkpt>
      <trkpt lat="41.459590600" lon="1.529024900">
        <ele>770.60</ele>
        <time>2018-05-26T09:07:56Z</time>
      </trkpt>
      <trkpt lat="41.459809100" lon="1.529185100">
        <ele>772.20</ele>
        <time>2018-05-26T09:08:00Z</time>
      </trkpt>
      <trkpt lat="41.459983500" lon="1.529285400">
        <ele>772.60</ele>
        <time>2018-05-26T09:08:03Z</time>
      </trkpt>
      <trkpt lat="41.460108300" lon="1.529339800">
        <ele>773.20</ele>
        <time>2018-05-26T09:08:05Z</time>
      </trkpt>
      <trkpt lat="41.460235200" lon="1.529389000">
        <ele>774.40</ele>
        <time>2018-05-26T09:08:07Z</time>
      </trkpt>
      <trkpt lat="41.460355600" lon="1.529437700">
        <ele>775.20</ele>
        <time>2018-05-26T09:08:09Z</time>
      </trkpt>
      <trkpt lat="41.460612600" lon="1.529552700">
        <ele>776.80</ele>
        <time>2018-05-26T09:08:14Z</time>
      </trkpt>
      <trkpt lat="41.460817500" lon="1.529772900">
        <ele>777.80</ele>
        <time>2018-05-26T09:08:19Z</time>
      </trkpt>
      <trkpt lat="41.460892400" lon="1.530042100">
        <ele>777.80</ele>
        <time>2018-05-26T09:08:23Z</time>
      </trkpt>
      <trkpt lat="41.460805300" lon="1.530197800">
        <ele>779.20</ele>
        <time>2018-05-26T09:08:26Z</time>
      </trkpt>
      <trkpt lat="41.460659200" lon="1.530158700">
        <ele>779.80</ele>
        <time>2018-05-26T09:08:29Z</time>
      </trkpt>
      <trkpt lat="41.460534800" lon="1.529942200">
        <ele>781.60</ele>
        <time>2018-05-26T09:08:33Z</time>
      </trkpt>
      <trkpt lat="41.460413300" lon="1.529838300">
        <ele>783.00</ele>
        <time>2018-05-26T09:08:36Z</time>
      </trkpt>
      <trkpt lat="41.460281500" lon="1.529795700">
        <ele>784.20</ele>
        <time>2018-05-26T09:08:39Z</time>
      </trkpt>
      <trkpt lat="41.460142900" lon="1.529788700">
        <ele>785.20</ele>
        <time>2018-05-26T09:08:42Z</time>
      </trkpt>
      <trkpt lat="41.459922800" lon="1.529767500">
        <ele>786.60</ele>
        <time>2018-05-26T09:08:47Z</time>
      </trkpt>
      <trkpt lat="41.459749700" lon="1.529759300">
        <ele>787.60</ele>
        <time>2018-05-26T09:08:51Z</time>
      </trkpt>
      <trkpt lat="41.459567500" lon="1.529742400">
        <ele>788.60</ele>
        <time>2018-05-26T09:08:55Z</time>
      </trkpt>
      <trkpt lat="41.459426400" lon="1.529736600">
        <ele>789.60</ele>
        <time>2018-05-26T09:08:58Z</time>
      </trkpt>
      <trkpt lat="41.459235700" lon="1.529722800">
        <ele>790.80</ele>
        <time>2018-05-26T09:09:02Z</time>
      </trkpt>
      <trkpt lat="41.459133500" lon="1.529713300">
        <ele>791.60</ele>
        <time>2018-05-26T09:09:04Z</time>
      </trkpt>
      <trkpt lat="41.458832600" lon="1.529661800">
        <ele>793.20</ele>
        <time>2018-05-26T09:09:10Z</time>
      </trkpt>
      <trkpt lat="41.458579400" lon="1.529531700">
        <ele>794.20</ele>
        <time>2018-05-26T09:09:15Z</time>
      </trkpt>
      <trkpt lat="41.458420400" lon="1.529474600">
        <ele>795.40</ele>
        <time>2018-05-26T09:09:18Z</time>
      </trkpt>
      <trkpt lat="41.458256700" lon="1.529475400">
        <ele>796.20</ele>
        <time>2018-05-26T09:09:21Z</time>
      </trkpt>
      <trkpt lat="41.458142200" lon="1.529473900">
        <ele>796.80</ele>
        <time>2018-05-26T09:09:23Z</time>
      </trkpt>
      <trkpt lat="41.457979100" lon="1.529482000">
        <ele>798.00</ele>
        <time>2018-05-26T09:09:26Z</time>
      </trkpt>
      <trkpt lat="41.457873300" lon="1.529466700">
        <ele>798.40</ele>
        <time>2018-05-26T09:09:28Z</time>
      </trkpt>
      <trkpt lat="41.457674400" lon="1.529369300">
        <ele>799.00</ele>
        <time>2018-05-26T09:09:32Z</time>
      </trkpt>
      <trkpt lat="41.457530200" lon="1.529277700">
        <ele>799.80</ele>
        <time>2018-05-26T09:09:35Z</time>
      </trkpt>
      <trkpt lat="41.457312900" lon="1.529121500">
        <ele>801.40</ele>
        <time>2018-05-26T09:09:40Z</time>
      </trkpt>
      <trkpt lat="41.457225400" lon="1.529066600">
        <ele>802.00</ele>
        <time>2018-05-26T09:09:42Z</time>
      </trkpt>
      <trkpt lat="41.457132100" lon="1.529024700">
        <ele>802.80</ele>
        <time>2018-05-26T09:09:44Z</time>
      </trkpt>
      <trkpt lat="41.456980900" lon="1.529020200">
        <ele>803.60</ele>
        <time>2018-05-26T09:09:47Z</time>
      </trkpt>
      <trkpt lat="41.456805000" lon="1.529130000">
        <ele>804.60</ele>
        <time>2018-05-26T09:09:51Z</time>
      </trkpt>
      <trkpt lat="41.456728200" lon="1.529196800">
        <ele>805.00</ele>
        <time>2018-05-26T09:09:53Z</time>
      </trkpt>
      <trkpt lat="41.456565300" lon="1.529266600">
        <ele>806.00</ele>
        <time>2018-05-26T09:09:57Z</time>
      </trkpt>
      <trkpt lat="41.456442600" lon="1.529251400">
        <ele>806.80</ele>
        <time>2018-05-26T09:10:00Z</time>
      </trkpt>
      <trkpt lat="41.456343900" lon="1.529217700">
        <ele>807.40</ele>
        <time>2018-05-26T09:10:02Z</time>
      </trkpt>
      <trkpt lat="41.456141600" lon="1.529159500">
        <ele>808.40</ele>
        <time>2018-05-26T09:10:06Z</time>
      </trkpt>
      <trkpt lat="41.456040800" lon="1.529146300">
        <ele>809.00</ele>
        <time>2018-05-26T09:10:08Z</time>
      </trkpt>
      <trkpt lat="41.455889900" lon="1.529141100">
        <ele>809.60</ele>
        <time>2018-05-26T09:10:11Z</time>
      </trkpt>
      <trkpt lat="41.455688600" lon="1.529166300">
        <ele>810.80</ele>
        <time>2018-05-26T09:10:15Z</time>
      </trkpt>
      <trkpt lat="41.455491500" lon="1.529236900">
        <ele>812.00</ele>
        <time>2018-05-26T09:10:19Z</time>
      </trkpt>
      <trkpt lat="41.455359500" lon="1.529332800">
        <ele>812.20</ele>
        <time>2018-05-26T09:10:22Z</time>
      </trkpt>
      <trkpt lat="41.455236700" lon="1.529450000">
        <ele>813.00</ele>
        <time>2018-05-26T09:10:25Z</time>
      </trkpt>
      <trkpt lat="41.455078700" lon="1.529610200">
        <ele>813.60</ele>
        <time>2018-05-26T09:10:29Z</time>
      </trkpt>
      <trkpt lat="41.454993600" lon="1.529687400">
        <ele>814.20</ele>
        <time>2018-05-26T09:10:31Z</time>
      </trkpt>
      <trkpt lat="41.454828600" lon="1.529836800">
        <ele>815.20</ele>
        <time>2018-05-26T09:10:35Z</time>
      </trkpt>
      <trkpt lat="41.454661500" lon="1.529983900">
        <ele>816.20</ele>
        <time>2018-05-26T09:10:39Z</time>
      </trkpt>
      <trkpt lat="41.454534800" lon="1.530070700">
        <ele>816.80</ele>
        <time>2018-05-26T09:10:42Z</time>
      </trkpt>
      <trkpt lat="41.454405100" lon="1.530102400">
        <ele>817.60</ele>
        <time>2018-05-26T09:10:45Z</time>
      </trkpt>
      <trkpt lat="41.454269400" lon="1.530078400">
        <ele>818.40</ele>
        <time>2018-05-26T09:10:48Z</time>
      </trkpt>
      <trkpt lat="41.454172100" lon="1.530044800">
        <ele>819.20</ele>
        <time>2018-05-26T09:10:50Z</time>
      </trkpt>
      <trkpt lat="41.454080700" lon="1.530004700">
        <ele>820.00</ele>
        <time>2018-05-26T09:10:52Z</time>
      </trkpt>
      <trkpt lat="41.453903400" lon="1.529916200">
        <ele>821.00</ele>
        <time>2018-05-26T09:10:56Z</time>
      </trkpt>
      <trkpt lat="41.453815400" lon="1.529862300">
        <ele>821.60</ele>
        <time>2018-05-26T09:10:58Z</time>
      </trkpt>
      <trkpt lat="41.453687700" lon="1.529776000">
        <ele>822.20</ele>
        <time>2018-05-26T09:11:01Z</time>
      </trkpt>
      <trkpt lat="41.453519800" lon="1.529637800">
        <ele>823.40</ele>
        <time>2018-05-26T09:11:05Z</time>
      </trkpt>
      <trkpt lat="41.453356300" lon="1.529489500">
        <ele>824.40</ele>
        <time>2018-05-26T09:11:09Z</time>
      </trkpt>
      <trkpt lat="41.453212500" lon="1.529317200">
        <ele>825.40</ele>
        <time>2018-05-26T09:11:13Z</time>
      </trkpt>
      <trkpt lat="41.453036300" lon="1.529098400">
        <ele>826.80</ele>
        <time>2018-05-26T09:11:18Z</time>
      </trkpt>
      <trkpt lat="41.452899600" lon="1.528920500">
        <ele>827.60</ele>
        <time>2018-05-26T09:11:22Z</time>
      </trkpt>
      <trkpt lat="41.452681400" lon="1.528597800">
        <ele>829.20</ele>
        <time>2018-05-26T09:11:29Z</time>
      </trkpt>
      <trkpt lat="41.452618500" lon="1.528504500">
        <ele>829.80</ele>
        <time>2018-05-26T09:11:31Z</time>
      </trkpt>
      <trkpt lat="41.452560100" lon="1.528403400">
        <ele>830.40</ele>
        <time>2018-05-26T09:11:33Z</time>
      </trkpt>
      <trkpt lat="41.452447000" lon="1.528201400">
        <ele>831.40</ele>
        <time>2018-05-26T09:11:37Z</time>
      </trkpt>
      <trkpt lat="41.452335900" lon="1.528007400">
        <ele>832.40</ele>
        <time>2018-05-26T09:11:41Z</time>
      </trkpt>
      <trkpt lat="41.452174200" lon="1.527774000">
        <ele>833.60</ele>
        <time>2018-05-26T09:11:46Z</time>
      </trkpt>
      <trkpt lat="41.452095800" lon="1.527709700">
        <ele>833.80</ele>
        <time>2018-05-26T09:11:48Z</time>
      </trkpt>
      <trkpt lat="41.451995000" lon="1.527760600">
        <ele>834.20</ele>
        <time>2018-05-26T09:11:50Z</time>
      </trkpt>
      <trkpt lat="41.451822700" lon="1.527937200">
        <ele>836.00</ele>
        <time>2018-05-26T09:11:54Z</time>
      </trkpt>
      <trkpt lat="41.451773500" lon="1.528056200">
        <ele>836.60</ele>
        <time>2018-05-26T09:11:56Z</time>
      </trkpt>
      <trkpt lat="41.451692400" lon="1.528311800">
        <ele>837.00</ele>
        <time>2018-05-26T09:12:00Z</time>
      </trkpt>
      <trkpt lat="41.451682600" lon="1.528516600">
        <ele>838.20</ele>
        <time>2018-05-26T09:12:03Z</time>
      </trkpt>
      <trkpt lat="41.451716700" lon="1.528658300">
        <ele>839.00</ele>
        <time>2018-05-26T09:12:05Z</time>
      </trkpt>
      <trkpt lat="41.451823800" lon="1.528984100">
        <ele>839.60</ele>
        <time>2018-05-26T09:12:10Z</time>
      </trkpt>
      <trkpt lat="41.451850900" lon="1.529115600">
        <ele>840.20</ele>
        <time>2018-05-26T09:12:12Z</time>
      </trkpt>
      <trkpt lat="41.451886100" lon="1.529379200">
        <ele>841.60</ele>
        <time>2018-05-26T09:12:16Z</time>
      </trkpt>
      <trkpt lat="41.451913900" lon="1.529572300">
        <ele>841.80</ele>
        <time>2018-05-26T09:12:19Z</time>
      </trkpt>
      <trkpt lat="41.451937400" lon="1.529833000">
        <ele>843.00</ele>
        <time>2018-05-26T09:12:23Z</time>
      </trkpt>
      <trkpt lat="41.451958800" lon="1.530097500">
        <ele>844.00</ele>
        <time>2018-05-26T09:12:27Z</time>
      </trkpt>
      <trkpt lat="41.451963200" lon="1.530228200">
        <ele>844.80</ele>
        <time>2018-05-26T09:12:29Z</time>
      </trkpt>
      <trkpt lat="41.451954600" lon="1.530557200">
        <ele>846.20</ele>
        <time>2018-05-26T09:12:34Z</time>
      </trkpt>
      <trkpt lat="41.451945700" lon="1.530693900">
        <ele>846.20</ele>
        <time>2018-05-26T09:12:36Z</time>
      </trkpt>
      <trkpt lat="41.451940200" lon="1.531025600">
        <ele>846.20</ele>
        <time>2018-05-26T09:12:41Z</time>
      </trkpt>
      <trkpt lat="41.451947900" lon="1.531166500">
        <ele>846.60</ele>
        <time>2018-05-26T09:12:45Z</time>
      </trkpt>
      <trkpt lat="41.451866100" lon="1.531230400">
        <ele>847.60</ele>
        <time>2018-05-26T09:12:48Z</time>
      </trkpt>
      <trkpt lat="41.451851000" lon="1.531355700">
        <ele>848.20</ele>
        <time>2018-05-26T09:12:51Z</time>
      </trkpt>
      <trkpt lat="41.451929800" lon="1.531440400">
        <ele>848.80</ele>
        <time>2018-05-26T09:12:54Z</time>
      </trkpt>
      <trkpt lat="41.451971500" lon="1.531242900">
        <ele>848.80</ele>
        <time>2018-05-26T09:12:58Z</time>
      </trkpt>
      <trkpt lat="41.451970200" lon="1.531060700">
        <ele>848.40</ele>
        <time>2018-05-26T09:13:03Z</time>
      </trkpt>
      <trkpt lat="41.451994300" lon="1.531014000">
        <ele>847.60</ele>
        <time>2018-05-26T09:13:11Z</time>
      </trkpt>
      <trkpt lat="41.451956200" lon="1.531173300">
        <ele>848.60</ele>
        <time>2018-05-26T09:17:14Z</time>
      </trkpt>
      <trkpt lat="41.451948500" lon="1.531365500">
        <ele>848.80</ele>
        <time>2018-05-26T09:17:18Z</time>
      </trkpt>
      <trkpt lat="41.451942200" lon="1.531537700">
        <ele>849.20</ele>
        <time>2018-05-26T09:17:21Z</time>
      </trkpt>
      <trkpt lat="41.451941400" lon="1.531770100">
        <ele>849.60</ele>
        <time>2018-05-26T09:17:25Z</time>
      </trkpt>
      <trkpt lat="41.451940200" lon="1.531893800">
        <ele>850.00</ele>
        <time>2018-05-26T09:17:27Z</time>
      </trkpt>
      <trkpt lat="41.451932300" lon="1.532090500">
        <ele>850.60</ele>
        <time>2018-05-26T09:17:30Z</time>
      </trkpt>
      <trkpt lat="41.451938000" lon="1.532289300">
        <ele>851.20</ele>
        <time>2018-05-26T09:17:33Z</time>
      </trkpt>
      <trkpt lat="41.451951500" lon="1.532416400">
        <ele>851.80</ele>
        <time>2018-05-26T09:17:35Z</time>
      </trkpt>
      <trkpt lat="41.451984600" lon="1.532600300">
        <ele>852.20</ele>
        <time>2018-05-26T09:17:38Z</time>
      </trkpt>
      <trkpt lat="41.452009200" lon="1.532726000">
        <ele>852.60</ele>
        <time>2018-05-26T09:17:40Z</time>
      </trkpt>
      <trkpt lat="41.452048800" lon="1.532915100">
        <ele>852.80</ele>
        <time>2018-05-26T09:17:43Z</time>
      </trkpt>
      <trkpt lat="41.452081500" lon="1.533045900">
        <ele>853.00</ele>
        <time>2018-05-26T09:17:45Z</time>
      </trkpt>
      <trkpt lat="41.452106200" lon="1.533181400">
        <ele>853.40</ele>
        <time>2018-05-26T09:17:47Z</time>
      </trkpt>
      <trkpt lat="41.452139500" lon="1.533325500">
        <ele>854.00</ele>
        <time>2018-05-26T09:17:49Z</time>
      </trkpt>
      <trkpt lat="41.452209200" lon="1.533640900">
        <ele>853.20</ele>
        <time>2018-05-26T09:17:53Z</time>
      </trkpt>
      <trkpt lat="41.452327900" lon="1.534250600">
        <ele>853.00</ele>
        <time>2018-05-26T09:18:00Z</time>
      </trkpt>
      <trkpt lat="41.452434800" lon="1.534768600">
        <ele>851.40</ele>
        <time>2018-05-26T09:18:05Z</time>
      </trkpt>
      <trkpt lat="41.452505300" lon="1.535100400">
        <ele>850.20</ele>
        <time>2018-05-26T09:18:08Z</time>
      </trkpt>
      <trkpt lat="41.452618900" lon="1.535537700">
        <ele>849.00</ele>
        <time>2018-05-26T09:18:12Z</time>
      </trkpt>
      <trkpt lat="41.452772400" lon="1.535829800">
        <ele>847.40</ele>
        <time>2018-05-26T09:18:15Z</time>
      </trkpt>
      <trkpt lat="41.452875400" lon="1.536046400">
        <ele>846.20</ele>
        <time>2018-05-26T09:18:17Z</time>
      </trkpt>
      <trkpt lat="41.452903600" lon="1.536172900">
        <ele>845.60</ele>
        <time>2018-05-26T09:18:18Z</time>
      </trkpt>
      <trkpt lat="41.452915100" lon="1.536305100">
        <ele>845.00</ele>
        <time>2018-05-26T09:18:19Z</time>
      </trkpt>
      <trkpt lat="41.452899900" lon="1.536439200">
        <ele>844.60</ele>
        <time>2018-05-26T09:18:20Z</time>
      </trkpt>
      <trkpt lat="41.452874800" lon="1.536573000">
        <ele>844.00</ele>
        <time>2018-05-26T09:18:21Z</time>
      </trkpt>
      <trkpt lat="41.452848000" lon="1.536708400">
        <ele>843.40</ele>
        <time>2018-05-26T09:18:22Z</time>
      </trkpt>
      <trkpt lat="41.452826600" lon="1.536849600">
        <ele>842.80</ele>
        <time>2018-05-26T09:18:23Z</time>
      </trkpt>
      <trkpt lat="41.452820000" lon="1.536994600">
        <ele>842.20</ele>
        <time>2018-05-26T09:18:24Z</time>
      </trkpt>
      <trkpt lat="41.452822800" lon="1.537140800">
        <ele>841.40</ele>
        <time>2018-05-26T09:18:25Z</time>
      </trkpt>
      <trkpt lat="41.452828800" lon="1.537424700">
        <ele>840.40</ele>
        <time>2018-05-26T09:18:27Z</time>
      </trkpt>
      <trkpt lat="41.452829500" lon="1.537558600">
        <ele>839.60</ele>
        <time>2018-05-26T09:18:28Z</time>
      </trkpt>
      <trkpt lat="41.452843300" lon="1.537686500">
        <ele>839.00</ele>
        <time>2018-05-26T09:18:29Z</time>
      </trkpt>
      <trkpt lat="41.452944500" lon="1.537914800">
        <ele>838.00</ele>
        <time>2018-05-26T09:18:31Z</time>
      </trkpt>
      <trkpt lat="41.453173500" lon="1.538192600">
        <ele>836.60</ele>
        <time>2018-05-26T09:18:34Z</time>
      </trkpt>
      <trkpt lat="41.453334700" lon="1.538383400">
        <ele>835.40</ele>
        <time>2018-05-26T09:18:36Z</time>
      </trkpt>
      <trkpt lat="41.453477500" lon="1.538616900">
        <ele>833.80</ele>
        <time>2018-05-26T09:18:38Z</time>
      </trkpt>
      <trkpt lat="41.453531800" lon="1.538749600">
        <ele>832.60</ele>
        <time>2018-05-26T09:18:39Z</time>
      </trkpt>
      <trkpt lat="41.453606800" lon="1.539039200">
        <ele>831.00</ele>
        <time>2018-05-26T09:18:41Z</time>
      </trkpt>
      <trkpt lat="41.453635000" lon="1.539187700">
        <ele>830.80</ele>
        <time>2018-05-26T09:18:42Z</time>
      </trkpt>
      <trkpt lat="41.453729600" lon="1.539644900">
        <ele>829.00</ele>
        <time>2018-05-26T09:18:45Z</time>
      </trkpt>
      <trkpt lat="41.453765800" lon="1.539798000">
        <ele>828.00</ele>
        <time>2018-05-26T09:18:46Z</time>
      </trkpt>
      <trkpt lat="41.453849800" lon="1.540218600">
        <ele>826.80</ele>
        <time>2018-05-26T09:18:49Z</time>
      </trkpt>
      <trkpt lat="41.454035900" lon="1.540467400">
        <ele>826.00</ele>
        <time>2018-05-26T09:18:52Z</time>
      </trkpt>
      <trkpt lat="41.454127900" lon="1.540502400">
        <ele>825.20</ele>
        <time>2018-05-26T09:18:53Z</time>
      </trkpt>
      <trkpt lat="41.454220200" lon="1.540547600">
        <ele>824.20</ele>
        <time>2018-05-26T09:18:54Z</time>
      </trkpt>
      <trkpt lat="41.454318400" lon="1.540598800">
        <ele>823.00</ele>
        <time>2018-05-26T09:18:55Z</time>
      </trkpt>
      <trkpt lat="41.454390300" lon="1.540713400">
        <ele>822.20</ele>
        <time>2018-05-26T09:18:56Z</time>
      </trkpt>
      <trkpt lat="41.454447000" lon="1.540832200">
        <ele>821.40</ele>
        <time>2018-05-26T09:18:57Z</time>
      </trkpt>
      <trkpt lat="41.454661700" lon="1.541164300">
        <ele>820.00</ele>
        <time>2018-05-26T09:19:00Z</time>
      </trkpt>
      <trkpt lat="41.454761100" lon="1.541247800">
        <ele>819.40</ele>
        <time>2018-05-26T09:19:01Z</time>
      </trkpt>
      <trkpt lat="41.454869600" lon="1.541310000">
        <ele>818.60</ele>
        <time>2018-05-26T09:19:02Z</time>
      </trkpt>
      <trkpt lat="41.454971700" lon="1.541368300">
        <ele>817.20</ele>
        <time>2018-05-26T09:19:03Z</time>
      </trkpt>
      <trkpt lat="41.455066800" lon="1.541426000">
        <ele>816.60</ele>
        <time>2018-05-26T09:19:04Z</time>
      </trkpt>
      <trkpt lat="41.455151200" lon="1.541497800">
        <ele>816.00</ele>
        <time>2018-05-26T09:19:05Z</time>
      </trkpt>
      <trkpt lat="41.455288600" lon="1.541719800">
        <ele>815.60</ele>
        <time>2018-05-26T09:19:07Z</time>
      </trkpt>
      <trkpt lat="41.455361500" lon="1.542004600">
        <ele>814.40</ele>
        <time>2018-05-26T09:19:09Z</time>
      </trkpt>
      <trkpt lat="41.455364400" lon="1.542158500">
        <ele>813.60</ele>
        <time>2018-05-26T09:19:10Z</time>
      </trkpt>
      <trkpt lat="41.455379700" lon="1.542306700">
        <ele>812.60</ele>
        <time>2018-05-26T09:19:11Z</time>
      </trkpt>
      <trkpt lat="41.455497100" lon="1.542571400">
        <ele>811.60</ele>
        <time>2018-05-26T09:19:13Z</time>
      </trkpt>
      <trkpt lat="41.455656000" lon="1.542820300">
        <ele>810.20</ele>
        <time>2018-05-26T09:19:15Z</time>
      </trkpt>
      <trkpt lat="41.455738100" lon="1.542943800">
        <ele>809.20</ele>
        <time>2018-05-26T09:19:16Z</time>
      </trkpt>
      <trkpt lat="41.455818700" lon="1.543065500">
        <ele>808.40</ele>
        <time>2018-05-26T09:19:17Z</time>
      </trkpt>
      <trkpt lat="41.455894800" lon="1.543186100">
        <ele>807.80</ele>
        <time>2018-05-26T09:19:18Z</time>
      </trkpt>
      <trkpt lat="41.455961900" lon="1.543320600">
        <ele>807.60</ele>
        <time>2018-05-26T09:19:19Z</time>
      </trkpt>
      <trkpt lat="41.456035000" lon="1.543622500">
        <ele>806.80</ele>
        <time>2018-05-26T09:19:21Z</time>
      </trkpt>
      <trkpt lat="41.456050800" lon="1.543777200">
        <ele>806.60</ele>
        <time>2018-05-26T09:19:22Z</time>
      </trkpt>
      <trkpt lat="41.456071700" lon="1.543929600">
        <ele>806.00</ele>
        <time>2018-05-26T09:19:23Z</time>
      </trkpt>
      <trkpt lat="41.456128700" lon="1.544232100">
        <ele>805.60</ele>
        <time>2018-05-26T09:19:25Z</time>
      </trkpt>
      <trkpt lat="41.456168200" lon="1.544376100">
        <ele>805.40</ele>
        <time>2018-05-26T09:19:26Z</time>
      </trkpt>
      <trkpt lat="41.456296400" lon="1.544795200">
        <ele>804.20</ele>
        <time>2018-05-26T09:19:29Z</time>
      </trkpt>
      <trkpt lat="41.456360300" lon="1.545085900">
        <ele>804.00</ele>
        <time>2018-05-26T09:19:32Z</time>
      </trkpt>
      <trkpt lat="41.456297100" lon="1.545239100">
        <ele>802.80</ele>
        <time>2018-05-26T09:19:34Z</time>
      </trkpt>
      <trkpt lat="41.456126300" lon="1.545248000">
        <ele>801.60</ele>
        <time>2018-05-26T09:19:38Z</time>
      </trkpt>
      <trkpt lat="41.455833500" lon="1.545229100">
        <ele>800.20</ele>
        <time>2018-05-26T09:19:41Z</time>
      </trkpt>
      <trkpt lat="41.455687400" lon="1.545389000">
        <ele>798.80</ele>
        <time>2018-05-26T09:19:43Z</time>
      </trkpt>
      <trkpt lat="41.455686400" lon="1.545584700">
        <ele>797.60</ele>
        <time>2018-05-26T09:19:45Z</time>
      </trkpt>
      <trkpt lat="41.455840700" lon="1.545906000">
        <ele>796.20</ele>
        <time>2018-05-26T09:19:48Z</time>
      </trkpt>
      <trkpt lat="41.455895400" lon="1.546020400">
        <ele>795.00</ele>
        <time>2018-05-26T09:19:49Z</time>
      </trkpt>
      <trkpt lat="41.455951800" lon="1.546136000">
        <ele>793.80</ele>
        <time>2018-05-26T09:19:50Z</time>
      </trkpt>
      <trkpt lat="41.456128300" lon="1.546495000">
        <ele>792.60</ele>
        <time>2018-05-26T09:19:53Z</time>
      </trkpt>
      <trkpt lat="41.456191100" lon="1.546616800">
        <ele>792.00</ele>
        <time>2018-05-26T09:19:54Z</time>
      </trkpt>
      <trkpt lat="41.456321900" lon="1.546867500">
        <ele>791.20</ele>
        <time>2018-05-26T09:19:56Z</time>
      </trkpt>
      <trkpt lat="41.456430700" lon="1.547137400">
        <ele>789.80</ele>
        <time>2018-05-26T09:19:58Z</time>
      </trkpt>
      <trkpt lat="41.456470600" lon="1.547288300">
        <ele>788.80</ele>
        <time>2018-05-26T09:19:59Z</time>
      </trkpt>
      <trkpt lat="41.456536900" lon="1.547562000">
        <ele>787.20</ele>
        <time>2018-05-26T09:20:01Z</time>
      </trkpt>
      <trkpt lat="41.456586800" lon="1.547691800">
        <ele>786.80</ele>
        <time>2018-05-26T09:20:02Z</time>
      </trkpt>
      <trkpt lat="41.456642400" lon="1.547814600">
        <ele>786.20</ele>
        <time>2018-05-26T09:20:03Z</time>
      </trkpt>
      <trkpt lat="41.456762700" lon="1.548066500">
        <ele>784.00</ele>
        <time>2018-05-26T09:20:05Z</time>
      </trkpt>
      <trkpt lat="41.456824800" lon="1.548195900">
        <ele>783.00</ele>
        <time>2018-05-26T09:20:06Z</time>
      </trkpt>
      <trkpt lat="41.456885000" lon="1.548326300">
        <ele>782.00</ele>
        <time>2018-05-26T09:20:07Z</time>
      </trkpt>
      <trkpt lat="41.456945700" lon="1.548457000">
        <ele>781.80</ele>
        <time>2018-05-26T09:20:08Z</time>
      </trkpt>
      <trkpt lat="41.457152800" lon="1.549018500">
        <ele>780.00</ele>
        <time>2018-05-26T09:20:12Z</time>
      </trkpt>
      <trkpt lat="41.457179400" lon="1.549174500">
        <ele>779.20</ele>
        <time>2018-05-26T09:20:13Z</time>
      </trkpt>
      <trkpt lat="41.457191000" lon="1.549334400">
        <ele>778.40</ele>
        <time>2018-05-26T09:20:14Z</time>
      </trkpt>
      <trkpt lat="41.457174200" lon="1.549653000">
        <ele>778.00</ele>
        <time>2018-05-26T09:20:16Z</time>
      </trkpt>
      <trkpt lat="41.457164700" lon="1.549812800">
        <ele>777.20</ele>
        <time>2018-05-26T09:20:17Z</time>
      </trkpt>
      <trkpt lat="41.457127800" lon="1.550129600">
        <ele>775.80</ele>
        <time>2018-05-26T09:20:19Z</time>
      </trkpt>
      <trkpt lat="41.457018100" lon="1.550362800">
        <ele>775.00</ele>
        <time>2018-05-26T09:20:21Z</time>
      </trkpt>
      <trkpt lat="41.456921500" lon="1.550427600">
        <ele>774.40</ele>
        <time>2018-05-26T09:20:22Z</time>
      </trkpt>
      <trkpt lat="41.456814000" lon="1.550464800">
        <ele>774.00</ele>
        <time>2018-05-26T09:20:23Z</time>
      </trkpt>
      <trkpt lat="41.456601000" lon="1.550533200">
        <ele>773.20</ele>
        <time>2018-05-26T09:20:25Z</time>
      </trkpt>
      <trkpt lat="41.456383700" lon="1.550580800">
        <ele>772.80</ele>
        <time>2018-05-26T09:20:27Z</time>
      </trkpt>
      <trkpt lat="41.456266400" lon="1.550560300">
        <ele>772.20</ele>
        <time>2018-05-26T09:20:28Z</time>
      </trkpt>
      <trkpt lat="41.456060400" lon="1.550436800">
        <ele>771.00</ele>
        <time>2018-05-26T09:20:30Z</time>
      </trkpt>
      <trkpt lat="41.455769700" lon="1.550226300">
        <ele>770.60</ele>
        <time>2018-05-26T09:20:33Z</time>
      </trkpt>
      <trkpt lat="41.455667000" lon="1.550170200">
        <ele>770.40</ele>
        <time>2018-05-26T09:20:34Z</time>
      </trkpt>
      <trkpt lat="41.455562500" lon="1.550116700">
        <ele>770.00</ele>
        <time>2018-05-26T09:20:35Z</time>
      </trkpt>
      <trkpt lat="41.455345000" lon="1.550012200">
        <ele>768.80</ele>
        <time>2018-05-26T09:20:37Z</time>
      </trkpt>
      <trkpt lat="41.455013600" lon="1.549879600">
        <ele>767.80</ele>
        <time>2018-05-26T09:20:40Z</time>
      </trkpt>
      <trkpt lat="41.454894400" lon="1.549861500">
        <ele>767.40</ele>
        <time>2018-05-26T09:20:41Z</time>
      </trkpt>
      <trkpt lat="41.454658800" lon="1.549837800">
        <ele>766.00</ele>
        <time>2018-05-26T09:20:43Z</time>
      </trkpt>
      <trkpt lat="41.454542900" lon="1.549832800">
        <ele>765.40</ele>
        <time>2018-05-26T09:20:44Z</time>
      </trkpt>
      <trkpt lat="41.454212300" lon="1.549762900">
        <ele>765.20</ele>
        <time>2018-05-26T09:20:47Z</time>
      </trkpt>
      <trkpt lat="41.454124000" lon="1.549674800">
        <ele>764.80</ele>
        <time>2018-05-26T09:20:48Z</time>
      </trkpt>
      <trkpt lat="41.453907200" lon="1.549336300">
        <ele>764.00</ele>
        <time>2018-05-26T09:20:51Z</time>
      </trkpt>
      <trkpt lat="41.453756100" lon="1.549116400">
        <ele>763.40</ele>
        <time>2018-05-26T09:20:53Z</time>
      </trkpt>
      <trkpt lat="41.453580600" lon="1.548934200">
        <ele>762.60</ele>
        <time>2018-05-26T09:20:55Z</time>
      </trkpt>
      <trkpt lat="41.453476900" lon="1.548898800">
        <ele>762.40</ele>
        <time>2018-05-26T09:20:56Z</time>
      </trkpt>
      <trkpt lat="41.453367300" lon="1.548886400">
        <ele>762.20</ele>
        <time>2018-05-26T09:20:57Z</time>
      </trkpt>
      <trkpt lat="41.453149000" lon="1.548838100">
        <ele>761.80</ele>
        <time>2018-05-26T09:20:59Z</time>
      </trkpt>
      <trkpt lat="41.452976600" lon="1.548669200">
        <ele>760.60</ele>
        <time>2018-05-26T09:21:01Z</time>
      </trkpt>
      <trkpt lat="41.452893200" lon="1.548415400">
        <ele>759.40</ele>
        <time>2018-05-26T09:21:03Z</time>
      </trkpt>
      <trkpt lat="41.452849200" lon="1.548284000">
        <ele>759.00</ele>
        <time>2018-05-26T09:21:04Z</time>
      </trkpt>
      <trkpt lat="41.452778200" lon="1.548177300">
        <ele>759.00</ele>
        <time>2018-05-26T09:21:05Z</time>
      </trkpt>
      <trkpt lat="41.452686200" lon="1.548100900">
        <ele>759.00</ele>
        <time>2018-05-26T09:21:06Z</time>
      </trkpt>
      <trkpt lat="41.452367000" lon="1.547999300">
        <ele>758.80</ele>
        <time>2018-05-26T09:21:09Z</time>
      </trkpt>
      <trkpt lat="41.452134300" lon="1.548031200">
        <ele>757.60</ele>
        <time>2018-05-26T09:21:11Z</time>
      </trkpt>
      <trkpt lat="41.452021900" lon="1.548048100">
        <ele>757.40</ele>
        <time>2018-05-26T09:21:12Z</time>
      </trkpt>
      <trkpt lat="41.451914700" lon="1.548087700">
        <ele>757.00</ele>
        <time>2018-05-26T09:21:13Z</time>
      </trkpt>
      <trkpt lat="41.451722000" lon="1.548264800">
        <ele>757.00</ele>
        <time>2018-05-26T09:21:15Z</time>
      </trkpt>
      <trkpt lat="41.451665600" lon="1.548552600">
        <ele>757.00</ele>
        <time>2018-05-26T09:21:17Z</time>
      </trkpt>
      <trkpt lat="41.451646600" lon="1.548702100">
        <ele>757.00</ele>
        <time>2018-05-26T09:21:18Z</time>
      </trkpt>
      <trkpt lat="41.451620400" lon="1.548857500">
        <ele>756.60</ele>
        <time>2018-05-26T09:21:19Z</time>
      </trkpt>
      <trkpt lat="41.451571800" lon="1.549179600">
        <ele>755.20</ele>
        <time>2018-05-26T09:21:21Z</time>
      </trkpt>
      <trkpt lat="41.451544500" lon="1.549343800">
        <ele>754.40</ele>
        <time>2018-05-26T09:21:22Z</time>
      </trkpt>
      <trkpt lat="41.451514800" lon="1.549512900">
        <ele>753.60</ele>
        <time>2018-05-26T09:21:23Z</time>
      </trkpt>
      <trkpt lat="41.451456500" lon="1.549856100">
        <ele>751.60</ele>
        <time>2018-05-26T09:21:25Z</time>
      </trkpt>
      <trkpt lat="41.451395000" lon="1.550203600">
        <ele>749.80</ele>
        <time>2018-05-26T09:21:27Z</time>
      </trkpt>
      <trkpt lat="41.451368400" lon="1.550377900">
        <ele>749.40</ele>
        <time>2018-05-26T09:21:28Z</time>
      </trkpt>
      <trkpt lat="41.451339600" lon="1.550551300">
        <ele>748.60</ele>
        <time>2018-05-26T09:21:29Z</time>
      </trkpt>
      <trkpt lat="41.451282400" lon="1.550899500">
        <ele>747.40</ele>
        <time>2018-05-26T09:21:31Z</time>
      </trkpt>
      <trkpt lat="41.451170900" lon="1.551735700">
        <ele>746.20</ele>
        <time>2018-05-26T09:21:36Z</time>
      </trkpt>
      <trkpt lat="41.451218900" lon="1.552033800">
        <ele>745.20</ele>
        <time>2018-05-26T09:21:38Z</time>
      </trkpt>
      <trkpt lat="41.451221900" lon="1.552177800">
        <ele>744.60</ele>
        <time>2018-05-26T09:21:39Z</time>
      </trkpt>
      <trkpt lat="41.451145300" lon="1.552410100">
        <ele>743.80</ele>
        <time>2018-05-26T09:21:41Z</time>
      </trkpt>
      <trkpt lat="41.451021800" lon="1.552526500">
        <ele>743.00</ele>
        <time>2018-05-26T09:21:43Z</time>
      </trkpt>
      <trkpt lat="41.450795800" lon="1.552521300">
        <ele>741.40</ele>
        <time>2018-05-26T09:21:46Z</time>
      </trkpt>
      <trkpt lat="41.450604000" lon="1.552476100">
        <ele>740.20</ele>
        <time>2018-05-26T09:21:48Z</time>
      </trkpt>
      <trkpt lat="41.450453400" lon="1.552439400">
        <ele>739.40</ele>
        <time>2018-05-26T09:21:49Z</time>
      </trkpt>
      <trkpt lat="41.450326900" lon="1.552455400">
        <ele>738.80</ele>
        <time>2018-05-26T09:21:50Z</time>
      </trkpt>
      <trkpt lat="41.450206300" lon="1.552503600">
        <ele>738.20</ele>
        <time>2018-05-26T09:21:51Z</time>
      </trkpt>
      <trkpt lat="41.450091700" lon="1.552574900">
        <ele>736.60</ele>
        <time>2018-05-26T09:21:52Z</time>
      </trkpt>
      <trkpt lat="41.449867100" lon="1.552725900">
        <ele>735.00</ele>
        <time>2018-05-26T09:21:54Z</time>
      </trkpt>
      <trkpt lat="41.449653300" lon="1.552836200">
        <ele>734.60</ele>
        <time>2018-05-26T09:21:56Z</time>
      </trkpt>
      <trkpt lat="41.449544400" lon="1.552841500">
        <ele>734.00</ele>
        <time>2018-05-26T09:21:57Z</time>
      </trkpt>
      <trkpt lat="41.449436400" lon="1.552792400">
        <ele>733.20</ele>
        <time>2018-05-26T09:21:58Z</time>
      </trkpt>
      <trkpt lat="41.449343300" lon="1.552706900">
        <ele>733.00</ele>
        <time>2018-05-26T09:21:59Z</time>
      </trkpt>
      <trkpt lat="41.449056000" lon="1.552689400">
        <ele>732.60</ele>
        <time>2018-05-26T09:22:02Z</time>
      </trkpt>
      <trkpt lat="41.448962900" lon="1.552750200">
        <ele>731.60</ele>
        <time>2018-05-26T09:22:03Z</time>
      </trkpt>
      <trkpt lat="41.448784600" lon="1.552904800">
        <ele>730.60</ele>
        <time>2018-05-26T09:22:05Z</time>
      </trkpt>
      <trkpt lat="41.448668700" lon="1.553157400">
        <ele>729.40</ele>
        <time>2018-05-26T09:22:07Z</time>
      </trkpt>
      <trkpt lat="41.448576600" lon="1.553615500">
        <ele>728.00</ele>
        <time>2018-05-26T09:22:10Z</time>
      </trkpt>
      <trkpt lat="41.448432600" lon="1.554041900">
        <ele>726.80</ele>
        <time>2018-05-26T09:22:13Z</time>
      </trkpt>
      <trkpt lat="41.448360600" lon="1.554160000">
        <ele>726.20</ele>
        <time>2018-05-26T09:22:14Z</time>
      </trkpt>
      <trkpt lat="41.448299200" lon="1.554282500">
        <ele>725.60</ele>
        <time>2018-05-26T09:22:15Z</time>
      </trkpt>
      <trkpt lat="41.448189700" lon="1.554473800">
        <ele>724.20</ele>
        <time>2018-05-26T09:22:17Z</time>
      </trkpt>
      <trkpt lat="41.447991600" lon="1.554475000">
        <ele>723.60</ele>
        <time>2018-05-26T09:22:20Z</time>
      </trkpt>
      <trkpt lat="41.447940900" lon="1.554259700">
        <ele>723.20</ele>
        <time>2018-05-26T09:22:22Z</time>
      </trkpt>
      <trkpt lat="41.448022900" lon="1.554065100">
        <ele>723.20</ele>
        <time>2018-05-26T09:22:24Z</time>
      </trkpt>
      <trkpt lat="41.448244500" lon="1.553877700">
        <ele>722.60</ele>
        <time>2018-05-26T09:22:27Z</time>
      </trkpt>
      <trkpt lat="41.448456100" lon="1.553656400">
        <ele>722.60</ele>
        <time>2018-05-26T09:22:30Z</time>
      </trkpt>
      <trkpt lat="41.448500500" lon="1.553316000">
        <ele>722.00</ele>
        <time>2018-05-26T09:22:33Z</time>
      </trkpt>
      <trkpt lat="41.448496400" lon="1.553184900">
        <ele>721.60</ele>
        <time>2018-05-26T09:22:34Z</time>
      </trkpt>
      <trkpt lat="41.448490800" lon="1.552891200">
        <ele>720.40</ele>
        <time>2018-05-26T09:22:36Z</time>
      </trkpt>
      <trkpt lat="41.448522200" lon="1.552750800">
        <ele>719.60</ele>
        <time>2018-05-26T09:22:37Z</time>
      </trkpt>
      <trkpt lat="41.448575500" lon="1.552626600">
        <ele>719.00</ele>
        <time>2018-05-26T09:22:38Z</time>
      </trkpt>
      <trkpt lat="41.448705100" lon="1.552402000">
        <ele>718.40</ele>
        <time>2018-05-26T09:22:40Z</time>
      </trkpt>
      <trkpt lat="41.448789000" lon="1.552173400">
        <ele>717.60</ele>
        <time>2018-05-26T09:22:42Z</time>
      </trkpt>
      <trkpt lat="41.448712600" lon="1.551842600">
        <ele>716.40</ele>
        <time>2018-05-26T09:22:45Z</time>
      </trkpt>
      <trkpt lat="41.448542000" lon="1.551758300">
        <ele>715.40</ele>
        <time>2018-05-26T09:22:47Z</time>
      </trkpt>
      <trkpt lat="41.448350300" lon="1.551851000">
        <ele>713.60</ele>
        <time>2018-05-26T09:22:49Z</time>
      </trkpt>
      <trkpt lat="41.448171000" lon="1.552032800">
        <ele>711.60</ele>
        <time>2018-05-26T09:22:51Z</time>
      </trkpt>
      <trkpt lat="41.448073700" lon="1.552126700">
        <ele>710.60</ele>
        <time>2018-05-26T09:22:52Z</time>
      </trkpt>
      <trkpt lat="41.447972000" lon="1.552224400">
        <ele>709.60</ele>
        <time>2018-05-26T09:22:53Z</time>
      </trkpt>
      <trkpt lat="41.447869000" lon="1.552324300">
        <ele>708.60</ele>
        <time>2018-05-26T09:22:54Z</time>
      </trkpt>
      <trkpt lat="41.447653900" lon="1.552527700">
        <ele>707.00</ele>
        <time>2018-05-26T09:22:56Z</time>
      </trkpt>
      <trkpt lat="41.447542400" lon="1.552632500">
        <ele>706.00</ele>
        <time>2018-05-26T09:22:57Z</time>
      </trkpt>
      <trkpt lat="41.447433400" lon="1.552739100">
        <ele>705.20</ele>
        <time>2018-05-26T09:22:58Z</time>
      </trkpt>
      <trkpt lat="41.447205300" lon="1.552951800">
        <ele>704.00</ele>
        <time>2018-05-26T09:23:00Z</time>
      </trkpt>
      <trkpt lat="41.446969200" lon="1.553174900">
        <ele>702.60</ele>
        <time>2018-05-26T09:23:02Z</time>
      </trkpt>
      <trkpt lat="41.446854300" lon="1.553289200">
        <ele>701.60</ele>
        <time>2018-05-26T09:23:03Z</time>
      </trkpt>
      <trkpt lat="41.446733500" lon="1.553402200">
        <ele>699.80</ele>
        <time>2018-05-26T09:23:04Z</time>
      </trkpt>
      <trkpt lat="41.446503600" lon="1.553624600">
        <ele>699.20</ele>
        <time>2018-05-26T09:23:06Z</time>
      </trkpt>
      <trkpt lat="41.446383400" lon="1.553734300">
        <ele>698.60</ele>
        <time>2018-05-26T09:23:07Z</time>
      </trkpt>
      <trkpt lat="41.446151000" lon="1.553942300">
        <ele>697.00</ele>
        <time>2018-05-26T09:23:09Z</time>
      </trkpt>
      <trkpt lat="41.445705900" lon="1.554362300">
        <ele>695.60</ele>
        <time>2018-05-26T09:23:13Z</time>
      </trkpt>
      <trkpt lat="41.445488300" lon="1.554567300">
        <ele>694.60</ele>
        <time>2018-05-26T09:23:15Z</time>
      </trkpt>
      <trkpt lat="41.445279200" lon="1.554771100">
        <ele>693.20</ele>
        <time>2018-05-26T09:23:17Z</time>
      </trkpt>
      <trkpt lat="41.445073900" lon="1.554965800">
        <ele>692.00</ele>
        <time>2018-05-26T09:23:19Z</time>
      </trkpt>
      <trkpt lat="41.444779000" lon="1.555256800">
        <ele>690.80</ele>
        <time>2018-05-26T09:23:22Z</time>
      </trkpt>
      <trkpt lat="41.444695700" lon="1.555378100">
        <ele>690.00</ele>
        <time>2018-05-26T09:23:23Z</time>
      </trkpt>
      <trkpt lat="41.444629500" lon="1.555522900">
        <ele>689.40</ele>
        <time>2018-05-26T09:23:24Z</time>
      </trkpt>
      <trkpt lat="41.444522400" lon="1.555833700">
        <ele>688.40</ele>
        <time>2018-05-26T09:23:26Z</time>
      </trkpt>
      <trkpt lat="41.444467600" lon="1.555989700">
        <ele>687.80</ele>
        <time>2018-05-26T09:23:27Z</time>
      </trkpt>
      <trkpt lat="41.444354900" lon="1.556289300">
        <ele>686.20</ele>
        <time>2018-05-26T09:23:29Z</time>
      </trkpt>
      <trkpt lat="41.444248700" lon="1.556591600">
        <ele>685.00</ele>
        <time>2018-05-26T09:23:31Z</time>
      </trkpt>
      <trkpt lat="41.444139400" lon="1.556886100">
        <ele>684.20</ele>
        <time>2018-05-26T09:23:33Z</time>
      </trkpt>
      <trkpt lat="41.444085000" lon="1.557032700">
        <ele>683.60</ele>
        <time>2018-05-26T09:23:34Z</time>
      </trkpt>
      <trkpt lat="41.443972700" lon="1.557317000">
        <ele>682.40</ele>
        <time>2018-05-26T09:23:36Z</time>
      </trkpt>
      <trkpt lat="41.443831800" lon="1.557578600">
        <ele>681.20</ele>
        <time>2018-05-26T09:23:38Z</time>
      </trkpt>
      <trkpt lat="41.443739000" lon="1.557686800">
        <ele>680.40</ele>
        <time>2018-05-26T09:23:39Z</time>
      </trkpt>
      <trkpt lat="41.443628600" lon="1.557775200">
        <ele>680.00</ele>
        <time>2018-05-26T09:23:40Z</time>
      </trkpt>
      <trkpt lat="41.443385200" lon="1.557920600">
        <ele>678.40</ele>
        <time>2018-05-26T09:23:42Z</time>
      </trkpt>
      <trkpt lat="41.443263900" lon="1.558008100">
        <ele>677.40</ele>
        <time>2018-05-26T09:23:43Z</time>
      </trkpt>
      <trkpt lat="41.443131700" lon="1.558086600">
        <ele>676.20</ele>
        <time>2018-05-26T09:23:44Z</time>
      </trkpt>
      <trkpt lat="41.443002600" lon="1.558171900">
        <ele>674.80</ele>
        <time>2018-05-26T09:23:45Z</time>
      </trkpt>
      <trkpt lat="41.442872600" lon="1.558253300">
        <ele>673.40</ele>
        <time>2018-05-26T09:23:46Z</time>
      </trkpt>
      <trkpt lat="41.442738900" lon="1.558336200">
        <ele>672.20</ele>
        <time>2018-05-26T09:23:47Z</time>
      </trkpt>
      <trkpt lat="41.442467300" lon="1.558490600">
        <ele>671.00</ele>
        <time>2018-05-26T09:23:49Z</time>
      </trkpt>
      <trkpt lat="41.442195300" lon="1.558648800">
        <ele>670.00</ele>
        <time>2018-05-26T09:23:51Z</time>
      </trkpt>
      <trkpt lat="41.442061600" lon="1.558729100">
        <ele>668.40</ele>
        <time>2018-05-26T09:23:52Z</time>
      </trkpt>
      <trkpt lat="41.441798000" lon="1.558891600">
        <ele>667.40</ele>
        <time>2018-05-26T09:23:54Z</time>
      </trkpt>
      <trkpt lat="41.441666600" lon="1.558971000">
        <ele>667.00</ele>
        <time>2018-05-26T09:23:55Z</time>
      </trkpt>
      <trkpt lat="41.441409500" lon="1.559133600">
        <ele>665.60</ele>
        <time>2018-05-26T09:23:57Z</time>
      </trkpt>
      <trkpt lat="41.441022700" lon="1.559381100">
        <ele>664.60</ele>
        <time>2018-05-26T09:24:00Z</time>
      </trkpt>
      <trkpt lat="41.440754900" lon="1.559545400">
        <ele>664.60</ele>
        <time>2018-05-26T09:24:02Z</time>
      </trkpt>
      <trkpt lat="41.440489900" lon="1.559708700">
        <ele>663.00</ele>
        <time>2018-05-26T09:24:04Z</time>
      </trkpt>
      <trkpt lat="41.440359600" lon="1.559793100">
        <ele>662.00</ele>
        <time>2018-05-26T09:24:05Z</time>
      </trkpt>
      <trkpt lat="41.440104400" lon="1.559952300">
        <ele>660.80</ele>
        <time>2018-05-26T09:24:07Z</time>
      </trkpt>
      <trkpt lat="41.439845800" lon="1.560116200">
        <ele>659.60</ele>
        <time>2018-05-26T09:24:09Z</time>
      </trkpt>
      <trkpt lat="41.439597300" lon="1.560279500">
        <ele>658.60</ele>
        <time>2018-05-26T09:24:11Z</time>
      </trkpt>
      <trkpt lat="41.439234300" lon="1.560511300">
        <ele>657.00</ele>
        <time>2018-05-26T09:24:14Z</time>
      </trkpt>
      <trkpt lat="41.439005500" lon="1.560696900">
        <ele>655.60</ele>
        <time>2018-05-26T09:24:16Z</time>
      </trkpt>
      <trkpt lat="41.438786300" lon="1.560884100">
        <ele>654.60</ele>
        <time>2018-05-26T09:24:18Z</time>
      </trkpt>
      <trkpt lat="41.438682700" lon="1.560979000">
        <ele>653.80</ele>
        <time>2018-05-26T09:24:19Z</time>
      </trkpt>
      <trkpt lat="41.438573100" lon="1.561049300">
        <ele>653.20</ele>
        <time>2018-05-26T09:24:20Z</time>
      </trkpt>
      <trkpt lat="41.438348500" lon="1.561095300">
        <ele>652.20</ele>
        <time>2018-05-26T09:24:22Z</time>
      </trkpt>
      <trkpt lat="41.438225400" lon="1.561072500">
        <ele>652.00</ele>
        <time>2018-05-26T09:24:23Z</time>
      </trkpt>
      <trkpt lat="41.437995600" lon="1.560973900">
        <ele>651.60</ele>
        <time>2018-05-26T09:24:25Z</time>
      </trkpt>
      <trkpt lat="41.437889600" lon="1.560921100">
        <ele>651.80</ele>
        <time>2018-05-26T09:24:26Z</time>
      </trkpt>
      <trkpt lat="41.437484300" lon="1.560758700">
        <ele>651.00</ele>
        <time>2018-05-26T09:24:30Z</time>
      </trkpt>
      <trkpt lat="41.437295400" lon="1.560685000">
        <ele>651.80</ele>
        <time>2018-05-26T09:24:32Z</time>
      </trkpt>
      <trkpt lat="41.437205300" lon="1.560647600">
        <ele>652.20</ele>
        <time>2018-05-26T09:24:33Z</time>
      </trkpt>
      <trkpt lat="41.437028700" lon="1.560524700">
        <ele>652.60</ele>
        <time>2018-05-26T09:24:35Z</time>
      </trkpt>
      <trkpt lat="41.436845200" lon="1.560252100">
        <ele>653.40</ele>
        <time>2018-05-26T09:24:38Z</time>
      </trkpt>
      <trkpt lat="41.436758400" lon="1.560046300">
        <ele>654.00</ele>
        <time>2018-05-26T09:24:40Z</time>
      </trkpt>
      <trkpt lat="41.436680100" lon="1.559837400">
        <ele>654.60</ele>
        <time>2018-05-26T09:24:42Z</time>
      </trkpt>
      <trkpt lat="41.436579000" lon="1.559518800">
        <ele>655.60</ele>
        <time>2018-05-26T09:24:45Z</time>
      </trkpt>
      <trkpt lat="41.436437900" lon="1.559084000">
        <ele>656.20</ele>
        <time>2018-05-26T09:24:49Z</time>
      </trkpt>
      <trkpt lat="41.436365000" lon="1.558846000">
        <ele>656.60</ele>
        <time>2018-05-26T09:24:51Z</time>
      </trkpt>
      <trkpt lat="41.436221100" lon="1.558373100">
        <ele>657.60</ele>
        <time>2018-05-26T09:24:55Z</time>
      </trkpt>
      <trkpt lat="41.436180500" lon="1.558254300">
        <ele>657.80</ele>
        <time>2018-05-26T09:24:56Z</time>
      </trkpt>
      <trkpt lat="41.436056300" lon="1.557912800">
        <ele>658.80</ele>
        <time>2018-05-26T09:24:59Z</time>
      </trkpt>
      <trkpt lat="41.435917000" lon="1.557583300">
        <ele>659.60</ele>
        <time>2018-05-26T09:25:02Z</time>
      </trkpt>
      <trkpt lat="41.435678400" lon="1.557385600">
        <ele>658.60</ele>
        <time>2018-05-26T09:25:05Z</time>
      </trkpt>
      <trkpt lat="41.435509400" lon="1.557303600">
        <ele>657.20</ele>
        <time>2018-05-26T09:25:07Z</time>
      </trkpt>
      <trkpt lat="41.435337600" lon="1.557261400">
        <ele>655.40</ele>
        <time>2018-05-26T09:25:09Z</time>
      </trkpt>
      <trkpt lat="41.435158100" lon="1.557258000">
        <ele>653.80</ele>
        <time>2018-05-26T09:25:11Z</time>
      </trkpt>
      <trkpt lat="41.435019900" lon="1.557342200">
        <ele>653.20</ele>
        <time>2018-05-26T09:25:12Z</time>
      </trkpt>
      <trkpt lat="41.434888800" lon="1.557385300">
        <ele>652.40</ele>
        <time>2018-05-26T09:25:13Z</time>
      </trkpt>
      <trkpt lat="41.434602900" lon="1.557385100">
        <ele>651.20</ele>
        <time>2018-05-26T09:25:15Z</time>
      </trkpt>
      <trkpt lat="41.434349200" lon="1.557307100">
        <ele>650.00</ele>
        <time>2018-05-26T09:25:17Z</time>
      </trkpt>
      <trkpt lat="41.434233500" lon="1.557252700">
        <ele>649.80</ele>
        <time>2018-05-26T09:25:18Z</time>
      </trkpt>
      <trkpt lat="41.434120300" lon="1.557200300">
        <ele>649.60</ele>
        <time>2018-05-26T09:25:19Z</time>
      </trkpt>
      <trkpt lat="41.433887200" lon="1.557083800">
        <ele>648.80</ele>
        <time>2018-05-26T09:25:21Z</time>
      </trkpt>
      <trkpt lat="41.433653800" lon="1.556958000">
        <ele>647.40</ele>
        <time>2018-05-26T09:25:23Z</time>
      </trkpt>
      <trkpt lat="41.433536600" lon="1.556892200">
        <ele>646.60</ele>
        <time>2018-05-26T09:25:24Z</time>
      </trkpt>
      <trkpt lat="41.433412200" lon="1.556823300">
        <ele>645.40</ele>
        <time>2018-05-26T09:25:25Z</time>
      </trkpt>
      <trkpt lat="41.433288900" lon="1.556759900">
        <ele>644.40</ele>
        <time>2018-05-26T09:25:26Z</time>
      </trkpt>
      <trkpt lat="41.433046900" lon="1.556620300">
        <ele>642.00</ele>
        <time>2018-05-26T09:25:28Z</time>
      </trkpt>
      <trkpt lat="41.432807200" lon="1.556470600">
        <ele>640.80</ele>
        <time>2018-05-26T09:25:30Z</time>
      </trkpt>
      <trkpt lat="41.432574300" lon="1.556314400">
        <ele>639.20</ele>
        <time>2018-05-26T09:25:32Z</time>
      </trkpt>
      <trkpt lat="41.432337100" lon="1.556156400">
        <ele>637.60</ele>
        <time>2018-05-26T09:25:34Z</time>
      </trkpt>
      <trkpt lat="41.432104800" lon="1.556014900">
        <ele>636.60</ele>
        <time>2018-05-26T09:25:36Z</time>
      </trkpt>
      <trkpt lat="41.431872000" lon="1.555867100">
        <ele>635.20</ele>
        <time>2018-05-26T09:25:38Z</time>
      </trkpt>
      <trkpt lat="41.431641400" lon="1.555713200">
        <ele>634.20</ele>
        <time>2018-05-26T09:25:40Z</time>
      </trkpt>
      <trkpt lat="41.431412600" lon="1.555556200">
        <ele>632.80</ele>
        <time>2018-05-26T09:25:42Z</time>
      </trkpt>
      <trkpt lat="41.431181400" lon="1.555444800">
        <ele>631.60</ele>
        <time>2018-05-26T09:25:44Z</time>
      </trkpt>
      <trkpt lat="41.430920500" lon="1.555466000">
        <ele>630.80</ele>
        <time>2018-05-26T09:25:46Z</time>
      </trkpt>
      <trkpt lat="41.430800700" lon="1.555506900">
        <ele>629.80</ele>
        <time>2018-05-26T09:25:47Z</time>
      </trkpt>
      <trkpt lat="41.430593300" lon="1.555729300">
        <ele>628.20</ele>
        <time>2018-05-26T09:25:49Z</time>
      </trkpt>
      <trkpt lat="41.430502400" lon="1.555866900">
        <ele>627.20</ele>
        <time>2018-05-26T09:25:50Z</time>
      </trkpt>
      <trkpt lat="41.430408900" lon="1.556001700">
        <ele>626.00</ele>
        <time>2018-05-26T09:25:51Z</time>
      </trkpt>
      <trkpt lat="41.430318900" lon="1.556132300">
        <ele>624.00</ele>
        <time>2018-05-26T09:25:52Z</time>
      </trkpt>
      <trkpt lat="41.430233900" lon="1.556259100">
        <ele>623.00</ele>
        <time>2018-05-26T09:25:53Z</time>
      </trkpt>
      <trkpt lat="41.430165200" lon="1.556368000">
        <ele>622.40</ele>
        <time>2018-05-26T09:25:54Z</time>
      </trkpt>
      <trkpt lat="41.430132100" lon="1.556484400">
        <ele>622.20</ele>
        <time>2018-05-26T09:25:55Z</time>
      </trkpt>
      <trkpt lat="41.430136600" lon="1.556614100">
        <ele>622.20</ele>
        <time>2018-05-26T09:25:56Z</time>
      </trkpt>
      <trkpt lat="41.430218300" lon="1.556831800">
        <ele>622.20</ele>
        <time>2018-05-26T09:25:58Z</time>
      </trkpt>
      <trkpt lat="41.430322800" lon="1.557025200">
        <ele>622.00</ele>
        <time>2018-05-26T09:26:00Z</time>
      </trkpt>
      <trkpt lat="41.430434000" lon="1.557254000">
        <ele>622.00</ele>
        <time>2018-05-26T09:26:02Z</time>
      </trkpt>
      <trkpt lat="41.430473100" lon="1.557387100">
        <ele>622.00</ele>
        <time>2018-05-26T09:26:03Z</time>
      </trkpt>
      <trkpt lat="41.430523600" lon="1.557665400">
        <ele>621.60</ele>
        <time>2018-05-26T09:26:05Z</time>
      </trkpt>
      <trkpt lat="41.430572000" lon="1.557932400">
        <ele>621.60</ele>
        <time>2018-05-26T09:26:07Z</time>
      </trkpt>
      <trkpt lat="41.430537900" lon="1.558154100">
        <ele>621.40</ele>
        <time>2018-05-26T09:26:09Z</time>
      </trkpt>
      <trkpt lat="41.430419000" lon="1.558259700">
        <ele>621.20</ele>
        <time>2018-05-26T09:26:11Z</time>
      </trkpt>
      <trkpt lat="41.430242400" lon="1.558179500">
        <ele>621.60</ele>
        <time>2018-05-26T09:26:14Z</time>
      </trkpt>
      <trkpt lat="41.430110900" lon="1.558037600">
        <ele>621.40</ele>
        <time>2018-05-26T09:26:16Z</time>
      </trkpt>
      <trkpt lat="41.429964000" lon="1.557946300">
        <ele>621.80</ele>
        <time>2018-05-26T09:26:18Z</time>
      </trkpt>
      <trkpt lat="41.429692600" lon="1.557957700">
        <ele>622.20</ele>
        <time>2018-05-26T09:26:21Z</time>
      </trkpt>
      <trkpt lat="41.429518000" lon="1.558051700">
        <ele>622.60</ele>
        <time>2018-05-26T09:26:23Z</time>
      </trkpt>
      <trkpt lat="41.429440000" lon="1.558118100">
        <ele>622.60</ele>
        <time>2018-05-26T09:26:24Z</time>
      </trkpt>
      <trkpt lat="41.429364600" lon="1.558185200">
        <ele>622.60</ele>
        <time>2018-05-26T09:26:25Z</time>
      </trkpt>
      <trkpt lat="41.429048000" lon="1.558482200">
        <ele>622.40</ele>
        <time>2018-05-26T09:26:29Z</time>
      </trkpt>
      <trkpt lat="41.428963000" lon="1.558547000">
        <ele>622.20</ele>
        <time>2018-05-26T09:26:30Z</time>
      </trkpt>
      <trkpt lat="41.428617600" lon="1.558825600">
        <ele>622.00</ele>
        <time>2018-05-26T09:26:34Z</time>
      </trkpt>
      <trkpt lat="41.428433100" lon="1.558949900">
        <ele>621.60</ele>
        <time>2018-05-26T09:26:36Z</time>
      </trkpt>
      <trkpt lat="41.428336000" lon="1.559014400">
        <ele>621.60</ele>
        <time>2018-05-26T09:26:37Z</time>
      </trkpt>
      <trkpt lat="41.428088300" lon="1.559249000">
        <ele>621.40</ele>
        <time>2018-05-26T09:26:40Z</time>
      </trkpt>
      <trkpt lat="41.427849500" lon="1.559509900">
        <ele>620.60</ele>
        <time>2018-05-26T09:26:43Z</time>
      </trkpt>
      <trkpt lat="41.427782800" lon="1.559612700">
        <ele>620.40</ele>
        <time>2018-05-26T09:26:44Z</time>
      </trkpt>
      <trkpt lat="41.427725100" lon="1.559721800">
        <ele>620.20</ele>
        <time>2018-05-26T09:26:45Z</time>
      </trkpt>
      <trkpt lat="41.427421600" lon="1.560251800">
        <ele>620.40</ele>
        <time>2018-05-26T09:26:50Z</time>
      </trkpt>
      <trkpt lat="41.427214000" lon="1.560704200">
        <ele>620.00</ele>
        <time>2018-05-26T09:26:54Z</time>
      </trkpt>
      <trkpt lat="41.427193700" lon="1.561109900">
        <ele>620.20</ele>
        <time>2018-05-26T09:26:57Z</time>
      </trkpt>
      <trkpt lat="41.427142300" lon="1.561918000">
        <ele>619.80</ele>
        <time>2018-05-26T09:27:03Z</time>
      </trkpt>
      <trkpt lat="41.427103500" lon="1.562038400">
        <ele>619.00</ele>
        <time>2018-05-26T09:27:04Z</time>
      </trkpt>
      <trkpt lat="41.427000700" lon="1.562215200">
        <ele>618.20</ele>
        <time>2018-05-26T09:27:06Z</time>
      </trkpt>
      <trkpt lat="41.426833800" lon="1.562370800">
        <ele>618.00</ele>
        <time>2018-05-26T09:27:09Z</time>
      </trkpt>
      <trkpt lat="41.426680100" lon="1.562394100">
        <ele>617.80</ele>
        <time>2018-05-26T09:27:11Z</time>
      </trkpt>
      <trkpt lat="41.426539600" lon="1.562375000">
        <ele>617.60</ele>
        <time>2018-05-26T09:27:12Z</time>
      </trkpt>
      <trkpt lat="41.426284600" lon="1.562402400">
        <ele>616.60</ele>
        <time>2018-05-26T09:27:14Z</time>
      </trkpt>
      <trkpt lat="41.426052100" lon="1.562447400">
        <ele>615.40</ele>
        <time>2018-05-26T09:27:16Z</time>
      </trkpt>
      <trkpt lat="41.425816200" lon="1.562484200">
        <ele>614.20</ele>
        <time>2018-05-26T09:27:18Z</time>
      </trkpt>
      <trkpt lat="41.425703700" lon="1.562528100">
        <ele>613.40</ele>
        <time>2018-05-26T09:27:19Z</time>
      </trkpt>
      <trkpt lat="41.425597700" lon="1.562590500">
        <ele>612.80</ele>
        <time>2018-05-26T09:27:20Z</time>
      </trkpt>
      <trkpt lat="41.425507600" lon="1.562680900">
        <ele>612.20</ele>
        <time>2018-05-26T09:27:21Z</time>
      </trkpt>
      <trkpt lat="41.425357900" lon="1.562914900">
        <ele>611.80</ele>
        <time>2018-05-26T09:27:23Z</time>
      </trkpt>
      <trkpt lat="41.425281300" lon="1.563034700">
        <ele>611.20</ele>
        <time>2018-05-26T09:27:24Z</time>
      </trkpt>
      <trkpt lat="41.425203200" lon="1.563154700">
        <ele>610.60</ele>
        <time>2018-05-26T09:27:25Z</time>
      </trkpt>
      <trkpt lat="41.425049600" lon="1.563397000">
        <ele>609.40</ele>
        <time>2018-05-26T09:27:27Z</time>
      </trkpt>
      <trkpt lat="41.424898600" lon="1.563642000">
        <ele>607.60</ele>
        <time>2018-05-26T09:27:29Z</time>
      </trkpt>
      <trkpt lat="41.424817700" lon="1.563763100">
        <ele>606.40</ele>
        <time>2018-05-26T09:27:30Z</time>
      </trkpt>
      <trkpt lat="41.424658700" lon="1.564007400">
        <ele>605.00</ele>
        <time>2018-05-26T09:27:32Z</time>
      </trkpt>
      <trkpt lat="41.424583000" lon="1.564131400">
        <ele>604.60</ele>
        <time>2018-05-26T09:27:33Z</time>
      </trkpt>
      <trkpt lat="41.424504300" lon="1.564254200">
        <ele>603.80</ele>
        <time>2018-05-26T09:27:34Z</time>
      </trkpt>
      <trkpt lat="41.424354700" lon="1.564501700">
        <ele>602.40</ele>
        <time>2018-05-26T09:27:36Z</time>
      </trkpt>
      <trkpt lat="41.424249300" lon="1.564773500">
        <ele>601.60</ele>
        <time>2018-05-26T09:27:38Z</time>
      </trkpt>
      <trkpt lat="41.424235300" lon="1.564933800">
        <ele>601.00</ele>
        <time>2018-05-26T09:27:39Z</time>
      </trkpt>
      <trkpt lat="41.424282000" lon="1.565240700">
        <ele>600.20</ele>
        <time>2018-05-26T09:27:41Z</time>
      </trkpt>
      <trkpt lat="41.424310500" lon="1.565395400">
        <ele>600.00</ele>
        <time>2018-05-26T09:27:42Z</time>
      </trkpt>
      <trkpt lat="41.424337200" lon="1.565548400">
        <ele>599.60</ele>
        <time>2018-05-26T09:27:43Z</time>
      </trkpt>
      <trkpt lat="41.424396600" lon="1.565848100">
        <ele>597.80</ele>
        <time>2018-05-26T09:27:45Z</time>
      </trkpt>
      <trkpt lat="41.424442400" lon="1.565988400">
        <ele>597.40</ele>
        <time>2018-05-26T09:27:46Z</time>
      </trkpt>
      <trkpt lat="41.424506800" lon="1.566114900">
        <ele>597.20</ele>
        <time>2018-05-26T09:27:47Z</time>
      </trkpt>
      <trkpt lat="41.424761300" lon="1.566429300">
        <ele>596.80</ele>
        <time>2018-05-26T09:27:50Z</time>
      </trkpt>
      <trkpt lat="41.424850400" lon="1.566516900">
        <ele>596.60</ele>
        <time>2018-05-26T09:27:51Z</time>
      </trkpt>
      <trkpt lat="41.425132800" lon="1.566735900">
        <ele>596.60</ele>
        <time>2018-05-26T09:27:54Z</time>
      </trkpt>
      <trkpt lat="41.425319900" lon="1.566978400">
        <ele>596.40</ele>
        <time>2018-05-26T09:27:57Z</time>
      </trkpt>
      <trkpt lat="41.425372400" lon="1.567150900">
        <ele>595.60</ele>
        <time>2018-05-26T09:27:59Z</time>
      </trkpt>
      <trkpt lat="41.425350400" lon="1.567274300">
        <ele>595.20</ele>
        <time>2018-05-26T09:28:00Z</time>
      </trkpt>
      <trkpt lat="41.425228000" lon="1.567659200">
        <ele>595.00</ele>
        <time>2018-05-26T09:28:03Z</time>
      </trkpt>
      <trkpt lat="41.425110800" lon="1.567920800">
        <ele>594.20</ele>
        <time>2018-05-26T09:28:05Z</time>
      </trkpt>
      <trkpt lat="41.424993300" lon="1.568190300">
        <ele>594.00</ele>
        <time>2018-05-26T09:28:07Z</time>
      </trkpt>
      <trkpt lat="41.424850900" lon="1.568573400">
        <ele>593.00</ele>
        <time>2018-05-26T09:28:10Z</time>
      </trkpt>
      <trkpt lat="41.424771100" lon="1.568821500">
        <ele>593.60</ele>
        <time>2018-05-26T09:28:12Z</time>
      </trkpt>
      <trkpt lat="41.424734200" lon="1.568946400">
        <ele>594.20</ele>
        <time>2018-05-26T09:28:13Z</time>
      </trkpt>
      <trkpt lat="41.424597300" lon="1.569593300">
        <ele>592.80</ele>
        <time>2018-05-26T09:28:18Z</time>
      </trkpt>
      <trkpt lat="41.424597400" lon="1.569730600">
        <ele>591.80</ele>
        <time>2018-05-26T09:28:19Z</time>
      </trkpt>
      <trkpt lat="41.424631900" lon="1.569869000">
        <ele>591.00</ele>
        <time>2018-05-26T09:28:20Z</time>
      </trkpt>
      <trkpt lat="41.424666000" lon="1.570006800">
        <ele>590.00</ele>
        <time>2018-05-26T09:28:21Z</time>
      </trkpt>
      <trkpt lat="41.424698500" lon="1.570153100">
        <ele>589.20</ele>
        <time>2018-05-26T09:28:22Z</time>
      </trkpt>
      <trkpt lat="41.424719200" lon="1.570308200">
        <ele>588.80</ele>
        <time>2018-05-26T09:28:23Z</time>
      </trkpt>
      <trkpt lat="41.424729700" lon="1.570456300">
        <ele>588.60</ele>
        <time>2018-05-26T09:28:24Z</time>
      </trkpt>
      <trkpt lat="41.424691500" lon="1.570608500">
        <ele>588.00</ele>
        <time>2018-05-26T09:28:25Z</time>
      </trkpt>
      <trkpt lat="41.424628700" lon="1.570743500">
        <ele>587.20</ele>
        <time>2018-05-26T09:28:26Z</time>
      </trkpt>
      <trkpt lat="41.424559100" lon="1.570875500">
        <ele>586.60</ele>
        <time>2018-05-26T09:28:27Z</time>
      </trkpt>
      <trkpt lat="41.424497100" lon="1.571011700">
        <ele>585.80</ele>
        <time>2018-05-26T09:28:28Z</time>
      </trkpt>
      <trkpt lat="41.424365700" lon="1.571449000">
        <ele>584.80</ele>
        <time>2018-05-26T09:28:31Z</time>
      </trkpt>
      <trkpt lat="41.424332800" lon="1.571603200">
        <ele>583.80</ele>
        <time>2018-05-26T09:28:32Z</time>
      </trkpt>
      <trkpt lat="41.424287200" lon="1.571752000">
        <ele>582.80</ele>
        <time>2018-05-26T09:28:33Z</time>
      </trkpt>
      <trkpt lat="41.424215100" lon="1.572058100">
        <ele>581.20</ele>
        <time>2018-05-26T09:28:35Z</time>
      </trkpt>
      <trkpt lat="41.424179600" lon="1.572361100">
        <ele>580.40</ele>
        <time>2018-05-26T09:28:37Z</time>
      </trkpt>
      <trkpt lat="41.424193400" lon="1.572515400">
        <ele>579.60</ele>
        <time>2018-05-26T09:28:38Z</time>
      </trkpt>
      <trkpt lat="41.424227200" lon="1.572663200">
        <ele>578.20</ele>
        <time>2018-05-26T09:28:39Z</time>
      </trkpt>
      <trkpt lat="41.424271100" lon="1.572811200">
        <ele>577.40</ele>
        <time>2018-05-26T09:28:40Z</time>
      </trkpt>
      <trkpt lat="41.424299100" lon="1.572957200">
        <ele>577.40</ele>
        <time>2018-05-26T09:28:41Z</time>
      </trkpt>
      <trkpt lat="41.424307700" lon="1.573087500">
        <ele>576.60</ele>
        <time>2018-05-26T09:28:42Z</time>
      </trkpt>
      <trkpt lat="41.424272400" lon="1.573216400">
        <ele>575.80</ele>
        <time>2018-05-26T09:28:43Z</time>
      </trkpt>
      <trkpt lat="41.424223800" lon="1.573344600">
        <ele>574.80</ele>
        <time>2018-05-26T09:28:44Z</time>
      </trkpt>
      <trkpt lat="41.424128600" lon="1.573410500">
        <ele>574.40</ele>
        <time>2018-05-26T09:28:45Z</time>
      </trkpt>
      <trkpt lat="41.423924000" lon="1.573704600">
        <ele>574.20</ele>
        <time>2018-05-26T09:28:48Z</time>
      </trkpt>
      <trkpt lat="41.423832700" lon="1.574050300">
        <ele>574.20</ele>
        <time>2018-05-26T09:28:51Z</time>
      </trkpt>
      <trkpt lat="41.423803300" lon="1.574270300">
        <ele>575.00</ele>
        <time>2018-05-26T09:28:53Z</time>
      </trkpt>
      <trkpt lat="41.423842600" lon="1.574502400">
        <ele>575.80</ele>
        <time>2018-05-26T09:28:55Z</time>
      </trkpt>
      <trkpt lat="41.423897800" lon="1.574843900">
        <ele>575.80</ele>
        <time>2018-05-26T09:28:58Z</time>
      </trkpt>
      <trkpt lat="41.423931000" lon="1.575077500">
        <ele>575.80</ele>
        <time>2018-05-26T09:29:00Z</time>
      </trkpt>
      <trkpt lat="41.423988900" lon="1.575437500">
        <ele>576.00</ele>
        <time>2018-05-26T09:29:03Z</time>
      </trkpt>
      <trkpt lat="41.424050800" lon="1.575805800">
        <ele>575.40</ele>
        <time>2018-05-26T09:29:06Z</time>
      </trkpt>
      <trkpt lat="41.424121000" lon="1.576040600">
        <ele>574.80</ele>
        <time>2018-05-26T09:29:08Z</time>
      </trkpt>
      <trkpt lat="41.424239400" lon="1.576231300">
        <ele>574.20</ele>
        <time>2018-05-26T09:29:10Z</time>
      </trkpt>
      <trkpt lat="41.424383800" lon="1.576392700">
        <ele>574.00</ele>
        <time>2018-05-26T09:29:12Z</time>
      </trkpt>
      <trkpt lat="41.424460800" lon="1.576470100">
        <ele>573.60</ele>
        <time>2018-05-26T09:29:13Z</time>
      </trkpt>
      <trkpt lat="41.424535200" lon="1.576550500">
        <ele>573.20</ele>
        <time>2018-05-26T09:29:14Z</time>
      </trkpt>
      <trkpt lat="41.424746300" lon="1.576789800">
        <ele>572.60</ele>
        <time>2018-05-26T09:29:17Z</time>
      </trkpt>
      <trkpt lat="41.424911500" lon="1.576885400">
        <ele>572.20</ele>
        <time>2018-05-26T09:29:19Z</time>
      </trkpt>
      <trkpt lat="41.425104700" lon="1.576868900">
        <ele>571.20</ele>
        <time>2018-05-26T09:29:21Z</time>
      </trkpt>
      <trkpt lat="41.425198000" lon="1.576849900">
        <ele>570.40</ele>
        <time>2018-05-26T09:29:22Z</time>
      </trkpt>
      <trkpt lat="41.425290700" lon="1.576833600">
        <ele>570.20</ele>
        <time>2018-05-26T09:29:23Z</time>
      </trkpt>
      <trkpt lat="41.425385400" lon="1.576810700">
        <ele>569.80</ele>
        <time>2018-05-26T09:29:24Z</time>
      </trkpt>
      <trkpt lat="41.425662200" lon="1.576777600">
        <ele>569.20</ele>
        <time>2018-05-26T09:29:27Z</time>
      </trkpt>
      <trkpt lat="41.425758700" lon="1.576797300">
        <ele>568.80</ele>
        <time>2018-05-26T09:29:28Z</time>
      </trkpt>
      <trkpt lat="41.425848400" lon="1.576831300">
        <ele>568.60</ele>
        <time>2018-05-26T09:29:29Z</time>
      </trkpt>
      <trkpt lat="41.426036000" lon="1.576917800">
        <ele>567.00</ele>
        <time>2018-05-26T09:29:31Z</time>
      </trkpt>
      <trkpt lat="41.426129000" lon="1.576967200">
        <ele>566.20</ele>
        <time>2018-05-26T09:29:32Z</time>
      </trkpt>
      <trkpt lat="41.426228700" lon="1.577016600">
        <ele>565.80</ele>
        <time>2018-05-26T09:29:33Z</time>
      </trkpt>
      <trkpt lat="41.426619700" lon="1.577153900">
        <ele>566.00</ele>
        <time>2018-05-26T09:29:37Z</time>
      </trkpt>
      <trkpt lat="41.426810800" lon="1.577071400">
        <ele>565.60</ele>
        <time>2018-05-26T09:29:39Z</time>
      </trkpt>
      <trkpt lat="41.426878900" lon="1.576973900">
        <ele>565.20</ele>
        <time>2018-05-26T09:29:40Z</time>
      </trkpt>
      <trkpt lat="41.427040100" lon="1.576624200">
        <ele>564.40</ele>
        <time>2018-05-26T09:29:43Z</time>
      </trkpt>
      <trkpt lat="41.427152300" lon="1.576409400">
        <ele>563.60</ele>
        <time>2018-05-26T09:29:45Z</time>
      </trkpt>
      <trkpt lat="41.427293500" lon="1.576307900">
        <ele>563.00</ele>
        <time>2018-05-26T09:29:47Z</time>
      </trkpt>
      <trkpt lat="41.427487400" lon="1.576371000">
        <ele>562.80</ele>
        <time>2018-05-26T09:29:50Z</time>
      </trkpt>
      <trkpt lat="41.427669800" lon="1.576573000">
        <ele>561.80</ele>
        <time>2018-05-26T09:29:52Z</time>
      </trkpt>
      <trkpt lat="41.428131300" lon="1.577111200">
        <ele>561.00</ele>
        <time>2018-05-26T09:29:58Z</time>
      </trkpt>
      <trkpt lat="41.428146900" lon="1.577231900">
        <ele>560.60</ele>
        <time>2018-05-26T09:29:59Z</time>
      </trkpt>
      <trkpt lat="41.428136500" lon="1.577352800">
        <ele>560.00</ele>
        <time>2018-05-26T09:30:00Z</time>
      </trkpt>
      <trkpt lat="41.428066000" lon="1.577477000">
        <ele>559.40</ele>
        <time>2018-05-26T09:30:01Z</time>
      </trkpt>
      <trkpt lat="41.428000000" lon="1.577590900">
        <ele>558.60</ele>
        <time>2018-05-26T09:30:02Z</time>
      </trkpt>
      <trkpt lat="41.427924000" lon="1.577709100">
        <ele>558.00</ele>
        <time>2018-05-26T09:30:03Z</time>
      </trkpt>
      <trkpt lat="41.427843500" lon="1.577831700">
        <ele>557.00</ele>
        <time>2018-05-26T09:30:04Z</time>
      </trkpt>
      <trkpt lat="41.427763100" lon="1.577959000">
        <ele>556.00</ele>
        <time>2018-05-26T09:30:05Z</time>
      </trkpt>
      <trkpt lat="41.427679400" lon="1.578086100">
        <ele>555.40</ele>
        <time>2018-05-26T09:30:06Z</time>
      </trkpt>
      <trkpt lat="41.427601000" lon="1.578225300">
        <ele>554.80</ele>
        <time>2018-05-26T09:30:07Z</time>
      </trkpt>
      <trkpt lat="41.427539700" lon="1.578370800">
        <ele>554.40</ele>
        <time>2018-05-26T09:30:08Z</time>
      </trkpt>
      <trkpt lat="41.427514600" lon="1.578527500">
        <ele>554.00</ele>
        <time>2018-05-26T09:30:09Z</time>
      </trkpt>
      <trkpt lat="41.427497200" lon="1.578687200">
        <ele>553.00</ele>
        <time>2018-05-26T09:30:10Z</time>
      </trkpt>
      <trkpt lat="41.427449100" lon="1.578843900">
        <ele>551.60</ele>
        <time>2018-05-26T09:30:11Z</time>
      </trkpt>
      <trkpt lat="41.427363300" lon="1.578970200">
        <ele>550.20</ele>
        <time>2018-05-26T09:30:12Z</time>
      </trkpt>
      <trkpt lat="41.427200800" lon="1.579188500">
        <ele>549.20</ele>
        <time>2018-05-26T09:30:14Z</time>
      </trkpt>
      <trkpt lat="41.427107500" lon="1.579296800">
        <ele>548.80</ele>
        <time>2018-05-26T09:30:15Z</time>
      </trkpt>
      <trkpt lat="41.427013300" lon="1.579408800">
        <ele>547.40</ele>
        <time>2018-05-26T09:30:16Z</time>
      </trkpt>
      <trkpt lat="41.426832200" lon="1.579663500">
        <ele>545.80</ele>
        <time>2018-05-26T09:30:18Z</time>
      </trkpt>
      <trkpt lat="41.426655000" lon="1.579921100">
        <ele>544.20</ele>
        <time>2018-05-26T09:30:20Z</time>
      </trkpt>
      <trkpt lat="41.426477900" lon="1.580179700">
        <ele>542.40</ele>
        <time>2018-05-26T09:30:22Z</time>
      </trkpt>
      <trkpt lat="41.426300700" lon="1.580439800">
        <ele>541.20</ele>
        <time>2018-05-26T09:30:24Z</time>
      </trkpt>
      <trkpt lat="41.426144300" lon="1.580708400">
        <ele>539.60</ele>
        <time>2018-05-26T09:30:26Z</time>
      </trkpt>
      <trkpt lat="41.426084300" lon="1.580860500">
        <ele>539.00</ele>
        <time>2018-05-26T09:30:27Z</time>
      </trkpt>
      <trkpt lat="41.426038600" lon="1.581023100">
        <ele>538.20</ele>
        <time>2018-05-26T09:30:28Z</time>
      </trkpt>
      <trkpt lat="41.425940300" lon="1.581346000">
        <ele>537.00</ele>
        <time>2018-05-26T09:30:30Z</time>
      </trkpt>
      <trkpt lat="41.425900000" lon="1.581497400">
        <ele>536.40</ele>
        <time>2018-05-26T09:30:31Z</time>
      </trkpt>
      <trkpt lat="41.425871400" lon="1.581638100">
        <ele>535.80</ele>
        <time>2018-05-26T09:30:32Z</time>
      </trkpt>
      <trkpt lat="41.425876200" lon="1.581777700">
        <ele>535.20</ele>
        <time>2018-05-26T09:30:33Z</time>
      </trkpt>
      <trkpt lat="41.425917500" lon="1.581912400">
        <ele>534.60</ele>
        <time>2018-05-26T09:30:34Z</time>
      </trkpt>
      <trkpt lat="41.426091500" lon="1.582092900">
        <ele>533.40</ele>
        <time>2018-05-26T09:30:36Z</time>
      </trkpt>
      <trkpt lat="41.426287100" lon="1.582256000">
        <ele>532.40</ele>
        <time>2018-05-26T09:30:38Z</time>
      </trkpt>
      <trkpt lat="41.426486700" lon="1.582438400">
        <ele>530.00</ele>
        <time>2018-05-26T09:30:40Z</time>
      </trkpt>
      <trkpt lat="41.426688700" lon="1.582620400">
        <ele>528.20</ele>
        <time>2018-05-26T09:30:42Z</time>
      </trkpt>
      <trkpt lat="41.426890600" lon="1.582814200">
        <ele>527.00</ele>
        <time>2018-05-26T09:30:44Z</time>
      </trkpt>
      <trkpt lat="41.427093900" lon="1.582996900">
        <ele>525.80</ele>
        <time>2018-05-26T09:30:46Z</time>
      </trkpt>
      <trkpt lat="41.427196900" lon="1.583093300">
        <ele>525.20</ele>
        <time>2018-05-26T09:30:47Z</time>
      </trkpt>
      <trkpt lat="41.427299400" lon="1.583192100">
        <ele>524.60</ele>
        <time>2018-05-26T09:30:48Z</time>
      </trkpt>
      <trkpt lat="41.427509500" lon="1.583381000">
        <ele>523.20</ele>
        <time>2018-05-26T09:30:50Z</time>
      </trkpt>
      <trkpt lat="41.427614300" lon="1.583473600">
        <ele>522.60</ele>
        <time>2018-05-26T09:30:51Z</time>
      </trkpt>
      <trkpt lat="41.427716400" lon="1.583571700">
        <ele>522.20</ele>
        <time>2018-05-26T09:30:52Z</time>
      </trkpt>
      <trkpt lat="41.427923400" lon="1.583754200">
        <ele>521.20</ele>
        <time>2018-05-26T09:30:54Z</time>
      </trkpt>
      <trkpt lat="41.428018900" lon="1.583844700">
        <ele>520.60</ele>
        <time>2018-05-26T09:30:55Z</time>
      </trkpt>
      <trkpt lat="41.428103000" lon="1.583935700">
        <ele>520.20</ele>
        <time>2018-05-26T09:30:56Z</time>
      </trkpt>
      <trkpt lat="41.428179600" lon="1.584026400">
        <ele>519.80</ele>
        <time>2018-05-26T09:30:57Z</time>
      </trkpt>
      <trkpt lat="41.428207600" lon="1.584148900">
        <ele>519.60</ele>
        <time>2018-05-26T09:30:58Z</time>
      </trkpt>
      <trkpt lat="41.428209500" lon="1.584279500">
        <ele>519.20</ele>
        <time>2018-05-26T09:30:59Z</time>
      </trkpt>
      <trkpt lat="41.428121800" lon="1.584533400">
        <ele>518.40</ele>
        <time>2018-05-26T09:31:01Z</time>
      </trkpt>
      <trkpt lat="41.428062800" lon="1.584652700">
        <ele>517.40</ele>
        <time>2018-05-26T09:31:02Z</time>
      </trkpt>
      <trkpt lat="41.427975900" lon="1.584750900">
        <ele>517.00</ele>
        <time>2018-05-26T09:31:03Z</time>
      </trkpt>
      <trkpt lat="41.427880100" lon="1.584821100">
        <ele>516.80</ele>
        <time>2018-05-26T09:31:04Z</time>
      </trkpt>
      <trkpt lat="41.427577700" lon="1.584934800">
        <ele>517.40</ele>
        <time>2018-05-26T09:31:07Z</time>
      </trkpt>
      <trkpt lat="41.427476800" lon="1.584947200">
        <ele>517.00</ele>
        <time>2018-05-26T09:31:08Z</time>
      </trkpt>
      <trkpt lat="41.427378500" lon="1.584878300">
        <ele>516.60</ele>
        <time>2018-05-26T09:31:09Z</time>
      </trkpt>
      <trkpt lat="41.427218600" lon="1.584702700">
        <ele>516.20</ele>
        <time>2018-05-26T09:31:11Z</time>
      </trkpt>
      <trkpt lat="41.427055900" lon="1.584579900">
        <ele>516.40</ele>
        <time>2018-05-26T09:31:13Z</time>
      </trkpt>
      <trkpt lat="41.426875800" lon="1.584693900">
        <ele>514.40</ele>
        <time>2018-05-26T09:31:16Z</time>
      </trkpt>
      <trkpt lat="41.426665900" lon="1.584935200">
        <ele>512.80</ele>
        <time>2018-05-26T09:31:18Z</time>
      </trkpt>
      <trkpt lat="41.426559600" lon="1.585055700">
        <ele>511.80</ele>
        <time>2018-05-26T09:31:19Z</time>
      </trkpt>
      <trkpt lat="41.426454000" lon="1.585169800">
        <ele>511.00</ele>
        <time>2018-05-26T09:31:20Z</time>
      </trkpt>
      <trkpt lat="41.426250400" lon="1.585400000">
        <ele>509.60</ele>
        <time>2018-05-26T09:31:22Z</time>
      </trkpt>
      <trkpt lat="41.426036000" lon="1.585630400">
        <ele>507.80</ele>
        <time>2018-05-26T09:31:24Z</time>
      </trkpt>
      <trkpt lat="41.425831200" lon="1.585861200">
        <ele>506.60</ele>
        <time>2018-05-26T09:31:26Z</time>
      </trkpt>
      <trkpt lat="41.425623600" lon="1.586089900">
        <ele>504.80</ele>
        <time>2018-05-26T09:31:28Z</time>
      </trkpt>
      <trkpt lat="41.425517400" lon="1.586202800">
        <ele>503.60</ele>
        <time>2018-05-26T09:31:29Z</time>
      </trkpt>
      <trkpt lat="41.425405000" lon="1.586320300">
        <ele>502.60</ele>
        <time>2018-05-26T09:31:30Z</time>
      </trkpt>
      <trkpt lat="41.425169900" lon="1.586548900">
        <ele>500.60</ele>
        <time>2018-05-26T09:31:32Z</time>
      </trkpt>
      <trkpt lat="41.424941500" lon="1.586787500">
        <ele>498.60</ele>
        <time>2018-05-26T09:31:34Z</time>
      </trkpt>
      <trkpt lat="41.424716800" lon="1.587007800">
        <ele>496.80</ele>
        <time>2018-05-26T09:31:36Z</time>
      </trkpt>
      <trkpt lat="41.424577500" lon="1.587083400">
        <ele>496.00</ele>
        <time>2018-05-26T09:31:37Z</time>
      </trkpt>
      <trkpt lat="41.424426500" lon="1.587135600">
        <ele>495.00</ele>
        <time>2018-05-26T09:31:38Z</time>
      </trkpt>
      <trkpt lat="41.424137500" lon="1.587228800">
        <ele>493.60</ele>
        <time>2018-05-26T09:31:40Z</time>
      </trkpt>
      <trkpt lat="41.423851000" lon="1.587329000">
        <ele>491.60</ele>
        <time>2018-05-26T09:31:42Z</time>
      </trkpt>
      <trkpt lat="41.423707500" lon="1.587380200">
        <ele>490.60</ele>
        <time>2018-05-26T09:31:43Z</time>
      </trkpt>
      <trkpt lat="41.423429400" lon="1.587488700">
        <ele>489.20</ele>
        <time>2018-05-26T09:31:45Z</time>
      </trkpt>
      <trkpt lat="41.423143200" lon="1.587560800">
        <ele>487.40</ele>
        <time>2018-05-26T09:31:47Z</time>
      </trkpt>
      <trkpt lat="41.422922500" lon="1.587560400">
        <ele>486.40</ele>
        <time>2018-05-26T09:31:49Z</time>
      </trkpt>
      <trkpt lat="41.422819600" lon="1.587560000">
        <ele>486.80</ele>
        <time>2018-05-26T09:31:50Z</time>
      </trkpt>
      <trkpt lat="41.422733700" lon="1.587615700">
        <ele>487.00</ele>
        <time>2018-05-26T09:31:51Z</time>
      </trkpt>
      <trkpt lat="41.422675100" lon="1.587732400">
        <ele>485.80</ele>
        <time>2018-05-26T09:31:52Z</time>
      </trkpt>
      <trkpt lat="41.422629600" lon="1.587989600">
        <ele>484.60</ele>
        <time>2018-05-26T09:31:54Z</time>
      </trkpt>
      <trkpt lat="41.422656000" lon="1.588275600">
        <ele>483.60</ele>
        <time>2018-05-26T09:31:56Z</time>
      </trkpt>
      <trkpt lat="41.422680900" lon="1.588425900">
        <ele>482.80</ele>
        <time>2018-05-26T09:31:57Z</time>
      </trkpt>
      <trkpt lat="41.422708000" lon="1.588581500">
        <ele>481.80</ele>
        <time>2018-05-26T09:31:58Z</time>
      </trkpt>
      <trkpt lat="41.422758100" lon="1.588901600">
        <ele>480.40</ele>
        <time>2018-05-26T09:32:00Z</time>
      </trkpt>
      <trkpt lat="41.422798300" lon="1.589234100">
        <ele>478.80</ele>
        <time>2018-05-26T09:32:02Z</time>
      </trkpt>
      <trkpt lat="41.422815600" lon="1.589402600">
        <ele>478.00</ele>
        <time>2018-05-26T09:32:03Z</time>
      </trkpt>
      <trkpt lat="41.422834900" lon="1.589571700">
        <ele>477.40</ele>
        <time>2018-05-26T09:32:04Z</time>
      </trkpt>
      <trkpt lat="41.422848500" lon="1.589886200">
        <ele>476.00</ele>
        <time>2018-05-26T09:32:06Z</time>
      </trkpt>
      <trkpt lat="41.422772800" lon="1.589998300">
        <ele>475.00</ele>
        <time>2018-05-26T09:32:07Z</time>
      </trkpt>
      <trkpt lat="41.422703300" lon="1.590113300">
        <ele>474.40</ele>
        <time>2018-05-26T09:32:08Z</time>
      </trkpt>
      <trkpt lat="41.422637100" lon="1.590237500">
        <ele>474.00</ele>
        <time>2018-05-26T09:32:09Z</time>
      </trkpt>
      <trkpt lat="41.422533700" lon="1.590504400">
        <ele>472.80</ele>
        <time>2018-05-26T09:32:11Z</time>
      </trkpt>
      <trkpt lat="41.422439900" lon="1.590793600">
        <ele>471.00</ele>
        <time>2018-05-26T09:32:13Z</time>
      </trkpt>
      <trkpt lat="41.422331500" lon="1.591090500">
        <ele>469.20</ele>
        <time>2018-05-26T09:32:15Z</time>
      </trkpt>
      <trkpt lat="41.422273100" lon="1.591235000">
        <ele>467.20</ele>
        <time>2018-05-26T09:32:16Z</time>
      </trkpt>
      <trkpt lat="41.422132900" lon="1.591510300">
        <ele>465.60</ele>
        <time>2018-05-26T09:32:18Z</time>
      </trkpt>
      <trkpt lat="41.422045200" lon="1.591638900">
        <ele>465.20</ele>
        <time>2018-05-26T09:32:19Z</time>
      </trkpt>
      <trkpt lat="41.421821700" lon="1.591838800">
        <ele>464.00</ele>
        <time>2018-05-26T09:32:21Z</time>
      </trkpt>
      <trkpt lat="41.421710100" lon="1.591934100">
        <ele>463.60</ele>
        <time>2018-05-26T09:32:22Z</time>
      </trkpt>
      <trkpt lat="41.421609700" lon="1.592046000">
        <ele>462.80</ele>
        <time>2018-05-26T09:32:23Z</time>
      </trkpt>
      <trkpt lat="41.421428400" lon="1.592299000">
        <ele>460.80</ele>
        <time>2018-05-26T09:32:25Z</time>
      </trkpt>
      <trkpt lat="41.421329700" lon="1.592414000">
        <ele>459.80</ele>
        <time>2018-05-26T09:32:26Z</time>
      </trkpt>
      <trkpt lat="41.421215100" lon="1.592504800">
        <ele>458.80</ele>
        <time>2018-05-26T09:32:27Z</time>
      </trkpt>
      <trkpt lat="41.421091600" lon="1.592571700">
        <ele>457.80</ele>
        <time>2018-05-26T09:32:28Z</time>
      </trkpt>
      <trkpt lat="41.420825900" lon="1.592678700">
        <ele>456.60</ele>
        <time>2018-05-26T09:32:30Z</time>
      </trkpt>
      <trkpt lat="41.420559000" lon="1.592782400">
        <ele>455.40</ele>
        <time>2018-05-26T09:32:32Z</time>
      </trkpt>
      <trkpt lat="41.420284900" lon="1.592877000">
        <ele>454.20</ele>
        <time>2018-05-26T09:32:34Z</time>
      </trkpt>
      <trkpt lat="41.420037900" lon="1.593000100">
        <ele>452.40</ele>
        <time>2018-05-26T09:32:36Z</time>
      </trkpt>
      <trkpt lat="41.419847300" lon="1.593180200">
        <ele>452.00</ele>
        <time>2018-05-26T09:32:38Z</time>
      </trkpt>
      <trkpt lat="41.419777000" lon="1.593270700">
        <ele>451.80</ele>
        <time>2018-05-26T09:32:39Z</time>
      </trkpt>
      <trkpt lat="41.419628500" lon="1.593361400">
        <ele>451.60</ele>
        <time>2018-05-26T09:32:41Z</time>
      </trkpt>
      <trkpt lat="41.419380600" lon="1.593279300">
        <ele>451.60</ele>
        <time>2018-05-26T09:32:44Z</time>
      </trkpt>
      <trkpt lat="41.419144300" lon="1.593179900">
        <ele>451.80</ele>
        <time>2018-05-26T09:32:47Z</time>
      </trkpt>
      <trkpt lat="41.418889500" lon="1.593159200">
        <ele>451.60</ele>
        <time>2018-05-26T09:32:50Z</time>
      </trkpt>
      <trkpt lat="41.418713300" lon="1.593115000">
        <ele>451.80</ele>
        <time>2018-05-26T09:32:52Z</time>
      </trkpt>
      <trkpt lat="41.418529700" lon="1.593055300">
        <ele>452.20</ele>
        <time>2018-05-26T09:32:54Z</time>
      </trkpt>
      <trkpt lat="41.418336900" lon="1.592990800">
        <ele>452.00</ele>
        <time>2018-05-26T09:32:56Z</time>
      </trkpt>
      <trkpt lat="41.418129200" lon="1.592924000">
        <ele>451.40</ele>
        <time>2018-05-26T09:32:58Z</time>
      </trkpt>
      <trkpt lat="41.417817900" lon="1.592823600">
        <ele>450.00</ele>
        <time>2018-05-26T09:33:01Z</time>
      </trkpt>
      <trkpt lat="41.417601700" lon="1.592759100">
        <ele>449.00</ele>
        <time>2018-05-26T09:33:03Z</time>
      </trkpt>
      <trkpt lat="41.417492700" lon="1.592727900">
        <ele>447.80</ele>
        <time>2018-05-26T09:33:04Z</time>
      </trkpt>
      <trkpt lat="41.416968600" lon="1.592533000">
        <ele>446.40</ele>
        <time>2018-05-26T09:33:09Z</time>
      </trkpt>
      <trkpt lat="41.416550900" lon="1.592299200">
        <ele>445.00</ele>
        <time>2018-05-26T09:33:13Z</time>
      </trkpt>
      <trkpt lat="41.416338800" lon="1.592179100">
        <ele>443.80</ele>
        <time>2018-05-26T09:33:15Z</time>
      </trkpt>
      <trkpt lat="41.416122100" lon="1.592072000">
        <ele>443.00</ele>
        <time>2018-05-26T09:33:17Z</time>
      </trkpt>
      <trkpt lat="41.416010400" lon="1.592033800">
        <ele>442.80</ele>
        <time>2018-05-26T09:33:18Z</time>
      </trkpt>
      <trkpt lat="41.415779900" lon="1.592004100">
        <ele>442.60</ele>
        <time>2018-05-26T09:33:20Z</time>
      </trkpt>
      <trkpt lat="41.415432800" lon="1.591998000">
        <ele>441.20</ele>
        <time>2018-05-26T09:33:23Z</time>
      </trkpt>
      <trkpt lat="41.415202900" lon="1.591991500">
        <ele>440.00</ele>
        <time>2018-05-26T09:33:25Z</time>
      </trkpt>
      <trkpt lat="41.414862500" lon="1.591987400">
        <ele>439.60</ele>
        <time>2018-05-26T09:33:28Z</time>
      </trkpt>
      <trkpt lat="41.414632000" lon="1.591967600">
        <ele>438.60</ele>
        <time>2018-05-26T09:33:30Z</time>
      </trkpt>
      <trkpt lat="41.414400900" lon="1.591915300">
        <ele>437.20</ele>
        <time>2018-05-26T09:33:32Z</time>
      </trkpt>
      <trkpt lat="41.414287600" lon="1.591873800">
        <ele>436.80</ele>
        <time>2018-05-26T09:33:33Z</time>
      </trkpt>
      <trkpt lat="41.414061700" lon="1.591785600">
        <ele>436.20</ele>
        <time>2018-05-26T09:33:35Z</time>
      </trkpt>
      <trkpt lat="41.413719900" lon="1.591646800">
        <ele>435.00</ele>
        <time>2018-05-26T09:33:38Z</time>
      </trkpt>
      <trkpt lat="41.413605400" lon="1.591603500">
        <ele>434.60</ele>
        <time>2018-05-26T09:33:39Z</time>
      </trkpt>
      <trkpt lat="41.413375500" lon="1.591515900">
        <ele>433.80</ele>
        <time>2018-05-26T09:33:41Z</time>
      </trkpt>
      <trkpt lat="41.413038800" lon="1.591404400">
        <ele>433.40</ele>
        <time>2018-05-26T09:33:44Z</time>
      </trkpt>
      <trkpt lat="41.412927200" lon="1.591407400">
        <ele>433.20</ele>
        <time>2018-05-26T09:33:45Z</time>
      </trkpt>
      <trkpt lat="41.412630700" lon="1.591574500">
        <ele>433.40</ele>
        <time>2018-05-26T09:33:48Z</time>
      </trkpt>
      <trkpt lat="41.412535400" lon="1.591641700">
        <ele>433.60</ele>
        <time>2018-05-26T09:33:49Z</time>
      </trkpt>
      <trkpt lat="41.412333600" lon="1.591727900">
        <ele>433.40</ele>
        <time>2018-05-26T09:33:51Z</time>
      </trkpt>
      <trkpt lat="41.411792200" lon="1.591813500">
        <ele>433.00</ele>
        <time>2018-05-26T09:33:56Z</time>
      </trkpt>
      <trkpt lat="41.411678200" lon="1.591823500">
        <ele>432.60</ele>
        <time>2018-05-26T09:33:57Z</time>
      </trkpt>
      <trkpt lat="41.411332700" lon="1.591853300">
        <ele>431.40</ele>
        <time>2018-05-26T09:34:00Z</time>
      </trkpt>
      <trkpt lat="41.411094200" lon="1.591874000">
        <ele>429.80</ele>
        <time>2018-05-26T09:34:02Z</time>
      </trkpt>
      <trkpt lat="41.410974900" lon="1.591884300">
        <ele>429.00</ele>
        <time>2018-05-26T09:34:03Z</time>
      </trkpt>
      <trkpt lat="41.410853000" lon="1.591896300">
        <ele>428.00</ele>
        <time>2018-05-26T09:34:04Z</time>
      </trkpt>
      <trkpt lat="41.410608400" lon="1.591916600">
        <ele>426.20</ele>
        <time>2018-05-26T09:34:06Z</time>
      </trkpt>
      <trkpt lat="41.410100100" lon="1.591965400">
        <ele>425.20</ele>
        <time>2018-05-26T09:34:10Z</time>
      </trkpt>
      <trkpt lat="41.409975300" lon="1.591979100">
        <ele>424.60</ele>
        <time>2018-05-26T09:34:11Z</time>
      </trkpt>
      <trkpt lat="41.409728500" lon="1.592003500">
        <ele>424.00</ele>
        <time>2018-05-26T09:34:13Z</time>
      </trkpt>
      <trkpt lat="41.409114500" lon="1.592026300">
        <ele>423.40</ele>
        <time>2018-05-26T09:34:18Z</time>
      </trkpt>
      <trkpt lat="41.408992900" lon="1.592019600">
        <ele>423.20</ele>
        <time>2018-05-26T09:34:19Z</time>
      </trkpt>
      <trkpt lat="41.408871700" lon="1.592011600">
        <ele>423.00</ele>
        <time>2018-05-26T09:34:20Z</time>
      </trkpt>
      <trkpt lat="41.408632000" lon="1.592000100">
        <ele>422.00</ele>
        <time>2018-05-26T09:34:22Z</time>
      </trkpt>
      <trkpt lat="41.408150500" lon="1.591979000">
        <ele>420.20</ele>
        <time>2018-05-26T09:34:26Z</time>
      </trkpt>
      <trkpt lat="41.407903100" lon="1.591955500">
        <ele>419.00</ele>
        <time>2018-05-26T09:34:28Z</time>
      </trkpt>
      <trkpt lat="41.407779400" lon="1.591931300">
        <ele>418.40</ele>
        <time>2018-05-26T09:34:29Z</time>
      </trkpt>
      <trkpt lat="41.407656100" lon="1.591890500">
        <ele>418.00</ele>
        <time>2018-05-26T09:34:30Z</time>
      </trkpt>
      <trkpt lat="41.407533500" lon="1.591840400">
        <ele>417.20</ele>
        <time>2018-05-26T09:34:31Z</time>
      </trkpt>
      <trkpt lat="41.407411300" lon="1.591783400">
        <ele>416.40</ele>
        <time>2018-05-26T09:34:32Z</time>
      </trkpt>
      <trkpt lat="41.407166100" lon="1.591659300">
        <ele>415.20</ele>
        <time>2018-05-26T09:34:34Z</time>
      </trkpt>
      <trkpt lat="41.406919300" lon="1.591527400">
        <ele>413.20</ele>
        <time>2018-05-26T09:34:36Z</time>
      </trkpt>
      <trkpt lat="41.406794800" lon="1.591462200">
        <ele>412.00</ele>
        <time>2018-05-26T09:34:37Z</time>
      </trkpt>
      <trkpt lat="41.406671800" lon="1.591403500">
        <ele>411.20</ele>
        <time>2018-05-26T09:34:38Z</time>
      </trkpt>
      <trkpt lat="41.406545300" lon="1.591361700">
        <ele>410.40</ele>
        <time>2018-05-26T09:34:39Z</time>
      </trkpt>
      <trkpt lat="41.406415400" lon="1.591342200">
        <ele>408.60</ele>
        <time>2018-05-26T09:34:40Z</time>
      </trkpt>
      <trkpt lat="41.406151800" lon="1.591352700">
        <ele>406.80</ele>
        <time>2018-05-26T09:34:42Z</time>
      </trkpt>
      <trkpt lat="41.406020400" lon="1.591375100">
        <ele>406.20</ele>
        <time>2018-05-26T09:34:43Z</time>
      </trkpt>
      <trkpt lat="41.405889400" lon="1.591406600">
        <ele>405.20</ele>
        <time>2018-05-26T09:34:44Z</time>
      </trkpt>
      <trkpt lat="41.405760000" lon="1.591455000">
        <ele>404.20</ele>
        <time>2018-05-26T09:34:45Z</time>
      </trkpt>
      <trkpt lat="41.405633600" lon="1.591520100">
        <ele>403.00</ele>
        <time>2018-05-26T09:34:46Z</time>
      </trkpt>
      <trkpt lat="41.405511600" lon="1.591594700">
        <ele>402.00</ele>
        <time>2018-05-26T09:34:47Z</time>
      </trkpt>
      <trkpt lat="41.405272100" lon="1.591744900">
        <ele>400.60</ele>
        <time>2018-05-26T09:34:49Z</time>
      </trkpt>
      <trkpt lat="41.405033400" lon="1.591895100">
        <ele>399.40</ele>
        <time>2018-05-26T09:34:51Z</time>
      </trkpt>
      <trkpt lat="41.404914300" lon="1.591969600">
        <ele>398.40</ele>
        <time>2018-05-26T09:34:52Z</time>
      </trkpt>
      <trkpt lat="41.404681500" lon="1.592130200">
        <ele>397.00</ele>
        <time>2018-05-26T09:34:54Z</time>
      </trkpt>
      <trkpt lat="41.404327700" lon="1.592394800">
        <ele>395.80</ele>
        <time>2018-05-26T09:34:57Z</time>
      </trkpt>
      <trkpt lat="41.404207600" lon="1.592484500">
        <ele>394.60</ele>
        <time>2018-05-26T09:34:58Z</time>
      </trkpt>
      <trkpt lat="41.403965200" lon="1.592672800">
        <ele>393.60</ele>
        <time>2018-05-26T09:35:00Z</time>
      </trkpt>
      <trkpt lat="41.403718400" lon="1.592863400">
        <ele>392.40</ele>
        <time>2018-05-26T09:35:02Z</time>
      </trkpt>
      <trkpt lat="41.403465400" lon="1.593052500">
        <ele>390.00</ele>
        <time>2018-05-26T09:35:04Z</time>
      </trkpt>
      <trkpt lat="41.403209800" lon="1.593241600">
        <ele>388.00</ele>
        <time>2018-05-26T09:35:06Z</time>
      </trkpt>
      <trkpt lat="41.402955200" lon="1.593431600">
        <ele>386.20</ele>
        <time>2018-05-26T09:35:08Z</time>
      </trkpt>
      <trkpt lat="41.402701700" lon="1.593621800">
        <ele>385.20</ele>
        <time>2018-05-26T09:35:10Z</time>
      </trkpt>
      <trkpt lat="41.402450000" lon="1.593811800">
        <ele>384.20</ele>
        <time>2018-05-26T09:35:12Z</time>
      </trkpt>
      <trkpt lat="41.402084000" lon="1.594083800">
        <ele>383.60</ele>
        <time>2018-05-26T09:35:15Z</time>
      </trkpt>
      <trkpt lat="41.401616900" lon="1.594428400">
        <ele>383.60</ele>
        <time>2018-05-26T09:35:19Z</time>
      </trkpt>
      <trkpt lat="41.401271900" lon="1.594684500">
        <ele>383.00</ele>
        <time>2018-05-26T09:35:22Z</time>
      </trkpt>
      <trkpt lat="41.401157500" lon="1.594769700">
        <ele>382.80</ele>
        <time>2018-05-26T09:35:23Z</time>
      </trkpt>
      <trkpt lat="41.400931700" lon="1.594936800">
        <ele>381.80</ele>
        <time>2018-05-26T09:35:25Z</time>
      </trkpt>
      <trkpt lat="41.400374800" lon="1.595351900">
        <ele>380.60</ele>
        <time>2018-05-26T09:35:30Z</time>
      </trkpt>
      <trkpt lat="41.400052700" lon="1.595594500">
        <ele>379.60</ele>
        <time>2018-05-26T09:35:33Z</time>
      </trkpt>
      <trkpt lat="41.399627300" lon="1.595911300">
        <ele>379.00</ele>
        <time>2018-05-26T09:35:37Z</time>
      </trkpt>
      <trkpt lat="41.399520500" lon="1.595989300">
        <ele>378.40</ele>
        <time>2018-05-26T09:35:38Z</time>
      </trkpt>
      <trkpt lat="41.399202400" lon="1.596221200">
        <ele>377.00</ele>
        <time>2018-05-26T09:35:41Z</time>
      </trkpt>
      <trkpt lat="41.398787600" lon="1.596526100">
        <ele>376.00</ele>
        <time>2018-05-26T09:35:45Z</time>
      </trkpt>
      <trkpt lat="41.398286600" lon="1.596900800">
        <ele>375.40</ele>
        <time>2018-05-26T09:35:50Z</time>
      </trkpt>
      <trkpt lat="41.398189900" lon="1.596971300">
        <ele>374.60</ele>
        <time>2018-05-26T09:35:51Z</time>
      </trkpt>
      <trkpt lat="41.398092500" lon="1.597042500">
        <ele>374.40</ele>
        <time>2018-05-26T09:35:52Z</time>
      </trkpt>
      <trkpt lat="41.397612200" lon="1.597400600">
        <ele>373.80</ele>
        <time>2018-05-26T09:35:57Z</time>
      </trkpt>
      <trkpt lat="41.397415200" lon="1.597544000">
        <ele>373.40</ele>
        <time>2018-05-26T09:35:59Z</time>
      </trkpt>
      <trkpt lat="41.397218800" lon="1.597686500">
        <ele>372.60</ele>
        <time>2018-05-26T09:36:01Z</time>
      </trkpt>
      <trkpt lat="41.397121200" lon="1.597758300">
        <ele>372.20</ele>
        <time>2018-05-26T09:36:02Z</time>
      </trkpt>
      <trkpt lat="41.396825400" lon="1.597976800">
        <ele>371.00</ele>
        <time>2018-05-26T09:36:05Z</time>
      </trkpt>
      <trkpt lat="41.396521600" lon="1.598204100">
        <ele>369.80</ele>
        <time>2018-05-26T09:36:08Z</time>
      </trkpt>
      <trkpt lat="41.396315400" lon="1.598358900">
        <ele>368.60</ele>
        <time>2018-05-26T09:36:10Z</time>
      </trkpt>
      <trkpt lat="41.396213100" lon="1.598433000">
        <ele>368.00</ele>
        <time>2018-05-26T09:36:11Z</time>
      </trkpt>
      <trkpt lat="41.396111300" lon="1.598507200">
        <ele>367.60</ele>
        <time>2018-05-26T09:36:12Z</time>
      </trkpt>
      <trkpt lat="41.395707200" lon="1.598807600">
        <ele>366.40</ele>
        <time>2018-05-26T09:36:16Z</time>
      </trkpt>
      <trkpt lat="41.395306600" lon="1.599103800">
        <ele>365.20</ele>
        <time>2018-05-26T09:36:20Z</time>
      </trkpt>
      <trkpt lat="41.395207400" lon="1.599178600">
        <ele>365.00</ele>
        <time>2018-05-26T09:36:21Z</time>
      </trkpt>
      <trkpt lat="41.394918900" lon="1.599400200">
        <ele>364.00</ele>
        <time>2018-05-26T09:36:24Z</time>
      </trkpt>
      <trkpt lat="41.394532600" lon="1.599692800">
        <ele>362.80</ele>
        <time>2018-05-26T09:36:28Z</time>
      </trkpt>
      <trkpt lat="41.394339700" lon="1.599838900">
        <ele>362.20</ele>
        <time>2018-05-26T09:36:30Z</time>
      </trkpt>
      <trkpt lat="41.394244400" lon="1.599911400">
        <ele>361.80</ele>
        <time>2018-05-26T09:36:31Z</time>
      </trkpt>
      <trkpt lat="41.394057800" lon="1.600039400">
        <ele>361.20</ele>
        <time>2018-05-26T09:36:33Z</time>
      </trkpt>
      <trkpt lat="41.393853500" lon="1.600095900">
        <ele>360.60</ele>
        <time>2018-05-26T09:36:35Z</time>
      </trkpt>
      <trkpt lat="41.393641800" lon="1.600036000">
        <ele>359.80</ele>
        <time>2018-05-26T09:36:37Z</time>
      </trkpt>
      <trkpt lat="41.393542200" lon="1.599973600">
        <ele>359.60</ele>
        <time>2018-05-26T09:36:38Z</time>
      </trkpt>
      <trkpt lat="41.393441500" lon="1.599906300">
        <ele>359.00</ele>
        <time>2018-05-26T09:36:39Z</time>
      </trkpt>
      <trkpt lat="41.393241800" lon="1.599772400">
        <ele>358.60</ele>
        <time>2018-05-26T09:36:41Z</time>
      </trkpt>
      <trkpt lat="41.392671400" lon="1.599403600">
        <ele>359.00</ele>
        <time>2018-05-26T09:36:47Z</time>
      </trkpt>
      <trkpt lat="41.392580500" lon="1.599359200">
        <ele>358.40</ele>
        <time>2018-05-26T09:36:48Z</time>
      </trkpt>
      <trkpt lat="41.392487200" lon="1.599335400">
        <ele>358.60</ele>
        <time>2018-05-26T09:36:49Z</time>
      </trkpt>
      <trkpt lat="41.392298200" lon="1.599328600">
        <ele>359.00</ele>
        <time>2018-05-26T09:36:51Z</time>
      </trkpt>
      <trkpt lat="41.392006900" lon="1.599341100">
        <ele>359.20</ele>
        <time>2018-05-26T09:36:54Z</time>
      </trkpt>
      <trkpt lat="41.391908000" lon="1.599343200">
        <ele>359.60</ele>
        <time>2018-05-26T09:36:55Z</time>
      </trkpt>
      <trkpt lat="41.391708900" lon="1.599353300">
        <ele>360.40</ele>
        <time>2018-05-26T09:36:57Z</time>
      </trkpt>
      <trkpt lat="41.391609200" lon="1.599358300">
        <ele>360.80</ele>
        <time>2018-05-26T09:36:58Z</time>
      </trkpt>
      <trkpt lat="41.391018500" lon="1.599377100">
        <ele>360.60</ele>
        <time>2018-05-26T09:37:04Z</time>
      </trkpt>
      <trkpt lat="41.390631400" lon="1.599393800">
        <ele>359.40</ele>
        <time>2018-05-26T09:37:08Z</time>
      </trkpt>
      <trkpt lat="41.390146900" lon="1.599412700">
        <ele>358.20</ele>
        <time>2018-05-26T09:37:13Z</time>
      </trkpt>
      <trkpt lat="41.389982900" lon="1.599399000">
        <ele>358.20</ele>
        <time>2018-05-26T09:37:15Z</time>
      </trkpt>
      <trkpt lat="41.389823200" lon="1.599414600">
        <ele>357.80</ele>
        <time>2018-05-26T09:37:18Z</time>
      </trkpt>
      <trkpt lat="41.389752000" lon="1.599519700">
        <ele>357.60</ele>
        <time>2018-05-26T09:37:20Z</time>
      </trkpt>
      <trkpt lat="41.389681300" lon="1.599761700">
        <ele>356.60</ele>
        <time>2018-05-26T09:37:23Z</time>
      </trkpt>
      <trkpt lat="41.389605700" lon="1.600047700">
        <ele>356.20</ele>
        <time>2018-05-26T09:37:26Z</time>
      </trkpt>
      <trkpt lat="41.389484700" lon="1.600466200">
        <ele>354.80</ele>
        <time>2018-05-26T09:37:30Z</time>
      </trkpt>
      <trkpt lat="41.389387200" lon="1.600793600">
        <ele>355.00</ele>
        <time>2018-05-26T09:37:33Z</time>
      </trkpt>
      <trkpt lat="41.389159800" lon="1.601569000">
        <ele>353.80</ele>
        <time>2018-05-26T09:37:40Z</time>
      </trkpt>
      <trkpt lat="41.388992900" lon="1.602119800">
        <ele>353.60</ele>
        <time>2018-05-26T09:37:45Z</time>
      </trkpt>
      <trkpt lat="41.388857800" lon="1.602581100">
        <ele>352.60</ele>
        <time>2018-05-26T09:37:49Z</time>
      </trkpt>
      <trkpt lat="41.388824800" lon="1.602700600">
        <ele>352.20</ele>
        <time>2018-05-26T09:37:50Z</time>
      </trkpt>
      <trkpt lat="41.388758800" lon="1.602935400">
        <ele>351.20</ele>
        <time>2018-05-26T09:37:52Z</time>
      </trkpt>
      <trkpt lat="41.388656200" lon="1.603280800">
        <ele>351.20</ele>
        <time>2018-05-26T09:37:55Z</time>
      </trkpt>
      <trkpt lat="41.388560400" lon="1.603614700">
        <ele>350.60</ele>
        <time>2018-05-26T09:37:58Z</time>
      </trkpt>
      <trkpt lat="41.388466900" lon="1.603926400">
        <ele>350.20</ele>
        <time>2018-05-26T09:38:01Z</time>
      </trkpt>
      <trkpt lat="41.388344300" lon="1.604341700">
        <ele>349.80</ele>
        <time>2018-05-26T09:38:05Z</time>
      </trkpt>
      <trkpt lat="41.388252500" lon="1.604652300">
        <ele>349.40</ele>
        <time>2018-05-26T09:38:08Z</time>
      </trkpt>
      <trkpt lat="41.388009000" lon="1.605457400">
        <ele>348.00</ele>
        <time>2018-05-26T09:38:16Z</time>
      </trkpt>
      <trkpt lat="41.387948800" lon="1.605651200">
        <ele>347.60</ele>
        <time>2018-05-26T09:38:18Z</time>
      </trkpt>
      <trkpt lat="41.387739400" lon="1.606360900">
        <ele>347.40</ele>
        <time>2018-05-26T09:38:25Z</time>
      </trkpt>
      <trkpt lat="41.387676300" lon="1.606559700">
        <ele>347.40</ele>
        <time>2018-05-26T09:38:27Z</time>
      </trkpt>
      <trkpt lat="41.387560300" lon="1.606950300">
        <ele>346.80</ele>
        <time>2018-05-26T09:38:31Z</time>
      </trkpt>
      <trkpt lat="41.387476600" lon="1.607224500">
        <ele>346.60</ele>
        <time>2018-05-26T09:38:34Z</time>
      </trkpt>
      <trkpt lat="41.387336500" lon="1.607444300">
        <ele>346.20</ele>
        <time>2018-05-26T09:38:37Z</time>
      </trkpt>
      <trkpt lat="41.387296900" lon="1.607630600">
        <ele>345.60</ele>
        <time>2018-05-26T09:38:39Z</time>
      </trkpt>
      <trkpt lat="41.387289900" lon="1.607822200">
        <ele>345.60</ele>
        <time>2018-05-26T09:38:41Z</time>
      </trkpt>
      <trkpt lat="41.387244800" lon="1.607999600">
        <ele>345.40</ele>
        <time>2018-05-26T09:38:43Z</time>
      </trkpt>
      <trkpt lat="41.387145800" lon="1.608344800">
        <ele>345.20</ele>
        <time>2018-05-26T09:38:47Z</time>
      </trkpt>
      <trkpt lat="41.387010500" lon="1.608799100">
        <ele>344.40</ele>
        <time>2018-05-26T09:38:52Z</time>
      </trkpt>
      <trkpt lat="41.386848200" lon="1.609327400">
        <ele>343.80</ele>
        <time>2018-05-26T09:38:58Z</time>
      </trkpt>
      <trkpt lat="41.386775100" lon="1.609560600">
        <ele>343.60</ele>
        <time>2018-05-26T09:39:01Z</time>
      </trkpt>
      <trkpt lat="41.386593700" lon="1.610161800">
        <ele>342.40</ele>
        <time>2018-05-26T09:39:08Z</time>
      </trkpt>
      <trkpt lat="41.386401400" lon="1.610817100">
        <ele>341.40</ele>
        <time>2018-05-26T09:39:15Z</time>
      </trkpt>
      <trkpt lat="41.386259500" lon="1.611289100">
        <ele>340.80</ele>
        <time>2018-05-26T09:39:20Z</time>
      </trkpt>
      <trkpt lat="41.386139900" lon="1.611655800">
        <ele>340.80</ele>
        <time>2018-05-26T09:39:24Z</time>
      </trkpt>
      <trkpt lat="41.386002200" lon="1.612112600">
        <ele>340.60</ele>
        <time>2018-05-26T09:39:29Z</time>
      </trkpt>
      <trkpt lat="41.385915000" lon="1.612391200">
        <ele>340.60</ele>
        <time>2018-05-26T09:39:32Z</time>
      </trkpt>
      <trkpt lat="41.385826500" lon="1.612680100">
        <ele>340.80</ele>
        <time>2018-05-26T09:39:35Z</time>
      </trkpt>
      <trkpt lat="41.385770400" lon="1.612879500">
        <ele>340.40</ele>
        <time>2018-05-26T09:39:37Z</time>
      </trkpt>
      <trkpt lat="41.385690000" lon="1.613166100">
        <ele>339.40</ele>
        <time>2018-05-26T09:39:40Z</time>
      </trkpt>
      <trkpt lat="41.385525200" lon="1.613699400">
        <ele>340.20</ele>
        <time>2018-05-26T09:39:46Z</time>
      </trkpt>
      <trkpt lat="41.385413800" lon="1.614045400">
        <ele>340.00</ele>
        <time>2018-05-26T09:39:50Z</time>
      </trkpt>
      <trkpt lat="41.385371800" lon="1.614190500">
        <ele>340.00</ele>
        <time>2018-05-26T09:39:52Z</time>
      </trkpt>
      <trkpt lat="41.385316300" lon="1.614383300">
        <ele>339.60</ele>
        <time>2018-05-26T09:39:55Z</time>
      </trkpt>
      <trkpt lat="41.385276300" lon="1.614514300">
        <ele>339.20</ele>
        <time>2018-05-26T09:39:57Z</time>
      </trkpt>
      <trkpt lat="41.385204200" lon="1.614766300">
        <ele>339.20</ele>
        <time>2018-05-26T09:40:02Z</time>
      </trkpt>
      <trkpt lat="41.385103400" lon="1.615042000">
        <ele>339.40</ele>
        <time>2018-05-26T09:40:09Z</time>
      </trkpt>
      <trkpt lat="41.385055200" lon="1.615210900">
        <ele>339.60</ele>
        <time>2018-05-26T09:40:12Z</time>
      </trkpt>
      <trkpt lat="41.384994000" lon="1.615413400">
        <ele>339.40</ele>
        <time>2018-05-26T09:40:15Z</time>
      </trkpt>
      <trkpt lat="41.384892500" lon="1.615728700">
        <ele>339.40</ele>
        <time>2018-05-26T09:40:19Z</time>
      </trkpt>
      <trkpt lat="41.384843200" lon="1.615898800">
        <ele>339.60</ele>
        <time>2018-05-26T09:40:21Z</time>
      </trkpt>
      <trkpt lat="41.384700300" lon="1.616397200">
        <ele>339.80</ele>
        <time>2018-05-26T09:40:27Z</time>
      </trkpt>
      <trkpt lat="41.384615800" lon="1.616653500">
        <ele>339.80</ele>
        <time>2018-05-26T09:40:30Z</time>
      </trkpt>
      <trkpt lat="41.384538200" lon="1.616912500">
        <ele>339.80</ele>
        <time>2018-05-26T09:40:33Z</time>
      </trkpt>
      <trkpt lat="41.384388000" lon="1.617414900">
        <ele>340.20</ele>
        <time>2018-05-26T09:40:39Z</time>
      </trkpt>
      <trkpt lat="41.384195500" lon="1.618058800">
        <ele>340.80</ele>
        <time>2018-05-26T09:40:47Z</time>
      </trkpt>
      <trkpt lat="41.384102500" lon="1.618353200">
        <ele>341.20</ele>
        <time>2018-05-26T09:40:51Z</time>
      </trkpt>
      <trkpt lat="41.384040400" lon="1.618473300">
        <ele>341.40</ele>
        <time>2018-05-26T09:40:53Z</time>
      </trkpt>
      <trkpt lat="41.383921400" lon="1.618673100">
        <ele>341.00</ele>
        <time>2018-05-26T09:40:56Z</time>
      </trkpt>
      <trkpt lat="41.383916400" lon="1.618924000">
        <ele>341.20</ele>
        <time>2018-05-26T09:40:59Z</time>
      </trkpt>
      <trkpt lat="41.383867600" lon="1.619165400">
        <ele>341.80</ele>
        <time>2018-05-26T09:41:02Z</time>
      </trkpt>
      <trkpt lat="41.383740400" lon="1.619581700">
        <ele>342.20</ele>
        <time>2018-05-26T09:41:07Z</time>
      </trkpt>
      <trkpt lat="41.383641200" lon="1.619904700">
        <ele>343.00</ele>
        <time>2018-05-26T09:41:11Z</time>
      </trkpt>
      <trkpt lat="41.383572500" lon="1.620152700">
        <ele>343.40</ele>
        <time>2018-05-26T09:41:14Z</time>
      </trkpt>
      <trkpt lat="41.383505600" lon="1.620592500">
        <ele>344.20</ele>
        <time>2018-05-26T09:41:19Z</time>
      </trkpt>
      <trkpt lat="41.383497400" lon="1.620766300">
        <ele>344.40</ele>
        <time>2018-05-26T09:41:21Z</time>
      </trkpt>
      <trkpt lat="41.383538200" lon="1.621276800">
        <ele>345.60</ele>
        <time>2018-05-26T09:41:27Z</time>
      </trkpt>
      <trkpt lat="41.383562400" lon="1.621443100">
        <ele>346.20</ele>
        <time>2018-05-26T09:41:29Z</time>
      </trkpt>
      <trkpt lat="41.383585100" lon="1.621611000">
        <ele>346.60</ele>
        <time>2018-05-26T09:41:31Z</time>
      </trkpt>
      <trkpt lat="41.383640900" lon="1.621943400">
        <ele>347.20</ele>
        <time>2018-05-26T09:41:35Z</time>
      </trkpt>
      <trkpt lat="41.383701300" lon="1.622292100">
        <ele>347.60</ele>
        <time>2018-05-26T09:41:39Z</time>
      </trkpt>
      <trkpt lat="41.383760700" lon="1.622645900">
        <ele>347.20</ele>
        <time>2018-05-26T09:41:43Z</time>
      </trkpt>
      <trkpt lat="41.383901600" lon="1.623359300">
        <ele>347.40</ele>
        <time>2018-05-26T09:41:51Z</time>
      </trkpt>
      <trkpt lat="41.383945700" lon="1.623609900">
        <ele>346.60</ele>
        <time>2018-05-26T09:41:54Z</time>
      </trkpt>
      <trkpt lat="41.383984000" lon="1.623743800">
        <ele>345.80</ele>
        <time>2018-05-26T09:41:56Z</time>
      </trkpt>
      <trkpt lat="41.384092800" lon="1.623832500">
        <ele>345.60</ele>
        <time>2018-05-26T09:41:59Z</time>
      </trkpt>
      <trkpt lat="41.384150800" lon="1.623739000">
        <ele>345.80</ele>
        <time>2018-05-26T09:42:02Z</time>
      </trkpt>
      <trkpt lat="41.384159400" lon="1.623621300">
        <ele>346.60</ele>
        <time>2018-05-26T09:42:08Z</time>
      </trkpt>
      <trkpt lat="41.384090800" lon="1.623517400">
        <ele>347.00</ele>
        <time>2018-05-26T09:42:14Z</time>
      </trkpt>
      <trkpt lat="41.384081900" lon="1.623398200">
        <ele>347.00</ele>
        <time>2018-05-26T09:42:19Z</time>
      </trkpt>
      <trkpt lat="41.384086900" lon="1.623369400">
        <ele>347.20</ele>
        <time>2018-05-26T09:42:22Z</time>
      </trkpt>
      <trkpt lat="41.384186300" lon="1.623700700">
        <ele>297.20</ele>
        <time>2018-05-26T10:44:15Z</time>
      </trkpt>
      <trkpt lat="41.384052300" lon="1.623843800">
        <ele>297.20</ele>
        <time>2018-05-26T10:44:26Z</time>
      </trkpt>
      <trkpt lat="41.384001600" lon="1.623985200">
        <ele>297.00</ele>
        <time>2018-05-26T10:44:29Z</time>
      </trkpt>
      <trkpt lat="41.384020700" lon="1.624250700">
        <ele>296.00</ele>
        <time>2018-05-26T10:44:33Z</time>
      </trkpt>
      <trkpt lat="41.384046100" lon="1.624387300">
        <ele>295.80</ele>
        <time>2018-05-26T10:44:35Z</time>
      </trkpt>
      <trkpt lat="41.384150200" lon="1.624885200">
        <ele>295.00</ele>
        <time>2018-05-26T10:44:42Z</time>
      </trkpt>
      <trkpt lat="41.384212700" lon="1.625202200">
        <ele>293.80</ele>
        <time>2018-05-26T10:44:46Z</time>
      </trkpt>
      <trkpt lat="41.384250200" lon="1.625464800">
        <ele>292.80</ele>
        <time>2018-05-26T10:44:49Z</time>
      </trkpt>
      <trkpt lat="41.384302300" lon="1.625831700">
        <ele>291.40</ele>
        <time>2018-05-26T10:44:53Z</time>
      </trkpt>
      <trkpt lat="41.384330300" lon="1.626024700">
        <ele>290.00</ele>
        <time>2018-05-26T10:44:55Z</time>
      </trkpt>
      <trkpt lat="41.384373900" lon="1.626320200">
        <ele>288.80</ele>
        <time>2018-05-26T10:44:58Z</time>
      </trkpt>
      <trkpt lat="41.384421900" lon="1.626621600">
        <ele>287.80</ele>
        <time>2018-05-26T10:45:01Z</time>
      </trkpt>
      <trkpt lat="41.384454000" lon="1.626824600">
        <ele>287.40</ele>
        <time>2018-05-26T10:45:03Z</time>
      </trkpt>
      <trkpt lat="41.384474500" lon="1.627041200">
        <ele>286.20</ele>
        <time>2018-05-26T10:45:05Z</time>
      </trkpt>
      <trkpt lat="41.384486300" lon="1.627266100">
        <ele>284.80</ele>
        <time>2018-05-26T10:45:07Z</time>
      </trkpt>
      <trkpt lat="41.384487200" lon="1.627510500">
        <ele>284.40</ele>
        <time>2018-05-26T10:45:09Z</time>
      </trkpt>
      <trkpt lat="41.384481400" lon="1.627768000">
        <ele>283.60</ele>
        <time>2018-05-26T10:45:11Z</time>
      </trkpt>
      <trkpt lat="41.384472400" lon="1.628032100">
        <ele>282.40</ele>
        <time>2018-05-26T10:45:13Z</time>
      </trkpt>
      <trkpt lat="41.384466900" lon="1.628161800">
        <ele>281.20</ele>
        <time>2018-05-26T10:45:14Z</time>
      </trkpt>
      <trkpt lat="41.384461400" lon="1.628292700">
        <ele>280.40</ele>
        <time>2018-05-26T10:45:15Z</time>
      </trkpt>
      <trkpt lat="41.384455900" lon="1.628425400">
        <ele>279.60</ele>
        <time>2018-05-26T10:45:16Z</time>
      </trkpt>
      <trkpt lat="41.384440000" lon="1.628843200">
        <ele>278.40</ele>
        <time>2018-05-26T10:45:19Z</time>
      </trkpt>
      <trkpt lat="41.384427700" lon="1.629141700">
        <ele>276.40</ele>
        <time>2018-05-26T10:45:21Z</time>
      </trkpt>
      <trkpt lat="41.384420800" lon="1.629293000">
        <ele>275.60</ele>
        <time>2018-05-26T10:45:22Z</time>
      </trkpt>
      <trkpt lat="41.384413600" lon="1.629445900">
        <ele>274.80</ele>
        <time>2018-05-26T10:45:23Z</time>
      </trkpt>
      <trkpt lat="41.384404800" lon="1.629600800">
        <ele>274.40</ele>
        <time>2018-05-26T10:45:24Z</time>
      </trkpt>
      <trkpt lat="41.384394800" lon="1.629756600">
        <ele>273.80</ele>
        <time>2018-05-26T10:45:25Z</time>
      </trkpt>
      <trkpt lat="41.384376300" lon="1.630068500">
        <ele>272.60</ele>
        <time>2018-05-26T10:45:27Z</time>
      </trkpt>
      <trkpt lat="41.384364700" lon="1.630380300">
        <ele>271.20</ele>
        <time>2018-05-26T10:45:29Z</time>
      </trkpt>
      <trkpt lat="41.384353400" lon="1.630843900">
        <ele>269.20</ele>
        <time>2018-05-26T10:45:32Z</time>
      </trkpt>
      <trkpt lat="41.384345200" lon="1.631146300">
        <ele>267.60</ele>
        <time>2018-05-26T10:45:34Z</time>
      </trkpt>
      <trkpt lat="41.384315200" lon="1.631908200">
        <ele>266.00</ele>
        <time>2018-05-26T10:45:39Z</time>
      </trkpt>
      <trkpt lat="41.384309200" lon="1.632054000">
        <ele>265.60</ele>
        <time>2018-05-26T10:45:40Z</time>
      </trkpt>
      <trkpt lat="41.384299500" lon="1.632332300">
        <ele>264.60</ele>
        <time>2018-05-26T10:45:42Z</time>
      </trkpt>
      <trkpt lat="41.384291800" lon="1.632476000">
        <ele>263.20</ele>
        <time>2018-05-26T10:45:43Z</time>
      </trkpt>
      <trkpt lat="41.384249400" lon="1.632906600">
        <ele>261.60</ele>
        <time>2018-05-26T10:45:46Z</time>
      </trkpt>
      <trkpt lat="41.384214200" lon="1.633044900">
        <ele>261.00</ele>
        <time>2018-05-26T10:45:47Z</time>
      </trkpt>
      <trkpt lat="41.384173100" lon="1.633183700">
        <ele>260.40</ele>
        <time>2018-05-26T10:45:48Z</time>
      </trkpt>
      <trkpt lat="41.384071500" lon="1.633459900">
        <ele>259.60</ele>
        <time>2018-05-26T10:45:50Z</time>
      </trkpt>
      <trkpt lat="41.384011400" lon="1.633595200">
        <ele>258.60</ele>
        <time>2018-05-26T10:45:51Z</time>
      </trkpt>
      <trkpt lat="41.383873100" lon="1.633846500">
        <ele>257.20</ele>
        <time>2018-05-26T10:45:53Z</time>
      </trkpt>
      <trkpt lat="41.383796400" lon="1.633968900">
        <ele>257.00</ele>
        <time>2018-05-26T10:45:54Z</time>
      </trkpt>
      <trkpt lat="41.383482200" lon="1.634397500">
        <ele>256.20</ele>
        <time>2018-05-26T10:45:58Z</time>
      </trkpt>
      <trkpt lat="41.383411000" lon="1.634492200">
        <ele>256.20</ele>
        <time>2018-05-26T10:45:59Z</time>
      </trkpt>
      <trkpt lat="41.383268000" lon="1.634672400">
        <ele>256.60</ele>
        <time>2018-05-26T10:46:01Z</time>
      </trkpt>
      <trkpt lat="41.383129700" lon="1.634830200">
        <ele>257.20</ele>
        <time>2018-05-26T10:46:03Z</time>
      </trkpt>
      <trkpt lat="41.382996200" lon="1.634968700">
        <ele>258.00</ele>
        <time>2018-05-26T10:46:05Z</time>
      </trkpt>
      <trkpt lat="41.382811200" lon="1.635140800">
        <ele>259.40</ele>
        <time>2018-05-26T10:46:08Z</time>
      </trkpt>
      <trkpt lat="41.382705400" lon="1.635235200">
        <ele>260.00</ele>
        <time>2018-05-26T10:46:10Z</time>
      </trkpt>
      <trkpt lat="41.382630200" lon="1.635303900">
        <ele>260.40</ele>
        <time>2018-05-26T10:46:12Z</time>
      </trkpt>
      <trkpt lat="41.382527300" lon="1.635423400">
        <ele>261.20</ele>
        <time>2018-05-26T10:46:16Z</time>
      </trkpt>
      <trkpt lat="41.382598200" lon="1.635574000">
        <ele>260.80</ele>
        <time>2018-05-26T10:46:20Z</time>
      </trkpt>
      <trkpt lat="41.382743400" lon="1.635499700">
        <ele>261.20</ele>
        <time>2018-05-26T10:46:23Z</time>
      </trkpt>
      <trkpt lat="41.382918300" lon="1.635399500">
        <ele>262.80</ele>
        <time>2018-05-26T10:46:28Z</time>
      </trkpt>
      <trkpt lat="41.383004800" lon="1.635355300">
        <ele>263.80</ele>
        <time>2018-05-26T10:46:31Z</time>
      </trkpt>
      <trkpt lat="41.383094000" lon="1.635312800">
        <ele>264.60</ele>
        <time>2018-05-26T10:46:34Z</time>
      </trkpt>
      <trkpt lat="41.383211800" lon="1.635264600">
        <ele>265.60</ele>
        <time>2018-05-26T10:46:38Z</time>
      </trkpt>
      <trkpt lat="41.383310200" lon="1.635255000">
        <ele>266.40</ele>
        <time>2018-05-26T10:46:41Z</time>
      </trkpt>
      <trkpt lat="41.383437400" lon="1.635304100">
        <ele>267.40</ele>
        <time>2018-05-26T10:46:45Z</time>
      </trkpt>
      <trkpt lat="41.383561700" lon="1.635474800">
        <ele>268.60</ele>
        <time>2018-05-26T10:46:50Z</time>
      </trkpt>
      <trkpt lat="41.383632700" lon="1.635660900">
        <ele>269.20</ele>
        <time>2018-05-26T10:46:54Z</time>
      </trkpt>
      <trkpt lat="41.383659200" lon="1.635879000">
        <ele>270.00</ele>
        <time>2018-05-26T10:46:58Z</time>
      </trkpt>
      <trkpt lat="41.383673800" lon="1.636103800">
        <ele>270.40</ele>
        <time>2018-05-26T10:47:02Z</time>
      </trkpt>
      <trkpt lat="41.383699900" lon="1.636329600">
        <ele>270.80</ele>
        <time>2018-05-26T10:47:06Z</time>
      </trkpt>
      <trkpt lat="41.383733400" lon="1.636573900">
        <ele>271.60</ele>
        <time>2018-05-26T10:47:11Z</time>
      </trkpt>
      <trkpt lat="41.383815400" lon="1.636944900">
        <ele>272.20</ele>
        <time>2018-05-26T10:47:18Z</time>
      </trkpt>
      <trkpt lat="41.383896400" lon="1.637154300">
        <ele>272.40</ele>
        <time>2018-05-26T10:47:22Z</time>
      </trkpt>
      <trkpt lat="41.383986100" lon="1.637312000">
        <ele>272.20</ele>
        <time>2018-05-26T10:47:25Z</time>
      </trkpt>
      <trkpt lat="41.384088000" lon="1.637480200">
        <ele>272.00</ele>
        <time>2018-05-26T10:47:28Z</time>
      </trkpt>
      <trkpt lat="41.384155900" lon="1.637586300">
        <ele>271.80</ele>
        <time>2018-05-26T10:47:30Z</time>
      </trkpt>
      <trkpt lat="41.384335800" lon="1.637870300">
        <ele>271.40</ele>
        <time>2018-05-26T10:47:35Z</time>
      </trkpt>
      <trkpt lat="41.384457200" lon="1.638051500">
        <ele>271.60</ele>
        <time>2018-05-26T10:47:38Z</time>
      </trkpt>
      <trkpt lat="41.384574200" lon="1.638235600">
        <ele>271.20</ele>
        <time>2018-05-26T10:47:41Z</time>
      </trkpt>
      <trkpt lat="41.384653200" lon="1.638354800">
        <ele>271.00</ele>
        <time>2018-05-26T10:47:43Z</time>
      </trkpt>
      <trkpt lat="41.384723000" lon="1.638460700">
        <ele>271.00</ele>
        <time>2018-05-26T10:47:45Z</time>
      </trkpt>
      <trkpt lat="41.384791400" lon="1.638560700">
        <ele>270.80</ele>
        <time>2018-05-26T10:47:47Z</time>
      </trkpt>
      <trkpt lat="41.384855400" lon="1.638664100">
        <ele>270.60</ele>
        <time>2018-05-26T10:47:49Z</time>
      </trkpt>
      <trkpt lat="41.384915200" lon="1.638761800">
        <ele>270.60</ele>
        <time>2018-05-26T10:47:51Z</time>
      </trkpt>
      <trkpt lat="41.385039600" lon="1.638951800">
        <ele>270.40</ele>
        <time>2018-05-26T10:47:55Z</time>
      </trkpt>
      <trkpt lat="41.385107500" lon="1.639043900">
        <ele>270.40</ele>
        <time>2018-05-26T10:47:57Z</time>
      </trkpt>
      <trkpt lat="41.385270700" lon="1.639192600">
        <ele>270.20</ele>
        <time>2018-05-26T10:48:01Z</time>
      </trkpt>
      <trkpt lat="41.385370000" lon="1.639231300">
        <ele>270.00</ele>
        <time>2018-05-26T10:48:03Z</time>
      </trkpt>
      <trkpt lat="41.385468500" lon="1.639243900">
        <ele>270.00</ele>
        <time>2018-05-26T10:48:05Z</time>
      </trkpt>
      <trkpt lat="41.385606400" lon="1.639229200">
        <ele>270.40</ele>
        <time>2018-05-26T10:48:08Z</time>
      </trkpt>
      <trkpt lat="41.385784500" lon="1.639161300">
        <ele>270.40</ele>
        <time>2018-05-26T10:48:12Z</time>
      </trkpt>
      <trkpt lat="41.385867900" lon="1.639113400">
        <ele>271.00</ele>
        <time>2018-05-26T10:48:14Z</time>
      </trkpt>
      <trkpt lat="41.386023300" lon="1.639013000">
        <ele>272.00</ele>
        <time>2018-05-26T10:48:18Z</time>
      </trkpt>
      <trkpt lat="41.386178600" lon="1.638921800">
        <ele>273.00</ele>
        <time>2018-05-26T10:48:22Z</time>
      </trkpt>
      <trkpt lat="41.386282800" lon="1.638858600">
        <ele>273.80</ele>
        <time>2018-05-26T10:48:25Z</time>
      </trkpt>
      <trkpt lat="41.386535400" lon="1.638718800">
        <ele>275.20</ele>
        <time>2018-05-26T10:48:32Z</time>
      </trkpt>
      <trkpt lat="41.386778900" lon="1.638572600">
        <ele>276.40</ele>
        <time>2018-05-26T10:48:39Z</time>
      </trkpt>
      <trkpt lat="41.386886300" lon="1.638509300">
        <ele>276.80</ele>
        <time>2018-05-26T10:48:42Z</time>
      </trkpt>
      <trkpt lat="41.387104600" lon="1.638383800">
        <ele>277.60</ele>
        <time>2018-05-26T10:48:48Z</time>
      </trkpt>
      <trkpt lat="41.387206000" lon="1.638331000">
        <ele>278.00</ele>
        <time>2018-05-26T10:48:51Z</time>
      </trkpt>
      <trkpt lat="41.387342700" lon="1.638245900">
        <ele>278.80</ele>
        <time>2018-05-26T10:48:55Z</time>
      </trkpt>
      <trkpt lat="41.387485100" lon="1.638166300">
        <ele>279.80</ele>
        <time>2018-05-26T10:48:59Z</time>
      </trkpt>
      <trkpt lat="41.387760900" lon="1.638016800">
        <ele>280.80</ele>
        <time>2018-05-26T10:49:07Z</time>
      </trkpt>
      <trkpt lat="41.388026900" lon="1.637859200">
        <ele>282.00</ele>
        <time>2018-05-26T10:49:15Z</time>
      </trkpt>
      <trkpt lat="41.388235200" lon="1.637739000">
        <ele>283.00</ele>
        <time>2018-05-26T10:49:21Z</time>
      </trkpt>
      <trkpt lat="41.388484500" lon="1.637593300">
        <ele>284.20</ele>
        <time>2018-05-26T10:49:28Z</time>
      </trkpt>
      <trkpt lat="41.388692300" lon="1.637470000">
        <ele>285.40</ele>
        <time>2018-05-26T10:49:34Z</time>
      </trkpt>
      <trkpt lat="41.388877100" lon="1.637380800">
        <ele>286.20</ele>
        <time>2018-05-26T10:49:39Z</time>
      </trkpt>
      <trkpt lat="41.389205900" lon="1.637346600">
        <ele>287.20</ele>
        <time>2018-05-26T10:49:47Z</time>
      </trkpt>
      <trkpt lat="41.389334900" lon="1.637353700">
        <ele>287.40</ele>
        <time>2018-05-26T10:49:50Z</time>
      </trkpt>
      <trkpt lat="41.389548800" lon="1.637366400">
        <ele>288.40</ele>
        <time>2018-05-26T10:49:55Z</time>
      </trkpt>
      <trkpt lat="41.390031800" lon="1.637385300">
        <ele>289.40</ele>
        <time>2018-05-26T10:50:06Z</time>
      </trkpt>
      <trkpt lat="41.390213500" lon="1.637397400">
        <ele>289.60</ele>
        <time>2018-05-26T10:50:10Z</time>
      </trkpt>
      <trkpt lat="41.390390600" lon="1.637395700">
        <ele>290.20</ele>
        <time>2018-05-26T10:50:14Z</time>
      </trkpt>
      <trkpt lat="41.390802300" lon="1.637414100">
        <ele>290.00</ele>
        <time>2018-05-26T10:50:22Z</time>
      </trkpt>
      <trkpt lat="41.390976700" lon="1.637429500">
        <ele>289.80</ele>
        <time>2018-05-26T10:50:25Z</time>
      </trkpt>
      <trkpt lat="41.391152700" lon="1.637455900">
        <ele>289.60</ele>
        <time>2018-05-26T10:50:28Z</time>
      </trkpt>
      <trkpt lat="41.391340000" lon="1.637503100">
        <ele>289.00</ele>
        <time>2018-05-26T10:50:31Z</time>
      </trkpt>
      <trkpt lat="41.391685200" lon="1.637597000">
        <ele>287.40</ele>
        <time>2018-05-26T10:50:36Z</time>
      </trkpt>
      <trkpt lat="41.391830500" lon="1.637631500">
        <ele>286.20</ele>
        <time>2018-05-26T10:50:38Z</time>
      </trkpt>
      <trkpt lat="41.392047000" lon="1.637684200">
        <ele>285.00</ele>
        <time>2018-05-26T10:50:41Z</time>
      </trkpt>
      <trkpt lat="41.392348600" lon="1.637759000">
        <ele>284.20</ele>
        <time>2018-05-26T10:50:45Z</time>
      </trkpt>
      <trkpt lat="41.392503000" lon="1.637797100">
        <ele>284.20</ele>
        <time>2018-05-26T10:50:47Z</time>
      </trkpt>
      <trkpt lat="41.392655300" lon="1.637833700">
        <ele>284.00</ele>
        <time>2018-05-26T10:50:49Z</time>
      </trkpt>
      <trkpt lat="41.392891100" lon="1.637883300">
        <ele>284.40</ele>
        <time>2018-05-26T10:50:52Z</time>
      </trkpt>
      <trkpt lat="41.393047200" lon="1.637924600">
        <ele>283.80</ele>
        <time>2018-05-26T10:50:54Z</time>
      </trkpt>
      <trkpt lat="41.393199600" lon="1.637969000">
        <ele>284.40</ele>
        <time>2018-05-26T10:50:56Z</time>
      </trkpt>
      <trkpt lat="41.393351100" lon="1.638015300">
        <ele>285.00</ele>
        <time>2018-05-26T10:50:58Z</time>
      </trkpt>
      <trkpt lat="41.393557700" lon="1.638068800">
        <ele>285.40</ele>
        <time>2018-05-26T10:51:01Z</time>
      </trkpt>
      <trkpt lat="41.393678800" lon="1.638102400">
        <ele>285.80</ele>
        <time>2018-05-26T10:51:03Z</time>
      </trkpt>
      <trkpt lat="41.394100100" lon="1.638201500">
        <ele>286.80</ele>
        <time>2018-05-26T10:51:10Z</time>
      </trkpt>
      <trkpt lat="41.394406800" lon="1.638276800">
        <ele>286.60</ele>
        <time>2018-05-26T10:51:15Z</time>
      </trkpt>
      <trkpt lat="41.394525400" lon="1.638306300">
        <ele>287.60</ele>
        <time>2018-05-26T10:51:17Z</time>
      </trkpt>
      <trkpt lat="41.394646100" lon="1.638333700">
        <ele>288.20</ele>
        <time>2018-05-26T10:51:19Z</time>
      </trkpt>
      <trkpt lat="41.394762500" lon="1.638368800">
        <ele>288.80</ele>
        <time>2018-05-26T10:51:21Z</time>
      </trkpt>
      <trkpt lat="41.395056300" lon="1.638443100">
        <ele>289.20</ele>
        <time>2018-05-26T10:51:26Z</time>
      </trkpt>
      <trkpt lat="41.395588200" lon="1.638577900">
        <ele>289.80</ele>
        <time>2018-05-26T10:51:35Z</time>
      </trkpt>
      <trkpt lat="41.396042900" lon="1.638697500">
        <ele>290.40</ele>
        <time>2018-05-26T10:51:43Z</time>
      </trkpt>
      <trkpt lat="41.396154700" lon="1.638727500">
        <ele>291.00</ele>
        <time>2018-05-26T10:51:45Z</time>
      </trkpt>
      <trkpt lat="41.396325600" lon="1.638765800">
        <ele>292.00</ele>
        <time>2018-05-26T10:51:48Z</time>
      </trkpt>
      <trkpt lat="41.396665400" lon="1.638821900">
        <ele>292.60</ele>
        <time>2018-05-26T10:51:54Z</time>
      </trkpt>
      <trkpt lat="41.397059100" lon="1.638797500">
        <ele>293.00</ele>
        <time>2018-05-26T10:52:01Z</time>
      </trkpt>
      <trkpt lat="41.397502500" lon="1.638646100">
        <ele>294.00</ele>
        <time>2018-05-26T10:52:09Z</time>
      </trkpt>
      <trkpt lat="41.397879400" lon="1.638500900">
        <ele>295.40</ele>
        <time>2018-05-26T10:52:16Z</time>
      </trkpt>
      <trkpt lat="41.398489200" lon="1.638247000">
        <ele>295.80</ele>
        <time>2018-05-26T10:52:27Z</time>
      </trkpt>
      <trkpt lat="41.398873300" lon="1.638096000">
        <ele>296.60</ele>
        <time>2018-05-26T10:52:34Z</time>
      </trkpt>
      <trkpt lat="41.398984400" lon="1.638051400">
        <ele>296.80</ele>
        <time>2018-05-26T10:52:36Z</time>
      </trkpt>
      <trkpt lat="41.399497900" lon="1.637880300">
        <ele>297.60</ele>
        <time>2018-05-26T10:52:45Z</time>
      </trkpt>
      <trkpt lat="41.399675400" lon="1.637845600">
        <ele>299.00</ele>
        <time>2018-05-26T10:52:48Z</time>
      </trkpt>
      <trkpt lat="41.399916100" lon="1.637832800">
        <ele>299.40</ele>
        <time>2018-05-26T10:52:52Z</time>
      </trkpt>
      <trkpt lat="41.400192200" lon="1.637866200">
        <ele>300.00</ele>
        <time>2018-05-26T10:52:57Z</time>
      </trkpt>
      <trkpt lat="41.400301500" lon="1.637890900">
        <ele>300.00</ele>
        <time>2018-05-26T10:52:59Z</time>
      </trkpt>
      <trkpt lat="41.400874400" lon="1.638028800">
        <ele>300.80</ele>
        <time>2018-05-26T10:53:09Z</time>
      </trkpt>
      <trkpt lat="41.400990600" lon="1.638061300">
        <ele>301.20</ele>
        <time>2018-05-26T10:53:11Z</time>
      </trkpt>
      <trkpt lat="41.401347200" lon="1.638151900">
        <ele>302.20</ele>
        <time>2018-05-26T10:53:17Z</time>
      </trkpt>
      <trkpt lat="41.401814800" lon="1.638216100">
        <ele>303.40</ele>
        <time>2018-05-26T10:53:25Z</time>
      </trkpt>
      <trkpt lat="41.402270400" lon="1.638199600">
        <ele>303.40</ele>
        <time>2018-05-26T10:53:33Z</time>
      </trkpt>
      <trkpt lat="41.402504800" lon="1.638189700">
        <ele>304.40</ele>
        <time>2018-05-26T10:53:37Z</time>
      </trkpt>
      <trkpt lat="41.402790100" lon="1.638175000">
        <ele>305.00</ele>
        <time>2018-05-26T10:53:42Z</time>
      </trkpt>
      <trkpt lat="41.402905400" lon="1.638170200">
        <ele>305.40</ele>
        <time>2018-05-26T10:53:44Z</time>
      </trkpt>
      <trkpt lat="41.403292100" lon="1.638156900">
        <ele>306.40</ele>
        <time>2018-05-26T10:53:51Z</time>
      </trkpt>
      <trkpt lat="41.403855700" lon="1.638126300">
        <ele>307.60</ele>
        <time>2018-05-26T10:54:01Z</time>
      </trkpt>
      <trkpt lat="41.404259900" lon="1.638111600">
        <ele>308.80</ele>
        <time>2018-05-26T10:54:08Z</time>
      </trkpt>
      <trkpt lat="41.404436900" lon="1.638122500">
        <ele>309.40</ele>
        <time>2018-05-26T10:54:11Z</time>
      </trkpt>
      <trkpt lat="41.404553000" lon="1.638144300">
        <ele>309.80</ele>
        <time>2018-05-26T10:54:13Z</time>
      </trkpt>
      <trkpt lat="41.404792200" lon="1.638217800">
        <ele>309.40</ele>
        <time>2018-05-26T10:54:17Z</time>
      </trkpt>
      <trkpt lat="41.405133400" lon="1.638373100">
        <ele>310.20</ele>
        <time>2018-05-26T10:54:23Z</time>
      </trkpt>
      <trkpt lat="41.405342300" lon="1.638521800">
        <ele>311.00</ele>
        <time>2018-05-26T10:54:27Z</time>
      </trkpt>
      <trkpt lat="41.405593300" lon="1.638726000">
        <ele>312.00</ele>
        <time>2018-05-26T10:54:32Z</time>
      </trkpt>
      <trkpt lat="41.406044100" lon="1.639103800">
        <ele>313.00</ele>
        <time>2018-05-26T10:54:41Z</time>
      </trkpt>
      <trkpt lat="41.406535500" lon="1.639518000">
        <ele>314.20</ele>
        <time>2018-05-26T10:54:51Z</time>
      </trkpt>
      <trkpt lat="41.406948600" lon="1.639818600">
        <ele>313.20</ele>
        <time>2018-05-26T10:54:59Z</time>
      </trkpt>
      <trkpt lat="41.407347000" lon="1.640021600">
        <ele>314.60</ele>
        <time>2018-05-26T10:55:06Z</time>
      </trkpt>
      <trkpt lat="41.407527500" lon="1.640108800">
        <ele>315.40</ele>
        <time>2018-05-26T10:55:09Z</time>
      </trkpt>
      <trkpt lat="41.407876000" lon="1.640279600">
        <ele>315.20</ele>
        <time>2018-05-26T10:55:15Z</time>
      </trkpt>
      <trkpt lat="41.408196300" lon="1.640438700">
        <ele>316.60</ele>
        <time>2018-05-26T10:55:21Z</time>
      </trkpt>
      <trkpt lat="41.408301900" lon="1.640489500">
        <ele>316.80</ele>
        <time>2018-05-26T10:55:23Z</time>
      </trkpt>
      <trkpt lat="41.408517200" lon="1.640587600">
        <ele>317.60</ele>
        <time>2018-05-26T10:55:27Z</time>
      </trkpt>
      <trkpt lat="41.408774700" lon="1.640722100">
        <ele>317.60</ele>
        <time>2018-05-26T10:55:32Z</time>
      </trkpt>
      <trkpt lat="41.409029500" lon="1.640849800">
        <ele>318.60</ele>
        <time>2018-05-26T10:55:37Z</time>
      </trkpt>
      <trkpt lat="41.409234000" lon="1.640948300">
        <ele>318.80</ele>
        <time>2018-05-26T10:55:41Z</time>
      </trkpt>
      <trkpt lat="41.409542500" lon="1.641098500">
        <ele>319.60</ele>
        <time>2018-05-26T10:55:47Z</time>
      </trkpt>
      <trkpt lat="41.409700600" lon="1.641170700">
        <ele>319.80</ele>
        <time>2018-05-26T10:55:50Z</time>
      </trkpt>
      <trkpt lat="41.410136300" lon="1.641381400">
        <ele>320.80</ele>
        <time>2018-05-26T10:55:58Z</time>
      </trkpt>
      <trkpt lat="41.410527100" lon="1.641569800">
        <ele>319.60</ele>
        <time>2018-05-26T10:56:04Z</time>
      </trkpt>
      <trkpt lat="41.410754600" lon="1.641672200">
        <ele>318.40</ele>
        <time>2018-05-26T10:56:07Z</time>
      </trkpt>
      <trkpt lat="41.411000700" lon="1.641796700">
        <ele>316.00</ele>
        <time>2018-05-26T10:56:10Z</time>
      </trkpt>
      <trkpt lat="41.411088900" lon="1.641843300">
        <ele>315.40</ele>
        <time>2018-05-26T10:56:11Z</time>
      </trkpt>
      <trkpt lat="41.411177400" lon="1.641901700">
        <ele>314.80</ele>
        <time>2018-05-26T10:56:12Z</time>
      </trkpt>
      <trkpt lat="41.411265700" lon="1.641968100">
        <ele>313.80</ele>
        <time>2018-05-26T10:56:13Z</time>
      </trkpt>
      <trkpt lat="41.411439700" lon="1.642128600">
        <ele>312.20</ele>
        <time>2018-05-26T10:56:15Z</time>
      </trkpt>
      <trkpt lat="41.411682800" lon="1.642455600">
        <ele>311.20</ele>
        <time>2018-05-26T10:56:18Z</time>
      </trkpt>
      <trkpt lat="41.411757800" lon="1.642576600">
        <ele>310.40</ele>
        <time>2018-05-26T10:56:19Z</time>
      </trkpt>
      <trkpt lat="41.411831200" lon="1.642696700">
        <ele>309.60</ele>
        <time>2018-05-26T10:56:20Z</time>
      </trkpt>
      <trkpt lat="41.412158000" lon="1.643224300">
        <ele>310.40</ele>
        <time>2018-05-26T10:56:25Z</time>
      </trkpt>
      <trkpt lat="41.412359800" lon="1.643553700">
        <ele>312.20</ele>
        <time>2018-05-26T10:56:29Z</time>
      </trkpt>
      <trkpt lat="41.412500600" lon="1.643781800">
        <ele>313.60</ele>
        <time>2018-05-26T10:56:32Z</time>
      </trkpt>
      <trkpt lat="41.412676700" lon="1.644067400">
        <ele>314.80</ele>
        <time>2018-05-26T10:56:36Z</time>
      </trkpt>
      <trkpt lat="41.412759900" lon="1.644196200">
        <ele>315.40</ele>
        <time>2018-05-26T10:56:38Z</time>
      </trkpt>
      <trkpt lat="41.412840000" lon="1.644328100">
        <ele>315.80</ele>
        <time>2018-05-26T10:56:40Z</time>
      </trkpt>
      <trkpt lat="41.413128900" lon="1.644808500">
        <ele>316.00</ele>
        <time>2018-05-26T10:56:47Z</time>
      </trkpt>
      <trkpt lat="41.413218300" lon="1.644953300">
        <ele>317.60</ele>
        <time>2018-05-26T10:56:49Z</time>
      </trkpt>
      <trkpt lat="41.413355600" lon="1.645170600">
        <ele>317.80</ele>
        <time>2018-05-26T10:56:52Z</time>
      </trkpt>
      <trkpt lat="41.413449700" lon="1.645322900">
        <ele>318.80</ele>
        <time>2018-05-26T10:56:54Z</time>
      </trkpt>
      <trkpt lat="41.413547400" lon="1.645479900">
        <ele>320.40</ele>
        <time>2018-05-26T10:56:56Z</time>
      </trkpt>
      <trkpt lat="41.413749700" lon="1.645795300">
        <ele>321.20</ele>
        <time>2018-05-26T10:57:00Z</time>
      </trkpt>
      <trkpt lat="41.413845700" lon="1.645944300">
        <ele>321.60</ele>
        <time>2018-05-26T10:57:02Z</time>
      </trkpt>
      <trkpt lat="41.413944500" lon="1.646101300">
        <ele>321.60</ele>
        <time>2018-05-26T10:57:04Z</time>
      </trkpt>
      <trkpt lat="41.414155100" lon="1.646431300">
        <ele>320.00</ele>
        <time>2018-05-26T10:57:08Z</time>
      </trkpt>
      <trkpt lat="41.414266400" lon="1.646611600">
        <ele>318.60</ele>
        <time>2018-05-26T10:57:10Z</time>
      </trkpt>
      <trkpt lat="41.414380900" lon="1.646796800">
        <ele>317.00</ele>
        <time>2018-05-26T10:57:12Z</time>
      </trkpt>
      <trkpt lat="41.414500100" lon="1.646989800">
        <ele>315.60</ele>
        <time>2018-05-26T10:57:14Z</time>
      </trkpt>
      <trkpt lat="41.414740300" lon="1.647385900">
        <ele>315.20</ele>
        <time>2018-05-26T10:57:18Z</time>
      </trkpt>
      <trkpt lat="41.414917400" lon="1.647671000">
        <ele>315.20</ele>
        <time>2018-05-26T10:57:21Z</time>
      </trkpt>
      <trkpt lat="41.415128200" lon="1.648013800">
        <ele>316.40</ele>
        <time>2018-05-26T10:57:25Z</time>
      </trkpt>
      <trkpt lat="41.415192900" lon="1.648235400">
        <ele>316.80</ele>
        <time>2018-05-26T10:57:28Z</time>
      </trkpt>
      <trkpt lat="41.415168300" lon="1.648489300">
        <ele>316.20</ele>
        <time>2018-05-26T10:57:31Z</time>
      </trkpt>
      <trkpt lat="41.415135100" lon="1.648683200">
        <ele>315.80</ele>
        <time>2018-05-26T10:57:33Z</time>
      </trkpt>
      <trkpt lat="41.415084500" lon="1.649001500">
        <ele>314.60</ele>
        <time>2018-05-26T10:57:36Z</time>
      </trkpt>
      <trkpt lat="41.415052100" lon="1.649220200">
        <ele>313.40</ele>
        <time>2018-05-26T10:57:38Z</time>
      </trkpt>
      <trkpt lat="41.415018600" lon="1.649446600">
        <ele>312.20</ele>
        <time>2018-05-26T10:57:40Z</time>
      </trkpt>
      <trkpt lat="41.414951700" lon="1.649909700">
        <ele>310.20</ele>
        <time>2018-05-26T10:57:44Z</time>
      </trkpt>
      <trkpt lat="41.414921500" lon="1.650115400">
        <ele>309.40</ele>
        <time>2018-05-26T10:57:46Z</time>
      </trkpt>
      <trkpt lat="41.414881100" lon="1.650275500">
        <ele>309.00</ele>
        <time>2018-05-26T10:57:48Z</time>
      </trkpt>
      <trkpt lat="41.414814000" lon="1.650376300">
        <ele>309.00</ele>
        <time>2018-05-26T10:57:50Z</time>
      </trkpt>
      <trkpt lat="41.414727800" lon="1.650414800">
        <ele>308.80</ele>
        <time>2018-05-26T10:57:54Z</time>
      </trkpt>
      <trkpt lat="41.414663300" lon="1.650474600">
        <ele>308.60</ele>
        <time>2018-05-26T10:57:59Z</time>
      </trkpt>
      <trkpt lat="41.414768700" lon="1.650424700">
        <ele>309.00</ele>
        <time>2018-05-26T10:58:02Z</time>
      </trkpt>
      <trkpt lat="41.414908900" lon="1.650391600">
        <ele>308.80</ele>
        <time>2018-05-26T10:58:05Z</time>
      </trkpt>
      <trkpt lat="41.415011000" lon="1.650497700">
        <ele>307.80</ele>
        <time>2018-05-26T10:58:07Z</time>
      </trkpt>
      <trkpt lat="41.415115900" lon="1.650635900">
        <ele>307.20</ele>
        <time>2018-05-26T10:58:09Z</time>
      </trkpt>
      <trkpt lat="41.415289200" lon="1.650853300">
        <ele>305.60</ele>
        <time>2018-05-26T10:58:12Z</time>
      </trkpt>
      <trkpt lat="41.415438000" lon="1.650954800">
        <ele>304.80</ele>
        <time>2018-05-26T10:58:14Z</time>
      </trkpt>
      <trkpt lat="41.415760000" lon="1.651135900">
        <ele>303.00</ele>
        <time>2018-05-26T10:58:18Z</time>
      </trkpt>
      <trkpt lat="41.415907600" lon="1.651265500">
        <ele>302.00</ele>
        <time>2018-05-26T10:58:20Z</time>
      </trkpt>
      <trkpt lat="41.416069400" lon="1.651561800">
        <ele>302.00</ele>
        <time>2018-05-26T10:58:23Z</time>
      </trkpt>
      <trkpt lat="41.416158300" lon="1.651782300">
        <ele>301.60</ele>
        <time>2018-05-26T10:58:25Z</time>
      </trkpt>
      <trkpt lat="41.416204300" lon="1.651893200">
        <ele>301.00</ele>
        <time>2018-05-26T10:58:26Z</time>
      </trkpt>
      <trkpt lat="41.416293600" lon="1.652117400">
        <ele>299.60</ele>
        <time>2018-05-26T10:58:28Z</time>
      </trkpt>
      <trkpt lat="41.416333100" lon="1.652233400">
        <ele>299.00</ele>
        <time>2018-05-26T10:58:29Z</time>
      </trkpt>
      <trkpt lat="41.416371500" lon="1.652348400">
        <ele>298.40</ele>
        <time>2018-05-26T10:58:30Z</time>
      </trkpt>
      <trkpt lat="41.416438100" lon="1.652580700">
        <ele>297.80</ele>
        <time>2018-05-26T10:58:32Z</time>
      </trkpt>
      <trkpt lat="41.416465700" lon="1.652821000">
        <ele>298.20</ele>
        <time>2018-05-26T10:58:34Z</time>
      </trkpt>
      <trkpt lat="41.416494400" lon="1.653181500">
        <ele>297.40</ele>
        <time>2018-05-26T10:58:37Z</time>
      </trkpt>
      <trkpt lat="41.416540100" lon="1.653648100">
        <ele>297.00</ele>
        <time>2018-05-26T10:58:41Z</time>
      </trkpt>
      <trkpt lat="41.416629900" lon="1.654414700">
        <ele>297.20</ele>
        <time>2018-05-26T10:58:48Z</time>
      </trkpt>
      <trkpt lat="41.416712300" lon="1.655103600">
        <ele>298.20</ele>
        <time>2018-05-26T10:58:55Z</time>
      </trkpt>
      <trkpt lat="41.416872600" lon="1.655288100">
        <ele>298.40</ele>
        <time>2018-05-26T10:58:58Z</time>
      </trkpt>
      <trkpt lat="41.417021700" lon="1.655273900">
        <ele>298.60</ele>
        <time>2018-05-26T10:59:00Z</time>
      </trkpt>
      <trkpt lat="41.417168900" lon="1.655223500">
        <ele>298.20</ele>
        <time>2018-05-26T10:59:02Z</time>
      </trkpt>
      <trkpt lat="41.417398400" lon="1.655158800">
        <ele>297.40</ele>
        <time>2018-05-26T10:59:05Z</time>
      </trkpt>
      <trkpt lat="41.417607400" lon="1.655075100">
        <ele>296.40</ele>
        <time>2018-05-26T10:59:08Z</time>
      </trkpt>
      <trkpt lat="41.417716200" lon="1.654940700">
        <ele>295.60</ele>
        <time>2018-05-26T10:59:10Z</time>
      </trkpt>
      <trkpt lat="41.417814100" lon="1.654772300">
        <ele>295.00</ele>
        <time>2018-05-26T10:59:12Z</time>
      </trkpt>
      <trkpt lat="41.417916700" lon="1.654586500">
        <ele>294.20</ele>
        <time>2018-05-26T10:59:14Z</time>
      </trkpt>
      <trkpt lat="41.418001100" lon="1.654392600">
        <ele>293.60</ele>
        <time>2018-05-26T10:59:16Z</time>
      </trkpt>
      <trkpt lat="41.418028500" lon="1.654182200">
        <ele>292.80</ele>
        <time>2018-05-26T10:59:18Z</time>
      </trkpt>
      <trkpt lat="41.417993700" lon="1.653946100">
        <ele>292.00</ele>
        <time>2018-05-26T10:59:20Z</time>
      </trkpt>
      <trkpt lat="41.417999100" lon="1.653663300">
        <ele>290.00</ele>
        <time>2018-05-26T10:59:23Z</time>
      </trkpt>
      <trkpt lat="41.418124700" lon="1.653601100">
        <ele>288.80</ele>
        <time>2018-05-26T10:59:25Z</time>
      </trkpt>
      <trkpt lat="41.418223700" lon="1.653747100">
        <ele>287.60</ele>
        <time>2018-05-26T10:59:27Z</time>
      </trkpt>
      <trkpt lat="41.418206000" lon="1.654076900">
        <ele>286.40</ele>
        <time>2018-05-26T10:59:30Z</time>
      </trkpt>
      <trkpt lat="41.418197500" lon="1.654197300">
        <ele>285.80</ele>
        <time>2018-05-26T10:59:31Z</time>
      </trkpt>
      <trkpt lat="41.418201800" lon="1.654450600">
        <ele>285.20</ele>
        <time>2018-05-26T10:59:33Z</time>
      </trkpt>
      <trkpt lat="41.418256500" lon="1.654683400">
        <ele>284.60</ele>
        <time>2018-05-26T10:59:35Z</time>
      </trkpt>
      <trkpt lat="41.418442500" lon="1.654752400">
        <ele>283.20</ele>
        <time>2018-05-26T10:59:38Z</time>
      </trkpt>
      <trkpt lat="41.418625400" lon="1.654639500">
        <ele>283.40</ele>
        <time>2018-05-26T10:59:40Z</time>
      </trkpt>
      <trkpt lat="41.418850300" lon="1.654706900">
        <ele>283.60</ele>
        <time>2018-05-26T10:59:43Z</time>
      </trkpt>
      <trkpt lat="41.418991700" lon="1.654916900">
        <ele>283.60</ele>
        <time>2018-05-26T10:59:46Z</time>
      </trkpt>
      <trkpt lat="41.419045400" lon="1.655043700">
        <ele>284.00</ele>
        <time>2018-05-26T10:59:48Z</time>
      </trkpt>
      <trkpt lat="41.419041100" lon="1.655213200">
        <ele>284.60</ele>
        <time>2018-05-26T10:59:50Z</time>
      </trkpt>
      <trkpt lat="41.418949000" lon="1.655509700">
        <ele>285.60</ele>
        <time>2018-05-26T10:59:53Z</time>
      </trkpt>
      <trkpt lat="41.418891800" lon="1.655633000">
        <ele>286.00</ele>
        <time>2018-05-26T10:59:54Z</time>
      </trkpt>
      <trkpt lat="41.418828500" lon="1.655726500">
        <ele>286.40</ele>
        <time>2018-05-26T10:59:55Z</time>
      </trkpt>
      <trkpt lat="41.418706900" lon="1.655860800">
        <ele>287.60</ele>
        <time>2018-05-26T10:59:57Z</time>
      </trkpt>
      <trkpt lat="41.418609200" lon="1.655960900">
        <ele>288.60</ele>
        <time>2018-05-26T10:59:59Z</time>
      </trkpt>
      <trkpt lat="41.418536200" lon="1.656057000">
        <ele>289.60</ele>
        <time>2018-05-26T11:00:01Z</time>
      </trkpt>
      <trkpt lat="41.418446000" lon="1.656258200">
        <ele>290.40</ele>
        <time>2018-05-26T11:00:05Z</time>
      </trkpt>
      <trkpt lat="41.418403700" lon="1.656375800">
        <ele>290.60</ele>
        <time>2018-05-26T11:00:07Z</time>
      </trkpt>
      <trkpt lat="41.418368900" lon="1.656499200">
        <ele>291.20</ele>
        <time>2018-05-26T11:00:09Z</time>
      </trkpt>
      <trkpt lat="41.418306900" lon="1.656730300">
        <ele>292.20</ele>
        <time>2018-05-26T11:00:13Z</time>
      </trkpt>
      <trkpt lat="41.418153100" lon="1.657009600">
        <ele>293.40</ele>
        <time>2018-05-26T11:00:19Z</time>
      </trkpt>
      <trkpt lat="41.418073900" lon="1.657223100">
        <ele>294.40</ele>
        <time>2018-05-26T11:00:23Z</time>
      </trkpt>
      <trkpt lat="41.418068700" lon="1.657344200">
        <ele>294.80</ele>
        <time>2018-05-26T11:00:25Z</time>
      </trkpt>
      <trkpt lat="41.418082000" lon="1.657465700">
        <ele>295.20</ele>
        <time>2018-05-26T11:00:27Z</time>
      </trkpt>
      <trkpt lat="41.418110000" lon="1.657596700">
        <ele>295.60</ele>
        <time>2018-05-26T11:00:29Z</time>
      </trkpt>
      <trkpt lat="41.418235100" lon="1.657848500">
        <ele>296.60</ele>
        <time>2018-05-26T11:00:34Z</time>
      </trkpt>
      <trkpt lat="41.418311800" lon="1.657912500">
        <ele>297.20</ele>
        <time>2018-05-26T11:00:36Z</time>
      </trkpt>
      <trkpt lat="41.418407200" lon="1.657926800">
        <ele>297.80</ele>
        <time>2018-05-26T11:00:38Z</time>
      </trkpt>
      <trkpt lat="41.418630500" lon="1.657801600">
        <ele>298.40</ele>
        <time>2018-05-26T11:00:43Z</time>
      </trkpt>
      <trkpt lat="41.418713200" lon="1.657719300">
        <ele>298.60</ele>
        <time>2018-05-26T11:00:45Z</time>
      </trkpt>
      <trkpt lat="41.418963100" lon="1.657493600">
        <ele>299.40</ele>
        <time>2018-05-26T11:00:51Z</time>
      </trkpt>
      <trkpt lat="41.419212100" lon="1.657265500">
        <ele>300.60</ele>
        <time>2018-05-26T11:00:57Z</time>
      </trkpt>
      <trkpt lat="41.419296700" lon="1.657185000">
        <ele>301.00</ele>
        <time>2018-05-26T11:00:59Z</time>
      </trkpt>
      <trkpt lat="41.419419100" lon="1.657074700">
        <ele>301.60</ele>
        <time>2018-05-26T11:01:02Z</time>
      </trkpt>
      <trkpt lat="41.419683200" lon="1.656833500">
        <ele>302.60</ele>
        <time>2018-05-26T11:01:09Z</time>
      </trkpt>
      <trkpt lat="41.419808900" lon="1.656716500">
        <ele>303.60</ele>
        <time>2018-05-26T11:01:12Z</time>
      </trkpt>
      <trkpt lat="41.419926100" lon="1.656579000">
        <ele>303.80</ele>
        <time>2018-05-26T11:01:15Z</time>
      </trkpt>
      <trkpt lat="41.420205800" lon="1.656182200">
        <ele>304.60</ele>
        <time>2018-05-26T11:01:23Z</time>
      </trkpt>
      <trkpt lat="41.420380200" lon="1.655935200">
        <ele>305.20</ele>
        <time>2018-05-26T11:01:28Z</time>
      </trkpt>
      <trkpt lat="41.420485700" lon="1.655787600">
        <ele>305.60</ele>
        <time>2018-05-26T11:01:31Z</time>
      </trkpt>
      <trkpt lat="41.420552300" lon="1.655689700">
        <ele>305.80</ele>
        <time>2018-05-26T11:01:33Z</time>
      </trkpt>
      <trkpt lat="41.420685300" lon="1.655512000">
        <ele>306.60</ele>
        <time>2018-05-26T11:01:37Z</time>
      </trkpt>
      <trkpt lat="41.420830000" lon="1.655346500">
        <ele>307.40</ele>
        <time>2018-05-26T11:01:41Z</time>
      </trkpt>
      <trkpt lat="41.421018700" lon="1.655278200">
        <ele>307.20</ele>
        <time>2018-05-26T11:01:45Z</time>
      </trkpt>
      <trkpt lat="41.421205000" lon="1.655278100">
        <ele>307.20</ele>
        <time>2018-05-26T11:01:50Z</time>
      </trkpt>
      <trkpt lat="41.421563900" lon="1.655268000">
        <ele>306.60</ele>
        <time>2018-05-26T11:01:57Z</time>
      </trkpt>
      <trkpt lat="41.421893800" lon="1.655270900">
        <ele>305.60</ele>
        <time>2018-05-26T11:02:02Z</time>
      </trkpt>
      <trkpt lat="41.422039700" lon="1.655273300">
        <ele>305.20</ele>
        <time>2018-05-26T11:02:04Z</time>
      </trkpt>
      <trkpt lat="41.422342100" lon="1.655315500">
        <ele>304.40</ele>
        <time>2018-05-26T11:02:08Z</time>
      </trkpt>
      <trkpt lat="41.422497400" lon="1.655309300">
        <ele>304.20</ele>
        <time>2018-05-26T11:02:10Z</time>
      </trkpt>
      <trkpt lat="41.422705600" lon="1.655245500">
        <ele>304.00</ele>
        <time>2018-05-26T11:02:13Z</time>
      </trkpt>
      <trkpt lat="41.422845200" lon="1.655325300">
        <ele>303.60</ele>
        <time>2018-05-26T11:02:15Z</time>
      </trkpt>
      <trkpt lat="41.422923700" lon="1.655561900">
        <ele>303.00</ele>
        <time>2018-05-26T11:02:18Z</time>
      </trkpt>
      <trkpt lat="41.422886500" lon="1.655700100">
        <ele>303.80</ele>
        <time>2018-05-26T11:02:20Z</time>
      </trkpt>
      <trkpt lat="41.422816500" lon="1.655826800">
        <ele>304.00</ele>
        <time>2018-05-26T11:02:22Z</time>
      </trkpt>
      <trkpt lat="41.422582800" lon="1.656008400">
        <ele>304.20</ele>
        <time>2018-05-26T11:02:24Z</time>
      </trkpt>
      <trkpt lat="41.422467300" lon="1.656290500">
        <ele>304.40</ele>
        <time>2018-05-26T11:02:27Z</time>
      </trkpt>
      <trkpt lat="41.422435100" lon="1.656578700">
        <ele>305.00</ele>
        <time>2018-05-26T11:02:30Z</time>
      </trkpt>
      <trkpt lat="41.422430600" lon="1.656931400">
        <ele>306.60</ele>
        <time>2018-05-26T11:02:34Z</time>
      </trkpt>
      <trkpt lat="41.422459300" lon="1.657195600">
        <ele>307.40</ele>
        <time>2018-05-26T11:02:37Z</time>
      </trkpt>
      <trkpt lat="41.422500000" lon="1.657448800">
        <ele>307.80</ele>
        <time>2018-05-26T11:02:40Z</time>
      </trkpt>
      <trkpt lat="41.422508700" lon="1.657714600">
        <ele>308.80</ele>
        <time>2018-05-26T11:02:43Z</time>
      </trkpt>
      <trkpt lat="41.422414000" lon="1.657952600">
        <ele>310.00</ele>
        <time>2018-05-26T11:02:46Z</time>
      </trkpt>
      <trkpt lat="41.422295200" lon="1.658069100">
        <ele>311.00</ele>
        <time>2018-05-26T11:02:48Z</time>
      </trkpt>
      <trkpt lat="41.422063300" lon="1.658294400">
        <ele>312.20</ele>
        <time>2018-05-26T11:02:52Z</time>
      </trkpt>
      <trkpt lat="41.422018200" lon="1.658547400">
        <ele>313.40</ele>
        <time>2018-05-26T11:02:55Z</time>
      </trkpt>
      <trkpt lat="41.422112600" lon="1.658654400">
        <ele>314.80</ele>
        <time>2018-05-26T11:02:57Z</time>
      </trkpt>
      <trkpt lat="41.422308000" lon="1.658620700">
        <ele>315.60</ele>
        <time>2018-05-26T11:03:00Z</time>
      </trkpt>
      <trkpt lat="41.422443600" lon="1.658566200">
        <ele>316.40</ele>
        <time>2018-05-26T11:03:02Z</time>
      </trkpt>
      <trkpt lat="41.422651800" lon="1.658595900">
        <ele>317.40</ele>
        <time>2018-05-26T11:03:05Z</time>
      </trkpt>
      <trkpt lat="41.422826500" lon="1.658733900">
        <ele>318.00</ele>
        <time>2018-05-26T11:03:08Z</time>
      </trkpt>
      <trkpt lat="41.422890100" lon="1.658998300">
        <ele>318.20</ele>
        <time>2018-05-26T11:03:11Z</time>
      </trkpt>
      <trkpt lat="41.422936600" lon="1.659605200">
        <ele>317.40</ele>
        <time>2018-05-26T11:03:17Z</time>
      </trkpt>
      <trkpt lat="41.422989600" lon="1.659795600">
        <ele>316.80</ele>
        <time>2018-05-26T11:03:19Z</time>
      </trkpt>
      <trkpt lat="41.423099400" lon="1.659943300">
        <ele>315.40</ele>
        <time>2018-05-26T11:03:21Z</time>
      </trkpt>
      <trkpt lat="41.423419100" lon="1.660247000">
        <ele>315.40</ele>
        <time>2018-05-26T11:03:26Z</time>
      </trkpt>
      <trkpt lat="41.423634900" lon="1.660403400">
        <ele>314.20</ele>
        <time>2018-05-26T11:03:29Z</time>
      </trkpt>
      <trkpt lat="41.423776300" lon="1.660531900">
        <ele>313.20</ele>
        <time>2018-05-26T11:03:31Z</time>
      </trkpt>
      <trkpt lat="41.424002400" lon="1.660894200">
        <ele>312.20</ele>
        <time>2018-05-26T11:03:35Z</time>
      </trkpt>
      <trkpt lat="41.424060800" lon="1.660999000">
        <ele>311.40</ele>
        <time>2018-05-26T11:03:36Z</time>
      </trkpt>
      <trkpt lat="41.424195500" lon="1.661219300">
        <ele>309.40</ele>
        <time>2018-05-26T11:03:38Z</time>
      </trkpt>
      <trkpt lat="41.424273000" lon="1.661331800">
        <ele>307.80</ele>
        <time>2018-05-26T11:03:39Z</time>
      </trkpt>
      <trkpt lat="41.424355400" lon="1.661446500">
        <ele>305.40</ele>
        <time>2018-05-26T11:03:40Z</time>
      </trkpt>
      <trkpt lat="41.424440100" lon="1.661563900">
        <ele>303.80</ele>
        <time>2018-05-26T11:03:41Z</time>
      </trkpt>
      <trkpt lat="41.424527400" lon="1.661684100">
        <ele>302.60</ele>
        <time>2018-05-26T11:03:42Z</time>
      </trkpt>
      <trkpt lat="41.424698200" lon="1.661933700">
        <ele>299.40</ele>
        <time>2018-05-26T11:03:44Z</time>
      </trkpt>
      <trkpt lat="41.424782300" lon="1.662065500">
        <ele>296.00</ele>
        <time>2018-05-26T11:03:45Z</time>
      </trkpt>
      <trkpt lat="41.424954000" lon="1.662342000">
        <ele>293.20</ele>
        <time>2018-05-26T11:03:47Z</time>
      </trkpt>
      <trkpt lat="41.425040300" lon="1.662485300">
        <ele>292.00</ele>
        <time>2018-05-26T11:03:48Z</time>
      </trkpt>
      <trkpt lat="41.425130500" lon="1.662623900">
        <ele>291.80</ele>
        <time>2018-05-26T11:03:49Z</time>
      </trkpt>
      <trkpt lat="41.425397500" lon="1.662988500">
        <ele>292.60</ele>
        <time>2018-05-26T11:03:52Z</time>
      </trkpt>
      <trkpt lat="41.425491700" lon="1.663082500">
        <ele>293.20</ele>
        <time>2018-05-26T11:03:53Z</time>
      </trkpt>
      <trkpt lat="41.425690200" lon="1.663216700">
        <ele>294.40</ele>
        <time>2018-05-26T11:03:55Z</time>
      </trkpt>
      <trkpt lat="41.425780600" lon="1.663276500">
        <ele>294.80</ele>
        <time>2018-05-26T11:03:56Z</time>
      </trkpt>
      <trkpt lat="41.425918800" lon="1.663431500">
        <ele>296.20</ele>
        <time>2018-05-26T11:03:58Z</time>
      </trkpt>
      <trkpt lat="41.425964000" lon="1.663625000">
        <ele>299.00</ele>
        <time>2018-05-26T11:04:00Z</time>
      </trkpt>
      <trkpt lat="41.425939100" lon="1.663799200">
        <ele>301.60</ele>
        <time>2018-05-26T11:04:02Z</time>
      </trkpt>
      <trkpt lat="41.425899400" lon="1.663952700">
        <ele>302.80</ele>
        <time>2018-05-26T11:04:04Z</time>
      </trkpt>
      <trkpt lat="41.425850800" lon="1.664180500">
        <ele>304.00</ele>
        <time>2018-05-26T11:04:07Z</time>
      </trkpt>
      <trkpt lat="41.425803700" lon="1.664397400">
        <ele>304.60</ele>
        <time>2018-05-26T11:04:10Z</time>
      </trkpt>
      <trkpt lat="41.425784300" lon="1.664531600">
        <ele>305.20</ele>
        <time>2018-05-26T11:04:12Z</time>
      </trkpt>
      <trkpt lat="41.425771700" lon="1.664734400">
        <ele>306.80</ele>
        <time>2018-05-26T11:04:15Z</time>
      </trkpt>
      <trkpt lat="41.425780600" lon="1.664882000">
        <ele>308.00</ele>
        <time>2018-05-26T11:04:17Z</time>
      </trkpt>
      <trkpt lat="41.425810400" lon="1.665133000">
        <ele>307.80</ele>
        <time>2018-05-26T11:04:20Z</time>
      </trkpt>
      <trkpt lat="41.425880900" lon="1.665634600">
        <ele>306.80</ele>
        <time>2018-05-26T11:04:25Z</time>
      </trkpt>
      <trkpt lat="41.425929800" lon="1.665859400">
        <ele>305.40</ele>
        <time>2018-05-26T11:04:27Z</time>
      </trkpt>
      <trkpt lat="41.425996600" lon="1.666088500">
        <ele>304.20</ele>
        <time>2018-05-26T11:04:29Z</time>
      </trkpt>
      <trkpt lat="41.426035000" lon="1.666204500">
        <ele>303.80</ele>
        <time>2018-05-26T11:04:30Z</time>
      </trkpt>
      <trkpt lat="41.426074300" lon="1.666322800">
        <ele>303.20</ele>
        <time>2018-05-26T11:04:31Z</time>
      </trkpt>
      <trkpt lat="41.426148000" lon="1.666566000">
        <ele>301.20</ele>
        <time>2018-05-26T11:04:33Z</time>
      </trkpt>
      <trkpt lat="41.426243100" lon="1.666963600">
        <ele>300.60</ele>
        <time>2018-05-26T11:04:36Z</time>
      </trkpt>
      <trkpt lat="41.426281000" lon="1.667099300">
        <ele>299.40</ele>
        <time>2018-05-26T11:04:37Z</time>
      </trkpt>
      <trkpt lat="41.426327100" lon="1.667232000">
        <ele>298.20</ele>
        <time>2018-05-26T11:04:38Z</time>
      </trkpt>
      <trkpt lat="41.426379900" lon="1.667361900">
        <ele>297.20</ele>
        <time>2018-05-26T11:04:39Z</time>
      </trkpt>
      <trkpt lat="41.426438800" lon="1.667488800">
        <ele>297.00</ele>
        <time>2018-05-26T11:04:40Z</time>
      </trkpt>
      <trkpt lat="41.426780300" lon="1.668067400">
        <ele>296.60</ele>
        <time>2018-05-26T11:04:45Z</time>
      </trkpt>
      <trkpt lat="41.427062100" lon="1.668452900">
        <ele>296.60</ele>
        <time>2018-05-26T11:04:49Z</time>
      </trkpt>
      <trkpt lat="41.427191000" lon="1.668638000">
        <ele>296.20</ele>
        <time>2018-05-26T11:04:51Z</time>
      </trkpt>
      <trkpt lat="41.427245800" lon="1.668735800">
        <ele>296.20</ele>
        <time>2018-05-26T11:04:52Z</time>
      </trkpt>
      <trkpt lat="41.427322700" lon="1.668949300">
        <ele>296.00</ele>
        <time>2018-05-26T11:04:54Z</time>
      </trkpt>
      <trkpt lat="41.427359700" lon="1.669170900">
        <ele>296.00</ele>
        <time>2018-05-26T11:04:56Z</time>
      </trkpt>
      <trkpt lat="41.427407900" lon="1.669373100">
        <ele>296.20</ele>
        <time>2018-05-26T11:04:58Z</time>
      </trkpt>
      <trkpt lat="41.427533100" lon="1.669669300">
        <ele>295.00</ele>
        <time>2018-05-26T11:05:01Z</time>
      </trkpt>
      <trkpt lat="41.427586400" lon="1.669775500">
        <ele>294.40</ele>
        <time>2018-05-26T11:05:02Z</time>
      </trkpt>
      <trkpt lat="41.427643600" lon="1.669886200">
        <ele>293.60</ele>
        <time>2018-05-26T11:05:03Z</time>
      </trkpt>
      <trkpt lat="41.427769200" lon="1.670120200">
        <ele>292.00</ele>
        <time>2018-05-26T11:05:05Z</time>
      </trkpt>
      <trkpt lat="41.427909100" lon="1.670357600">
        <ele>290.40</ele>
        <time>2018-05-26T11:05:07Z</time>
      </trkpt>
      <trkpt lat="41.428161800" lon="1.670823500">
        <ele>290.00</ele>
        <time>2018-05-26T11:05:11Z</time>
      </trkpt>
      <trkpt lat="41.428354200" lon="1.671243100">
        <ele>290.80</ele>
        <time>2018-05-26T11:05:15Z</time>
      </trkpt>
      <trkpt lat="41.428383600" lon="1.671357400">
        <ele>291.00</ele>
        <time>2018-05-26T11:05:16Z</time>
      </trkpt>
      <trkpt lat="41.428455200" lon="1.671690000">
        <ele>291.60</ele>
        <time>2018-05-26T11:05:19Z</time>
      </trkpt>
      <trkpt lat="41.428491900" lon="1.671910900">
        <ele>291.80</ele>
        <time>2018-05-26T11:05:21Z</time>
      </trkpt>
      <trkpt lat="41.428514300" lon="1.672132500">
        <ele>292.40</ele>
        <time>2018-05-26T11:05:23Z</time>
      </trkpt>
      <trkpt lat="41.428546100" lon="1.672457800">
        <ele>292.80</ele>
        <time>2018-05-26T11:05:26Z</time>
      </trkpt>
      <trkpt lat="41.428588700" lon="1.672661400">
        <ele>293.60</ele>
        <time>2018-05-26T11:05:28Z</time>
      </trkpt>
      <trkpt lat="41.428662400" lon="1.672854700">
        <ele>294.40</ele>
        <time>2018-05-26T11:05:30Z</time>
      </trkpt>
      <trkpt lat="41.428874600" lon="1.673300100">
        <ele>295.00</ele>
        <time>2018-05-26T11:05:35Z</time>
      </trkpt>
      <trkpt lat="41.429007800" lon="1.673524500">
        <ele>295.40</ele>
        <time>2018-05-26T11:05:38Z</time>
      </trkpt>
      <trkpt lat="41.429179800" lon="1.673745100">
        <ele>294.60</ele>
        <time>2018-05-26T11:05:41Z</time>
      </trkpt>
      <trkpt lat="41.429241500" lon="1.673840600">
        <ele>293.20</ele>
        <time>2018-05-26T11:05:42Z</time>
      </trkpt>
      <trkpt lat="41.429297100" lon="1.673953200">
        <ele>291.80</ele>
        <time>2018-05-26T11:05:43Z</time>
      </trkpt>
      <trkpt lat="41.429336200" lon="1.674080600">
        <ele>290.60</ele>
        <time>2018-05-26T11:05:44Z</time>
      </trkpt>
      <trkpt lat="41.429364200" lon="1.674212700">
        <ele>289.20</ele>
        <time>2018-05-26T11:05:45Z</time>
      </trkpt>
      <trkpt lat="41.429452800" lon="1.674560900">
        <ele>288.80</ele>
        <time>2018-05-26T11:05:48Z</time>
      </trkpt>
      <trkpt lat="41.429522900" lon="1.674716800">
        <ele>291.20</ele>
        <time>2018-05-26T11:05:50Z</time>
      </trkpt>
      <trkpt lat="41.429582200" lon="1.674851800">
        <ele>292.60</ele>
        <time>2018-05-26T11:05:52Z</time>
      </trkpt>
      <trkpt lat="41.429633900" lon="1.675111700">
        <ele>293.00</ele>
        <time>2018-05-26T11:05:55Z</time>
      </trkpt>
      <trkpt lat="41.429677400" lon="1.675516200">
        <ele>293.40</ele>
        <time>2018-05-26T11:05:59Z</time>
      </trkpt>
      <trkpt lat="41.429724200" lon="1.675704100">
        <ele>293.40</ele>
        <time>2018-05-26T11:06:01Z</time>
      </trkpt>
      <trkpt lat="41.429890500" lon="1.676127300">
        <ele>293.80</ele>
        <time>2018-05-26T11:06:06Z</time>
      </trkpt>
      <trkpt lat="41.429985100" lon="1.676331700">
        <ele>295.20</ele>
        <time>2018-05-26T11:06:09Z</time>
      </trkpt>
      <trkpt lat="41.430071800" lon="1.676514000">
        <ele>296.60</ele>
        <time>2018-05-26T11:06:12Z</time>
      </trkpt>
      <trkpt lat="41.430214800" lon="1.676803800">
        <ele>298.00</ele>
        <time>2018-05-26T11:06:17Z</time>
      </trkpt>
      <trkpt lat="41.430286200" lon="1.676954400">
        <ele>299.20</ele>
        <time>2018-05-26T11:06:20Z</time>
      </trkpt>
      <trkpt lat="41.430346700" lon="1.677093200">
        <ele>300.20</ele>
        <time>2018-05-26T11:06:23Z</time>
      </trkpt>
      <trkpt lat="41.430269100" lon="1.677232700">
        <ele>301.40</ele>
        <time>2018-05-26T11:06:27Z</time>
      </trkpt>
      <trkpt lat="41.430121600" lon="1.677337600">
        <ele>300.80</ele>
        <time>2018-05-26T11:06:30Z</time>
      </trkpt>
      <trkpt lat="41.430044500" lon="1.677491900">
        <ele>299.00</ele>
        <time>2018-05-26T11:06:33Z</time>
      </trkpt>
      <trkpt lat="41.430130800" lon="1.677715000">
        <ele>297.60</ele>
        <time>2018-05-26T11:06:36Z</time>
      </trkpt>
      <trkpt lat="41.430220800" lon="1.677880000">
        <ele>296.20</ele>
        <time>2018-05-26T11:06:38Z</time>
      </trkpt>
      <trkpt lat="41.430303600" lon="1.678054700">
        <ele>294.60</ele>
        <time>2018-05-26T11:06:40Z</time>
      </trkpt>
      <trkpt lat="41.430375200" lon="1.678234900">
        <ele>294.00</ele>
        <time>2018-05-26T11:06:42Z</time>
      </trkpt>
      <trkpt lat="41.430443400" lon="1.678419900">
        <ele>293.80</ele>
        <time>2018-05-26T11:06:44Z</time>
      </trkpt>
      <trkpt lat="41.430577700" lon="1.678816700">
        <ele>292.00</ele>
        <time>2018-05-26T11:06:48Z</time>
      </trkpt>
      <trkpt lat="41.430688100" lon="1.679110200">
        <ele>290.60</ele>
        <time>2018-05-26T11:06:51Z</time>
      </trkpt>
      <trkpt lat="41.430761100" lon="1.679289600">
        <ele>289.20</ele>
        <time>2018-05-26T11:06:53Z</time>
      </trkpt>
      <trkpt lat="41.430784400" lon="1.679554200">
        <ele>288.20</ele>
        <time>2018-05-26T11:06:56Z</time>
      </trkpt>
      <trkpt lat="41.430641600" lon="1.679751300">
        <ele>287.40</ele>
        <time>2018-05-26T11:06:59Z</time>
      </trkpt>
      <trkpt lat="41.430616700" lon="1.679888500">
        <ele>287.60</ele>
        <time>2018-05-26T11:07:01Z</time>
      </trkpt>
      <trkpt lat="41.430707400" lon="1.679977100">
        <ele>287.40</ele>
        <time>2018-05-26T11:07:03Z</time>
      </trkpt>
      <trkpt lat="41.430895900" lon="1.680064400">
        <ele>286.60</ele>
        <time>2018-05-26T11:07:06Z</time>
      </trkpt>
      <trkpt lat="41.431032400" lon="1.680151400">
        <ele>286.00</ele>
        <time>2018-05-26T11:07:08Z</time>
      </trkpt>
      <trkpt lat="41.431252800" lon="1.680303400">
        <ele>284.80</ele>
        <time>2018-05-26T11:07:11Z</time>
      </trkpt>
      <trkpt lat="41.431410300" lon="1.680378400">
        <ele>284.00</ele>
        <time>2018-05-26T11:07:13Z</time>
      </trkpt>
      <trkpt lat="41.431659800" lon="1.680456600">
        <ele>283.40</ele>
        <time>2018-05-26T11:07:16Z</time>
      </trkpt>
      <trkpt lat="41.431832800" lon="1.680495300">
        <ele>283.20</ele>
        <time>2018-05-26T11:07:18Z</time>
      </trkpt>
      <trkpt lat="41.432002300" lon="1.680509600">
        <ele>282.80</ele>
        <time>2018-05-26T11:07:20Z</time>
      </trkpt>
      <trkpt lat="41.432162300" lon="1.680471600">
        <ele>283.80</ele>
        <time>2018-05-26T11:07:22Z</time>
      </trkpt>
      <trkpt lat="41.432309000" lon="1.680398500">
        <ele>284.20</ele>
        <time>2018-05-26T11:07:24Z</time>
      </trkpt>
      <trkpt lat="41.432527000" lon="1.680305700">
        <ele>284.20</ele>
        <time>2018-05-26T11:07:27Z</time>
      </trkpt>
      <trkpt lat="41.432682300" lon="1.680277100">
        <ele>283.80</ele>
        <time>2018-05-26T11:07:29Z</time>
      </trkpt>
      <trkpt lat="41.432809900" lon="1.680281500">
        <ele>284.00</ele>
        <time>2018-05-26T11:07:31Z</time>
      </trkpt>
      <trkpt lat="41.432907200" lon="1.680321100">
        <ele>284.20</ele>
        <time>2018-05-26T11:07:39Z</time>
      </trkpt>
      <trkpt lat="41.432769400" lon="1.680300000">
        <ele>284.20</ele>
        <time>2018-05-26T11:07:46Z</time>
      </trkpt>
      <trkpt lat="41.432811400" lon="1.680446900">
        <ele>284.20</ele>
        <time>2018-05-26T11:07:52Z</time>
      </trkpt>
      <trkpt lat="41.432986400" lon="1.680506700">
        <ele>285.60</ele>
        <time>2018-05-26T11:07:57Z</time>
      </trkpt>
      <trkpt lat="41.433104600" lon="1.680547300">
        <ele>286.60</ele>
        <time>2018-05-26T11:08:00Z</time>
      </trkpt>
      <trkpt lat="41.433231600" lon="1.680612700">
        <ele>287.40</ele>
        <time>2018-05-26T11:08:03Z</time>
      </trkpt>
      <trkpt lat="41.433316600" lon="1.680653100">
        <ele>288.00</ele>
        <time>2018-05-26T11:08:05Z</time>
      </trkpt>
      <trkpt lat="41.433473000" lon="1.680733900">
        <ele>290.00</ele>
        <time>2018-05-26T11:08:09Z</time>
      </trkpt>
      <trkpt lat="41.433634400" lon="1.680820700">
        <ele>291.40</ele>
        <time>2018-05-26T11:08:13Z</time>
      </trkpt>
      <trkpt lat="41.433722400" lon="1.680876000">
        <ele>292.20</ele>
        <time>2018-05-26T11:08:15Z</time>
      </trkpt>
      <trkpt lat="41.433818900" lon="1.680924000">
        <ele>292.40</ele>
        <time>2018-05-26T11:08:17Z</time>
      </trkpt>
      <trkpt lat="41.433913400" lon="1.680968400">
        <ele>292.20</ele>
        <time>2018-05-26T11:08:19Z</time>
      </trkpt>
      <trkpt lat="41.434009200" lon="1.681012300">
        <ele>292.20</ele>
        <time>2018-05-26T11:08:21Z</time>
      </trkpt>
      <trkpt lat="41.434272000" lon="1.681132500">
        <ele>291.00</ele>
        <time>2018-05-26T11:08:26Z</time>
      </trkpt>
      <trkpt lat="41.434386700" lon="1.681189200">
        <ele>290.40</ele>
        <time>2018-05-26T11:08:28Z</time>
      </trkpt>
      <trkpt lat="41.434626000" lon="1.681306900">
        <ele>289.80</ele>
        <time>2018-05-26T11:08:32Z</time>
      </trkpt>
      <trkpt lat="41.434806900" lon="1.681410500">
        <ele>289.60</ele>
        <time>2018-05-26T11:08:35Z</time>
      </trkpt>
      <trkpt lat="41.435068800" lon="1.681573300">
        <ele>289.00</ele>
        <time>2018-05-26T11:08:39Z</time>
      </trkpt>
      <trkpt lat="41.435265500" lon="1.681721400">
        <ele>288.80</ele>
        <time>2018-05-26T11:08:42Z</time>
      </trkpt>
      <trkpt lat="41.435387600" lon="1.681820900">
        <ele>289.00</ele>
        <time>2018-05-26T11:08:44Z</time>
      </trkpt>
      <trkpt lat="41.435560500" lon="1.681970800">
        <ele>289.60</ele>
        <time>2018-05-26T11:08:47Z</time>
      </trkpt>
      <trkpt lat="41.435727000" lon="1.682111200">
        <ele>289.80</ele>
        <time>2018-05-26T11:08:50Z</time>
      </trkpt>
      <trkpt lat="41.435881100" lon="1.682242100">
        <ele>290.20</ele>
        <time>2018-05-26T11:08:53Z</time>
      </trkpt>
      <trkpt lat="41.436028200" lon="1.682385200">
        <ele>290.80</ele>
        <time>2018-05-26T11:08:56Z</time>
      </trkpt>
      <trkpt lat="41.436167200" lon="1.682551100">
        <ele>291.20</ele>
        <time>2018-05-26T11:08:59Z</time>
      </trkpt>
      <trkpt lat="41.436246900" lon="1.682685900">
        <ele>290.80</ele>
        <time>2018-05-26T11:09:01Z</time>
      </trkpt>
      <trkpt lat="41.436350500" lon="1.682908600">
        <ele>291.20</ele>
        <time>2018-05-26T11:09:04Z</time>
      </trkpt>
      <trkpt lat="41.436652500" lon="1.683585500">
        <ele>290.80</ele>
        <time>2018-05-26T11:09:13Z</time>
      </trkpt>
      <trkpt lat="41.436753000" lon="1.683808300">
        <ele>291.00</ele>
        <time>2018-05-26T11:09:16Z</time>
      </trkpt>
      <trkpt lat="41.436888300" lon="1.684086500">
        <ele>291.20</ele>
        <time>2018-05-26T11:09:20Z</time>
      </trkpt>
      <trkpt lat="41.436952200" lon="1.684215400">
        <ele>291.60</ele>
        <time>2018-05-26T11:09:22Z</time>
      </trkpt>
      <trkpt lat="41.437061900" lon="1.684391300">
        <ele>292.00</ele>
        <time>2018-05-26T11:09:25Z</time>
      </trkpt>
      <trkpt lat="41.437160800" lon="1.684470700">
        <ele>292.00</ele>
        <time>2018-05-26T11:09:27Z</time>
      </trkpt>
      <trkpt lat="41.437387100" lon="1.684527400">
        <ele>292.40</ele>
        <time>2018-05-26T11:09:31Z</time>
      </trkpt>
      <trkpt lat="41.437507300" lon="1.684524900">
        <ele>292.60</ele>
        <time>2018-05-26T11:09:33Z</time>
      </trkpt>
      <trkpt lat="41.437749200" lon="1.684506100">
        <ele>292.60</ele>
        <time>2018-05-26T11:09:37Z</time>
      </trkpt>
      <trkpt lat="41.438222300" lon="1.684472600">
        <ele>292.80</ele>
        <time>2018-05-26T11:09:45Z</time>
      </trkpt>
      <trkpt lat="41.438774400" lon="1.684447300">
        <ele>294.20</ele>
        <time>2018-05-26T11:09:54Z</time>
      </trkpt>
      <trkpt lat="41.438960900" lon="1.684437100">
        <ele>294.60</ele>
        <time>2018-05-26T11:09:57Z</time>
      </trkpt>
      <trkpt lat="41.439267300" lon="1.684439900">
        <ele>295.00</ele>
        <time>2018-05-26T11:10:02Z</time>
      </trkpt>
      <trkpt lat="41.439430700" lon="1.684502400">
        <ele>295.40</ele>
        <time>2018-05-26T11:10:05Z</time>
      </trkpt>
      <trkpt lat="41.439651700" lon="1.684598700">
        <ele>296.00</ele>
        <time>2018-05-26T11:10:09Z</time>
      </trkpt>
      <trkpt lat="41.439763400" lon="1.684641000">
        <ele>296.40</ele>
        <time>2018-05-26T11:10:11Z</time>
      </trkpt>
      <trkpt lat="41.440161200" lon="1.684786800">
        <ele>296.20</ele>
        <time>2018-05-26T11:10:18Z</time>
      </trkpt>
      <trkpt lat="41.440377900" lon="1.684887400">
        <ele>296.40</ele>
        <time>2018-05-26T11:10:22Z</time>
      </trkpt>
      <trkpt lat="41.440478000" lon="1.684939200">
        <ele>297.40</ele>
        <time>2018-05-26T11:10:24Z</time>
      </trkpt>
      <trkpt lat="41.440644400" lon="1.685039700">
        <ele>298.80</ele>
        <time>2018-05-26T11:10:28Z</time>
      </trkpt>
      <trkpt lat="41.440792000" lon="1.685140300">
        <ele>300.80</ele>
        <time>2018-05-26T11:10:32Z</time>
      </trkpt>
      <trkpt lat="41.440903800" lon="1.685206000">
        <ele>302.80</ele>
        <time>2018-05-26T11:10:35Z</time>
      </trkpt>
      <trkpt lat="41.441014400" lon="1.685262700">
        <ele>304.40</ele>
        <time>2018-05-26T11:10:38Z</time>
      </trkpt>
      <trkpt lat="41.441126400" lon="1.685302300">
        <ele>305.60</ele>
        <time>2018-05-26T11:10:41Z</time>
      </trkpt>
      <trkpt lat="41.441345300" lon="1.685330900">
        <ele>304.40</ele>
        <time>2018-05-26T11:10:45Z</time>
      </trkpt>
      <trkpt lat="41.441499600" lon="1.685340700">
        <ele>302.80</ele>
        <time>2018-05-26T11:10:47Z</time>
      </trkpt>
      <trkpt lat="41.441684300" lon="1.685349500">
        <ele>300.40</ele>
        <time>2018-05-26T11:10:49Z</time>
      </trkpt>
      <trkpt lat="41.441779400" lon="1.685359100">
        <ele>299.40</ele>
        <time>2018-05-26T11:10:50Z</time>
      </trkpt>
      <trkpt lat="41.441869400" lon="1.685384900">
        <ele>298.80</ele>
        <time>2018-05-26T11:10:51Z</time>
      </trkpt>
      <trkpt lat="41.442021500" lon="1.685471500">
        <ele>298.40</ele>
        <time>2018-05-26T11:10:53Z</time>
      </trkpt>
      <trkpt lat="41.442236000" lon="1.685518400">
        <ele>298.00</ele>
        <time>2018-05-26T11:10:56Z</time>
      </trkpt>
      <trkpt lat="41.442451400" lon="1.685403000">
        <ele>297.20</ele>
        <time>2018-05-26T11:10:59Z</time>
      </trkpt>
      <trkpt lat="41.442748400" lon="1.685245000">
        <ele>297.40</ele>
        <time>2018-05-26T11:11:03Z</time>
      </trkpt>
      <trkpt lat="41.443058200" lon="1.685075600">
        <ele>296.80</ele>
        <time>2018-05-26T11:11:07Z</time>
      </trkpt>
      <trkpt lat="41.443285700" lon="1.684950000">
        <ele>296.40</ele>
        <time>2018-05-26T11:11:10Z</time>
      </trkpt>
      <trkpt lat="41.443429900" lon="1.684854800">
        <ele>296.20</ele>
        <time>2018-05-26T11:11:12Z</time>
      </trkpt>
      <trkpt lat="41.443564200" lon="1.684751100">
        <ele>296.00</ele>
        <time>2018-05-26T11:11:14Z</time>
      </trkpt>
      <trkpt lat="41.443849800" lon="1.684583400">
        <ele>296.20</ele>
        <time>2018-05-26T11:11:18Z</time>
      </trkpt>
      <trkpt lat="41.443999900" lon="1.684499600">
        <ele>296.00</ele>
        <time>2018-05-26T11:11:20Z</time>
      </trkpt>
      <trkpt lat="41.444305300" lon="1.684329800">
        <ele>295.20</ele>
        <time>2018-05-26T11:11:24Z</time>
      </trkpt>
      <trkpt lat="41.444457000" lon="1.684242900">
        <ele>294.60</ele>
        <time>2018-05-26T11:11:26Z</time>
      </trkpt>
      <trkpt lat="41.444687500" lon="1.684110200">
        <ele>294.40</ele>
        <time>2018-05-26T11:11:29Z</time>
      </trkpt>
      <trkpt lat="41.444997200" lon="1.683940000">
        <ele>293.80</ele>
        <time>2018-05-26T11:11:33Z</time>
      </trkpt>
      <trkpt lat="41.445230300" lon="1.683809900">
        <ele>293.20</ele>
        <time>2018-05-26T11:11:36Z</time>
      </trkpt>
      <trkpt lat="41.445388800" lon="1.683714900">
        <ele>292.80</ele>
        <time>2018-05-26T11:11:38Z</time>
      </trkpt>
      <trkpt lat="41.445556100" lon="1.683616700">
        <ele>291.60</ele>
        <time>2018-05-26T11:11:40Z</time>
      </trkpt>
      <trkpt lat="41.445724800" lon="1.683518800">
        <ele>290.20</ele>
        <time>2018-05-26T11:11:42Z</time>
      </trkpt>
      <trkpt lat="41.445979500" lon="1.683373400">
        <ele>289.80</ele>
        <time>2018-05-26T11:11:45Z</time>
      </trkpt>
      <trkpt lat="41.446234700" lon="1.683239600">
        <ele>289.80</ele>
        <time>2018-05-26T11:11:48Z</time>
      </trkpt>
      <trkpt lat="41.446397200" lon="1.683147200">
        <ele>289.60</ele>
        <time>2018-05-26T11:11:50Z</time>
      </trkpt>
      <trkpt lat="41.446650700" lon="1.683029400">
        <ele>289.20</ele>
        <time>2018-05-26T11:11:53Z</time>
      </trkpt>
      <trkpt lat="41.446985900" lon="1.682908500">
        <ele>289.20</ele>
        <time>2018-05-26T11:11:57Z</time>
      </trkpt>
      <trkpt lat="41.447467600" lon="1.682850000">
        <ele>289.60</ele>
        <time>2018-05-26T11:12:03Z</time>
      </trkpt>
      <trkpt lat="41.447690200" lon="1.682863500">
        <ele>289.80</ele>
        <time>2018-05-26T11:12:06Z</time>
      </trkpt>
      <trkpt lat="41.447834800" lon="1.682889200">
        <ele>290.20</ele>
        <time>2018-05-26T11:12:08Z</time>
      </trkpt>
      <trkpt lat="41.447964600" lon="1.682929100">
        <ele>290.00</ele>
        <time>2018-05-26T11:12:10Z</time>
      </trkpt>
      <trkpt lat="41.448323000" lon="1.683046500">
        <ele>290.80</ele>
        <time>2018-05-26T11:12:16Z</time>
      </trkpt>
      <trkpt lat="41.448520900" lon="1.683154200">
        <ele>289.80</ele>
        <time>2018-05-26T11:12:19Z</time>
      </trkpt>
      <trkpt lat="41.448710800" lon="1.683283700">
        <ele>290.20</ele>
        <time>2018-05-26T11:12:22Z</time>
      </trkpt>
      <trkpt lat="41.449110300" lon="1.683613600">
        <ele>290.80</ele>
        <time>2018-05-26T11:12:29Z</time>
      </trkpt>
      <trkpt lat="41.449484100" lon="1.683958000">
        <ele>291.20</ele>
        <time>2018-05-26T11:12:36Z</time>
      </trkpt>
      <trkpt lat="41.449707400" lon="1.684199600">
        <ele>292.20</ele>
        <time>2018-05-26T11:12:41Z</time>
      </trkpt>
      <trkpt lat="41.449775300" lon="1.684296200">
        <ele>293.00</ele>
        <time>2018-05-26T11:12:43Z</time>
      </trkpt>
      <trkpt lat="41.449879400" lon="1.684439300">
        <ele>294.00</ele>
        <time>2018-05-26T11:12:46Z</time>
      </trkpt>
      <trkpt lat="41.449988700" lon="1.684558700">
        <ele>294.60</ele>
        <time>2018-05-26T11:12:49Z</time>
      </trkpt>
      <trkpt lat="41.450116500" lon="1.684662900">
        <ele>295.80</ele>
        <time>2018-05-26T11:12:53Z</time>
      </trkpt>
      <trkpt lat="41.450195400" lon="1.684732900">
        <ele>295.80</ele>
        <time>2018-05-26T11:12:57Z</time>
      </trkpt>
      <trkpt lat="41.450288200" lon="1.684820500">
        <ele>295.40</ele>
        <time>2018-05-26T11:13:07Z</time>
      </trkpt>
      <trkpt lat="41.450400800" lon="1.684978600">
        <ele>295.20</ele>
        <time>2018-05-26T11:13:13Z</time>
      </trkpt>
      <trkpt lat="41.450525100" lon="1.685014600">
        <ele>295.00</ele>
        <time>2018-05-26T11:13:17Z</time>
      </trkpt>
      <trkpt lat="41.450670500" lon="1.684967900">
        <ele>294.60</ele>
        <time>2018-05-26T11:13:20Z</time>
      </trkpt>
      <trkpt lat="41.450870500" lon="1.684687600">
        <ele>294.20</ele>
        <time>2018-05-26T11:13:25Z</time>
      </trkpt>
      <trkpt lat="41.450931000" lon="1.684367200">
        <ele>294.00</ele>
        <time>2018-05-26T11:13:29Z</time>
      </trkpt>
      <trkpt lat="41.450970100" lon="1.684030800">
        <ele>294.00</ele>
        <time>2018-05-26T11:13:33Z</time>
      </trkpt>
      <trkpt lat="41.451008100" lon="1.683859100">
        <ele>293.60</ele>
        <time>2018-05-26T11:13:35Z</time>
      </trkpt>
      <trkpt lat="41.451129900" lon="1.683515700">
        <ele>294.60</ele>
        <time>2018-05-26T11:13:40Z</time>
      </trkpt>
      <trkpt lat="41.451224300" lon="1.683357300">
        <ele>295.80</ele>
        <time>2018-05-26T11:13:43Z</time>
      </trkpt>
      <trkpt lat="41.451338700" lon="1.683212900">
        <ele>296.60</ele>
        <time>2018-05-26T11:13:46Z</time>
      </trkpt>
      <trkpt lat="41.451564500" lon="1.682993200">
        <ele>297.40</ele>
        <time>2018-05-26T11:13:51Z</time>
      </trkpt>
      <trkpt lat="41.451759000" lon="1.682822100">
        <ele>297.80</ele>
        <time>2018-05-26T11:13:55Z</time>
      </trkpt>
      <trkpt lat="41.452090000" lon="1.682523200">
        <ele>298.80</ele>
        <time>2018-05-26T11:14:02Z</time>
      </trkpt>
      <trkpt lat="41.452185100" lon="1.682437300">
        <ele>299.20</ele>
        <time>2018-05-26T11:14:04Z</time>
      </trkpt>
      <trkpt lat="41.452412100" lon="1.682269200">
        <ele>299.20</ele>
        <time>2018-05-26T11:14:08Z</time>
      </trkpt>
      <trkpt lat="41.452686000" lon="1.682193100">
        <ele>298.60</ele>
        <time>2018-05-26T11:14:12Z</time>
      </trkpt>
      <trkpt lat="41.452830000" lon="1.682167700">
        <ele>298.80</ele>
        <time>2018-05-26T11:14:14Z</time>
      </trkpt>
      <trkpt lat="41.453407600" lon="1.682082500">
        <ele>298.40</ele>
        <time>2018-05-26T11:14:22Z</time>
      </trkpt>
      <trkpt lat="41.453723700" lon="1.682035100">
        <ele>297.60</ele>
        <time>2018-05-26T11:14:26Z</time>
      </trkpt>
      <trkpt lat="41.453888400" lon="1.682005600">
        <ele>297.00</ele>
        <time>2018-05-26T11:14:28Z</time>
      </trkpt>
      <trkpt lat="41.454054800" lon="1.681951200">
        <ele>296.40</ele>
        <time>2018-05-26T11:14:30Z</time>
      </trkpt>
      <trkpt lat="41.454205900" lon="1.681821000">
        <ele>296.00</ele>
        <time>2018-05-26T11:14:32Z</time>
      </trkpt>
      <trkpt lat="41.454266500" lon="1.681728100">
        <ele>295.20</ele>
        <time>2018-05-26T11:14:33Z</time>
      </trkpt>
      <trkpt lat="41.454367900" lon="1.681517700">
        <ele>294.40</ele>
        <time>2018-05-26T11:14:35Z</time>
      </trkpt>
      <trkpt lat="41.454415100" lon="1.681406100">
        <ele>294.00</ele>
        <time>2018-05-26T11:14:36Z</time>
      </trkpt>
      <trkpt lat="41.454509900" lon="1.681174700">
        <ele>293.60</ele>
        <time>2018-05-26T11:14:38Z</time>
      </trkpt>
      <trkpt lat="41.454593900" lon="1.680934300">
        <ele>292.80</ele>
        <time>2018-05-26T11:14:40Z</time>
      </trkpt>
      <trkpt lat="41.454626600" lon="1.680812000">
        <ele>292.00</ele>
        <time>2018-05-26T11:14:41Z</time>
      </trkpt>
      <trkpt lat="41.454653700" lon="1.680692800">
        <ele>291.60</ele>
        <time>2018-05-26T11:14:42Z</time>
      </trkpt>
      <trkpt lat="41.454700100" lon="1.680470800">
        <ele>290.80</ele>
        <time>2018-05-26T11:14:44Z</time>
      </trkpt>
      <trkpt lat="41.454827400" lon="1.680230400">
        <ele>289.40</ele>
        <time>2018-05-26T11:14:47Z</time>
      </trkpt>
      <trkpt lat="41.454917600" lon="1.679841800">
        <ele>289.40</ele>
        <time>2018-05-26T11:14:51Z</time>
      </trkpt>
      <trkpt lat="41.454969500" lon="1.679530300">
        <ele>289.00</ele>
        <time>2018-05-26T11:14:54Z</time>
      </trkpt>
      <trkpt lat="41.455147100" lon="1.679277600">
        <ele>287.40</ele>
        <time>2018-05-26T11:14:57Z</time>
      </trkpt>
      <trkpt lat="41.455280200" lon="1.679101900">
        <ele>287.00</ele>
        <time>2018-05-26T11:14:59Z</time>
      </trkpt>
      <trkpt lat="41.455420600" lon="1.678918100">
        <ele>286.40</ele>
        <time>2018-05-26T11:15:01Z</time>
      </trkpt>
      <trkpt lat="41.455565000" lon="1.678725000">
        <ele>285.60</ele>
        <time>2018-05-26T11:15:03Z</time>
      </trkpt>
      <trkpt lat="41.455784200" lon="1.678424000">
        <ele>285.20</ele>
        <time>2018-05-26T11:15:06Z</time>
      </trkpt>
      <trkpt lat="41.456014900" lon="1.678117400">
        <ele>284.00</ele>
        <time>2018-05-26T11:15:09Z</time>
      </trkpt>
      <trkpt lat="41.456172800" lon="1.677904100">
        <ele>283.40</ele>
        <time>2018-05-26T11:15:11Z</time>
      </trkpt>
      <trkpt lat="41.456252500" lon="1.677797400">
        <ele>283.00</ele>
        <time>2018-05-26T11:15:12Z</time>
      </trkpt>
      <trkpt lat="41.456410600" lon="1.677584100">
        <ele>282.00</ele>
        <time>2018-05-26T11:15:14Z</time>
      </trkpt>
      <trkpt lat="41.456794400" lon="1.677078600">
        <ele>282.40</ele>
        <time>2018-05-26T11:15:19Z</time>
      </trkpt>
      <trkpt lat="41.456870000" lon="1.676980900">
        <ele>282.40</ele>
        <time>2018-05-26T11:15:20Z</time>
      </trkpt>
      <trkpt lat="41.457092300" lon="1.676685400">
        <ele>281.60</ele>
        <time>2018-05-26T11:15:23Z</time>
      </trkpt>
      <trkpt lat="41.457312600" lon="1.676393200">
        <ele>282.20</ele>
        <time>2018-05-26T11:15:26Z</time>
      </trkpt>
      <trkpt lat="41.457541900" lon="1.676124300">
        <ele>281.40</ele>
        <time>2018-05-26T11:15:29Z</time>
      </trkpt>
      <trkpt lat="41.458017700" lon="1.675602500">
        <ele>282.60</ele>
        <time>2018-05-26T11:15:35Z</time>
      </trkpt>
      <trkpt lat="41.458097300" lon="1.675514300">
        <ele>282.60</ele>
        <time>2018-05-26T11:15:36Z</time>
      </trkpt>
      <trkpt lat="41.458250300" lon="1.675342800">
        <ele>283.00</ele>
        <time>2018-05-26T11:15:38Z</time>
      </trkpt>
      <trkpt lat="41.458453400" lon="1.675107300">
        <ele>284.40</ele>
        <time>2018-05-26T11:15:41Z</time>
      </trkpt>
      <trkpt lat="41.458547100" lon="1.674848400">
        <ele>285.40</ele>
        <time>2018-05-26T11:15:44Z</time>
      </trkpt>
      <trkpt lat="41.458506200" lon="1.674671000">
        <ele>286.80</ele>
        <time>2018-05-26T11:15:46Z</time>
      </trkpt>
      <trkpt lat="41.458435700" lon="1.674511000">
        <ele>287.20</ele>
        <time>2018-05-26T11:15:48Z</time>
      </trkpt>
      <trkpt lat="41.458368100" lon="1.674350500">
        <ele>288.00</ele>
        <time>2018-05-26T11:15:50Z</time>
      </trkpt>
      <trkpt lat="41.458334800" lon="1.674104100">
        <ele>289.00</ele>
        <time>2018-05-26T11:15:53Z</time>
      </trkpt>
      <trkpt lat="41.458460200" lon="1.673805300">
        <ele>290.40</ele>
        <time>2018-05-26T11:15:57Z</time>
      </trkpt>
      <trkpt lat="41.458663400" lon="1.673584400">
        <ele>291.60</ele>
        <time>2018-05-26T11:16:01Z</time>
      </trkpt>
      <trkpt lat="41.458781100" lon="1.673506800">
        <ele>292.20</ele>
        <time>2018-05-26T11:16:03Z</time>
      </trkpt>
      <trkpt lat="41.458904700" lon="1.673456900">
        <ele>292.60</ele>
        <time>2018-05-26T11:16:05Z</time>
      </trkpt>
      <trkpt lat="41.459150000" lon="1.673382300">
        <ele>293.80</ele>
        <time>2018-05-26T11:16:09Z</time>
      </trkpt>
      <trkpt lat="41.459389600" lon="1.673288300">
        <ele>294.80</ele>
        <time>2018-05-26T11:16:13Z</time>
      </trkpt>
      <trkpt lat="41.459506500" lon="1.673233600">
        <ele>295.40</ele>
        <time>2018-05-26T11:16:15Z</time>
      </trkpt>
      <trkpt lat="41.459626100" lon="1.673181900">
        <ele>296.00</ele>
        <time>2018-05-26T11:16:17Z</time>
      </trkpt>
      <trkpt lat="41.459954800" lon="1.673050300">
        <ele>297.20</ele>
        <time>2018-05-26T11:16:22Z</time>
      </trkpt>
      <trkpt lat="41.460197300" lon="1.672919500">
        <ele>298.40</ele>
        <time>2018-05-26T11:16:26Z</time>
      </trkpt>
      <trkpt lat="41.460304600" lon="1.672832700">
        <ele>299.00</ele>
        <time>2018-05-26T11:16:28Z</time>
      </trkpt>
      <trkpt lat="41.460406400" lon="1.672731200">
        <ele>299.80</ele>
        <time>2018-05-26T11:16:30Z</time>
      </trkpt>
      <trkpt lat="41.460604100" lon="1.672515700">
        <ele>301.00</ele>
        <time>2018-05-26T11:16:34Z</time>
      </trkpt>
      <trkpt lat="41.460788800" lon="1.672294500">
        <ele>302.20</ele>
        <time>2018-05-26T11:16:38Z</time>
      </trkpt>
      <trkpt lat="41.460967500" lon="1.672069200">
        <ele>303.20</ele>
        <time>2018-05-26T11:16:42Z</time>
      </trkpt>
      <trkpt lat="41.461079000" lon="1.671767800">
        <ele>304.00</ele>
        <time>2018-05-26T11:16:46Z</time>
      </trkpt>
      <trkpt lat="41.461087800" lon="1.671594700">
        <ele>304.20</ele>
        <time>2018-05-26T11:16:48Z</time>
      </trkpt>
      <trkpt lat="41.461076500" lon="1.671417100">
        <ele>304.60</ele>
        <time>2018-05-26T11:16:50Z</time>
      </trkpt>
      <trkpt lat="41.461031700" lon="1.670980600">
        <ele>305.40</ele>
        <time>2018-05-26T11:16:55Z</time>
      </trkpt>
      <trkpt lat="41.461004200" lon="1.670607900">
        <ele>306.00</ele>
        <time>2018-05-26T11:16:59Z</time>
      </trkpt>
      <trkpt lat="41.461023800" lon="1.670418700">
        <ele>306.00</ele>
        <time>2018-05-26T11:17:01Z</time>
      </trkpt>
      <trkpt lat="41.461063400" lon="1.670231900">
        <ele>306.80</ele>
        <time>2018-05-26T11:17:03Z</time>
      </trkpt>
      <trkpt lat="41.461136100" lon="1.669869600">
        <ele>308.00</ele>
        <time>2018-05-26T11:17:07Z</time>
      </trkpt>
      <trkpt lat="41.461219800" lon="1.669421400">
        <ele>309.00</ele>
        <time>2018-05-26T11:17:12Z</time>
      </trkpt>
      <trkpt lat="41.461288600" lon="1.669062300">
        <ele>310.00</ele>
        <time>2018-05-26T11:17:16Z</time>
      </trkpt>
      <trkpt lat="41.461384600" lon="1.668621700">
        <ele>311.20</ele>
        <time>2018-05-26T11:17:21Z</time>
      </trkpt>
      <trkpt lat="41.461493200" lon="1.668281500">
        <ele>312.40</ele>
        <time>2018-05-26T11:17:25Z</time>
      </trkpt>
      <trkpt lat="41.461642900" lon="1.667855400">
        <ele>313.40</ele>
        <time>2018-05-26T11:17:30Z</time>
      </trkpt>
      <trkpt lat="41.461855000" lon="1.667249100">
        <ele>314.20</ele>
        <time>2018-05-26T11:17:37Z</time>
      </trkpt>
      <trkpt lat="41.462042500" lon="1.666620600">
        <ele>315.60</ele>
        <time>2018-05-26T11:17:44Z</time>
      </trkpt>
      <trkpt lat="41.462180300" lon="1.666259200">
        <ele>317.00</ele>
        <time>2018-05-26T11:17:48Z</time>
      </trkpt>
      <trkpt lat="41.462420300" lon="1.666075000">
        <ele>318.20</ele>
        <time>2018-05-26T11:17:52Z</time>
      </trkpt>
      <trkpt lat="41.462623600" lon="1.666087400">
        <ele>318.00</ele>
        <time>2018-05-26T11:17:55Z</time>
      </trkpt>
      <trkpt lat="41.462826600" lon="1.666150200">
        <ele>319.20</ele>
        <time>2018-05-26T11:17:58Z</time>
      </trkpt>
      <trkpt lat="41.463087700" lon="1.666259200">
        <ele>320.00</ele>
        <time>2018-05-26T11:18:02Z</time>
      </trkpt>
      <trkpt lat="41.463339700" lon="1.666345000">
        <ele>321.80</ele>
        <time>2018-05-26T11:18:06Z</time>
      </trkpt>
      <trkpt lat="41.463529200" lon="1.666414600">
        <ele>322.60</ele>
        <time>2018-05-26T11:18:09Z</time>
      </trkpt>
      <trkpt lat="41.463836800" lon="1.666502100">
        <ele>324.60</ele>
        <time>2018-05-26T11:18:14Z</time>
      </trkpt>
      <trkpt lat="41.464022800" lon="1.666535700">
        <ele>325.80</ele>
        <time>2018-05-26T11:18:17Z</time>
      </trkpt>
      <trkpt lat="41.464204500" lon="1.666576600">
        <ele>327.00</ele>
        <time>2018-05-26T11:18:20Z</time>
      </trkpt>
      <trkpt lat="41.464388900" lon="1.666614800">
        <ele>328.00</ele>
        <time>2018-05-26T11:18:23Z</time>
      </trkpt>
      <trkpt lat="41.464584200" lon="1.666704800">
        <ele>329.00</ele>
        <time>2018-05-26T11:18:26Z</time>
      </trkpt>
      <trkpt lat="41.464760500" lon="1.666820400">
        <ele>329.80</ele>
        <time>2018-05-26T11:18:29Z</time>
      </trkpt>
      <trkpt lat="41.465025400" lon="1.667040800">
        <ele>331.20</ele>
        <time>2018-05-26T11:18:34Z</time>
      </trkpt>
      <trkpt lat="41.465133400" lon="1.667119500">
        <ele>331.80</ele>
        <time>2018-05-26T11:18:36Z</time>
      </trkpt>
      <trkpt lat="41.465238700" lon="1.667201600">
        <ele>332.40</ele>
        <time>2018-05-26T11:18:38Z</time>
      </trkpt>
      <trkpt lat="41.465433000" lon="1.667385900">
        <ele>333.60</ele>
        <time>2018-05-26T11:18:42Z</time>
      </trkpt>
      <trkpt lat="41.465635200" lon="1.667569500">
        <ele>334.60</ele>
        <time>2018-05-26T11:18:46Z</time>
      </trkpt>
      <trkpt lat="41.465789500" lon="1.667705300">
        <ele>335.20</ele>
        <time>2018-05-26T11:18:49Z</time>
      </trkpt>
      <trkpt lat="41.465888000" lon="1.667803500">
        <ele>335.80</ele>
        <time>2018-05-26T11:18:51Z</time>
      </trkpt>
      <trkpt lat="41.466044000" lon="1.668057700">
        <ele>337.00</ele>
        <time>2018-05-26T11:18:55Z</time>
      </trkpt>
      <trkpt lat="41.466101300" lon="1.668203300">
        <ele>337.60</ele>
        <time>2018-05-26T11:18:57Z</time>
      </trkpt>
      <trkpt lat="41.466141300" lon="1.668353000">
        <ele>338.40</ele>
        <time>2018-05-26T11:18:59Z</time>
      </trkpt>
      <trkpt lat="41.466224500" lon="1.668794200">
        <ele>339.40</ele>
        <time>2018-05-26T11:19:05Z</time>
      </trkpt>
      <trkpt lat="41.466233100" lon="1.669010500">
        <ele>339.40</ele>
        <time>2018-05-26T11:19:08Z</time>
      </trkpt>
      <trkpt lat="41.466203000" lon="1.669281900">
        <ele>340.60</ele>
        <time>2018-05-26T11:19:12Z</time>
      </trkpt>
      <trkpt lat="41.466174400" lon="1.669472400">
        <ele>341.40</ele>
        <time>2018-05-26T11:19:15Z</time>
      </trkpt>
      <trkpt lat="41.466127000" lon="1.669785000">
        <ele>342.80</ele>
        <time>2018-05-26T11:19:20Z</time>
      </trkpt>
      <trkpt lat="41.466093200" lon="1.670046900">
        <ele>343.80</ele>
        <time>2018-05-26T11:19:24Z</time>
      </trkpt>
      <trkpt lat="41.466051100" lon="1.670347600">
        <ele>344.80</ele>
        <time>2018-05-26T11:19:28Z</time>
      </trkpt>
      <trkpt lat="41.466024500" lon="1.670509700">
        <ele>345.60</ele>
        <time>2018-05-26T11:19:30Z</time>
      </trkpt>
      <trkpt lat="41.466005000" lon="1.670679900">
        <ele>346.00</ele>
        <time>2018-05-26T11:19:32Z</time>
      </trkpt>
      <trkpt lat="41.465991500" lon="1.670908300">
        <ele>347.00</ele>
        <time>2018-05-26T11:19:35Z</time>
      </trkpt>
      <trkpt lat="41.466072100" lon="1.671135900">
        <ele>348.20</ele>
        <time>2018-05-26T11:19:39Z</time>
      </trkpt>
      <trkpt lat="41.466298200" lon="1.671218900">
        <ele>349.40</ele>
        <time>2018-05-26T11:19:44Z</time>
      </trkpt>
      <trkpt lat="41.466495100" lon="1.671130000">
        <ele>350.40</ele>
        <time>2018-05-26T11:19:48Z</time>
      </trkpt>
      <trkpt lat="41.466657000" lon="1.670886100">
        <ele>351.20</ele>
        <time>2018-05-26T11:19:53Z</time>
      </trkpt>
      <trkpt lat="41.466694300" lon="1.670756400">
        <ele>351.80</ele>
        <time>2018-05-26T11:19:55Z</time>
      </trkpt>
      <trkpt lat="41.466719000" lon="1.670620300">
        <ele>352.40</ele>
        <time>2018-05-26T11:19:57Z</time>
      </trkpt>
      <trkpt lat="41.466745500" lon="1.670487400">
        <ele>352.80</ele>
        <time>2018-05-26T11:19:59Z</time>
      </trkpt>
      <trkpt lat="41.466839700" lon="1.669998500">
        <ele>354.00</ele>
        <time>2018-05-26T11:20:06Z</time>
      </trkpt>
      <trkpt lat="41.466889700" lon="1.669728900">
        <ele>355.40</ele>
        <time>2018-05-26T11:20:10Z</time>
      </trkpt>
      <trkpt lat="41.466923100" lon="1.669517900">
        <ele>356.20</ele>
        <time>2018-05-26T11:20:13Z</time>
      </trkpt>
      <trkpt lat="41.466996700" lon="1.669256100">
        <ele>357.20</ele>
        <time>2018-05-26T11:20:17Z</time>
      </trkpt>
      <trkpt lat="41.467056600" lon="1.669134600">
        <ele>357.40</ele>
        <time>2018-05-26T11:20:19Z</time>
      </trkpt>
      <trkpt lat="41.467122000" lon="1.669024300">
        <ele>358.00</ele>
        <time>2018-05-26T11:20:21Z</time>
      </trkpt>
      <trkpt lat="41.467255500" lon="1.668816500">
        <ele>358.60</ele>
        <time>2018-05-26T11:20:25Z</time>
      </trkpt>
      <trkpt lat="41.467325000" lon="1.668711000">
        <ele>359.00</ele>
        <time>2018-05-26T11:20:27Z</time>
      </trkpt>
      <trkpt lat="41.467426400" lon="1.668553200">
        <ele>359.60</ele>
        <time>2018-05-26T11:20:30Z</time>
      </trkpt>
      <trkpt lat="41.467511800" lon="1.668380400">
        <ele>360.20</ele>
        <time>2018-05-26T11:20:33Z</time>
      </trkpt>
      <trkpt lat="41.467545600" lon="1.668247300">
        <ele>360.80</ele>
        <time>2018-05-26T11:20:35Z</time>
      </trkpt>
      <trkpt lat="41.467553400" lon="1.668102900">
        <ele>361.20</ele>
        <time>2018-05-26T11:20:37Z</time>
      </trkpt>
      <trkpt lat="41.467556800" lon="1.667887500">
        <ele>361.40</ele>
        <time>2018-05-26T11:20:40Z</time>
      </trkpt>
      <trkpt lat="41.467554500" lon="1.667743800">
        <ele>362.00</ele>
        <time>2018-05-26T11:20:42Z</time>
      </trkpt>
      <trkpt lat="41.467549300" lon="1.667457500">
        <ele>363.00</ele>
        <time>2018-05-26T11:20:46Z</time>
      </trkpt>
      <trkpt lat="41.467549500" lon="1.667164500">
        <ele>363.80</ele>
        <time>2018-05-26T11:20:50Z</time>
      </trkpt>
      <trkpt lat="41.467558400" lon="1.667019600">
        <ele>364.20</ele>
        <time>2018-05-26T11:20:52Z</time>
      </trkpt>
      <trkpt lat="41.467617100" lon="1.666811900">
        <ele>365.00</ele>
        <time>2018-05-26T11:20:55Z</time>
      </trkpt>
      <trkpt lat="41.467670700" lon="1.666685100">
        <ele>365.40</ele>
        <time>2018-05-26T11:20:57Z</time>
      </trkpt>
      <trkpt lat="41.467785500" lon="1.666434700">
        <ele>366.40</ele>
        <time>2018-05-26T11:21:01Z</time>
      </trkpt>
      <trkpt lat="41.467845600" lon="1.666315900">
        <ele>367.00</ele>
        <time>2018-05-26T11:21:03Z</time>
      </trkpt>
      <trkpt lat="41.467937100" lon="1.666139000">
        <ele>367.60</ele>
        <time>2018-05-26T11:21:06Z</time>
      </trkpt>
      <trkpt lat="41.468126000" lon="1.665848800">
        <ele>368.80</ele>
        <time>2018-05-26T11:21:11Z</time>
      </trkpt>
      <trkpt lat="41.468349300" lon="1.665592000">
        <ele>370.20</ele>
        <time>2018-05-26T11:21:16Z</time>
      </trkpt>
      <trkpt lat="41.468473400" lon="1.665419100">
        <ele>370.80</ele>
        <time>2018-05-26T11:21:19Z</time>
      </trkpt>
      <trkpt lat="41.468546300" lon="1.665291100">
        <ele>371.20</ele>
        <time>2018-05-26T11:21:21Z</time>
      </trkpt>
      <trkpt lat="41.468723600" lon="1.664963800">
        <ele>372.20</ele>
        <time>2018-05-26T11:21:26Z</time>
      </trkpt>
      <trkpt lat="41.468936700" lon="1.664569100">
        <ele>373.40</ele>
        <time>2018-05-26T11:21:32Z</time>
      </trkpt>
      <trkpt lat="41.469068000" lon="1.664291900">
        <ele>374.40</ele>
        <time>2018-05-26T11:21:36Z</time>
      </trkpt>
      <trkpt lat="41.469188400" lon="1.663999400">
        <ele>375.60</ele>
        <time>2018-05-26T11:21:40Z</time>
      </trkpt>
      <trkpt lat="41.469342900" lon="1.663638500">
        <ele>376.60</ele>
        <time>2018-05-26T11:21:45Z</time>
      </trkpt>
      <trkpt lat="41.469503200" lon="1.663369000">
        <ele>377.60</ele>
        <time>2018-05-26T11:21:49Z</time>
      </trkpt>
      <trkpt lat="41.469626000" lon="1.663166000">
        <ele>378.40</ele>
        <time>2018-05-26T11:21:52Z</time>
      </trkpt>
      <trkpt lat="41.469706300" lon="1.663030400">
        <ele>378.80</ele>
        <time>2018-05-26T11:21:54Z</time>
      </trkpt>
      <trkpt lat="41.469908800" lon="1.662710100">
        <ele>379.80</ele>
        <time>2018-05-26T11:21:59Z</time>
      </trkpt>
      <trkpt lat="41.470047700" lon="1.662444000">
        <ele>380.60</ele>
        <time>2018-05-26T11:22:03Z</time>
      </trkpt>
      <trkpt lat="41.470053700" lon="1.662279200">
        <ele>381.00</ele>
        <time>2018-05-26T11:22:05Z</time>
      </trkpt>
      <trkpt lat="41.469952200" lon="1.662143500">
        <ele>381.20</ele>
        <time>2018-05-26T11:22:08Z</time>
      </trkpt>
      <trkpt lat="41.469738100" lon="1.662238900">
        <ele>381.60</ele>
        <time>2018-05-26T11:22:11Z</time>
      </trkpt>
      <trkpt lat="41.469271200" lon="1.662455500">
        <ele>382.60</ele>
        <time>2018-05-26T11:22:18Z</time>
      </trkpt>
      <trkpt lat="41.469063400" lon="1.662440000">
        <ele>383.20</ele>
        <time>2018-05-26T11:22:21Z</time>
      </trkpt>
      <trkpt lat="41.468927700" lon="1.662397900">
        <ele>383.80</ele>
        <time>2018-05-26T11:22:23Z</time>
      </trkpt>
      <trkpt lat="41.468726000" lon="1.662321100">
        <ele>384.40</ele>
        <time>2018-05-26T11:22:26Z</time>
      </trkpt>
      <trkpt lat="41.468454700" lon="1.662208300">
        <ele>385.60</ele>
        <time>2018-05-26T11:22:30Z</time>
      </trkpt>
      <trkpt lat="41.468318500" lon="1.662141600">
        <ele>386.00</ele>
        <time>2018-05-26T11:22:32Z</time>
      </trkpt>
      <trkpt lat="41.468164200" lon="1.661935100">
        <ele>386.60</ele>
        <time>2018-05-26T11:22:35Z</time>
      </trkpt>
      <trkpt lat="41.468156400" lon="1.661638900">
        <ele>387.20</ele>
        <time>2018-05-26T11:22:38Z</time>
      </trkpt>
      <trkpt lat="41.468241400" lon="1.661338700">
        <ele>387.80</ele>
        <time>2018-05-26T11:22:41Z</time>
      </trkpt>
      <trkpt lat="41.468506200" lon="1.661099600">
        <ele>387.80</ele>
        <time>2018-05-26T11:22:45Z</time>
      </trkpt>
      <trkpt lat="41.469127100" lon="1.660813200">
        <ele>388.00</ele>
        <time>2018-05-26T11:22:53Z</time>
      </trkpt>
      <trkpt lat="41.469588200" lon="1.660602700">
        <ele>388.80</ele>
        <time>2018-05-26T11:22:59Z</time>
      </trkpt>
      <trkpt lat="41.469738200" lon="1.660536200">
        <ele>389.20</ele>
        <time>2018-05-26T11:23:01Z</time>
      </trkpt>
      <trkpt lat="41.470174500" lon="1.660294700">
        <ele>390.00</ele>
        <time>2018-05-26T11:23:07Z</time>
      </trkpt>
      <trkpt lat="41.470486100" lon="1.659975000">
        <ele>390.60</ele>
        <time>2018-05-26T11:23:12Z</time>
      </trkpt>
      <trkpt lat="41.470881000" lon="1.659623000">
        <ele>390.80</ele>
        <time>2018-05-26T11:23:18Z</time>
      </trkpt>
      <trkpt lat="41.471289500" lon="1.659340000">
        <ele>392.20</ele>
        <time>2018-05-26T11:23:24Z</time>
      </trkpt>
      <trkpt lat="41.471488500" lon="1.659044200">
        <ele>392.80</ele>
        <time>2018-05-26T11:23:28Z</time>
      </trkpt>
      <trkpt lat="41.471579100" lon="1.658870700">
        <ele>392.60</ele>
        <time>2018-05-26T11:23:30Z</time>
      </trkpt>
      <trkpt lat="41.471918200" lon="1.658277400">
        <ele>393.00</ele>
        <time>2018-05-26T11:23:37Z</time>
      </trkpt>
      <trkpt lat="41.472125900" lon="1.658145300">
        <ele>393.00</ele>
        <time>2018-05-26T11:23:40Z</time>
      </trkpt>
      <trkpt lat="41.472274700" lon="1.658196800">
        <ele>393.20</ele>
        <time>2018-05-26T11:23:42Z</time>
      </trkpt>
      <trkpt lat="41.472460800" lon="1.658436700">
        <ele>393.60</ele>
        <time>2018-05-26T11:23:45Z</time>
      </trkpt>
      <trkpt lat="41.472680000" lon="1.658579200">
        <ele>393.60</ele>
        <time>2018-05-26T11:23:49Z</time>
      </trkpt>
      <trkpt lat="41.472931400" lon="1.658511500">
        <ele>394.80</ele>
        <time>2018-05-26T11:23:52Z</time>
      </trkpt>
      <trkpt lat="41.473093900" lon="1.658470300">
        <ele>395.00</ele>
        <time>2018-05-26T11:23:54Z</time>
      </trkpt>
      <trkpt lat="41.473260800" lon="1.658522900">
        <ele>395.40</ele>
        <time>2018-05-26T11:23:56Z</time>
      </trkpt>
      <trkpt lat="41.473416000" lon="1.658635500">
        <ele>395.60</ele>
        <time>2018-05-26T11:23:58Z</time>
      </trkpt>
      <trkpt lat="41.473562900" lon="1.658749100">
        <ele>396.20</ele>
        <time>2018-05-26T11:24:00Z</time>
      </trkpt>
      <trkpt lat="41.473695200" lon="1.658889100">
        <ele>396.60</ele>
        <time>2018-05-26T11:24:02Z</time>
      </trkpt>
      <trkpt lat="41.473783300" lon="1.659088400">
        <ele>396.20</ele>
        <time>2018-05-26T11:24:04Z</time>
      </trkpt>
      <trkpt lat="41.473907100" lon="1.659499000">
        <ele>397.20</ele>
        <time>2018-05-26T11:24:08Z</time>
      </trkpt>
      <trkpt lat="41.474009300" lon="1.659653600">
        <ele>397.60</ele>
        <time>2018-05-26T11:24:10Z</time>
      </trkpt>
      <trkpt lat="41.474213100" lon="1.659761200">
        <ele>398.40</ele>
        <time>2018-05-26T11:24:13Z</time>
      </trkpt>
      <trkpt lat="41.474607500" lon="1.659850700">
        <ele>399.20</ele>
        <time>2018-05-26T11:24:19Z</time>
      </trkpt>
      <trkpt lat="41.474740800" lon="1.659865000">
        <ele>399.60</ele>
        <time>2018-05-26T11:24:21Z</time>
      </trkpt>
      <trkpt lat="41.474873000" lon="1.659838100">
        <ele>400.20</ele>
        <time>2018-05-26T11:24:23Z</time>
      </trkpt>
      <trkpt lat="41.475001700" lon="1.659792700">
        <ele>400.60</ele>
        <time>2018-05-26T11:24:25Z</time>
      </trkpt>
      <trkpt lat="41.475185300" lon="1.659696500">
        <ele>401.20</ele>
        <time>2018-05-26T11:24:28Z</time>
      </trkpt>
      <trkpt lat="41.475294600" lon="1.659613100">
        <ele>401.60</ele>
        <time>2018-05-26T11:24:30Z</time>
      </trkpt>
      <trkpt lat="41.475395000" lon="1.659495600">
        <ele>401.40</ele>
        <time>2018-05-26T11:24:32Z</time>
      </trkpt>
      <trkpt lat="41.475496800" lon="1.659371500">
        <ele>402.00</ele>
        <time>2018-05-26T11:24:34Z</time>
      </trkpt>
      <trkpt lat="41.475667900" lon="1.659097400">
        <ele>404.20</ele>
        <time>2018-05-26T11:24:38Z</time>
      </trkpt>
      <trkpt lat="41.475893500" lon="1.658559200">
        <ele>405.00</ele>
        <time>2018-05-26T11:24:45Z</time>
      </trkpt>
      <trkpt lat="41.476039700" lon="1.657972500">
        <ele>406.40</ele>
        <time>2018-05-26T11:24:52Z</time>
      </trkpt>
      <trkpt lat="41.476104200" lon="1.657819600">
        <ele>406.80</ele>
        <time>2018-05-26T11:24:54Z</time>
      </trkpt>
      <trkpt lat="41.476263300" lon="1.657667400">
        <ele>407.20</ele>
        <time>2018-05-26T11:24:57Z</time>
      </trkpt>
      <trkpt lat="41.476382800" lon="1.657595900">
        <ele>407.80</ele>
        <time>2018-05-26T11:24:59Z</time>
      </trkpt>
      <trkpt lat="41.476500300" lon="1.657517800">
        <ele>408.20</ele>
        <time>2018-05-26T11:25:01Z</time>
      </trkpt>
      <trkpt lat="41.476670900" lon="1.657368900">
        <ele>409.00</ele>
        <time>2018-05-26T11:25:04Z</time>
      </trkpt>
      <trkpt lat="41.476841400" lon="1.657201300">
        <ele>409.40</ele>
        <time>2018-05-26T11:25:07Z</time>
      </trkpt>
      <trkpt lat="41.476971500" lon="1.657140300">
        <ele>409.40</ele>
        <time>2018-05-26T11:25:09Z</time>
      </trkpt>
      <trkpt lat="41.477183200" lon="1.657101700">
        <ele>410.20</ele>
        <time>2018-05-26T11:25:12Z</time>
      </trkpt>
      <trkpt lat="41.477326600" lon="1.657084600">
        <ele>410.40</ele>
        <time>2018-05-26T11:25:14Z</time>
      </trkpt>
      <trkpt lat="41.477610300" lon="1.657083500">
        <ele>411.20</ele>
        <time>2018-05-26T11:25:18Z</time>
      </trkpt>
      <trkpt lat="41.477753900" lon="1.657121500">
        <ele>411.40</ele>
        <time>2018-05-26T11:25:20Z</time>
      </trkpt>
      <trkpt lat="41.478014800" lon="1.657302300">
        <ele>412.40</ele>
        <time>2018-05-26T11:25:24Z</time>
      </trkpt>
      <trkpt lat="41.478132300" lon="1.657417000">
        <ele>412.60</ele>
        <time>2018-05-26T11:25:26Z</time>
      </trkpt>
      <trkpt lat="41.478279700" lon="1.657613100">
        <ele>413.20</ele>
        <time>2018-05-26T11:25:29Z</time>
      </trkpt>
      <trkpt lat="41.478369500" lon="1.657748700">
        <ele>413.40</ele>
        <time>2018-05-26T11:25:31Z</time>
      </trkpt>
      <trkpt lat="41.478575500" lon="1.657981400">
        <ele>414.40</ele>
        <time>2018-05-26T11:25:35Z</time>
      </trkpt>
      <trkpt lat="41.478906800" lon="1.658111200">
        <ele>415.00</ele>
        <time>2018-05-26T11:25:40Z</time>
      </trkpt>
      <trkpt lat="41.479044000" lon="1.658131800">
        <ele>415.40</ele>
        <time>2018-05-26T11:25:42Z</time>
      </trkpt>
      <trkpt lat="41.479401900" lon="1.658121200">
        <ele>416.20</ele>
        <time>2018-05-26T11:25:47Z</time>
      </trkpt>
      <trkpt lat="41.479884500" lon="1.658122500">
        <ele>417.60</ele>
        <time>2018-05-26T11:25:54Z</time>
      </trkpt>
      <trkpt lat="41.480142200" lon="1.658296600">
        <ele>418.00</ele>
        <time>2018-05-26T11:25:58Z</time>
      </trkpt>
      <trkpt lat="41.480458100" lon="1.658704800">
        <ele>418.80</ele>
        <time>2018-05-26T11:26:04Z</time>
      </trkpt>
      <trkpt lat="41.480685100" lon="1.658935000">
        <ele>419.40</ele>
        <time>2018-05-26T11:26:08Z</time>
      </trkpt>
      <trkpt lat="41.480825400" lon="1.659025800">
        <ele>419.60</ele>
        <time>2018-05-26T11:26:10Z</time>
      </trkpt>
      <trkpt lat="41.481188000" lon="1.659200800">
        <ele>420.80</ele>
        <time>2018-05-26T11:26:15Z</time>
      </trkpt>
      <trkpt lat="41.481441500" lon="1.659443600">
        <ele>422.00</ele>
        <time>2018-05-26T11:26:19Z</time>
      </trkpt>
      <trkpt lat="41.481747400" lon="1.659715600">
        <ele>423.40</ele>
        <time>2018-05-26T11:26:24Z</time>
      </trkpt>
      <trkpt lat="41.481843500" lon="1.659957100">
        <ele>424.40</ele>
        <time>2018-05-26T11:26:27Z</time>
      </trkpt>
      <trkpt lat="41.481850500" lon="1.660143000">
        <ele>425.40</ele>
        <time>2018-05-26T11:26:29Z</time>
      </trkpt>
      <trkpt lat="41.481916600" lon="1.660386800">
        <ele>426.40</ele>
        <time>2018-05-26T11:26:32Z</time>
      </trkpt>
      <trkpt lat="41.482019300" lon="1.660593200">
        <ele>427.40</ele>
        <time>2018-05-26T11:26:35Z</time>
      </trkpt>
      <trkpt lat="41.482090300" lon="1.660719000">
        <ele>428.00</ele>
        <time>2018-05-26T11:26:37Z</time>
      </trkpt>
      <trkpt lat="41.482262500" lon="1.660913100">
        <ele>428.80</ele>
        <time>2018-05-26T11:26:41Z</time>
      </trkpt>
      <trkpt lat="41.482524300" lon="1.661014400">
        <ele>429.60</ele>
        <time>2018-05-26T11:26:46Z</time>
      </trkpt>
      <trkpt lat="41.482636300" lon="1.661042400">
        <ele>430.20</ele>
        <time>2018-05-26T11:26:48Z</time>
      </trkpt>
      <trkpt lat="41.482803400" lon="1.661032500">
        <ele>431.20</ele>
        <time>2018-05-26T11:26:51Z</time>
      </trkpt>
      <trkpt lat="41.483049700" lon="1.660843300">
        <ele>431.80</ele>
        <time>2018-05-26T11:26:56Z</time>
      </trkpt>
      <trkpt lat="41.483326500" lon="1.660586800">
        <ele>432.20</ele>
        <time>2018-05-26T11:27:02Z</time>
      </trkpt>
      <trkpt lat="41.483748800" lon="1.660462700">
        <ele>433.60</ele>
        <time>2018-05-26T11:27:10Z</time>
      </trkpt>
      <trkpt lat="41.484006000" lon="1.660433000">
        <ele>434.60</ele>
        <time>2018-05-26T11:27:15Z</time>
      </trkpt>
      <trkpt lat="41.484099500" lon="1.660482400">
        <ele>435.00</ele>
        <time>2018-05-26T11:27:17Z</time>
      </trkpt>
      <trkpt lat="41.484160800" lon="1.660585700">
        <ele>435.60</ele>
        <time>2018-05-26T11:27:19Z</time>
      </trkpt>
      <trkpt lat="41.484305700" lon="1.660933000">
        <ele>436.60</ele>
        <time>2018-05-26T11:27:25Z</time>
      </trkpt>
      <trkpt lat="41.484353500" lon="1.661048200">
        <ele>437.20</ele>
        <time>2018-05-26T11:27:27Z</time>
      </trkpt>
      <trkpt lat="41.484418300" lon="1.661221600">
        <ele>437.80</ele>
        <time>2018-05-26T11:27:30Z</time>
      </trkpt>
      <trkpt lat="41.484512700" lon="1.661437900">
        <ele>438.80</ele>
        <time>2018-05-26T11:27:34Z</time>
      </trkpt>
      <trkpt lat="41.484575100" lon="1.661524900">
        <ele>439.00</ele>
        <time>2018-05-26T11:27:36Z</time>
      </trkpt>
      <trkpt lat="41.484705700" lon="1.661580000">
        <ele>439.60</ele>
        <time>2018-05-26T11:27:39Z</time>
      </trkpt>
      <trkpt lat="41.484803700" lon="1.661537800">
        <ele>440.20</ele>
        <time>2018-05-26T11:27:41Z</time>
      </trkpt>
      <trkpt lat="41.484977400" lon="1.661274700">
        <ele>441.20</ele>
        <time>2018-05-26T11:27:46Z</time>
      </trkpt>
      <trkpt lat="41.485098200" lon="1.660900600">
        <ele>442.20</ele>
        <time>2018-05-26T11:27:52Z</time>
      </trkpt>
      <trkpt lat="41.485160600" lon="1.660721900">
        <ele>442.60</ele>
        <time>2018-05-26T11:27:55Z</time>
      </trkpt>
      <trkpt lat="41.485275000" lon="1.660611300">
        <ele>443.00</ele>
        <time>2018-05-26T11:27:58Z</time>
      </trkpt>
      <trkpt lat="41.485390600" lon="1.660566100">
        <ele>443.40</ele>
        <time>2018-05-26T11:28:01Z</time>
      </trkpt>
      <trkpt lat="41.485584700" lon="1.660535000">
        <ele>444.00</ele>
        <time>2018-05-26T11:28:06Z</time>
      </trkpt>
      <trkpt lat="41.485688600" lon="1.660714800">
        <ele>445.00</ele>
        <time>2018-05-26T11:28:10Z</time>
      </trkpt>
      <trkpt lat="41.485761400" lon="1.660853600">
        <ele>445.60</ele>
        <time>2018-05-26T11:28:13Z</time>
      </trkpt>
      <trkpt lat="41.485913300" lon="1.661124500">
        <ele>446.00</ele>
        <time>2018-05-26T11:28:19Z</time>
      </trkpt>
      <trkpt lat="41.485990900" lon="1.661258300">
        <ele>446.60</ele>
        <time>2018-05-26T11:28:22Z</time>
      </trkpt>
      <trkpt lat="41.486151000" lon="1.661530300">
        <ele>447.60</ele>
        <time>2018-05-26T11:28:28Z</time>
      </trkpt>
      <trkpt lat="41.486348200" lon="1.661695600">
        <ele>448.40</ele>
        <time>2018-05-26T11:28:33Z</time>
      </trkpt>
      <trkpt lat="41.486439000" lon="1.661736200">
        <ele>448.60</ele>
        <time>2018-05-26T11:28:35Z</time>
      </trkpt>
      <trkpt lat="41.486583200" lon="1.661747900">
        <ele>449.00</ele>
        <time>2018-05-26T11:28:38Z</time>
      </trkpt>
      <trkpt lat="41.486722700" lon="1.661684200">
        <ele>449.80</ele>
        <time>2018-05-26T11:28:41Z</time>
      </trkpt>
      <trkpt lat="41.486910100" lon="1.661445800">
        <ele>451.00</ele>
        <time>2018-05-26T11:28:46Z</time>
      </trkpt>
      <trkpt lat="41.487066300" lon="1.661083700">
        <ele>452.00</ele>
        <time>2018-05-26T11:28:52Z</time>
      </trkpt>
      <trkpt lat="41.487122600" lon="1.660963500">
        <ele>452.60</ele>
        <time>2018-05-26T11:28:54Z</time>
      </trkpt>
      <trkpt lat="41.487202800" lon="1.660786100">
        <ele>453.20</ele>
        <time>2018-05-26T11:28:57Z</time>
      </trkpt>
      <trkpt lat="41.487321400" lon="1.660550700">
        <ele>454.40</ele>
        <time>2018-05-26T11:29:01Z</time>
      </trkpt>
      <trkpt lat="41.487377800" lon="1.660428300">
        <ele>454.80</ele>
        <time>2018-05-26T11:29:03Z</time>
      </trkpt>
      <trkpt lat="41.487477500" lon="1.660258000">
        <ele>455.60</ele>
        <time>2018-05-26T11:29:06Z</time>
      </trkpt>
      <trkpt lat="41.487531600" lon="1.660145700">
        <ele>456.00</ele>
        <time>2018-05-26T11:29:08Z</time>
      </trkpt>
      <trkpt lat="41.487634600" lon="1.659921800">
        <ele>456.60</ele>
        <time>2018-05-26T11:29:12Z</time>
      </trkpt>
      <trkpt lat="41.487710200" lon="1.659746600">
        <ele>457.40</ele>
        <time>2018-05-26T11:29:15Z</time>
      </trkpt>
      <trkpt lat="41.487761800" lon="1.659633500">
        <ele>457.80</ele>
        <time>2018-05-26T11:29:17Z</time>
      </trkpt>
      <trkpt lat="41.487925400" lon="1.659292900">
        <ele>459.00</ele>
        <time>2018-05-26T11:29:23Z</time>
      </trkpt>
      <trkpt lat="41.488005300" lon="1.659125200">
        <ele>460.00</ele>
        <time>2018-05-26T11:29:26Z</time>
      </trkpt>
      <trkpt lat="41.488146400" lon="1.658772400">
        <ele>461.40</ele>
        <time>2018-05-26T11:29:32Z</time>
      </trkpt>
      <trkpt lat="41.488165600" lon="1.658637800">
        <ele>461.80</ele>
        <time>2018-05-26T11:29:34Z</time>
      </trkpt>
      <trkpt lat="41.488124600" lon="1.658347600">
        <ele>462.20</ele>
        <time>2018-05-26T11:29:38Z</time>
      </trkpt>
      <trkpt lat="41.488081600" lon="1.658034500">
        <ele>462.00</ele>
        <time>2018-05-26T11:29:42Z</time>
      </trkpt>
      <trkpt lat="41.488208000" lon="1.657671300">
        <ele>462.20</ele>
        <time>2018-05-26T11:29:47Z</time>
      </trkpt>
      <trkpt lat="41.488368000" lon="1.657352000">
        <ele>463.00</ele>
        <time>2018-05-26T11:29:52Z</time>
      </trkpt>
      <trkpt lat="41.488442300" lon="1.657184300">
        <ele>463.60</ele>
        <time>2018-05-26T11:29:55Z</time>
      </trkpt>
      <trkpt lat="41.488537000" lon="1.656865800">
        <ele>465.00</ele>
        <time>2018-05-26T11:30:01Z</time>
      </trkpt>
      <trkpt lat="41.488587300" lon="1.656682700">
        <ele>466.00</ele>
        <time>2018-05-26T11:30:05Z</time>
      </trkpt>
      <trkpt lat="41.488681200" lon="1.656521100">
        <ele>466.20</ele>
        <time>2018-05-26T11:30:10Z</time>
      </trkpt>
      <trkpt lat="41.488692300" lon="1.656338700">
        <ele>466.60</ele>
        <time>2018-05-26T11:30:15Z</time>
      </trkpt>
      <trkpt lat="41.488621600" lon="1.656223700">
        <ele>467.00</ele>
        <time>2018-05-26T11:30:19Z</time>
      </trkpt>
      <trkpt lat="41.488740700" lon="1.655941500">
        <ele>466.80</ele>
        <time>2018-05-26T11:33:01Z</time>
      </trkpt>
      <trkpt lat="41.488823400" lon="1.655841900">
        <ele>466.60</ele>
        <time>2018-05-26T11:33:03Z</time>
      </trkpt>
      <trkpt lat="41.488929100" lon="1.655774800">
        <ele>467.00</ele>
        <time>2018-05-26T11:33:05Z</time>
      </trkpt>
      <trkpt lat="41.489099800" lon="1.655743500">
        <ele>467.80</ele>
        <time>2018-05-26T11:33:08Z</time>
      </trkpt>
      <trkpt lat="41.489209500" lon="1.655752400">
        <ele>468.20</ele>
        <time>2018-05-26T11:33:10Z</time>
      </trkpt>
      <trkpt lat="41.489370900" lon="1.655791900">
        <ele>468.60</ele>
        <time>2018-05-26T11:33:13Z</time>
      </trkpt>
      <trkpt lat="41.489584000" lon="1.655856200">
        <ele>469.20</ele>
        <time>2018-05-26T11:33:17Z</time>
      </trkpt>
      <trkpt lat="41.489828100" lon="1.655922700">
        <ele>469.80</ele>
        <time>2018-05-26T11:33:22Z</time>
      </trkpt>
      <trkpt lat="41.489970900" lon="1.655950400">
        <ele>470.40</ele>
        <time>2018-05-26T11:33:25Z</time>
      </trkpt>
      <trkpt lat="41.490209100" lon="1.656005600">
        <ele>470.80</ele>
        <time>2018-05-26T11:33:30Z</time>
      </trkpt>
      <trkpt lat="41.490456400" lon="1.656065600">
        <ele>471.40</ele>
        <time>2018-05-26T11:33:35Z</time>
      </trkpt>
      <trkpt lat="41.490657100" lon="1.656121600">
        <ele>471.60</ele>
        <time>2018-05-26T11:33:39Z</time>
      </trkpt>
      <trkpt lat="41.490899500" lon="1.656192400">
        <ele>472.20</ele>
        <time>2018-05-26T11:33:44Z</time>
      </trkpt>
      <trkpt lat="41.491042100" lon="1.656248700">
        <ele>472.00</ele>
        <time>2018-05-26T11:33:47Z</time>
      </trkpt>
      <trkpt lat="41.491115700" lon="1.656335000">
        <ele>472.60</ele>
        <time>2018-05-26T11:33:49Z</time>
      </trkpt>
      <trkpt lat="41.491157600" lon="1.656452800">
        <ele>473.00</ele>
        <time>2018-05-26T11:33:51Z</time>
      </trkpt>
      <trkpt lat="41.491187400" lon="1.656660000">
        <ele>473.20</ele>
        <time>2018-05-26T11:33:54Z</time>
      </trkpt>
      <trkpt lat="41.491197100" lon="1.656804700">
        <ele>473.60</ele>
        <time>2018-05-26T11:33:56Z</time>
      </trkpt>
      <trkpt lat="41.491220600" lon="1.657151000">
        <ele>474.80</ele>
        <time>2018-05-26T11:34:01Z</time>
      </trkpt>
      <trkpt lat="41.491231500" lon="1.657350400">
        <ele>475.60</ele>
        <time>2018-05-26T11:34:04Z</time>
      </trkpt>
      <trkpt lat="41.491231700" lon="1.657485100">
        <ele>476.00</ele>
        <time>2018-05-26T11:34:06Z</time>
      </trkpt>
      <trkpt lat="41.491250400" lon="1.657805000">
        <ele>476.20</ele>
        <time>2018-05-26T11:34:11Z</time>
      </trkpt>
      <trkpt lat="41.491257400" lon="1.657995900">
        <ele>478.40</ele>
        <time>2018-05-26T11:34:14Z</time>
      </trkpt>
      <trkpt lat="41.491284700" lon="1.658441200">
        <ele>479.40</ele>
        <time>2018-05-26T11:34:21Z</time>
      </trkpt>
      <trkpt lat="41.491294800" lon="1.658703000">
        <ele>480.60</ele>
        <time>2018-05-26T11:34:25Z</time>
      </trkpt>
      <trkpt lat="41.491308700" lon="1.658954100">
        <ele>481.20</ele>
        <time>2018-05-26T11:34:29Z</time>
      </trkpt>
      <trkpt lat="41.491313800" lon="1.659075900">
        <ele>481.80</ele>
        <time>2018-05-26T11:34:31Z</time>
      </trkpt>
      <trkpt lat="41.491329600" lon="1.659378000">
        <ele>483.40</ele>
        <time>2018-05-26T11:34:36Z</time>
      </trkpt>
      <trkpt lat="41.491374300" lon="1.659738000">
        <ele>484.40</ele>
        <time>2018-05-26T11:34:42Z</time>
      </trkpt>
      <trkpt lat="41.491432000" lon="1.659923900">
        <ele>485.40</ele>
        <time>2018-05-26T11:34:45Z</time>
      </trkpt>
      <trkpt lat="41.491544500" lon="1.660172200">
        <ele>486.20</ele>
        <time>2018-05-26T11:34:49Z</time>
      </trkpt>
      <trkpt lat="41.491626200" lon="1.660293900">
        <ele>486.60</ele>
        <time>2018-05-26T11:34:51Z</time>
      </trkpt>
      <trkpt lat="41.491892700" lon="1.660551000">
        <ele>486.60</ele>
        <time>2018-05-26T11:34:56Z</time>
      </trkpt>
      <trkpt lat="41.492322200" lon="1.660847500">
        <ele>485.60</ele>
        <time>2018-05-26T11:35:03Z</time>
      </trkpt>
      <trkpt lat="41.492807900" lon="1.661208100">
        <ele>484.80</ele>
        <time>2018-05-26T11:35:11Z</time>
      </trkpt>
      <trkpt lat="41.492932900" lon="1.661299600">
        <ele>484.80</ele>
        <time>2018-05-26T11:35:13Z</time>
      </trkpt>
      <trkpt lat="41.493402300" lon="1.661676900">
        <ele>484.20</ele>
        <time>2018-05-26T11:35:20Z</time>
      </trkpt>
      <trkpt lat="41.493713200" lon="1.661902900">
        <ele>483.20</ele>
        <time>2018-05-26T11:35:24Z</time>
      </trkpt>
      <trkpt lat="41.493877300" lon="1.662030100">
        <ele>482.20</ele>
        <time>2018-05-26T11:35:26Z</time>
      </trkpt>
      <trkpt lat="41.494373400" lon="1.662443800">
        <ele>482.20</ele>
        <time>2018-05-26T11:35:32Z</time>
      </trkpt>
      <trkpt lat="41.494528800" lon="1.662606900">
        <ele>482.00</ele>
        <time>2018-05-26T11:35:34Z</time>
      </trkpt>
      <trkpt lat="41.494990200" lon="1.663080600">
        <ele>482.20</ele>
        <time>2018-05-26T11:35:40Z</time>
      </trkpt>
      <trkpt lat="41.495204100" lon="1.663318900">
        <ele>482.20</ele>
        <time>2018-05-26T11:35:43Z</time>
      </trkpt>
      <trkpt lat="41.495470700" lon="1.663646700">
        <ele>483.40</ele>
        <time>2018-05-26T11:35:47Z</time>
      </trkpt>
      <trkpt lat="41.495521000" lon="1.663748600">
        <ele>484.00</ele>
        <time>2018-05-26T11:35:48Z</time>
      </trkpt>
      <trkpt lat="41.495587200" lon="1.663966000">
        <ele>484.60</ele>
        <time>2018-05-26T11:35:50Z</time>
      </trkpt>
      <trkpt lat="41.495620700" lon="1.664318700">
        <ele>485.40</ele>
        <time>2018-05-26T11:35:53Z</time>
      </trkpt>
      <trkpt lat="41.495655700" lon="1.665107700">
        <ele>486.00</ele>
        <time>2018-05-26T11:36:00Z</time>
      </trkpt>
      <trkpt lat="41.495670300" lon="1.665432500">
        <ele>486.80</ele>
        <time>2018-05-26T11:36:03Z</time>
      </trkpt>
      <trkpt lat="41.495704500" lon="1.666087600">
        <ele>487.40</ele>
        <time>2018-05-26T11:36:09Z</time>
      </trkpt>
      <trkpt lat="41.495744300" lon="1.666404000">
        <ele>488.00</ele>
        <time>2018-05-26T11:36:12Z</time>
      </trkpt>
      <trkpt lat="41.495822800" lon="1.666589600">
        <ele>488.40</ele>
        <time>2018-05-26T11:36:14Z</time>
      </trkpt>
      <trkpt lat="41.496042600" lon="1.666736900">
        <ele>488.80</ele>
        <time>2018-05-26T11:36:17Z</time>
      </trkpt>
      <trkpt lat="41.496208800" lon="1.666754900">
        <ele>489.00</ele>
        <time>2018-05-26T11:36:19Z</time>
      </trkpt>
      <trkpt lat="41.496451800" lon="1.666675900">
        <ele>488.80</ele>
        <time>2018-05-26T11:36:22Z</time>
      </trkpt>
      <trkpt lat="41.496692700" lon="1.666642500">
        <ele>488.80</ele>
        <time>2018-05-26T11:36:25Z</time>
      </trkpt>
      <trkpt lat="41.496981900" lon="1.666772800">
        <ele>490.00</ele>
        <time>2018-05-26T11:36:29Z</time>
      </trkpt>
      <trkpt lat="41.497314100" lon="1.667045700">
        <ele>491.20</ele>
        <time>2018-05-26T11:36:34Z</time>
      </trkpt>
      <trkpt lat="41.497776400" lon="1.667396700">
        <ele>490.60</ele>
        <time>2018-05-26T11:36:41Z</time>
      </trkpt>
      <trkpt lat="41.498004700" lon="1.667458300">
        <ele>490.20</ele>
        <time>2018-05-26T11:36:44Z</time>
      </trkpt>
      <trkpt lat="41.498250100" lon="1.667477300">
        <ele>490.40</ele>
        <time>2018-05-26T11:36:47Z</time>
      </trkpt>
      <trkpt lat="41.498642800" lon="1.667551100">
        <ele>490.00</ele>
        <time>2018-05-26T11:36:52Z</time>
      </trkpt>
      <trkpt lat="41.498984200" lon="1.667852000">
        <ele>489.60</ele>
        <time>2018-05-26T11:36:57Z</time>
      </trkpt>
      <trkpt lat="41.499120600" lon="1.667957700">
        <ele>489.80</ele>
        <time>2018-05-26T11:36:59Z</time>
      </trkpt>
      <trkpt lat="41.499278600" lon="1.668019900">
        <ele>490.60</ele>
        <time>2018-05-26T11:37:01Z</time>
      </trkpt>
      <trkpt lat="41.499447300" lon="1.668050000">
        <ele>490.80</ele>
        <time>2018-05-26T11:37:03Z</time>
      </trkpt>
      <trkpt lat="41.499705300" lon="1.668076900">
        <ele>489.80</ele>
        <time>2018-05-26T11:37:06Z</time>
      </trkpt>
      <trkpt lat="41.499971500" lon="1.668084400">
        <ele>489.40</ele>
        <time>2018-05-26T11:37:09Z</time>
      </trkpt>
      <trkpt lat="41.500158100" lon="1.668095700">
        <ele>489.00</ele>
        <time>2018-05-26T11:37:11Z</time>
      </trkpt>
      <trkpt lat="41.500256900" lon="1.668101300">
        <ele>488.40</ele>
        <time>2018-05-26T11:37:12Z</time>
      </trkpt>
      <trkpt lat="41.500354500" lon="1.668106400">
        <ele>487.80</ele>
        <time>2018-05-26T11:37:13Z</time>
      </trkpt>
      <trkpt lat="41.500942100" lon="1.668129200">
        <ele>487.20</ele>
        <time>2018-05-26T11:37:19Z</time>
      </trkpt>
      <trkpt lat="41.501146200" lon="1.668144300">
        <ele>486.60</ele>
        <time>2018-05-26T11:37:21Z</time>
      </trkpt>
      <trkpt lat="41.501355600" lon="1.668165400">
        <ele>485.40</ele>
        <time>2018-05-26T11:37:23Z</time>
      </trkpt>
      <trkpt lat="41.501459300" lon="1.668179000">
        <ele>483.80</ele>
        <time>2018-05-26T11:37:24Z</time>
      </trkpt>
      <trkpt lat="41.501666900" lon="1.668230700">
        <ele>482.60</ele>
        <time>2018-05-26T11:37:26Z</time>
      </trkpt>
      <trkpt lat="41.501770200" lon="1.668260300">
        <ele>482.20</ele>
        <time>2018-05-26T11:37:27Z</time>
      </trkpt>
      <trkpt lat="41.502080900" lon="1.668350400">
        <ele>481.60</ele>
        <time>2018-05-26T11:37:30Z</time>
      </trkpt>
      <trkpt lat="41.502297000" lon="1.668411900">
        <ele>480.60</ele>
        <time>2018-05-26T11:37:32Z</time>
      </trkpt>
      <trkpt lat="41.502511900" lon="1.668477400">
        <ele>479.60</ele>
        <time>2018-05-26T11:37:34Z</time>
      </trkpt>
      <trkpt lat="41.502846700" lon="1.668554000">
        <ele>480.40</ele>
        <time>2018-05-26T11:37:37Z</time>
      </trkpt>
      <trkpt lat="41.503058300" lon="1.668531100">
        <ele>480.60</ele>
        <time>2018-05-26T11:37:39Z</time>
      </trkpt>
      <trkpt lat="41.503356600" lon="1.668334300">
        <ele>481.60</ele>
        <time>2018-05-26T11:37:42Z</time>
      </trkpt>
      <trkpt lat="41.503573100" lon="1.668016100">
        <ele>481.80</ele>
        <time>2018-05-26T11:37:45Z</time>
      </trkpt>
      <trkpt lat="41.503808800" lon="1.667752200">
        <ele>481.00</ele>
        <time>2018-05-26T11:37:48Z</time>
      </trkpt>
      <trkpt lat="41.503906600" lon="1.667702600">
        <ele>481.00</ele>
        <time>2018-05-26T11:37:49Z</time>
      </trkpt>
      <trkpt lat="41.504105000" lon="1.667652600">
        <ele>480.60</ele>
        <time>2018-05-26T11:37:51Z</time>
      </trkpt>
      <trkpt lat="41.504202800" lon="1.667646900">
        <ele>480.60</ele>
        <time>2018-05-26T11:37:52Z</time>
      </trkpt>
      <trkpt lat="41.504486500" lon="1.667757900">
        <ele>480.20</ele>
        <time>2018-05-26T11:37:55Z</time>
      </trkpt>
      <trkpt lat="41.504719100" lon="1.667992400">
        <ele>480.80</ele>
        <time>2018-05-26T11:37:58Z</time>
      </trkpt>
      <trkpt lat="41.504890100" lon="1.668298800">
        <ele>480.80</ele>
        <time>2018-05-26T11:38:01Z</time>
      </trkpt>
      <trkpt lat="41.504943900" lon="1.668404800">
        <ele>480.80</ele>
        <time>2018-05-26T11:38:02Z</time>
      </trkpt>
      <trkpt lat="41.505272400" lon="1.669037400">
        <ele>480.40</ele>
        <time>2018-05-26T11:38:08Z</time>
      </trkpt>
      <trkpt lat="41.505333000" lon="1.669144000">
        <ele>480.00</ele>
        <time>2018-05-26T11:38:09Z</time>
      </trkpt>
      <trkpt lat="41.505512300" lon="1.669452800">
        <ele>480.80</ele>
        <time>2018-05-26T11:38:12Z</time>
      </trkpt>
      <trkpt lat="41.505664700" lon="1.669623300">
        <ele>481.00</ele>
        <time>2018-05-26T11:38:14Z</time>
      </trkpt>
      <trkpt lat="41.505868500" lon="1.669680600">
        <ele>480.80</ele>
        <time>2018-05-26T11:38:16Z</time>
      </trkpt>
      <trkpt lat="41.506189300" lon="1.669603700">
        <ele>481.40</ele>
        <time>2018-05-26T11:38:19Z</time>
      </trkpt>
      <trkpt lat="41.506295500" lon="1.669566200">
        <ele>481.20</ele>
        <time>2018-05-26T11:38:20Z</time>
      </trkpt>
      <trkpt lat="41.506680400" lon="1.669430900">
        <ele>481.80</ele>
        <time>2018-05-26T11:38:24Z</time>
      </trkpt>
      <trkpt lat="41.506856700" lon="1.669364900">
        <ele>483.40</ele>
        <time>2018-05-26T11:38:26Z</time>
      </trkpt>
      <trkpt lat="41.507025500" lon="1.669305800">
        <ele>484.40</ele>
        <time>2018-05-26T11:38:28Z</time>
      </trkpt>
      <trkpt lat="41.507259300" lon="1.669225800">
        <ele>485.60</ele>
        <time>2018-05-26T11:38:31Z</time>
      </trkpt>
      <trkpt lat="41.507469800" lon="1.669151300">
        <ele>487.00</ele>
        <time>2018-05-26T11:38:34Z</time>
      </trkpt>
      <trkpt lat="41.507601000" lon="1.669099500">
        <ele>488.40</ele>
        <time>2018-05-26T11:38:36Z</time>
      </trkpt>
      <trkpt lat="41.507843900" lon="1.669014000">
        <ele>489.60</ele>
        <time>2018-05-26T11:38:40Z</time>
      </trkpt>
      <trkpt lat="41.508024800" lon="1.668948100">
        <ele>490.80</ele>
        <time>2018-05-26T11:38:43Z</time>
      </trkpt>
      <trkpt lat="41.508202100" lon="1.668881100">
        <ele>491.80</ele>
        <time>2018-05-26T11:38:46Z</time>
      </trkpt>
      <trkpt lat="41.508367300" lon="1.668679600">
        <ele>493.00</ele>
        <time>2018-05-26T11:38:50Z</time>
      </trkpt>
      <trkpt lat="41.508440500" lon="1.668394800">
        <ele>494.00</ele>
        <time>2018-05-26T11:38:54Z</time>
      </trkpt>
      <trkpt lat="41.508536600" lon="1.668138900">
        <ele>495.00</ele>
        <time>2018-05-26T11:38:58Z</time>
      </trkpt>
      <trkpt lat="41.508747800" lon="1.668144000">
        <ele>496.60</ele>
        <time>2018-05-26T11:39:02Z</time>
      </trkpt>
      <trkpt lat="41.508875600" lon="1.668319900">
        <ele>497.60</ele>
        <time>2018-05-26T11:39:05Z</time>
      </trkpt>
      <trkpt lat="41.508943100" lon="1.668455200">
        <ele>498.20</ele>
        <time>2018-05-26T11:39:07Z</time>
      </trkpt>
      <trkpt lat="41.509010800" lon="1.668599400">
        <ele>498.80</ele>
        <time>2018-05-26T11:39:09Z</time>
      </trkpt>
      <trkpt lat="41.509091700" lon="1.668752400">
        <ele>499.00</ele>
        <time>2018-05-26T11:39:11Z</time>
      </trkpt>
      <trkpt lat="41.509293100" lon="1.669055900">
        <ele>498.80</ele>
        <time>2018-05-26T11:39:15Z</time>
      </trkpt>
      <trkpt lat="41.509612200" lon="1.669189100">
        <ele>497.80</ele>
        <time>2018-05-26T11:39:19Z</time>
      </trkpt>
      <trkpt lat="41.509802000" lon="1.669192000">
        <ele>497.00</ele>
        <time>2018-05-26T11:39:21Z</time>
      </trkpt>
      <trkpt lat="41.509995100" lon="1.669190600">
        <ele>496.40</ele>
        <time>2018-05-26T11:39:23Z</time>
      </trkpt>
      <trkpt lat="41.510087300" lon="1.669191200">
        <ele>494.80</ele>
        <time>2018-05-26T11:39:24Z</time>
      </trkpt>
      <trkpt lat="41.510667600" lon="1.669213300">
        <ele>493.80</ele>
        <time>2018-05-26T11:39:30Z</time>
      </trkpt>
      <trkpt lat="41.510765500" lon="1.669224700">
        <ele>493.40</ele>
        <time>2018-05-26T11:39:31Z</time>
      </trkpt>
      <trkpt lat="41.511058500" lon="1.669247700">
        <ele>491.80</ele>
        <time>2018-05-26T11:39:34Z</time>
      </trkpt>
      <trkpt lat="41.511154100" lon="1.669271500">
        <ele>490.40</ele>
        <time>2018-05-26T11:39:35Z</time>
      </trkpt>
      <trkpt lat="41.511330300" lon="1.669364100">
        <ele>490.00</ele>
        <time>2018-05-26T11:39:37Z</time>
      </trkpt>
      <trkpt lat="41.511410900" lon="1.669440800">
        <ele>490.60</ele>
        <time>2018-05-26T11:39:38Z</time>
      </trkpt>
      <trkpt lat="41.511613800" lon="1.669757400">
        <ele>490.40</ele>
        <time>2018-05-26T11:39:41Z</time>
      </trkpt>
      <trkpt lat="41.511725200" lon="1.670170200">
        <ele>489.60</ele>
        <time>2018-05-26T11:39:44Z</time>
      </trkpt>
      <trkpt lat="41.511807300" lon="1.670453500">
        <ele>489.20</ele>
        <time>2018-05-26T11:39:46Z</time>
      </trkpt>
      <trkpt lat="41.511952600" lon="1.671021200">
        <ele>488.00</ele>
        <time>2018-05-26T11:39:50Z</time>
      </trkpt>
      <trkpt lat="41.512110400" lon="1.671566100">
        <ele>487.00</ele>
        <time>2018-05-26T11:39:54Z</time>
      </trkpt>
      <trkpt lat="41.512148100" lon="1.671702500">
        <ele>486.80</ele>
        <time>2018-05-26T11:39:55Z</time>
      </trkpt>
      <trkpt lat="41.512288800" lon="1.672247400">
        <ele>485.40</ele>
        <time>2018-05-26T11:39:59Z</time>
      </trkpt>
      <trkpt lat="41.512400000" lon="1.672493400">
        <ele>484.00</ele>
        <time>2018-05-26T11:40:01Z</time>
      </trkpt>
      <trkpt lat="41.512584700" lon="1.672662300">
        <ele>484.00</ele>
        <time>2018-05-26T11:40:03Z</time>
      </trkpt>
      <trkpt lat="41.512747200" lon="1.673045200">
        <ele>483.40</ele>
        <time>2018-05-26T11:40:06Z</time>
      </trkpt>
      <trkpt lat="41.512777600" lon="1.673187100">
        <ele>483.40</ele>
        <time>2018-05-26T11:40:07Z</time>
      </trkpt>
      <trkpt lat="41.512855000" lon="1.673735500">
        <ele>483.60</ele>
        <time>2018-05-26T11:40:11Z</time>
      </trkpt>
      <trkpt lat="41.512843700" lon="1.673992900">
        <ele>484.40</ele>
        <time>2018-05-26T11:40:13Z</time>
      </trkpt>
      <trkpt lat="41.512823800" lon="1.674119300">
        <ele>484.80</ele>
        <time>2018-05-26T11:40:14Z</time>
      </trkpt>
      <trkpt lat="41.512784100" lon="1.674228600">
        <ele>485.40</ele>
        <time>2018-05-26T11:40:15Z</time>
      </trkpt>
      <trkpt lat="41.512687400" lon="1.674388600">
        <ele>486.80</ele>
        <time>2018-05-26T11:40:17Z</time>
      </trkpt>
      <trkpt lat="41.512507100" lon="1.674550500">
        <ele>487.40</ele>
        <time>2018-05-26T11:40:20Z</time>
      </trkpt>
      <trkpt lat="41.512408500" lon="1.674578400">
        <ele>487.20</ele>
        <time>2018-05-26T11:40:21Z</time>
      </trkpt>
      <trkpt lat="41.512198600" lon="1.674660800">
        <ele>486.80</ele>
        <time>2018-05-26T11:40:23Z</time>
      </trkpt>
      <trkpt lat="41.512011000" lon="1.674925000">
        <ele>485.80</ele>
        <time>2018-05-26T11:40:26Z</time>
      </trkpt>
      <trkpt lat="41.512065800" lon="1.675141000">
        <ele>484.20</ele>
        <time>2018-05-26T11:40:28Z</time>
      </trkpt>
      <trkpt lat="41.512261700" lon="1.675262100">
        <ele>483.00</ele>
        <time>2018-05-26T11:40:30Z</time>
      </trkpt>
      <trkpt lat="41.512497300" lon="1.675325700">
        <ele>481.80</ele>
        <time>2018-05-26T11:40:32Z</time>
      </trkpt>
      <trkpt lat="41.512619400" lon="1.675356800">
        <ele>481.00</ele>
        <time>2018-05-26T11:40:33Z</time>
      </trkpt>
      <trkpt lat="41.512743100" lon="1.675388200">
        <ele>480.40</ele>
        <time>2018-05-26T11:40:34Z</time>
      </trkpt>
      <trkpt lat="41.513000600" lon="1.675456100">
        <ele>479.20</ele>
        <time>2018-05-26T11:40:36Z</time>
      </trkpt>
      <trkpt lat="41.513128600" lon="1.675493500">
        <ele>477.60</ele>
        <time>2018-05-26T11:40:37Z</time>
      </trkpt>
      <trkpt lat="41.513367800" lon="1.675595600">
        <ele>476.00</ele>
        <time>2018-05-26T11:40:39Z</time>
      </trkpt>
      <trkpt lat="41.513531900" lon="1.675819300">
        <ele>474.60</ele>
        <time>2018-05-26T11:40:41Z</time>
      </trkpt>
      <trkpt lat="41.513552800" lon="1.676097400">
        <ele>472.80</ele>
        <time>2018-05-26T11:40:43Z</time>
      </trkpt>
      <trkpt lat="41.513518100" lon="1.676235000">
        <ele>471.20</ele>
        <time>2018-05-26T11:40:44Z</time>
      </trkpt>
      <trkpt lat="41.513475300" lon="1.676368600">
        <ele>470.60</ele>
        <time>2018-05-26T11:40:45Z</time>
      </trkpt>
      <trkpt lat="41.513444200" lon="1.676513400">
        <ele>470.20</ele>
        <time>2018-05-26T11:40:46Z</time>
      </trkpt>
      <trkpt lat="41.513518700" lon="1.676788600">
        <ele>470.00</ele>
        <time>2018-05-26T11:40:48Z</time>
      </trkpt>
      <trkpt lat="41.513686700" lon="1.676909500">
        <ele>469.00</ele>
        <time>2018-05-26T11:40:50Z</time>
      </trkpt>
      <trkpt lat="41.513823600" lon="1.676964900">
        <ele>468.20</ele>
        <time>2018-05-26T11:40:52Z</time>
      </trkpt>
      <trkpt lat="41.513994600" lon="1.676938400">
        <ele>466.80</ele>
        <time>2018-05-26T11:40:54Z</time>
      </trkpt>
      <trkpt lat="41.514141900" lon="1.676855500">
        <ele>466.20</ele>
        <time>2018-05-26T11:40:55Z</time>
      </trkpt>
      <trkpt lat="41.514286300" lon="1.676799200">
        <ele>465.60</ele>
        <time>2018-05-26T11:40:56Z</time>
      </trkpt>
      <trkpt lat="41.514530500" lon="1.676756900">
        <ele>465.00</ele>
        <time>2018-05-26T11:40:58Z</time>
      </trkpt>
      <trkpt lat="41.514645800" lon="1.676810700">
        <ele>464.80</ele>
        <time>2018-05-26T11:40:59Z</time>
      </trkpt>
      <trkpt lat="41.514823800" lon="1.676987400">
        <ele>463.00</ele>
        <time>2018-05-26T11:41:01Z</time>
      </trkpt>
      <trkpt lat="41.514933000" lon="1.677047000">
        <ele>463.20</ele>
        <time>2018-05-26T11:41:02Z</time>
      </trkpt>
      <trkpt lat="41.515149300" lon="1.677096000">
        <ele>463.80</ele>
        <time>2018-05-26T11:41:04Z</time>
      </trkpt>
      <trkpt lat="41.515284800" lon="1.677029700">
        <ele>463.60</ele>
        <time>2018-05-26T11:41:05Z</time>
      </trkpt>
      <trkpt lat="41.515654800" lon="1.677092300">
        <ele>462.20</ele>
        <time>2018-05-26T11:41:08Z</time>
      </trkpt>
      <trkpt lat="41.515778100" lon="1.677132400">
        <ele>461.00</ele>
        <time>2018-05-26T11:41:09Z</time>
      </trkpt>
      <trkpt lat="41.515885000" lon="1.677217500">
        <ele>459.60</ele>
        <time>2018-05-26T11:41:10Z</time>
      </trkpt>
      <trkpt lat="41.515969800" lon="1.677297900">
        <ele>458.40</ele>
        <time>2018-05-26T11:41:11Z</time>
      </trkpt>
      <trkpt lat="41.515997700" lon="1.677534400">
        <ele>457.20</ele>
        <time>2018-05-26T11:41:13Z</time>
      </trkpt>
      <trkpt lat="41.515920000" lon="1.677790500">
        <ele>457.20</ele>
        <time>2018-05-26T11:41:15Z</time>
      </trkpt>
      <trkpt lat="41.515926200" lon="1.677937100">
        <ele>456.80</ele>
        <time>2018-05-26T11:41:16Z</time>
      </trkpt>
      <trkpt lat="41.515974200" lon="1.678069200">
        <ele>455.60</ele>
        <time>2018-05-26T11:41:17Z</time>
      </trkpt>
      <trkpt lat="41.516144800" lon="1.678282000">
        <ele>454.80</ele>
        <time>2018-05-26T11:41:19Z</time>
      </trkpt>
      <trkpt lat="41.516231300" lon="1.678394000">
        <ele>454.80</ele>
        <time>2018-05-26T11:41:20Z</time>
      </trkpt>
      <trkpt lat="41.516319700" lon="1.678502100">
        <ele>453.80</ele>
        <time>2018-05-26T11:41:21Z</time>
      </trkpt>
      <trkpt lat="41.516420400" lon="1.678580100">
        <ele>452.80</ele>
        <time>2018-05-26T11:41:22Z</time>
      </trkpt>
      <trkpt lat="41.516528700" lon="1.678614200">
        <ele>452.40</ele>
        <time>2018-05-26T11:41:23Z</time>
      </trkpt>
      <trkpt lat="41.516739100" lon="1.678457300">
        <ele>451.80</ele>
        <time>2018-05-26T11:41:25Z</time>
      </trkpt>
      <trkpt lat="41.516811300" lon="1.678332400">
        <ele>450.80</ele>
        <time>2018-05-26T11:41:26Z</time>
      </trkpt>
      <trkpt lat="41.516874600" lon="1.678192400">
        <ele>450.20</ele>
        <time>2018-05-26T11:41:27Z</time>
      </trkpt>
      <trkpt lat="41.516940000" lon="1.678058000">
        <ele>450.00</ele>
        <time>2018-05-26T11:41:28Z</time>
      </trkpt>
      <trkpt lat="41.517067000" lon="1.677780600">
        <ele>449.40</ele>
        <time>2018-05-26T11:41:30Z</time>
      </trkpt>
      <trkpt lat="41.517146900" lon="1.677658400">
        <ele>449.00</ele>
        <time>2018-05-26T11:41:31Z</time>
      </trkpt>
      <trkpt lat="41.517241700" lon="1.677551500">
        <ele>448.40</ele>
        <time>2018-05-26T11:41:32Z</time>
      </trkpt>
      <trkpt lat="41.517350600" lon="1.677478700">
        <ele>448.20</ele>
        <time>2018-05-26T11:41:33Z</time>
      </trkpt>
      <trkpt lat="41.517586600" lon="1.677378300">
        <ele>446.60</ele>
        <time>2018-05-26T11:41:35Z</time>
      </trkpt>
      <trkpt lat="41.517706500" lon="1.677341500">
        <ele>445.80</ele>
        <time>2018-05-26T11:41:36Z</time>
      </trkpt>
      <trkpt lat="41.517826400" lon="1.677306400">
        <ele>445.40</ele>
        <time>2018-05-26T11:41:37Z</time>
      </trkpt>
      <trkpt lat="41.518074400" lon="1.677276400">
        <ele>444.60</ele>
        <time>2018-05-26T11:41:39Z</time>
      </trkpt>
      <trkpt lat="41.518203800" lon="1.677298500">
        <ele>443.80</ele>
        <time>2018-05-26T11:41:40Z</time>
      </trkpt>
      <trkpt lat="41.518444300" lon="1.677380700">
        <ele>441.20</ele>
        <time>2018-05-26T11:41:42Z</time>
      </trkpt>
      <trkpt lat="41.518556700" lon="1.677442900">
        <ele>440.00</ele>
        <time>2018-05-26T11:41:43Z</time>
      </trkpt>
      <trkpt lat="41.518656400" lon="1.677536700">
        <ele>438.60</ele>
        <time>2018-05-26T11:41:44Z</time>
      </trkpt>
      <trkpt lat="41.518723500" lon="1.677668700">
        <ele>438.00</ele>
        <time>2018-05-26T11:41:45Z</time>
      </trkpt>
      <trkpt lat="41.518781800" lon="1.677811100">
        <ele>437.20</ele>
        <time>2018-05-26T11:41:46Z</time>
      </trkpt>
      <trkpt lat="41.518829300" lon="1.677953700">
        <ele>436.20</ele>
        <time>2018-05-26T11:41:47Z</time>
      </trkpt>
      <trkpt lat="41.518876900" lon="1.678099400">
        <ele>436.00</ele>
        <time>2018-05-26T11:41:48Z</time>
      </trkpt>
      <trkpt lat="41.519154800" lon="1.678768000">
        <ele>436.60</ele>
        <time>2018-05-26T11:41:53Z</time>
      </trkpt>
      <trkpt lat="41.519200400" lon="1.678901700">
        <ele>436.60</ele>
        <time>2018-05-26T11:41:54Z</time>
      </trkpt>
      <trkpt lat="41.519336900" lon="1.679294400">
        <ele>434.80</ele>
        <time>2018-05-26T11:41:57Z</time>
      </trkpt>
      <trkpt lat="41.519351300" lon="1.679712900">
        <ele>434.40</ele>
        <time>2018-05-26T11:42:00Z</time>
      </trkpt>
      <trkpt lat="41.519497600" lon="1.680067100">
        <ele>435.00</ele>
        <time>2018-05-26T11:42:03Z</time>
      </trkpt>
      <trkpt lat="41.519761700" lon="1.680290800">
        <ele>433.40</ele>
        <time>2018-05-26T11:42:06Z</time>
      </trkpt>
      <trkpt lat="41.520094500" lon="1.680322300">
        <ele>431.80</ele>
        <time>2018-05-26T11:42:09Z</time>
      </trkpt>
      <trkpt lat="41.520307700" lon="1.680221700">
        <ele>429.80</ele>
        <time>2018-05-26T11:42:11Z</time>
      </trkpt>
      <trkpt lat="41.520417400" lon="1.680205700">
        <ele>428.80</ele>
        <time>2018-05-26T11:42:12Z</time>
      </trkpt>
      <trkpt lat="41.520522500" lon="1.680247400">
        <ele>427.60</ele>
        <time>2018-05-26T11:42:13Z</time>
      </trkpt>
      <trkpt lat="41.520612900" lon="1.680329900">
        <ele>426.80</ele>
        <time>2018-05-26T11:42:14Z</time>
      </trkpt>
      <trkpt lat="41.520691100" lon="1.680432500">
        <ele>425.60</ele>
        <time>2018-05-26T11:42:15Z</time>
      </trkpt>
      <trkpt lat="41.520774100" lon="1.680525100">
        <ele>424.60</ele>
        <time>2018-05-26T11:42:16Z</time>
      </trkpt>
      <trkpt lat="41.520868600" lon="1.680585300">
        <ele>424.00</ele>
        <time>2018-05-26T11:42:17Z</time>
      </trkpt>
      <trkpt lat="41.521073300" lon="1.680549700">
        <ele>425.20</ele>
        <time>2018-05-26T11:42:19Z</time>
      </trkpt>
      <trkpt lat="41.521248600" lon="1.680354200">
        <ele>424.40</ele>
        <time>2018-05-26T11:42:21Z</time>
      </trkpt>
      <trkpt lat="41.521339000" lon="1.680250600">
        <ele>423.40</ele>
        <time>2018-05-26T11:42:22Z</time>
      </trkpt>
      <trkpt lat="41.521539900" lon="1.680078200">
        <ele>421.80</ele>
        <time>2018-05-26T11:42:24Z</time>
      </trkpt>
      <trkpt lat="41.521650900" lon="1.680015200">
        <ele>421.20</ele>
        <time>2018-05-26T11:42:25Z</time>
      </trkpt>
      <trkpt lat="41.521762600" lon="1.679949200">
        <ele>420.60</ele>
        <time>2018-05-26T11:42:26Z</time>
      </trkpt>
      <trkpt lat="41.521986100" lon="1.679785800">
        <ele>419.80</ele>
        <time>2018-05-26T11:42:28Z</time>
      </trkpt>
      <trkpt lat="41.522082700" lon="1.679664100">
        <ele>419.20</ele>
        <time>2018-05-26T11:42:29Z</time>
      </trkpt>
      <trkpt lat="41.522262400" lon="1.679416300">
        <ele>417.40</ele>
        <time>2018-05-26T11:42:31Z</time>
      </trkpt>
      <trkpt lat="41.522377400" lon="1.679328300">
        <ele>415.80</ele>
        <time>2018-05-26T11:42:32Z</time>
      </trkpt>
      <trkpt lat="41.522500200" lon="1.679278200">
        <ele>414.40</ele>
        <time>2018-05-26T11:42:33Z</time>
      </trkpt>
      <trkpt lat="41.522629200" lon="1.679278100">
        <ele>413.40</ele>
        <time>2018-05-26T11:42:34Z</time>
      </trkpt>
      <trkpt lat="41.522757200" lon="1.679314300">
        <ele>412.80</ele>
        <time>2018-05-26T11:42:35Z</time>
      </trkpt>
      <trkpt lat="41.522873300" lon="1.679398800">
        <ele>411.40</ele>
        <time>2018-05-26T11:42:36Z</time>
      </trkpt>
      <trkpt lat="41.522964400" lon="1.679523800">
        <ele>408.20</ele>
        <time>2018-05-26T11:42:37Z</time>
      </trkpt>
      <trkpt lat="41.523033900" lon="1.679670900">
        <ele>407.20</ele>
        <time>2018-05-26T11:42:38Z</time>
      </trkpt>
      <trkpt lat="41.523094600" lon="1.679826900">
        <ele>406.40</ele>
        <time>2018-05-26T11:42:39Z</time>
      </trkpt>
      <trkpt lat="41.523159700" lon="1.679978800">
        <ele>405.40</ele>
        <time>2018-05-26T11:42:40Z</time>
      </trkpt>
      <trkpt lat="41.523225600" lon="1.680126700">
        <ele>404.20</ele>
        <time>2018-05-26T11:42:41Z</time>
      </trkpt>
      <trkpt lat="41.523287700" lon="1.680281300">
        <ele>403.60</ele>
        <time>2018-05-26T11:42:42Z</time>
      </trkpt>
      <trkpt lat="41.523493100" lon="1.680714600">
        <ele>403.60</ele>
        <time>2018-05-26T11:42:45Z</time>
      </trkpt>
      <trkpt lat="41.523583100" lon="1.680836900">
        <ele>402.80</ele>
        <time>2018-05-26T11:42:46Z</time>
      </trkpt>
      <trkpt lat="41.523683000" lon="1.680953800">
        <ele>401.60</ele>
        <time>2018-05-26T11:42:47Z</time>
      </trkpt>
      <trkpt lat="41.523874500" lon="1.681196400">
        <ele>399.80</ele>
        <time>2018-05-26T11:42:49Z</time>
      </trkpt>
      <trkpt lat="41.523952100" lon="1.681339900">
        <ele>399.40</ele>
        <time>2018-05-26T11:42:50Z</time>
      </trkpt>
      <trkpt lat="41.523997100" lon="1.681502300">
        <ele>398.60</ele>
        <time>2018-05-26T11:42:51Z</time>
      </trkpt>
      <trkpt lat="41.524030100" lon="1.681669700">
        <ele>398.20</ele>
        <time>2018-05-26T11:42:52Z</time>
      </trkpt>
      <trkpt lat="41.524113300" lon="1.681987500">
        <ele>396.40</ele>
        <time>2018-05-26T11:42:54Z</time>
      </trkpt>
      <trkpt lat="41.524175000" lon="1.682128400">
        <ele>395.80</ele>
        <time>2018-05-26T11:42:55Z</time>
      </trkpt>
      <trkpt lat="41.524237700" lon="1.682232700">
        <ele>395.40</ele>
        <time>2018-05-26T11:42:56Z</time>
      </trkpt>
      <trkpt lat="41.524387400" lon="1.682298700">
        <ele>396.60</ele>
        <time>2018-05-26T11:42:58Z</time>
      </trkpt>
      <trkpt lat="41.524561600" lon="1.682156800">
        <ele>395.80</ele>
        <time>2018-05-26T11:43:00Z</time>
      </trkpt>
      <trkpt lat="41.524648500" lon="1.682072200">
        <ele>394.00</ele>
        <time>2018-05-26T11:43:01Z</time>
      </trkpt>
      <trkpt lat="41.524758300" lon="1.682034700">
        <ele>392.80</ele>
        <time>2018-05-26T11:43:02Z</time>
      </trkpt>
      <trkpt lat="41.524875900" lon="1.682028000">
        <ele>392.20</ele>
        <time>2018-05-26T11:43:03Z</time>
      </trkpt>
      <trkpt lat="41.524988900" lon="1.682010400">
        <ele>391.20</ele>
        <time>2018-05-26T11:43:04Z</time>
      </trkpt>
      <trkpt lat="41.525102800" lon="1.681955100">
        <ele>390.60</ele>
        <time>2018-05-26T11:43:05Z</time>
      </trkpt>
      <trkpt lat="41.525221200" lon="1.681905600">
        <ele>389.80</ele>
        <time>2018-05-26T11:43:06Z</time>
      </trkpt>
      <trkpt lat="41.525349400" lon="1.681872000">
        <ele>388.60</ele>
        <time>2018-05-26T11:43:07Z</time>
      </trkpt>
      <trkpt lat="41.525471500" lon="1.681851100">
        <ele>387.40</ele>
        <time>2018-05-26T11:43:08Z</time>
      </trkpt>
      <trkpt lat="41.525595000" lon="1.681791200">
        <ele>386.60</ele>
        <time>2018-05-26T11:43:09Z</time>
      </trkpt>
      <trkpt lat="41.525716100" lon="1.681709400">
        <ele>386.00</ele>
        <time>2018-05-26T11:43:10Z</time>
      </trkpt>
      <trkpt lat="41.525958500" lon="1.681573800">
        <ele>385.00</ele>
        <time>2018-05-26T11:43:12Z</time>
      </trkpt>
      <trkpt lat="41.526214100" lon="1.681465900">
        <ele>384.40</ele>
        <time>2018-05-26T11:43:14Z</time>
      </trkpt>
      <trkpt lat="41.526347100" lon="1.681441700">
        <ele>384.00</ele>
        <time>2018-05-26T11:43:15Z</time>
      </trkpt>
      <trkpt lat="41.526484300" lon="1.681447200">
        <ele>382.40</ele>
        <time>2018-05-26T11:43:16Z</time>
      </trkpt>
      <trkpt lat="41.526616500" lon="1.681481600">
        <ele>380.40</ele>
        <time>2018-05-26T11:43:17Z</time>
      </trkpt>
      <trkpt lat="41.526742800" lon="1.681489700">
        <ele>378.60</ele>
        <time>2018-05-26T11:43:18Z</time>
      </trkpt>
      <trkpt lat="41.526971900" lon="1.681372900">
        <ele>377.60</ele>
        <time>2018-05-26T11:43:20Z</time>
      </trkpt>
      <trkpt lat="41.527199100" lon="1.681226800">
        <ele>377.60</ele>
        <time>2018-05-26T11:43:22Z</time>
      </trkpt>
      <trkpt lat="41.527313700" lon="1.681152100">
        <ele>377.20</ele>
        <time>2018-05-26T11:43:23Z</time>
      </trkpt>
      <trkpt lat="41.527419000" lon="1.681059600">
        <ele>376.60</ele>
        <time>2018-05-26T11:43:24Z</time>
      </trkpt>
      <trkpt lat="41.527519900" lon="1.680953300">
        <ele>375.40</ele>
        <time>2018-05-26T11:43:25Z</time>
      </trkpt>
      <trkpt lat="41.527724100" lon="1.680765800">
        <ele>374.20</ele>
        <time>2018-05-26T11:43:27Z</time>
      </trkpt>
      <trkpt lat="41.527842500" lon="1.680716300">
        <ele>373.20</ele>
        <time>2018-05-26T11:43:28Z</time>
      </trkpt>
      <trkpt lat="41.527970600" lon="1.680685400">
        <ele>372.00</ele>
        <time>2018-05-26T11:43:29Z</time>
      </trkpt>
      <trkpt lat="41.528208900" lon="1.680744100">
        <ele>370.40</ele>
        <time>2018-05-26T11:43:31Z</time>
      </trkpt>
      <trkpt lat="41.528466600" lon="1.680729200">
        <ele>368.80</ele>
        <time>2018-05-26T11:43:33Z</time>
      </trkpt>
      <trkpt lat="41.528596100" lon="1.680699800">
        <ele>368.40</ele>
        <time>2018-05-26T11:43:34Z</time>
      </trkpt>
      <trkpt lat="41.528851400" lon="1.680593600">
        <ele>367.60</ele>
        <time>2018-05-26T11:43:36Z</time>
      </trkpt>
      <trkpt lat="41.528972800" lon="1.680522700">
        <ele>367.20</ele>
        <time>2018-05-26T11:43:37Z</time>
      </trkpt>
      <trkpt lat="41.529184100" lon="1.680394600">
        <ele>366.40</ele>
        <time>2018-05-26T11:43:39Z</time>
      </trkpt>
      <trkpt lat="41.529287000" lon="1.680377800">
        <ele>366.00</ele>
        <time>2018-05-26T11:43:40Z</time>
      </trkpt>
      <trkpt lat="41.529461300" lon="1.680526500">
        <ele>364.80</ele>
        <time>2018-05-26T11:43:42Z</time>
      </trkpt>
      <trkpt lat="41.529667200" lon="1.680620600">
        <ele>363.40</ele>
        <time>2018-05-26T11:43:44Z</time>
      </trkpt>
      <trkpt lat="41.529762000" lon="1.680593300">
        <ele>363.20</ele>
        <time>2018-05-26T11:43:45Z</time>
      </trkpt>
      <trkpt lat="41.529909500" lon="1.680386400">
        <ele>363.00</ele>
        <time>2018-05-26T11:43:47Z</time>
      </trkpt>
      <trkpt lat="41.529969500" lon="1.680254800">
        <ele>362.40</ele>
        <time>2018-05-26T11:43:48Z</time>
      </trkpt>
      <trkpt lat="41.530043100" lon="1.680129500">
        <ele>360.40</ele>
        <time>2018-05-26T11:43:49Z</time>
      </trkpt>
      <trkpt lat="41.530124700" lon="1.680005000">
        <ele>359.20</ele>
        <time>2018-05-26T11:43:50Z</time>
      </trkpt>
      <trkpt lat="41.530207900" lon="1.679886200">
        <ele>357.80</ele>
        <time>2018-05-26T11:43:51Z</time>
      </trkpt>
      <trkpt lat="41.530394700" lon="1.679669100">
        <ele>356.00</ele>
        <time>2018-05-26T11:43:53Z</time>
      </trkpt>
      <trkpt lat="41.530495400" lon="1.679580400">
        <ele>355.20</ele>
        <time>2018-05-26T11:43:54Z</time>
      </trkpt>
      <trkpt lat="41.530616500" lon="1.679517900">
        <ele>354.60</ele>
        <time>2018-05-26T11:43:55Z</time>
      </trkpt>
      <trkpt lat="41.530735500" lon="1.679505200">
        <ele>354.60</ele>
        <time>2018-05-26T11:43:56Z</time>
      </trkpt>
      <trkpt lat="41.530978300" lon="1.679580300">
        <ele>354.00</ele>
        <time>2018-05-26T11:43:58Z</time>
      </trkpt>
      <trkpt lat="41.531100800" lon="1.679618000">
        <ele>352.40</ele>
        <time>2018-05-26T11:43:59Z</time>
      </trkpt>
      <trkpt lat="41.531224600" lon="1.679632500">
        <ele>351.40</ele>
        <time>2018-05-26T11:44:00Z</time>
      </trkpt>
      <trkpt lat="41.531352100" lon="1.679649300">
        <ele>350.40</ele>
        <time>2018-05-26T11:44:01Z</time>
      </trkpt>
      <trkpt lat="41.531481600" lon="1.679684900">
        <ele>349.60</ele>
        <time>2018-05-26T11:44:02Z</time>
      </trkpt>
      <trkpt lat="41.531600900" lon="1.679745100">
        <ele>348.80</ele>
        <time>2018-05-26T11:44:03Z</time>
      </trkpt>
      <trkpt lat="41.531708700" lon="1.679832300">
        <ele>347.80</ele>
        <time>2018-05-26T11:44:04Z</time>
      </trkpt>
      <trkpt lat="41.531810400" lon="1.679938800">
        <ele>346.60</ele>
        <time>2018-05-26T11:44:05Z</time>
      </trkpt>
      <trkpt lat="41.531889800" lon="1.680071500">
        <ele>345.20</ele>
        <time>2018-05-26T11:44:06Z</time>
      </trkpt>
      <trkpt lat="41.531959900" lon="1.680211500">
        <ele>344.40</ele>
        <time>2018-05-26T11:44:07Z</time>
      </trkpt>
      <trkpt lat="41.532034200" lon="1.680349600">
        <ele>344.00</ele>
        <time>2018-05-26T11:44:08Z</time>
      </trkpt>
      <trkpt lat="41.532188400" lon="1.680623600">
        <ele>342.60</ele>
        <time>2018-05-26T11:44:10Z</time>
      </trkpt>
      <trkpt lat="41.532264000" lon="1.680757800">
        <ele>341.60</ele>
        <time>2018-05-26T11:44:11Z</time>
      </trkpt>
      <trkpt lat="41.532337500" lon="1.680883000">
        <ele>340.20</ele>
        <time>2018-05-26T11:44:12Z</time>
      </trkpt>
      <trkpt lat="41.532414000" lon="1.681010800">
        <ele>339.00</ele>
        <time>2018-05-26T11:44:13Z</time>
      </trkpt>
      <trkpt lat="41.532492100" lon="1.681136600">
        <ele>339.20</ele>
        <time>2018-05-26T11:44:14Z</time>
      </trkpt>
      <trkpt lat="41.532741400" lon="1.681706200">
        <ele>337.60</ele>
        <time>2018-05-26T11:44:18Z</time>
      </trkpt>
      <trkpt lat="41.532898700" lon="1.681958500">
        <ele>336.40</ele>
        <time>2018-05-26T11:44:20Z</time>
      </trkpt>
      <trkpt lat="41.533002300" lon="1.682037500">
        <ele>336.20</ele>
        <time>2018-05-26T11:44:21Z</time>
      </trkpt>
      <trkpt lat="41.533239300" lon="1.682075500">
        <ele>336.20</ele>
        <time>2018-05-26T11:44:23Z</time>
      </trkpt>
      <trkpt lat="41.533606500" lon="1.681935600">
        <ele>335.60</ele>
        <time>2018-05-26T11:44:26Z</time>
      </trkpt>
      <trkpt lat="41.533726700" lon="1.681879900">
        <ele>335.20</ele>
        <time>2018-05-26T11:44:27Z</time>
      </trkpt>
      <trkpt lat="41.534200500" lon="1.681616400">
        <ele>334.00</ele>
        <time>2018-05-26T11:44:31Z</time>
      </trkpt>
      <trkpt lat="41.534304700" lon="1.681527100">
        <ele>334.00</ele>
        <time>2018-05-26T11:44:32Z</time>
      </trkpt>
      <trkpt lat="41.534489100" lon="1.681310100">
        <ele>334.00</ele>
        <time>2018-05-26T11:44:34Z</time>
      </trkpt>
      <trkpt lat="41.534691200" lon="1.680895900">
        <ele>333.40</ele>
        <time>2018-05-26T11:44:37Z</time>
      </trkpt>
      <trkpt lat="41.534818800" lon="1.680622600">
        <ele>332.80</ele>
        <time>2018-05-26T11:44:39Z</time>
      </trkpt>
      <trkpt lat="41.534944600" lon="1.680356300">
        <ele>331.80</ele>
        <time>2018-05-26T11:44:41Z</time>
      </trkpt>
      <trkpt lat="41.535021800" lon="1.680241700">
        <ele>331.40</ele>
        <time>2018-05-26T11:44:42Z</time>
      </trkpt>
      <trkpt lat="41.535111000" lon="1.680144700">
        <ele>331.40</ele>
        <time>2018-05-26T11:44:43Z</time>
      </trkpt>
      <trkpt lat="41.535405100" lon="1.679919800">
        <ele>331.80</ele>
        <time>2018-05-26T11:44:46Z</time>
      </trkpt>
      <trkpt lat="41.535781800" lon="1.679641600">
        <ele>330.60</ele>
        <time>2018-05-26T11:44:50Z</time>
      </trkpt>
      <trkpt lat="41.535884200" lon="1.679592700">
        <ele>331.00</ele>
        <time>2018-05-26T11:44:51Z</time>
      </trkpt>
      <trkpt lat="41.536090700" lon="1.679515600">
        <ele>332.00</ele>
        <time>2018-05-26T11:44:53Z</time>
      </trkpt>
      <trkpt lat="41.536310300" lon="1.679549600">
        <ele>331.20</ele>
        <time>2018-05-26T11:44:55Z</time>
      </trkpt>
      <trkpt lat="41.536407400" lon="1.679612200">
        <ele>330.60</ele>
        <time>2018-05-26T11:44:56Z</time>
      </trkpt>
      <trkpt lat="41.536592300" lon="1.679757800">
        <ele>329.60</ele>
        <time>2018-05-26T11:44:58Z</time>
      </trkpt>
      <trkpt lat="41.536682900" lon="1.679820800">
        <ele>328.80</ele>
        <time>2018-05-26T11:44:59Z</time>
      </trkpt>
      <trkpt lat="41.537122800" lon="1.680138900">
        <ele>329.20</ele>
        <time>2018-05-26T11:45:04Z</time>
      </trkpt>
      <trkpt lat="41.537626200" lon="1.680530200">
        <ele>329.80</ele>
        <time>2018-05-26T11:45:10Z</time>
      </trkpt>
      <trkpt lat="41.537701800" lon="1.680615600">
        <ele>330.40</ele>
        <time>2018-05-26T11:45:11Z</time>
      </trkpt>
      <trkpt lat="41.537767600" lon="1.680712700">
        <ele>330.40</ele>
        <time>2018-05-26T11:45:12Z</time>
      </trkpt>
      <trkpt lat="41.537900600" lon="1.680908400">
        <ele>330.20</ele>
        <time>2018-05-26T11:45:14Z</time>
      </trkpt>
      <trkpt lat="41.538027700" lon="1.681096300">
        <ele>329.20</ele>
        <time>2018-05-26T11:45:16Z</time>
      </trkpt>
      <trkpt lat="41.538247300" lon="1.681343200">
        <ele>327.60</ele>
        <time>2018-05-26T11:45:19Z</time>
      </trkpt>
      <trkpt lat="41.538342600" lon="1.681379400">
        <ele>327.20</ele>
        <time>2018-05-26T11:45:20Z</time>
      </trkpt>
      <trkpt lat="41.538536500" lon="1.681268500">
        <ele>327.80</ele>
        <time>2018-05-26T11:45:22Z</time>
      </trkpt>
      <trkpt lat="41.538708100" lon="1.681051900">
        <ele>328.40</ele>
        <time>2018-05-26T11:45:24Z</time>
      </trkpt>
      <trkpt lat="41.538776800" lon="1.680916900">
        <ele>328.20</ele>
        <time>2018-05-26T11:45:25Z</time>
      </trkpt>
      <trkpt lat="41.538860900" lon="1.680600500">
        <ele>326.00</ele>
        <time>2018-05-26T11:45:27Z</time>
      </trkpt>
      <trkpt lat="41.538873700" lon="1.680432400">
        <ele>324.80</ele>
        <time>2018-05-26T11:45:28Z</time>
      </trkpt>
      <trkpt lat="41.538885300" lon="1.680258500">
        <ele>323.60</ele>
        <time>2018-05-26T11:45:29Z</time>
      </trkpt>
      <trkpt lat="41.538898700" lon="1.680085100">
        <ele>322.60</ele>
        <time>2018-05-26T11:45:30Z</time>
      </trkpt>
      <trkpt lat="41.538905600" lon="1.679917500">
        <ele>321.40</ele>
        <time>2018-05-26T11:45:31Z</time>
      </trkpt>
      <trkpt lat="41.538941900" lon="1.679567800">
        <ele>320.20</ele>
        <time>2018-05-26T11:45:33Z</time>
      </trkpt>
      <trkpt lat="41.538931800" lon="1.679063600">
        <ele>318.60</ele>
        <time>2018-05-26T11:45:36Z</time>
      </trkpt>
      <trkpt lat="41.538875600" lon="1.678912100">
        <ele>317.80</ele>
        <time>2018-05-26T11:45:37Z</time>
      </trkpt>
      <trkpt lat="41.538795300" lon="1.678799400">
        <ele>317.40</ele>
        <time>2018-05-26T11:45:38Z</time>
      </trkpt>
      <trkpt lat="41.538706500" lon="1.678685400">
        <ele>316.80</ele>
        <time>2018-05-26T11:45:39Z</time>
      </trkpt>
      <trkpt lat="41.538626000" lon="1.678553300">
        <ele>315.80</ele>
        <time>2018-05-26T11:45:40Z</time>
      </trkpt>
      <trkpt lat="41.538588900" lon="1.678403900">
        <ele>314.40</ele>
        <time>2018-05-26T11:45:41Z</time>
      </trkpt>
      <trkpt lat="41.538594700" lon="1.678240900">
        <ele>314.00</ele>
        <time>2018-05-26T11:45:42Z</time>
      </trkpt>
      <trkpt lat="41.538632200" lon="1.678089000">
        <ele>313.40</ele>
        <time>2018-05-26T11:45:43Z</time>
      </trkpt>
      <trkpt lat="41.538688200" lon="1.677950400">
        <ele>313.60</ele>
        <time>2018-05-26T11:45:44Z</time>
      </trkpt>
      <trkpt lat="41.538830900" lon="1.677734700">
        <ele>312.20</ele>
        <time>2018-05-26T11:45:46Z</time>
      </trkpt>
      <trkpt lat="41.538937200" lon="1.677682300">
        <ele>310.80</ele>
        <time>2018-05-26T11:45:47Z</time>
      </trkpt>
      <trkpt lat="41.539114000" lon="1.677714000">
        <ele>313.40</ele>
        <time>2018-05-26T11:45:49Z</time>
      </trkpt>
      <trkpt lat="41.539266700" lon="1.677810000">
        <ele>316.40</ele>
        <time>2018-05-26T11:45:51Z</time>
      </trkpt>
      <trkpt lat="41.539399700" lon="1.677966400">
        <ele>317.20</ele>
        <time>2018-05-26T11:45:53Z</time>
      </trkpt>
      <trkpt lat="41.539715500" lon="1.678354200">
        <ele>318.60</ele>
        <time>2018-05-26T11:45:58Z</time>
      </trkpt>
      <trkpt lat="41.540047700" lon="1.678802300">
        <ele>320.20</ele>
        <time>2018-05-26T11:46:04Z</time>
      </trkpt>
      <trkpt lat="41.540158100" lon="1.679090000">
        <ele>321.20</ele>
        <time>2018-05-26T11:46:07Z</time>
      </trkpt>
      <trkpt lat="41.540257100" lon="1.679374500">
        <ele>322.20</ele>
        <time>2018-05-26T11:46:10Z</time>
      </trkpt>
      <trkpt lat="41.540376400" lon="1.679473200">
        <ele>323.20</ele>
        <time>2018-05-26T11:46:12Z</time>
      </trkpt>
      <trkpt lat="41.540575800" lon="1.679501300">
        <ele>324.80</ele>
        <time>2018-05-26T11:46:15Z</time>
      </trkpt>
      <trkpt lat="41.540711100" lon="1.679481600">
        <ele>325.20</ele>
        <time>2018-05-26T11:46:17Z</time>
      </trkpt>
      <trkpt lat="41.540991800" lon="1.679452500">
        <ele>326.60</ele>
        <time>2018-05-26T11:46:21Z</time>
      </trkpt>
      <trkpt lat="41.541250500" lon="1.679431000">
        <ele>327.80</ele>
        <time>2018-05-26T11:46:25Z</time>
      </trkpt>
      <trkpt lat="41.541362400" lon="1.679401100">
        <ele>328.60</ele>
        <time>2018-05-26T11:46:27Z</time>
      </trkpt>
      <trkpt lat="41.541578900" lon="1.679321500">
        <ele>330.20</ele>
        <time>2018-05-26T11:46:31Z</time>
      </trkpt>
      <trkpt lat="41.541665800" lon="1.679225300">
        <ele>330.60</ele>
        <time>2018-05-26T11:46:33Z</time>
      </trkpt>
      <trkpt lat="41.541741200" lon="1.679105100">
        <ele>331.20</ele>
        <time>2018-05-26T11:46:35Z</time>
      </trkpt>
      <trkpt lat="41.541893500" lon="1.678849800">
        <ele>332.20</ele>
        <time>2018-05-26T11:46:39Z</time>
      </trkpt>
      <trkpt lat="41.542169300" lon="1.678421500">
        <ele>332.80</ele>
        <time>2018-05-26T11:46:46Z</time>
      </trkpt>
      <trkpt lat="41.542387700" lon="1.678123700">
        <ele>332.80</ele>
        <time>2018-05-26T11:46:51Z</time>
      </trkpt>
      <trkpt lat="41.542689000" lon="1.677955200">
        <ele>333.20</ele>
        <time>2018-05-26T11:46:56Z</time>
      </trkpt>
      <trkpt lat="41.542961200" lon="1.677870100">
        <ele>333.60</ele>
        <time>2018-05-26T11:47:00Z</time>
      </trkpt>
      <trkpt lat="41.543298600" lon="1.677744700">
        <ele>333.40</ele>
        <time>2018-05-26T11:47:05Z</time>
      </trkpt>
      <trkpt lat="41.543565800" lon="1.677649800">
        <ele>334.80</ele>
        <time>2018-05-26T11:47:09Z</time>
      </trkpt>
      <trkpt lat="41.543983100" lon="1.677498700">
        <ele>334.00</ele>
        <time>2018-05-26T11:47:15Z</time>
      </trkpt>
      <trkpt lat="41.544523400" lon="1.677340900">
        <ele>333.80</ele>
        <time>2018-05-26T11:47:22Z</time>
      </trkpt>
      <trkpt lat="41.544941900" lon="1.677434300">
        <ele>333.00</ele>
        <time>2018-05-26T11:47:27Z</time>
      </trkpt>
      <trkpt lat="41.545200700" lon="1.677513600">
        <ele>332.80</ele>
        <time>2018-05-26T11:47:30Z</time>
      </trkpt>
      <trkpt lat="41.545462500" lon="1.677541200">
        <ele>332.00</ele>
        <time>2018-05-26T11:47:33Z</time>
      </trkpt>
      <trkpt lat="41.545551300" lon="1.677516500">
        <ele>331.60</ele>
        <time>2018-05-26T11:47:34Z</time>
      </trkpt>
      <trkpt lat="41.545743400" lon="1.677437200">
        <ele>330.80</ele>
        <time>2018-05-26T11:47:36Z</time>
      </trkpt>
      <trkpt lat="41.545841000" lon="1.677399500">
        <ele>330.40</ele>
        <time>2018-05-26T11:47:37Z</time>
      </trkpt>
      <trkpt lat="41.545949200" lon="1.677387100">
        <ele>330.00</ele>
        <time>2018-05-26T11:47:38Z</time>
      </trkpt>
      <trkpt lat="41.546049400" lon="1.677440400">
        <ele>329.40</ele>
        <time>2018-05-26T11:47:39Z</time>
      </trkpt>
      <trkpt lat="41.546139200" lon="1.677527900">
        <ele>328.40</ele>
        <time>2018-05-26T11:47:40Z</time>
      </trkpt>
      <trkpt lat="41.546218100" lon="1.677631600">
        <ele>327.60</ele>
        <time>2018-05-26T11:47:41Z</time>
      </trkpt>
      <trkpt lat="41.546301500" lon="1.677736700">
        <ele>327.00</ele>
        <time>2018-05-26T11:47:42Z</time>
      </trkpt>
      <trkpt lat="41.546388400" lon="1.677836900">
        <ele>325.80</ele>
        <time>2018-05-26T11:47:43Z</time>
      </trkpt>
      <trkpt lat="41.546567100" lon="1.678038500">
        <ele>324.80</ele>
        <time>2018-05-26T11:47:45Z</time>
      </trkpt>
      <trkpt lat="41.546741600" lon="1.678237900">
        <ele>323.00</ele>
        <time>2018-05-26T11:47:47Z</time>
      </trkpt>
      <trkpt lat="41.547095100" lon="1.678634500">
        <ele>322.60</ele>
        <time>2018-05-26T11:47:51Z</time>
      </trkpt>
      <trkpt lat="41.547373200" lon="1.678898200">
        <ele>322.00</ele>
        <time>2018-05-26T11:47:54Z</time>
      </trkpt>
      <trkpt lat="41.547468900" lon="1.678930100">
        <ele>321.60</ele>
        <time>2018-05-26T11:47:55Z</time>
      </trkpt>
      <trkpt lat="41.547662800" lon="1.678843700">
        <ele>322.00</ele>
        <time>2018-05-26T11:47:57Z</time>
      </trkpt>
      <trkpt lat="41.547766000" lon="1.678605100">
        <ele>321.80</ele>
        <time>2018-05-26T11:47:59Z</time>
      </trkpt>
      <trkpt lat="41.547794000" lon="1.678481800">
        <ele>321.60</ele>
        <time>2018-05-26T11:48:00Z</time>
      </trkpt>
      <trkpt lat="41.547770000" lon="1.678356400">
        <ele>321.00</ele>
        <time>2018-05-26T11:48:01Z</time>
      </trkpt>
      <trkpt lat="41.547726300" lon="1.678239100">
        <ele>320.40</ele>
        <time>2018-05-26T11:48:02Z</time>
      </trkpt>
      <trkpt lat="41.547607600" lon="1.677973600">
        <ele>318.80</ele>
        <time>2018-05-26T11:48:04Z</time>
      </trkpt>
      <trkpt lat="41.547562100" lon="1.677821600">
        <ele>318.00</ele>
        <time>2018-05-26T11:48:05Z</time>
      </trkpt>
      <trkpt lat="41.547513500" lon="1.677670800">
        <ele>317.00</ele>
        <time>2018-05-26T11:48:06Z</time>
      </trkpt>
      <trkpt lat="41.547409600" lon="1.677365300">
        <ele>315.20</ele>
        <time>2018-05-26T11:48:08Z</time>
      </trkpt>
      <trkpt lat="41.547280100" lon="1.677071400">
        <ele>313.60</ele>
        <time>2018-05-26T11:48:10Z</time>
      </trkpt>
      <trkpt lat="41.547210400" lon="1.676932300">
        <ele>313.00</ele>
        <time>2018-05-26T11:48:11Z</time>
      </trkpt>
      <trkpt lat="41.547135200" lon="1.676793300">
        <ele>312.40</ele>
        <time>2018-05-26T11:48:12Z</time>
      </trkpt>
      <trkpt lat="41.547057600" lon="1.676655400">
        <ele>310.60</ele>
        <time>2018-05-26T11:48:13Z</time>
      </trkpt>
      <trkpt lat="41.546903800" lon="1.676383700">
        <ele>309.00</ele>
        <time>2018-05-26T11:48:15Z</time>
      </trkpt>
      <trkpt lat="41.546839300" lon="1.676240900">
        <ele>308.40</ele>
        <time>2018-05-26T11:48:16Z</time>
      </trkpt>
      <trkpt lat="41.546826400" lon="1.676071300">
        <ele>307.60</ele>
        <time>2018-05-26T11:48:17Z</time>
      </trkpt>
      <trkpt lat="41.546850900" lon="1.675895400">
        <ele>306.60</ele>
        <time>2018-05-26T11:48:18Z</time>
      </trkpt>
      <trkpt lat="41.546889500" lon="1.675720600">
        <ele>305.80</ele>
        <time>2018-05-26T11:48:19Z</time>
      </trkpt>
      <trkpt lat="41.546981100" lon="1.675371800">
        <ele>303.80</ele>
        <time>2018-05-26T11:48:21Z</time>
      </trkpt>
      <trkpt lat="41.547029400" lon="1.675196500">
        <ele>302.80</ele>
        <time>2018-05-26T11:48:22Z</time>
      </trkpt>
      <trkpt lat="41.547126500" lon="1.674855400">
        <ele>301.20</ele>
        <time>2018-05-26T11:48:24Z</time>
      </trkpt>
      <trkpt lat="41.547158300" lon="1.674680900">
        <ele>299.60</ele>
        <time>2018-05-26T11:48:25Z</time>
      </trkpt>
      <trkpt lat="41.547169500" lon="1.674500300">
        <ele>298.00</ele>
        <time>2018-05-26T11:48:26Z</time>
      </trkpt>
      <trkpt lat="41.547167200" lon="1.674321500">
        <ele>297.00</ele>
        <time>2018-05-26T11:48:27Z</time>
      </trkpt>
      <trkpt lat="41.547164200" lon="1.673959900">
        <ele>296.40</ele>
        <time>2018-05-26T11:48:29Z</time>
      </trkpt>
      <trkpt lat="41.547164800" lon="1.673586200">
        <ele>295.40</ele>
        <time>2018-05-26T11:48:31Z</time>
      </trkpt>
      <trkpt lat="41.547169400" lon="1.673206100">
        <ele>293.80</ele>
        <time>2018-05-26T11:48:33Z</time>
      </trkpt>
      <trkpt lat="41.547188900" lon="1.673018100">
        <ele>292.80</ele>
        <time>2018-05-26T11:48:34Z</time>
      </trkpt>
      <trkpt lat="41.547212400" lon="1.672833800">
        <ele>291.60</ele>
        <time>2018-05-26T11:48:35Z</time>
      </trkpt>
      <trkpt lat="41.547256000" lon="1.672657300">
        <ele>290.40</ele>
        <time>2018-05-26T11:48:36Z</time>
      </trkpt>
      <trkpt lat="41.547305300" lon="1.672479000">
        <ele>289.40</ele>
        <time>2018-05-26T11:48:37Z</time>
      </trkpt>
      <trkpt lat="41.547353700" lon="1.672296300">
        <ele>288.60</ele>
        <time>2018-05-26T11:48:38Z</time>
      </trkpt>
      <trkpt lat="41.547403600" lon="1.672112800">
        <ele>287.80</ele>
        <time>2018-05-26T11:48:39Z</time>
      </trkpt>
      <trkpt lat="41.547458800" lon="1.671930400">
        <ele>286.20</ele>
        <time>2018-05-26T11:48:40Z</time>
      </trkpt>
      <trkpt lat="41.547513700" lon="1.671745200">
        <ele>285.20</ele>
        <time>2018-05-26T11:48:41Z</time>
      </trkpt>
      <trkpt lat="41.547627900" lon="1.671372500">
        <ele>283.00</ele>
        <time>2018-05-26T11:48:43Z</time>
      </trkpt>
      <trkpt lat="41.547682500" lon="1.671185500">
        <ele>281.80</ele>
        <time>2018-05-26T11:48:44Z</time>
      </trkpt>
      <trkpt lat="41.547728000" lon="1.670995900">
        <ele>280.60</ele>
        <time>2018-05-26T11:48:45Z</time>
      </trkpt>
      <trkpt lat="41.547779100" lon="1.670805900">
        <ele>279.60</ele>
        <time>2018-05-26T11:48:46Z</time>
      </trkpt>
      <trkpt lat="41.547824500" lon="1.670631700">
        <ele>278.20</ele>
        <time>2018-05-26T11:48:47Z</time>
      </trkpt>
      <trkpt lat="41.547914400" lon="1.670333200">
        <ele>277.00</ele>
        <time>2018-05-26T11:48:49Z</time>
      </trkpt>
      <trkpt lat="41.547975100" lon="1.670211600">
        <ele>277.00</ele>
        <time>2018-05-26T11:48:50Z</time>
      </trkpt>
      <trkpt lat="41.548174600" lon="1.670080600">
        <ele>276.40</ele>
        <time>2018-05-26T11:48:52Z</time>
      </trkpt>
      <trkpt lat="41.548284000" lon="1.670049800">
        <ele>275.80</ele>
        <time>2018-05-26T11:48:53Z</time>
      </trkpt>
      <trkpt lat="41.548396600" lon="1.670012300">
        <ele>275.60</ele>
        <time>2018-05-26T11:48:54Z</time>
      </trkpt>
      <trkpt lat="41.548505800" lon="1.669966500">
        <ele>275.60</ele>
        <time>2018-05-26T11:48:55Z</time>
      </trkpt>
      <trkpt lat="41.548895000" lon="1.669918600">
        <ele>275.20</ele>
        <time>2018-05-26T11:48:59Z</time>
      </trkpt>
      <trkpt lat="41.549004300" lon="1.670085400">
        <ele>275.40</ele>
        <time>2018-05-26T11:49:01Z</time>
      </trkpt>
      <trkpt lat="41.549052000" lon="1.670321300">
        <ele>274.20</ele>
        <time>2018-05-26T11:49:03Z</time>
      </trkpt>
      <trkpt lat="41.549034100" lon="1.670580500">
        <ele>273.00</ele>
        <time>2018-05-26T11:49:05Z</time>
      </trkpt>
      <trkpt lat="41.549021800" lon="1.670838700">
        <ele>273.40</ele>
        <time>2018-05-26T11:49:07Z</time>
      </trkpt>
      <trkpt lat="41.549012000" lon="1.671106700">
        <ele>274.60</ele>
        <time>2018-05-26T11:49:09Z</time>
      </trkpt>
      <trkpt lat="41.549008100" lon="1.671379600">
        <ele>275.40</ele>
        <time>2018-05-26T11:49:11Z</time>
      </trkpt>
      <trkpt lat="41.549020700" lon="1.671664000">
        <ele>275.00</ele>
        <time>2018-05-26T11:49:13Z</time>
      </trkpt>
      <trkpt lat="41.549065100" lon="1.671942900">
        <ele>274.40</ele>
        <time>2018-05-26T11:49:15Z</time>
      </trkpt>
      <trkpt lat="41.549099600" lon="1.672078000">
        <ele>274.40</ele>
        <time>2018-05-26T11:49:16Z</time>
      </trkpt>
      <trkpt lat="41.549144400" lon="1.672211400">
        <ele>274.40</ele>
        <time>2018-05-26T11:49:17Z</time>
      </trkpt>
      <trkpt lat="41.549223100" lon="1.672478800">
        <ele>274.40</ele>
        <time>2018-05-26T11:49:19Z</time>
      </trkpt>
      <trkpt lat="41.549341000" lon="1.672867000">
        <ele>275.00</ele>
        <time>2018-05-26T11:49:22Z</time>
      </trkpt>
      <trkpt lat="41.549425900" lon="1.673125000">
        <ele>275.40</ele>
        <time>2018-05-26T11:49:24Z</time>
      </trkpt>
      <trkpt lat="41.549476700" lon="1.673252300">
        <ele>275.60</ele>
        <time>2018-05-26T11:49:25Z</time>
      </trkpt>
      <trkpt lat="41.549755900" lon="1.673867400">
        <ele>275.40</ele>
        <time>2018-05-26T11:49:30Z</time>
      </trkpt>
      <trkpt lat="41.549814500" lon="1.673989700">
        <ele>275.40</ele>
        <time>2018-05-26T11:49:31Z</time>
      </trkpt>
      <trkpt lat="41.550196800" lon="1.674673700">
        <ele>275.80</ele>
        <time>2018-05-26T11:49:37Z</time>
      </trkpt>
      <trkpt lat="41.550278200" lon="1.674757700">
        <ele>275.80</ele>
        <time>2018-05-26T11:49:38Z</time>
      </trkpt>
      <trkpt lat="41.550716500" lon="1.675145600">
        <ele>274.80</ele>
        <time>2018-05-26T11:49:43Z</time>
      </trkpt>
      <trkpt lat="41.550804200" lon="1.675223200">
        <ele>274.40</ele>
        <time>2018-05-26T11:49:44Z</time>
      </trkpt>
      <trkpt lat="41.551067600" lon="1.675456500">
        <ele>273.20</ele>
        <time>2018-05-26T11:49:47Z</time>
      </trkpt>
      <trkpt lat="41.551241600" lon="1.675610600">
        <ele>272.60</ele>
        <time>2018-05-26T11:49:49Z</time>
      </trkpt>
      <trkpt lat="41.551412000" lon="1.675759500">
        <ele>272.00</ele>
        <time>2018-05-26T11:49:51Z</time>
      </trkpt>
      <trkpt lat="41.551674100" lon="1.675947400">
        <ele>271.60</ele>
        <time>2018-05-26T11:49:54Z</time>
      </trkpt>
      <trkpt lat="41.551763300" lon="1.675996700">
        <ele>270.80</ele>
        <time>2018-05-26T11:49:55Z</time>
      </trkpt>
      <trkpt lat="41.551861900" lon="1.676001900">
        <ele>270.40</ele>
        <time>2018-05-26T11:49:56Z</time>
      </trkpt>
      <trkpt lat="41.551962500" lon="1.676000900">
        <ele>269.60</ele>
        <time>2018-05-26T11:49:57Z</time>
      </trkpt>
      <trkpt lat="41.552247500" lon="1.675936700">
        <ele>268.00</ele>
        <time>2018-05-26T11:50:00Z</time>
      </trkpt>
      <trkpt lat="41.552335700" lon="1.675908900">
        <ele>267.20</ele>
        <time>2018-05-26T11:50:01Z</time>
      </trkpt>
      <trkpt lat="41.552516500" lon="1.675862100">
        <ele>266.80</ele>
        <time>2018-05-26T11:50:03Z</time>
      </trkpt>
      <trkpt lat="41.552705000" lon="1.675832600">
        <ele>266.00</ele>
        <time>2018-05-26T11:50:05Z</time>
      </trkpt>
      <trkpt lat="41.552802600" lon="1.675823200">
        <ele>265.60</ele>
        <time>2018-05-26T11:50:06Z</time>
      </trkpt>
      <trkpt lat="41.552902700" lon="1.675823200">
        <ele>265.40</ele>
        <time>2018-05-26T11:50:07Z</time>
      </trkpt>
      <trkpt lat="41.553005800" lon="1.675845400">
        <ele>265.00</ele>
        <time>2018-05-26T11:50:08Z</time>
      </trkpt>
      <trkpt lat="41.553217800" lon="1.675908600">
        <ele>264.40</ele>
        <time>2018-05-26T11:50:10Z</time>
      </trkpt>
      <trkpt lat="41.553431300" lon="1.675965800">
        <ele>262.80</ele>
        <time>2018-05-26T11:50:12Z</time>
      </trkpt>
      <trkpt lat="41.553540600" lon="1.675978200">
        <ele>261.40</ele>
        <time>2018-05-26T11:50:13Z</time>
      </trkpt>
      <trkpt lat="41.553650500" lon="1.675969300">
        <ele>261.00</ele>
        <time>2018-05-26T11:50:14Z</time>
      </trkpt>
      <trkpt lat="41.553866500" lon="1.675916700">
        <ele>260.80</ele>
        <time>2018-05-26T11:50:16Z</time>
      </trkpt>
      <trkpt lat="41.553972700" lon="1.675883300">
        <ele>261.00</ele>
        <time>2018-05-26T11:50:17Z</time>
      </trkpt>
      <trkpt lat="41.554175100" lon="1.675823400">
        <ele>261.20</ele>
        <time>2018-05-26T11:50:19Z</time>
      </trkpt>
      <trkpt lat="41.554368300" lon="1.675773100">
        <ele>261.20</ele>
        <time>2018-05-26T11:50:21Z</time>
      </trkpt>
      <trkpt lat="41.554655600" lon="1.675652300">
        <ele>261.20</ele>
        <time>2018-05-26T11:50:24Z</time>
      </trkpt>
      <trkpt lat="41.554744800" lon="1.675582800">
        <ele>261.00</ele>
        <time>2018-05-26T11:50:25Z</time>
      </trkpt>
      <trkpt lat="41.554894300" lon="1.675379300">
        <ele>260.40</ele>
        <time>2018-05-26T11:50:27Z</time>
      </trkpt>
      <trkpt lat="41.554968100" lon="1.675275000">
        <ele>260.40</ele>
        <time>2018-05-26T11:50:28Z</time>
      </trkpt>
      <trkpt lat="41.555041700" lon="1.675170400">
        <ele>260.40</ele>
        <time>2018-05-26T11:50:29Z</time>
      </trkpt>
      <trkpt lat="41.555196700" lon="1.674966500">
        <ele>261.00</ele>
        <time>2018-05-26T11:50:31Z</time>
      </trkpt>
      <trkpt lat="41.555350800" lon="1.674775800">
        <ele>261.60</ele>
        <time>2018-05-26T11:50:33Z</time>
      </trkpt>
      <trkpt lat="41.555584900" lon="1.674515700">
        <ele>262.60</ele>
        <time>2018-05-26T11:50:36Z</time>
      </trkpt>
      <trkpt lat="41.555849200" lon="1.674241700">
        <ele>265.00</ele>
        <time>2018-05-26T11:50:40Z</time>
      </trkpt>
      <trkpt lat="41.556153300" lon="1.673923000">
        <ele>266.20</ele>
        <time>2018-05-26T11:50:45Z</time>
      </trkpt>
      <trkpt lat="41.556278700" lon="1.673809000">
        <ele>267.20</ele>
        <time>2018-05-26T11:50:47Z</time>
      </trkpt>
      <trkpt lat="41.556690200" lon="1.673424700">
        <ele>268.00</ele>
        <time>2018-05-26T11:50:53Z</time>
      </trkpt>
      <trkpt lat="41.556897500" lon="1.673231100">
        <ele>268.40</ele>
        <time>2018-05-26T11:50:56Z</time>
      </trkpt>
      <trkpt lat="41.557175700" lon="1.673003600">
        <ele>269.40</ele>
        <time>2018-05-26T11:51:00Z</time>
      </trkpt>
      <trkpt lat="41.557323200" lon="1.672925300">
        <ele>270.00</ele>
        <time>2018-05-26T11:51:02Z</time>
      </trkpt>
      <trkpt lat="41.557488300" lon="1.672907300">
        <ele>269.80</ele>
        <time>2018-05-26T11:51:04Z</time>
      </trkpt>
      <trkpt lat="41.557925800" lon="1.672938500">
        <ele>270.60</ele>
        <time>2018-05-26T11:51:09Z</time>
      </trkpt>
      <trkpt lat="41.558527200" lon="1.672970500">
        <ele>270.80</ele>
        <time>2018-05-26T11:51:16Z</time>
      </trkpt>
      <trkpt lat="41.559228300" lon="1.673013900">
        <ele>270.20</ele>
        <time>2018-05-26T11:51:24Z</time>
      </trkpt>
      <trkpt lat="41.559745300" lon="1.673063700">
        <ele>270.60</ele>
        <time>2018-05-26T11:51:30Z</time>
      </trkpt>
      <trkpt lat="41.560036800" lon="1.673086700">
        <ele>271.80</ele>
        <time>2018-05-26T11:51:34Z</time>
      </trkpt>
      <trkpt lat="41.560249200" lon="1.673092300">
        <ele>272.60</ele>
        <time>2018-05-26T11:51:37Z</time>
      </trkpt>
      <trkpt lat="41.560396200" lon="1.673104600">
        <ele>273.00</ele>
        <time>2018-05-26T11:51:39Z</time>
      </trkpt>
      <trkpt lat="41.560686200" lon="1.673196100">
        <ele>274.00</ele>
        <time>2018-05-26T11:51:43Z</time>
      </trkpt>
      <trkpt lat="41.561026700" lon="1.673394600">
        <ele>275.40</ele>
        <time>2018-05-26T11:51:48Z</time>
      </trkpt>
      <trkpt lat="41.561230400" lon="1.673519600">
        <ele>276.80</ele>
        <time>2018-05-26T11:51:51Z</time>
      </trkpt>
      <trkpt lat="41.561402800" lon="1.673715000">
        <ele>277.60</ele>
        <time>2018-05-26T11:51:54Z</time>
      </trkpt>
      <trkpt lat="41.561483200" lon="1.673894800">
        <ele>277.20</ele>
        <time>2018-05-26T11:51:56Z</time>
      </trkpt>
      <trkpt lat="41.561656400" lon="1.674218100">
        <ele>277.20</ele>
        <time>2018-05-26T11:52:00Z</time>
      </trkpt>
      <trkpt lat="41.561943700" lon="1.674532800">
        <ele>277.20</ele>
        <time>2018-05-26T11:52:05Z</time>
      </trkpt>
      <trkpt lat="41.562235000" lon="1.674687500">
        <ele>276.80</ele>
        <time>2018-05-26T11:52:09Z</time>
      </trkpt>
      <trkpt lat="41.562566800" lon="1.674705500">
        <ele>276.80</ele>
        <time>2018-05-26T11:52:13Z</time>
      </trkpt>
      <trkpt lat="41.562830400" lon="1.674633500">
        <ele>277.20</ele>
        <time>2018-05-26T11:52:16Z</time>
      </trkpt>
      <trkpt lat="41.562918300" lon="1.674589000">
        <ele>277.00</ele>
        <time>2018-05-26T11:52:17Z</time>
      </trkpt>
      <trkpt lat="41.563090500" lon="1.674473600">
        <ele>276.60</ele>
        <time>2018-05-26T11:52:19Z</time>
      </trkpt>
      <trkpt lat="41.563251400" lon="1.674320400">
        <ele>276.60</ele>
        <time>2018-05-26T11:52:21Z</time>
      </trkpt>
      <trkpt lat="41.563447400" lon="1.674030600">
        <ele>275.80</ele>
        <time>2018-05-26T11:52:24Z</time>
      </trkpt>
      <trkpt lat="41.563501400" lon="1.673926500">
        <ele>275.60</ele>
        <time>2018-05-26T11:52:25Z</time>
      </trkpt>
      <trkpt lat="41.563705700" lon="1.673386600">
        <ele>275.60</ele>
        <time>2018-05-26T11:52:30Z</time>
      </trkpt>
      <trkpt lat="41.563834900" lon="1.672819200">
        <ele>275.60</ele>
        <time>2018-05-26T11:52:35Z</time>
      </trkpt>
      <trkpt lat="41.563875800" lon="1.672227100">
        <ele>276.40</ele>
        <time>2018-05-26T11:52:40Z</time>
      </trkpt>
      <trkpt lat="41.563822900" lon="1.671662600">
        <ele>276.80</ele>
        <time>2018-05-26T11:52:45Z</time>
      </trkpt>
      <trkpt lat="41.563747000" lon="1.671276100">
        <ele>278.00</ele>
        <time>2018-05-26T11:52:49Z</time>
      </trkpt>
      <trkpt lat="41.563685300" lon="1.670980600">
        <ele>279.40</ele>
        <time>2018-05-26T11:52:52Z</time>
      </trkpt>
      <trkpt lat="41.563597700" lon="1.670596600">
        <ele>280.60</ele>
        <time>2018-05-26T11:52:56Z</time>
      </trkpt>
      <trkpt lat="41.563534100" lon="1.670335800">
        <ele>281.60</ele>
        <time>2018-05-26T11:52:59Z</time>
      </trkpt>
      <trkpt lat="41.563472800" lon="1.670079800">
        <ele>282.80</ele>
        <time>2018-05-26T11:53:02Z</time>
      </trkpt>
      <trkpt lat="41.563394600" lon="1.669719500">
        <ele>283.80</ele>
        <time>2018-05-26T11:53:06Z</time>
      </trkpt>
      <trkpt lat="41.563355900" lon="1.669529800">
        <ele>284.60</ele>
        <time>2018-05-26T11:53:08Z</time>
      </trkpt>
      <trkpt lat="41.563316900" lon="1.669330300">
        <ele>285.00</ele>
        <time>2018-05-26T11:53:10Z</time>
      </trkpt>
      <trkpt lat="41.563201900" lon="1.668795800">
        <ele>285.00</ele>
        <time>2018-05-26T11:53:15Z</time>
      </trkpt>
      <trkpt lat="41.563032500" lon="1.668058800">
        <ele>284.20</ele>
        <time>2018-05-26T11:53:21Z</time>
      </trkpt>
      <trkpt lat="41.563002200" lon="1.667924100">
        <ele>283.60</ele>
        <time>2018-05-26T11:53:22Z</time>
      </trkpt>
      <trkpt lat="41.562945500" lon="1.667645900">
        <ele>282.40</ele>
        <time>2018-05-26T11:53:24Z</time>
      </trkpt>
      <trkpt lat="41.562893500" lon="1.667354500">
        <ele>281.00</ele>
        <time>2018-05-26T11:53:26Z</time>
      </trkpt>
      <trkpt lat="41.562871400" lon="1.667204200">
        <ele>280.80</ele>
        <time>2018-05-26T11:53:27Z</time>
      </trkpt>
      <trkpt lat="41.562847600" lon="1.666893200">
        <ele>279.60</ele>
        <time>2018-05-26T11:53:29Z</time>
      </trkpt>
      <trkpt lat="41.562856900" lon="1.666568600">
        <ele>278.20</ele>
        <time>2018-05-26T11:53:31Z</time>
      </trkpt>
      <trkpt lat="41.562912000" lon="1.666056600">
        <ele>277.20</ele>
        <time>2018-05-26T11:53:34Z</time>
      </trkpt>
      <trkpt lat="41.562946300" lon="1.665885600">
        <ele>276.60</ele>
        <time>2018-05-26T11:53:35Z</time>
      </trkpt>
      <trkpt lat="41.562989300" lon="1.665716800">
        <ele>276.20</ele>
        <time>2018-05-26T11:53:36Z</time>
      </trkpt>
      <trkpt lat="41.563091100" lon="1.665391300">
        <ele>275.00</ele>
        <time>2018-05-26T11:53:38Z</time>
      </trkpt>
      <trkpt lat="41.563146600" lon="1.665234300">
        <ele>274.80</ele>
        <time>2018-05-26T11:53:39Z</time>
      </trkpt>
      <trkpt lat="41.563424400" lon="1.664470500">
        <ele>275.20</ele>
        <time>2018-05-26T11:53:44Z</time>
      </trkpt>
      <trkpt lat="41.563479100" lon="1.664324900">
        <ele>275.20</ele>
        <time>2018-05-26T11:53:45Z</time>
      </trkpt>
      <trkpt lat="41.563738600" lon="1.663603100">
        <ele>275.20</ele>
        <time>2018-05-26T11:53:50Z</time>
      </trkpt>
      <trkpt lat="41.563900200" lon="1.663158400">
        <ele>275.80</ele>
        <time>2018-05-26T11:53:53Z</time>
      </trkpt>
      <trkpt lat="41.564175100" lon="1.662398100">
        <ele>275.60</ele>
        <time>2018-05-26T11:53:58Z</time>
      </trkpt>
      <trkpt lat="41.564341300" lon="1.661938300">
        <ele>276.20</ele>
        <time>2018-05-26T11:54:01Z</time>
      </trkpt>
      <trkpt lat="41.564560600" lon="1.661327100">
        <ele>276.60</ele>
        <time>2018-05-26T11:54:05Z</time>
      </trkpt>
      <trkpt lat="41.564773500" lon="1.660734500">
        <ele>276.40</ele>
        <time>2018-05-26T11:54:09Z</time>
      </trkpt>
      <trkpt lat="41.565035600" lon="1.660003700">
        <ele>277.20</ele>
        <time>2018-05-26T11:54:14Z</time>
      </trkpt>
      <trkpt lat="41.565137800" lon="1.659719300">
        <ele>277.00</ele>
        <time>2018-05-26T11:54:16Z</time>
      </trkpt>
      <trkpt lat="41.565376800" lon="1.659048100">
        <ele>276.80</ele>
        <time>2018-05-26T11:54:21Z</time>
      </trkpt>
      <trkpt lat="41.565516900" lon="1.658660900">
        <ele>278.00</ele>
        <time>2018-05-26T11:54:24Z</time>
      </trkpt>
      <trkpt lat="41.565606900" lon="1.658399900">
        <ele>278.40</ele>
        <time>2018-05-26T11:54:26Z</time>
      </trkpt>
      <trkpt lat="41.565887500" lon="1.657644200">
        <ele>279.40</ele>
        <time>2018-05-26T11:54:32Z</time>
      </trkpt>
      <trkpt lat="41.566215100" lon="1.656938500">
        <ele>282.00</ele>
        <time>2018-05-26T11:54:38Z</time>
      </trkpt>
      <trkpt lat="41.566270100" lon="1.656824400">
        <ele>282.20</ele>
        <time>2018-05-26T11:54:39Z</time>
      </trkpt>
      <trkpt lat="41.566604700" lon="1.656184400">
        <ele>282.40</ele>
        <time>2018-05-26T11:54:45Z</time>
      </trkpt>
      <trkpt lat="41.566762600" lon="1.655875700">
        <ele>283.20</ele>
        <time>2018-05-26T11:54:48Z</time>
      </trkpt>
      <trkpt lat="41.566880400" lon="1.655691500">
        <ele>283.60</ele>
        <time>2018-05-26T11:54:50Z</time>
      </trkpt>
      <trkpt lat="41.567019000" lon="1.655543200">
        <ele>284.00</ele>
        <time>2018-05-26T11:54:52Z</time>
      </trkpt>
      <trkpt lat="41.567096800" lon="1.655339500">
        <ele>284.60</ele>
        <time>2018-05-26T11:54:54Z</time>
      </trkpt>
      <trkpt lat="41.567163100" lon="1.655117900">
        <ele>284.80</ele>
        <time>2018-05-26T11:54:56Z</time>
      </trkpt>
      <trkpt lat="41.567260500" lon="1.654907300">
        <ele>285.00</ele>
        <time>2018-05-26T11:54:58Z</time>
      </trkpt>
      <trkpt lat="41.567419900" lon="1.654603600">
        <ele>285.40</ele>
        <time>2018-05-26T11:55:01Z</time>
      </trkpt>
      <trkpt lat="41.567630500" lon="1.654210400">
        <ele>286.80</ele>
        <time>2018-05-26T11:55:05Z</time>
      </trkpt>
      <trkpt lat="41.567845300" lon="1.653800000">
        <ele>287.40</ele>
        <time>2018-05-26T11:55:10Z</time>
      </trkpt>
      <trkpt lat="41.568104400" lon="1.653295100">
        <ele>289.00</ele>
        <time>2018-05-26T11:55:17Z</time>
      </trkpt>
      <trkpt lat="41.568403600" lon="1.652704500">
        <ele>290.40</ele>
        <time>2018-05-26T11:55:25Z</time>
      </trkpt>
      <trkpt lat="41.568520400" lon="1.652476600">
        <ele>293.40</ele>
        <time>2018-05-26T11:55:28Z</time>
      </trkpt>
      <trkpt lat="41.568783200" lon="1.651966500">
        <ele>293.00</ele>
        <time>2018-05-26T11:55:35Z</time>
      </trkpt>
      <trkpt lat="41.569117400" lon="1.651324000">
        <ele>294.40</ele>
        <time>2018-05-26T11:55:44Z</time>
      </trkpt>
      <trkpt lat="41.569223500" lon="1.651092400">
        <ele>295.00</ele>
        <time>2018-05-26T11:55:47Z</time>
      </trkpt>
      <trkpt lat="41.569297500" lon="1.650941000">
        <ele>295.40</ele>
        <time>2018-05-26T11:55:49Z</time>
      </trkpt>
      <trkpt lat="41.569623700" lon="1.650335600">
        <ele>295.80</ele>
        <time>2018-05-26T11:55:57Z</time>
      </trkpt>
      <trkpt lat="41.569703300" lon="1.650188300">
        <ele>296.40</ele>
        <time>2018-05-26T11:55:59Z</time>
      </trkpt>
      <trkpt lat="41.569983200" lon="1.649655100">
        <ele>297.40</ele>
        <time>2018-05-26T11:56:06Z</time>
      </trkpt>
      <trkpt lat="41.570245800" lon="1.649118000">
        <ele>298.80</ele>
        <time>2018-05-26T11:56:13Z</time>
      </trkpt>
      <trkpt lat="41.570322100" lon="1.648971900">
        <ele>299.60</ele>
        <time>2018-05-26T11:56:15Z</time>
      </trkpt>
      <trkpt lat="41.570395200" lon="1.648822400">
        <ele>300.00</ele>
        <time>2018-05-26T11:56:17Z</time>
      </trkpt>
      <trkpt lat="41.570479000" lon="1.648684700">
        <ele>300.20</ele>
        <time>2018-05-26T11:56:19Z</time>
      </trkpt>
      <trkpt lat="41.570642900" lon="1.648522300">
        <ele>300.60</ele>
        <time>2018-05-26T11:56:22Z</time>
      </trkpt>
      <trkpt lat="41.570721900" lon="1.648368300">
        <ele>301.00</ele>
        <time>2018-05-26T11:56:24Z</time>
      </trkpt>
      <trkpt lat="41.570761500" lon="1.648180100">
        <ele>301.20</ele>
        <time>2018-05-26T11:56:26Z</time>
      </trkpt>
      <trkpt lat="41.570821100" lon="1.647989800">
        <ele>301.20</ele>
        <time>2018-05-26T11:56:28Z</time>
      </trkpt>
      <trkpt lat="41.571092200" lon="1.647442700">
        <ele>301.80</ele>
        <time>2018-05-26T11:56:34Z</time>
      </trkpt>
      <trkpt lat="41.571257200" lon="1.647128000">
        <ele>303.20</ele>
        <time>2018-05-26T11:56:38Z</time>
      </trkpt>
      <trkpt lat="41.571510200" lon="1.646663100">
        <ele>304.20</ele>
        <time>2018-05-26T11:56:44Z</time>
      </trkpt>
      <trkpt lat="41.571633500" lon="1.646416000">
        <ele>304.60</ele>
        <time>2018-05-26T11:56:47Z</time>
      </trkpt>
      <trkpt lat="41.571967500" lon="1.645754500">
        <ele>304.80</ele>
        <time>2018-05-26T11:56:55Z</time>
      </trkpt>
      <trkpt lat="41.572234400" lon="1.645257400">
        <ele>306.80</ele>
        <time>2018-05-26T11:57:01Z</time>
      </trkpt>
      <trkpt lat="41.572403900" lon="1.644919800">
        <ele>307.60</ele>
        <time>2018-05-26T11:57:05Z</time>
      </trkpt>
      <trkpt lat="41.572488300" lon="1.644748100">
        <ele>308.00</ele>
        <time>2018-05-26T11:57:07Z</time>
      </trkpt>
      <trkpt lat="41.572709900" lon="1.644329500">
        <ele>308.40</ele>
        <time>2018-05-26T11:57:12Z</time>
      </trkpt>
      <trkpt lat="41.572993600" lon="1.643921600">
        <ele>308.60</ele>
        <time>2018-05-26T11:57:17Z</time>
      </trkpt>
      <trkpt lat="41.573286000" lon="1.643569800">
        <ele>309.20</ele>
        <time>2018-05-26T11:57:22Z</time>
      </trkpt>
      <trkpt lat="41.573470800" lon="1.643363200">
        <ele>309.40</ele>
        <time>2018-05-26T11:57:25Z</time>
      </trkpt>
      <trkpt lat="41.573784500" lon="1.643003900">
        <ele>309.60</ele>
        <time>2018-05-26T11:57:30Z</time>
      </trkpt>
      <trkpt lat="41.574036500" lon="1.642707800">
        <ele>309.60</ele>
        <time>2018-05-26T11:57:34Z</time>
      </trkpt>
      <trkpt lat="41.574473800" lon="1.642164900">
        <ele>310.00</ele>
        <time>2018-05-26T11:57:41Z</time>
      </trkpt>
      <trkpt lat="41.574595700" lon="1.642015200">
        <ele>310.20</ele>
        <time>2018-05-26T11:57:43Z</time>
      </trkpt>
      <trkpt lat="41.574934800" lon="1.641597500">
        <ele>310.80</ele>
        <time>2018-05-26T11:57:49Z</time>
      </trkpt>
      <trkpt lat="41.575152000" lon="1.641451300">
        <ele>311.40</ele>
        <time>2018-05-26T11:57:53Z</time>
      </trkpt>
      <trkpt lat="41.575279400" lon="1.641264200">
        <ele>312.20</ele>
        <time>2018-05-26T11:57:56Z</time>
      </trkpt>
      <trkpt lat="41.575424800" lon="1.641076300">
        <ele>312.40</ele>
        <time>2018-05-26T11:57:59Z</time>
      </trkpt>
      <trkpt lat="41.575556100" lon="1.640995800">
        <ele>312.40</ele>
        <time>2018-05-26T11:58:01Z</time>
      </trkpt>
      <trkpt lat="41.575772900" lon="1.640893500">
        <ele>312.80</ele>
        <time>2018-05-26T11:58:04Z</time>
      </trkpt>
      <trkpt lat="41.576077100" lon="1.640750400">
        <ele>313.40</ele>
        <time>2018-05-26T11:58:08Z</time>
      </trkpt>
      <trkpt lat="41.576376200" lon="1.640608000">
        <ele>314.00</ele>
        <time>2018-05-26T11:58:12Z</time>
      </trkpt>
      <trkpt lat="41.576532900" lon="1.640537600">
        <ele>315.00</ele>
        <time>2018-05-26T11:58:14Z</time>
      </trkpt>
      <trkpt lat="41.577079800" lon="1.640296000">
        <ele>315.40</ele>
        <time>2018-05-26T11:58:21Z</time>
      </trkpt>
      <trkpt lat="41.577307900" lon="1.640182600">
        <ele>316.00</ele>
        <time>2018-05-26T11:58:24Z</time>
      </trkpt>
      <trkpt lat="41.577611700" lon="1.640049400">
        <ele>316.20</ele>
        <time>2018-05-26T11:58:28Z</time>
      </trkpt>
      <trkpt lat="41.577892000" lon="1.639915300">
        <ele>317.00</ele>
        <time>2018-05-26T11:58:32Z</time>
      </trkpt>
      <trkpt lat="41.578033500" lon="1.639896500">
        <ele>317.20</ele>
        <time>2018-05-26T11:58:34Z</time>
      </trkpt>
      <trkpt lat="41.578177000" lon="1.639950700">
        <ele>317.20</ele>
        <time>2018-05-26T11:58:36Z</time>
      </trkpt>
      <trkpt lat="41.578409600" lon="1.640214200">
        <ele>317.00</ele>
        <time>2018-05-26T11:58:40Z</time>
      </trkpt>
      <trkpt lat="41.578493800" lon="1.640494400">
        <ele>318.00</ele>
        <time>2018-05-26T11:58:43Z</time>
      </trkpt>
      <trkpt lat="41.578525900" lon="1.640687300">
        <ele>318.40</ele>
        <time>2018-05-26T11:58:45Z</time>
      </trkpt>
      <trkpt lat="41.578568700" lon="1.641058600">
        <ele>319.40</ele>
        <time>2018-05-26T11:58:49Z</time>
      </trkpt>
      <trkpt lat="41.578657800" lon="1.641582700">
        <ele>320.00</ele>
        <time>2018-05-26T11:58:55Z</time>
      </trkpt>
      <trkpt lat="41.578699000" lon="1.641825500">
        <ele>320.60</ele>
        <time>2018-05-26T11:58:58Z</time>
      </trkpt>
      <trkpt lat="41.578723100" lon="1.642053800">
        <ele>321.00</ele>
        <time>2018-05-26T11:59:01Z</time>
      </trkpt>
      <trkpt lat="41.578738800" lon="1.642203100">
        <ele>322.00</ele>
        <time>2018-05-26T11:59:03Z</time>
      </trkpt>
      <trkpt lat="41.578766200" lon="1.642343200">
        <ele>322.00</ele>
        <time>2018-05-26T11:59:05Z</time>
      </trkpt>
      <trkpt lat="41.578829700" lon="1.642453000">
        <ele>322.60</ele>
        <time>2018-05-26T11:59:07Z</time>
      </trkpt>
      <trkpt lat="41.578991400" lon="1.642556200">
        <ele>322.40</ele>
        <time>2018-05-26T11:59:10Z</time>
      </trkpt>
      <trkpt lat="41.579119000" lon="1.642601900">
        <ele>323.00</ele>
        <time>2018-05-26T11:59:12Z</time>
      </trkpt>
      <trkpt lat="41.579438700" lon="1.642703700">
        <ele>322.60</ele>
        <time>2018-05-26T11:59:17Z</time>
      </trkpt>
      <trkpt lat="41.579891000" lon="1.642847800">
        <ele>324.00</ele>
        <time>2018-05-26T11:59:24Z</time>
      </trkpt>
      <trkpt lat="41.580187900" lon="1.642943400">
        <ele>325.40</ele>
        <time>2018-05-26T11:59:29Z</time>
      </trkpt>
      <trkpt lat="41.580351000" lon="1.642996400">
        <ele>325.80</ele>
        <time>2018-05-26T11:59:32Z</time>
      </trkpt>
      <trkpt lat="41.580672800" lon="1.643096700">
        <ele>326.80</ele>
        <time>2018-05-26T11:59:38Z</time>
      </trkpt>
      <trkpt lat="41.580827400" lon="1.643150300">
        <ele>327.40</ele>
        <time>2018-05-26T11:59:41Z</time>
      </trkpt>
      <trkpt lat="41.580990700" lon="1.643196000">
        <ele>327.80</ele>
        <time>2018-05-26T11:59:44Z</time>
      </trkpt>
      <trkpt lat="41.581262600" lon="1.643284600">
        <ele>328.40</ele>
        <time>2018-05-26T11:59:49Z</time>
      </trkpt>
      <trkpt lat="41.581373200" lon="1.643317300">
        <ele>328.80</ele>
        <time>2018-05-26T11:59:51Z</time>
      </trkpt>
      <trkpt lat="41.581651600" lon="1.643401200">
        <ele>330.00</ele>
        <time>2018-05-26T11:59:56Z</time>
      </trkpt>
      <trkpt lat="41.582063700" lon="1.643541100">
        <ele>331.00</ele>
        <time>2018-05-26T12:00:03Z</time>
      </trkpt>
      <trkpt lat="41.582234400" lon="1.643595700">
        <ele>331.60</ele>
        <time>2018-05-26T12:00:06Z</time>
      </trkpt>
      <trkpt lat="41.582346600" lon="1.643629300">
        <ele>332.20</ele>
        <time>2018-05-26T12:00:08Z</time>
      </trkpt>
      <trkpt lat="41.582645400" lon="1.643712200">
        <ele>333.20</ele>
        <time>2018-05-26T12:00:13Z</time>
      </trkpt>
      <trkpt lat="41.582761600" lon="1.643748800">
        <ele>334.00</ele>
        <time>2018-05-26T12:00:15Z</time>
      </trkpt>
      <trkpt lat="41.583002400" lon="1.643830400">
        <ele>334.40</ele>
        <time>2018-05-26T12:00:19Z</time>
      </trkpt>
      <trkpt lat="41.583181700" lon="1.643891200">
        <ele>334.80</ele>
        <time>2018-05-26T12:00:22Z</time>
      </trkpt>
      <trkpt lat="41.583358300" lon="1.643952900">
        <ele>335.60</ele>
        <time>2018-05-26T12:00:25Z</time>
      </trkpt>
      <trkpt lat="41.583541100" lon="1.644010000">
        <ele>336.60</ele>
        <time>2018-05-26T12:00:28Z</time>
      </trkpt>
      <trkpt lat="41.583664300" lon="1.644054700">
        <ele>337.00</ele>
        <time>2018-05-26T12:00:30Z</time>
      </trkpt>
      <trkpt lat="41.583908100" lon="1.644139800">
        <ele>337.80</ele>
        <time>2018-05-26T12:00:34Z</time>
      </trkpt>
      <trkpt lat="41.584218600" lon="1.644245800">
        <ele>338.80</ele>
        <time>2018-05-26T12:00:39Z</time>
      </trkpt>
      <trkpt lat="41.584342200" lon="1.644286600">
        <ele>339.20</ele>
        <time>2018-05-26T12:00:41Z</time>
      </trkpt>
      <trkpt lat="41.584523600" lon="1.644351000">
        <ele>340.00</ele>
        <time>2018-05-26T12:00:44Z</time>
      </trkpt>
      <trkpt lat="41.584904500" lon="1.644483600">
        <ele>340.40</ele>
        <time>2018-05-26T12:00:50Z</time>
      </trkpt>
      <trkpt lat="41.585098900" lon="1.644551400">
        <ele>341.00</ele>
        <time>2018-05-26T12:00:53Z</time>
      </trkpt>
      <trkpt lat="41.585291900" lon="1.644616200">
        <ele>342.20</ele>
        <time>2018-05-26T12:00:56Z</time>
      </trkpt>
      <trkpt lat="41.585420900" lon="1.644661300">
        <ele>342.60</ele>
        <time>2018-05-26T12:00:58Z</time>
      </trkpt>
      <trkpt lat="41.585616700" lon="1.644730500">
        <ele>343.40</ele>
        <time>2018-05-26T12:01:01Z</time>
      </trkpt>
      <trkpt lat="41.585877000" lon="1.644820400">
        <ele>343.60</ele>
        <time>2018-05-26T12:01:05Z</time>
      </trkpt>
      <trkpt lat="41.586075000" lon="1.644879900">
        <ele>344.00</ele>
        <time>2018-05-26T12:01:08Z</time>
      </trkpt>
      <trkpt lat="41.586277000" lon="1.644952500">
        <ele>344.40</ele>
        <time>2018-05-26T12:01:11Z</time>
      </trkpt>
      <trkpt lat="41.586551400" lon="1.645039800">
        <ele>345.40</ele>
        <time>2018-05-26T12:01:15Z</time>
      </trkpt>
      <trkpt lat="41.586821600" lon="1.645131100">
        <ele>347.00</ele>
        <time>2018-05-26T12:01:19Z</time>
      </trkpt>
      <trkpt lat="41.587081900" lon="1.645253500">
        <ele>347.20</ele>
        <time>2018-05-26T12:01:23Z</time>
      </trkpt>
      <trkpt lat="41.587526200" lon="1.645470400">
        <ele>348.20</ele>
        <time>2018-05-26T12:01:30Z</time>
      </trkpt>
      <trkpt lat="41.587827000" lon="1.645617900">
        <ele>349.00</ele>
        <time>2018-05-26T12:01:35Z</time>
      </trkpt>
      <trkpt lat="41.588256400" lon="1.645830600">
        <ele>349.40</ele>
        <time>2018-05-26T12:01:42Z</time>
      </trkpt>
      <trkpt lat="41.588382100" lon="1.645893500">
        <ele>349.80</ele>
        <time>2018-05-26T12:01:44Z</time>
      </trkpt>
      <trkpt lat="41.588571100" lon="1.645984200">
        <ele>350.60</ele>
        <time>2018-05-26T12:01:47Z</time>
      </trkpt>
      <trkpt lat="41.588821500" lon="1.646100100">
        <ele>351.60</ele>
        <time>2018-05-26T12:01:51Z</time>
      </trkpt>
      <trkpt lat="41.589179500" lon="1.646279400">
        <ele>352.60</ele>
        <time>2018-05-26T12:01:57Z</time>
      </trkpt>
      <trkpt lat="41.589358300" lon="1.646381600">
        <ele>352.80</ele>
        <time>2018-05-26T12:02:00Z</time>
      </trkpt>
      <trkpt lat="41.589593000" lon="1.646540900">
        <ele>353.60</ele>
        <time>2018-05-26T12:02:04Z</time>
      </trkpt>
      <trkpt lat="41.589835400" lon="1.646706000">
        <ele>354.60</ele>
        <time>2018-05-26T12:02:08Z</time>
      </trkpt>
      <trkpt lat="41.590249100" lon="1.646997800">
        <ele>355.80</ele>
        <time>2018-05-26T12:02:15Z</time>
      </trkpt>
      <trkpt lat="41.590485100" lon="1.647164600">
        <ele>356.40</ele>
        <time>2018-05-26T12:02:19Z</time>
      </trkpt>
      <trkpt lat="41.590603400" lon="1.647247700">
        <ele>357.00</ele>
        <time>2018-05-26T12:02:21Z</time>
      </trkpt>
      <trkpt lat="41.590779500" lon="1.647370500">
        <ele>358.00</ele>
        <time>2018-05-26T12:02:24Z</time>
      </trkpt>
      <trkpt lat="41.591071200" lon="1.647579200">
        <ele>359.00</ele>
        <time>2018-05-26T12:02:29Z</time>
      </trkpt>
      <trkpt lat="41.591529700" lon="1.647917500">
        <ele>359.40</ele>
        <time>2018-05-26T12:02:37Z</time>
      </trkpt>
      <trkpt lat="41.591890500" lon="1.648191500">
        <ele>359.00</ele>
        <time>2018-05-26T12:02:43Z</time>
      </trkpt>
      <trkpt lat="41.592284100" lon="1.648438500">
        <ele>359.20</ele>
        <time>2018-05-26T12:02:49Z</time>
      </trkpt>
      <trkpt lat="41.592415700" lon="1.648523500">
        <ele>358.80</ele>
        <time>2018-05-26T12:02:51Z</time>
      </trkpt>
      <trkpt lat="41.592743400" lon="1.648754400">
        <ele>360.80</ele>
        <time>2018-05-26T12:02:56Z</time>
      </trkpt>
      <trkpt lat="41.593017500" lon="1.648942000">
        <ele>360.40</ele>
        <time>2018-05-26T12:03:00Z</time>
      </trkpt>
      <trkpt lat="41.593157000" lon="1.649041500">
        <ele>359.60</ele>
        <time>2018-05-26T12:03:02Z</time>
      </trkpt>
      <trkpt lat="41.593569400" lon="1.649349400">
        <ele>357.60</ele>
        <time>2018-05-26T12:03:08Z</time>
      </trkpt>
      <trkpt lat="41.594032800" lon="1.649668500">
        <ele>358.20</ele>
        <time>2018-05-26T12:03:15Z</time>
      </trkpt>
      <trkpt lat="41.594342100" lon="1.649887500">
        <ele>359.40</ele>
        <time>2018-05-26T12:03:20Z</time>
      </trkpt>
      <trkpt lat="41.594655000" lon="1.650114700">
        <ele>360.20</ele>
        <time>2018-05-26T12:03:25Z</time>
      </trkpt>
      <trkpt lat="41.594782200" lon="1.650213900">
        <ele>360.60</ele>
        <time>2018-05-26T12:03:27Z</time>
      </trkpt>
      <trkpt lat="41.595101400" lon="1.650478000">
        <ele>361.00</ele>
        <time>2018-05-26T12:03:32Z</time>
      </trkpt>
      <trkpt lat="41.595286200" lon="1.650639600">
        <ele>360.40</ele>
        <time>2018-05-26T12:03:35Z</time>
      </trkpt>
      <trkpt lat="41.595404400" lon="1.650750600">
        <ele>359.40</ele>
        <time>2018-05-26T12:03:37Z</time>
      </trkpt>
      <trkpt lat="41.595583500" lon="1.650916800">
        <ele>361.00</ele>
        <time>2018-05-26T12:03:40Z</time>
      </trkpt>
      <trkpt lat="41.595768100" lon="1.651081800">
        <ele>361.40</ele>
        <time>2018-05-26T12:03:43Z</time>
      </trkpt>
      <trkpt lat="41.596250900" lon="1.651517300">
        <ele>361.60</ele>
        <time>2018-05-26T12:03:51Z</time>
      </trkpt>
      <trkpt lat="41.596371300" lon="1.651626000">
        <ele>362.20</ele>
        <time>2018-05-26T12:03:53Z</time>
      </trkpt>
      <trkpt lat="41.596805000" lon="1.652023500">
        <ele>361.60</ele>
        <time>2018-05-26T12:04:00Z</time>
      </trkpt>
      <trkpt lat="41.597241700" lon="1.652417200">
        <ele>363.40</ele>
        <time>2018-05-26T12:04:07Z</time>
      </trkpt>
      <trkpt lat="41.597428300" lon="1.652589000">
        <ele>364.40</ele>
        <time>2018-05-26T12:04:10Z</time>
      </trkpt>
      <trkpt lat="41.597626400" lon="1.652735200">
        <ele>365.20</ele>
        <time>2018-05-26T12:04:13Z</time>
      </trkpt>
      <trkpt lat="41.597776500" lon="1.652763100">
        <ele>365.40</ele>
        <time>2018-05-26T12:04:15Z</time>
      </trkpt>
      <trkpt lat="41.598003400" lon="1.652689400">
        <ele>365.40</ele>
        <time>2018-05-26T12:04:18Z</time>
      </trkpt>
      <trkpt lat="41.598140900" lon="1.652597200">
        <ele>365.60</ele>
        <time>2018-05-26T12:04:20Z</time>
      </trkpt>
      <trkpt lat="41.598413700" lon="1.652401400">
        <ele>365.80</ele>
        <time>2018-05-26T12:04:24Z</time>
      </trkpt>
      <trkpt lat="41.598890400" lon="1.652061100">
        <ele>366.60</ele>
        <time>2018-05-26T12:04:31Z</time>
      </trkpt>
      <trkpt lat="41.599023900" lon="1.651958200">
        <ele>367.20</ele>
        <time>2018-05-26T12:04:33Z</time>
      </trkpt>
      <trkpt lat="41.599509500" lon="1.651564600">
        <ele>366.80</ele>
        <time>2018-05-26T12:04:40Z</time>
      </trkpt>
      <trkpt lat="41.599788600" lon="1.651285900">
        <ele>365.80</ele>
        <time>2018-05-26T12:04:44Z</time>
      </trkpt>
      <trkpt lat="41.600149600" lon="1.650921900">
        <ele>365.60</ele>
        <time>2018-05-26T12:04:49Z</time>
      </trkpt>
      <trkpt lat="41.600462500" lon="1.650467100">
        <ele>365.20</ele>
        <time>2018-05-26T12:04:54Z</time>
      </trkpt>
      <trkpt lat="41.600788200" lon="1.649836000">
        <ele>364.80</ele>
        <time>2018-05-26T12:05:00Z</time>
      </trkpt>
      <trkpt lat="41.600843500" lon="1.649729500">
        <ele>364.80</ele>
        <time>2018-05-26T12:05:01Z</time>
      </trkpt>
      <trkpt lat="41.600951900" lon="1.649515900">
        <ele>364.60</ele>
        <time>2018-05-26T12:05:03Z</time>
      </trkpt>
      <trkpt lat="41.601169200" lon="1.649094700">
        <ele>363.40</ele>
        <time>2018-05-26T12:05:07Z</time>
      </trkpt>
      <trkpt lat="41.601327200" lon="1.648779300">
        <ele>364.80</ele>
        <time>2018-05-26T12:05:10Z</time>
      </trkpt>
      <trkpt lat="41.601437800" lon="1.648568600">
        <ele>364.60</ele>
        <time>2018-05-26T12:05:12Z</time>
      </trkpt>
      <trkpt lat="41.601710900" lon="1.648032600">
        <ele>364.00</ele>
        <time>2018-05-26T12:05:17Z</time>
      </trkpt>
      <trkpt lat="41.601827800" lon="1.647821700">
        <ele>363.60</ele>
        <time>2018-05-26T12:05:19Z</time>
      </trkpt>
      <trkpt lat="41.601995300" lon="1.647685400">
        <ele>363.00</ele>
        <time>2018-05-26T12:05:21Z</time>
      </trkpt>
      <trkpt lat="41.602175000" lon="1.647593600">
        <ele>363.60</ele>
        <time>2018-05-26T12:05:23Z</time>
      </trkpt>
      <trkpt lat="41.602424100" lon="1.647468800">
        <ele>364.80</ele>
        <time>2018-05-26T12:05:26Z</time>
      </trkpt>
      <trkpt lat="41.602720100" lon="1.647305700">
        <ele>365.80</ele>
        <time>2018-05-26T12:05:30Z</time>
      </trkpt>
      <trkpt lat="41.602858200" lon="1.647226800">
        <ele>366.40</ele>
        <time>2018-05-26T12:05:32Z</time>
      </trkpt>
      <trkpt lat="41.603044100" lon="1.647079400">
        <ele>367.80</ele>
        <time>2018-05-26T12:05:35Z</time>
      </trkpt>
      <trkpt lat="41.603146500" lon="1.646944300">
        <ele>368.40</ele>
        <time>2018-05-26T12:05:37Z</time>
      </trkpt>
      <trkpt lat="41.603226100" lon="1.646789000">
        <ele>369.20</ele>
        <time>2018-05-26T12:05:39Z</time>
      </trkpt>
      <trkpt lat="41.603335800" lon="1.646550500">
        <ele>369.40</ele>
        <time>2018-05-26T12:05:42Z</time>
      </trkpt>
      <trkpt lat="41.603483300" lon="1.646228700">
        <ele>370.40</ele>
        <time>2018-05-26T12:05:46Z</time>
      </trkpt>
      <trkpt lat="41.603628600" lon="1.645913800">
        <ele>371.60</ele>
        <time>2018-05-26T12:05:50Z</time>
      </trkpt>
      <trkpt lat="41.603737000" lon="1.645679200">
        <ele>372.40</ele>
        <time>2018-05-26T12:05:53Z</time>
      </trkpt>
      <trkpt lat="41.603812300" lon="1.645519500">
        <ele>372.80</ele>
        <time>2018-05-26T12:05:55Z</time>
      </trkpt>
      <trkpt lat="41.603962200" lon="1.645205600">
        <ele>373.80</ele>
        <time>2018-05-26T12:05:59Z</time>
      </trkpt>
      <trkpt lat="41.604144000" lon="1.644823400">
        <ele>375.00</ele>
        <time>2018-05-26T12:06:04Z</time>
      </trkpt>
      <trkpt lat="41.604356200" lon="1.644482100">
        <ele>376.20</ele>
        <time>2018-05-26T12:06:09Z</time>
      </trkpt>
      <trkpt lat="41.604504400" lon="1.644285800">
        <ele>377.00</ele>
        <time>2018-05-26T12:06:12Z</time>
      </trkpt>
      <trkpt lat="41.604796200" lon="1.643928300">
        <ele>378.40</ele>
        <time>2018-05-26T12:06:18Z</time>
      </trkpt>
      <trkpt lat="41.605006200" lon="1.643781700">
        <ele>379.60</ele>
        <time>2018-05-26T12:06:22Z</time>
      </trkpt>
      <trkpt lat="41.605166000" lon="1.643698100">
        <ele>379.80</ele>
        <time>2018-05-26T12:06:25Z</time>
      </trkpt>
      <trkpt lat="41.605269200" lon="1.643639200">
        <ele>380.60</ele>
        <time>2018-05-26T12:06:27Z</time>
      </trkpt>
      <trkpt lat="41.605441000" lon="1.643545000">
        <ele>381.60</ele>
        <time>2018-05-26T12:06:31Z</time>
      </trkpt>
      <trkpt lat="41.605539200" lon="1.643580000">
        <ele>382.00</ele>
        <time>2018-05-26T12:06:34Z</time>
      </trkpt>
      <trkpt lat="41.605722300" lon="1.643672200">
        <ele>382.00</ele>
        <time>2018-05-26T12:06:38Z</time>
      </trkpt>
      <trkpt lat="41.605946000" lon="1.643662000">
        <ele>382.40</ele>
        <time>2018-05-26T12:06:42Z</time>
      </trkpt>
      <trkpt lat="41.606307200" lon="1.643603500">
        <ele>382.80</ele>
        <time>2018-05-26T12:06:48Z</time>
      </trkpt>
      <trkpt lat="41.606424500" lon="1.643605600">
        <ele>383.00</ele>
        <time>2018-05-26T12:06:50Z</time>
      </trkpt>
      <trkpt lat="41.606654700" lon="1.643682700">
        <ele>383.40</ele>
        <time>2018-05-26T12:06:54Z</time>
      </trkpt>
      <trkpt lat="41.606810000" lon="1.643782400">
        <ele>383.80</ele>
        <time>2018-05-26T12:06:57Z</time>
      </trkpt>
      <trkpt lat="41.607008300" lon="1.643930500">
        <ele>384.40</ele>
        <time>2018-05-26T12:07:01Z</time>
      </trkpt>
      <trkpt lat="41.607151200" lon="1.644042500">
        <ele>384.80</ele>
        <time>2018-05-26T12:07:04Z</time>
      </trkpt>
      <trkpt lat="41.607318900" lon="1.644120400">
        <ele>385.20</ele>
        <time>2018-05-26T12:07:07Z</time>
      </trkpt>
      <trkpt lat="41.607672200" lon="1.644142300">
        <ele>385.40</ele>
        <time>2018-05-26T12:07:13Z</time>
      </trkpt>
      <trkpt lat="41.607791300" lon="1.644137000">
        <ele>386.00</ele>
        <time>2018-05-26T12:07:15Z</time>
      </trkpt>
      <trkpt lat="41.608219600" lon="1.644109800">
        <ele>386.40</ele>
        <time>2018-05-26T12:07:22Z</time>
      </trkpt>
      <trkpt lat="41.608457100" lon="1.644104600">
        <ele>387.00</ele>
        <time>2018-05-26T12:07:26Z</time>
      </trkpt>
      <trkpt lat="41.608749600" lon="1.644148200">
        <ele>387.40</ele>
        <time>2018-05-26T12:07:31Z</time>
      </trkpt>
      <trkpt lat="41.608865000" lon="1.644194600">
        <ele>387.80</ele>
        <time>2018-05-26T12:07:33Z</time>
      </trkpt>
      <trkpt lat="41.608972000" lon="1.644261500">
        <ele>388.20</ele>
        <time>2018-05-26T12:07:35Z</time>
      </trkpt>
      <trkpt lat="41.609070900" lon="1.644334400">
        <ele>388.40</ele>
        <time>2018-05-26T12:07:37Z</time>
      </trkpt>
      <trkpt lat="41.609310600" lon="1.644512100">
        <ele>389.40</ele>
        <time>2018-05-26T12:07:42Z</time>
      </trkpt>
      <trkpt lat="41.609403700" lon="1.644580900">
        <ele>389.80</ele>
        <time>2018-05-26T12:07:44Z</time>
      </trkpt>
      <trkpt lat="41.609631700" lon="1.644741000">
        <ele>390.80</ele>
        <time>2018-05-26T12:07:49Z</time>
      </trkpt>
      <trkpt lat="41.609718900" lon="1.644804100">
        <ele>391.60</ele>
        <time>2018-05-26T12:07:51Z</time>
      </trkpt>
      <trkpt lat="41.610032100" lon="1.645017600">
        <ele>392.80</ele>
        <time>2018-05-26T12:07:58Z</time>
      </trkpt>
      <trkpt lat="41.610296800" lon="1.645192700">
        <ele>394.00</ele>
        <time>2018-05-26T12:08:04Z</time>
      </trkpt>
      <trkpt lat="41.610511800" lon="1.645348800">
        <ele>394.20</ele>
        <time>2018-05-26T12:08:09Z</time>
      </trkpt>
      <trkpt lat="41.610684000" lon="1.645478400">
        <ele>395.20</ele>
        <time>2018-05-26T12:08:13Z</time>
      </trkpt>
      <trkpt lat="41.610795700" lon="1.645596100">
        <ele>395.80</ele>
        <time>2018-05-26T12:08:16Z</time>
      </trkpt>
      <trkpt lat="41.610895700" lon="1.645730700">
        <ele>396.40</ele>
        <time>2018-05-26T12:08:19Z</time>
      </trkpt>
      <trkpt lat="41.611039100" lon="1.645907500">
        <ele>397.60</ele>
        <time>2018-05-26T12:08:23Z</time>
      </trkpt>
      <trkpt lat="41.611115500" lon="1.645985600">
        <ele>398.20</ele>
        <time>2018-05-26T12:08:25Z</time>
      </trkpt>
      <trkpt lat="41.611197700" lon="1.646048300">
        <ele>398.60</ele>
        <time>2018-05-26T12:08:27Z</time>
      </trkpt>
      <trkpt lat="41.611421400" lon="1.646162300">
        <ele>398.60</ele>
        <time>2018-05-26T12:08:32Z</time>
      </trkpt>
      <trkpt lat="41.611637100" lon="1.646290300">
        <ele>399.60</ele>
        <time>2018-05-26T12:08:37Z</time>
      </trkpt>
      <trkpt lat="41.611717700" lon="1.646360400">
        <ele>400.80</ele>
        <time>2018-05-26T12:08:39Z</time>
      </trkpt>
      <trkpt lat="41.611857500" lon="1.646534400">
        <ele>402.00</ele>
        <time>2018-05-26T12:08:43Z</time>
      </trkpt>
      <trkpt lat="41.611921900" lon="1.646623500">
        <ele>402.60</ele>
        <time>2018-05-26T12:08:45Z</time>
      </trkpt>
      <trkpt lat="41.612052300" lon="1.646802000">
        <ele>403.00</ele>
        <time>2018-05-26T12:08:49Z</time>
      </trkpt>
      <trkpt lat="41.612182500" lon="1.646975100">
        <ele>403.40</ele>
        <time>2018-05-26T12:08:53Z</time>
      </trkpt>
      <trkpt lat="41.612276000" lon="1.647104100">
        <ele>403.80</ele>
        <time>2018-05-26T12:08:56Z</time>
      </trkpt>
      <trkpt lat="41.612371200" lon="1.647234800">
        <ele>404.20</ele>
        <time>2018-05-26T12:08:59Z</time>
      </trkpt>
      <trkpt lat="41.612512400" lon="1.647404900">
        <ele>405.20</ele>
        <time>2018-05-26T12:09:03Z</time>
      </trkpt>
      <trkpt lat="41.612626400" lon="1.647500600">
        <ele>406.00</ele>
        <time>2018-05-26T12:09:06Z</time>
      </trkpt>
      <trkpt lat="41.612714400" lon="1.647546500">
        <ele>406.40</ele>
        <time>2018-05-26T12:09:08Z</time>
      </trkpt>
      <trkpt lat="41.612806300" lon="1.647579600">
        <ele>406.80</ele>
        <time>2018-05-26T12:09:10Z</time>
      </trkpt>
      <trkpt lat="41.613005600" lon="1.647627300">
        <ele>408.00</ele>
        <time>2018-05-26T12:09:14Z</time>
      </trkpt>
      <trkpt lat="41.613149600" lon="1.647666300">
        <ele>408.20</ele>
        <time>2018-05-26T12:09:17Z</time>
      </trkpt>
      <trkpt lat="41.613386700" lon="1.647723800">
        <ele>409.00</ele>
        <time>2018-05-26T12:09:22Z</time>
      </trkpt>
      <trkpt lat="41.613576500" lon="1.647768500">
        <ele>409.80</ele>
        <time>2018-05-26T12:09:26Z</time>
      </trkpt>
      <trkpt lat="41.613964900" lon="1.647855500">
        <ele>411.20</ele>
        <time>2018-05-26T12:09:34Z</time>
      </trkpt>
      <trkpt lat="41.614254600" lon="1.647918800">
        <ele>412.40</ele>
        <time>2018-05-26T12:09:40Z</time>
      </trkpt>
      <trkpt lat="41.614397200" lon="1.647950600">
        <ele>413.00</ele>
        <time>2018-05-26T12:09:43Z</time>
      </trkpt>
      <trkpt lat="41.614492700" lon="1.647966200">
        <ele>413.40</ele>
        <time>2018-05-26T12:09:45Z</time>
      </trkpt>
      <trkpt lat="41.614776300" lon="1.648030600">
        <ele>414.80</ele>
        <time>2018-05-26T12:09:51Z</time>
      </trkpt>
      <trkpt lat="41.614984800" lon="1.648175700">
        <ele>415.80</ele>
        <time>2018-05-26T12:09:56Z</time>
      </trkpt>
      <trkpt lat="41.615050200" lon="1.648262900">
        <ele>416.20</ele>
        <time>2018-05-26T12:09:58Z</time>
      </trkpt>
      <trkpt lat="41.615105500" lon="1.648364500">
        <ele>416.80</ele>
        <time>2018-05-26T12:10:00Z</time>
      </trkpt>
      <trkpt lat="41.615181500" lon="1.648521900">
        <ele>417.60</ele>
        <time>2018-05-26T12:10:03Z</time>
      </trkpt>
      <trkpt lat="41.615235200" lon="1.648627200">
        <ele>418.00</ele>
        <time>2018-05-26T12:10:05Z</time>
      </trkpt>
      <trkpt lat="41.615393800" lon="1.648949600">
        <ele>419.00</ele>
        <time>2018-05-26T12:10:11Z</time>
      </trkpt>
      <trkpt lat="41.615525200" lon="1.649214100">
        <ele>420.00</ele>
        <time>2018-05-26T12:10:16Z</time>
      </trkpt>
      <trkpt lat="41.615656600" lon="1.649474000">
        <ele>420.80</ele>
        <time>2018-05-26T12:10:21Z</time>
      </trkpt>
      <trkpt lat="41.615809400" lon="1.649784900">
        <ele>422.20</ele>
        <time>2018-05-26T12:10:27Z</time>
      </trkpt>
      <trkpt lat="41.615865400" lon="1.649891300">
        <ele>422.60</ele>
        <time>2018-05-26T12:10:29Z</time>
      </trkpt>
      <trkpt lat="41.615968300" lon="1.650109000">
        <ele>423.20</ele>
        <time>2018-05-26T12:10:33Z</time>
      </trkpt>
      <trkpt lat="41.616129300" lon="1.650424000">
        <ele>424.40</ele>
        <time>2018-05-26T12:10:39Z</time>
      </trkpt>
      <trkpt lat="41.616305300" lon="1.650714200">
        <ele>425.60</ele>
        <time>2018-05-26T12:10:45Z</time>
      </trkpt>
      <trkpt lat="41.616576400" lon="1.650843700">
        <ele>426.20</ele>
        <time>2018-05-26T12:10:51Z</time>
      </trkpt>
      <trkpt lat="41.616674800" lon="1.650859400">
        <ele>426.80</ele>
        <time>2018-05-26T12:10:53Z</time>
      </trkpt>
      <trkpt lat="41.616969500" lon="1.650919900">
        <ele>427.60</ele>
        <time>2018-05-26T12:10:59Z</time>
      </trkpt>
      <trkpt lat="41.617214200" lon="1.650974100">
        <ele>429.00</ele>
        <time>2018-05-26T12:11:04Z</time>
      </trkpt>
      <trkpt lat="41.617361400" lon="1.651037300">
        <ele>429.80</ele>
        <time>2018-05-26T12:11:07Z</time>
      </trkpt>
      <trkpt lat="41.617527300" lon="1.651304200">
        <ele>430.20</ele>
        <time>2018-05-26T12:11:12Z</time>
      </trkpt>
      <trkpt lat="41.617556200" lon="1.651495600">
        <ele>430.80</ele>
        <time>2018-05-26T12:11:15Z</time>
      </trkpt>
      <trkpt lat="41.617581800" lon="1.651693000">
        <ele>431.80</ele>
        <time>2018-05-26T12:11:18Z</time>
      </trkpt>
      <trkpt lat="41.617621500" lon="1.651952900">
        <ele>432.20</ele>
        <time>2018-05-26T12:11:22Z</time>
      </trkpt>
      <trkpt lat="41.617647400" lon="1.652144600">
        <ele>433.00</ele>
        <time>2018-05-26T12:11:25Z</time>
      </trkpt>
      <trkpt lat="41.617675100" lon="1.652343300">
        <ele>433.40</ele>
        <time>2018-05-26T12:11:28Z</time>
      </trkpt>
      <trkpt lat="41.617720800" lon="1.652625100">
        <ele>434.20</ele>
        <time>2018-05-26T12:11:32Z</time>
      </trkpt>
      <trkpt lat="41.617748900" lon="1.652840800">
        <ele>434.40</ele>
        <time>2018-05-26T12:11:35Z</time>
      </trkpt>
      <trkpt lat="41.617802500" lon="1.653192700">
        <ele>435.20</ele>
        <time>2018-05-26T12:11:40Z</time>
      </trkpt>
      <trkpt lat="41.617824200" lon="1.653325400">
        <ele>435.60</ele>
        <time>2018-05-26T12:11:42Z</time>
      </trkpt>
      <trkpt lat="41.617878100" lon="1.653591900">
        <ele>436.60</ele>
        <time>2018-05-26T12:11:47Z</time>
      </trkpt>
      <trkpt lat="41.618007400" lon="1.653785500">
        <ele>437.40</ele>
        <time>2018-05-26T12:11:51Z</time>
      </trkpt>
      <trkpt lat="41.618100300" lon="1.653831400">
        <ele>438.00</ele>
        <time>2018-05-26T12:11:53Z</time>
      </trkpt>
      <trkpt lat="41.618254600" lon="1.653874900">
        <ele>438.20</ele>
        <time>2018-05-26T12:11:56Z</time>
      </trkpt>
      <trkpt lat="41.618522000" lon="1.653872000">
        <ele>439.00</ele>
        <time>2018-05-26T12:12:01Z</time>
      </trkpt>
      <trkpt lat="41.618749600" lon="1.653827300">
        <ele>439.80</ele>
        <time>2018-05-26T12:12:05Z</time>
      </trkpt>
      <trkpt lat="41.618862500" lon="1.653856900">
        <ele>439.60</ele>
        <time>2018-05-26T12:12:07Z</time>
      </trkpt>
      <trkpt lat="41.619002900" lon="1.653992500">
        <ele>439.80</ele>
        <time>2018-05-26T12:12:10Z</time>
      </trkpt>
      <trkpt lat="41.619075100" lon="1.654112000">
        <ele>440.20</ele>
        <time>2018-05-26T12:12:12Z</time>
      </trkpt>
      <trkpt lat="41.619189100" lon="1.654295200">
        <ele>440.80</ele>
        <time>2018-05-26T12:12:15Z</time>
      </trkpt>
      <trkpt lat="41.619311100" lon="1.654450700">
        <ele>441.20</ele>
        <time>2018-05-26T12:12:18Z</time>
      </trkpt>
      <trkpt lat="41.619408100" lon="1.654513300">
        <ele>441.60</ele>
        <time>2018-05-26T12:12:20Z</time>
      </trkpt>
      <trkpt lat="41.619629200" lon="1.654552100">
        <ele>441.80</ele>
        <time>2018-05-26T12:12:24Z</time>
      </trkpt>
      <trkpt lat="41.619988000" lon="1.654562300">
        <ele>442.40</ele>
        <time>2018-05-26T12:12:30Z</time>
      </trkpt>
      <trkpt lat="41.620095300" lon="1.654567600">
        <ele>442.80</ele>
        <time>2018-05-26T12:12:32Z</time>
      </trkpt>
      <trkpt lat="41.620497000" lon="1.654576300">
        <ele>443.60</ele>
        <time>2018-05-26T12:12:39Z</time>
      </trkpt>
      <trkpt lat="41.620728300" lon="1.654607800">
        <ele>444.80</ele>
        <time>2018-05-26T12:12:43Z</time>
      </trkpt>
      <trkpt lat="41.620893100" lon="1.654671300">
        <ele>445.00</ele>
        <time>2018-05-26T12:12:46Z</time>
      </trkpt>
      <trkpt lat="41.621108200" lon="1.654825700">
        <ele>445.80</ele>
        <time>2018-05-26T12:12:50Z</time>
      </trkpt>
      <trkpt lat="41.621360300" lon="1.655043700">
        <ele>447.00</ele>
        <time>2018-05-26T12:12:55Z</time>
      </trkpt>
      <trkpt lat="41.621564800" lon="1.655220000">
        <ele>447.80</ele>
        <time>2018-05-26T12:12:59Z</time>
      </trkpt>
      <trkpt lat="41.621790300" lon="1.655496900">
        <ele>448.40</ele>
        <time>2018-05-26T12:13:04Z</time>
      </trkpt>
      <trkpt lat="41.621868200" lon="1.655710400">
        <ele>449.00</ele>
        <time>2018-05-26T12:13:07Z</time>
      </trkpt>
      <trkpt lat="41.621930500" lon="1.655946700">
        <ele>450.20</ele>
        <time>2018-05-26T12:13:10Z</time>
      </trkpt>
      <trkpt lat="41.622011800" lon="1.656153400">
        <ele>450.60</ele>
        <time>2018-05-26T12:13:13Z</time>
      </trkpt>
      <trkpt lat="41.622121400" lon="1.656328100">
        <ele>451.40</ele>
        <time>2018-05-26T12:13:16Z</time>
      </trkpt>
      <trkpt lat="41.622256500" lon="1.656462500">
        <ele>452.20</ele>
        <time>2018-05-26T12:13:19Z</time>
      </trkpt>
      <trkpt lat="41.622602600" lon="1.656748100">
        <ele>453.40</ele>
        <time>2018-05-26T12:13:26Z</time>
      </trkpt>
      <trkpt lat="41.622866100" lon="1.656951600">
        <ele>452.60</ele>
        <time>2018-05-26T12:13:31Z</time>
      </trkpt>
      <trkpt lat="41.622969100" lon="1.657032700">
        <ele>453.80</ele>
        <time>2018-05-26T12:13:33Z</time>
      </trkpt>
      <trkpt lat="41.623117500" lon="1.657163300">
        <ele>455.20</ele>
        <time>2018-05-26T12:13:36Z</time>
      </trkpt>
      <trkpt lat="41.623259500" lon="1.657307000">
        <ele>455.60</ele>
        <time>2018-05-26T12:13:39Z</time>
      </trkpt>
      <trkpt lat="41.623385800" lon="1.657461000">
        <ele>456.00</ele>
        <time>2018-05-26T12:13:42Z</time>
      </trkpt>
      <trkpt lat="41.623463100" lon="1.657554400">
        <ele>456.40</ele>
        <time>2018-05-26T12:13:44Z</time>
      </trkpt>
      <trkpt lat="41.623663500" lon="1.657800100">
        <ele>457.40</ele>
        <time>2018-05-26T12:13:49Z</time>
      </trkpt>
      <trkpt lat="41.623981200" lon="1.658221400">
        <ele>458.40</ele>
        <time>2018-05-26T12:13:57Z</time>
      </trkpt>
      <trkpt lat="41.624176600" lon="1.658485000">
        <ele>459.60</ele>
        <time>2018-05-26T12:14:02Z</time>
      </trkpt>
      <trkpt lat="41.624278100" lon="1.658642800">
        <ele>460.40</ele>
        <time>2018-05-26T12:14:05Z</time>
      </trkpt>
      <trkpt lat="41.624342300" lon="1.658744400">
        <ele>460.80</ele>
        <time>2018-05-26T12:14:07Z</time>
      </trkpt>
      <trkpt lat="41.624517200" lon="1.659087400">
        <ele>462.00</ele>
        <time>2018-05-26T12:14:13Z</time>
      </trkpt>
      <trkpt lat="41.624694600" lon="1.659429200">
        <ele>463.20</ele>
        <time>2018-05-26T12:14:19Z</time>
      </trkpt>
      <trkpt lat="41.624756500" lon="1.659540000">
        <ele>464.00</ele>
        <time>2018-05-26T12:14:21Z</time>
      </trkpt>
      <trkpt lat="41.624856000" lon="1.659696700">
        <ele>465.00</ele>
        <time>2018-05-26T12:14:24Z</time>
      </trkpt>
      <trkpt lat="41.624964700" lon="1.659839600">
        <ele>465.80</ele>
        <time>2018-05-26T12:14:27Z</time>
      </trkpt>
      <trkpt lat="41.625035000" lon="1.659933000">
        <ele>467.00</ele>
        <time>2018-05-26T12:14:29Z</time>
      </trkpt>
      <trkpt lat="41.625109500" lon="1.660031400">
        <ele>467.20</ele>
        <time>2018-05-26T12:14:31Z</time>
      </trkpt>
      <trkpt lat="41.625177100" lon="1.660143000">
        <ele>467.40</ele>
        <time>2018-05-26T12:14:33Z</time>
      </trkpt>
      <trkpt lat="41.625259500" lon="1.660323800">
        <ele>468.00</ele>
        <time>2018-05-26T12:14:36Z</time>
      </trkpt>
      <trkpt lat="41.625390600" lon="1.660515500">
        <ele>469.80</ele>
        <time>2018-05-26T12:14:40Z</time>
      </trkpt>
      <trkpt lat="41.625466700" lon="1.660598900">
        <ele>470.20</ele>
        <time>2018-05-26T12:14:42Z</time>
      </trkpt>
      <trkpt lat="41.625578100" lon="1.660743000">
        <ele>470.60</ele>
        <time>2018-05-26T12:14:45Z</time>
      </trkpt>
      <trkpt lat="41.625626600" lon="1.660858400">
        <ele>471.40</ele>
        <time>2018-05-26T12:14:47Z</time>
      </trkpt>
      <trkpt lat="41.625624700" lon="1.661097500">
        <ele>472.60</ele>
        <time>2018-05-26T12:14:51Z</time>
      </trkpt>
      <trkpt lat="41.625601700" lon="1.661221500">
        <ele>473.00</ele>
        <time>2018-05-26T12:14:53Z</time>
      </trkpt>
      <trkpt lat="41.625556400" lon="1.661418400">
        <ele>473.60</ele>
        <time>2018-05-26T12:14:56Z</time>
      </trkpt>
      <trkpt lat="41.625475000" lon="1.661656700">
        <ele>474.40</ele>
        <time>2018-05-26T12:15:00Z</time>
      </trkpt>
      <trkpt lat="41.625429600" lon="1.661771300">
        <ele>474.80</ele>
        <time>2018-05-26T12:15:02Z</time>
      </trkpt>
      <trkpt lat="41.625379500" lon="1.661875800">
        <ele>475.20</ele>
        <time>2018-05-26T12:15:04Z</time>
      </trkpt>
      <trkpt lat="41.625336300" lon="1.661993700">
        <ele>475.80</ele>
        <time>2018-05-26T12:15:06Z</time>
      </trkpt>
      <trkpt lat="41.625302800" lon="1.662250300">
        <ele>476.60</ele>
        <time>2018-05-26T12:15:10Z</time>
      </trkpt>
      <trkpt lat="41.625376800" lon="1.662430300">
        <ele>477.00</ele>
        <time>2018-05-26T12:15:13Z</time>
      </trkpt>
      <trkpt lat="41.625546600" lon="1.662559200">
        <ele>478.20</ele>
        <time>2018-05-26T12:15:17Z</time>
      </trkpt>
      <trkpt lat="41.625723200" lon="1.662639400">
        <ele>479.20</ele>
        <time>2018-05-26T12:15:21Z</time>
      </trkpt>
      <trkpt lat="41.625846100" lon="1.662712400">
        <ele>480.00</ele>
        <time>2018-05-26T12:15:24Z</time>
      </trkpt>
      <trkpt lat="41.625977200" lon="1.662896300">
        <ele>480.80</ele>
        <time>2018-05-26T12:15:28Z</time>
      </trkpt>
      <trkpt lat="41.626021200" lon="1.663012300">
        <ele>481.00</ele>
        <time>2018-05-26T12:15:30Z</time>
      </trkpt>
      <trkpt lat="41.626046500" lon="1.663131000">
        <ele>481.60</ele>
        <time>2018-05-26T12:15:32Z</time>
      </trkpt>
      <trkpt lat="41.626076900" lon="1.663306800">
        <ele>482.80</ele>
        <time>2018-05-26T12:15:35Z</time>
      </trkpt>
      <trkpt lat="41.626125300" lon="1.663589900">
        <ele>484.00</ele>
        <time>2018-05-26T12:15:40Z</time>
      </trkpt>
      <trkpt lat="41.626157700" lon="1.663813100">
        <ele>485.00</ele>
        <time>2018-05-26T12:15:44Z</time>
      </trkpt>
      <trkpt lat="41.626188100" lon="1.664040800">
        <ele>485.80</ele>
        <time>2018-05-26T12:15:48Z</time>
      </trkpt>
      <trkpt lat="41.626262100" lon="1.664430900">
        <ele>487.40</ele>
        <time>2018-05-26T12:15:55Z</time>
      </trkpt>
      <trkpt lat="41.626315200" lon="1.664764800">
        <ele>488.40</ele>
        <time>2018-05-26T12:16:01Z</time>
      </trkpt>
      <trkpt lat="41.626344700" lon="1.664935800">
        <ele>489.60</ele>
        <time>2018-05-26T12:16:04Z</time>
      </trkpt>
      <trkpt lat="41.626439700" lon="1.665292100">
        <ele>490.60</ele>
        <time>2018-05-26T12:16:10Z</time>
      </trkpt>
      <trkpt lat="41.626560200" lon="1.665473300">
        <ele>491.00</ele>
        <time>2018-05-26T12:16:14Z</time>
      </trkpt>
      <trkpt lat="41.626664400" lon="1.665582900">
        <ele>492.00</ele>
        <time>2018-05-26T12:16:17Z</time>
      </trkpt>
      <trkpt lat="41.626764700" lon="1.665704300">
        <ele>492.40</ele>
        <time>2018-05-26T12:16:20Z</time>
      </trkpt>
      <trkpt lat="41.626826300" lon="1.665796500">
        <ele>493.20</ele>
        <time>2018-05-26T12:16:22Z</time>
      </trkpt>
      <trkpt lat="41.626951300" lon="1.666107900">
        <ele>494.40</ele>
        <time>2018-05-26T12:16:28Z</time>
      </trkpt>
      <trkpt lat="41.626974600" lon="1.666283900">
        <ele>495.00</ele>
        <time>2018-05-26T12:16:31Z</time>
      </trkpt>
      <trkpt lat="41.626943600" lon="1.666450300">
        <ele>495.40</ele>
        <time>2018-05-26T12:16:34Z</time>
      </trkpt>
      <trkpt lat="41.626899500" lon="1.666560700">
        <ele>495.80</ele>
        <time>2018-05-26T12:16:36Z</time>
      </trkpt>
      <trkpt lat="41.626827700" lon="1.666723600">
        <ele>496.60</ele>
        <time>2018-05-26T12:16:39Z</time>
      </trkpt>
      <trkpt lat="41.626724000" lon="1.666927200">
        <ele>497.80</ele>
        <time>2018-05-26T12:16:43Z</time>
      </trkpt>
      <trkpt lat="41.626629300" lon="1.667126400">
        <ele>498.20</ele>
        <time>2018-05-26T12:16:47Z</time>
      </trkpt>
      <trkpt lat="41.626543500" lon="1.667281400">
        <ele>498.80</ele>
        <time>2018-05-26T12:16:50Z</time>
      </trkpt>
      <trkpt lat="41.626426500" lon="1.667554900">
        <ele>499.80</ele>
        <time>2018-05-26T12:16:55Z</time>
      </trkpt>
      <trkpt lat="41.626383200" lon="1.667727700">
        <ele>501.00</ele>
        <time>2018-05-26T12:16:58Z</time>
      </trkpt>
      <trkpt lat="41.626371800" lon="1.667905500">
        <ele>501.20</ele>
        <time>2018-05-26T12:17:01Z</time>
      </trkpt>
      <trkpt lat="41.626394300" lon="1.668100500">
        <ele>501.40</ele>
        <time>2018-05-26T12:17:04Z</time>
      </trkpt>
      <trkpt lat="41.626425500" lon="1.668274500">
        <ele>502.20</ele>
        <time>2018-05-26T12:17:07Z</time>
      </trkpt>
      <trkpt lat="41.626525100" lon="1.668818500">
        <ele>503.60</ele>
        <time>2018-05-26T12:17:16Z</time>
      </trkpt>
      <trkpt lat="41.626575400" lon="1.669116100">
        <ele>504.60</ele>
        <time>2018-05-26T12:17:21Z</time>
      </trkpt>
      <trkpt lat="41.626632700" lon="1.669419000">
        <ele>505.40</ele>
        <time>2018-05-26T12:17:26Z</time>
      </trkpt>
      <trkpt lat="41.626654200" lon="1.669536700">
        <ele>505.80</ele>
        <time>2018-05-26T12:17:28Z</time>
      </trkpt>
      <trkpt lat="41.626683100" lon="1.669654600">
        <ele>506.80</ele>
        <time>2018-05-26T12:17:30Z</time>
      </trkpt>
      <trkpt lat="41.626755200" lon="1.669979000">
        <ele>507.40</ele>
        <time>2018-05-26T12:17:35Z</time>
      </trkpt>
      <trkpt lat="41.626822200" lon="1.670499400">
        <ele>507.40</ele>
        <time>2018-05-26T12:17:42Z</time>
      </trkpt>
      <trkpt lat="41.626816500" lon="1.671139000">
        <ele>507.40</ele>
        <time>2018-05-26T12:17:50Z</time>
      </trkpt>
      <trkpt lat="41.626877200" lon="1.671519800">
        <ele>507.20</ele>
        <time>2018-05-26T12:17:55Z</time>
      </trkpt>
      <trkpt lat="41.626927000" lon="1.671655300">
        <ele>507.40</ele>
        <time>2018-05-26T12:17:57Z</time>
      </trkpt>
      <trkpt lat="41.626977600" lon="1.671787900">
        <ele>508.00</ele>
        <time>2018-05-26T12:17:59Z</time>
      </trkpt>
      <trkpt lat="41.627020000" lon="1.671914900">
        <ele>508.20</ele>
        <time>2018-05-26T12:18:01Z</time>
      </trkpt>
      <trkpt lat="41.627070900" lon="1.672109700">
        <ele>509.00</ele>
        <time>2018-05-26T12:18:04Z</time>
      </trkpt>
      <trkpt lat="41.627098600" lon="1.672311400">
        <ele>509.80</ele>
        <time>2018-05-26T12:18:07Z</time>
      </trkpt>
      <trkpt lat="41.627084900" lon="1.672636300">
        <ele>511.20</ele>
        <time>2018-05-26T12:18:12Z</time>
      </trkpt>
      <trkpt lat="41.627072900" lon="1.672763300">
        <ele>511.80</ele>
        <time>2018-05-26T12:18:14Z</time>
      </trkpt>
      <trkpt lat="41.627074500" lon="1.672889600">
        <ele>512.00</ele>
        <time>2018-05-26T12:18:16Z</time>
      </trkpt>
      <trkpt lat="41.627096200" lon="1.673013900">
        <ele>512.60</ele>
        <time>2018-05-26T12:18:18Z</time>
      </trkpt>
      <trkpt lat="41.627137600" lon="1.673132300">
        <ele>513.20</ele>
        <time>2018-05-26T12:18:20Z</time>
      </trkpt>
      <trkpt lat="41.627193900" lon="1.673241000">
        <ele>513.80</ele>
        <time>2018-05-26T12:18:22Z</time>
      </trkpt>
      <trkpt lat="41.627283500" lon="1.673408700">
        <ele>514.00</ele>
        <time>2018-05-26T12:18:25Z</time>
      </trkpt>
      <trkpt lat="41.627321000" lon="1.673531600">
        <ele>514.40</ele>
        <time>2018-05-26T12:18:27Z</time>
      </trkpt>
      <trkpt lat="41.627325200" lon="1.673719600">
        <ele>515.60</ele>
        <time>2018-05-26T12:18:30Z</time>
      </trkpt>
      <trkpt lat="41.627270500" lon="1.673948400">
        <ele>516.80</ele>
        <time>2018-05-26T12:18:34Z</time>
      </trkpt>
      <trkpt lat="41.627234900" lon="1.674060900">
        <ele>517.20</ele>
        <time>2018-05-26T12:18:36Z</time>
      </trkpt>
      <trkpt lat="41.627192400" lon="1.674170000">
        <ele>517.80</ele>
        <time>2018-05-26T12:18:38Z</time>
      </trkpt>
      <trkpt lat="41.627101200" lon="1.674302700">
        <ele>517.80</ele>
        <time>2018-05-26T12:18:41Z</time>
      </trkpt>
      <trkpt lat="41.627024400" lon="1.674368100">
        <ele>518.60</ele>
        <time>2018-05-26T12:18:43Z</time>
      </trkpt>
      <trkpt lat="41.626910200" lon="1.674473000">
        <ele>519.60</ele>
        <time>2018-05-26T12:18:46Z</time>
      </trkpt>
      <trkpt lat="41.626844600" lon="1.674558200">
        <ele>520.00</ele>
        <time>2018-05-26T12:18:48Z</time>
      </trkpt>
      <trkpt lat="41.626788000" lon="1.674657500">
        <ele>520.20</ele>
        <time>2018-05-26T12:18:50Z</time>
      </trkpt>
      <trkpt lat="41.626698200" lon="1.674872700">
        <ele>520.80</ele>
        <time>2018-05-26T12:18:54Z</time>
      </trkpt>
      <trkpt lat="41.626663300" lon="1.674989000">
        <ele>521.20</ele>
        <time>2018-05-26T12:18:56Z</time>
      </trkpt>
      <trkpt lat="41.626642300" lon="1.675107600">
        <ele>521.60</ele>
        <time>2018-05-26T12:18:58Z</time>
      </trkpt>
      <trkpt lat="41.626663600" lon="1.675287800">
        <ele>522.20</ele>
        <time>2018-05-26T12:19:01Z</time>
      </trkpt>
      <trkpt lat="41.626762800" lon="1.675503900">
        <ele>523.00</ele>
        <time>2018-05-26T12:19:05Z</time>
      </trkpt>
      <trkpt lat="41.626834100" lon="1.675578900">
        <ele>523.20</ele>
        <time>2018-05-26T12:19:07Z</time>
      </trkpt>
      <trkpt lat="41.626928000" lon="1.675712200">
        <ele>523.80</ele>
        <time>2018-05-26T12:19:10Z</time>
      </trkpt>
      <trkpt lat="41.626968700" lon="1.675891100">
        <ele>524.40</ele>
        <time>2018-05-26T12:19:13Z</time>
      </trkpt>
      <trkpt lat="41.626932700" lon="1.676135200">
        <ele>525.60</ele>
        <time>2018-05-26T12:19:17Z</time>
      </trkpt>
      <trkpt lat="41.626904700" lon="1.676254500">
        <ele>525.80</ele>
        <time>2018-05-26T12:19:19Z</time>
      </trkpt>
      <trkpt lat="41.626840100" lon="1.676543200">
        <ele>526.80</ele>
        <time>2018-05-26T12:19:24Z</time>
      </trkpt>
      <trkpt lat="41.626795400" lon="1.676787300">
        <ele>527.60</ele>
        <time>2018-05-26T12:19:28Z</time>
      </trkpt>
      <trkpt lat="41.626790000" lon="1.677161600">
        <ele>528.80</ele>
        <time>2018-05-26T12:19:34Z</time>
      </trkpt>
      <trkpt lat="41.626832500" lon="1.677460200">
        <ele>530.00</ele>
        <time>2018-05-26T12:19:39Z</time>
      </trkpt>
      <trkpt lat="41.626860600" lon="1.677635700">
        <ele>530.00</ele>
        <time>2018-05-26T12:19:42Z</time>
      </trkpt>
      <trkpt lat="41.626853500" lon="1.677823000">
        <ele>531.00</ele>
        <time>2018-05-26T12:19:45Z</time>
      </trkpt>
      <trkpt lat="41.626812200" lon="1.677991100">
        <ele>532.60</ele>
        <time>2018-05-26T12:19:48Z</time>
      </trkpt>
      <trkpt lat="41.626675100" lon="1.678292800">
        <ele>533.60</ele>
        <time>2018-05-26T12:19:54Z</time>
      </trkpt>
      <trkpt lat="41.626550400" lon="1.678543700">
        <ele>535.00</ele>
        <time>2018-05-26T12:19:59Z</time>
      </trkpt>
      <trkpt lat="41.626461000" lon="1.678692000">
        <ele>534.80</ele>
        <time>2018-05-26T12:20:02Z</time>
      </trkpt>
      <trkpt lat="41.626172200" lon="1.679053500">
        <ele>535.60</ele>
        <time>2018-05-26T12:20:10Z</time>
      </trkpt>
      <trkpt lat="41.626021300" lon="1.679227700">
        <ele>536.00</ele>
        <time>2018-05-26T12:20:14Z</time>
      </trkpt>
      <trkpt lat="41.625953600" lon="1.679315700">
        <ele>536.20</ele>
        <time>2018-05-26T12:20:16Z</time>
      </trkpt>
      <trkpt lat="41.625675000" lon="1.679688500">
        <ele>536.80</ele>
        <time>2018-05-26T12:20:24Z</time>
      </trkpt>
      <trkpt lat="41.625593000" lon="1.679854900">
        <ele>536.20</ele>
        <time>2018-05-26T12:20:27Z</time>
      </trkpt>
      <trkpt lat="41.625565100" lon="1.679973700">
        <ele>536.40</ele>
        <time>2018-05-26T12:20:29Z</time>
      </trkpt>
      <trkpt lat="41.625537800" lon="1.680207200">
        <ele>537.20</ele>
        <time>2018-05-26T12:20:33Z</time>
      </trkpt>
      <trkpt lat="41.625526100" lon="1.680375500">
        <ele>538.40</ele>
        <time>2018-05-26T12:20:36Z</time>
      </trkpt>
      <trkpt lat="41.625502800" lon="1.680634500">
        <ele>539.80</ele>
        <time>2018-05-26T12:20:41Z</time>
      </trkpt>
      <trkpt lat="41.625484900" lon="1.680782700">
        <ele>540.60</ele>
        <time>2018-05-26T12:20:44Z</time>
      </trkpt>
      <trkpt lat="41.625439300" lon="1.681203000">
        <ele>541.40</ele>
        <time>2018-05-26T12:20:53Z</time>
      </trkpt>
      <trkpt lat="41.625422100" lon="1.681432300">
        <ele>543.00</ele>
        <time>2018-05-26T12:20:58Z</time>
      </trkpt>
      <trkpt lat="41.625411100" lon="1.681573900">
        <ele>543.80</ele>
        <time>2018-05-26T12:21:01Z</time>
      </trkpt>
      <trkpt lat="41.625369800" lon="1.681954900">
        <ele>545.40</ele>
        <time>2018-05-26T12:21:09Z</time>
      </trkpt>
      <trkpt lat="41.625437600" lon="1.682283000">
        <ele>546.40</ele>
        <time>2018-05-26T12:21:17Z</time>
      </trkpt>
      <trkpt lat="41.625604500" lon="1.682450600">
        <ele>547.40</ele>
        <time>2018-05-26T12:21:23Z</time>
      </trkpt>
      <trkpt lat="41.625696600" lon="1.682640200">
        <ele>548.80</ele>
        <time>2018-05-26T12:21:28Z</time>
      </trkpt>
      <trkpt lat="41.625677600" lon="1.682858000">
        <ele>550.00</ele>
        <time>2018-05-26T12:21:33Z</time>
      </trkpt>
      <trkpt lat="41.625650400" lon="1.683143100">
        <ele>551.20</ele>
        <time>2018-05-26T12:21:39Z</time>
      </trkpt>
      <trkpt lat="41.625638200" lon="1.683293300">
        <ele>552.40</ele>
        <time>2018-05-26T12:21:42Z</time>
      </trkpt>
      <trkpt lat="41.625664600" lon="1.683531600">
        <ele>553.20</ele>
        <time>2018-05-26T12:21:47Z</time>
      </trkpt>
      <trkpt lat="41.625776500" lon="1.683727400">
        <ele>554.60</ele>
        <time>2018-05-26T12:21:52Z</time>
      </trkpt>
      <trkpt lat="41.625938600" lon="1.683942800">
        <ele>555.60</ele>
        <time>2018-05-26T12:21:58Z</time>
      </trkpt>
      <trkpt lat="41.626008900" lon="1.684069900">
        <ele>556.20</ele>
        <time>2018-05-26T12:22:01Z</time>
      </trkpt>
      <trkpt lat="41.626140100" lon="1.684411200">
        <ele>556.80</ele>
        <time>2018-05-26T12:22:08Z</time>
      </trkpt>
      <trkpt lat="41.626359900" lon="1.684981100">
        <ele>557.20</ele>
        <time>2018-05-26T12:22:19Z</time>
      </trkpt>
      <trkpt lat="41.626443100" lon="1.685192100">
        <ele>558.00</ele>
        <time>2018-05-26T12:22:23Z</time>
      </trkpt>
      <trkpt lat="41.626481900" lon="1.685301900">
        <ele>560.00</ele>
        <time>2018-05-26T12:22:25Z</time>
      </trkpt>
      <trkpt lat="41.626517500" lon="1.685414700">
        <ele>557.60</ele>
        <time>2018-05-26T12:22:27Z</time>
      </trkpt>
      <trkpt lat="41.626669300" lon="1.685925800">
        <ele>557.80</ele>
        <time>2018-05-26T12:22:36Z</time>
      </trkpt>
      <trkpt lat="41.626689100" lon="1.686333400">
        <ele>558.40</ele>
        <time>2018-05-26T12:22:43Z</time>
      </trkpt>
      <trkpt lat="41.626725500" lon="1.686633800">
        <ele>558.80</ele>
        <time>2018-05-26T12:22:48Z</time>
      </trkpt>
      <trkpt lat="41.626860700" lon="1.686922400">
        <ele>558.20</ele>
        <time>2018-05-26T12:22:53Z</time>
      </trkpt>
      <trkpt lat="41.627168300" lon="1.687336900">
        <ele>557.80</ele>
        <time>2018-05-26T12:23:00Z</time>
      </trkpt>
      <trkpt lat="41.627309300" lon="1.687528400">
        <ele>557.40</ele>
        <time>2018-05-26T12:23:03Z</time>
      </trkpt>
      <trkpt lat="41.627464300" lon="1.687721600">
        <ele>557.00</ele>
        <time>2018-05-26T12:23:06Z</time>
      </trkpt>
      <trkpt lat="41.627685900" lon="1.687910100">
        <ele>557.00</ele>
        <time>2018-05-26T12:23:10Z</time>
      </trkpt>
      <trkpt lat="41.627931000" lon="1.687931000">
        <ele>556.80</ele>
        <time>2018-05-26T12:23:14Z</time>
      </trkpt>
      <trkpt lat="41.628046200" lon="1.687956100">
        <ele>556.00</ele>
        <time>2018-05-26T12:23:16Z</time>
      </trkpt>
      <trkpt lat="41.628150500" lon="1.688010500">
        <ele>556.00</ele>
        <time>2018-05-26T12:23:18Z</time>
      </trkpt>
      <trkpt lat="41.628226000" lon="1.688111500">
        <ele>556.40</ele>
        <time>2018-05-26T12:23:20Z</time>
      </trkpt>
      <trkpt lat="41.628278100" lon="1.688228400">
        <ele>556.80</ele>
        <time>2018-05-26T12:23:22Z</time>
      </trkpt>
      <trkpt lat="41.628344400" lon="1.688396900">
        <ele>557.60</ele>
        <time>2018-05-26T12:23:25Z</time>
      </trkpt>
      <trkpt lat="41.628390300" lon="1.688516600">
        <ele>558.20</ele>
        <time>2018-05-26T12:23:27Z</time>
      </trkpt>
      <trkpt lat="41.628501400" lon="1.688721900">
        <ele>559.20</ele>
        <time>2018-05-26T12:23:31Z</time>
      </trkpt>
      <trkpt lat="41.628784600" lon="1.689035600">
        <ele>559.60</ele>
        <time>2018-05-26T12:23:38Z</time>
      </trkpt>
      <trkpt lat="41.629109400" lon="1.689383000">
        <ele>560.00</ele>
        <time>2018-05-26T12:23:46Z</time>
      </trkpt>
      <trkpt lat="41.629192000" lon="1.689475400">
        <ele>560.40</ele>
        <time>2018-05-26T12:23:48Z</time>
      </trkpt>
      <trkpt lat="41.629450500" lon="1.689695700">
        <ele>561.00</ele>
        <time>2018-05-26T12:23:54Z</time>
      </trkpt>
      <trkpt lat="41.629800200" lon="1.689855100">
        <ele>562.20</ele>
        <time>2018-05-26T12:24:01Z</time>
      </trkpt>
      <trkpt lat="41.630226400" lon="1.689883700">
        <ele>562.00</ele>
        <time>2018-05-26T12:24:08Z</time>
      </trkpt>
      <trkpt lat="41.630657200" lon="1.689832500">
        <ele>561.80</ele>
        <time>2018-05-26T12:24:14Z</time>
      </trkpt>
      <trkpt lat="41.630801200" lon="1.689823300">
        <ele>562.20</ele>
        <time>2018-05-26T12:24:16Z</time>
      </trkpt>
      <trkpt lat="41.630947700" lon="1.689810500">
        <ele>561.00</ele>
        <time>2018-05-26T12:24:18Z</time>
      </trkpt>
      <trkpt lat="41.631099200" lon="1.689796700">
        <ele>560.20</ele>
        <time>2018-05-26T12:24:20Z</time>
      </trkpt>
      <trkpt lat="41.631404800" lon="1.689780800">
        <ele>559.20</ele>
        <time>2018-05-26T12:24:24Z</time>
      </trkpt>
      <trkpt lat="41.631627700" lon="1.689814700">
        <ele>558.80</ele>
        <time>2018-05-26T12:24:27Z</time>
      </trkpt>
      <trkpt lat="41.631772200" lon="1.689861800">
        <ele>557.80</ele>
        <time>2018-05-26T12:24:29Z</time>
      </trkpt>
      <trkpt lat="41.632080500" lon="1.689909100">
        <ele>558.00</ele>
        <time>2018-05-26T12:24:33Z</time>
      </trkpt>
      <trkpt lat="41.632306000" lon="1.689810900">
        <ele>556.60</ele>
        <time>2018-05-26T12:24:36Z</time>
      </trkpt>
      <trkpt lat="41.632514700" lon="1.689651000">
        <ele>556.40</ele>
        <time>2018-05-26T12:24:39Z</time>
      </trkpt>
      <trkpt lat="41.632655700" lon="1.689550400">
        <ele>555.80</ele>
        <time>2018-05-26T12:24:41Z</time>
      </trkpt>
      <trkpt lat="41.632884200" lon="1.689451000">
        <ele>554.00</ele>
        <time>2018-05-26T12:24:44Z</time>
      </trkpt>
      <trkpt lat="41.633077400" lon="1.689562700">
        <ele>552.80</ele>
        <time>2018-05-26T12:24:47Z</time>
      </trkpt>
      <trkpt lat="41.633130000" lon="1.689732800">
        <ele>552.40</ele>
        <time>2018-05-26T12:24:49Z</time>
      </trkpt>
      <trkpt lat="41.633261500" lon="1.690095500">
        <ele>552.40</ele>
        <time>2018-05-26T12:24:54Z</time>
      </trkpt>
      <trkpt lat="41.633302800" lon="1.690267700">
        <ele>552.60</ele>
        <time>2018-05-26T12:24:57Z</time>
      </trkpt>
      <trkpt lat="41.633272200" lon="1.690427000">
        <ele>553.40</ele>
        <time>2018-05-26T12:30:13Z</time>
      </trkpt>
      <trkpt lat="41.633240100" lon="1.690539800">
        <ele>553.20</ele>
        <time>2018-05-26T12:30:16Z</time>
      </trkpt>
      <trkpt lat="41.633194000" lon="1.690718000">
        <ele>553.80</ele>
        <time>2018-05-26T12:30:20Z</time>
      </trkpt>
      <trkpt lat="41.633141800" lon="1.690848800">
        <ele>554.20</ele>
        <time>2018-05-26T12:30:23Z</time>
      </trkpt>
      <trkpt lat="41.633083000" lon="1.691030200">
        <ele>555.20</ele>
        <time>2018-05-26T12:30:27Z</time>
      </trkpt>
      <trkpt lat="41.633075300" lon="1.691258600">
        <ele>554.80</ele>
        <time>2018-05-26T12:30:32Z</time>
      </trkpt>
      <trkpt lat="41.633106300" lon="1.691452000">
        <ele>555.00</ele>
        <time>2018-05-26T12:30:36Z</time>
      </trkpt>
      <trkpt lat="41.633186800" lon="1.691787200">
        <ele>555.80</ele>
        <time>2018-05-26T12:30:42Z</time>
      </trkpt>
      <trkpt lat="41.633227100" lon="1.691950000">
        <ele>555.80</ele>
        <time>2018-05-26T12:30:45Z</time>
      </trkpt>
      <trkpt lat="41.633266600" lon="1.692119200">
        <ele>555.60</ele>
        <time>2018-05-26T12:30:48Z</time>
      </trkpt>
      <trkpt lat="41.633379800" lon="1.692451000">
        <ele>555.60</ele>
        <time>2018-05-26T12:30:54Z</time>
      </trkpt>
      <trkpt lat="41.633559500" lon="1.692840000">
        <ele>555.60</ele>
        <time>2018-05-26T12:31:01Z</time>
      </trkpt>
      <trkpt lat="41.633717400" lon="1.693098900">
        <ele>555.80</ele>
        <time>2018-05-26T12:31:06Z</time>
      </trkpt>
      <trkpt lat="41.633912000" lon="1.693203000">
        <ele>554.60</ele>
        <time>2018-05-26T12:31:10Z</time>
      </trkpt>
      <trkpt lat="41.634077200" lon="1.693314400">
        <ele>553.40</ele>
        <time>2018-05-26T12:31:13Z</time>
      </trkpt>
      <trkpt lat="41.634228200" lon="1.693468800">
        <ele>553.20</ele>
        <time>2018-05-26T12:31:16Z</time>
      </trkpt>
      <trkpt lat="41.634583600" lon="1.693873400">
        <ele>552.60</ele>
        <time>2018-05-26T12:31:23Z</time>
      </trkpt>
      <trkpt lat="41.634575300" lon="1.694153000">
        <ele>552.40</ele>
        <time>2018-05-26T12:31:26Z</time>
      </trkpt>
      <trkpt lat="41.634430900" lon="1.694399400">
        <ele>551.40</ele>
        <time>2018-05-26T12:31:29Z</time>
      </trkpt>
      <trkpt lat="41.634329500" lon="1.694527000">
        <ele>550.60</ele>
        <time>2018-05-26T12:31:31Z</time>
      </trkpt>
      <trkpt lat="41.634213200" lon="1.694697900">
        <ele>551.20</ele>
        <time>2018-05-26T12:31:34Z</time>
      </trkpt>
      <trkpt lat="41.634196200" lon="1.694895800">
        <ele>552.80</ele>
        <time>2018-05-26T12:31:37Z</time>
      </trkpt>
      <trkpt lat="41.634188200" lon="1.695088800">
        <ele>553.80</ele>
        <time>2018-05-26T12:31:40Z</time>
      </trkpt>
      <trkpt lat="41.634182700" lon="1.695427400">
        <ele>554.40</ele>
        <time>2018-05-26T12:31:45Z</time>
      </trkpt>
      <trkpt lat="41.634180200" lon="1.695564000">
        <ele>555.00</ele>
        <time>2018-05-26T12:31:47Z</time>
      </trkpt>
      <trkpt lat="41.634196800" lon="1.695825300">
        <ele>555.40</ele>
        <time>2018-05-26T12:31:51Z</time>
      </trkpt>
      <trkpt lat="41.634392300" lon="1.696065900">
        <ele>555.20</ele>
        <time>2018-05-26T12:31:56Z</time>
      </trkpt>
      <trkpt lat="41.634583600" lon="1.696193400">
        <ele>554.00</ele>
        <time>2018-05-26T12:32:00Z</time>
      </trkpt>
      <trkpt lat="41.634867100" lon="1.696219800">
        <ele>552.20</ele>
        <time>2018-05-26T12:32:04Z</time>
      </trkpt>
      <trkpt lat="41.635193400" lon="1.696136800">
        <ele>551.60</ele>
        <time>2018-05-26T12:32:08Z</time>
      </trkpt>
      <trkpt lat="41.635274800" lon="1.696079700">
        <ele>551.00</ele>
        <time>2018-05-26T12:32:09Z</time>
      </trkpt>
      <trkpt lat="41.635438700" lon="1.695931700">
        <ele>549.80</ele>
        <time>2018-05-26T12:32:11Z</time>
      </trkpt>
      <trkpt lat="41.635622500" lon="1.695780700">
        <ele>548.20</ele>
        <time>2018-05-26T12:32:13Z</time>
      </trkpt>
      <trkpt lat="41.635715000" lon="1.695732900">
        <ele>547.60</ele>
        <time>2018-05-26T12:32:14Z</time>
      </trkpt>
      <trkpt lat="41.635813500" lon="1.695723600">
        <ele>546.80</ele>
        <time>2018-05-26T12:32:15Z</time>
      </trkpt>
      <trkpt lat="41.635912400" lon="1.695729500">
        <ele>546.20</ele>
        <time>2018-05-26T12:32:16Z</time>
      </trkpt>
      <trkpt lat="41.636105100" lon="1.695751200">
        <ele>545.60</ele>
        <time>2018-05-26T12:32:18Z</time>
      </trkpt>
      <trkpt lat="41.636303500" lon="1.695719300">
        <ele>543.60</ele>
        <time>2018-05-26T12:32:20Z</time>
      </trkpt>
      <trkpt lat="41.636388400" lon="1.695640300">
        <ele>542.40</ele>
        <time>2018-05-26T12:32:21Z</time>
      </trkpt>
      <trkpt lat="41.636451800" lon="1.695527900">
        <ele>542.20</ele>
        <time>2018-05-26T12:32:22Z</time>
      </trkpt>
      <trkpt lat="41.636557400" lon="1.695300300">
        <ele>543.80</ele>
        <time>2018-05-26T12:32:24Z</time>
      </trkpt>
      <trkpt lat="41.636623500" lon="1.695213300">
        <ele>544.20</ele>
        <time>2018-05-26T12:32:25Z</time>
      </trkpt>
      <trkpt lat="41.636850800" lon="1.695050200">
        <ele>542.60</ele>
        <time>2018-05-26T12:32:28Z</time>
      </trkpt>
      <trkpt lat="41.637042700" lon="1.694900500">
        <ele>543.60</ele>
        <time>2018-05-26T12:32:31Z</time>
      </trkpt>
      <trkpt lat="41.637184900" lon="1.694848300">
        <ele>544.20</ele>
        <time>2018-05-26T12:32:33Z</time>
      </trkpt>
      <trkpt lat="41.637398500" lon="1.694959100">
        <ele>543.20</ele>
        <time>2018-05-26T12:32:36Z</time>
      </trkpt>
      <trkpt lat="41.637533100" lon="1.695076200">
        <ele>542.40</ele>
        <time>2018-05-26T12:32:38Z</time>
      </trkpt>
      <trkpt lat="41.637760100" lon="1.695265700">
        <ele>541.40</ele>
        <time>2018-05-26T12:32:41Z</time>
      </trkpt>
      <trkpt lat="41.637841700" lon="1.695328500">
        <ele>540.00</ele>
        <time>2018-05-26T12:32:42Z</time>
      </trkpt>
      <trkpt lat="41.638004000" lon="1.695454700">
        <ele>538.40</ele>
        <time>2018-05-26T12:32:44Z</time>
      </trkpt>
      <trkpt lat="41.638264300" lon="1.695583600">
        <ele>537.60</ele>
        <time>2018-05-26T12:32:47Z</time>
      </trkpt>
      <trkpt lat="41.638356900" lon="1.695621800">
        <ele>537.40</ele>
        <time>2018-05-26T12:32:48Z</time>
      </trkpt>
      <trkpt lat="41.638527700" lon="1.695683300">
        <ele>536.40</ele>
        <time>2018-05-26T12:32:50Z</time>
      </trkpt>
      <trkpt lat="41.638662200" lon="1.695579400">
        <ele>535.60</ele>
        <time>2018-05-26T12:32:52Z</time>
      </trkpt>
      <trkpt lat="41.638699800" lon="1.695469800">
        <ele>535.20</ele>
        <time>2018-05-26T12:32:53Z</time>
      </trkpt>
      <trkpt lat="41.638820400" lon="1.695149700">
        <ele>534.00</ele>
        <time>2018-05-26T12:32:56Z</time>
      </trkpt>
      <trkpt lat="41.638896600" lon="1.695073000">
        <ele>533.00</ele>
        <time>2018-05-26T12:32:57Z</time>
      </trkpt>
      <trkpt lat="41.638991100" lon="1.695016600">
        <ele>531.80</ele>
        <time>2018-05-26T12:32:58Z</time>
      </trkpt>
      <trkpt lat="41.639088300" lon="1.694982800">
        <ele>530.40</ele>
        <time>2018-05-26T12:32:59Z</time>
      </trkpt>
      <trkpt lat="41.639186300" lon="1.694989300">
        <ele>529.80</ele>
        <time>2018-05-26T12:33:00Z</time>
      </trkpt>
      <trkpt lat="41.639275400" lon="1.695039500">
        <ele>528.80</ele>
        <time>2018-05-26T12:33:01Z</time>
      </trkpt>
      <trkpt lat="41.639349900" lon="1.695110800">
        <ele>528.40</ele>
        <time>2018-05-26T12:33:02Z</time>
      </trkpt>
      <trkpt lat="41.639495000" lon="1.695285300">
        <ele>528.60</ele>
        <time>2018-05-26T12:33:04Z</time>
      </trkpt>
      <trkpt lat="41.639561000" lon="1.695380800">
        <ele>528.40</ele>
        <time>2018-05-26T12:33:05Z</time>
      </trkpt>
      <trkpt lat="41.639610000" lon="1.695498400">
        <ele>527.80</ele>
        <time>2018-05-26T12:33:06Z</time>
      </trkpt>
      <trkpt lat="41.639644100" lon="1.695624800">
        <ele>526.00</ele>
        <time>2018-05-26T12:33:07Z</time>
      </trkpt>
      <trkpt lat="41.639655700" lon="1.695747700">
        <ele>525.00</ele>
        <time>2018-05-26T12:33:08Z</time>
      </trkpt>
      <trkpt lat="41.639635500" lon="1.696087300">
        <ele>524.80</ele>
        <time>2018-05-26T12:33:11Z</time>
      </trkpt>
      <trkpt lat="41.639627500" lon="1.696297100">
        <ele>525.60</ele>
        <time>2018-05-26T12:33:13Z</time>
      </trkpt>
      <trkpt lat="41.639693700" lon="1.696578300">
        <ele>526.20</ele>
        <time>2018-05-26T12:33:16Z</time>
      </trkpt>
      <trkpt lat="41.639816600" lon="1.696831200">
        <ele>525.80</ele>
        <time>2018-05-26T12:33:19Z</time>
      </trkpt>
      <trkpt lat="41.639912800" lon="1.696997600">
        <ele>526.40</ele>
        <time>2018-05-26T12:33:21Z</time>
      </trkpt>
      <trkpt lat="41.640112100" lon="1.697149900">
        <ele>526.60</ele>
        <time>2018-05-26T12:33:24Z</time>
      </trkpt>
      <trkpt lat="41.640259500" lon="1.697051800">
        <ele>526.20</ele>
        <time>2018-05-26T12:33:26Z</time>
      </trkpt>
      <trkpt lat="41.640373800" lon="1.696879800">
        <ele>526.00</ele>
        <time>2018-05-26T12:33:28Z</time>
      </trkpt>
      <trkpt lat="41.640530900" lon="1.696834900">
        <ele>524.20</ele>
        <time>2018-05-26T12:33:30Z</time>
      </trkpt>
      <trkpt lat="41.640769800" lon="1.697010800">
        <ele>521.00</ele>
        <time>2018-05-26T12:33:33Z</time>
      </trkpt>
      <trkpt lat="41.640842900" lon="1.697101400">
        <ele>520.20</ele>
        <time>2018-05-26T12:33:34Z</time>
      </trkpt>
      <trkpt lat="41.640906500" lon="1.697207200">
        <ele>518.80</ele>
        <time>2018-05-26T12:33:35Z</time>
      </trkpt>
      <trkpt lat="41.640965000" lon="1.697316300">
        <ele>517.40</ele>
        <time>2018-05-26T12:33:36Z</time>
      </trkpt>
      <trkpt lat="41.640991800" lon="1.697439600">
        <ele>517.20</ele>
        <time>2018-05-26T12:33:37Z</time>
      </trkpt>
      <trkpt lat="41.641019400" lon="1.697811200">
        <ele>517.20</ele>
        <time>2018-05-26T12:33:40Z</time>
      </trkpt>
      <trkpt lat="41.641066900" lon="1.698037900">
        <ele>515.20</ele>
        <time>2018-05-26T12:33:42Z</time>
      </trkpt>
      <trkpt lat="41.641135300" lon="1.698257700">
        <ele>514.80</ele>
        <time>2018-05-26T12:33:44Z</time>
      </trkpt>
      <trkpt lat="41.641194800" lon="1.698479500">
        <ele>516.00</ele>
        <time>2018-05-26T12:33:46Z</time>
      </trkpt>
      <trkpt lat="41.641177800" lon="1.698686900">
        <ele>516.20</ele>
        <time>2018-05-26T12:33:48Z</time>
      </trkpt>
      <trkpt lat="41.641094400" lon="1.698925300">
        <ele>518.00</ele>
        <time>2018-05-26T12:33:51Z</time>
      </trkpt>
      <trkpt lat="41.641002100" lon="1.699123500">
        <ele>520.40</ele>
        <time>2018-05-26T12:33:54Z</time>
      </trkpt>
      <trkpt lat="41.640927100" lon="1.699312000">
        <ele>521.40</ele>
        <time>2018-05-26T12:33:57Z</time>
      </trkpt>
      <trkpt lat="41.640851300" lon="1.699489000">
        <ele>522.60</ele>
        <time>2018-05-26T12:34:00Z</time>
      </trkpt>
      <trkpt lat="41.640824300" lon="1.699611200">
        <ele>523.40</ele>
        <time>2018-05-26T12:34:02Z</time>
      </trkpt>
      <trkpt lat="41.640836300" lon="1.699882300">
        <ele>523.40</ele>
        <time>2018-05-26T12:34:06Z</time>
      </trkpt>
      <trkpt lat="41.640857200" lon="1.700025500">
        <ele>524.00</ele>
        <time>2018-05-26T12:34:08Z</time>
      </trkpt>
      <trkpt lat="41.640908100" lon="1.700384000">
        <ele>524.00</ele>
        <time>2018-05-26T12:34:14Z</time>
      </trkpt>
      <trkpt lat="41.640945300" lon="1.700552900">
        <ele>525.00</ele>
        <time>2018-05-26T12:34:17Z</time>
      </trkpt>
      <trkpt lat="41.640996600" lon="1.700814800">
        <ele>524.80</ele>
        <time>2018-05-26T12:34:22Z</time>
      </trkpt>
      <trkpt lat="41.641043900" lon="1.701026100">
        <ele>525.60</ele>
        <time>2018-05-26T12:34:26Z</time>
      </trkpt>
      <trkpt lat="41.641095300" lon="1.701188900">
        <ele>526.00</ele>
        <time>2018-05-26T12:34:29Z</time>
      </trkpt>
      <trkpt lat="41.641132300" lon="1.701300600">
        <ele>526.00</ele>
        <time>2018-05-26T12:34:31Z</time>
      </trkpt>
      <trkpt lat="41.641178100" lon="1.701413800">
        <ele>527.40</ele>
        <time>2018-05-26T12:34:33Z</time>
      </trkpt>
      <trkpt lat="41.641254100" lon="1.701589000">
        <ele>525.40</ele>
        <time>2018-05-26T12:34:36Z</time>
      </trkpt>
      <trkpt lat="41.641317000" lon="1.701704400">
        <ele>524.80</ele>
        <time>2018-05-26T12:34:38Z</time>
      </trkpt>
      <trkpt lat="41.641481700" lon="1.701945900">
        <ele>525.00</ele>
        <time>2018-05-26T12:34:42Z</time>
      </trkpt>
      <trkpt lat="41.641739300" lon="1.702200800">
        <ele>524.20</ele>
        <time>2018-05-26T12:34:46Z</time>
      </trkpt>
      <trkpt lat="41.641899500" lon="1.702278200">
        <ele>522.80</ele>
        <time>2018-05-26T12:34:48Z</time>
      </trkpt>
      <trkpt lat="41.642062100" lon="1.702359600">
        <ele>521.80</ele>
        <time>2018-05-26T12:34:50Z</time>
      </trkpt>
      <trkpt lat="41.642406700" lon="1.702628100">
        <ele>522.80</ele>
        <time>2018-05-26T12:34:55Z</time>
      </trkpt>
      <trkpt lat="41.642621100" lon="1.702832800">
        <ele>523.60</ele>
        <time>2018-05-26T12:34:59Z</time>
      </trkpt>
      <trkpt lat="41.642756000" lon="1.702897000">
        <ele>521.40</ele>
        <time>2018-05-26T12:35:01Z</time>
      </trkpt>
      <trkpt lat="41.642906700" lon="1.702932000">
        <ele>519.00</ele>
        <time>2018-05-26T12:35:03Z</time>
      </trkpt>
      <trkpt lat="41.643310400" lon="1.702950000">
        <ele>522.00</ele>
        <time>2018-05-26T12:35:08Z</time>
      </trkpt>
      <trkpt lat="41.643541900" lon="1.702961700">
        <ele>521.40</ele>
        <time>2018-05-26T12:35:11Z</time>
      </trkpt>
      <trkpt lat="41.643697100" lon="1.702939000">
        <ele>519.40</ele>
        <time>2018-05-26T12:35:13Z</time>
      </trkpt>
      <trkpt lat="41.643834300" lon="1.702848400">
        <ele>517.80</ele>
        <time>2018-05-26T12:35:15Z</time>
      </trkpt>
      <trkpt lat="41.644041100" lon="1.702709500">
        <ele>517.40</ele>
        <time>2018-05-26T12:35:18Z</time>
      </trkpt>
      <trkpt lat="41.644103200" lon="1.702621100">
        <ele>517.40</ele>
        <time>2018-05-26T12:35:19Z</time>
      </trkpt>
      <trkpt lat="41.644144600" lon="1.702501300">
        <ele>516.80</ele>
        <time>2018-05-26T12:35:20Z</time>
      </trkpt>
      <trkpt lat="41.644185100" lon="1.702377400">
        <ele>516.20</ele>
        <time>2018-05-26T12:35:21Z</time>
      </trkpt>
      <trkpt lat="41.644289000" lon="1.702128800">
        <ele>515.20</ele>
        <time>2018-05-26T12:35:23Z</time>
      </trkpt>
      <trkpt lat="41.644359200" lon="1.702010800">
        <ele>514.60</ele>
        <time>2018-05-26T12:35:24Z</time>
      </trkpt>
      <trkpt lat="41.644464700" lon="1.701935100">
        <ele>513.80</ele>
        <time>2018-05-26T12:35:25Z</time>
      </trkpt>
      <trkpt lat="41.644581500" lon="1.701885500">
        <ele>512.20</ele>
        <time>2018-05-26T12:35:26Z</time>
      </trkpt>
      <trkpt lat="41.644698300" lon="1.701867000">
        <ele>511.00</ele>
        <time>2018-05-26T12:35:27Z</time>
      </trkpt>
      <trkpt lat="41.644924200" lon="1.701851800">
        <ele>509.00</ele>
        <time>2018-05-26T12:35:29Z</time>
      </trkpt>
      <trkpt lat="41.645021000" lon="1.701867200">
        <ele>508.60</ele>
        <time>2018-05-26T12:35:30Z</time>
      </trkpt>
      <trkpt lat="41.645113800" lon="1.701921100">
        <ele>506.80</ele>
        <time>2018-05-26T12:35:31Z</time>
      </trkpt>
      <trkpt lat="41.645193000" lon="1.701998900">
        <ele>505.80</ele>
        <time>2018-05-26T12:35:32Z</time>
      </trkpt>
      <trkpt lat="41.645265200" lon="1.702098400">
        <ele>505.40</ele>
        <time>2018-05-26T12:35:33Z</time>
      </trkpt>
      <trkpt lat="41.645220000" lon="1.702413200">
        <ele>505.00</ele>
        <time>2018-05-26T12:35:36Z</time>
      </trkpt>
      <trkpt lat="41.645180800" lon="1.702586800">
        <ele>506.60</ele>
        <time>2018-05-26T12:35:38Z</time>
      </trkpt>
      <trkpt lat="41.645187600" lon="1.702762100">
        <ele>508.20</ele>
        <time>2018-05-26T12:35:40Z</time>
      </trkpt>
      <trkpt lat="41.645253300" lon="1.703321900">
        <ele>508.80</ele>
        <time>2018-05-26T12:35:47Z</time>
      </trkpt>
      <trkpt lat="41.645269200" lon="1.703463000">
        <ele>510.20</ele>
        <time>2018-05-26T12:35:49Z</time>
      </trkpt>
      <trkpt lat="41.645345300" lon="1.703575600">
        <ele>511.00</ele>
        <time>2018-05-26T12:35:51Z</time>
      </trkpt>
      <trkpt lat="41.645504100" lon="1.703698500">
        <ele>511.00</ele>
        <time>2018-05-26T12:35:54Z</time>
      </trkpt>
      <trkpt lat="41.645789300" lon="1.703941300">
        <ele>509.40</ele>
        <time>2018-05-26T12:35:59Z</time>
      </trkpt>
      <trkpt lat="41.645949900" lon="1.704100300">
        <ele>510.60</ele>
        <time>2018-05-26T12:36:02Z</time>
      </trkpt>
      <trkpt lat="41.646102400" lon="1.704285300">
        <ele>509.40</ele>
        <time>2018-05-26T12:36:05Z</time>
      </trkpt>
      <trkpt lat="41.646298600" lon="1.704533500">
        <ele>509.00</ele>
        <time>2018-05-26T12:36:09Z</time>
      </trkpt>
      <trkpt lat="41.646419400" lon="1.704621200">
        <ele>509.40</ele>
        <time>2018-05-26T12:36:11Z</time>
      </trkpt>
      <trkpt lat="41.646605100" lon="1.704463200">
        <ele>509.00</ele>
        <time>2018-05-26T12:36:14Z</time>
      </trkpt>
      <trkpt lat="41.646708200" lon="1.704302400">
        <ele>507.80</ele>
        <time>2018-05-26T12:36:16Z</time>
      </trkpt>
      <trkpt lat="41.646876400" lon="1.704270500">
        <ele>506.80</ele>
        <time>2018-05-26T12:36:18Z</time>
      </trkpt>
      <trkpt lat="41.646964700" lon="1.704303400">
        <ele>505.40</ele>
        <time>2018-05-26T12:36:19Z</time>
      </trkpt>
      <trkpt lat="41.647191300" lon="1.704459100">
        <ele>505.00</ele>
        <time>2018-05-26T12:36:22Z</time>
      </trkpt>
      <trkpt lat="41.647302600" lon="1.704580200">
        <ele>505.80</ele>
        <time>2018-05-26T12:36:24Z</time>
      </trkpt>
      <trkpt lat="41.647342800" lon="1.704734900">
        <ele>507.40</ele>
        <time>2018-05-26T12:36:26Z</time>
      </trkpt>
      <trkpt lat="41.647340700" lon="1.705014600">
        <ele>508.00</ele>
        <time>2018-05-26T12:36:30Z</time>
      </trkpt>
      <trkpt lat="41.647312000" lon="1.705211300">
        <ele>509.20</ele>
        <time>2018-05-26T12:36:33Z</time>
      </trkpt>
      <trkpt lat="41.647270500" lon="1.705331700">
        <ele>509.40</ele>
        <time>2018-05-26T12:36:35Z</time>
      </trkpt>
      <trkpt lat="41.647219400" lon="1.705437300">
        <ele>509.40</ele>
        <time>2018-05-26T12:36:37Z</time>
      </trkpt>
      <trkpt lat="41.647113500" lon="1.705638200">
        <ele>510.60</ele>
        <time>2018-05-26T12:36:41Z</time>
      </trkpt>
      <trkpt lat="41.647070300" lon="1.705747900">
        <ele>511.80</ele>
        <time>2018-05-26T12:36:43Z</time>
      </trkpt>
      <trkpt lat="41.647081700" lon="1.706010200">
        <ele>510.60</ele>
        <time>2018-05-26T12:36:47Z</time>
      </trkpt>
      <trkpt lat="41.647163700" lon="1.706168700">
        <ele>509.60</ele>
        <time>2018-05-26T12:36:49Z</time>
      </trkpt>
      <trkpt lat="41.647317500" lon="1.706404500">
        <ele>508.40</ele>
        <time>2018-05-26T12:36:52Z</time>
      </trkpt>
      <trkpt lat="41.647433400" lon="1.706564400">
        <ele>507.00</ele>
        <time>2018-05-26T12:36:54Z</time>
      </trkpt>
      <trkpt lat="41.647554800" lon="1.706714200">
        <ele>505.60</ele>
        <time>2018-05-26T12:36:56Z</time>
      </trkpt>
      <trkpt lat="41.648051800" lon="1.707149600">
        <ele>505.00</ele>
        <time>2018-05-26T12:37:03Z</time>
      </trkpt>
      <trkpt lat="41.648293500" lon="1.707262500">
        <ele>504.40</ele>
        <time>2018-05-26T12:37:06Z</time>
      </trkpt>
      <trkpt lat="41.648657000" lon="1.707225100">
        <ele>504.40</ele>
        <time>2018-05-26T12:37:10Z</time>
      </trkpt>
      <trkpt lat="41.648755500" lon="1.707203100">
        <ele>503.20</ele>
        <time>2018-05-26T12:37:11Z</time>
      </trkpt>
      <trkpt lat="41.648860600" lon="1.707189700">
        <ele>502.00</ele>
        <time>2018-05-26T12:37:12Z</time>
      </trkpt>
      <trkpt lat="41.649076000" lon="1.707159000">
        <ele>500.80</ele>
        <time>2018-05-26T12:37:14Z</time>
      </trkpt>
      <trkpt lat="41.649260200" lon="1.707132200">
        <ele>501.20</ele>
        <time>2018-05-26T12:37:16Z</time>
      </trkpt>
      <trkpt lat="41.649497500" lon="1.707104400">
        <ele>504.00</ele>
        <time>2018-05-26T12:37:19Z</time>
      </trkpt>
      <trkpt lat="41.649630600" lon="1.707139500">
        <ele>504.80</ele>
        <time>2018-05-26T12:37:21Z</time>
      </trkpt>
      <trkpt lat="41.649856000" lon="1.707265200">
        <ele>503.00</ele>
        <time>2018-05-26T12:37:24Z</time>
      </trkpt>
      <trkpt lat="41.650024000" lon="1.707338500">
        <ele>501.60</ele>
        <time>2018-05-26T12:37:26Z</time>
      </trkpt>
      <trkpt lat="41.650122500" lon="1.707314100">
        <ele>500.80</ele>
        <time>2018-05-26T12:37:27Z</time>
      </trkpt>
      <trkpt lat="41.650223000" lon="1.707266500">
        <ele>500.40</ele>
        <time>2018-05-26T12:37:28Z</time>
      </trkpt>
      <trkpt lat="41.650446200" lon="1.707185900">
        <ele>498.60</ele>
        <time>2018-05-26T12:37:30Z</time>
      </trkpt>
      <trkpt lat="41.650543300" lon="1.707145300">
        <ele>496.80</ele>
        <time>2018-05-26T12:37:31Z</time>
      </trkpt>
      <trkpt lat="41.650680400" lon="1.707038900">
        <ele>495.80</ele>
        <time>2018-05-26T12:37:33Z</time>
      </trkpt>
      <trkpt lat="41.650671400" lon="1.706714800">
        <ele>495.00</ele>
        <time>2018-05-26T12:37:36Z</time>
      </trkpt>
      <trkpt lat="41.650643600" lon="1.706491500">
        <ele>495.00</ele>
        <time>2018-05-26T12:37:38Z</time>
      </trkpt>
      <trkpt lat="41.650649100" lon="1.706265600">
        <ele>495.20</ele>
        <time>2018-05-26T12:37:40Z</time>
      </trkpt>
      <trkpt lat="41.650686000" lon="1.706039300">
        <ele>494.60</ele>
        <time>2018-05-26T12:37:42Z</time>
      </trkpt>
      <trkpt lat="41.650739000" lon="1.705707500">
        <ele>493.40</ele>
        <time>2018-05-26T12:37:45Z</time>
      </trkpt>
      <trkpt lat="41.650720700" lon="1.705366900">
        <ele>493.20</ele>
        <time>2018-05-26T12:37:48Z</time>
      </trkpt>
      <trkpt lat="41.650823900" lon="1.705243600">
        <ele>492.40</ele>
        <time>2018-05-26T12:37:50Z</time>
      </trkpt>
      <trkpt lat="41.650957600" lon="1.705277000">
        <ele>492.20</ele>
        <time>2018-05-26T12:37:52Z</time>
      </trkpt>
      <trkpt lat="41.651069300" lon="1.705373600">
        <ele>492.40</ele>
        <time>2018-05-26T12:37:54Z</time>
      </trkpt>
      <trkpt lat="41.651173600" lon="1.705466100">
        <ele>492.80</ele>
        <time>2018-05-26T12:37:56Z</time>
      </trkpt>
      <trkpt lat="41.651277800" lon="1.705540500">
        <ele>494.00</ele>
        <time>2018-05-26T12:37:58Z</time>
      </trkpt>
      <trkpt lat="41.651395000" lon="1.705599600">
        <ele>494.20</ele>
        <time>2018-05-26T12:38:00Z</time>
      </trkpt>
      <trkpt lat="41.651522500" lon="1.705648500">
        <ele>494.20</ele>
        <time>2018-05-26T12:38:02Z</time>
      </trkpt>
      <trkpt lat="41.651747000" lon="1.705743600">
        <ele>493.40</ele>
        <time>2018-05-26T12:38:05Z</time>
      </trkpt>
      <trkpt lat="41.651967800" lon="1.705989200">
        <ele>493.60</ele>
        <time>2018-05-26T12:38:09Z</time>
      </trkpt>
      <trkpt lat="41.652061500" lon="1.706232900">
        <ele>493.20</ele>
        <time>2018-05-26T12:38:12Z</time>
      </trkpt>
      <trkpt lat="41.652107800" lon="1.706405800">
        <ele>493.00</ele>
        <time>2018-05-26T12:38:14Z</time>
      </trkpt>
      <trkpt lat="41.652081700" lon="1.706691900">
        <ele>493.80</ele>
        <time>2018-05-26T12:38:17Z</time>
      </trkpt>
      <trkpt lat="41.652050500" lon="1.706893100">
        <ele>493.00</ele>
        <time>2018-05-26T12:38:19Z</time>
      </trkpt>
      <trkpt lat="41.652078400" lon="1.707065600">
        <ele>492.80</ele>
        <time>2018-05-26T12:38:21Z</time>
      </trkpt>
      <trkpt lat="41.652181900" lon="1.707168000">
        <ele>492.00</ele>
        <time>2018-05-26T12:38:23Z</time>
      </trkpt>
      <trkpt lat="41.652313600" lon="1.707237400">
        <ele>491.40</ele>
        <time>2018-05-26T12:38:25Z</time>
      </trkpt>
      <trkpt lat="41.652530000" lon="1.707357600">
        <ele>489.60</ele>
        <time>2018-05-26T12:38:28Z</time>
      </trkpt>
      <trkpt lat="41.652736600" lon="1.707519700">
        <ele>490.00</ele>
        <time>2018-05-26T12:38:31Z</time>
      </trkpt>
      <trkpt lat="41.652935200" lon="1.707719700">
        <ele>489.00</ele>
        <time>2018-05-26T12:38:34Z</time>
      </trkpt>
      <trkpt lat="41.653136200" lon="1.707945100">
        <ele>488.80</ele>
        <time>2018-05-26T12:38:37Z</time>
      </trkpt>
      <trkpt lat="41.653263100" lon="1.708120400">
        <ele>488.40</ele>
        <time>2018-05-26T12:38:39Z</time>
      </trkpt>
      <trkpt lat="41.653323800" lon="1.708211000">
        <ele>488.00</ele>
        <time>2018-05-26T12:38:40Z</time>
      </trkpt>
      <trkpt lat="41.653382000" lon="1.708303000">
        <ele>487.40</ele>
        <time>2018-05-26T12:38:41Z</time>
      </trkpt>
      <trkpt lat="41.653491600" lon="1.708491300">
        <ele>486.00</ele>
        <time>2018-05-26T12:38:43Z</time>
      </trkpt>
      <trkpt lat="41.653680100" lon="1.708899000">
        <ele>486.00</ele>
        <time>2018-05-26T12:38:47Z</time>
      </trkpt>
      <trkpt lat="41.653756100" lon="1.709115600">
        <ele>484.80</ele>
        <time>2018-05-26T12:38:49Z</time>
      </trkpt>
      <trkpt lat="41.653858300" lon="1.709448500">
        <ele>483.60</ele>
        <time>2018-05-26T12:38:52Z</time>
      </trkpt>
      <trkpt lat="41.653919500" lon="1.709668400">
        <ele>483.20</ele>
        <time>2018-05-26T12:38:54Z</time>
      </trkpt>
      <trkpt lat="41.654013000" lon="1.709988600">
        <ele>482.60</ele>
        <time>2018-05-26T12:38:57Z</time>
      </trkpt>
      <trkpt lat="41.654170900" lon="1.710526900">
        <ele>482.80</ele>
        <time>2018-05-26T12:39:02Z</time>
      </trkpt>
      <trkpt lat="41.654427700" lon="1.711245900">
        <ele>483.20</ele>
        <time>2018-05-26T12:39:09Z</time>
      </trkpt>
      <trkpt lat="41.654597400" lon="1.711652400">
        <ele>481.40</ele>
        <time>2018-05-26T12:39:13Z</time>
      </trkpt>
      <trkpt lat="41.654657100" lon="1.711859700">
        <ele>480.80</ele>
        <time>2018-05-26T12:39:15Z</time>
      </trkpt>
      <trkpt lat="41.654708900" lon="1.712302000">
        <ele>480.40</ele>
        <time>2018-05-26T12:39:19Z</time>
      </trkpt>
      <trkpt lat="41.654790100" lon="1.712621100">
        <ele>478.20</ele>
        <time>2018-05-26T12:39:22Z</time>
      </trkpt>
      <trkpt lat="41.655061400" lon="1.713412200">
        <ele>479.20</ele>
        <time>2018-05-26T12:39:30Z</time>
      </trkpt>
      <trkpt lat="41.655237600" lon="1.713874300">
        <ele>479.40</ele>
        <time>2018-05-26T12:39:35Z</time>
      </trkpt>
      <trkpt lat="41.655342300" lon="1.714020500">
        <ele>479.80</ele>
        <time>2018-05-26T12:39:37Z</time>
      </trkpt>
      <trkpt lat="41.655469000" lon="1.714138500">
        <ele>479.80</ele>
        <time>2018-05-26T12:39:39Z</time>
      </trkpt>
      <trkpt lat="41.655663800" lon="1.714330700">
        <ele>479.00</ele>
        <time>2018-05-26T12:39:42Z</time>
      </trkpt>
      <trkpt lat="41.655774300" lon="1.714585800">
        <ele>480.60</ele>
        <time>2018-05-26T12:39:45Z</time>
      </trkpt>
      <trkpt lat="41.655800100" lon="1.714764600">
        <ele>480.60</ele>
        <time>2018-05-26T12:39:47Z</time>
      </trkpt>
      <trkpt lat="41.655822900" lon="1.715040300">
        <ele>480.80</ele>
        <time>2018-05-26T12:39:50Z</time>
      </trkpt>
      <trkpt lat="41.655878000" lon="1.715410100">
        <ele>481.80</ele>
        <time>2018-05-26T12:39:54Z</time>
      </trkpt>
      <trkpt lat="41.655939700" lon="1.715591300">
        <ele>480.60</ele>
        <time>2018-05-26T12:39:56Z</time>
      </trkpt>
      <trkpt lat="41.656012900" lon="1.715781900">
        <ele>479.40</ele>
        <time>2018-05-26T12:39:58Z</time>
      </trkpt>
      <trkpt lat="41.656044300" lon="1.716007800">
        <ele>478.00</ele>
        <time>2018-05-26T12:40:00Z</time>
      </trkpt>
      <trkpt lat="41.656013700" lon="1.716237400">
        <ele>476.80</ele>
        <time>2018-05-26T12:40:02Z</time>
      </trkpt>
      <trkpt lat="41.655949500" lon="1.716695800">
        <ele>475.80</ele>
        <time>2018-05-26T12:40:06Z</time>
      </trkpt>
      <trkpt lat="41.655989600" lon="1.716917400">
        <ele>473.80</ele>
        <time>2018-05-26T12:40:08Z</time>
      </trkpt>
      <trkpt lat="41.656100200" lon="1.717107500">
        <ele>473.60</ele>
        <time>2018-05-26T12:40:10Z</time>
      </trkpt>
      <trkpt lat="41.656252100" lon="1.717434400">
        <ele>471.80</ele>
        <time>2018-05-26T12:40:13Z</time>
      </trkpt>
      <trkpt lat="41.656266600" lon="1.717564700">
        <ele>470.20</ele>
        <time>2018-05-26T12:40:14Z</time>
      </trkpt>
      <trkpt lat="41.656259700" lon="1.717829700">
        <ele>469.20</ele>
        <time>2018-05-26T12:40:16Z</time>
      </trkpt>
      <trkpt lat="41.656251600" lon="1.717962000">
        <ele>469.20</ele>
        <time>2018-05-26T12:40:17Z</time>
      </trkpt>
      <trkpt lat="41.656231600" lon="1.718217900">
        <ele>468.20</ele>
        <time>2018-05-26T12:40:19Z</time>
      </trkpt>
      <trkpt lat="41.656237500" lon="1.718437200">
        <ele>466.80</ele>
        <time>2018-05-26T12:40:21Z</time>
      </trkpt>
      <trkpt lat="41.656372400" lon="1.718665200">
        <ele>466.40</ele>
        <time>2018-05-26T12:40:24Z</time>
      </trkpt>
      <trkpt lat="41.656542600" lon="1.718681900">
        <ele>465.40</ele>
        <time>2018-05-26T12:40:26Z</time>
      </trkpt>
      <trkpt lat="41.656738600" lon="1.718688000">
        <ele>463.80</ele>
        <time>2018-05-26T12:40:28Z</time>
      </trkpt>
      <trkpt lat="41.656836900" lon="1.718729100">
        <ele>463.00</ele>
        <time>2018-05-26T12:40:29Z</time>
      </trkpt>
      <trkpt lat="41.656925900" lon="1.718799200">
        <ele>462.40</ele>
        <time>2018-05-26T12:40:30Z</time>
      </trkpt>
      <trkpt lat="41.657084300" lon="1.718981100">
        <ele>461.20</ele>
        <time>2018-05-26T12:40:32Z</time>
      </trkpt>
      <trkpt lat="41.657248700" lon="1.719168500">
        <ele>459.40</ele>
        <time>2018-05-26T12:40:34Z</time>
      </trkpt>
      <trkpt lat="41.657329500" lon="1.719265700">
        <ele>458.20</ele>
        <time>2018-05-26T12:40:35Z</time>
      </trkpt>
      <trkpt lat="41.657407000" lon="1.719360900">
        <ele>457.20</ele>
        <time>2018-05-26T12:40:36Z</time>
      </trkpt>
      <trkpt lat="41.657478200" lon="1.719444800">
        <ele>456.60</ele>
        <time>2018-05-26T12:40:37Z</time>
      </trkpt>
      <trkpt lat="41.657688900" lon="1.719559900">
        <ele>456.60</ele>
        <time>2018-05-26T12:40:40Z</time>
      </trkpt>
      <trkpt lat="41.657849700" lon="1.719465300">
        <ele>456.40</ele>
        <time>2018-05-26T12:40:42Z</time>
      </trkpt>
      <trkpt lat="41.657928700" lon="1.719391100">
        <ele>455.40</ele>
        <time>2018-05-26T12:40:43Z</time>
      </trkpt>
      <trkpt lat="41.658011600" lon="1.719320900">
        <ele>454.40</ele>
        <time>2018-05-26T12:40:44Z</time>
      </trkpt>
      <trkpt lat="41.658104400" lon="1.719264000">
        <ele>453.60</ele>
        <time>2018-05-26T12:40:45Z</time>
      </trkpt>
      <trkpt lat="41.658207400" lon="1.719230500">
        <ele>453.00</ele>
        <time>2018-05-26T12:40:46Z</time>
      </trkpt>
      <trkpt lat="41.658317300" lon="1.719223400">
        <ele>452.20</ele>
        <time>2018-05-26T12:40:47Z</time>
      </trkpt>
      <trkpt lat="41.658541000" lon="1.719246500">
        <ele>451.00</ele>
        <time>2018-05-26T12:40:49Z</time>
      </trkpt>
      <trkpt lat="41.658766500" lon="1.719276100">
        <ele>449.20</ele>
        <time>2018-05-26T12:40:51Z</time>
      </trkpt>
      <trkpt lat="41.658994200" lon="1.719323300">
        <ele>447.60</ele>
        <time>2018-05-26T12:40:53Z</time>
      </trkpt>
      <trkpt lat="41.659101000" lon="1.719371300">
        <ele>447.40</ele>
        <time>2018-05-26T12:40:54Z</time>
      </trkpt>
      <trkpt lat="41.659204200" lon="1.719431900">
        <ele>446.60</ele>
        <time>2018-05-26T12:40:55Z</time>
      </trkpt>
      <trkpt lat="41.659408200" lon="1.719571100">
        <ele>444.80</ele>
        <time>2018-05-26T12:40:57Z</time>
      </trkpt>
      <trkpt lat="41.659608200" lon="1.719688900">
        <ele>443.00</ele>
        <time>2018-05-26T12:40:59Z</time>
      </trkpt>
      <trkpt lat="41.659775500" lon="1.719805400">
        <ele>442.20</ele>
        <time>2018-05-26T12:41:01Z</time>
      </trkpt>
      <trkpt lat="41.659846000" lon="1.719881600">
        <ele>442.00</ele>
        <time>2018-05-26T12:41:02Z</time>
      </trkpt>
      <trkpt lat="41.659967700" lon="1.720148600">
        <ele>440.20</ele>
        <time>2018-05-26T12:41:05Z</time>
      </trkpt>
      <trkpt lat="41.659931500" lon="1.720348800">
        <ele>436.80</ele>
        <time>2018-05-26T12:41:07Z</time>
      </trkpt>
      <trkpt lat="41.659857600" lon="1.720545200">
        <ele>435.20</ele>
        <time>2018-05-26T12:41:09Z</time>
      </trkpt>
      <trkpt lat="41.659757300" lon="1.720830800">
        <ele>434.20</ele>
        <time>2018-05-26T12:41:12Z</time>
      </trkpt>
      <trkpt lat="41.659725200" lon="1.721135900">
        <ele>435.80</ele>
        <time>2018-05-26T12:41:15Z</time>
      </trkpt>
      <trkpt lat="41.659732500" lon="1.721349800">
        <ele>435.60</ele>
        <time>2018-05-26T12:41:17Z</time>
      </trkpt>
      <trkpt lat="41.659810800" lon="1.721692200">
        <ele>433.40</ele>
        <time>2018-05-26T12:41:20Z</time>
      </trkpt>
      <trkpt lat="41.659892600" lon="1.721909000">
        <ele>432.80</ele>
        <time>2018-05-26T12:41:22Z</time>
      </trkpt>
      <trkpt lat="41.660070400" lon="1.722144700">
        <ele>431.60</ele>
        <time>2018-05-26T12:41:25Z</time>
      </trkpt>
      <trkpt lat="41.660297000" lon="1.722302700">
        <ele>431.80</ele>
        <time>2018-05-26T12:41:28Z</time>
      </trkpt>
      <trkpt lat="41.660395700" lon="1.722488400">
        <ele>431.40</ele>
        <time>2018-05-26T12:41:30Z</time>
      </trkpt>
      <trkpt lat="41.660401200" lon="1.722704000">
        <ele>431.60</ele>
        <time>2018-05-26T12:41:32Z</time>
      </trkpt>
      <trkpt lat="41.660370000" lon="1.722909200">
        <ele>432.20</ele>
        <time>2018-05-26T12:41:34Z</time>
      </trkpt>
      <trkpt lat="41.660382200" lon="1.723101700">
        <ele>432.80</ele>
        <time>2018-05-26T12:41:36Z</time>
      </trkpt>
      <trkpt lat="41.660477800" lon="1.723342000">
        <ele>433.60</ele>
        <time>2018-05-26T12:41:39Z</time>
      </trkpt>
      <trkpt lat="41.660723500" lon="1.723481500">
        <ele>434.00</ele>
        <time>2018-05-26T12:41:43Z</time>
      </trkpt>
      <trkpt lat="41.660861800" lon="1.723532200">
        <ele>434.60</ele>
        <time>2018-05-26T12:41:45Z</time>
      </trkpt>
      <trkpt lat="41.660984600" lon="1.723625700">
        <ele>434.80</ele>
        <time>2018-05-26T12:41:47Z</time>
      </trkpt>
      <trkpt lat="41.661089700" lon="1.723733600">
        <ele>435.20</ele>
        <time>2018-05-26T12:41:49Z</time>
      </trkpt>
      <trkpt lat="41.661249500" lon="1.723864500">
        <ele>435.40</ele>
        <time>2018-05-26T12:41:52Z</time>
      </trkpt>
      <trkpt lat="41.661487000" lon="1.724016000">
        <ele>436.00</ele>
        <time>2018-05-26T12:41:56Z</time>
      </trkpt>
      <trkpt lat="41.661681600" lon="1.724312700">
        <ele>434.40</ele>
        <time>2018-05-26T12:42:00Z</time>
      </trkpt>
      <trkpt lat="41.661926500" lon="1.724926600">
        <ele>433.40</ele>
        <time>2018-05-26T12:42:07Z</time>
      </trkpt>
      <trkpt lat="41.661917400" lon="1.725332000">
        <ele>433.00</ele>
        <time>2018-05-26T12:42:11Z</time>
      </trkpt>
      <trkpt lat="41.661954200" lon="1.725600000">
        <ele>432.60</ele>
        <time>2018-05-26T12:42:14Z</time>
      </trkpt>
      <trkpt lat="41.662071200" lon="1.725729100">
        <ele>432.40</ele>
        <time>2018-05-26T12:42:16Z</time>
      </trkpt>
      <trkpt lat="41.662176100" lon="1.725899700">
        <ele>432.20</ele>
        <time>2018-05-26T12:42:18Z</time>
      </trkpt>
      <trkpt lat="41.662234900" lon="1.726107500">
        <ele>430.80</ele>
        <time>2018-05-26T12:42:20Z</time>
      </trkpt>
      <trkpt lat="41.662287900" lon="1.726622900">
        <ele>431.20</ele>
        <time>2018-05-26T12:42:25Z</time>
      </trkpt>
      <trkpt lat="41.662340700" lon="1.726883000">
        <ele>430.60</ele>
        <time>2018-05-26T12:42:28Z</time>
      </trkpt>
      <trkpt lat="41.662408300" lon="1.727045100">
        <ele>431.00</ele>
        <time>2018-05-26T12:42:30Z</time>
      </trkpt>
      <trkpt lat="41.662679600" lon="1.727554700">
        <ele>429.60</ele>
        <time>2018-05-26T12:42:36Z</time>
      </trkpt>
      <trkpt lat="41.662777200" lon="1.727729400">
        <ele>428.40</ele>
        <time>2018-05-26T12:42:38Z</time>
      </trkpt>
      <trkpt lat="41.662924400" lon="1.728003900">
        <ele>427.40</ele>
        <time>2018-05-26T12:42:41Z</time>
      </trkpt>
      <trkpt lat="41.662995100" lon="1.728220800">
        <ele>427.00</ele>
        <time>2018-05-26T12:42:43Z</time>
      </trkpt>
      <trkpt lat="41.663016700" lon="1.728468100">
        <ele>425.40</ele>
        <time>2018-05-26T12:42:45Z</time>
      </trkpt>
      <trkpt lat="41.663015800" lon="1.728592300">
        <ele>425.40</ele>
        <time>2018-05-26T12:42:46Z</time>
      </trkpt>
      <trkpt lat="41.663029800" lon="1.729064700">
        <ele>426.00</ele>
        <time>2018-05-26T12:42:50Z</time>
      </trkpt>
      <trkpt lat="41.663136400" lon="1.729377900">
        <ele>424.20</ele>
        <time>2018-05-26T12:42:53Z</time>
      </trkpt>
      <trkpt lat="41.663239000" lon="1.729570100">
        <ele>424.00</ele>
        <time>2018-05-26T12:42:55Z</time>
      </trkpt>
      <trkpt lat="41.663427500" lon="1.729842300">
        <ele>422.80</ele>
        <time>2018-05-26T12:42:58Z</time>
      </trkpt>
      <trkpt lat="41.663620500" lon="1.730115100">
        <ele>421.60</ele>
        <time>2018-05-26T12:43:01Z</time>
      </trkpt>
      <trkpt lat="41.663871300" lon="1.730495600">
        <ele>421.00</ele>
        <time>2018-05-26T12:43:05Z</time>
      </trkpt>
      <trkpt lat="41.663944000" lon="1.730726500">
        <ele>421.20</ele>
        <time>2018-05-26T12:43:07Z</time>
      </trkpt>
      <trkpt lat="41.663969000" lon="1.730967300">
        <ele>421.20</ele>
        <time>2018-05-26T12:43:09Z</time>
      </trkpt>
      <trkpt lat="41.663980100" lon="1.731211400">
        <ele>420.80</ele>
        <time>2018-05-26T12:43:11Z</time>
      </trkpt>
      <trkpt lat="41.663972800" lon="1.731333600">
        <ele>420.40</ele>
        <time>2018-05-26T12:43:12Z</time>
      </trkpt>
      <trkpt lat="41.663909000" lon="1.731688500">
        <ele>419.60</ele>
        <time>2018-05-26T12:43:15Z</time>
      </trkpt>
      <trkpt lat="41.663885100" lon="1.731805100">
        <ele>419.20</ele>
        <time>2018-05-26T12:43:16Z</time>
      </trkpt>
      <trkpt lat="41.663860000" lon="1.732039500">
        <ele>419.20</ele>
        <time>2018-05-26T12:43:18Z</time>
      </trkpt>
      <trkpt lat="41.663886800" lon="1.732656400">
        <ele>418.00</ele>
        <time>2018-05-26T12:43:23Z</time>
      </trkpt>
      <trkpt lat="41.663893000" lon="1.732926000">
        <ele>416.40</ele>
        <time>2018-05-26T12:43:25Z</time>
      </trkpt>
      <trkpt lat="41.663887500" lon="1.733061200">
        <ele>415.20</ele>
        <time>2018-05-26T12:43:26Z</time>
      </trkpt>
      <trkpt lat="41.663862600" lon="1.733473100">
        <ele>414.00</ele>
        <time>2018-05-26T12:43:29Z</time>
      </trkpt>
      <trkpt lat="41.663859000" lon="1.733609700">
        <ele>413.60</ele>
        <time>2018-05-26T12:43:30Z</time>
      </trkpt>
      <trkpt lat="41.663861500" lon="1.733739000">
        <ele>412.80</ele>
        <time>2018-05-26T12:43:31Z</time>
      </trkpt>
      <trkpt lat="41.663874100" lon="1.733858300">
        <ele>412.40</ele>
        <time>2018-05-26T12:43:32Z</time>
      </trkpt>
      <trkpt lat="41.663905300" lon="1.734074900">
        <ele>412.00</ele>
        <time>2018-05-26T12:43:34Z</time>
      </trkpt>
      <trkpt lat="41.663886000" lon="1.734284800">
        <ele>411.60</ele>
        <time>2018-05-26T12:43:36Z</time>
      </trkpt>
      <trkpt lat="41.663789100" lon="1.734456800">
        <ele>411.00</ele>
        <time>2018-05-26T12:43:38Z</time>
      </trkpt>
      <trkpt lat="41.663709800" lon="1.734630000">
        <ele>410.40</ele>
        <time>2018-05-26T12:43:40Z</time>
      </trkpt>
      <trkpt lat="41.663717600" lon="1.734952000">
        <ele>409.00</ele>
        <time>2018-05-26T12:43:43Z</time>
      </trkpt>
      <trkpt lat="41.663728900" lon="1.735187600">
        <ele>407.60</ele>
        <time>2018-05-26T12:43:45Z</time>
      </trkpt>
      <trkpt lat="41.663685700" lon="1.735389900">
        <ele>406.20</ele>
        <time>2018-05-26T12:43:47Z</time>
      </trkpt>
      <trkpt lat="41.663730200" lon="1.735600000">
        <ele>405.40</ele>
        <time>2018-05-26T12:43:50Z</time>
      </trkpt>
      <trkpt lat="41.663840200" lon="1.735606400">
        <ele>404.80</ele>
        <time>2018-05-26T12:43:52Z</time>
      </trkpt>
      <trkpt lat="41.663967500" lon="1.735499200">
        <ele>403.60</ele>
        <time>2018-05-26T12:43:54Z</time>
      </trkpt>
      <trkpt lat="41.664217300" lon="1.735359600">
        <ele>401.00</ele>
        <time>2018-05-26T12:43:57Z</time>
      </trkpt>
      <trkpt lat="41.664307100" lon="1.735352700">
        <ele>400.00</ele>
        <time>2018-05-26T12:43:58Z</time>
      </trkpt>
      <trkpt lat="41.664454800" lon="1.735434500">
        <ele>398.80</ele>
        <time>2018-05-26T12:44:00Z</time>
      </trkpt>
      <trkpt lat="41.664561300" lon="1.735648200">
        <ele>398.00</ele>
        <time>2018-05-26T12:44:02Z</time>
      </trkpt>
      <trkpt lat="41.664587500" lon="1.735772000">
        <ele>397.20</ele>
        <time>2018-05-26T12:44:03Z</time>
      </trkpt>
      <trkpt lat="41.664586200" lon="1.735904500">
        <ele>396.40</ele>
        <time>2018-05-26T12:44:04Z</time>
      </trkpt>
      <trkpt lat="41.664572900" lon="1.736037600">
        <ele>395.60</ele>
        <time>2018-05-26T12:44:05Z</time>
      </trkpt>
      <trkpt lat="41.664557800" lon="1.736174900">
        <ele>394.80</ele>
        <time>2018-05-26T12:44:06Z</time>
      </trkpt>
      <trkpt lat="41.664534000" lon="1.736451400">
        <ele>393.00</ele>
        <time>2018-05-26T12:44:08Z</time>
      </trkpt>
      <trkpt lat="41.664526200" lon="1.736590400">
        <ele>391.80</ele>
        <time>2018-05-26T12:44:09Z</time>
      </trkpt>
      <trkpt lat="41.664490000" lon="1.736863700">
        <ele>390.60</ele>
        <time>2018-05-26T12:44:11Z</time>
      </trkpt>
      <trkpt lat="41.664382300" lon="1.737103800">
        <ele>389.60</ele>
        <time>2018-05-26T12:44:13Z</time>
      </trkpt>
      <trkpt lat="41.664309700" lon="1.737207900">
        <ele>388.80</ele>
        <time>2018-05-26T12:44:14Z</time>
      </trkpt>
      <trkpt lat="41.664231800" lon="1.737303200">
        <ele>388.20</ele>
        <time>2018-05-26T12:44:15Z</time>
      </trkpt>
      <trkpt lat="41.664101400" lon="1.737506200">
        <ele>386.60</ele>
        <time>2018-05-26T12:44:17Z</time>
      </trkpt>
      <trkpt lat="41.664047600" lon="1.737620900">
        <ele>386.00</ele>
        <time>2018-05-26T12:44:18Z</time>
      </trkpt>
      <trkpt lat="41.664004000" lon="1.737733400">
        <ele>384.80</ele>
        <time>2018-05-26T12:44:19Z</time>
      </trkpt>
      <trkpt lat="41.663954100" lon="1.737935700">
        <ele>384.00</ele>
        <time>2018-05-26T12:44:21Z</time>
      </trkpt>
      <trkpt lat="41.664023700" lon="1.738179500">
        <ele>383.40</ele>
        <time>2018-05-26T12:44:24Z</time>
      </trkpt>
      <trkpt lat="41.664164300" lon="1.738223700">
        <ele>382.20</ele>
        <time>2018-05-26T12:44:26Z</time>
      </trkpt>
      <trkpt lat="41.664331400" lon="1.738217200">
        <ele>381.00</ele>
        <time>2018-05-26T12:44:28Z</time>
      </trkpt>
      <trkpt lat="41.664484200" lon="1.738259300">
        <ele>379.40</ele>
        <time>2018-05-26T12:44:30Z</time>
      </trkpt>
      <trkpt lat="41.664583400" lon="1.738422400">
        <ele>378.00</ele>
        <time>2018-05-26T12:44:32Z</time>
      </trkpt>
      <trkpt lat="41.664616200" lon="1.738644600">
        <ele>376.40</ele>
        <time>2018-05-26T12:44:34Z</time>
      </trkpt>
      <trkpt lat="41.664631500" lon="1.738764000">
        <ele>375.40</ele>
        <time>2018-05-26T12:44:35Z</time>
      </trkpt>
      <trkpt lat="41.664658000" lon="1.738885800">
        <ele>374.80</ele>
        <time>2018-05-26T12:44:36Z</time>
      </trkpt>
      <trkpt lat="41.664695100" lon="1.739007100">
        <ele>373.80</ele>
        <time>2018-05-26T12:44:37Z</time>
      </trkpt>
      <trkpt lat="41.664739000" lon="1.739126200">
        <ele>372.80</ele>
        <time>2018-05-26T12:44:38Z</time>
      </trkpt>
      <trkpt lat="41.664785700" lon="1.739244300">
        <ele>372.20</ele>
        <time>2018-05-26T12:44:39Z</time>
      </trkpt>
      <trkpt lat="41.664881600" lon="1.739489200">
        <ele>370.80</ele>
        <time>2018-05-26T12:44:41Z</time>
      </trkpt>
      <trkpt lat="41.664929100" lon="1.739615600">
        <ele>369.80</ele>
        <time>2018-05-26T12:44:42Z</time>
      </trkpt>
      <trkpt lat="41.664976900" lon="1.739740300">
        <ele>367.80</ele>
        <time>2018-05-26T12:44:43Z</time>
      </trkpt>
      <trkpt lat="41.665067000" lon="1.740003300">
        <ele>366.40</ele>
        <time>2018-05-26T12:44:45Z</time>
      </trkpt>
      <trkpt lat="41.665166700" lon="1.740262300">
        <ele>365.40</ele>
        <time>2018-05-26T12:44:47Z</time>
      </trkpt>
      <trkpt lat="41.665279900" lon="1.740472900">
        <ele>364.20</ele>
        <time>2018-05-26T12:44:49Z</time>
      </trkpt>
      <trkpt lat="41.665541200" lon="1.740681000">
        <ele>363.00</ele>
        <time>2018-05-26T12:44:52Z</time>
      </trkpt>
      <trkpt lat="41.665717000" lon="1.740767800">
        <ele>361.60</ele>
        <time>2018-05-26T12:44:54Z</time>
      </trkpt>
      <trkpt lat="41.665886000" lon="1.740766600">
        <ele>360.40</ele>
        <time>2018-05-26T12:44:56Z</time>
      </trkpt>
      <trkpt lat="41.666036100" lon="1.740634000">
        <ele>359.00</ele>
        <time>2018-05-26T12:44:58Z</time>
      </trkpt>
      <trkpt lat="41.666133200" lon="1.740400900">
        <ele>357.80</ele>
        <time>2018-05-26T12:45:00Z</time>
      </trkpt>
      <trkpt lat="41.666171900" lon="1.740267300">
        <ele>356.80</ele>
        <time>2018-05-26T12:45:01Z</time>
      </trkpt>
      <trkpt lat="41.666206600" lon="1.740130500">
        <ele>356.00</ele>
        <time>2018-05-26T12:45:02Z</time>
      </trkpt>
      <trkpt lat="41.666285400" lon="1.739886800">
        <ele>354.60</ele>
        <time>2018-05-26T12:45:04Z</time>
      </trkpt>
      <trkpt lat="41.666335900" lon="1.739785600">
        <ele>353.80</ele>
        <time>2018-05-26T12:45:05Z</time>
      </trkpt>
      <trkpt lat="41.666471100" lon="1.739648100">
        <ele>351.80</ele>
        <time>2018-05-26T12:45:07Z</time>
      </trkpt>
      <trkpt lat="41.666680800" lon="1.739637000">
        <ele>350.20</ele>
        <time>2018-05-26T12:45:10Z</time>
      </trkpt>
      <trkpt lat="41.666776800" lon="1.739923500">
        <ele>348.80</ele>
        <time>2018-05-26T12:45:13Z</time>
      </trkpt>
      <trkpt lat="41.666726400" lon="1.740169300">
        <ele>348.00</ele>
        <time>2018-05-26T12:45:15Z</time>
      </trkpt>
      <trkpt lat="41.666680400" lon="1.740297200">
        <ele>347.60</ele>
        <time>2018-05-26T12:45:16Z</time>
      </trkpt>
      <trkpt lat="41.666609900" lon="1.740548100">
        <ele>345.80</ele>
        <time>2018-05-26T12:45:18Z</time>
      </trkpt>
      <trkpt lat="41.666587700" lon="1.740676000">
        <ele>344.20</ele>
        <time>2018-05-26T12:45:19Z</time>
      </trkpt>
      <trkpt lat="41.666574400" lon="1.740808100">
        <ele>343.00</ele>
        <time>2018-05-26T12:45:20Z</time>
      </trkpt>
      <trkpt lat="41.666580500" lon="1.740966900">
        <ele>341.60</ele>
        <time>2018-05-26T12:45:21Z</time>
      </trkpt>
      <trkpt lat="41.666590000" lon="1.741285100">
        <ele>340.00</ele>
        <time>2018-05-26T12:45:23Z</time>
      </trkpt>
      <trkpt lat="41.666599800" lon="1.741591700">
        <ele>338.60</ele>
        <time>2018-05-26T12:45:25Z</time>
      </trkpt>
      <trkpt lat="41.666612900" lon="1.741896100">
        <ele>336.60</ele>
        <time>2018-05-26T12:45:27Z</time>
      </trkpt>
      <trkpt lat="41.666630500" lon="1.742206000">
        <ele>334.20</ele>
        <time>2018-05-26T12:45:29Z</time>
      </trkpt>
      <trkpt lat="41.666642900" lon="1.742354300">
        <ele>332.60</ele>
        <time>2018-05-26T12:45:30Z</time>
      </trkpt>
      <trkpt lat="41.666656700" lon="1.742495200">
        <ele>331.40</ele>
        <time>2018-05-26T12:45:31Z</time>
      </trkpt>
      <trkpt lat="41.666683700" lon="1.742620700">
        <ele>332.00</ele>
        <time>2018-05-26T12:45:32Z</time>
      </trkpt>
      <trkpt lat="41.666783700" lon="1.742819900">
        <ele>332.00</ele>
        <time>2018-05-26T12:45:34Z</time>
      </trkpt>
      <trkpt lat="41.666954500" lon="1.742930800">
        <ele>331.20</ele>
        <time>2018-05-26T12:45:36Z</time>
      </trkpt>
      <trkpt lat="41.667051700" lon="1.742975600">
        <ele>330.20</ele>
        <time>2018-05-26T12:45:37Z</time>
      </trkpt>
      <trkpt lat="41.667146000" lon="1.743016300">
        <ele>328.80</ele>
        <time>2018-05-26T12:45:38Z</time>
      </trkpt>
      <trkpt lat="41.667290600" lon="1.743125000">
        <ele>326.40</ele>
        <time>2018-05-26T12:45:40Z</time>
      </trkpt>
      <trkpt lat="41.667355900" lon="1.743389100">
        <ele>326.00</ele>
        <time>2018-05-26T12:45:43Z</time>
      </trkpt>
      <trkpt lat="41.667321500" lon="1.743583800">
        <ele>326.00</ele>
        <time>2018-05-26T12:45:45Z</time>
      </trkpt>
      <trkpt lat="41.667281500" lon="1.743786000">
        <ele>325.40</ele>
        <time>2018-05-26T12:45:47Z</time>
      </trkpt>
      <trkpt lat="41.667368500" lon="1.744126400">
        <ele>324.00</ele>
        <time>2018-05-26T12:45:51Z</time>
      </trkpt>
      <trkpt lat="41.667488200" lon="1.744341100">
        <ele>325.40</ele>
        <time>2018-05-26T12:45:54Z</time>
      </trkpt>
      <trkpt lat="41.667706000" lon="1.744669900">
        <ele>325.80</ele>
        <time>2018-05-26T12:45:59Z</time>
      </trkpt>
      <trkpt lat="41.667880900" lon="1.744952100">
        <ele>325.40</ele>
        <time>2018-05-26T12:46:03Z</time>
      </trkpt>
      <trkpt lat="41.668065800" lon="1.745233400">
        <ele>325.40</ele>
        <time>2018-05-26T12:46:07Z</time>
      </trkpt>
      <trkpt lat="41.668338000" lon="1.745692200">
        <ele>324.60</ele>
        <time>2018-05-26T12:46:14Z</time>
      </trkpt>
      <trkpt lat="41.668637700" lon="1.746230000">
        <ele>324.60</ele>
        <time>2018-05-26T12:46:22Z</time>
      </trkpt>
      <trkpt lat="41.668851400" lon="1.746566500">
        <ele>325.40</ele>
        <time>2018-05-26T12:46:27Z</time>
      </trkpt>
      <trkpt lat="41.669039000" lon="1.746848600">
        <ele>325.20</ele>
        <time>2018-05-26T12:46:31Z</time>
      </trkpt>
      <trkpt lat="41.669272600" lon="1.747204600">
        <ele>324.80</ele>
        <time>2018-05-26T12:46:36Z</time>
      </trkpt>
      <trkpt lat="41.669412300" lon="1.747424500">
        <ele>325.00</ele>
        <time>2018-05-26T12:46:39Z</time>
      </trkpt>
      <trkpt lat="41.669606900" lon="1.747712400">
        <ele>324.80</ele>
        <time>2018-05-26T12:46:43Z</time>
      </trkpt>
      <trkpt lat="41.669938900" lon="1.748205100">
        <ele>324.60</ele>
        <time>2018-05-26T12:46:50Z</time>
      </trkpt>
      <trkpt lat="41.670300500" lon="1.748663300">
        <ele>324.20</ele>
        <time>2018-05-26T12:46:57Z</time>
      </trkpt>
      <trkpt lat="41.670805000" lon="1.749210300">
        <ele>323.80</ele>
        <time>2018-05-26T12:47:06Z</time>
      </trkpt>
      <trkpt lat="41.670913300" lon="1.749351500">
        <ele>322.40</ele>
        <time>2018-05-26T12:47:08Z</time>
      </trkpt>
      <trkpt lat="41.671065900" lon="1.749600800">
        <ele>321.00</ele>
        <time>2018-05-26T12:47:11Z</time>
      </trkpt>
      <trkpt lat="41.671172500" lon="1.749796500">
        <ele>319.20</ele>
        <time>2018-05-26T12:47:13Z</time>
      </trkpt>
      <trkpt lat="41.671227700" lon="1.749903200">
        <ele>318.00</ele>
        <time>2018-05-26T12:47:14Z</time>
      </trkpt>
      <trkpt lat="41.671284800" lon="1.750013600">
        <ele>316.80</ele>
        <time>2018-05-26T12:47:15Z</time>
      </trkpt>
      <trkpt lat="41.671407100" lon="1.750251100">
        <ele>315.40</ele>
        <time>2018-05-26T12:47:17Z</time>
      </trkpt>
      <trkpt lat="41.671540400" lon="1.750501100">
        <ele>314.00</ele>
        <time>2018-05-26T12:47:19Z</time>
      </trkpt>
      <trkpt lat="41.671676300" lon="1.750757900">
        <ele>312.40</ele>
        <time>2018-05-26T12:47:21Z</time>
      </trkpt>
      <trkpt lat="41.671742600" lon="1.750885300">
        <ele>311.40</ele>
        <time>2018-05-26T12:47:22Z</time>
      </trkpt>
      <trkpt lat="41.671807400" lon="1.751013900">
        <ele>310.40</ele>
        <time>2018-05-26T12:47:23Z</time>
      </trkpt>
      <trkpt lat="41.671870000" lon="1.751141100">
        <ele>309.60</ele>
        <time>2018-05-26T12:47:24Z</time>
      </trkpt>
      <trkpt lat="41.671934300" lon="1.751265800">
        <ele>308.80</ele>
        <time>2018-05-26T12:47:25Z</time>
      </trkpt>
      <trkpt lat="41.672232400" lon="1.751880400">
        <ele>307.20</ele>
        <time>2018-05-26T12:47:30Z</time>
      </trkpt>
      <trkpt lat="41.672319400" lon="1.752153100">
        <ele>306.60</ele>
        <time>2018-05-26T12:47:32Z</time>
      </trkpt>
      <trkpt lat="41.672336100" lon="1.752301300">
        <ele>306.20</ele>
        <time>2018-05-26T12:47:33Z</time>
      </trkpt>
      <trkpt lat="41.672276500" lon="1.752735300">
        <ele>306.60</ele>
        <time>2018-05-26T12:47:36Z</time>
      </trkpt>
      <trkpt lat="41.672243400" lon="1.752865000">
        <ele>307.00</ele>
        <time>2018-05-26T12:47:37Z</time>
      </trkpt>
      <trkpt lat="41.672209800" lon="1.752988900">
        <ele>307.40</ele>
        <time>2018-05-26T12:47:38Z</time>
      </trkpt>
      <trkpt lat="41.672119200" lon="1.753336400">
        <ele>307.40</ele>
        <time>2018-05-26T12:47:41Z</time>
      </trkpt>
      <trkpt lat="41.672101900" lon="1.753657600">
        <ele>307.40</ele>
        <time>2018-05-26T12:47:44Z</time>
      </trkpt>
      <trkpt lat="41.672198700" lon="1.753952300">
        <ele>308.20</ele>
        <time>2018-05-26T12:47:47Z</time>
      </trkpt>
      <trkpt lat="41.672380000" lon="1.754173200">
        <ele>306.40</ele>
        <time>2018-05-26T12:47:50Z</time>
      </trkpt>
      <trkpt lat="41.672632200" lon="1.754271700">
        <ele>306.20</ele>
        <time>2018-05-26T12:47:53Z</time>
      </trkpt>
      <trkpt lat="41.672808200" lon="1.754328900">
        <ele>305.40</ele>
        <time>2018-05-26T12:47:55Z</time>
      </trkpt>
      <trkpt lat="41.672980000" lon="1.754458700">
        <ele>304.40</ele>
        <time>2018-05-26T12:47:57Z</time>
      </trkpt>
      <trkpt lat="41.673059200" lon="1.754550400">
        <ele>303.80</ele>
        <time>2018-05-26T12:47:58Z</time>
      </trkpt>
      <trkpt lat="41.673136600" lon="1.754646900">
        <ele>303.40</ele>
        <time>2018-05-26T12:47:59Z</time>
      </trkpt>
      <trkpt lat="41.673284000" lon="1.754841400">
        <ele>303.00</ele>
        <time>2018-05-26T12:48:01Z</time>
      </trkpt>
      <trkpt lat="41.673696000" lon="1.755396400">
        <ele>302.00</ele>
        <time>2018-05-26T12:48:07Z</time>
      </trkpt>
      <trkpt lat="41.673761600" lon="1.755481200">
        <ele>302.00</ele>
        <time>2018-05-26T12:48:08Z</time>
      </trkpt>
      <trkpt lat="41.674172800" lon="1.755929200">
        <ele>301.60</ele>
        <time>2018-05-26T12:48:14Z</time>
      </trkpt>
      <trkpt lat="41.674554600" lon="1.756139400">
        <ele>302.60</ele>
        <time>2018-05-26T12:48:19Z</time>
      </trkpt>
      <trkpt lat="41.674894000" lon="1.756350000">
        <ele>304.00</ele>
        <time>2018-05-26T12:48:24Z</time>
      </trkpt>
      <trkpt lat="41.674982900" lon="1.756492900">
        <ele>304.40</ele>
        <time>2018-05-26T12:48:26Z</time>
      </trkpt>
      <trkpt lat="41.675083000" lon="1.756738600">
        <ele>305.20</ele>
        <time>2018-05-26T12:48:29Z</time>
      </trkpt>
      <trkpt lat="41.675201800" lon="1.757069300">
        <ele>305.40</ele>
        <time>2018-05-26T12:48:33Z</time>
      </trkpt>
      <trkpt lat="41.675285800" lon="1.757310500">
        <ele>305.60</ele>
        <time>2018-05-26T12:48:36Z</time>
      </trkpt>
      <trkpt lat="41.675417800" lon="1.757708600">
        <ele>306.60</ele>
        <time>2018-05-26T12:48:41Z</time>
      </trkpt>
      <trkpt lat="41.675507000" lon="1.758041900">
        <ele>306.60</ele>
        <time>2018-05-26T12:48:45Z</time>
      </trkpt>
      <trkpt lat="41.675644900" lon="1.758730000">
        <ele>307.00</ele>
        <time>2018-05-26T12:48:53Z</time>
      </trkpt>
      <trkpt lat="41.675658600" lon="1.759080900">
        <ele>307.60</ele>
        <time>2018-05-26T12:48:57Z</time>
      </trkpt>
      <trkpt lat="41.675653200" lon="1.759257100">
        <ele>307.60</ele>
        <time>2018-05-26T12:48:59Z</time>
      </trkpt>
      <trkpt lat="41.675678500" lon="1.759686800">
        <ele>308.00</ele>
        <time>2018-05-26T12:49:04Z</time>
      </trkpt>
      <trkpt lat="41.675874200" lon="1.760276200">
        <ele>306.60</ele>
        <time>2018-05-26T12:49:11Z</time>
      </trkpt>
      <trkpt lat="41.676121900" lon="1.760965400">
        <ele>305.40</ele>
        <time>2018-05-26T12:49:18Z</time>
      </trkpt>
      <trkpt lat="41.676088800" lon="1.761277100">
        <ele>303.80</ele>
        <time>2018-05-26T12:49:21Z</time>
      </trkpt>
      <trkpt lat="41.675981700" lon="1.761444800">
        <ele>303.00</ele>
        <time>2018-05-26T12:49:23Z</time>
      </trkpt>
      <trkpt lat="41.675954700" lon="1.761666800">
        <ele>302.40</ele>
        <time>2018-05-26T12:49:25Z</time>
      </trkpt>
      <trkpt lat="41.676032900" lon="1.761981700">
        <ele>302.60</ele>
        <time>2018-05-26T12:49:28Z</time>
      </trkpt>
      <trkpt lat="41.676215400" lon="1.762180900">
        <ele>302.60</ele>
        <time>2018-05-26T12:49:31Z</time>
      </trkpt>
      <trkpt lat="41.676398600" lon="1.762322000">
        <ele>304.20</ele>
        <time>2018-05-26T12:49:34Z</time>
      </trkpt>
      <trkpt lat="41.676511400" lon="1.762409600">
        <ele>304.80</ele>
        <time>2018-05-26T12:49:36Z</time>
      </trkpt>
      <trkpt lat="41.676618700" lon="1.762509600">
        <ele>305.20</ele>
        <time>2018-05-26T12:49:38Z</time>
      </trkpt>
      <trkpt lat="41.676898400" lon="1.762749500">
        <ele>305.00</ele>
        <time>2018-05-26T12:49:43Z</time>
      </trkpt>
      <trkpt lat="41.677142800" lon="1.762929800">
        <ele>305.00</ele>
        <time>2018-05-26T12:49:47Z</time>
      </trkpt>
      <trkpt lat="41.677401200" lon="1.763222600">
        <ele>305.60</ele>
        <time>2018-05-26T12:49:52Z</time>
      </trkpt>
      <trkpt lat="41.677742700" lon="1.763290500">
        <ele>305.60</ele>
        <time>2018-05-26T12:49:57Z</time>
      </trkpt>
      <trkpt lat="41.678094000" lon="1.763388100">
        <ele>305.40</ele>
        <time>2018-05-26T12:50:02Z</time>
      </trkpt>
      <trkpt lat="41.678298000" lon="1.763477900">
        <ele>305.60</ele>
        <time>2018-05-26T12:50:05Z</time>
      </trkpt>
      <trkpt lat="41.678568600" lon="1.763401100">
        <ele>305.40</ele>
        <time>2018-05-26T12:50:09Z</time>
      </trkpt>
      <trkpt lat="41.678782200" lon="1.763393100">
        <ele>305.40</ele>
        <time>2018-05-26T12:50:12Z</time>
      </trkpt>
      <trkpt lat="41.678995100" lon="1.763501900">
        <ele>304.60</ele>
        <time>2018-05-26T12:50:15Z</time>
      </trkpt>
      <trkpt lat="41.679130200" lon="1.763582900">
        <ele>304.40</ele>
        <time>2018-05-26T12:50:17Z</time>
      </trkpt>
      <trkpt lat="41.679539400" lon="1.763759000">
        <ele>305.00</ele>
        <time>2018-05-26T12:50:23Z</time>
      </trkpt>
      <trkpt lat="41.679681100" lon="1.763772200">
        <ele>304.80</ele>
        <time>2018-05-26T12:50:25Z</time>
      </trkpt>
      <trkpt lat="41.679823600" lon="1.763739300">
        <ele>305.00</ele>
        <time>2018-05-26T12:50:27Z</time>
      </trkpt>
      <trkpt lat="41.680084600" lon="1.763554200">
        <ele>305.60</ele>
        <time>2018-05-26T12:50:31Z</time>
      </trkpt>
      <trkpt lat="41.680264900" lon="1.763394400">
        <ele>305.80</ele>
        <time>2018-05-26T12:50:34Z</time>
      </trkpt>
      <trkpt lat="41.680472600" lon="1.763350400">
        <ele>306.20</ele>
        <time>2018-05-26T12:50:37Z</time>
      </trkpt>
      <trkpt lat="41.680606700" lon="1.763404700">
        <ele>307.00</ele>
        <time>2018-05-26T12:50:39Z</time>
      </trkpt>
      <trkpt lat="41.680735100" lon="1.763446700">
        <ele>307.60</ele>
        <time>2018-05-26T12:50:41Z</time>
      </trkpt>
      <trkpt lat="41.680953300" lon="1.763332200">
        <ele>308.60</ele>
        <time>2018-05-26T12:50:45Z</time>
      </trkpt>
      <trkpt lat="41.681025600" lon="1.763221400">
        <ele>309.20</ele>
        <time>2018-05-26T12:50:47Z</time>
      </trkpt>
      <trkpt lat="41.681113600" lon="1.763148500">
        <ele>310.00</ele>
        <time>2018-05-26T12:50:49Z</time>
      </trkpt>
      <trkpt lat="41.681270600" lon="1.763171500">
        <ele>310.80</ele>
        <time>2018-05-26T12:50:52Z</time>
      </trkpt>
      <trkpt lat="41.681364600" lon="1.763236900">
        <ele>311.20</ele>
        <time>2018-05-26T12:50:54Z</time>
      </trkpt>
      <trkpt lat="41.681455900" lon="1.763316300">
        <ele>311.40</ele>
        <time>2018-05-26T12:50:56Z</time>
      </trkpt>
      <trkpt lat="41.681641000" lon="1.763469400">
        <ele>311.60</ele>
        <time>2018-05-26T12:51:00Z</time>
      </trkpt>
      <trkpt lat="41.681743700" lon="1.763492600">
        <ele>311.60</ele>
        <time>2018-05-26T12:51:02Z</time>
      </trkpt>
      <trkpt lat="41.681847700" lon="1.763446700">
        <ele>312.20</ele>
        <time>2018-05-26T12:51:04Z</time>
      </trkpt>
      <trkpt lat="41.681977500" lon="1.763279700">
        <ele>312.60</ele>
        <time>2018-05-26T12:51:07Z</time>
      </trkpt>
      <trkpt lat="41.682061000" lon="1.763167100">
        <ele>313.20</ele>
        <time>2018-05-26T12:51:09Z</time>
      </trkpt>
      <trkpt lat="41.682283900" lon="1.763057400">
        <ele>314.00</ele>
        <time>2018-05-26T12:51:13Z</time>
      </trkpt>
      <trkpt lat="41.682413700" lon="1.763075400">
        <ele>314.20</ele>
        <time>2018-05-26T12:51:15Z</time>
      </trkpt>
      <trkpt lat="41.682686600" lon="1.763318200">
        <ele>315.00</ele>
        <time>2018-05-26T12:51:20Z</time>
      </trkpt>
      <trkpt lat="41.682945400" lon="1.763725000">
        <ele>315.60</ele>
        <time>2018-05-26T12:51:27Z</time>
      </trkpt>
      <trkpt lat="41.683044000" lon="1.763881800">
        <ele>316.80</ele>
        <time>2018-05-26T12:51:30Z</time>
      </trkpt>
      <trkpt lat="41.683162300" lon="1.764081700">
        <ele>317.60</ele>
        <time>2018-05-26T12:51:34Z</time>
      </trkpt>
      <trkpt lat="41.683223300" lon="1.764246400">
        <ele>319.00</ele>
        <time>2018-05-26T12:51:37Z</time>
      </trkpt>
      <trkpt lat="41.683267400" lon="1.764420700">
        <ele>319.80</ele>
        <time>2018-05-26T12:51:40Z</time>
      </trkpt>
      <trkpt lat="41.683291900" lon="1.764540700">
        <ele>320.40</ele>
        <time>2018-05-26T12:51:42Z</time>
      </trkpt>
      <trkpt lat="41.683344600" lon="1.764891200">
        <ele>321.20</ele>
        <time>2018-05-26T12:51:48Z</time>
      </trkpt>
      <trkpt lat="41.683343000" lon="1.765014100">
        <ele>321.40</ele>
        <time>2018-05-26T12:51:50Z</time>
      </trkpt>
      <trkpt lat="41.683317500" lon="1.765370900">
        <ele>320.60</ele>
        <time>2018-05-26T12:51:55Z</time>
      </trkpt>
      <trkpt lat="41.683298400" lon="1.765650200">
        <ele>318.40</ele>
        <time>2018-05-26T12:51:58Z</time>
      </trkpt>
      <trkpt lat="41.683289600" lon="1.765859300">
        <ele>317.20</ele>
        <time>2018-05-26T12:52:00Z</time>
      </trkpt>
      <trkpt lat="41.683284700" lon="1.766084000">
        <ele>316.20</ele>
        <time>2018-05-26T12:52:02Z</time>
      </trkpt>
      <trkpt lat="41.683322400" lon="1.766434800">
        <ele>314.00</ele>
        <time>2018-05-26T12:52:05Z</time>
      </trkpt>
      <trkpt lat="41.683346200" lon="1.766552400">
        <ele>313.00</ele>
        <time>2018-05-26T12:52:06Z</time>
      </trkpt>
      <trkpt lat="41.683417000" lon="1.766786500">
        <ele>311.40</ele>
        <time>2018-05-26T12:52:08Z</time>
      </trkpt>
      <trkpt lat="41.683461700" lon="1.766904900">
        <ele>310.60</ele>
        <time>2018-05-26T12:52:09Z</time>
      </trkpt>
      <trkpt lat="41.683509600" lon="1.767024600">
        <ele>309.40</ele>
        <time>2018-05-26T12:52:10Z</time>
      </trkpt>
      <trkpt lat="41.683557300" lon="1.767145600">
        <ele>308.40</ele>
        <time>2018-05-26T12:52:11Z</time>
      </trkpt>
      <trkpt lat="41.683649600" lon="1.767393600">
        <ele>307.20</ele>
        <time>2018-05-26T12:52:13Z</time>
      </trkpt>
      <trkpt lat="41.683729900" lon="1.767655800">
        <ele>306.80</ele>
        <time>2018-05-26T12:52:15Z</time>
      </trkpt>
      <trkpt lat="41.683801100" lon="1.767927200">
        <ele>305.20</ele>
        <time>2018-05-26T12:52:17Z</time>
      </trkpt>
      <trkpt lat="41.683837400" lon="1.768061900">
        <ele>303.80</ele>
        <time>2018-05-26T12:52:18Z</time>
      </trkpt>
      <trkpt lat="41.683907200" lon="1.768343400">
        <ele>302.60</ele>
        <time>2018-05-26T12:52:20Z</time>
      </trkpt>
      <trkpt lat="41.683977500" lon="1.768629900">
        <ele>301.60</ele>
        <time>2018-05-26T12:52:22Z</time>
      </trkpt>
      <trkpt lat="41.684050100" lon="1.768912400">
        <ele>301.00</ele>
        <time>2018-05-26T12:52:24Z</time>
      </trkpt>
      <trkpt lat="41.684179000" lon="1.769329700">
        <ele>299.80</ele>
        <time>2018-05-26T12:52:27Z</time>
      </trkpt>
      <trkpt lat="41.684280600" lon="1.769600100">
        <ele>297.80</ele>
        <time>2018-05-26T12:52:29Z</time>
      </trkpt>
      <trkpt lat="41.684338200" lon="1.769734200">
        <ele>296.60</ele>
        <time>2018-05-26T12:52:30Z</time>
      </trkpt>
      <trkpt lat="41.684452000" lon="1.770014900">
        <ele>295.40</ele>
        <time>2018-05-26T12:52:32Z</time>
      </trkpt>
      <trkpt lat="41.684575000" lon="1.770302500">
        <ele>294.40</ele>
        <time>2018-05-26T12:52:34Z</time>
      </trkpt>
      <trkpt lat="41.684638800" lon="1.770446000">
        <ele>293.20</ele>
        <time>2018-05-26T12:52:35Z</time>
      </trkpt>
      <trkpt lat="41.684771600" lon="1.770733500">
        <ele>291.80</ele>
        <time>2018-05-26T12:52:37Z</time>
      </trkpt>
      <trkpt lat="41.684900600" lon="1.771018400">
        <ele>289.80</ele>
        <time>2018-05-26T12:52:39Z</time>
      </trkpt>
      <trkpt lat="41.684958800" lon="1.771167100">
        <ele>288.80</ele>
        <time>2018-05-26T12:52:40Z</time>
      </trkpt>
      <trkpt lat="41.685046300" lon="1.771478900">
        <ele>287.60</ele>
        <time>2018-05-26T12:52:42Z</time>
      </trkpt>
      <trkpt lat="41.685075400" lon="1.771642900">
        <ele>287.00</ele>
        <time>2018-05-26T12:52:43Z</time>
      </trkpt>
      <trkpt lat="41.685096500" lon="1.771809900">
        <ele>284.20</ele>
        <time>2018-05-26T12:52:44Z</time>
      </trkpt>
      <trkpt lat="41.685110300" lon="1.771974700">
        <ele>282.00</ele>
        <time>2018-05-26T12:52:45Z</time>
      </trkpt>
      <trkpt lat="41.685122000" lon="1.772135300">
        <ele>280.80</ele>
        <time>2018-05-26T12:52:46Z</time>
      </trkpt>
      <trkpt lat="41.685139200" lon="1.772291700">
        <ele>280.60</ele>
        <time>2018-05-26T12:52:47Z</time>
      </trkpt>
      <trkpt lat="41.685291700" lon="1.772892600">
        <ele>279.40</ele>
        <time>2018-05-26T12:52:51Z</time>
      </trkpt>
      <trkpt lat="41.685355200" lon="1.773037700">
        <ele>278.60</ele>
        <time>2018-05-26T12:52:52Z</time>
      </trkpt>
      <trkpt lat="41.685424700" lon="1.773181000">
        <ele>278.00</ele>
        <time>2018-05-26T12:52:53Z</time>
      </trkpt>
      <trkpt lat="41.685500700" lon="1.773318500">
        <ele>277.40</ele>
        <time>2018-05-26T12:52:54Z</time>
      </trkpt>
      <trkpt lat="41.685583200" lon="1.773449700">
        <ele>276.60</ele>
        <time>2018-05-26T12:52:55Z</time>
      </trkpt>
      <trkpt lat="41.685674500" lon="1.773570900">
        <ele>275.60</ele>
        <time>2018-05-26T12:52:56Z</time>
      </trkpt>
      <trkpt lat="41.685870100" lon="1.773790300">
        <ele>274.20</ele>
        <time>2018-05-26T12:52:58Z</time>
      </trkpt>
      <trkpt lat="41.686063500" lon="1.773988400">
        <ele>272.60</ele>
        <time>2018-05-26T12:53:00Z</time>
      </trkpt>
      <trkpt lat="41.686164300" lon="1.774070000">
        <ele>272.00</ele>
        <time>2018-05-26T12:53:01Z</time>
      </trkpt>
      <trkpt lat="41.686267200" lon="1.774132700">
        <ele>272.00</ele>
        <time>2018-05-26T12:53:02Z</time>
      </trkpt>
      <trkpt lat="41.686589100" lon="1.774203300">
        <ele>271.80</ele>
        <time>2018-05-26T12:53:05Z</time>
      </trkpt>
      <trkpt lat="41.686782400" lon="1.774232500">
        <ele>272.20</ele>
        <time>2018-05-26T12:53:07Z</time>
      </trkpt>
      <trkpt lat="41.686976500" lon="1.774445800">
        <ele>270.80</ele>
        <time>2018-05-26T12:53:10Z</time>
      </trkpt>
      <trkpt lat="41.686998900" lon="1.774666400">
        <ele>270.00</ele>
        <time>2018-05-26T12:53:12Z</time>
      </trkpt>
      <trkpt lat="41.686991000" lon="1.774900600">
        <ele>269.60</ele>
        <time>2018-05-26T12:53:14Z</time>
      </trkpt>
      <trkpt lat="41.686983800" lon="1.775140200">
        <ele>270.00</ele>
        <time>2018-05-26T12:53:16Z</time>
      </trkpt>
      <trkpt lat="41.686981400" lon="1.775379900">
        <ele>270.00</ele>
        <time>2018-05-26T12:53:18Z</time>
      </trkpt>
      <trkpt lat="41.686979000" lon="1.775618500">
        <ele>268.60</ele>
        <time>2018-05-26T12:53:20Z</time>
      </trkpt>
      <trkpt lat="41.686973700" lon="1.775857800">
        <ele>268.20</ele>
        <time>2018-05-26T12:53:22Z</time>
      </trkpt>
      <trkpt lat="41.686960300" lon="1.776202700">
        <ele>268.80</ele>
        <time>2018-05-26T12:53:25Z</time>
      </trkpt>
      <trkpt lat="41.686906800" lon="1.776680600">
        <ele>268.00</ele>
        <time>2018-05-26T12:53:29Z</time>
      </trkpt>
      <trkpt lat="41.686871100" lon="1.776911800">
        <ele>268.00</ele>
        <time>2018-05-26T12:53:31Z</time>
      </trkpt>
      <trkpt lat="41.686774200" lon="1.777335300">
        <ele>268.40</ele>
        <time>2018-05-26T12:53:35Z</time>
      </trkpt>
      <trkpt lat="41.686726900" lon="1.777547900">
        <ele>268.40</ele>
        <time>2018-05-26T12:53:37Z</time>
      </trkpt>
      <trkpt lat="41.686589800" lon="1.778257100">
        <ele>269.00</ele>
        <time>2018-05-26T12:53:44Z</time>
      </trkpt>
      <trkpt lat="41.686613100" lon="1.778756500">
        <ele>269.20</ele>
        <time>2018-05-26T12:53:49Z</time>
      </trkpt>
      <trkpt lat="41.686687200" lon="1.779044800">
        <ele>269.00</ele>
        <time>2018-05-26T12:53:52Z</time>
      </trkpt>
      <trkpt lat="41.686890600" lon="1.779346100">
        <ele>268.40</ele>
        <time>2018-05-26T12:53:56Z</time>
      </trkpt>
      <trkpt lat="41.687122000" lon="1.779454200">
        <ele>267.80</ele>
        <time>2018-05-26T12:53:59Z</time>
      </trkpt>
      <trkpt lat="41.687290800" lon="1.779487900">
        <ele>267.40</ele>
        <time>2018-05-26T12:54:01Z</time>
      </trkpt>
      <trkpt lat="41.687637600" lon="1.779551600">
        <ele>266.40</ele>
        <time>2018-05-26T12:54:05Z</time>
      </trkpt>
      <trkpt lat="41.688151300" lon="1.779643700">
        <ele>265.80</ele>
        <time>2018-05-26T12:54:11Z</time>
      </trkpt>
      <trkpt lat="41.688419400" lon="1.779697200">
        <ele>265.40</ele>
        <time>2018-05-26T12:54:14Z</time>
      </trkpt>
      <trkpt lat="41.688779800" lon="1.779765800">
        <ele>264.60</ele>
        <time>2018-05-26T12:54:18Z</time>
      </trkpt>
      <trkpt lat="41.688961200" lon="1.779803900">
        <ele>264.00</ele>
        <time>2018-05-26T12:54:20Z</time>
      </trkpt>
      <trkpt lat="41.689317800" lon="1.779897600">
        <ele>264.00</ele>
        <time>2018-05-26T12:54:24Z</time>
      </trkpt>
      <trkpt lat="41.689484200" lon="1.780001900">
        <ele>263.80</ele>
        <time>2018-05-26T12:54:26Z</time>
      </trkpt>
      <trkpt lat="41.689763100" lon="1.780315600">
        <ele>263.60</ele>
        <time>2018-05-26T12:54:30Z</time>
      </trkpt>
      <trkpt lat="41.689886100" lon="1.780489000">
        <ele>262.80</ele>
        <time>2018-05-26T12:54:32Z</time>
      </trkpt>
      <trkpt lat="41.690242300" lon="1.780977200">
        <ele>262.40</ele>
        <time>2018-05-26T12:54:38Z</time>
      </trkpt>
      <trkpt lat="41.690361000" lon="1.781132900">
        <ele>261.80</ele>
        <time>2018-05-26T12:54:40Z</time>
      </trkpt>
      <trkpt lat="41.690613000" lon="1.781424100">
        <ele>262.40</ele>
        <time>2018-05-26T12:54:44Z</time>
      </trkpt>
      <trkpt lat="41.691052500" lon="1.781717800">
        <ele>261.20</ele>
        <time>2018-05-26T12:54:50Z</time>
      </trkpt>
      <trkpt lat="41.691313200" lon="1.781852600">
        <ele>260.60</ele>
        <time>2018-05-26T12:54:53Z</time>
      </trkpt>
      <trkpt lat="41.691495500" lon="1.781943400">
        <ele>259.60</ele>
        <time>2018-05-26T12:54:55Z</time>
      </trkpt>
      <trkpt lat="41.691587900" lon="1.781987300">
        <ele>259.00</ele>
        <time>2018-05-26T12:54:56Z</time>
      </trkpt>
      <trkpt lat="41.691770500" lon="1.782085200">
        <ele>258.40</ele>
        <time>2018-05-26T12:54:58Z</time>
      </trkpt>
      <trkpt lat="41.692059100" lon="1.782223500">
        <ele>257.80</ele>
        <time>2018-05-26T12:55:01Z</time>
      </trkpt>
      <trkpt lat="41.692156300" lon="1.782275800">
        <ele>257.40</ele>
        <time>2018-05-26T12:55:02Z</time>
      </trkpt>
      <trkpt lat="41.692452100" lon="1.782428300">
        <ele>256.40</ele>
        <time>2018-05-26T12:55:05Z</time>
      </trkpt>
      <trkpt lat="41.692852100" lon="1.782632100">
        <ele>255.40</ele>
        <time>2018-05-26T12:55:09Z</time>
      </trkpt>
      <trkpt lat="41.693368500" lon="1.782896900">
        <ele>254.20</ele>
        <time>2018-05-26T12:55:14Z</time>
      </trkpt>
      <trkpt lat="41.693680700" lon="1.783061000">
        <ele>253.00</ele>
        <time>2018-05-26T12:55:17Z</time>
      </trkpt>
      <trkpt lat="41.693782800" lon="1.783121600">
        <ele>252.20</ele>
        <time>2018-05-26T12:55:18Z</time>
      </trkpt>
      <trkpt lat="41.693881200" lon="1.783188400">
        <ele>251.60</ele>
        <time>2018-05-26T12:55:19Z</time>
      </trkpt>
      <trkpt lat="41.694150900" lon="1.783429100">
        <ele>251.80</ele>
        <time>2018-05-26T12:55:22Z</time>
      </trkpt>
      <trkpt lat="41.694566100" lon="1.783858100">
        <ele>251.60</ele>
        <time>2018-05-26T12:55:27Z</time>
      </trkpt>
      <trkpt lat="41.694795300" lon="1.784103700">
        <ele>251.40</ele>
        <time>2018-05-26T12:55:30Z</time>
      </trkpt>
      <trkpt lat="41.695108300" lon="1.784565200">
        <ele>251.40</ele>
        <time>2018-05-26T12:55:35Z</time>
      </trkpt>
      <trkpt lat="41.695416500" lon="1.785297600">
        <ele>251.60</ele>
        <time>2018-05-26T12:55:42Z</time>
      </trkpt>
      <trkpt lat="41.695729600" lon="1.786011600">
        <ele>251.20</ele>
        <time>2018-05-26T12:55:49Z</time>
      </trkpt>
      <trkpt lat="41.695992600" lon="1.786614500">
        <ele>249.80</ele>
        <time>2018-05-26T12:55:55Z</time>
      </trkpt>
      <trkpt lat="41.696323200" lon="1.787397000">
        <ele>250.60</ele>
        <time>2018-05-26T12:56:03Z</time>
      </trkpt>
      <trkpt lat="41.696411700" lon="1.787586400">
        <ele>251.20</ele>
        <time>2018-05-26T12:56:05Z</time>
      </trkpt>
      <trkpt lat="41.696522900" lon="1.787889800">
        <ele>251.60</ele>
        <time>2018-05-26T12:56:08Z</time>
      </trkpt>
      <trkpt lat="41.696434900" lon="1.788277600">
        <ele>250.80</ele>
        <time>2018-05-26T12:56:12Z</time>
      </trkpt>
      <trkpt lat="41.696236200" lon="1.788620500">
        <ele>252.00</ele>
        <time>2018-05-26T12:56:17Z</time>
      </trkpt>
      <trkpt lat="41.696233000" lon="1.788762500">
        <ele>252.80</ele>
        <time>2018-05-26T12:56:22Z</time>
      </trkpt>
      <trkpt lat="41.696369200" lon="1.788896600">
        <ele>252.60</ele>
        <time>2018-05-26T12:56:26Z</time>
      </trkpt>
      <trkpt lat="41.696506100" lon="1.789003100">
        <ele>252.00</ele>
        <time>2018-05-26T12:56:29Z</time>
      </trkpt>
      <trkpt lat="41.696657600" lon="1.789091500">
        <ele>253.20</ele>
        <time>2018-05-26T12:56:32Z</time>
      </trkpt>
      <trkpt lat="41.696755500" lon="1.789151300">
        <ele>253.80</ele>
        <time>2018-05-26T12:56:34Z</time>
      </trkpt>
      <trkpt lat="41.696945500" lon="1.789295900">
        <ele>254.60</ele>
        <time>2018-05-26T12:56:38Z</time>
      </trkpt>
      <trkpt lat="41.697084100" lon="1.789421700">
        <ele>255.20</ele>
        <time>2018-05-26T12:56:41Z</time>
      </trkpt>
      <trkpt lat="41.697244000" lon="1.789610200">
        <ele>256.00</ele>
        <time>2018-05-26T12:56:45Z</time>
      </trkpt>
      <trkpt lat="41.697357000" lon="1.789742400">
        <ele>256.40</ele>
        <time>2018-05-26T12:56:48Z</time>
      </trkpt>
      <trkpt lat="41.697438100" lon="1.789828200">
        <ele>257.00</ele>
        <time>2018-05-26T12:56:50Z</time>
      </trkpt>
      <trkpt lat="41.697519800" lon="1.789909900">
        <ele>258.00</ele>
        <time>2018-05-26T12:56:52Z</time>
      </trkpt>
      <trkpt lat="41.697680100" lon="1.790063100">
        <ele>259.00</ele>
        <time>2018-05-26T12:56:56Z</time>
      </trkpt>
      <trkpt lat="41.698008300" lon="1.790373900">
        <ele>260.00</ele>
        <time>2018-05-26T12:57:04Z</time>
      </trkpt>
      <trkpt lat="41.698255700" lon="1.790615100">
        <ele>261.00</ele>
        <time>2018-05-26T12:57:11Z</time>
      </trkpt>
      <trkpt lat="41.698485000" lon="1.790846800">
        <ele>261.00</ele>
        <time>2018-05-26T12:57:18Z</time>
      </trkpt>
      <trkpt lat="41.698705500" lon="1.791078900">
        <ele>262.60</ele>
        <time>2018-05-26T12:57:24Z</time>
      </trkpt>
      <trkpt lat="41.698780700" lon="1.791149800">
        <ele>263.20</ele>
        <time>2018-05-26T12:57:26Z</time>
      </trkpt>
      <trkpt lat="41.698856600" lon="1.791219700">
        <ele>263.60</ele>
        <time>2018-05-26T12:57:28Z</time>
      </trkpt>
      <trkpt lat="41.699147500" lon="1.791507000">
        <ele>265.00</ele>
        <time>2018-05-26T12:57:36Z</time>
      </trkpt>
      <trkpt lat="41.699363400" lon="1.791719800">
        <ele>266.00</ele>
        <time>2018-05-26T12:57:42Z</time>
      </trkpt>
      <trkpt lat="41.699505500" lon="1.791861300">
        <ele>267.00</ele>
        <time>2018-05-26T12:57:46Z</time>
      </trkpt>
      <trkpt lat="41.699730600" lon="1.792067300">
        <ele>268.00</ele>
        <time>2018-05-26T12:57:52Z</time>
      </trkpt>
      <trkpt lat="41.699947300" lon="1.792285100">
        <ele>269.40</ele>
        <time>2018-05-26T12:57:58Z</time>
      </trkpt>
      <trkpt lat="41.700229600" lon="1.792561300">
        <ele>270.60</ele>
        <time>2018-05-26T12:58:06Z</time>
      </trkpt>
      <trkpt lat="41.700303300" lon="1.792631000">
        <ele>270.80</ele>
        <time>2018-05-26T12:58:08Z</time>
      </trkpt>
      <trkpt lat="41.700597800" lon="1.792906000">
        <ele>271.60</ele>
        <time>2018-05-26T12:58:16Z</time>
      </trkpt>
      <trkpt lat="41.701040500" lon="1.793236100">
        <ele>272.80</ele>
        <time>2018-05-26T12:58:26Z</time>
      </trkpt>
      <trkpt lat="41.701229400" lon="1.793374300">
        <ele>273.00</ele>
        <time>2018-05-26T12:58:30Z</time>
      </trkpt>
      <trkpt lat="41.701424400" lon="1.793530500">
        <ele>273.20</ele>
        <time>2018-05-26T12:58:34Z</time>
      </trkpt>
      <trkpt lat="41.701891000" lon="1.793876600">
        <ele>273.60</ele>
        <time>2018-05-26T12:58:43Z</time>
      </trkpt>
      <trkpt lat="41.702124000" lon="1.794050700">
        <ele>273.60</ele>
        <time>2018-05-26T12:58:49Z</time>
      </trkpt>
      <trkpt lat="41.702283400" lon="1.794150200">
        <ele>273.60</ele>
        <time>2018-05-26T12:59:34Z</time>
      </trkpt>
      <trkpt lat="41.702394200" lon="1.794233900">
        <ele>273.20</ele>
        <time>2018-05-26T12:59:39Z</time>
      </trkpt>
      <trkpt lat="41.702655600" lon="1.794433000">
        <ele>273.20</ele>
        <time>2018-05-26T12:59:47Z</time>
      </trkpt>
      <trkpt lat="41.702855800" lon="1.794572900">
        <ele>273.80</ele>
        <time>2018-05-26T12:59:52Z</time>
      </trkpt>
      <trkpt lat="41.702976700" lon="1.794659300">
        <ele>273.80</ele>
        <time>2018-05-26T12:59:55Z</time>
      </trkpt>
      <trkpt lat="41.703192000" lon="1.794821200">
        <ele>273.40</ele>
        <time>2018-05-26T13:00:00Z</time>
      </trkpt>
      <trkpt lat="41.703360500" lon="1.794978400">
        <ele>272.80</ele>
        <time>2018-05-26T13:00:04Z</time>
      </trkpt>
      <trkpt lat="41.703488000" lon="1.795153100">
        <ele>272.00</ele>
        <time>2018-05-26T13:00:07Z</time>
      </trkpt>
      <trkpt lat="41.703564000" lon="1.795302200">
        <ele>271.60</ele>
        <time>2018-05-26T13:00:09Z</time>
      </trkpt>
      <trkpt lat="41.703646500" lon="1.795462700">
        <ele>270.40</ele>
        <time>2018-05-26T13:00:11Z</time>
      </trkpt>
      <trkpt lat="41.703736600" lon="1.795623300">
        <ele>269.40</ele>
        <time>2018-05-26T13:00:13Z</time>
      </trkpt>
      <trkpt lat="41.703828100" lon="1.795797200">
        <ele>268.40</ele>
        <time>2018-05-26T13:00:15Z</time>
      </trkpt>
      <trkpt lat="41.703924500" lon="1.795979800">
        <ele>266.60</ele>
        <time>2018-05-26T13:00:17Z</time>
      </trkpt>
      <trkpt lat="41.704026400" lon="1.796170600">
        <ele>265.00</ele>
        <time>2018-05-26T13:00:19Z</time>
      </trkpt>
      <trkpt lat="41.704131500" lon="1.796361600">
        <ele>263.80</ele>
        <time>2018-05-26T13:00:21Z</time>
      </trkpt>
      <trkpt lat="41.704232600" lon="1.796555300">
        <ele>263.00</ele>
        <time>2018-05-26T13:00:23Z</time>
      </trkpt>
      <trkpt lat="41.704437300" lon="1.796938500">
        <ele>262.60</ele>
        <time>2018-05-26T13:00:27Z</time>
      </trkpt>
      <trkpt lat="41.704589400" lon="1.797219500">
        <ele>262.20</ele>
        <time>2018-05-26T13:00:30Z</time>
      </trkpt>
      <trkpt lat="41.704687300" lon="1.797397100">
        <ele>262.40</ele>
        <time>2018-05-26T13:00:32Z</time>
      </trkpt>
      <trkpt lat="41.705009300" lon="1.797979800">
        <ele>262.40</ele>
        <time>2018-05-26T13:00:39Z</time>
      </trkpt>
      <trkpt lat="41.705329900" lon="1.798432000">
        <ele>261.20</ele>
        <time>2018-05-26T13:00:45Z</time>
      </trkpt>
      <trkpt lat="41.705614400" lon="1.798740500">
        <ele>259.80</ele>
        <time>2018-05-26T13:00:49Z</time>
      </trkpt>
      <trkpt lat="41.705773700" lon="1.798900500">
        <ele>258.80</ele>
        <time>2018-05-26T13:00:51Z</time>
      </trkpt>
      <trkpt lat="41.705854800" lon="1.798983400">
        <ele>258.00</ele>
        <time>2018-05-26T13:00:52Z</time>
      </trkpt>
      <trkpt lat="41.705937000" lon="1.799066800">
        <ele>257.60</ele>
        <time>2018-05-26T13:00:53Z</time>
      </trkpt>
      <trkpt lat="41.706099900" lon="1.799228400">
        <ele>256.60</ele>
        <time>2018-05-26T13:00:55Z</time>
      </trkpt>
      <trkpt lat="41.706337800" lon="1.799462300">
        <ele>255.20</ele>
        <time>2018-05-26T13:00:58Z</time>
      </trkpt>
      <trkpt lat="41.706490200" lon="1.799616400">
        <ele>255.00</ele>
        <time>2018-05-26T13:01:00Z</time>
      </trkpt>
      <trkpt lat="41.706924800" lon="1.800087200">
        <ele>254.60</ele>
        <time>2018-05-26T13:01:06Z</time>
      </trkpt>
      <trkpt lat="41.707209100" lon="1.800499300">
        <ele>254.80</ele>
        <time>2018-05-26T13:01:11Z</time>
      </trkpt>
      <trkpt lat="41.707390000" lon="1.800769400">
        <ele>253.40</ele>
        <time>2018-05-26T13:01:14Z</time>
      </trkpt>
      <trkpt lat="41.707516900" lon="1.800953000">
        <ele>251.80</ele>
        <time>2018-05-26T13:01:16Z</time>
      </trkpt>
      <trkpt lat="41.707647300" lon="1.801136900">
        <ele>250.80</ele>
        <time>2018-05-26T13:01:18Z</time>
      </trkpt>
      <trkpt lat="41.707846200" lon="1.801433300">
        <ele>249.60</ele>
        <time>2018-05-26T13:01:21Z</time>
      </trkpt>
      <trkpt lat="41.707986200" lon="1.801637500">
        <ele>248.40</ele>
        <time>2018-05-26T13:01:23Z</time>
      </trkpt>
      <trkpt lat="41.708129900" lon="1.801845800">
        <ele>246.60</ele>
        <time>2018-05-26T13:01:25Z</time>
      </trkpt>
      <trkpt lat="41.708360100" lon="1.802133800">
        <ele>245.60</ele>
        <time>2018-05-26T13:01:28Z</time>
      </trkpt>
      <trkpt lat="41.708445200" lon="1.802222500">
        <ele>245.00</ele>
        <time>2018-05-26T13:01:29Z</time>
      </trkpt>
      <trkpt lat="41.708532600" lon="1.802302100">
        <ele>244.40</ele>
        <time>2018-05-26T13:01:30Z</time>
      </trkpt>
      <trkpt lat="41.708623900" lon="1.802366700">
        <ele>243.80</ele>
        <time>2018-05-26T13:01:31Z</time>
      </trkpt>
      <trkpt lat="41.708821800" lon="1.802475100">
        <ele>241.00</ele>
        <time>2018-05-26T13:01:33Z</time>
      </trkpt>
      <trkpt lat="41.709121900" lon="1.802640400">
        <ele>239.80</ele>
        <time>2018-05-26T13:01:36Z</time>
      </trkpt>
      <trkpt lat="41.709424800" lon="1.802795500">
        <ele>238.40</ele>
        <time>2018-05-26T13:01:39Z</time>
      </trkpt>
      <trkpt lat="41.709623700" lon="1.802907100">
        <ele>237.00</ele>
        <time>2018-05-26T13:01:41Z</time>
      </trkpt>
      <trkpt lat="41.709717400" lon="1.802983600">
        <ele>236.40</ele>
        <time>2018-05-26T13:01:42Z</time>
      </trkpt>
      <trkpt lat="41.709805100" lon="1.803072400">
        <ele>236.00</ele>
        <time>2018-05-26T13:01:43Z</time>
      </trkpt>
      <trkpt lat="41.709888600" lon="1.803171000">
        <ele>235.40</ele>
        <time>2018-05-26T13:01:44Z</time>
      </trkpt>
      <trkpt lat="41.709969600" lon="1.803273100">
        <ele>234.80</ele>
        <time>2018-05-26T13:01:45Z</time>
      </trkpt>
      <trkpt lat="41.710130800" lon="1.803481100">
        <ele>233.60</ele>
        <time>2018-05-26T13:01:47Z</time>
      </trkpt>
      <trkpt lat="41.710292000" lon="1.803684900">
        <ele>232.40</ele>
        <time>2018-05-26T13:01:49Z</time>
      </trkpt>
      <trkpt lat="41.710458700" lon="1.803894100">
        <ele>231.60</ele>
        <time>2018-05-26T13:01:51Z</time>
      </trkpt>
      <trkpt lat="41.710542600" lon="1.804001500">
        <ele>230.60</ele>
        <time>2018-05-26T13:01:52Z</time>
      </trkpt>
      <trkpt lat="41.710626200" lon="1.804107100">
        <ele>229.40</ele>
        <time>2018-05-26T13:01:53Z</time>
      </trkpt>
      <trkpt lat="41.710708000" lon="1.804215800">
        <ele>228.20</ele>
        <time>2018-05-26T13:01:54Z</time>
      </trkpt>
      <trkpt lat="41.710946700" lon="1.804560100">
        <ele>227.20</ele>
        <time>2018-05-26T13:01:57Z</time>
      </trkpt>
      <trkpt lat="41.711023500" lon="1.804677100">
        <ele>226.60</ele>
        <time>2018-05-26T13:01:58Z</time>
      </trkpt>
      <trkpt lat="41.711099400" lon="1.804796400">
        <ele>226.00</ele>
        <time>2018-05-26T13:01:59Z</time>
      </trkpt>
      <trkpt lat="41.711476700" lon="1.805389300">
        <ele>224.80</ele>
        <time>2018-05-26T13:02:04Z</time>
      </trkpt>
      <trkpt lat="41.711548100" lon="1.805503300">
        <ele>224.60</ele>
        <time>2018-05-26T13:02:05Z</time>
      </trkpt>
      <trkpt lat="41.711882300" lon="1.806035000">
        <ele>224.20</ele>
        <time>2018-05-26T13:02:10Z</time>
      </trkpt>
      <trkpt lat="41.711943500" lon="1.806137100">
        <ele>224.40</ele>
        <time>2018-05-26T13:02:11Z</time>
      </trkpt>
      <trkpt lat="41.712036000" lon="1.806363900">
        <ele>224.40</ele>
        <time>2018-05-26T13:02:13Z</time>
      </trkpt>
      <trkpt lat="41.712061900" lon="1.806483300">
        <ele>224.60</ele>
        <time>2018-05-26T13:02:14Z</time>
      </trkpt>
      <trkpt lat="41.712098300" lon="1.806845400">
        <ele>224.60</ele>
        <time>2018-05-26T13:02:17Z</time>
      </trkpt>
      <trkpt lat="41.712127200" lon="1.807180800">
        <ele>224.80</ele>
        <time>2018-05-26T13:02:20Z</time>
      </trkpt>
      <trkpt lat="41.712174300" lon="1.807376800">
        <ele>225.00</ele>
        <time>2018-05-26T13:02:22Z</time>
      </trkpt>
      <trkpt lat="41.712360300" lon="1.807779700">
        <ele>225.80</ele>
        <time>2018-05-26T13:02:27Z</time>
      </trkpt>
      <trkpt lat="41.712603200" lon="1.808261600">
        <ele>226.80</ele>
        <time>2018-05-26T13:02:34Z</time>
      </trkpt>
      <trkpt lat="41.712734800" lon="1.808498500">
        <ele>227.20</ele>
        <time>2018-05-26T13:02:38Z</time>
      </trkpt>
      <trkpt lat="41.712847400" lon="1.808700500">
        <ele>228.20</ele>
        <time>2018-05-26T13:02:42Z</time>
      </trkpt>
      <trkpt lat="41.712915600" lon="1.808847800">
        <ele>229.60</ele>
        <time>2018-05-26T13:02:45Z</time>
      </trkpt>
      <trkpt lat="41.712992200" lon="1.809009200">
        <ele>230.00</ele>
        <time>2018-05-26T13:02:48Z</time>
      </trkpt>
      <trkpt lat="41.713043200" lon="1.809119800">
        <ele>230.60</ele>
        <time>2018-05-26T13:02:50Z</time>
      </trkpt>
      <trkpt lat="41.713118700" lon="1.809285300">
        <ele>231.20</ele>
        <time>2018-05-26T13:02:53Z</time>
      </trkpt>
      <trkpt lat="41.713173000" lon="1.809391200">
        <ele>232.00</ele>
        <time>2018-05-26T13:02:55Z</time>
      </trkpt>
      <trkpt lat="41.713256500" lon="1.809542800">
        <ele>232.80</ele>
        <time>2018-05-26T13:02:58Z</time>
      </trkpt>
      <trkpt lat="41.713374400" lon="1.809743000">
        <ele>234.20</ele>
        <time>2018-05-26T13:03:02Z</time>
      </trkpt>
      <trkpt lat="41.713438500" lon="1.809836800">
        <ele>234.80</ele>
        <time>2018-05-26T13:03:04Z</time>
      </trkpt>
      <trkpt lat="41.713674600" lon="1.810140400">
        <ele>235.80</ele>
        <time>2018-05-26T13:03:11Z</time>
      </trkpt>
      <trkpt lat="41.713807800" lon="1.810312700">
        <ele>236.40</ele>
        <time>2018-05-26T13:03:15Z</time>
      </trkpt>
      <trkpt lat="41.713980100" lon="1.810519700">
        <ele>237.00</ele>
        <time>2018-05-26T13:03:20Z</time>
      </trkpt>
      <trkpt lat="41.714048500" lon="1.810602600">
        <ele>238.00</ele>
        <time>2018-05-26T13:03:22Z</time>
      </trkpt>
      <trkpt lat="41.714179400" lon="1.810768900">
        <ele>239.20</ele>
        <time>2018-05-26T13:03:26Z</time>
      </trkpt>
      <trkpt lat="41.714317000" lon="1.810931900">
        <ele>240.20</ele>
        <time>2018-05-26T13:03:30Z</time>
      </trkpt>
      <trkpt lat="41.714420500" lon="1.811054500">
        <ele>240.40</ele>
        <time>2018-05-26T13:03:33Z</time>
      </trkpt>
      <trkpt lat="41.714489100" lon="1.811136100">
        <ele>240.80</ele>
        <time>2018-05-26T13:03:35Z</time>
      </trkpt>
      <trkpt lat="41.714555500" lon="1.811223200">
        <ele>241.00</ele>
        <time>2018-05-26T13:03:37Z</time>
      </trkpt>
      <trkpt lat="41.714632000" lon="1.811310300">
        <ele>241.60</ele>
        <time>2018-05-26T13:03:39Z</time>
      </trkpt>
      <trkpt lat="41.714810600" lon="1.811530500">
        <ele>242.60</ele>
        <time>2018-05-26T13:03:44Z</time>
      </trkpt>
      <trkpt lat="41.714977300" lon="1.811740100">
        <ele>243.60</ele>
        <time>2018-05-26T13:03:49Z</time>
      </trkpt>
      <trkpt lat="41.715079300" lon="1.811865100">
        <ele>244.40</ele>
        <time>2018-05-26T13:03:52Z</time>
      </trkpt>
      <trkpt lat="41.715149100" lon="1.811948300">
        <ele>244.80</ele>
        <time>2018-05-26T13:03:54Z</time>
      </trkpt>
      <trkpt lat="41.715359100" lon="1.812184900">
        <ele>245.80</ele>
        <time>2018-05-26T13:04:00Z</time>
      </trkpt>
      <trkpt lat="41.715432800" lon="1.812263600">
        <ele>246.20</ele>
        <time>2018-05-26T13:04:02Z</time>
      </trkpt>
      <trkpt lat="41.715664100" lon="1.812496500">
        <ele>246.80</ele>
        <time>2018-05-26T13:04:08Z</time>
      </trkpt>
      <trkpt lat="41.715783100" lon="1.812616000">
        <ele>247.60</ele>
        <time>2018-05-26T13:04:11Z</time>
      </trkpt>
      <trkpt lat="41.715906600" lon="1.812738900">
        <ele>248.00</ele>
        <time>2018-05-26T13:04:14Z</time>
      </trkpt>
      <trkpt lat="41.716148800" lon="1.812983200">
        <ele>249.20</ele>
        <time>2018-05-26T13:04:20Z</time>
      </trkpt>
      <trkpt lat="41.716352600" lon="1.813186300">
        <ele>250.40</ele>
        <time>2018-05-26T13:04:25Z</time>
      </trkpt>
      <trkpt lat="41.716669900" lon="1.813513900">
        <ele>251.40</ele>
        <time>2018-05-26T13:04:33Z</time>
      </trkpt>
      <trkpt lat="41.716751200" lon="1.813591600">
        <ele>252.00</ele>
        <time>2018-05-26T13:04:35Z</time>
      </trkpt>
      <trkpt lat="41.716833400" lon="1.813673400">
        <ele>252.60</ele>
        <time>2018-05-26T13:04:37Z</time>
      </trkpt>
      <trkpt lat="41.717102600" lon="1.813923300">
        <ele>253.00</ele>
        <time>2018-05-26T13:04:43Z</time>
      </trkpt>
      <trkpt lat="41.717241600" lon="1.814037300">
        <ele>253.60</ele>
        <time>2018-05-26T13:04:46Z</time>
      </trkpt>
      <trkpt lat="41.717426800" lon="1.814185600">
        <ele>254.00</ele>
        <time>2018-05-26T13:04:50Z</time>
      </trkpt>
      <trkpt lat="41.717657900" lon="1.814378700">
        <ele>254.00</ele>
        <time>2018-05-26T13:04:55Z</time>
      </trkpt>
      <trkpt lat="41.717753800" lon="1.814462400">
        <ele>253.80</ele>
        <time>2018-05-26T13:04:57Z</time>
      </trkpt>
      <trkpt lat="41.717972500" lon="1.814616500">
        <ele>252.20</ele>
        <time>2018-05-26T13:05:01Z</time>
      </trkpt>
      <trkpt lat="41.718095700" lon="1.814685800">
        <ele>252.20</ele>
        <time>2018-05-26T13:05:03Z</time>
      </trkpt>
      <trkpt lat="41.718325800" lon="1.814798000">
        <ele>250.80</ele>
        <time>2018-05-26T13:05:06Z</time>
      </trkpt>
      <trkpt lat="41.718491500" lon="1.814877100">
        <ele>249.80</ele>
        <time>2018-05-26T13:05:08Z</time>
      </trkpt>
      <trkpt lat="41.718674500" lon="1.814958700">
        <ele>247.80</ele>
        <time>2018-05-26T13:05:10Z</time>
      </trkpt>
      <trkpt lat="41.718865900" lon="1.815048600">
        <ele>246.20</ele>
        <time>2018-05-26T13:05:12Z</time>
      </trkpt>
      <trkpt lat="41.718964300" lon="1.815093800">
        <ele>245.20</ele>
        <time>2018-05-26T13:05:13Z</time>
      </trkpt>
      <trkpt lat="41.719063700" lon="1.815142600">
        <ele>244.40</ele>
        <time>2018-05-26T13:05:14Z</time>
      </trkpt>
      <trkpt lat="41.719163300" lon="1.815191900">
        <ele>243.80</ele>
        <time>2018-05-26T13:05:15Z</time>
      </trkpt>
      <trkpt lat="41.719364800" lon="1.815288100">
        <ele>242.40</ele>
        <time>2018-05-26T13:05:17Z</time>
      </trkpt>
      <trkpt lat="41.719561700" lon="1.815399300">
        <ele>240.60</ele>
        <time>2018-05-26T13:05:19Z</time>
      </trkpt>
      <trkpt lat="41.719649400" lon="1.815481700">
        <ele>239.80</ele>
        <time>2018-05-26T13:05:20Z</time>
      </trkpt>
      <trkpt lat="41.719727600" lon="1.815575100">
        <ele>239.00</ele>
        <time>2018-05-26T13:05:21Z</time>
      </trkpt>
      <trkpt lat="41.719874000" lon="1.815788900">
        <ele>237.80</ele>
        <time>2018-05-26T13:05:23Z</time>
      </trkpt>
      <trkpt lat="41.719982000" lon="1.816046100">
        <ele>236.20</ele>
        <time>2018-05-26T13:05:25Z</time>
      </trkpt>
      <trkpt lat="41.720010500" lon="1.816196000">
        <ele>235.20</ele>
        <time>2018-05-26T13:05:26Z</time>
      </trkpt>
      <trkpt lat="41.720027400" lon="1.816349900">
        <ele>234.00</ele>
        <time>2018-05-26T13:05:27Z</time>
      </trkpt>
      <trkpt lat="41.720032000" lon="1.816507800">
        <ele>233.00</ele>
        <time>2018-05-26T13:05:28Z</time>
      </trkpt>
      <trkpt lat="41.720025700" lon="1.816666900">
        <ele>232.00</ele>
        <time>2018-05-26T13:05:29Z</time>
      </trkpt>
      <trkpt lat="41.720021200" lon="1.816825300">
        <ele>231.00</ele>
        <time>2018-05-26T13:05:30Z</time>
      </trkpt>
      <trkpt lat="41.720012800" lon="1.816986100">
        <ele>230.00</ele>
        <time>2018-05-26T13:05:31Z</time>
      </trkpt>
      <trkpt lat="41.720003800" lon="1.817149300">
        <ele>228.80</ele>
        <time>2018-05-26T13:05:32Z</time>
      </trkpt>
      <trkpt lat="41.719991800" lon="1.817313400">
        <ele>228.00</ele>
        <time>2018-05-26T13:05:33Z</time>
      </trkpt>
      <trkpt lat="41.719983300" lon="1.817479400">
        <ele>225.40</ele>
        <time>2018-05-26T13:05:34Z</time>
      </trkpt>
      <trkpt lat="41.719977500" lon="1.817644700">
        <ele>223.00</ele>
        <time>2018-05-26T13:05:35Z</time>
      </trkpt>
      <trkpt lat="41.719971000" lon="1.817796300">
        <ele>221.40</ele>
        <time>2018-05-26T13:05:36Z</time>
      </trkpt>
      <trkpt lat="41.719963400" lon="1.818067900">
        <ele>221.40</ele>
        <time>2018-05-26T13:05:38Z</time>
      </trkpt>
      <trkpt lat="41.719980000" lon="1.818204100">
        <ele>221.40</ele>
        <time>2018-05-26T13:05:39Z</time>
      </trkpt>
      <trkpt lat="41.720112200" lon="1.818418400">
        <ele>220.00</ele>
        <time>2018-05-26T13:05:41Z</time>
      </trkpt>
      <trkpt lat="41.720255700" lon="1.818587600">
        <ele>218.60</ele>
        <time>2018-05-26T13:05:43Z</time>
      </trkpt>
      <trkpt lat="41.720301500" lon="1.818703300">
        <ele>218.00</ele>
        <time>2018-05-26T13:05:44Z</time>
      </trkpt>
      <trkpt lat="41.720319900" lon="1.818831300">
        <ele>217.20</ele>
        <time>2018-05-26T13:05:45Z</time>
      </trkpt>
      <trkpt lat="41.720322900" lon="1.818966300">
        <ele>216.60</ele>
        <time>2018-05-26T13:05:46Z</time>
      </trkpt>
      <trkpt lat="41.720318800" lon="1.819101700">
        <ele>215.60</ele>
        <time>2018-05-26T13:05:47Z</time>
      </trkpt>
      <trkpt lat="41.720315700" lon="1.819239900">
        <ele>215.00</ele>
        <time>2018-05-26T13:05:48Z</time>
      </trkpt>
      <trkpt lat="41.720314900" lon="1.819378500">
        <ele>214.40</ele>
        <time>2018-05-26T13:05:49Z</time>
      </trkpt>
      <trkpt lat="41.720312300" lon="1.819654700">
        <ele>212.60</ele>
        <time>2018-05-26T13:05:51Z</time>
      </trkpt>
      <trkpt lat="41.720308800" lon="1.819792800">
        <ele>212.20</ele>
        <time>2018-05-26T13:05:52Z</time>
      </trkpt>
      <trkpt lat="41.720306600" lon="1.820314100">
        <ele>211.40</ele>
        <time>2018-05-26T13:05:56Z</time>
      </trkpt>
      <trkpt lat="41.720339100" lon="1.820534200">
        <ele>210.60</ele>
        <time>2018-05-26T13:05:58Z</time>
      </trkpt>
      <trkpt lat="41.720551400" lon="1.820671400">
        <ele>209.60</ele>
        <time>2018-05-26T13:06:01Z</time>
      </trkpt>
      <trkpt lat="41.720734000" lon="1.820656400">
        <ele>210.80</ele>
        <time>2018-05-26T13:06:03Z</time>
      </trkpt>
      <trkpt lat="41.720996500" lon="1.820624100">
        <ele>210.20</ele>
        <time>2018-05-26T13:06:06Z</time>
      </trkpt>
      <trkpt lat="41.721308500" lon="1.820573500">
        <ele>211.40</ele>
        <time>2018-05-26T13:06:10Z</time>
      </trkpt>
      <trkpt lat="41.721409700" lon="1.820563800">
        <ele>211.80</ele>
        <time>2018-05-26T13:06:13Z</time>
      </trkpt>
      <trkpt lat="41.721528100" lon="1.820544800">
        <ele>211.80</ele>
        <time>2018-05-26T13:07:22Z</time>
      </trkpt>
      <trkpt lat="41.721744700" lon="1.820532900">
        <ele>211.80</ele>
        <time>2018-05-26T13:07:27Z</time>
      </trkpt>
      <trkpt lat="41.721845400" lon="1.820511700">
        <ele>212.20</ele>
        <time>2018-05-26T13:07:29Z</time>
      </trkpt>
      <trkpt lat="41.721958800" lon="1.820499800">
        <ele>212.40</ele>
        <time>2018-05-26T13:07:31Z</time>
      </trkpt>
      <trkpt lat="41.722085400" lon="1.820505200">
        <ele>212.40</ele>
        <time>2018-05-26T13:07:33Z</time>
      </trkpt>
      <trkpt lat="41.722352700" lon="1.820515000">
        <ele>213.80</ele>
        <time>2018-05-26T13:07:38Z</time>
      </trkpt>
      <trkpt lat="41.722543300" lon="1.820493800">
        <ele>215.00</ele>
        <time>2018-05-26T13:07:42Z</time>
      </trkpt>
      <trkpt lat="41.722668400" lon="1.820485300">
        <ele>215.60</ele>
        <time>2018-05-26T13:07:45Z</time>
      </trkpt>
      <trkpt lat="41.722834000" lon="1.820499800">
        <ele>217.00</ele>
        <time>2018-05-26T13:07:49Z</time>
      </trkpt>
      <trkpt lat="41.722968900" lon="1.820512100">
        <ele>217.20</ele>
        <time>2018-05-26T13:07:52Z</time>
      </trkpt>
      <trkpt lat="41.723160200" lon="1.820509600">
        <ele>217.80</ele>
        <time>2018-05-26T13:07:56Z</time>
      </trkpt>
      <trkpt lat="41.723279400" lon="1.820482800">
        <ele>217.80</ele>
        <time>2018-05-26T13:07:59Z</time>
      </trkpt>
      <trkpt lat="41.723435400" lon="1.820446300">
        <ele>218.60</ele>
        <time>2018-05-26T13:08:04Z</time>
      </trkpt>
      <trkpt lat="41.723688800" lon="1.820461000">
        <ele>219.40</ele>
        <time>2018-05-26T13:08:10Z</time>
      </trkpt>
      <trkpt lat="41.723885400" lon="1.820466300">
        <ele>219.40</ele>
        <time>2018-05-26T13:08:15Z</time>
      </trkpt>
      <trkpt lat="41.723971500" lon="1.820222600">
        <ele>220.40</ele>
        <time>2018-05-26T13:08:21Z</time>
      </trkpt>
      <trkpt lat="41.724071500" lon="1.819881500">
        <ele>221.60</ele>
        <time>2018-05-26T13:08:28Z</time>
      </trkpt>
      <trkpt lat="41.724182100" lon="1.819576200">
        <ele>222.00</ele>
        <time>2018-05-26T13:08:34Z</time>
      </trkpt>
      <trkpt lat="41.724230200" lon="1.819419400">
        <ele>222.00</ele>
        <time>2018-05-26T13:08:37Z</time>
      </trkpt>
      <trkpt lat="41.724300700" lon="1.819206900">
        <ele>222.60</ele>
        <time>2018-05-26T13:08:41Z</time>
      </trkpt>
      <trkpt lat="41.724366200" lon="1.819103900">
        <ele>222.40</ele>
        <time>2018-05-26T13:08:44Z</time>
      </trkpt>
      <trkpt lat="41.724480800" lon="1.819057100">
        <ele>223.20</ele>
        <time>2018-05-26T13:08:47Z</time>
      </trkpt>
      <trkpt lat="41.724682300" lon="1.819106600">
        <ele>224.00</ele>
        <time>2018-05-26T13:08:52Z</time>
      </trkpt>
      <trkpt lat="41.724892300" lon="1.819305100">
        <ele>224.80</ele>
        <time>2018-05-26T13:08:58Z</time>
      </trkpt>
      <trkpt lat="41.725078300" lon="1.819440300">
        <ele>226.20</ele>
        <time>2018-05-26T13:09:03Z</time>
      </trkpt>
      <trkpt lat="41.725275600" lon="1.819607400">
        <ele>227.60</ele>
        <time>2018-05-26T13:09:09Z</time>
      </trkpt>
      <trkpt lat="41.725405600" lon="1.819683200">
        <ele>228.60</ele>
        <time>2018-05-26T13:09:13Z</time>
      </trkpt>
      <trkpt lat="41.725493400" lon="1.819755700">
        <ele>229.60</ele>
        <time>2018-05-26T13:09:17Z</time>
      </trkpt>
      <trkpt lat="41.725646200" lon="1.819858000">
        <ele>230.40</ele>
        <time>2018-05-26T13:09:25Z</time>
      </trkpt>
      <trkpt lat="41.725721200" lon="1.820008400">
        <ele>230.40</ele>
        <time>2018-05-26T13:10:14Z</time>
      </trkpt>
      <trkpt lat="41.725884300" lon="1.820129400">
        <ele>230.80</ele>
        <time>2018-05-26T13:10:21Z</time>
      </trkpt>
      <trkpt lat="41.725977800" lon="1.820185400">
        <ele>232.20</ele>
        <time>2018-05-26T13:10:24Z</time>
      </trkpt>
      <trkpt lat="41.726095400" lon="1.820242800">
        <ele>233.00</ele>
        <time>2018-05-26T13:10:28Z</time>
      </trkpt>
      <trkpt lat="41.726184700" lon="1.820280900">
        <ele>233.80</ele>
        <time>2018-05-26T13:10:31Z</time>
      </trkpt>
      <trkpt lat="41.726340900" lon="1.820357600">
        <ele>234.80</ele>
        <time>2018-05-26T13:10:36Z</time>
      </trkpt>
      <trkpt lat="41.726432500" lon="1.820392100">
        <ele>236.00</ele>
        <time>2018-05-26T13:10:39Z</time>
      </trkpt>
      <trkpt lat="41.726561700" lon="1.820434000">
        <ele>237.20</ele>
        <time>2018-05-26T13:10:43Z</time>
      </trkpt>
      <trkpt lat="41.726661500" lon="1.820478400">
        <ele>238.00</ele>
        <time>2018-05-26T13:10:46Z</time>
      </trkpt>
      <trkpt lat="41.726748000" lon="1.820562600">
        <ele>238.60</ele>
        <time>2018-05-26T13:10:49Z</time>
      </trkpt>
      <trkpt lat="41.726926600" lon="1.820696100">
        <ele>239.60</ele>
        <time>2018-05-26T13:10:54Z</time>
      </trkpt>
      <trkpt lat="41.727002400" lon="1.820780100">
        <ele>239.60</ele>
        <time>2018-05-26T13:10:56Z</time>
      </trkpt>
      <trkpt lat="41.727292900" lon="1.821068800">
        <ele>239.00</ele>
        <time>2018-05-26T13:11:03Z</time>
      </trkpt>
      <trkpt lat="41.727513400" lon="1.821229600">
        <ele>238.40</ele>
        <time>2018-05-26T13:11:07Z</time>
      </trkpt>
      <trkpt lat="41.727623100" lon="1.821309900">
        <ele>238.40</ele>
        <time>2018-05-26T13:11:09Z</time>
      </trkpt>
      <trkpt lat="41.728007600" lon="1.821584700">
        <ele>237.80</ele>
        <time>2018-05-26T13:11:16Z</time>
      </trkpt>
      <trkpt lat="41.728335600" lon="1.821760200">
        <ele>239.00</ele>
        <time>2018-05-26T13:11:22Z</time>
      </trkpt>
      <trkpt lat="41.728586000" lon="1.821889500">
        <ele>240.00</ele>
        <time>2018-05-26T13:11:27Z</time>
      </trkpt>
      <trkpt lat="41.728774700" lon="1.821991400">
        <ele>241.00</ele>
        <time>2018-05-26T13:11:31Z</time>
      </trkpt>
      <trkpt lat="41.728944400" lon="1.822068200">
        <ele>241.20</ele>
        <time>2018-05-26T13:11:35Z</time>
      </trkpt>
      <trkpt lat="41.729122200" lon="1.822118600">
        <ele>242.00</ele>
        <time>2018-05-26T13:11:41Z</time>
      </trkpt>
      <trkpt lat="41.729227700" lon="1.822140800">
        <ele>241.60</ele>
        <time>2018-05-26T13:11:49Z</time>
      </trkpt>
      <trkpt lat="41.729329000" lon="1.822270300">
        <ele>241.60</ele>
        <time>2018-05-26T13:11:54Z</time>
      </trkpt>
      <trkpt lat="41.729422600" lon="1.822380100">
        <ele>241.20</ele>
        <time>2018-05-26T13:11:57Z</time>
      </trkpt>
      <trkpt lat="41.729768600" lon="1.822657100">
        <ele>241.20</ele>
        <time>2018-05-26T13:12:04Z</time>
      </trkpt>
      <trkpt lat="41.730158600" lon="1.822860300">
        <ele>240.80</ele>
        <time>2018-05-26T13:12:11Z</time>
      </trkpt>
      <trkpt lat="41.730372600" lon="1.822924700">
        <ele>240.60</ele>
        <time>2018-05-26T13:12:15Z</time>
      </trkpt>
      <trkpt lat="41.730658900" lon="1.822837500">
        <ele>241.60</ele>
        <time>2018-05-26T13:12:20Z</time>
      </trkpt>
      <trkpt lat="41.730771700" lon="1.822817300">
        <ele>242.00</ele>
        <time>2018-05-26T13:12:22Z</time>
      </trkpt>
      <trkpt lat="41.730887200" lon="1.822800900">
        <ele>242.20</ele>
        <time>2018-05-26T13:12:24Z</time>
      </trkpt>
      <trkpt lat="41.731132500" lon="1.822720900">
        <ele>243.00</ele>
        <time>2018-05-26T13:12:28Z</time>
      </trkpt>
      <trkpt lat="41.731259900" lon="1.822689400">
        <ele>243.40</ele>
        <time>2018-05-26T13:12:30Z</time>
      </trkpt>
      <trkpt lat="41.731622900" lon="1.822602900">
        <ele>243.60</ele>
        <time>2018-05-26T13:12:36Z</time>
      </trkpt>
      <trkpt lat="41.731866100" lon="1.822530500">
        <ele>244.40</ele>
        <time>2018-05-26T13:12:40Z</time>
      </trkpt>
      <trkpt lat="41.732046200" lon="1.822463300">
        <ele>244.80</ele>
        <time>2018-05-26T13:12:43Z</time>
      </trkpt>
      <trkpt lat="41.732234000" lon="1.822443700">
        <ele>245.20</ele>
        <time>2018-05-26T13:12:46Z</time>
      </trkpt>
      <trkpt lat="41.732351000" lon="1.822467800">
        <ele>245.80</ele>
        <time>2018-05-26T13:12:48Z</time>
      </trkpt>
      <trkpt lat="41.732682800" lon="1.822553200">
        <ele>246.20</ele>
        <time>2018-05-26T13:12:54Z</time>
      </trkpt>
      <trkpt lat="41.732892100" lon="1.822594800">
        <ele>246.60</ele>
        <time>2018-05-26T13:12:58Z</time>
      </trkpt>
      <trkpt lat="41.733052100" lon="1.822618600">
        <ele>247.20</ele>
        <time>2018-05-26T13:13:01Z</time>
      </trkpt>
      <trkpt lat="41.733243600" lon="1.822659300">
        <ele>247.80</ele>
        <time>2018-05-26T13:13:05Z</time>
      </trkpt>
      <trkpt lat="41.733341200" lon="1.822681600">
        <ele>248.00</ele>
        <time>2018-05-26T13:13:07Z</time>
      </trkpt>
      <trkpt lat="41.733487500" lon="1.822707800">
        <ele>248.80</ele>
        <time>2018-05-26T13:13:10Z</time>
      </trkpt>
      <trkpt lat="41.733677900" lon="1.822744500">
        <ele>249.80</ele>
        <time>2018-05-26T13:13:14Z</time>
      </trkpt>
      <trkpt lat="41.733775100" lon="1.822768400">
        <ele>250.00</ele>
        <time>2018-05-26T13:13:16Z</time>
      </trkpt>
      <trkpt lat="41.733911600" lon="1.822774200">
        <ele>250.40</ele>
        <time>2018-05-26T13:13:20Z</time>
      </trkpt>
      <trkpt lat="41.734024100" lon="1.822811000">
        <ele>251.40</ele>
        <time>2018-05-26T13:13:24Z</time>
      </trkpt>
      <trkpt lat="41.734178200" lon="1.822924500">
        <ele>252.00</ele>
        <time>2018-05-26T13:13:27Z</time>
      </trkpt>
      <trkpt lat="41.734320000" lon="1.823016300">
        <ele>252.60</ele>
        <time>2018-05-26T13:13:30Z</time>
      </trkpt>
      <trkpt lat="41.734503200" lon="1.823180700">
        <ele>253.40</ele>
        <time>2018-05-26T13:13:34Z</time>
      </trkpt>
      <trkpt lat="41.734628400" lon="1.823370500">
        <ele>253.40</ele>
        <time>2018-05-26T13:13:37Z</time>
      </trkpt>
      <trkpt lat="41.734718400" lon="1.823568900">
        <ele>254.60</ele>
        <time>2018-05-26T13:13:41Z</time>
      </trkpt>
      <trkpt lat="41.734751200" lon="1.823795600">
        <ele>255.80</ele>
        <time>2018-05-26T13:13:45Z</time>
      </trkpt>
      <trkpt lat="41.734785400" lon="1.824084400">
        <ele>256.20</ele>
        <time>2018-05-26T13:13:51Z</time>
      </trkpt>
      <trkpt lat="41.734868700" lon="1.824206800">
        <ele>257.00</ele>
        <time>2018-05-26T13:13:54Z</time>
      </trkpt>
      <trkpt lat="41.735020600" lon="1.824442600">
        <ele>257.60</ele>
        <time>2018-05-26T13:14:00Z</time>
      </trkpt>
      <trkpt lat="41.735128400" lon="1.824608400">
        <ele>258.20</ele>
        <time>2018-05-26T13:14:04Z</time>
      </trkpt>
      <trkpt lat="41.735232900" lon="1.824762200">
        <ele>258.80</ele>
        <time>2018-05-26T13:14:08Z</time>
      </trkpt>
      <trkpt lat="41.735319000" lon="1.824887000">
        <ele>258.80</ele>
        <time>2018-05-26T13:14:12Z</time>
      </trkpt>
      <trkpt lat="41.735388900" lon="1.824987100">
        <ele>259.40</ele>
        <time>2018-05-26T13:14:16Z</time>
      </trkpt>
      <trkpt lat="41.735453700" lon="1.825107900">
        <ele>259.60</ele>
        <time>2018-05-26T13:14:21Z</time>
      </trkpt>
      <trkpt lat="41.735525300" lon="1.825241700">
        <ele>260.00</ele>
        <time>2018-05-26T13:14:30Z</time>
      </trkpt>
      <trkpt lat="41.735551300" lon="1.825360100">
        <ele>260.00</ele>
        <time>2018-05-26T13:14:36Z</time>
      </trkpt>
      <trkpt lat="41.735590000" lon="1.825503900">
        <ele>259.80</ele>
        <time>2018-05-26T13:14:41Z</time>
      </trkpt>
      <trkpt lat="41.735665300" lon="1.825621400">
        <ele>259.40</ele>
        <time>2018-05-26T13:14:45Z</time>
      </trkpt>
      <trkpt lat="41.735737600" lon="1.825697500">
        <ele>260.20</ele>
        <time>2018-05-26T13:14:47Z</time>
      </trkpt>
      <trkpt lat="41.735795900" lon="1.825806500">
        <ele>260.40</ele>
        <time>2018-05-26T13:14:49Z</time>
      </trkpt>
      <trkpt lat="41.735856700" lon="1.825909300">
        <ele>260.60</ele>
        <time>2018-05-26T13:14:51Z</time>
      </trkpt>
      <trkpt lat="41.735969600" lon="1.826129300">
        <ele>260.80</ele>
        <time>2018-05-26T13:14:55Z</time>
      </trkpt>
      <trkpt lat="41.736037600" lon="1.826291100">
        <ele>261.40</ele>
        <time>2018-05-26T13:14:58Z</time>
      </trkpt>
      <trkpt lat="41.736099100" lon="1.826442400">
        <ele>262.20</ele>
        <time>2018-05-26T13:15:01Z</time>
      </trkpt>
      <trkpt lat="41.736151200" lon="1.826608700">
        <ele>262.60</ele>
        <time>2018-05-26T13:15:04Z</time>
      </trkpt>
      <trkpt lat="41.736192300" lon="1.826846400">
        <ele>263.40</ele>
        <time>2018-05-26T13:15:08Z</time>
      </trkpt>
      <trkpt lat="41.736262800" lon="1.827096000">
        <ele>263.40</ele>
        <time>2018-05-26T13:15:12Z</time>
      </trkpt>
      <trkpt lat="41.736354500" lon="1.827295600">
        <ele>263.80</ele>
        <time>2018-05-26T13:15:15Z</time>
      </trkpt>
      <trkpt lat="41.736436200" lon="1.827639600">
        <ele>264.00</ele>
        <time>2018-05-26T13:15:20Z</time>
      </trkpt>
      <trkpt lat="41.736516100" lon="1.828067300">
        <ele>264.00</ele>
        <time>2018-05-26T13:15:26Z</time>
      </trkpt>
      <trkpt lat="41.736548000" lon="1.828211300">
        <ele>263.80</ele>
        <time>2018-05-26T13:15:28Z</time>
      </trkpt>
    </trkseg>
  </trk>
</gpx>
